<?xml version="1.0" encoding="UTF-8"?>
<gpx version="1.1" creator="https://www.youtrack.es" xsi:schemaLocation="http://www.topografix.com/GPX/1/1 http://www.topografix.com/GPX/1/1/gpx.xsd http://www.garmin.com/xmlschemas/GpxExtensions/v3 http://www.garmin.com/xmlschemas/GpxExtensionsv3.xsd http://www.garmin.com/xmlschemas/TrackPointExtension/v1 http://www.garmin.com/xmlschemas/TrackPointExtensionv1.xsd" xmlns:gpxtpx="http://www.garmin.com/xmlschemas/TrackPointExtension/v1" xmlns:gpxx="http://www.garmin.com/xmlschemas/GpxExtensions/v3" xmlns:xsi="http://www.w3.org/2001/XMLSchema-instance">
  <metadata>
    <link href="https://www.youtrack.es">
      <text>YouTrack.es</text>
    </link>
    <time>2026-05-08T08:45:29Z</time>
  </metadata>
  <trk>
    <src>https://www.youtrack.es</src>
    <link href="https://www.youtrack.es/ruta/1502-pedro">
      <text>YouTrack.es</text>
    </link>
    <trkseg>
      <trkpt lat="42.835491020232439" lon="-1.646333020180464">
        <ele>494.04599999999999</ele>
        <time>2016-06-27T11:39:05Z</time>
      </trkpt>
      <trkpt lat="42.835455983877182" lon="-1.646466962993145">
        <ele>489.08800000000002</ele>
        <time>2016-06-27T11:39:24Z</time>
      </trkpt>
      <trkpt lat="42.83545003272593" lon="-1.646661004051566">
        <ele>486.01600000000002</ele>
        <time>2016-06-27T11:39:27Z</time>
      </trkpt>
      <trkpt lat="42.835432011634111" lon="-1.646800981834531">
        <ele>486.00799999999998</ele>
        <time>2016-06-27T11:39:29Z</time>
      </trkpt>
      <trkpt lat="42.83540896140039" lon="-1.646961998194456">
        <ele>485.02499999999998</ele>
        <time>2016-06-27T11:39:31Z</time>
      </trkpt>
      <trkpt lat="42.835398986935616" lon="-1.647118991240859">
        <ele>485.05700000000002</ele>
        <time>2016-06-27T11:39:33Z</time>
      </trkpt>
      <trkpt lat="42.835383983328938" lon="-1.647273972630501">
        <ele>485.09199999999998</ele>
        <time>2016-06-27T11:39:35Z</time>
      </trkpt>
      <trkpt lat="42.835377026349306" lon="-1.647413028404117">
        <ele>485.04599999999999</ele>
        <time>2016-06-27T11:39:37Z</time>
      </trkpt>
      <trkpt lat="42.835355987772346" lon="-1.647536996752024">
        <ele>484.084</ele>
        <time>2016-06-27T11:39:39Z</time>
      </trkpt>
      <trkpt lat="42.83532002940774" lon="-1.647648978978396">
        <ele>485.084</ele>
        <time>2016-06-27T11:39:41Z</time>
      </trkpt>
      <trkpt lat="42.835307959467173" lon="-1.64778501726687">
        <ele>485.03399999999999</ele>
        <time>2016-06-27T11:39:43Z</time>
      </trkpt>
      <trkpt lat="42.835311982780695" lon="-1.647955002263188">
        <ele>487.02199999999999</ele>
        <time>2016-06-27T11:39:47Z</time>
      </trkpt>
      <trkpt lat="42.83530100248754" lon="-1.648121969774365">
        <ele>490.08199999999999</ele>
        <time>2016-06-27T11:39:50Z</time>
      </trkpt>
      <trkpt lat="42.835309971123934" lon="-1.648291032761335">
        <ele>490.04300000000001</ele>
        <time>2016-06-27T11:39:53Z</time>
      </trkpt>
      <trkpt lat="42.835328998044133" lon="-1.648463029414415">
        <ele>491.017</ele>
        <time>2016-06-27T11:39:55Z</time>
      </trkpt>
      <trkpt lat="42.835352970287204" lon="-1.648615999147296">
        <ele>489.00799999999998</ele>
        <time>2016-06-27T11:39:58Z</time>
      </trkpt>
      <trkpt lat="42.83536596223712" lon="-1.648767041042447">
        <ele>489.01900000000001</ele>
        <time>2016-06-27T11:40:01Z</time>
      </trkpt>
      <trkpt lat="42.835373003035784" lon="-1.648911964148283">
        <ele>489.06099999999998</ele>
        <time>2016-06-27T11:40:04Z</time>
      </trkpt>
      <trkpt lat="42.835378032177687" lon="-1.649046996608377">
        <ele>488.036</ele>
        <time>2016-06-27T11:40:07Z</time>
      </trkpt>
      <trkpt lat="42.835388006642461" lon="-1.649198960512877">
        <ele>487.06999999999999</ele>
        <time>2016-06-27T11:40:10Z</time>
      </trkpt>
      <trkpt lat="42.835384989157319" lon="-1.649361988529563">
        <ele>487.02800000000002</ele>
        <time>2016-06-27T11:40:13Z</time>
      </trkpt>
      <trkpt lat="42.835412984713912" lon="-1.649486040696502">
        <ele>486.07799999999997</ele>
        <time>2016-06-27T11:40:16Z</time>
      </trkpt>
      <trkpt lat="42.835418013855815" lon="-1.649642027914524">
        <ele>487.05799999999999</ele>
        <time>2016-06-27T11:40:19Z</time>
      </trkpt>
      <trkpt lat="42.835408039391041" lon="-1.649810001254082">
        <ele>488.05599999999998</ele>
        <time>2016-06-27T11:40:22Z</time>
      </trkpt>
      <trkpt lat="42.83540703356266" lon="-1.649989960715175">
        <ele>487.07499999999999</ele>
        <time>2016-06-27T11:40:25Z</time>
      </trkpt>
      <trkpt lat="42.835405021905899" lon="-1.650158017873764">
        <ele>485.02800000000002</ele>
        <time>2016-06-27T11:40:28Z</time>
      </trkpt>
      <trkpt lat="42.835437040776014" lon="-1.650326997041702">
        <ele>485.01999999999998</ele>
        <time>2016-06-27T11:40:31Z</time>
      </trkpt>
      <trkpt lat="42.835478028282523" lon="-1.650479966774583">
        <ele>487.00799999999998</ele>
        <time>2016-06-27T11:40:34Z</time>
      </trkpt>
      <trkpt lat="42.83553896471858" lon="-1.650618016719818">
        <ele>487.01799999999997</ele>
        <time>2016-06-27T11:40:37Z</time>
      </trkpt>
      <trkpt lat="42.835595039650798" lon="-1.650737961754203">
        <ele>488.01999999999998</ele>
        <time>2016-06-27T11:40:40Z</time>
      </trkpt>
      <trkpt lat="42.835658993571997" lon="-1.650860002264381">
        <ele>490.05500000000001</ele>
        <time>2016-06-27T11:40:43Z</time>
      </trkpt>
      <trkpt lat="42.835721019655466" lon="-1.650964021682739">
        <ele>491.04899999999998</ele>
        <time>2016-06-27T11:40:46Z</time>
      </trkpt>
      <trkpt lat="42.835767958313227" lon="-1.651076003909111">
        <ele>491.02699999999999</ele>
        <time>2016-06-27T11:40:49Z</time>
      </trkpt>
      <trkpt lat="42.835782039910555" lon="-1.651209024712443">
        <ele>491.02699999999999</ele>
        <time>2016-06-27T11:40:52Z</time>
      </trkpt>
      <trkpt lat="42.835788996890187" lon="-1.651351014152169">
        <ele>491.05700000000002</ele>
        <time>2016-06-27T11:40:55Z</time>
      </trkpt>
      <trkpt lat="42.835774999111891" lon="-1.651510018855333">
        <ele>491.05500000000001</ele>
        <time>2016-06-27T11:40:58Z</time>
      </trkpt>
      <trkpt lat="42.835776004940271" lon="-1.651659971103072">
        <ele>490.01600000000002</ele>
        <time>2016-06-27T11:41:01Z</time>
      </trkpt>
      <trkpt lat="42.835786985233426" lon="-1.651829034090042">
        <ele>491.07600000000002</ele>
        <time>2016-06-27T11:41:04Z</time>
      </trkpt>
      <trkpt lat="42.83579302020371" lon="-1.651971023529768">
        <ele>491.01299999999998</ele>
        <time>2016-06-27T11:41:07Z</time>
      </trkpt>
      <trkpt lat="42.835790002718568" lon="-1.65212600491941">
        <ele>491.00799999999998</ele>
        <time>2016-06-27T11:41:10Z</time>
      </trkpt>
      <trkpt lat="42.835767958313227" lon="-1.652290038764477">
        <ele>491.05200000000002</ele>
        <time>2016-06-27T11:41:13Z</time>
      </trkpt>
      <trkpt lat="42.835747003555298" lon="-1.652443008497357">
        <ele>490.09399999999999</ele>
        <time>2016-06-27T11:41:16Z</time>
      </trkpt>
      <trkpt lat="42.835655976086855" lon="-1.652541998773813">
        <ele>492.05900000000003</ele>
        <time>2016-06-27T11:41:20Z</time>
      </trkpt>
      <trkpt lat="42.835623035207391" lon="-1.652656998485327">
        <ele>492.07299999999998</ele>
        <time>2016-06-27T11:41:23Z</time>
      </trkpt>
      <trkpt lat="42.835587998852134" lon="-1.652803011238575">
        <ele>492.09100000000001</ele>
        <time>2016-06-27T11:41:27Z</time>
      </trkpt>
      <trkpt lat="42.835614988580346" lon="-1.652971990406513">
        <ele>494.03100000000001</ele>
        <time>2016-06-27T11:41:30Z</time>
      </trkpt>
      <trkpt lat="42.835658993571997" lon="-1.653119008988142">
        <ele>496.06099999999998</ele>
        <time>2016-06-27T11:41:33Z</time>
      </trkpt>
      <trkpt lat="42.835690006613731" lon="-1.653272984549403">
        <ele>494.04899999999998</ele>
        <time>2016-06-27T11:41:37Z</time>
      </trkpt>
      <trkpt lat="42.835721019655466" lon="-1.653431989252567">
        <ele>493.05200000000002</ele>
        <time>2016-06-27T11:41:40Z</time>
      </trkpt>
      <trkpt lat="42.835748009383678" lon="-1.653556041419506">
        <ele>492.053</ele>
        <time>2016-06-27T11:41:41Z</time>
      </trkpt>
      <trkpt lat="42.83577298745513" lon="-1.6537169739604">
        <ele>492.00799999999998</ele>
        <time>2016-06-27T11:41:43Z</time>
      </trkpt>
      <trkpt lat="42.835797965526581" lon="-1.653878996148706">
        <ele>491.00799999999998</ele>
        <time>2016-06-27T11:41:45Z</time>
      </trkpt>
      <trkpt lat="42.835804000496864" lon="-1.654019979760051">
        <ele>490.02600000000001</ele>
        <time>2016-06-27T11:41:47Z</time>
      </trkpt>
      <trkpt lat="42.835827972739935" lon="-1.654204968363047">
        <ele>493.048</ele>
        <time>2016-06-27T11:41:50Z</time>
      </trkpt>
      <trkpt lat="42.835873989388347" lon="-1.654366990551353">
        <ele>493.09300000000002</ele>
        <time>2016-06-27T11:41:53Z</time>
      </trkpt>
      <trkpt lat="42.835954036563635" lon="-1.654478972777724">
        <ele>493.06700000000001</ele>
        <time>2016-06-27T11:41:56Z</time>
      </trkpt>
      <trkpt lat="42.836032994091511" lon="-1.654587015509605">
        <ele>492.03500000000003</ele>
        <time>2016-06-27T11:41:59Z</time>
      </trkpt>
      <trkpt lat="42.836099965497851" lon="-1.654714001342654">
        <ele>493.07499999999999</ele>
        <time>2016-06-27T11:42:02Z</time>
      </trkpt>
      <trkpt lat="42.836157968267798" lon="-1.654874011874199">
        <ele>493.01499999999999</ele>
        <time>2016-06-27T11:42:05Z</time>
      </trkpt>
      <trkpt lat="42.836187975481153" lon="-1.65504802018404">
        <ele>492.08300000000003</ele>
        <time>2016-06-27T11:42:08Z</time>
      </trkpt>
      <trkpt lat="42.836209014058113" lon="-1.655175006017089">
        <ele>492.07900000000001</ele>
        <time>2016-06-27T11:42:10Z</time>
      </trkpt>
      <trkpt lat="42.83622401766479" lon="-1.655299980193377">
        <ele>491.005</ele>
        <time>2016-06-27T11:42:12Z</time>
      </trkpt>
      <trkpt lat="42.836228962987661" lon="-1.655425960198045">
        <ele>491.02499999999998</ele>
        <time>2016-06-27T11:42:14Z</time>
      </trkpt>
      <trkpt lat="42.836250001564622" lon="-1.65560700930655">
        <ele>491.00799999999998</ele>
        <time>2016-06-27T11:42:17Z</time>
      </trkpt>
      <trkpt lat="42.836277997121215" lon="-1.655740030109882">
        <ele>492.02800000000002</ele>
        <time>2016-06-27T11:42:19Z</time>
      </trkpt>
      <trkpt lat="42.836308004334569" lon="-1.655910015106201">
        <ele>493.08999999999997</ele>
        <time>2016-06-27T11:42:22Z</time>
      </trkpt>
      <trkpt lat="42.836328037083149" lon="-1.656072037294507">
        <ele>491.01499999999999</ele>
        <time>2016-06-27T11:42:25Z</time>
      </trkpt>
      <trkpt lat="42.836347986012697" lon="-1.656236993148923">
        <ele>490.06900000000002</ele>
        <time>2016-06-27T11:42:28Z</time>
      </trkpt>
      <trkpt lat="42.836381010711193" lon="-1.656403038650751">
        <ele>491.017</ele>
        <time>2016-06-27T11:42:31Z</time>
      </trkpt>
      <trkpt lat="42.83641504123807" lon="-1.656543016433716">
        <ele>491.077</ele>
        <time>2016-06-27T11:42:34Z</time>
      </trkpt>
      <trkpt lat="42.836449993774295" lon="-1.656699003651738">
        <ele>492.08699999999999</ele>
        <time>2016-06-27T11:42:37Z</time>
      </trkpt>
      <trkpt lat="42.836491987109184" lon="-1.656846022233367">
        <ele>491.07499999999999</ele>
        <time>2016-06-27T11:42:40Z</time>
      </trkpt>
      <trkpt lat="42.836535992100835" lon="-1.656998991966248">
        <ele>490.03800000000001</ele>
        <time>2016-06-27T11:42:43Z</time>
      </trkpt>
      <trkpt lat="42.836581002920866" lon="-1.657166965305805">
        <ele>489.06999999999999</ele>
        <time>2016-06-27T11:42:46Z</time>
      </trkpt>
      <trkpt lat="42.836639005690813" lon="-1.657308032736182">
        <ele>490.017</ele>
        <time>2016-06-27T11:42:49Z</time>
      </trkpt>
      <trkpt lat="42.836679993197322" lon="-1.657443987205625">
        <ele>490.00799999999998</ele>
        <time>2016-06-27T11:42:52Z</time>
      </trkpt>
      <trkpt lat="42.836702037602663" lon="-1.657595029100776">
        <ele>491.01400000000001</ele>
        <time>2016-06-27T11:42:55Z</time>
      </trkpt>
      <trkpt lat="42.836721986532211" lon="-1.657738024368882">
        <ele>490.05599999999998</ele>
        <time>2016-06-27T11:42:58Z</time>
      </trkpt>
      <trkpt lat="42.836725004017353" lon="-1.657891999930143">
        <ele>490.06099999999998</ele>
        <time>2016-06-27T11:43:01Z</time>
      </trkpt>
      <trkpt lat="42.836735984310508" lon="-1.658052010461688">
        <ele>488.08499999999998</ele>
        <time>2016-06-27T11:43:04Z</time>
      </trkpt>
      <trkpt lat="42.836721986532211" lon="-1.658212020993233">
        <ele>489.09300000000002</ele>
        <time>2016-06-27T11:43:07Z</time>
      </trkpt>
      <trkpt lat="42.836707988753915" lon="-1.658340012654662">
        <ele>490.02300000000002</ele>
        <time>2016-06-27T11:43:09Z</time>
      </trkpt>
      <trkpt lat="42.836682004854083" lon="-1.658499017357826">
        <ele>490.04300000000001</ele>
        <time>2016-06-27T11:43:12Z</time>
      </trkpt>
      <trkpt lat="42.836640011519194" lon="-1.658651987090707">
        <ele>491.01100000000002</ele>
        <time>2016-06-27T11:43:15Z</time>
      </trkpt>
      <trkpt lat="42.836600029841065" lon="-1.658822977915406">
        <ele>490.02800000000002</ele>
        <time>2016-06-27T11:43:18Z</time>
      </trkpt>
      <trkpt lat="42.836553007364273" lon="-1.658975025638938">
        <ele>490.089</ele>
        <time>2016-06-27T11:43:21Z</time>
      </trkpt>
      <trkpt lat="42.836531968787313" lon="-1.659093964844942">
        <ele>490.017</ele>
        <time>2016-06-27T11:43:23Z</time>
      </trkpt>
      <trkpt lat="42.836517971009016" lon="-1.65926001034677">
        <ele>489.00799999999998</ele>
        <time>2016-06-27T11:43:26Z</time>
      </trkpt>
      <trkpt lat="42.836507996544242" lon="-1.659438963979483">
        <ele>489.09300000000002</ele>
        <time>2016-06-27T11:43:29Z</time>
      </trkpt>
      <trkpt lat="42.836518976837397" lon="-1.65958397090435">
        <ele>488.09500000000003</ele>
        <time>2016-06-27T11:43:31Z</time>
      </trkpt>
      <trkpt lat="42.83654797822237" lon="-1.659729983657599">
        <ele>487.07999999999998</ele>
        <time>2016-06-27T11:43:33Z</time>
      </trkpt>
      <trkpt lat="42.836587959900498" lon="-1.659889994189143">
        <ele>486.04399999999998</ele>
        <time>2016-06-27T11:43:35Z</time>
      </trkpt>
      <trkpt lat="42.83663297072053" lon="-1.660038018599153">
        <ele>486.05200000000002</ele>
        <time>2016-06-27T11:43:37Z</time>
      </trkpt>
      <trkpt lat="42.836704971268773" lon="-1.660157963633537">
        <ele>486.04199999999997</ele>
        <time>2016-06-27T11:43:39Z</time>
      </trkpt>
      <trkpt lat="42.836778983473778" lon="-1.660267012193799">
        <ele>487.08199999999999</ele>
        <time>2016-06-27T11:43:42Z</time>
      </trkpt>
      <trkpt lat="42.836865987628698" lon="-1.660344041883946">
        <ele>487.06999999999999</ele>
        <time>2016-06-27T11:43:44Z</time>
      </trkpt>
      <trkpt lat="42.836952991783619" lon="-1.660474967211485">
        <ele>485.09100000000001</ele>
        <time>2016-06-27T11:43:46Z</time>
      </trkpt>
      <trkpt lat="42.837043013423681" lon="-1.660557026043534">
        <ele>487.08100000000002</ele>
        <time>2016-06-27T11:43:48Z</time>
      </trkpt>
      <trkpt lat="42.837142003700137" lon="-1.660594996064901">
        <ele>487.01900000000001</ele>
        <time>2016-06-27T11:43:51Z</time>
      </trkpt>
      <trkpt lat="42.837223978713155" lon="-1.660469016060233">
        <ele>486.00799999999998</ele>
        <time>2016-06-27T11:43:54Z</time>
      </trkpt>
      <trkpt lat="42.837301008403301" lon="-1.660335995256901">
        <ele>486.08999999999997</ele>
        <time>2016-06-27T11:43:57Z</time>
      </trkpt>
      <trkpt lat="42.837376026436687" lon="-1.66020498611033">
        <ele>487.072</ele>
        <time>2016-06-27T11:44:00Z</time>
      </trkpt>
      <trkpt lat="42.837451966479421" lon="-1.6600960213691">
        <ele>487.02699999999999</ele>
        <time>2016-06-27T11:44:03Z</time>
      </trkpt>
      <trkpt lat="42.83755699172616" lon="-1.66005402803421">
        <ele>488.05099999999999</ele>
        <time>2016-06-27T11:44:07Z</time>
      </trkpt>
      <trkpt lat="42.837623963132501" lon="-1.660155029967427">
        <ele>487.06900000000002</ele>
        <time>2016-06-27T11:44:10Z</time>
      </trkpt>
      <trkpt lat="42.837712978944182" lon="-1.660262988880277">
        <ele>487.06900000000002</ele>
        <time>2016-06-27T11:44:13Z</time>
      </trkpt>
      <trkpt lat="42.837791014462709" lon="-1.660393998026848">
        <ele>485.029</ele>
        <time>2016-06-27T11:44:16Z</time>
      </trkpt>
      <trkpt lat="42.837884975597262" lon="-1.660513021051884">
        <ele>487.05700000000002</ele>
        <time>2016-06-27T11:44:19Z</time>
      </trkpt>
      <trkpt lat="42.837963011115789" lon="-1.660643024370074">
        <ele>485.08600000000001</ele>
        <time>2016-06-27T11:44:22Z</time>
      </trkpt>
      <trkpt lat="42.838046997785568" lon="-1.660765986889601">
        <ele>485.06</ele>
        <time>2016-06-27T11:44:25Z</time>
      </trkpt>
      <trkpt lat="42.838121009990573" lon="-1.660899007692933">
        <ele>486.02600000000001</ele>
        <time>2016-06-27T11:44:28Z</time>
      </trkpt>
      <trkpt lat="42.838185969740152" lon="-1.661031022667885">
        <ele>487.00799999999998</ele>
        <time>2016-06-27T11:44:31Z</time>
      </trkpt>
      <trkpt lat="42.838253024965525" lon="-1.661168988794088">
        <ele>487.01900000000001</ele>
        <time>2016-06-27T11:44:34Z</time>
      </trkpt>
      <trkpt lat="42.838304992765188" lon="-1.661318019032478">
        <ele>489.041</ele>
        <time>2016-06-27T11:44:37Z</time>
      </trkpt>
      <trkpt lat="42.838362995535135" lon="-1.661467971280217">
        <ele>488.02600000000001</ele>
        <time>2016-06-27T11:44:40Z</time>
      </trkpt>
      <trkpt lat="42.838418986648321" lon="-1.661619013175368">
        <ele>488.05000000000001</ele>
        <time>2016-06-27T11:44:43Z</time>
      </trkpt>
      <trkpt lat="42.838469026610255" lon="-1.661767959594727">
        <ele>488.03800000000001</ele>
        <time>2016-06-27T11:44:46Z</time>
      </trkpt>
      <trkpt lat="42.838517976924777" lon="-1.661919001489878">
        <ele>488.03800000000001</ele>
        <time>2016-06-27T11:44:49Z</time>
      </trkpt>
      <trkpt lat="42.838557958602905" lon="-1.662070965394378">
        <ele>489.03800000000001</ele>
        <time>2016-06-27T11:44:52Z</time>
      </trkpt>
      <trkpt lat="42.838595006614923" lon="-1.662223013117909">
        <ele>488.036</ele>
        <time>2016-06-27T11:44:55Z</time>
      </trkpt>
      <trkpt lat="42.8386290371418" lon="-1.662377994507551">
        <ele>489.03500000000003</ele>
        <time>2016-06-27T11:44:58Z</time>
      </trkpt>
      <trkpt lat="42.838660972192883" lon="-1.662532975897193">
        <ele>489.08600000000001</ele>
        <time>2016-06-27T11:45:01Z</time>
      </trkpt>
      <trkpt lat="42.838687961921096" lon="-1.662692986428738">
        <ele>488.01400000000001</ele>
        <time>2016-06-27T11:45:04Z</time>
      </trkpt>
      <trkpt lat="42.838726015761495" lon="-1.66284897364676">
        <ele>488.00799999999998</ele>
        <time>2016-06-27T11:45:07Z</time>
      </trkpt>
      <trkpt lat="42.83876096829772" lon="-1.663012001663446">
        <ele>488.06400000000002</ele>
        <time>2016-06-27T11:45:10Z</time>
      </trkpt>
      <trkpt lat="42.838788041844964" lon="-1.663180980831385">
        <ele>489.036</ele>
        <time>2016-06-27T11:45:13Z</time>
      </trkpt>
      <trkpt lat="42.838802961632609" lon="-1.663349959999323">
        <ele>489.041</ele>
        <time>2016-06-27T11:45:16Z</time>
      </trkpt>
      <trkpt lat="42.838828023523092" lon="-1.663518017157912">
        <ele>489.02499999999998</ele>
        <time>2016-06-27T11:45:19Z</time>
      </trkpt>
      <trkpt lat="42.838847972452641" lon="-1.663691019639373">
        <ele>490.01299999999998</ele>
        <time>2016-06-27T11:45:22Z</time>
      </trkpt>
      <trkpt lat="42.838861970230937" lon="-1.663853041827679">
        <ele>489.03300000000002</ele>
        <time>2016-06-27T11:45:25Z</time>
      </trkpt>
      <trkpt lat="42.838890971615911" lon="-1.664013974368572">
        <ele>489.053</ele>
        <time>2016-06-27T11:45:28Z</time>
      </trkpt>
      <trkpt lat="42.838907986879349" lon="-1.664139032363892">
        <ele>489.041</ele>
        <time>2016-06-27T11:45:30Z</time>
      </trkpt>
      <trkpt lat="42.838942017406225" lon="-1.664313962683082">
        <ele>488.07600000000002</ele>
        <time>2016-06-27T11:45:33Z</time>
      </trkpt>
      <trkpt lat="42.838962972164154" lon="-1.664433991536498">
        <ele>488.08999999999997</ele>
        <time>2016-06-27T11:45:35Z</time>
      </trkpt>
      <trkpt lat="42.838970012962818" lon="-1.664619985967875">
        <ele>485.01900000000001</ele>
        <time>2016-06-27T11:45:38Z</time>
      </trkpt>
      <trkpt lat="42.838999014347792" lon="-1.664797011762857">
        <ele>485.00799999999998</ele>
        <time>2016-06-27T11:45:41Z</time>
      </trkpt>
      <trkpt lat="42.839011000469327" lon="-1.664918968454003">
        <ele>486.03800000000001</ele>
        <time>2016-06-27T11:45:43Z</time>
      </trkpt>
      <trkpt lat="42.839052993804216" lon="-1.66514796204865">
        <ele>486.02999999999997</ele>
        <time>2016-06-27T11:45:47Z</time>
      </trkpt>
      <trkpt lat="42.839090041816235" lon="-1.665306966751814">
        <ele>485.04500000000002</ele>
        <time>2016-06-27T11:45:50Z</time>
      </trkpt>
      <trkpt lat="42.839114014059305" lon="-1.665471000596881">
        <ele>485.089</ele>
        <time>2016-06-27T11:45:53Z</time>
      </trkpt>
      <trkpt lat="42.839133962988853" lon="-1.665633022785187">
        <ele>485.017</ele>
        <time>2016-06-27T11:45:56Z</time>
      </trkpt>
      <trkpt lat="42.839152989909053" lon="-1.665780041366816">
        <ele>485.017</ele>
        <time>2016-06-27T11:45:59Z</time>
      </trkpt>
      <trkpt lat="42.83916799351573" lon="-1.665937034413219">
        <ele>485.02699999999999</ele>
        <time>2016-06-27T11:46:02Z</time>
      </trkpt>
      <trkpt lat="42.83918903209269" lon="-1.666082041338086">
        <ele>486.065</ele>
        <time>2016-06-27T11:46:05Z</time>
      </trkpt>
      <trkpt lat="42.839221972972155" lon="-1.666229981929064">
        <ele>485.09500000000003</ele>
        <time>2016-06-27T11:46:08Z</time>
      </trkpt>
      <trkpt lat="42.839240999892354" lon="-1.666398039087653">
        <ele>483.04899999999998</ele>
        <time>2016-06-27T11:46:11Z</time>
      </trkpt>
      <trkpt lat="42.839271007105708" lon="-1.66656400077045">
        <ele>481.02300000000002</ele>
        <time>2016-06-27T11:46:14Z</time>
      </trkpt>
      <trkpt lat="42.839285004884005" lon="-1.666691992431879">
        <ele>481.00799999999998</ele>
        <time>2016-06-27T11:46:16Z</time>
      </trkpt>
      <trkpt lat="42.839315012097359" lon="-1.666858037933707">
        <ele>481.06</ele>
        <time>2016-06-27T11:46:19Z</time>
      </trkpt>
      <trkpt lat="42.839333033189178" lon="-1.667029028758407">
        <ele>481.04199999999997</ele>
        <time>2016-06-27T11:46:22Z</time>
      </trkpt>
      <trkpt lat="42.839359017089009" lon="-1.667198007926345">
        <ele>482.017</ele>
        <time>2016-06-27T11:46:25Z</time>
      </trkpt>
      <trkpt lat="42.839392963796854" lon="-1.667362963780761">
        <ele>483.06099999999998</ele>
        <time>2016-06-27T11:46:28Z</time>
      </trkpt>
      <trkpt lat="42.839418025687337" lon="-1.667528003454208">
        <ele>482.089</ele>
        <time>2016-06-27T11:46:31Z</time>
      </trkpt>
      <trkpt lat="42.839457001537085" lon="-1.667695976793766">
        <ele>482.089</ele>
        <time>2016-06-27T11:46:34Z</time>
      </trkpt>
      <trkpt lat="42.839544005692005" lon="-1.667825980111957">
        <ele>482.029</ele>
        <time>2016-06-27T11:46:37Z</time>
      </trkpt>
      <trkpt lat="42.839651964604855" lon="-1.66793997399509">
        <ele>482.09699999999998</ele>
        <time>2016-06-27T11:46:40Z</time>
      </trkpt>
      <trkpt lat="42.83972698263824" lon="-1.668012980371714">
        <ele>482.01799999999997</ele>
        <time>2016-06-27T11:46:42Z</time>
      </trkpt>
      <trkpt lat="42.839800994843245" lon="-1.66808900423348">
        <ele>481.09800000000001</ele>
        <time>2016-06-27T11:46:44Z</time>
      </trkpt>
      <trkpt lat="42.839891016483307" lon="-1.6681950353086">
        <ele>484.017</ele>
        <time>2016-06-27T11:46:47Z</time>
      </trkpt>
      <trkpt lat="42.839964022859931" lon="-1.668309029191732">
        <ele>483.00799999999998</ele>
        <time>2016-06-27T11:46:50Z</time>
      </trkpt>
      <trkpt lat="42.840042980387807" lon="-1.668422017246485">
        <ele>484.09199999999998</ele>
        <time>2016-06-27T11:46:53Z</time>
      </trkpt>
      <trkpt lat="42.840125961229205" lon="-1.66854003444314">
        <ele>485.03399999999999</ele>
        <time>2016-06-27T11:46:56Z</time>
      </trkpt>
      <trkpt lat="42.840182958170772" lon="-1.668661991134286">
        <ele>486.09899999999999</ele>
        <time>2016-06-27T11:46:59Z</time>
      </trkpt>
      <trkpt lat="42.840246995911002" lon="-1.668785959482193">
        <ele>486.01299999999998</ele>
        <time>2016-06-27T11:47:02Z</time>
      </trkpt>
      <trkpt lat="42.840303992852569" lon="-1.668940018862486">
        <ele>486.06099999999998</ele>
        <time>2016-06-27T11:47:05Z</time>
      </trkpt>
      <trkpt lat="42.84037197008729" lon="-1.669076979160309">
        <ele>485.01100000000002</ele>
        <time>2016-06-27T11:47:08Z</time>
      </trkpt>
      <trkpt lat="42.840450005605817" lon="-1.669186027720571">
        <ele>484.03100000000001</ele>
        <time>2016-06-27T11:47:11Z</time>
      </trkpt>
      <trkpt lat="42.840526029467583" lon="-1.669322988018394">
        <ele>485.029</ele>
        <time>2016-06-27T11:47:14Z</time>
      </trkpt>
      <trkpt lat="42.840601969510317" lon="-1.669439999386668">
        <ele>485.08199999999999</ele>
        <time>2016-06-27T11:47:17Z</time>
      </trkpt>
      <trkpt lat="42.840668018907309" lon="-1.669562961906195">
        <ele>486.04300000000001</ele>
        <time>2016-06-27T11:47:20Z</time>
      </trkpt>
      <trkpt lat="42.840743036940694" lon="-1.66968097910285">
        <ele>486.017</ele>
        <time>2016-06-27T11:47:23Z</time>
      </trkpt>
      <trkpt lat="42.840815037488937" lon="-1.669806959107518">
        <ele>486.00799999999998</ele>
        <time>2016-06-27T11:47:26Z</time>
      </trkpt>
      <trkpt lat="42.840899024158716" lon="-1.669924976304174">
        <ele>486.029</ele>
        <time>2016-06-27T11:47:29Z</time>
      </trkpt>
      <trkpt lat="42.840979993343353" lon="-1.670034024864435">
        <ele>487.03100000000001</ele>
        <time>2016-06-27T11:47:32Z</time>
      </trkpt>
      <trkpt lat="42.8410570230335" lon="-1.670156987383962">
        <ele>490.036</ele>
        <time>2016-06-27T11:47:35Z</time>
      </trkpt>
      <trkpt lat="42.841138998046517" lon="-1.670263018459082">
        <ele>490.06999999999999</ele>
        <time>2016-06-27T11:47:38Z</time>
      </trkpt>
      <trkpt lat="42.841207981109619" lon="-1.670396961271763">
        <ele>491.05799999999999</ele>
        <time>2016-06-27T11:47:41Z</time>
      </trkpt>
      <trkpt lat="42.841274030506611" lon="-1.670516990125179">
        <ele>490.06799999999998</ele>
        <time>2016-06-27T11:47:45Z</time>
      </trkpt>
      <trkpt lat="42.841375032439828" lon="-1.670657973736525">
        <ele>490.01799999999997</ele>
        <time>2016-06-27T11:47:48Z</time>
      </trkpt>
      <trkpt lat="42.841437980532646" lon="-1.670785965397954">
        <ele>490.04599999999999</ele>
        <time>2016-06-27T11:47:51Z</time>
      </trkpt>
      <trkpt lat="42.841491959989071" lon="-1.670914962887764">
        <ele>490.07499999999999</ele>
        <time>2016-06-27T11:47:54Z</time>
      </trkpt>
      <trkpt lat="42.841569995507598" lon="-1.671025017276406">
        <ele>490.02800000000002</ele>
        <time>2016-06-27T11:47:57Z</time>
      </trkpt>
      <trkpt lat="42.841630009934306" lon="-1.671124007552862">
        <ele>492.01999999999998</ele>
        <time>2016-06-27T11:48:00Z</time>
      </trkpt>
      <trkpt lat="42.841693963855505" lon="-1.671222997829318">
        <ele>491.00799999999998</ele>
        <time>2016-06-27T11:48:03Z</time>
      </trkpt>
      <trkpt lat="42.841763030737638" lon="-1.671331040561199">
        <ele>491.07799999999997</ele>
        <time>2016-06-27T11:48:06Z</time>
      </trkpt>
      <trkpt lat="42.841827990487218" lon="-1.67142198421061">
        <ele>492.02999999999997</ele>
        <time>2016-06-27T11:48:09Z</time>
      </trkpt>
      <trkpt lat="42.841909965500236" lon="-1.671521980315447">
        <ele>492.09500000000003</ele>
        <time>2016-06-27T11:48:12Z</time>
      </trkpt>
      <trkpt lat="42.841988001018763" lon="-1.671630023047328">
        <ele>492.089</ele>
        <time>2016-06-27T11:48:15Z</time>
      </trkpt>
      <trkpt lat="42.842060001567006" lon="-1.671736976131797">
        <ele>493.04700000000003</ele>
        <time>2016-06-27T11:48:18Z</time>
      </trkpt>
      <trkpt lat="42.842130996286869" lon="-1.671836972236633">
        <ele>493.04700000000003</ele>
        <time>2016-06-27T11:48:21Z</time>
      </trkpt>
      <trkpt lat="42.842222023755312" lon="-1.671992037445307">
        <ele>492.017</ele>
        <time>2016-06-27T11:48:25Z</time>
      </trkpt>
      <trkpt lat="42.84228396601975" lon="-1.672098990529776">
        <ele>492.02499999999998</ele>
        <time>2016-06-27T11:48:28Z</time>
      </trkpt>
      <trkpt lat="42.842358984053135" lon="-1.672205021604896">
        <ele>492.02499999999998</ele>
        <time>2016-06-27T11:48:31Z</time>
      </trkpt>
      <trkpt lat="42.842446994036436" lon="-1.672352040186524">
        <ele>494.02600000000001</ele>
        <time>2016-06-27T11:48:35Z</time>
      </trkpt>
      <trkpt lat="42.842508014291525" lon="-1.672468967735767">
        <ele>494.00799999999998</ele>
        <time>2016-06-27T11:48:38Z</time>
      </trkpt>
      <trkpt lat="42.842575991526246" lon="-1.672576004639268">
        <ele>494.00799999999998</ele>
        <time>2016-06-27T11:48:41Z</time>
      </trkpt>
      <trkpt lat="42.842642962932587" lon="-1.672678012400866">
        <ele>495.06299999999999</ele>
        <time>2016-06-27T11:48:44Z</time>
      </trkpt>
      <trkpt lat="42.842718986794353" lon="-1.672789994627237">
        <ele>496.04500000000002</ele>
        <time>2016-06-27T11:48:47Z</time>
      </trkpt>
      <trkpt lat="42.842801967635751" lon="-1.672896025702357">
        <ele>497.07999999999998</ele>
        <time>2016-06-27T11:48:50Z</time>
      </trkpt>
      <trkpt lat="42.842861982062459" lon="-1.673001972958446">
        <ele>498.09399999999999</ele>
        <time>2016-06-27T11:48:53Z</time>
      </trkpt>
      <trkpt lat="42.842935994267464" lon="-1.673104986548424">
        <ele>497.08199999999999</ele>
        <time>2016-06-27T11:48:56Z</time>
      </trkpt>
      <trkpt lat="42.842997014522552" lon="-1.673233984038234">
        <ele>496.06200000000001</ele>
        <time>2016-06-27T11:48:59Z</time>
      </trkpt>
      <trkpt lat="42.843060968443751" lon="-1.673352001234889">
        <ele>497.05200000000002</ele>
        <time>2016-06-27T11:49:02Z</time>
      </trkpt>
      <trkpt lat="42.843122994527221" lon="-1.6734619718045">
        <ele>497.04000000000002</ele>
        <time>2016-06-27T11:49:05Z</time>
      </trkpt>
      <trkpt lat="42.843183008953929" lon="-1.673560040071607">
        <ele>498.02199999999999</ele>
        <time>2016-06-27T11:49:08Z</time>
      </trkpt>
      <trkpt lat="42.843260038644075" lon="-1.673657018691301">
        <ele>498.06200000000001</ele>
        <time>2016-06-27T11:49:11Z</time>
      </trkpt>
      <trkpt lat="42.843337990343571" lon="-1.673747962340713">
        <ele>496.00799999999998</ele>
        <time>2016-06-27T11:49:14Z</time>
      </trkpt>
      <trkpt lat="42.843433041125536" lon="-1.673862040042877">
        <ele>496.00799999999998</ele>
        <time>2016-06-27T11:49:17Z</time>
      </trkpt>
      <trkpt lat="42.843532031401992" lon="-1.673961030319333">
        <ele>497.03300000000002</ele>
        <time>2016-06-27T11:49:20Z</time>
      </trkpt>
      <trkpt lat="42.843633033335209" lon="-1.674063038080931">
        <ele>497.03500000000003</ele>
        <time>2016-06-27T11:49:23Z</time>
      </trkpt>
      <trkpt lat="42.843730011954904" lon="-1.6741699911654">
        <ele>495.01999999999998</ele>
        <time>2016-06-27T11:49:26Z</time>
      </trkpt>
      <trkpt lat="42.843821039423347" lon="-1.674279039725661">
        <ele>494.09399999999999</ele>
        <time>2016-06-27T11:49:29Z</time>
      </trkpt>
      <trkpt lat="42.843910977244377" lon="-1.674396973103285">
        <ele>495.02199999999999</ele>
        <time>2016-06-27T11:49:32Z</time>
      </trkpt>
      <trkpt lat="42.843995969742537" lon="-1.674508033320308">
        <ele>495.08199999999999</ele>
        <time>2016-06-27T11:49:35Z</time>
      </trkpt>
      <trkpt lat="42.844080040231347" lon="-1.674609035253525">
        <ele>494.03199999999998</ele>
        <time>2016-06-27T11:49:38Z</time>
      </trkpt>
      <trkpt lat="42.844161009415984" lon="-1.674698973074555">
        <ele>495.07999999999998</ele>
        <time>2016-06-27T11:49:41Z</time>
      </trkpt>
      <trkpt lat="42.844250025227666" lon="-1.674782959744334">
        <ele>495.05900000000003</ele>
        <time>2016-06-27T11:49:44Z</time>
      </trkpt>
      <trkpt lat="42.844321019947529" lon="-1.674884967505932">
        <ele>495.00299999999999</ele>
        <time>2016-06-27T11:49:47Z</time>
      </trkpt>
      <trkpt lat="42.844392014667392" lon="-1.675000973045826">
        <ele>495.02300000000002</ele>
        <time>2016-06-27T11:49:50Z</time>
      </trkpt>
      <trkpt lat="42.844464015215635" lon="-1.675105998292565">
        <ele>495.00799999999998</ele>
        <time>2016-06-27T11:49:53Z</time>
      </trkpt>
      <trkpt lat="42.844524029642344" lon="-1.675225021317601">
        <ele>495.05599999999998</ele>
        <time>2016-06-27T11:49:56Z</time>
      </trkpt>
      <trkpt lat="42.844585971906781" lon="-1.675339015200734">
        <ele>495.01799999999997</ele>
        <time>2016-06-27T11:49:59Z</time>
      </trkpt>
      <trkpt lat="42.844639029353857" lon="-1.675444040447474">
        <ele>496.02300000000002</ele>
        <time>2016-06-27T11:50:02Z</time>
      </trkpt>
      <trkpt lat="42.844698037952185" lon="-1.675553005188704">
        <ele>495.03699999999998</ele>
        <time>2016-06-27T11:50:05Z</time>
      </trkpt>
      <trkpt lat="42.844757968559861" lon="-1.675668004900217">
        <ele>495.01499999999999</ele>
        <time>2016-06-27T11:50:08Z</time>
      </trkpt>
      <trkpt lat="42.844821000471711" lon="-1.675774035975337">
        <ele>495.02499999999998</ele>
        <time>2016-06-27T11:50:11Z</time>
      </trkpt>
      <trkpt lat="42.844880009070039" lon="-1.675880989059806">
        <ele>494.07499999999999</ele>
        <time>2016-06-27T11:50:14Z</time>
      </trkpt>
      <trkpt lat="42.844920996576548" lon="-1.67601702734828">
        <ele>494.03300000000002</ele>
        <time>2016-06-27T11:50:17Z</time>
      </trkpt>
      <trkpt lat="42.844984028488398" lon="-1.676137978211045">
        <ele>494.01400000000001</ele>
        <time>2016-06-27T11:50:20Z</time>
      </trkpt>
      <trkpt lat="42.845043959096074" lon="-1.676266975700855">
        <ele>493.05399999999997</ele>
        <time>2016-06-27T11:50:23Z</time>
      </trkpt>
      <trkpt lat="42.845101039856672" lon="-1.676390022039414">
        <ele>493.00900000000001</ele>
        <time>2016-06-27T11:50:26Z</time>
      </trkpt>
      <trkpt lat="42.845154013484716" lon="-1.67651298455894">
        <ele>494.00799999999998</ele>
        <time>2016-06-27T11:50:29Z</time>
      </trkpt>
      <trkpt lat="42.845249986276031" lon="-1.676593031734228">
        <ele>494.09199999999998</ele>
        <time>2016-06-27T11:50:32Z</time>
      </trkpt>
      <trkpt lat="42.845344031229615" lon="-1.676686992868781">
        <ele>494.024</ele>
        <time>2016-06-27T11:50:35Z</time>
      </trkpt>
      <trkpt lat="42.845432041212916" lon="-1.676797969266772">
        <ele>496.05900000000003</ele>
        <time>2016-06-27T11:50:38Z</time>
      </trkpt>
      <trkpt lat="42.845523990690708" lon="-1.676882039755583">
        <ele>496.08300000000003</ele>
        <time>2016-06-27T11:50:41Z</time>
      </trkpt>
      <trkpt lat="42.845623986795545" lon="-1.676967032253742">
        <ele>495.02100000000002</ele>
        <time>2016-06-27T11:50:44Z</time>
      </trkpt>
      <trkpt lat="42.845744015648961" lon="-1.677070967853069">
        <ele>497.05099999999999</ele>
        <time>2016-06-27T11:50:48Z</time>
      </trkpt>
      <trkpt lat="42.845874018967152" lon="-1.677153026685119">
        <ele>497.05099999999999</ele>
        <time>2016-06-27T11:50:52Z</time>
      </trkpt>
      <trkpt lat="42.845978960394859" lon="-1.677184039726853">
        <ele>497.06900000000002</ele>
        <time>2016-06-27T11:50:55Z</time>
      </trkpt>
      <trkpt lat="42.846090020611882" lon="-1.677219998091459">
        <ele>497.06700000000001</ele>
        <time>2016-06-27T11:50:58Z</time>
      </trkpt>
      <trkpt lat="42.846207031980157" lon="-1.677355030551553">
        <ele>495.08100000000002</ele>
        <time>2016-06-27T11:51:02Z</time>
      </trkpt>
      <trkpt lat="42.846247013658285" lon="-1.677506994456053">
        <ele>494.01900000000001</ele>
        <time>2016-06-27T11:51:05Z</time>
      </trkpt>
      <trkpt lat="42.846250031143427" lon="-1.67763096280396">
        <ele>496.00799999999998</ele>
        <time>2016-06-27T11:51:07Z</time>
      </trkpt>
      <trkpt lat="42.846274003386497" lon="-1.677788039669395">
        <ele>495.03699999999998</ele>
        <time>2016-06-27T11:51:10Z</time>
      </trkpt>
      <trkpt lat="42.846276015043259" lon="-1.677957018837333">
        <ele>496.029</ele>
        <time>2016-06-27T11:51:13Z</time>
      </trkpt>
      <trkpt lat="42.846271991729736" lon="-1.678159022703767">
        <ele>495.04399999999998</ele>
        <time>2016-06-27T11:51:16Z</time>
      </trkpt>
      <trkpt lat="42.8462790325284" lon="-1.678309980779886">
        <ele>495.01799999999997</ele>
        <time>2016-06-27T11:51:18Z</time>
      </trkpt>
      <trkpt lat="42.846303004771471" lon="-1.678451970219612">
        <ele>495.06599999999997</ele>
        <time>2016-06-27T11:51:20Z</time>
      </trkpt>
      <trkpt lat="42.846332006156445" lon="-1.678589014336467">
        <ele>494.01600000000002</ele>
        <time>2016-06-27T11:51:22Z</time>
      </trkpt>
      <trkpt lat="42.846352960914373" lon="-1.678724968805909">
        <ele>495.06599999999997</ele>
        <time>2016-06-27T11:51:24Z</time>
      </trkpt>
      <trkpt lat="42.846347009763122" lon="-1.678853966295719">
        <ele>495.06400000000002</ele>
        <time>2016-06-27T11:51:26Z</time>
      </trkpt>
      <trkpt lat="42.846350027248263" lon="-1.678982963785529">
        <ele>494.05799999999999</ele>
        <time>2016-06-27T11:51:28Z</time>
      </trkpt>
      <trkpt lat="42.846353966742754" lon="-1.679119002074003">
        <ele>494.05200000000002</ele>
        <time>2016-06-27T11:51:30Z</time>
      </trkpt>
      <trkpt lat="42.846353966742754" lon="-1.679255962371826">
        <ele>494.017</ele>
        <time>2016-06-27T11:51:32Z</time>
      </trkpt>
      <trkpt lat="42.846371987834573" lon="-1.679403986781836">
        <ele>492.00799999999998</ele>
        <time>2016-06-27T11:51:34Z</time>
      </trkpt>
      <trkpt lat="42.846399983391166" lon="-1.679568020626903">
        <ele>492.08600000000001</ele>
        <time>2016-06-27T11:51:36Z</time>
      </trkpt>
      <trkpt lat="42.846433008089662" lon="-1.679743034765124">
        <ele>493.08800000000002</ele>
        <time>2016-06-27T11:51:38Z</time>
      </trkpt>
      <trkpt lat="42.846467038616538" lon="-1.679911008104682">
        <ele>493.04300000000001</ele>
        <time>2016-06-27T11:51:40Z</time>
      </trkpt>
      <trkpt lat="42.846500985324383" lon="-1.680077975615859">
        <ele>493.09699999999998</ele>
        <time>2016-06-27T11:51:42Z</time>
      </trkpt>
      <trkpt lat="42.846523029729724" lon="-1.680236980319023">
        <ele>492.07499999999999</ele>
        <time>2016-06-27T11:51:44Z</time>
      </trkpt>
      <trkpt lat="42.846553036943078" lon="-1.680387016385794">
        <ele>492.07499999999999</ele>
        <time>2016-06-27T11:51:46Z</time>
      </trkpt>
      <trkpt lat="42.846576003357768" lon="-1.680546021088958">
        <ele>491.03500000000003</ele>
        <time>2016-06-27T11:51:48Z</time>
      </trkpt>
      <trkpt lat="42.846600981429219" lon="-1.680705025792122">
        <ele>492.02300000000002</ele>
        <time>2016-06-27T11:51:50Z</time>
      </trkpt>
      <trkpt lat="42.846615985035896" lon="-1.680860007181764">
        <ele>490.04399999999998</ele>
        <time>2016-06-27T11:51:52Z</time>
      </trkpt>
      <trkpt lat="42.846642974764109" lon="-1.680991016328335">
        <ele>490.005</ele>
        <time>2016-06-27T11:51:54Z</time>
      </trkpt>
      <trkpt lat="42.846683962270617" lon="-1.681143986061215">
        <ele>490.01499999999999</ele>
        <time>2016-06-27T11:51:57Z</time>
      </trkpt>
      <trkpt lat="42.846726961433887" lon="-1.681268960237503">
        <ele>492.00799999999998</ele>
        <time>2016-06-27T11:52:00Z</time>
      </trkpt>
      <trkpt lat="42.846777001395822" lon="-1.6814090218395">
        <ele>496.09500000000003</ele>
        <time>2016-06-27T11:52:04Z</time>
      </trkpt>
      <trkpt lat="42.846796028316021" lon="-1.681531984359026">
        <ele>498.017</ele>
        <time>2016-06-27T11:52:07Z</time>
      </trkpt>
      <trkpt lat="42.846814971417189" lon="-1.681670034304261">
        <ele>498.06200000000001</ele>
        <time>2016-06-27T11:52:10Z</time>
      </trkpt>
      <trkpt lat="42.846832992509007" lon="-1.681800959631801">
        <ele>499.07600000000002</ele>
        <time>2016-06-27T11:52:13Z</time>
      </trkpt>
      <trkpt lat="42.84683701582253" lon="-1.681960970163345">
        <ele>498.084</ele>
        <time>2016-06-27T11:52:16Z</time>
      </trkpt>
      <trkpt lat="42.846864005550742" lon="-1.682093990966678">
        <ele>499.04399999999998</ele>
        <time>2016-06-27T11:52:18Z</time>
      </trkpt>
      <trkpt lat="42.846927037462592" lon="-1.682207984849811">
        <ele>499.06400000000002</ele>
        <time>2016-06-27T11:52:20Z</time>
      </trkpt>
      <trkpt lat="42.847014963626862" lon="-1.682285014539957">
        <ele>498.02199999999999</ele>
        <time>2016-06-27T11:52:22Z</time>
      </trkpt>
      <trkpt lat="42.847155025228858" lon="-1.682351985946298">
        <ele>497.03800000000001</ele>
        <time>2016-06-27T11:52:25Z</time>
      </trkpt>
      <trkpt lat="42.847248986363411" lon="-1.682363972067833">
        <ele>497.06999999999999</ele>
        <time>2016-06-27T11:52:27Z</time>
      </trkpt>
      <trkpt lat="42.847378989681602" lon="-1.682385010644794">
        <ele>497.017</ele>
        <time>2016-06-27T11:52:30Z</time>
      </trkpt>
      <trkpt lat="42.84748200327158" lon="-1.682355003431439">
        <ele>498.00799999999998</ele>
        <time>2016-06-27T11:52:33Z</time>
      </trkpt>
      <trkpt lat="42.847574036568403" lon="-1.682287026196718">
        <ele>498.05399999999997</ele>
        <time>2016-06-27T11:52:36Z</time>
      </trkpt>
      <trkpt lat="42.847702028229833" lon="-1.682226005941629">
        <ele>498.07600000000002</ele>
        <time>2016-06-27T11:52:40Z</time>
      </trkpt>
      <trkpt lat="42.84780403599143" lon="-1.682157022878528">
        <ele>497.07100000000003</ele>
        <time>2016-06-27T11:52:43Z</time>
      </trkpt>
      <trkpt lat="42.847901014611125" lon="-1.682089967653155">
        <ele>498.04500000000002</ele>
        <time>2016-06-27T11:52:46Z</time>
      </trkpt>
      <trkpt lat="42.847974020987749" lon="-1.681983014568687">
        <ele>498.06299999999999</ele>
        <time>2016-06-27T11:52:49Z</time>
      </trkpt>
      <trkpt lat="42.848028000444174" lon="-1.681846976280212">
        <ele>497.04300000000001</ele>
        <time>2016-06-27T11:52:52Z</time>
      </trkpt>
      <trkpt lat="42.848100000992417" lon="-1.681705992668867">
        <ele>495.07299999999998</ele>
        <time>2016-06-27T11:52:55Z</time>
      </trkpt>
      <trkpt lat="42.848130008205771" lon="-1.681554028764367">
        <ele>494.02100000000002</ele>
        <time>2016-06-27T11:52:58Z</time>
      </trkpt>
      <trkpt lat="42.848183987662196" lon="-1.681418996304274">
        <ele>495.06299999999999</ele>
        <time>2016-06-27T11:53:01Z</time>
      </trkpt>
      <trkpt lat="42.848232015967369" lon="-1.681294022127986">
        <ele>495.04399999999998</ele>
        <time>2016-06-27T11:53:04Z</time>
      </trkpt>
      <trkpt lat="42.8482770267874" lon="-1.681172987446189">
        <ele>495.01799999999997</ele>
        <time>2016-06-27T11:53:07Z</time>
      </trkpt>
      <trkpt lat="42.848326982930303" lon="-1.681029992178083">
        <ele>497.00799999999998</ele>
        <time>2016-06-27T11:53:11Z</time>
      </trkpt>
      <trkpt lat="42.848366964608431" lon="-1.680920021608472">
        <ele>496.06700000000001</ele>
        <time>2016-06-27T11:53:14Z</time>
      </trkpt>
      <trkpt lat="42.848409041762352" lon="-1.680783983319998">
        <ele>496.089</ele>
        <time>2016-06-27T11:53:18Z</time>
      </trkpt>
      <trkpt lat="42.848469978198409" lon="-1.680650962516666">
        <ele>495.09399999999999</ele>
        <time>2016-06-27T11:53:22Z</time>
      </trkpt>
      <trkpt lat="42.848512977361679" lon="-1.680538980290294">
        <ele>496.08800000000002</ele>
        <time>2016-06-27T11:53:25Z</time>
      </trkpt>
      <trkpt lat="42.848555976524949" lon="-1.680405959486961">
        <ele>495.096</ele>
        <time>2016-06-27T11:53:29Z</time>
      </trkpt>
      <trkpt lat="42.848609033972025" lon="-1.680303029716015">
        <ele>495.08600000000001</ele>
        <time>2016-06-27T11:53:32Z</time>
      </trkpt>
      <trkpt lat="42.848662007600069" lon="-1.680161040276289">
        <ele>496.06599999999997</ele>
        <time>2016-06-27T11:53:36Z</time>
      </trkpt>
      <trkpt lat="42.848712969571352" lon="-1.68001402169466">
        <ele>496.024</ele>
        <time>2016-06-27T11:53:40Z</time>
      </trkpt>
      <trkpt lat="42.848773989826441" lon="-1.679818974807859">
        <ele>496.012</ele>
        <time>2016-06-27T11:53:45Z</time>
      </trkpt>
      <trkpt lat="42.84881497733295" lon="-1.679705986753106">
        <ele>498.03199999999998</ele>
        <time>2016-06-27T11:53:48Z</time>
      </trkpt>
      <trkpt lat="42.848877003416419" lon="-1.679585035890341">
        <ele>499.005</ele>
        <time>2016-06-27T11:53:51Z</time>
      </trkpt>
      <trkpt lat="42.848955038934946" lon="-1.679490990936756">
        <ele>499.00799999999998</ele>
        <time>2016-06-27T11:53:55Z</time>
      </trkpt>
      <trkpt lat="42.849054029211402" lon="-1.679528960958123">
        <ele>499.04199999999997</ele>
        <time>2016-06-27T11:53:58Z</time>
      </trkpt>
      <trkpt lat="42.849173974245787" lon="-1.679592998698354">
        <ele>498.05399999999997</ele>
        <time>2016-06-27T11:54:01Z</time>
      </trkpt>
      <trkpt lat="42.849338008090854" lon="-1.679720990359783">
        <ele>497.01900000000001</ele>
        <time>2016-06-27T11:54:05Z</time>
      </trkpt>
      <trkpt lat="42.849419983103871" lon="-1.679803971201181">
        <ele>497.02300000000002</ele>
        <time>2016-06-27T11:54:07Z</time>
      </trkpt>
      <trkpt lat="42.84954403527081" lon="-1.679916037246585">
        <ele>496.03100000000001</ele>
        <time>2016-06-27T11:54:10Z</time>
      </trkpt>
      <trkpt lat="42.849628021940589" lon="-1.680003041401506">
        <ele>497.01100000000002</ele>
        <time>2016-06-27T11:54:12Z</time>
      </trkpt>
      <trkpt lat="42.84976095892489" lon="-1.680130027234554">
        <ele>497.05099999999999</ele>
        <time>2016-06-27T11:54:15Z</time>
      </trkpt>
      <trkpt lat="42.849840000271797" lon="-1.680201021954417">
        <ele>497.07900000000001</ele>
        <time>2016-06-27T11:54:17Z</time>
      </trkpt>
      <trkpt lat="42.849957011640072" lon="-1.680295988917351">
        <ele>496.08600000000001</ele>
        <time>2016-06-27T11:54:20Z</time>
      </trkpt>
      <trkpt lat="42.850023983046412" lon="-1.68038098141551">
        <ele>496.06</ele>
        <time>2016-06-27T11:54:22Z</time>
      </trkpt>
      <trkpt lat="42.850105036050081" lon="-1.680515008047223">
        <ele>495.02600000000001</ele>
        <time>2016-06-27T11:54:25Z</time>
      </trkpt>
      <trkpt lat="42.85018902271986" lon="-1.680607041344047">
        <ele>496.00799999999998</ele>
        <time>2016-06-27T11:54:28Z</time>
      </trkpt>
      <trkpt lat="42.850249037146568" lon="-1.680704019963741">
        <ele>498.04899999999998</ele>
        <time>2016-06-27T11:54:31Z</time>
      </trkpt>
      <trkpt lat="42.85029698163271" lon="-1.680812984704971">
        <ele>497.08100000000002</ele>
        <time>2016-06-27T11:54:34Z</time>
      </trkpt>
      <trkpt lat="42.850362025201321" lon="-1.680943993851543">
        <ele>495.096</ele>
        <time>2016-06-27T11:54:37Z</time>
      </trkpt>
      <trkpt lat="42.85040401853621" lon="-1.681076008826494">
        <ele>491.07999999999998</ele>
        <time>2016-06-27T11:54:41Z</time>
      </trkpt>
      <trkpt lat="42.850510971620679" lon="-1.68117499910295">
        <ele>490.08800000000002</ele>
        <time>2016-06-27T11:54:44Z</time>
      </trkpt>
      <trkpt lat="42.850567968562245" lon="-1.681272983551025">
        <ele>491.02800000000002</ele>
        <time>2016-06-27T11:54:46Z</time>
      </trkpt>
      <trkpt lat="42.850611973553896" lon="-1.681398041546345">
        <ele>496.048</ele>
        <time>2016-06-27T11:54:48Z</time>
      </trkpt>
      <trkpt lat="42.850700989365578" lon="-1.681461995467544">
        <ele>495.05599999999998</ele>
        <time>2016-06-27T11:54:51Z</time>
      </trkpt>
      <trkpt lat="42.850778019055724" lon="-1.681583030149341">
        <ele>494.05799999999999</ele>
        <time>2016-06-27T11:54:54Z</time>
      </trkpt>
      <trkpt lat="42.850878015160561" lon="-1.681628962978721">
        <ele>493.05200000000002</ele>
        <time>2016-06-27T11:54:57Z</time>
      </trkpt>
      <trkpt lat="42.850937023758888" lon="-1.681753015145659">
        <ele>494.017</ele>
        <time>2016-06-27T11:55:00Z</time>
      </trkpt>
      <trkpt lat="42.85094297491014" lon="-1.681915037333965">
        <ele>493.00799999999998</ele>
        <time>2016-06-27T11:55:03Z</time>
      </trkpt>
      <trkpt lat="42.850949009880424" lon="-1.682097008451819">
        <ele>500.01600000000002</ele>
        <time>2016-06-27T11:55:06Z</time>
      </trkpt>
      <trkpt lat="42.850954961031675" lon="-1.682269005104899">
        <ele>502.05799999999999</ele>
        <time>2016-06-27T11:55:09Z</time>
      </trkpt>
      <trkpt lat="42.850955966860056" lon="-1.682437984272838">
        <ele>502.07299999999998</ele>
        <time>2016-06-27T11:55:12Z</time>
      </trkpt>
      <trkpt lat="42.851005000993609" lon="-1.682583997026086">
        <ele>502.03699999999998</ele>
        <time>2016-06-27T11:55:15Z</time>
      </trkpt>
      <trkpt lat="42.851107008755207" lon="-1.682676030322909">
        <ele>502.02499999999998</ele>
        <time>2016-06-27T11:55:18Z</time>
      </trkpt>
      <trkpt lat="42.851227959617972" lon="-1.682735960930586">
        <ele>503.05500000000001</ele>
        <time>2016-06-27T11:55:21Z</time>
      </trkpt>
      <trkpt lat="42.851311024278402" lon="-1.682791030034423">
        <ele>500.065</ele>
        <time>2016-06-27T11:55:23Z</time>
      </trkpt>
      <trkpt lat="42.851387970149517" lon="-1.682912986725569">
        <ele>498.09300000000002</ele>
        <time>2016-06-27T11:55:26Z</time>
      </trkpt>
      <trkpt lat="42.851416971534491" lon="-1.68304399587214">
        <ele>496.08100000000002</ele>
        <time>2016-06-27T11:55:28Z</time>
      </trkpt>
      <trkpt lat="42.851481009274721" lon="-1.683171987533569">
        <ele>494.06099999999998</ele>
        <time>2016-06-27T11:55:31Z</time>
      </trkpt>
      <trkpt lat="42.851569019258022" lon="-1.683239964768291">
        <ele>497.017</ele>
        <time>2016-06-27T11:55:45Z</time>
      </trkpt>
      <trkpt lat="42.851601960137486" lon="-1.683357981964946">
        <ele>498.00799999999998</ele>
        <time>2016-06-27T11:55:48Z</time>
      </trkpt>
      <trkpt lat="42.851633979007602" lon="-1.68349402025342">
        <ele>497.04899999999998</ele>
        <time>2016-06-27T11:55:51Z</time>
      </trkpt>
      <trkpt lat="42.851686030626297" lon="-1.683664005249739">
        <ele>496.01100000000002</ele>
        <time>2016-06-27T11:55:54Z</time>
      </trkpt>
      <trkpt lat="42.851703967899084" lon="-1.683789985254407">
        <ele>495.036</ele>
        <time>2016-06-27T11:55:56Z</time>
      </trkpt>
      <trkpt lat="42.851761970669031" lon="-1.683908002451062">
        <ele>495.08999999999997</ele>
        <time>2016-06-27T11:55:58Z</time>
      </trkpt>
      <trkpt lat="42.851829025894403" lon="-1.684038005769253">
        <ele>495.06799999999998</ele>
        <time>2016-06-27T11:56:00Z</time>
      </trkpt>
      <trkpt lat="42.851903038099408" lon="-1.684179995208979">
        <ele>494.07799999999997</ele>
        <time>2016-06-27T11:56:02Z</time>
      </trkpt>
      <trkpt lat="42.852029018104076" lon="-1.684375964105129">
        <ele>493.07799999999997</ele>
        <time>2016-06-27T11:56:05Z</time>
      </trkpt>
      <trkpt lat="42.852029018104076" lon="-1.684375964105129">
        <ele>493.07600000000002</ele>
        <time>2016-06-27T11:56:05Z</time>
      </trkpt>
      <trkpt lat="42.852114010602236" lon="-1.68450403958559">
        <ele>492.09500000000003</ele>
        <time>2016-06-27T11:56:07Z</time>
      </trkpt>
      <trkpt lat="42.852192968130112" lon="-1.684646029025316">
        <ele>492.04899999999998</ele>
        <time>2016-06-27T11:56:09Z</time>
      </trkpt>
      <trkpt lat="42.852256000041962" lon="-1.684817019850016">
        <ele>491.02300000000002</ele>
        <time>2016-06-27T11:56:11Z</time>
      </trkpt>
      <trkpt lat="42.852324983105063" lon="-1.684964038431644">
        <ele>491.00799999999998</ele>
        <time>2016-06-27T11:56:13Z</time>
      </trkpt>
      <trkpt lat="42.852387009188533" lon="-1.685124970972538">
        <ele>490.00999999999999</ele>
        <time>2016-06-27T11:56:15Z</time>
      </trkpt>
      <trkpt lat="42.85244601778686" lon="-1.68527701869607">
        <ele>491.03199999999998</ele>
        <time>2016-06-27T11:56:17Z</time>
      </trkpt>
      <trkpt lat="42.852509971708059" lon="-1.685404004529119">
        <ele>491.077</ele>
        <time>2016-06-27T11:56:19Z</time>
      </trkpt>
      <trkpt lat="42.852593036368489" lon="-1.685500983148813">
        <ele>491.09100000000001</ele>
        <time>2016-06-27T11:56:21Z</time>
      </trkpt>
      <trkpt lat="42.85266101360321" lon="-1.685603996738792">
        <ele>492.07900000000001</ele>
        <time>2016-06-27T11:56:23Z</time>
      </trkpt>
      <trkpt lat="42.852695966139436" lon="-1.685724025592208">
        <ele>492.05900000000003</ele>
        <time>2016-06-27T11:56:25Z</time>
      </trkpt>
      <trkpt lat="42.852698983624578" lon="-1.685852017253637">
        <ele>492.07900000000001</ele>
        <time>2016-06-27T11:56:27Z</time>
      </trkpt>
      <trkpt lat="42.852685991674662" lon="-1.686022002249956">
        <ele>491.017</ele>
        <time>2016-06-27T11:56:30Z</time>
      </trkpt>
      <trkpt lat="42.852681968361139" lon="-1.686198022216559">
        <ele>491.01400000000001</ele>
        <time>2016-06-27T11:56:33Z</time>
      </trkpt>
      <trkpt lat="42.852686997503042" lon="-1.686401031911373">
        <ele>491.05399999999997</ele>
        <time>2016-06-27T11:56:36Z</time>
      </trkpt>
      <trkpt lat="42.852676017209888" lon="-1.686551989987493">
        <ele>490.00900000000001</ele>
        <time>2016-06-27T11:56:38Z</time>
      </trkpt>
      <trkpt lat="42.852670988067985" lon="-1.686688028275967">
        <ele>489.00799999999998</ele>
        <time>2016-06-27T11:56:40Z</time>
      </trkpt>
      <trkpt lat="42.852668976411223" lon="-1.686891037970781">
        <ele>488.072</ele>
        <time>2016-06-27T11:56:43Z</time>
      </trkpt>
      <trkpt lat="42.852685991674662" lon="-1.687026992440224">
        <ele>488.01400000000001</ele>
        <time>2016-06-27T11:56:45Z</time>
      </trkpt>
      <trkpt lat="42.852709041908383" lon="-1.687164958566427">
        <ele>488.089</ele>
        <time>2016-06-27T11:56:47Z</time>
      </trkpt>
      <trkpt lat="42.852709963917732" lon="-1.687349025160074">
        <ele>487.06299999999999</ele>
        <time>2016-06-27T11:56:50Z</time>
      </trkpt>
      <trkpt lat="42.852722033858299" lon="-1.687530996277928">
        <ele>487.08100000000002</ele>
        <time>2016-06-27T11:56:53Z</time>
      </trkpt>
      <trkpt lat="42.852706024423242" lon="-1.687702992931008">
        <ele>488.06099999999998</ele>
        <time>2016-06-27T11:56:56Z</time>
      </trkpt>
      <trkpt lat="42.852720022201538" lon="-1.687869960442185">
        <ele>488.041</ele>
        <time>2016-06-27T11:56:59Z</time>
      </trkpt>
      <trkpt lat="42.852714993059635" lon="-1.688039023429155">
        <ele>487.06900000000002</ele>
        <time>2016-06-27T11:57:02Z</time>
      </trkpt>
      <trkpt lat="42.852724967524409" lon="-1.688181012868881">
        <ele>488.06799999999998</ele>
        <time>2016-06-27T11:57:05Z</time>
      </trkpt>
      <trkpt lat="42.852731002494693" lon="-1.688316967338324">
        <ele>488.04199999999997</ele>
        <time>2016-06-27T11:57:08Z</time>
      </trkpt>
      <trkpt lat="42.852748017758131" lon="-1.688443031162024">
        <ele>490.02600000000001</ele>
        <time>2016-06-27T11:57:11Z</time>
      </trkpt>
      <trkpt lat="42.852763021364808" lon="-1.688573034480214">
        <ele>490.00799999999998</ele>
        <time>2016-06-27T11:57:14Z</time>
      </trkpt>
      <trkpt lat="42.852786993607879" lon="-1.688708988949657">
        <ele>492.077</ele>
        <time>2016-06-27T11:57:17Z</time>
      </trkpt>
      <trkpt lat="42.852808032184839" lon="-1.688835974782705">
        <ele>494.04899999999998</ele>
        <time>2016-06-27T11:57:20Z</time>
      </trkpt>
      <trkpt lat="42.852835021913052" lon="-1.688956003636122">
        <ele>494.04399999999998</ele>
        <time>2016-06-27T11:57:23Z</time>
      </trkpt>
      <trkpt lat="42.852865029126406" lon="-1.689098998904228">
        <ele>496.02800000000002</ele>
        <time>2016-06-27T11:57:27Z</time>
      </trkpt>
      <trkpt lat="42.85289503633976" lon="-1.689237970858812">
        <ele>497.096</ele>
        <time>2016-06-27T11:57:31Z</time>
      </trkpt>
      <trkpt lat="42.852944992482662" lon="-1.689344001933932">
        <ele>498.096</ele>
        <time>2016-06-27T11:57:35Z</time>
      </trkpt>
      <trkpt lat="42.853054041042924" lon="-1.689330004155636">
        <ele>499.08600000000001</ele>
        <time>2016-06-27T11:57:39Z</time>
      </trkpt>
      <trkpt lat="42.853169962763786" lon="-1.689304020255804">
        <ele>500.09399999999999</ele>
        <time>2016-06-27T11:57:43Z</time>
      </trkpt>
      <trkpt lat="42.853292003273964" lon="-1.689278958365321">
        <ele>501.02100000000002</ele>
        <time>2016-06-27T11:57:47Z</time>
      </trkpt>
      <trkpt lat="42.853385964408517" lon="-1.689260015264154">
        <ele>503.041</ele>
        <time>2016-06-27T11:57:50Z</time>
      </trkpt>
      <trkpt lat="42.853480009362102" lon="-1.689255991950631">
        <ele>503.005</ele>
        <time>2016-06-27T11:57:53Z</time>
      </trkpt>
      <trkpt lat="42.85358402878046" lon="-1.689230008050799">
        <ele>504.00799999999998</ele>
        <time>2016-06-27T11:57:57Z</time>
      </trkpt>
      <trkpt lat="42.853674972429872" lon="-1.689218021929264">
        <ele>504.03300000000002</ele>
        <time>2016-06-27T11:58:00Z</time>
      </trkpt>
      <trkpt lat="42.853768011555076" lon="-1.689209975302219">
        <ele>504.03500000000003</ele>
        <time>2016-06-27T11:58:03Z</time>
      </trkpt>
      <trkpt lat="42.85388502292335" lon="-1.689178962260485">
        <ele>505.00999999999999</ele>
        <time>2016-06-27T11:58:07Z</time>
      </trkpt>
      <trkpt lat="42.853976972401142" lon="-1.689169993624091">
        <ele>505.05399999999997</ele>
        <time>2016-06-27T11:58:10Z</time>
      </trkpt>
      <trkpt lat="42.854087026789784" lon="-1.689121965318918">
        <ele>505.012</ele>
        <time>2016-06-27T11:58:14Z</time>
      </trkpt>
      <trkpt lat="42.854199009016156" lon="-1.689075026661158">
        <ele>504.03199999999998</ele>
        <time>2016-06-27T11:58:18Z</time>
      </trkpt>
      <trkpt lat="42.854284001514316" lon="-1.689029010012746">
        <ele>504.08199999999999</ele>
        <time>2016-06-27T11:58:21Z</time>
      </trkpt>
      <trkpt lat="42.85438098013401" lon="-1.688994979485869">
        <ele>505.05000000000001</ele>
        <time>2016-06-27T11:58:24Z</time>
      </trkpt>
      <trkpt lat="42.854471001774073" lon="-1.688942005857825">
        <ele>505.06400000000002</ele>
        <time>2016-06-27T11:58:27Z</time>
      </trkpt>
      <trkpt lat="42.854557000100613" lon="-1.68888702057302">
        <ele>506.00599999999997</ele>
        <time>2016-06-27T11:58:30Z</time>
      </trkpt>
      <trkpt lat="42.854663031175733" lon="-1.688810996711254">
        <ele>506.01600000000002</ele>
        <time>2016-06-27T11:58:34Z</time>
      </trkpt>
      <trkpt lat="42.854750035330653" lon="-1.68875802308321">
        <ele>505.00799999999998</ele>
        <time>2016-06-27T11:58:37Z</time>
      </trkpt>
      <trkpt lat="42.854836033657193" lon="-1.688695996999741">
        <ele>505.017</ele>
        <time>2016-06-27T11:58:40Z</time>
      </trkpt>
      <trkpt lat="42.854935023933649" lon="-1.688631037250161">
        <ele>506.029</ele>
        <time>2016-06-27T11:58:43Z</time>
      </trkpt>
      <trkpt lat="42.855030996724963" lon="-1.688564987853169">
        <ele>506.09399999999999</ele>
        <time>2016-06-27T11:58:46Z</time>
      </trkpt>
      <trkpt lat="42.855119006708264" lon="-1.688511008396745">
        <ele>506.03800000000001</ele>
        <time>2016-06-27T11:58:49Z</time>
      </trkpt>
      <trkpt lat="42.855208022519946" lon="-1.688453005626798">
        <ele>506.06599999999997</ele>
        <time>2016-06-27T11:58:52Z</time>
      </trkpt>
      <trkpt lat="42.855306006968021" lon="-1.68839399702847">
        <ele>506.04599999999999</ele>
        <time>2016-06-27T11:58:55Z</time>
      </trkpt>
      <trkpt lat="42.855402985587716" lon="-1.688315039500594">
        <ele>507.01600000000002</ele>
        <time>2016-06-27T11:58:58Z</time>
      </trkpt>
      <trkpt lat="42.855507005006075" lon="-1.688258964568377">
        <ele>506.084</ele>
        <time>2016-06-27T11:59:01Z</time>
      </trkpt>
      <trkpt lat="42.855599960312247" lon="-1.6881990339607">
        <ele>506.01499999999999</ele>
        <time>2016-06-27T11:59:04Z</time>
      </trkpt>
      <trkpt lat="42.855696016922593" lon="-1.688133990392089">
        <ele>506.065</ele>
        <time>2016-06-27T11:59:07Z</time>
      </trkpt>
      <trkpt lat="42.855794001370668" lon="-1.688080010935664">
        <ele>506.01100000000002</ele>
        <time>2016-06-27T11:59:10Z</time>
      </trkpt>
      <trkpt lat="42.855879999697208" lon="-1.688022008165717">
        <ele>505.00799999999998</ele>
        <time>2016-06-27T11:59:13Z</time>
      </trkpt>
      <trkpt lat="42.855957029387355" lon="-1.687951013445854">
        <ele>505.072</ele>
        <time>2016-06-27T11:59:16Z</time>
      </trkpt>
      <trkpt lat="42.856045039370656" lon="-1.687901979312301">
        <ele>505.09399999999999</ele>
        <time>2016-06-27T11:59:19Z</time>
      </trkpt>
      <trkpt lat="42.856137994676828" lon="-1.687837019562721">
        <ele>505.05900000000003</ele>
        <time>2016-06-27T11:59:22Z</time>
      </trkpt>
      <trkpt lat="42.85622600466013" lon="-1.687775999307632">
        <ele>505.06299999999999</ele>
        <time>2016-06-27T11:59:25Z</time>
      </trkpt>
      <trkpt lat="42.85631300881505" lon="-1.687726965174079">
        <ele>504.02100000000002</ele>
        <time>2016-06-27T11:59:28Z</time>
      </trkpt>
      <trkpt lat="42.856402024626732" lon="-1.687667034566402">
        <ele>504.02100000000002</ele>
        <time>2016-06-27T11:59:31Z</time>
      </trkpt>
      <trkpt lat="42.856496991589665" lon="-1.687610959634185">
        <ele>504.09100000000001</ele>
        <time>2016-06-27T11:59:34Z</time>
      </trkpt>
      <trkpt lat="42.856585001572967" lon="-1.687550023198128">
        <ele>504.04899999999998</ele>
        <time>2016-06-27T11:59:37Z</time>
      </trkpt>
      <trkpt lat="42.85667896270752" lon="-1.687494032084942">
        <ele>504.02499999999998</ele>
        <time>2016-06-27T11:59:40Z</time>
      </trkpt>
      <trkpt lat="42.856780970469117" lon="-1.687439968809485">
        <ele>503.02600000000001</ele>
        <time>2016-06-27T11:59:43Z</time>
      </trkpt>
      <trkpt lat="42.856896976009011" lon="-1.687371991574764">
        <ele>502.00799999999998</ele>
        <time>2016-06-27T11:59:46Z</time>
      </trkpt>
      <trkpt lat="42.857015999034047" lon="-1.687302002683282">
        <ele>501.00799999999998</ele>
        <time>2016-06-27T11:59:49Z</time>
      </trkpt>
      <trkpt lat="42.857110965996981" lon="-1.68725598603487">
        <ele>501.02300000000002</ele>
        <time>2016-06-27T11:59:52Z</time>
      </trkpt>
      <trkpt lat="42.857206016778946" lon="-1.687265960499644">
        <ele>502.09500000000003</ele>
        <time>2016-06-27T11:59:55Z</time>
      </trkpt>
      <trkpt lat="42.857315987348557" lon="-1.687304014340043">
        <ele>504.06999999999999</ele>
        <time>2016-06-27T12:00:00Z</time>
      </trkpt>
      <trkpt lat="42.857400979846716" lon="-1.687357993796468">
        <ele>504.01400000000001</ele>
        <time>2016-06-27T12:00:04Z</time>
      </trkpt>
      <trkpt lat="42.857489995658398" lon="-1.687425971031189">
        <ele>505.03199999999998</ele>
        <time>2016-06-27T12:00:08Z</time>
      </trkpt>
      <trkpt lat="42.857584962621331" lon="-1.687510963529348">
        <ele>504.072</ele>
        <time>2016-06-27T12:00:12Z</time>
      </trkpt>
      <trkpt lat="42.857664003968239" lon="-1.687579024583101">
        <ele>507.04199999999997</ele>
        <time>2016-06-27T12:00:15Z</time>
      </trkpt>
      <trkpt lat="42.857756959274411" lon="-1.68768203817308">
        <ele>508.01999999999998</ele>
        <time>2016-06-27T12:00:19Z</time>
      </trkpt>
      <trkpt lat="42.857837006449699" lon="-1.687779016792774">
        <ele>509.06400000000002</ele>
        <time>2016-06-27T12:00:23Z</time>
      </trkpt>
      <trkpt lat="42.857911018654704" lon="-1.68785504065454">
        <ele>510.00599999999997</ele>
        <time>2016-06-27T12:00:26Z</time>
      </trkpt>
      <trkpt lat="42.857993999496102" lon="-1.687951013445854">
        <ele>510.01600000000002</ele>
        <time>2016-06-27T12:00:30Z</time>
      </trkpt>
      <trkpt lat="42.858071029186249" lon="-1.688030976802111">
        <ele>510.00799999999998</ele>
        <time>2016-06-27T12:00:33Z</time>
      </trkpt>
      <trkpt lat="42.858145041391253" lon="-1.688116975128651">
        <ele>510.06700000000001</ele>
        <time>2016-06-27T12:00:36Z</time>
      </trkpt>
      <trkpt lat="42.858219975605607" lon="-1.688196016475558">
        <ele>510.01900000000001</ele>
        <time>2016-06-27T12:00:39Z</time>
      </trkpt>
      <trkpt lat="42.858294993638992" lon="-1.688273968175054">
        <ele>510.06400000000002</ele>
        <time>2016-06-27T12:00:42Z</time>
      </trkpt>
      <trkpt lat="42.858392978087068" lon="-1.688374970108271">
        <ele>511.02800000000002</ele>
        <time>2016-06-27T12:00:46Z</time>
      </trkpt>
      <trkpt lat="42.858470007777214" lon="-1.688445964828134">
        <ele>511.06599999999997</ele>
        <time>2016-06-27T12:00:49Z</time>
      </trkpt>
      <trkpt lat="42.858553994446993" lon="-1.688532968983054">
        <ele>513.05600000000004</ele>
        <time>2016-06-27T12:00:53Z</time>
      </trkpt>
      <trkpt lat="42.858648961409926" lon="-1.688630031421781">
        <ele>514.03599999999994</ele>
        <time>2016-06-27T12:00:57Z</time>
      </trkpt>
      <trkpt lat="42.858723979443312" lon="-1.688749976456165">
        <ele>514.06399999999996</ele>
        <time>2016-06-27T12:01:01Z</time>
      </trkpt>
      <trkpt lat="42.858798997476697" lon="-1.688841003924608">
        <ele>514.01700000000005</ele>
        <time>2016-06-27T12:01:04Z</time>
      </trkpt>
      <trkpt lat="42.858868986368179" lon="-1.688935970887542">
        <ele>514.08699999999999</ele>
        <time>2016-06-27T12:01:07Z</time>
      </trkpt>
      <trkpt lat="42.858945010229945" lon="-1.689043007791042">
        <ele>515.01499999999999</ele>
        <time>2016-06-27T12:01:10Z</time>
      </trkpt>
      <trkpt lat="42.859010975807905" lon="-1.689148033037782">
        <ele>516.00800000000004</ele>
        <time>2016-06-27T12:01:13Z</time>
      </trkpt>
      <trkpt lat="42.859103009104729" lon="-1.689251968637109">
        <ele>515.01199999999994</ele>
        <time>2016-06-27T12:01:16Z</time>
      </trkpt>
      <trkpt lat="42.859179032966495" lon="-1.689350036904216">
        <ele>513.01400000000001</ele>
        <time>2016-06-27T12:01:18Z</time>
      </trkpt>
      <trkpt lat="42.85927802324295" lon="-1.689491020515561">
        <ele>509.09899999999999</ele>
        <time>2016-06-27T12:01:20Z</time>
      </trkpt>
      <trkpt lat="42.859340971335769" lon="-1.689583975821734">
        <ele>507.07299999999998</ele>
        <time>2016-06-27T12:01:21Z</time>
      </trkpt>
      <trkpt lat="42.859413977712393" lon="-1.689687995240092">
        <ele>505.02100000000002</ele>
        <time>2016-06-27T12:01:22Z</time>
      </trkpt>
      <trkpt lat="42.85949201323092" lon="-1.689794026315212">
        <ele>504.02100000000002</ele>
        <time>2016-06-27T12:01:23Z</time>
      </trkpt>
      <trkpt lat="42.859582034870982" lon="-1.689894022420049">
        <ele>502.07100000000003</ele>
        <time>2016-06-27T12:01:24Z</time>
      </trkpt>
      <trkpt lat="42.859677001833916" lon="-1.689994018524885">
        <ele>501.089</ele>
        <time>2016-06-27T12:01:25Z</time>
      </trkpt>
      <trkpt lat="42.859768029302359" lon="-1.690102983266115">
        <ele>500.089</ele>
        <time>2016-06-27T12:01:26Z</time>
      </trkpt>
      <trkpt lat="42.859856961295009" lon="-1.69019803404808">
        <ele>500.00599999999997</ele>
        <time>2016-06-27T12:01:27Z</time>
      </trkpt>
      <trkpt lat="42.85994597710669" lon="-1.690290989354253">
        <ele>500.02600000000001</ele>
        <time>2016-06-27T12:01:28Z</time>
      </trkpt>
      <trkpt lat="42.860025018453598" lon="-1.690386040136218">
        <ele>500.00799999999998</ele>
        <time>2016-06-27T12:01:29Z</time>
      </trkpt>
      <trkpt lat="42.860305979847908" lon="-1.690708994865418">
        <ele>500.089</ele>
        <time>2016-06-27T12:01:33Z</time>
      </trkpt>
      <trkpt lat="42.860431959852576" lon="-1.690855007618666">
        <ele>499.03100000000001</ele>
        <time>2016-06-27T12:01:35Z</time>
      </trkpt>
      <trkpt lat="42.86054796539247" lon="-1.690985010936856">
        <ele>499.02600000000001</ele>
        <time>2016-06-27T12:01:38Z</time>
      </trkpt>
      <trkpt lat="42.860649973154068" lon="-1.691106967628002">
        <ele>498.05000000000001</ele>
        <time>2016-06-27T12:01:40Z</time>
      </trkpt>
      <trkpt lat="42.860772013664246" lon="-1.691263038665056">
        <ele>498.09800000000001</ele>
        <time>2016-06-27T12:01:42Z</time>
      </trkpt>
      <trkpt lat="42.860860023647547" lon="-1.691376026719809">
        <ele>497.02800000000002</ele>
        <time>2016-06-27T12:01:44Z</time>
      </trkpt>
      <trkpt lat="42.860937975347042" lon="-1.6914870031178">
        <ele>497.09800000000001</ele>
        <time>2016-06-27T12:01:46Z</time>
      </trkpt>
      <trkpt lat="42.86101701669395" lon="-1.691578030586243">
        <ele>497.04599999999999</ele>
        <time>2016-06-27T12:01:48Z</time>
      </trkpt>
      <trkpt lat="42.861107960343361" lon="-1.691670985892415">
        <ele>499.01299999999998</ele>
        <time>2016-06-27T12:01:51Z</time>
      </trkpt>
      <trkpt lat="42.861196976155043" lon="-1.691779028624296">
        <ele>499.04300000000001</ele>
        <time>2016-06-27T12:01:54Z</time>
      </trkpt>
      <trkpt lat="42.861269982531667" lon="-1.691849017515779">
        <ele>499.00700000000001</ele>
        <time>2016-06-27T12:01:56Z</time>
      </trkpt>
      <trkpt lat="42.861365033313632" lon="-1.691963011398912">
        <ele>498.00799999999998</ele>
        <time>2016-06-27T12:01:59Z</time>
      </trkpt>
      <trkpt lat="42.861463017761707" lon="-1.692068036645651">
        <ele>498.03199999999998</ele>
        <time>2016-06-27T12:02:02Z</time>
      </trkpt>
      <trkpt lat="42.861551027745008" lon="-1.69219896197319">
        <ele>500.06400000000002</ele>
        <time>2016-06-27T12:02:05Z</time>
      </trkpt>
      <trkpt lat="42.861651023849845" lon="-1.692300969734788">
        <ele>500.089</ele>
        <time>2016-06-27T12:02:08Z</time>
      </trkpt>
      <trkpt lat="42.861756971105933" lon="-1.692424016073346">
        <ele>500.06299999999999</ele>
        <time>2016-06-27T12:02:11Z</time>
      </trkpt>
      <trkpt lat="42.861850010231137" lon="-1.692529963329434">
        <ele>499.041</ele>
        <time>2016-06-27T12:02:14Z</time>
      </trkpt>
      <trkpt lat="42.861918993294239" lon="-1.692610010504723">
        <ele>498.041</ele>
        <time>2016-06-27T12:02:16Z</time>
      </trkpt>
      <trkpt lat="42.86202603019774" lon="-1.692738002166152">
        <ele>499.01100000000002</ele>
        <time>2016-06-27T12:02:19Z</time>
      </trkpt>
      <trkpt lat="42.862095013260841" lon="-1.692817965522409">
        <ele>499.029</ele>
        <time>2016-06-27T12:02:21Z</time>
      </trkpt>
      <trkpt lat="42.862174976617098" lon="-1.692921984940767">
        <ele>500.03199999999998</ele>
        <time>2016-06-27T12:02:23Z</time>
      </trkpt>
      <trkpt lat="42.862245971336961" lon="-1.693018963560462">
        <ele>500.09199999999998</ele>
        <time>2016-06-27T12:02:25Z</time>
      </trkpt>
      <trkpt lat="42.862348984926939" lon="-1.693147961050272">
        <ele>500.01100000000002</ele>
        <time>2016-06-27T12:02:28Z</time>
      </trkpt>
      <trkpt lat="42.862449986860156" lon="-1.693253992125392">
        <ele>499.00799999999998</ele>
        <time>2016-06-27T12:02:31Z</time>
      </trkpt>
      <trkpt lat="42.86254202015698" lon="-1.693373015150428">
        <ele>498.084</ele>
        <time>2016-06-27T12:02:34Z</time>
      </trkpt>
      <trkpt lat="42.862644027918577" lon="-1.69350503012538">
        <ele>499.036</ele>
        <time>2016-06-27T12:02:37Z</time>
      </trkpt>
      <trkpt lat="42.862746035680175" lon="-1.693616006523371">
        <ele>499.07100000000003</ele>
        <time>2016-06-27T12:02:40Z</time>
      </trkpt>
      <trkpt lat="42.862821975722909" lon="-1.693693958222866">
        <ele>499.065</ele>
        <time>2016-06-27T12:02:42Z</time>
      </trkpt>
      <trkpt lat="42.862907974049449" lon="-1.693814992904663">
        <ele>499.03300000000002</ele>
        <time>2016-06-27T12:02:45Z</time>
      </trkpt>
      <trkpt lat="42.863000007346272" lon="-1.693910965695977">
        <ele>500.02300000000002</ele>
        <time>2016-06-27T12:02:48Z</time>
      </trkpt>
      <trkpt lat="42.863068990409374" lon="-1.693994030356407">
        <ele>499.01299999999998</ele>
        <time>2016-06-27T12:02:50Z</time>
      </trkpt>
      <trkpt lat="42.86316798068583" lon="-1.694098971784115">
        <ele>499.08100000000002</ele>
        <time>2016-06-27T12:02:53Z</time>
      </trkpt>
      <trkpt lat="42.863236041739583" lon="-1.694182036444545">
        <ele>500.08499999999998</ele>
        <time>2016-06-27T12:02:55Z</time>
      </trkpt>
      <trkpt lat="42.863322962075472" lon="-1.694294018670917">
        <ele>500.089</ele>
        <time>2016-06-27T12:02:58Z</time>
      </trkpt>
      <trkpt lat="42.863392028957605" lon="-1.694379011169076">
        <ele>499.017</ele>
        <time>2016-06-27T12:03:00Z</time>
      </trkpt>
      <trkpt lat="42.863475009799004" lon="-1.694497028365731">
        <ele>501.00799999999998</ele>
        <time>2016-06-27T12:03:03Z</time>
      </trkpt>
      <trkpt lat="42.863565031439066" lon="-1.694591995328665">
        <ele>501.089</ele>
        <time>2016-06-27T12:03:06Z</time>
      </trkpt>
      <trkpt lat="42.863653041422367" lon="-1.694706995040178">
        <ele>502.041</ele>
        <time>2016-06-27T12:03:09Z</time>
      </trkpt>
      <trkpt lat="42.863749014213681" lon="-1.694827023893595">
        <ele>503.02600000000001</ele>
        <time>2016-06-27T12:03:12Z</time>
      </trkpt>
      <trkpt lat="42.863842975348234" lon="-1.694941017776728">
        <ele>503.07999999999998</ele>
        <time>2016-06-27T12:03:15Z</time>
      </trkpt>
      <trkpt lat="42.863925034180284" lon="-1.695051994174719">
        <ele>503.05799999999999</ele>
        <time>2016-06-27T12:03:18Z</time>
      </trkpt>
      <trkpt lat="42.864017989486456" lon="-1.695156013593078">
        <ele>503.09800000000001</ele>
        <time>2016-06-27T12:03:21Z</time>
      </trkpt>
      <trkpt lat="42.864094013348222" lon="-1.695275036618114">
        <ele>503.02800000000002</ele>
        <time>2016-06-27T12:03:24Z</time>
      </trkpt>
      <trkpt lat="42.864172970876098" lon="-1.695392969995737">
        <ele>503.05599999999998</ele>
        <time>2016-06-27T12:03:28Z</time>
      </trkpt>
      <trkpt lat="42.864259975031018" lon="-1.695520961657167">
        <ele>505.065</ele>
        <time>2016-06-27T12:03:30Z</time>
      </trkpt>
      <trkpt lat="42.864347985014319" lon="-1.695652976632118">
        <ele>506.06799999999998</ele>
        <time>2016-06-27T12:03:33Z</time>
      </trkpt>
      <trkpt lat="42.864423003047705" lon="-1.69576202519238">
        <ele>506.01400000000001</ele>
        <time>2016-06-27T12:03:36Z</time>
      </trkpt>
      <trkpt lat="42.86447798833251" lon="-1.695889011025429">
        <ele>505.00799999999998</ele>
        <time>2016-06-27T12:03:39Z</time>
      </trkpt>
      <trkpt lat="42.864515958353877" lon="-1.696024965494871">
        <ele>505.02699999999999</ele>
        <time>2016-06-27T12:03:42Z</time>
      </trkpt>
      <trkpt lat="42.864557029679418" lon="-1.696154968813062">
        <ele>504.07900000000001</ele>
        <time>2016-06-27T12:03:45Z</time>
      </trkpt>
      <trkpt lat="42.864605979993939" lon="-1.696302993223071">
        <ele>504.03399999999999</ele>
        <time>2016-06-27T12:03:48Z</time>
      </trkpt>
      <trkpt lat="42.86467001773417" lon="-1.696428973227739">
        <ele>505.09800000000001</ele>
        <time>2016-06-27T12:03:51Z</time>
      </trkpt>
      <trkpt lat="42.864707987755537" lon="-1.696556964889169">
        <ele>506.06599999999997</ele>
        <time>2016-06-27T12:03:54Z</time>
      </trkpt>
      <trkpt lat="42.86475601606071" lon="-1.696699960157275">
        <ele>506.08600000000001</ele>
        <time>2016-06-27T12:03:57Z</time>
      </trkpt>
      <trkpt lat="42.864789040759206" lon="-1.696829041466117">
        <ele>506.01600000000002</ele>
        <time>2016-06-27T12:04:00Z</time>
      </trkpt>
      <trkpt lat="42.864801026880741" lon="-1.696979999542236">
        <ele>504.07400000000001</ele>
        <time>2016-06-27T12:04:03Z</time>
      </trkpt>
      <trkpt lat="42.864834973588586" lon="-1.697127018123865">
        <ele>504.06599999999997</ele>
        <time>2016-06-27T12:04:06Z</time>
      </trkpt>
      <trkpt lat="42.864865986630321" lon="-1.697269007563591">
        <ele>504.029</ele>
        <time>2016-06-27T12:04:09Z</time>
      </trkpt>
      <trkpt lat="42.864874033257365" lon="-1.697412002831698">
        <ele>502.02100000000002</ele>
        <time>2016-06-27T12:04:12Z</time>
      </trkpt>
      <trkpt lat="42.864905968308449" lon="-1.697564972564578">
        <ele>503.00799999999998</ele>
        <time>2016-06-27T12:04:15Z</time>
      </trkpt>
      <trkpt lat="42.864929018542171" lon="-1.697731018066406">
        <ele>504.077</ele>
        <time>2016-06-27T12:04:18Z</time>
      </trkpt>
      <trkpt lat="42.864938993006945" lon="-1.697879964485765">
        <ele>504.09899999999999</ele>
        <time>2016-06-27T12:04:21Z</time>
      </trkpt>
      <trkpt lat="42.864959025755525" lon="-1.69801902025938">
        <ele>505.03399999999999</ele>
        <time>2016-06-27T12:04:24Z</time>
      </trkpt>
      <trkpt lat="42.864980986341834" lon="-1.698183976113796">
        <ele>505.08800000000002</ele>
        <time>2016-06-27T12:04:27Z</time>
      </trkpt>
      <trkpt lat="42.864990038797259" lon="-1.698332000523806">
        <ele>506.036</ele>
        <time>2016-06-27T12:04:30Z</time>
      </trkpt>
      <trkpt lat="42.865000013262033" lon="-1.698477007448673">
        <ele>504.02600000000001</ele>
        <time>2016-06-27T12:04:33Z</time>
      </trkpt>
      <trkpt lat="42.865017028525472" lon="-1.69864397495985">
        <ele>505.096</ele>
        <time>2016-06-27T12:04:36Z</time>
      </trkpt>
      <trkpt lat="42.865030020475388" lon="-1.698784958571196">
        <ele>506.04399999999998</ele>
        <time>2016-06-27T12:04:39Z</time>
      </trkpt>
      <trkpt lat="42.8650570102036" lon="-1.698943041265011">
        <ele>507.09300000000002</ele>
        <time>2016-06-27T12:04:42Z</time>
      </trkpt>
      <trkpt lat="42.865090034902096" lon="-1.699088970199227">
        <ele>507.065</ele>
        <time>2016-06-27T12:04:45Z</time>
      </trkpt>
      <trkpt lat="42.865120964124799" lon="-1.699230037629604">
        <ele>506.02100000000002</ele>
        <time>2016-06-27T12:04:48Z</time>
      </trkpt>
      <trkpt lat="42.865151977166533" lon="-1.699366997927427">
        <ele>508.00799999999998</ele>
        <time>2016-06-27T12:04:51Z</time>
      </trkpt>
      <trkpt lat="42.865182990208268" lon="-1.699516028165817">
        <ele>509.01999999999998</ele>
        <time>2016-06-27T12:04:54Z</time>
      </trkpt>
      <trkpt lat="42.865212997421622" lon="-1.699668997898698">
        <ele>510.012</ele>
        <time>2016-06-27T12:04:57Z</time>
      </trkpt>
      <trkpt lat="42.865235041826963" lon="-1.699825990945101">
        <ele>509.06700000000001</ele>
        <time>2016-06-27T12:05:00Z</time>
      </trkpt>
      <trkpt lat="42.865258008241653" lon="-1.699983989819884">
        <ele>509.041</ele>
        <time>2016-06-27T12:05:03Z</time>
      </trkpt>
      <trkpt lat="42.865280974656343" lon="-1.700132014229894">
        <ele>509.09899999999999</ele>
        <time>2016-06-27T12:05:06Z</time>
      </trkpt>
      <trkpt lat="42.865308970212936" lon="-1.700276015326381">
        <ele>510.029</ele>
        <time>2016-06-27T12:05:09Z</time>
      </trkpt>
      <trkpt lat="42.865329002961516" lon="-1.700438037514687">
        <ele>510.03899999999999</ele>
        <time>2016-06-27T12:05:12Z</time>
      </trkpt>
      <trkpt lat="42.865349035710096" lon="-1.700584972277284">
        <ele>509.04700000000003</ele>
        <time>2016-06-27T12:05:15Z</time>
      </trkpt>
      <trkpt lat="42.865378959104419" lon="-1.70072696171701">
        <ele>510.04700000000003</ele>
        <time>2016-06-27T12:05:18Z</time>
      </trkpt>
      <trkpt lat="42.865406032651663" lon="-1.700885966420174">
        <ele>509.029</ele>
        <time>2016-06-27T12:05:21Z</time>
      </trkpt>
      <trkpt lat="42.865424975752831" lon="-1.70104798860848">
        <ele>510.02100000000002</ele>
        <time>2016-06-27T12:05:24Z</time>
      </trkpt>
      <trkpt lat="42.865452971309423" lon="-1.701217973604798">
        <ele>511.00799999999998</ele>
        <time>2016-06-27T12:05:27Z</time>
      </trkpt>
      <trkpt lat="42.865484990179539" lon="-1.701373960822821">
        <ele>512.08500000000004</ele>
        <time>2016-06-27T12:05:30Z</time>
      </trkpt>
      <trkpt lat="42.86550804041326" lon="-1.701519973576069">
        <ele>512.03700000000003</ele>
        <time>2016-06-27T12:05:33Z</time>
      </trkpt>
      <trkpt lat="42.865521032363176" lon="-1.70167101547122">
        <ele>512.05200000000002</ele>
        <time>2016-06-27T12:05:37Z</time>
      </trkpt>
      <trkpt lat="42.865538969635963" lon="-1.701814010739327">
        <ele>511.05599999999998</ele>
        <time>2016-06-27T12:05:39Z</time>
      </trkpt>
      <trkpt lat="42.865563025698066" lon="-1.701968992128968">
        <ele>510.06400000000002</ele>
        <time>2016-06-27T12:05:42Z</time>
      </trkpt>
      <trkpt lat="42.865583980455995" lon="-1.702122967690229">
        <ele>511.05399999999997</ele>
        <time>2016-06-27T12:05:45Z</time>
      </trkpt>
      <trkpt lat="42.865611976012588" lon="-1.702287001535296">
        <ele>511.084</ele>
        <time>2016-06-27T12:05:48Z</time>
      </trkpt>
      <trkpt lat="42.865628991276026" lon="-1.702452041208744">
        <ele>511.02199999999999</ele>
        <time>2016-06-27T12:05:51Z</time>
      </trkpt>
      <trkpt lat="42.865653969347477" lon="-1.702610040083528">
        <ele>512.09299999999996</ele>
        <time>2016-06-27T12:05:54Z</time>
      </trkpt>
      <trkpt lat="42.865668972954154" lon="-1.702769966796041">
        <ele>513.06500000000005</ele>
        <time>2016-06-27T12:05:57Z</time>
      </trkpt>
      <trkpt lat="42.865687999874353" lon="-1.702932994812727">
        <ele>514.02099999999996</ele>
        <time>2016-06-27T12:06:00Z</time>
      </trkpt>
      <trkpt lat="42.865704009309411" lon="-1.703086970373988">
        <ele>514.00800000000004</ele>
        <time>2016-06-27T12:06:03Z</time>
      </trkpt>
      <trkpt lat="42.865720018744469" lon="-1.703253015875816">
        <ele>514.01999999999998</ele>
        <time>2016-06-27T12:06:06Z</time>
      </trkpt>
      <trkpt lat="42.865736028179526" lon="-1.703405985608697">
        <ele>514.08199999999999</ele>
        <time>2016-06-27T12:06:09Z</time>
      </trkpt>
      <trkpt lat="42.865753965452313" lon="-1.703565996140242">
        <ele>515.077</ele>
        <time>2016-06-27T12:06:12Z</time>
      </trkpt>
      <trkpt lat="42.865782966837287" lon="-1.703722989186645">
        <ele>513.04100000000005</ele>
        <time>2016-06-27T12:06:15Z</time>
      </trkpt>
      <trkpt lat="42.865814985707402" lon="-1.703891968354583">
        <ele>512.029</ele>
        <time>2016-06-27T12:06:18Z</time>
      </trkpt>
      <trkpt lat="42.865835018455982" lon="-1.704011997207999">
        <ele>513.06899999999996</ele>
        <time>2016-06-27T12:06:20Z</time>
      </trkpt>
      <trkpt lat="42.865857984870672" lon="-1.704133031889796">
        <ele>513.07899999999995</ele>
        <time>2016-06-27T12:06:22Z</time>
      </trkpt>
      <trkpt lat="42.865884974598885" lon="-1.704258006066084">
        <ele>514.02700000000004</ele>
        <time>2016-06-27T12:06:24Z</time>
      </trkpt>
      <trkpt lat="42.865909030660987" lon="-1.70438096858561">
        <ele>514.03800000000001</ele>
        <time>2016-06-27T12:06:26Z</time>
      </trkpt>
      <trkpt lat="42.865925040096045" lon="-1.704504014924169">
        <ele>514.07000000000005</ele>
        <time>2016-06-27T12:06:28Z</time>
      </trkpt>
      <trkpt lat="42.86594096571207" lon="-1.704639969393611">
        <ele>514.01700000000005</ele>
        <time>2016-06-27T12:06:30Z</time>
      </trkpt>
      <trkpt lat="42.865947000682354" lon="-1.70476796105504">
        <ele>513.00800000000004</ele>
        <time>2016-06-27T12:06:32Z</time>
      </trkpt>
      <trkpt lat="42.865972984582186" lon="-1.704925959929824">
        <ele>514.05399999999997</ele>
        <time>2016-06-27T12:06:34Z</time>
      </trkpt>
      <trkpt lat="42.866011038422585" lon="-1.705067027360201">
        <ele>513.06600000000003</ele>
        <time>2016-06-27T12:06:36Z</time>
      </trkpt>
      <trkpt lat="42.866027969866991" lon="-1.705203987658024">
        <ele>513.04100000000005</ele>
        <time>2016-06-27T12:06:38Z</time>
      </trkpt>
      <trkpt lat="42.866041967645288" lon="-1.70534597709775">
        <ele>511.02499999999998</ele>
        <time>2016-06-27T12:06:40Z</time>
      </trkpt>
      <trkpt lat="42.86606996320188" lon="-1.705471035093069">
        <ele>512.06299999999999</ele>
        <time>2016-06-27T12:06:42Z</time>
      </trkpt>
      <trkpt lat="42.866078009828925" lon="-1.705595003440976">
        <ele>511.053</ele>
        <time>2016-06-27T12:06:44Z</time>
      </trkpt>
      <trkpt lat="42.866101982071996" lon="-1.705739004537463">
        <ele>512.03300000000002</ele>
        <time>2016-06-27T12:06:46Z</time>
      </trkpt>
      <trkpt lat="42.866124026477337" lon="-1.705887028947473">
        <ele>512.02099999999996</ele>
        <time>2016-06-27T12:06:48Z</time>
      </trkpt>
      <trkpt lat="42.86613198928535" lon="-1.706022983416915">
        <ele>512.06600000000003</ele>
        <time>2016-06-27T12:06:50Z</time>
      </trkpt>
      <trkpt lat="42.866154033690691" lon="-1.706151980906725">
        <ele>513.029</ele>
        <time>2016-06-27T12:06:52Z</time>
      </trkpt>
      <trkpt lat="42.866182029247284" lon="-1.706329006701708">
        <ele>511.02100000000002</ele>
        <time>2016-06-27T12:06:55Z</time>
      </trkpt>
      <trkpt lat="42.866206001490355" lon="-1.706447023898363">
        <ele>511.00799999999998</ele>
        <time>2016-06-27T12:06:57Z</time>
      </trkpt>
      <trkpt lat="42.866240032017231" lon="-1.70661298558116">
        <ele>511.05700000000002</ele>
        <time>2016-06-27T12:07:00Z</time>
      </trkpt>
      <trkpt lat="42.866257969290018" lon="-1.706738965585828">
        <ele>513.06899999999996</ele>
        <time>2016-06-27T12:07:02Z</time>
      </trkpt>
      <trkpt lat="42.866275990381837" lon="-1.706863017752767">
        <ele>513.01400000000001</ele>
        <time>2016-06-27T12:07:04Z</time>
      </trkpt>
      <trkpt lat="42.866289988160133" lon="-1.70704297721386">
        <ele>513.07799999999997</ele>
        <time>2016-06-27T12:07:07Z</time>
      </trkpt>
      <trkpt lat="42.866311026737094" lon="-1.707164011895657">
        <ele>514.04600000000005</ele>
        <time>2016-06-27T12:07:09Z</time>
      </trkpt>
      <trkpt lat="42.866331981495023" lon="-1.707287980243564">
        <ele>514.096</ele>
        <time>2016-06-27T12:07:11Z</time>
      </trkpt>
      <trkpt lat="42.866340028122067" lon="-1.707459976896644">
        <ele>515.08600000000001</ele>
        <time>2016-06-27T12:07:14Z</time>
      </trkpt>
      <trkpt lat="42.866362994536757" lon="-1.707581011578441">
        <ele>515.05399999999997</ele>
        <time>2016-06-27T12:07:16Z</time>
      </trkpt>
      <trkpt lat="42.866396019235253" lon="-1.707741022109985">
        <ele>514.09299999999996</ele>
        <time>2016-06-27T12:07:19Z</time>
      </trkpt>
      <trkpt lat="42.866429965943098" lon="-1.70790103264153">
        <ele>514.06500000000005</ele>
        <time>2016-06-27T12:07:22Z</time>
      </trkpt>
      <trkpt lat="42.866456033661962" lon="-1.708048973232508">
        <ele>514.02099999999996</ele>
        <time>2016-06-27T12:07:25Z</time>
      </trkpt>
      <trkpt lat="42.866483023390174" lon="-1.708204038441181">
        <ele>513.00800000000004</ele>
        <time>2016-06-27T12:07:28Z</time>
      </trkpt>
      <trkpt lat="42.866499032825232" lon="-1.70835399068892">
        <ele>512.00999999999999</ele>
        <time>2016-06-27T12:07:31Z</time>
      </trkpt>
      <trkpt lat="42.866512024775147" lon="-1.708479970693588">
        <ele>513.072</ele>
        <time>2016-06-27T12:07:33Z</time>
      </trkpt>
      <trkpt lat="42.866535997018218" lon="-1.708644004538655">
        <ele>513.01700000000005</ele>
        <time>2016-06-27T12:07:36Z</time>
      </trkpt>
      <trkpt lat="42.866558041423559" lon="-1.708809966221452">
        <ele>514.02099999999996</ele>
        <time>2016-06-27T12:07:39Z</time>
      </trkpt>
      <trkpt lat="42.866588970646262" lon="-1.7089559789747">
        <ele>514.01900000000001</ele>
        <time>2016-06-27T12:07:42Z</time>
      </trkpt>
      <trkpt lat="42.866600034758449" lon="-1.709112972021103">
        <ele>514.08900000000006</ele>
        <time>2016-06-27T12:07:45Z</time>
      </trkpt>
      <trkpt lat="42.866624007001519" lon="-1.709270970895886">
        <ele>514.01900000000001</ele>
        <time>2016-06-27T12:07:48Z</time>
      </trkpt>
      <trkpt lat="42.86664797924459" lon="-1.709424024447799">
        <ele>516.06700000000001</ele>
        <time>2016-06-27T12:07:51Z</time>
      </trkpt>
      <trkpt lat="42.866673041135073" lon="-1.709575988352299">
        <ele>516.06399999999996</ele>
        <time>2016-06-27T12:07:54Z</time>
      </trkpt>
      <trkpt lat="42.866703970357776" lon="-1.709740022197366">
        <ele>516.00599999999997</ele>
        <time>2016-06-27T12:07:57Z</time>
      </trkpt>
      <trkpt lat="42.866728026419878" lon="-1.709895003587008">
        <ele>516.01599999999996</ele>
        <time>2016-06-27T12:08:00Z</time>
      </trkpt>
      <trkpt lat="42.866750992834568" lon="-1.710062976926565">
        <ele>516.00800000000004</ele>
        <time>2016-06-27T12:08:03Z</time>
      </trkpt>
      <trkpt lat="42.866770019754767" lon="-1.710224999114871">
        <ele>517.01700000000005</ele>
        <time>2016-06-27T12:08:06Z</time>
      </trkpt>
      <trkpt lat="42.86679801531136" lon="-1.710364976897836">
        <ele>518.07899999999995</ele>
        <time>2016-06-27T12:08:09Z</time>
      </trkpt>
      <trkpt lat="42.866821987554431" lon="-1.710514007136226">
        <ele>518.04399999999998</ele>
        <time>2016-06-27T12:08:12Z</time>
      </trkpt>
      <trkpt lat="42.866844031959772" lon="-1.710663959383965">
        <ele>518.05799999999999</ele>
        <time>2016-06-27T12:08:15Z</time>
      </trkpt>
      <trkpt lat="42.866861969232559" lon="-1.710812989622355">
        <ele>519.03599999999994</ele>
        <time>2016-06-27T12:08:18Z</time>
      </trkpt>
      <trkpt lat="42.866892982274294" lon="-1.710969982668757">
        <ele>520.096</ele>
        <time>2016-06-27T12:08:21Z</time>
      </trkpt>
      <trkpt lat="42.866921983659267" lon="-1.711138961836696">
        <ele>521.05600000000004</ele>
        <time>2016-06-27T12:08:24Z</time>
      </trkpt>
      <trkpt lat="42.866944028064609" lon="-1.711281035095453">
        <ele>520.024</ele>
        <time>2016-06-27T12:08:28Z</time>
      </trkpt>
      <trkpt lat="42.866977974772453" lon="-1.71144699677825">
        <ele>521.09299999999996</ele>
        <time>2016-06-27T12:08:30Z</time>
      </trkpt>
      <trkpt lat="42.867000019177794" lon="-1.711617987602949">
        <ele>522.06500000000005</ele>
        <time>2016-06-27T12:08:33Z</time>
      </trkpt>
      <trkpt lat="42.867018040269613" lon="-1.711785038933158">
        <ele>521.02099999999996</ele>
        <time>2016-06-27T12:08:36Z</time>
      </trkpt>
      <trkpt lat="42.867045029997826" lon="-1.711955023929477">
        <ele>522.00800000000004</ele>
        <time>2016-06-27T12:08:39Z</time>
      </trkpt>
      <trkpt lat="42.867061961442232" lon="-1.712115034461021">
        <ele>523.05999999999995</ele>
        <time>2016-06-27T12:08:42Z</time>
      </trkpt>
      <trkpt lat="42.86707797087729" lon="-1.712276972830296">
        <ele>523.06200000000001</ele>
        <time>2016-06-27T12:08:45Z</time>
      </trkpt>
      <trkpt lat="42.867106972262263" lon="-1.712428014725447">
        <ele>524.05700000000002</ele>
        <time>2016-06-27T12:08:48Z</time>
      </trkpt>
      <trkpt lat="42.867133039981127" lon="-1.712599005550146">
        <ele>525.07100000000003</ele>
        <time>2016-06-27T12:08:51Z</time>
      </trkpt>
      <trkpt lat="42.867160029709339" lon="-1.712742000818253">
        <ele>525.04899999999998</ele>
        <time>2016-06-27T12:08:54Z</time>
      </trkpt>
      <trkpt lat="42.867190036922693" lon="-1.712888013571501">
        <ele>524.04899999999998</ele>
        <time>2016-06-27T12:08:57Z</time>
      </trkpt>
      <trkpt lat="42.867211997509003" lon="-1.713050035759807">
        <ele>524.03899999999999</ele>
        <time>2016-06-27T12:09:00Z</time>
      </trkpt>
      <trkpt lat="42.867240998893976" lon="-1.713214991614223">
        <ele>523.01700000000005</ele>
        <time>2016-06-27T12:09:03Z</time>
      </trkpt>
      <trkpt lat="42.867262037470937" lon="-1.713378019630909">
        <ele>522.024</ele>
        <time>2016-06-27T12:09:06Z</time>
      </trkpt>
      <trkpt lat="42.867297995835543" lon="-1.713539035990834">
        <ele>523.00400000000002</ele>
        <time>2016-06-27T12:09:09Z</time>
      </trkpt>
      <trkpt lat="42.867324985563755" lon="-1.713713966310024">
        <ele>525.01400000000001</ele>
        <time>2016-06-27T12:09:12Z</time>
      </trkpt>
      <trkpt lat="42.867338983342052" lon="-1.713870037347078">
        <ele>524.00800000000004</ele>
        <time>2016-06-27T12:09:15Z</time>
      </trkpt>
      <trkpt lat="42.867362033575773" lon="-1.714017977938056">
        <ele>525.09299999999996</ele>
        <time>2016-06-27T12:09:18Z</time>
      </trkpt>
      <trkpt lat="42.867366978898644" lon="-1.714187040925026">
        <ele>525.02499999999998</ele>
        <time>2016-06-27T12:09:21Z</time>
      </trkpt>
      <trkpt lat="42.867389023303986" lon="-1.714362977072597">
        <ele>526.00999999999999</ele>
        <time>2016-06-27T12:09:24Z</time>
      </trkpt>
      <trkpt lat="42.867412995547056" lon="-1.714526005089283">
        <ele>526.07399999999996</ele>
        <time>2016-06-27T12:09:27Z</time>
      </trkpt>
      <trkpt lat="42.86744199693203" lon="-1.714689033105969">
        <ele>526.02200000000005</ele>
        <time>2016-06-27T12:09:30Z</time>
      </trkpt>
      <trkpt lat="42.867470998317003" lon="-1.714847031980753">
        <ele>528.05200000000002</ele>
        <time>2016-06-27T12:09:33Z</time>
      </trkpt>
      <trkpt lat="42.867504023015499" lon="-1.715010982006788">
        <ele>528.072</ele>
        <time>2016-06-27T12:09:36Z</time>
      </trkpt>
      <trkpt lat="42.867517014965415" lon="-1.715151965618134">
        <ele>528.00999999999999</ele>
        <time>2016-06-27T12:09:39Z</time>
      </trkpt>
      <trkpt lat="42.867524977773428" lon="-1.715317005291581">
        <ele>529.09799999999996</ele>
        <time>2016-06-27T12:09:42Z</time>
      </trkpt>
      <trkpt lat="42.86754903383553" lon="-1.715483972802758">
        <ele>529.01499999999999</ele>
        <time>2016-06-27T12:09:45Z</time>
      </trkpt>
      <trkpt lat="42.867576023563743" lon="-1.715633003041148">
        <ele>530.02599999999995</ele>
        <time>2016-06-27T12:09:48Z</time>
      </trkpt>
      <trkpt lat="42.867595972493291" lon="-1.715784966945648">
        <ele>530.00800000000004</ele>
        <time>2016-06-27T12:09:51Z</time>
      </trkpt>
      <trkpt lat="42.867630003020167" lon="-1.715932991355658">
        <ele>531.09000000000003</ele>
        <time>2016-06-27T12:09:54Z</time>
      </trkpt>
      <trkpt lat="42.867692029103637" lon="-1.716114962473512">
        <ele>529.01199999999994</ele>
        <time>2016-06-27T12:09:58Z</time>
      </trkpt>
      <trkpt lat="42.867737961933017" lon="-1.716251000761986">
        <ele>529.05700000000002</ele>
        <time>2016-06-27T12:10:01Z</time>
      </trkpt>
      <trkpt lat="42.867777021601796" lon="-1.716398019343615">
        <ele>529.04100000000005</ele>
        <time>2016-06-27T12:10:04Z</time>
      </trkpt>
      <trkpt lat="42.867838041856885" lon="-1.716569010168314">
        <ele>530.07899999999995</ele>
        <time>2016-06-27T12:10:08Z</time>
      </trkpt>
      <trkpt lat="42.867896966636181" lon="-1.71671200543642">
        <ele>531.01900000000001</ele>
        <time>2016-06-27T12:10:11Z</time>
      </trkpt>
      <trkpt lat="42.867946000769734" lon="-1.716816024854779">
        <ele>531.03899999999999</ele>
        <time>2016-06-27T12:10:13Z</time>
      </trkpt>
      <trkpt lat="42.868010038509965" lon="-1.716960025951266">
        <ele>531.04700000000003</ele>
        <time>2016-06-27T12:10:16Z</time>
      </trkpt>
      <trkpt lat="42.868066029623151" lon="-1.717108972370625">
        <ele>532.07500000000005</ele>
        <time>2016-06-27T12:10:19Z</time>
      </trkpt>
      <trkpt lat="42.868144987151027" lon="-1.717301001772285">
        <ele>533.02800000000002</ele>
        <time>2016-06-27T12:10:23Z</time>
      </trkpt>
      <trkpt lat="42.868195027112961" lon="-1.717443997040391">
        <ele>533.01999999999998</ele>
        <time>2016-06-27T12:10:26Z</time>
      </trkpt>
      <trkpt lat="42.868248000741005" lon="-1.717584980651736">
        <ele>533.00800000000004</ele>
        <time>2016-06-27T12:10:29Z</time>
      </trkpt>
      <trkpt lat="42.868248000741005" lon="-1.717584980651736">
        <ele>533.05799999999999</ele>
        <time>2016-06-27T12:10:29Z</time>
      </trkpt>
      <trkpt lat="42.868314972147346" lon="-1.71772101894021">
        <ele>533.02999999999997</ele>
        <time>2016-06-27T12:10:32Z</time>
      </trkpt>
      <trkpt lat="42.868379009887576" lon="-1.717864014208317">
        <ele>534.06500000000005</ele>
        <time>2016-06-27T12:10:35Z</time>
      </trkpt>
      <trkpt lat="42.868442041799426" lon="-1.717999968677759">
        <ele>535.06899999999996</ele>
        <time>2016-06-27T12:10:38Z</time>
      </trkpt>
      <trkpt lat="42.868490992113948" lon="-1.718145981431007">
        <ele>534.01700000000005</ele>
        <time>2016-06-27T12:10:41Z</time>
      </trkpt>
      <trkpt lat="42.86855997517705" lon="-1.718277996405959">
        <ele>534.01700000000005</ele>
        <time>2016-06-27T12:10:44Z</time>
      </trkpt>
      <trkpt lat="42.868618983775377" lon="-1.718423003330827">
        <ele>533.08699999999999</ele>
        <time>2016-06-27T12:10:47Z</time>
      </trkpt>
      <trkpt lat="42.868672963231802" lon="-1.718561975285411">
        <ele>534.01499999999999</ele>
        <time>2016-06-27T12:10:50Z</time>
      </trkpt>
      <trkpt lat="42.868738006800413" lon="-1.718702036887407">
        <ele>533.01700000000005</ele>
        <time>2016-06-27T12:10:53Z</time>
      </trkpt>
      <trkpt lat="42.86881503649056" lon="-1.718842014670372">
        <ele>535.08699999999999</ele>
        <time>2016-06-27T12:10:56Z</time>
      </trkpt>
      <trkpt lat="42.868874967098236" lon="-1.71896799467504">
        <ele>535.01499999999999</ele>
        <time>2016-06-27T12:10:59Z</time>
      </trkpt>
      <trkpt lat="42.868933975696564" lon="-1.719097997993231">
        <ele>535.00800000000004</ele>
        <time>2016-06-27T12:11:02Z</time>
      </trkpt>
      <trkpt lat="42.86898996680975" lon="-1.719238981604576">
        <ele>535.04200000000003</ele>
        <time>2016-06-27T12:11:05Z</time>
      </trkpt>
      <trkpt lat="42.869057022035122" lon="-1.719380971044302">
        <ele>536.09400000000005</ele>
        <time>2016-06-27T12:11:08Z</time>
      </trkpt>
      <trkpt lat="42.869112007319927" lon="-1.719531007111073">
        <ele>536.07899999999995</ele>
        <time>2016-06-27T12:11:11Z</time>
      </trkpt>
      <trkpt lat="42.869172021746635" lon="-1.719677019864321">
        <ele>536.053</ele>
        <time>2016-06-27T12:11:14Z</time>
      </trkpt>
      <trkpt lat="42.86922600120306" lon="-1.71982403844595">
        <ele>536.01099999999997</ele>
        <time>2016-06-27T12:11:17Z</time>
      </trkpt>
      <trkpt lat="42.869286015629768" lon="-1.719966027885675">
        <ele>535.07100000000003</ele>
        <time>2016-06-27T12:11:20Z</time>
      </trkpt>
      <trkpt lat="42.869358016178012" lon="-1.72010600566864">
        <ele>535.05100000000004</ele>
        <time>2016-06-27T12:11:23Z</time>
      </trkpt>
      <trkpt lat="42.869423981755972" lon="-1.720253024250269">
        <ele>537.05899999999997</ele>
        <time>2016-06-27T12:11:26Z</time>
      </trkpt>
      <trkpt lat="42.869487013667822" lon="-1.720400964841247">
        <ele>538.08199999999999</ele>
        <time>2016-06-27T12:11:29Z</time>
      </trkpt>
      <trkpt lat="42.869545016437769" lon="-1.720537003129721">
        <ele>538.04300000000001</ele>
        <time>2016-06-27T12:11:32Z</time>
      </trkpt>
      <trkpt lat="42.869610982015729" lon="-1.720683015882969">
        <ele>538.01700000000005</ele>
        <time>2016-06-27T12:11:35Z</time>
      </trkpt>
      <trkpt lat="42.869677031412721" lon="-1.720823999494314">
        <ele>538.00800000000004</ele>
        <time>2016-06-27T12:11:38Z</time>
      </trkpt>
      <trkpt lat="42.869736040011048" lon="-1.720959031954408">
        <ele>538.08900000000006</ele>
        <time>2016-06-27T12:11:41Z</time>
      </trkpt>
      <trkpt lat="42.869796976447105" lon="-1.721102027222514">
        <ele>537.08100000000002</ele>
        <time>2016-06-27T12:11:44Z</time>
      </trkpt>
      <trkpt lat="42.869864031672478" lon="-1.721251979470253">
        <ele>538.01599999999996</ele>
        <time>2016-06-27T12:11:47Z</time>
      </trkpt>
      <trkpt lat="42.869925973936915" lon="-1.721401009708643">
        <ele>538.09000000000003</ele>
        <time>2016-06-27T12:11:50Z</time>
      </trkpt>
      <trkpt lat="42.869980959221721" lon="-1.721538975834847">
        <ele>538.06799999999998</ele>
        <time>2016-06-27T12:11:53Z</time>
      </trkpt>
      <trkpt lat="42.87004197947681" lon="-1.721680965274572">
        <ele>539.048</ele>
        <time>2016-06-27T12:11:56Z</time>
      </trkpt>
      <trkpt lat="42.870101993903518" lon="-1.721831001341343">
        <ele>539.06799999999998</ele>
        <time>2016-06-27T12:11:59Z</time>
      </trkpt>
      <trkpt lat="42.870155973359942" lon="-1.721973996609449">
        <ele>540.03599999999994</ele>
        <time>2016-06-27T12:12:02Z</time>
      </trkpt>
      <trkpt lat="42.870209030807018" lon="-1.722137024626136">
        <ele>540.05200000000002</ele>
        <time>2016-06-27T12:12:05Z</time>
      </trkpt>
      <trkpt lat="42.870254963636398" lon="-1.7222960293293">
        <ele>540.053</ele>
        <time>2016-06-27T12:12:08Z</time>
      </trkpt>
      <trkpt lat="42.870296034961939" lon="-1.722461991012096">
        <ele>540.00800000000004</ele>
        <time>2016-06-27T12:12:11Z</time>
      </trkpt>
      <trkpt lat="42.870315983891487" lon="-1.722629964351654">
        <ele>540.00800000000004</ele>
        <time>2016-06-27T12:12:14Z</time>
      </trkpt>
      <trkpt lat="42.870341967791319" lon="-1.722845965996385">
        <ele>541.096</ele>
        <time>2016-06-27T12:12:18Z</time>
      </trkpt>
      <trkpt lat="42.870355965569615" lon="-1.723005976527929">
        <ele>541.048</ele>
        <time>2016-06-27T12:12:21Z</time>
      </trkpt>
      <trkpt lat="42.870352026075125" lon="-1.723172022029758">
        <ele>540.053</ele>
        <time>2016-06-27T12:12:24Z</time>
      </trkpt>
      <trkpt lat="42.870341967791319" lon="-1.723300013691187">
        <ele>541.077</ele>
        <time>2016-06-27T12:12:26Z</time>
      </trkpt>
      <trkpt lat="42.870327970013022" lon="-1.723486008122563">
        <ele>540.04499999999996</ele>
        <time>2016-06-27T12:12:29Z</time>
      </trkpt>
      <trkpt lat="42.870329981669784" lon="-1.72365196980536">
        <ele>541.03499999999997</ele>
        <time>2016-06-27T12:12:32Z</time>
      </trkpt>
      <trkpt lat="42.870328975841403" lon="-1.723812986165285">
        <ele>541.05499999999995</ele>
        <time>2016-06-27T12:12:35Z</time>
      </trkpt>
      <trkpt lat="42.87032101303339" lon="-1.723976014181972">
        <ele>541.08299999999997</ele>
        <time>2016-06-27T12:12:38Z</time>
      </trkpt>
      <trkpt lat="42.87032101303339" lon="-1.724142981693149">
        <ele>542.08799999999997</ele>
        <time>2016-06-27T12:12:41Z</time>
      </trkpt>
      <trkpt lat="42.870316989719868" lon="-1.724309027194977">
        <ele>544.024</ele>
        <time>2016-06-27T12:12:44Z</time>
      </trkpt>
      <trkpt lat="42.870309026911855" lon="-1.724456967785955">
        <ele>544.02599999999995</ele>
        <time>2016-06-27T12:12:47Z</time>
      </trkpt>
      <trkpt lat="42.870298968628049" lon="-1.724613038823009">
        <ele>543.00800000000004</ele>
        <time>2016-06-27T12:12:50Z</time>
      </trkpt>
      <trkpt lat="42.870297962799668" lon="-1.724779000505805">
        <ele>544.05899999999997</ele>
        <time>2016-06-27T12:12:53Z</time>
      </trkpt>
      <trkpt lat="42.870293017476797" lon="-1.724934987723827">
        <ele>545.07100000000003</ele>
        <time>2016-06-27T12:12:56Z</time>
      </trkpt>
      <trkpt lat="42.870283965021372" lon="-1.725100027397275">
        <ele>546.06600000000003</ele>
        <time>2016-06-27T12:12:59Z</time>
      </trkpt>
      <trkpt lat="42.870281031355262" lon="-1.725261965766549">
        <ele>547.08000000000004</ele>
        <time>2016-06-27T12:13:02Z</time>
      </trkpt>
      <trkpt lat="42.870280025526881" lon="-1.725427005439997">
        <ele>548.03800000000001</ele>
        <time>2016-06-27T12:13:05Z</time>
      </trkpt>
      <trkpt lat="42.870274996384978" lon="-1.725577963516116">
        <ele>548.02800000000002</ele>
        <time>2016-06-27T12:13:08Z</time>
      </trkpt>
      <trkpt lat="42.870269967243075" lon="-1.725738979876041">
        <ele>548.02800000000002</ele>
        <time>2016-06-27T12:13:11Z</time>
      </trkpt>
      <trkpt lat="42.870258986949921" lon="-1.725899996235967">
        <ele>550.01599999999996</ele>
        <time>2016-06-27T12:13:14Z</time>
      </trkpt>
      <trkpt lat="42.870245995000005" lon="-1.726066041737795">
        <ele>550.01900000000001</ele>
        <time>2016-06-27T12:13:17Z</time>
      </trkpt>
      <trkpt lat="42.870241971686482" lon="-1.72622898593545">
        <ele>551.00900000000001</ele>
        <time>2016-06-27T12:13:20Z</time>
      </trkpt>
      <trkpt lat="42.87023501470685" lon="-1.726382039487362">
        <ele>554.01900000000001</ele>
        <time>2016-06-27T12:13:23Z</time>
      </trkpt>
      <trkpt lat="42.870223028585315" lon="-1.726541966199875">
        <ele>554.00800000000004</ele>
        <time>2016-06-27T12:13:26Z</time>
      </trkpt>
      <trkpt lat="42.870219005271792" lon="-1.726710023358464">
        <ele>556.05200000000002</ele>
        <time>2016-06-27T12:13:29Z</time>
      </trkpt>
      <trkpt lat="42.870221016928554" lon="-1.726880008354783">
        <ele>555.01400000000001</ele>
        <time>2016-06-27T12:13:32Z</time>
      </trkpt>
      <trkpt lat="42.870213976129889" lon="-1.727058961987495">
        <ele>558.05899999999997</ele>
        <time>2016-06-27T12:13:35Z</time>
      </trkpt>
      <trkpt lat="42.870217999443412" lon="-1.727225007489324">
        <ele>556.01300000000003</ele>
        <time>2016-06-27T12:13:38Z</time>
      </trkpt>
      <trkpt lat="42.870210958644748" lon="-1.727403039112687">
        <ele>556.04100000000005</ele>
        <time>2016-06-27T12:13:41Z</time>
      </trkpt>
      <trkpt lat="42.870204001665115" lon="-1.727556008845568">
        <ele>554.07100000000003</ele>
        <time>2016-06-27T12:13:44Z</time>
      </trkpt>
      <trkpt lat="42.870206013321877" lon="-1.727724988013506">
        <ele>553.08100000000002</ele>
        <time>2016-06-27T12:13:47Z</time>
      </trkpt>
      <trkpt lat="42.870198972523212" lon="-1.727884998545051">
        <ele>554.07899999999995</ele>
        <time>2016-06-27T12:13:50Z</time>
      </trkpt>
      <trkpt lat="42.870188998058438" lon="-1.728052971884608">
        <ele>554.05399999999997</ele>
        <time>2016-06-27T12:13:53Z</time>
      </trkpt>
      <trkpt lat="42.870196038857102" lon="-1.728217005729675">
        <ele>552.05600000000004</ele>
        <time>2016-06-27T12:13:56Z</time>
      </trkpt>
      <trkpt lat="42.870185980573297" lon="-1.728380033746362">
        <ele>552.01099999999997</ele>
        <time>2016-06-27T12:13:59Z</time>
      </trkpt>
      <trkpt lat="42.870175000280142" lon="-1.728544989600778">
        <ele>550.00800000000004</ele>
        <time>2016-06-27T12:14:02Z</time>
      </trkpt>
      <trkpt lat="42.870178017765284" lon="-1.728712040930986">
        <ele>551.08600000000001</ele>
        <time>2016-06-27T12:14:05Z</time>
      </trkpt>
      <trkpt lat="42.870168965309858" lon="-1.728884959593415">
        <ele>551.02800000000002</ele>
        <time>2016-06-27T12:14:08Z</time>
      </trkpt>
      <trkpt lat="42.870165025815368" lon="-1.729045975953341">
        <ele>551.06299999999999</ele>
        <time>2016-06-27T12:14:11Z</time>
      </trkpt>
      <trkpt lat="42.870162008330226" lon="-1.729213027283549">
        <ele>552.03700000000003</ele>
        <time>2016-06-27T12:14:14Z</time>
      </trkpt>
      <trkpt lat="42.870148010551929" lon="-1.729350993409753">
        <ele>551.09500000000003</ele>
        <time>2016-06-27T12:14:16Z</time>
      </trkpt>
      <trkpt lat="42.870155973359942" lon="-1.729513015598059">
        <ele>550.04499999999996</ele>
        <time>2016-06-27T12:14:18Z</time>
      </trkpt>
      <trkpt lat="42.870166031643748" lon="-1.729665985330939">
        <ele>551.07500000000005</ele>
        <time>2016-06-27T12:14:20Z</time>
      </trkpt>
      <trkpt lat="42.870194027200341" lon="-1.729798000305891">
        <ele>552.06299999999999</ele>
        <time>2016-06-27T12:14:23Z</time>
      </trkpt>
      <trkpt lat="42.870229985564947" lon="-1.729935966432095">
        <ele>554.05600000000004</ele>
        <time>2016-06-27T12:14:27Z</time>
      </trkpt>
      <trkpt lat="42.870256975293159" lon="-1.730057001113892">
        <ele>555.05899999999997</ele>
        <time>2016-06-27T12:14:30Z</time>
      </trkpt>
      <trkpt lat="42.870292011648417" lon="-1.730168983340263">
        <ele>555.01400000000001</ele>
        <time>2016-06-27T12:14:33Z</time>
      </trkpt>
      <trkpt lat="42.870327970013022" lon="-1.730297980830073">
        <ele>556.00800000000004</ele>
        <time>2016-06-27T12:14:36Z</time>
      </trkpt>
      <trkpt lat="42.87036401219666" lon="-1.730447011068463">
        <ele>557.02599999999995</ele>
        <time>2016-06-27T12:14:40Z</time>
      </trkpt>
      <trkpt lat="42.870395025238395" lon="-1.730565028265119">
        <ele>557.08799999999997</ele>
        <time>2016-06-27T12:14:43Z</time>
      </trkpt>
      <trkpt lat="42.870435006916523" lon="-1.73072000965476">
        <ele>558.06299999999999</ele>
        <time>2016-06-27T12:14:47Z</time>
      </trkpt>
      <trkpt lat="42.870484041050076" lon="-1.7308250349015">
        <ele>558.02700000000004</ele>
        <time>2016-06-27T12:14:50Z</time>
      </trkpt>
      <trkpt lat="42.870532991364598" lon="-1.730945985764265">
        <ele>560.06500000000005</ele>
        <time>2016-06-27T12:14:54Z</time>
      </trkpt>
      <trkpt lat="42.870582025498152" lon="-1.73108302988112">
        <ele>559.03499999999997</ele>
        <time>2016-06-27T12:14:58Z</time>
      </trkpt>
      <trkpt lat="42.870638016611338" lon="-1.731220996007323">
        <ele>561.03499999999997</ele>
        <time>2016-06-27T12:15:02Z</time>
      </trkpt>
      <trkpt lat="42.870690990239382" lon="-1.731347981840372">
        <ele>561.09299999999996</ele>
        <time>2016-06-27T12:15:06Z</time>
      </trkpt>
      <trkpt lat="42.870745975524187" lon="-1.73147396184504">
        <ele>562.04200000000003</ele>
        <time>2016-06-27T12:15:10Z</time>
      </trkpt>
      <trkpt lat="42.870783023536205" lon="-1.731586027890444">
        <ele>563.02200000000005</ele>
        <time>2016-06-27T12:15:13Z</time>
      </trkpt>
      <trkpt lat="42.870762990787625" lon="-1.731712007895112">
        <ele>564.01400000000001</ele>
        <time>2016-06-27T12:15:16Z</time>
      </trkpt>
      <trkpt lat="42.870795009657741" lon="-1.7318369820714">
        <ele>564.00800000000004</ele>
        <time>2016-06-27T12:15:20Z</time>
      </trkpt>
      <trkpt lat="42.870853012427688" lon="-1.73198601230979">
        <ele>564.07500000000005</ele>
        <time>2016-06-27T12:15:24Z</time>
      </trkpt>
      <trkpt lat="42.87090003490448" lon="-1.732092965394259">
        <ele>565.04700000000003</ele>
        <time>2016-06-27T12:15:27Z</time>
      </trkpt>
      <trkpt lat="42.870938004925847" lon="-1.732209976762533">
        <ele>566.08199999999999</ele>
        <time>2016-06-27T12:15:30Z</time>
      </trkpt>
      <trkpt lat="42.87098896689713" lon="-1.732355989515781">
        <ele>566.096</ele>
        <time>2016-06-27T12:15:34Z</time>
      </trkpt>
      <trkpt lat="42.871028026565909" lon="-1.732478030025959">
        <ele>566.07399999999996</ele>
        <time>2016-06-27T12:15:37Z</time>
      </trkpt>
      <trkpt lat="42.871069014072418" lon="-1.732598980888724">
        <ele>566.03399999999999</ele>
        <time>2016-06-27T12:15:40Z</time>
      </trkpt>
      <trkpt lat="42.871119976043701" lon="-1.732710041105747">
        <ele>565.08399999999995</ele>
        <time>2016-06-27T12:15:43Z</time>
      </trkpt>
      <trkpt lat="42.871145037934184" lon="-1.732849013060331">
        <ele>563.05200000000002</ele>
        <time>2016-06-27T12:15:46Z</time>
      </trkpt>
      <trkpt lat="42.871197005733848" lon="-1.733001982793212">
        <ele>565.08799999999997</ele>
        <time>2016-06-27T12:15:49Z</time>
      </trkpt>
      <trkpt lat="42.871247967705131" lon="-1.733151013031602">
        <ele>565.024</ele>
        <time>2016-06-27T12:15:52Z</time>
      </trkpt>
      <trkpt lat="42.871343018487096" lon="-1.733213039115071">
        <ele>565.02599999999995</ele>
        <time>2016-06-27T12:15:55Z</time>
      </trkpt>
      <trkpt lat="42.871447037905455" lon="-1.73325402662158">
        <ele>566.00800000000004</ele>
        <time>2016-06-27T12:15:59Z</time>
      </trkpt>
      <trkpt lat="42.871554996818304" lon="-1.73325402662158">
        <ele>565.01900000000001</ele>
        <time>2016-06-27T12:16:06Z</time>
      </trkpt>
      <trkpt lat="42.871672008186579" lon="-1.733251009136438">
        <ele>565.08100000000002</ele>
        <time>2016-06-27T12:16:10Z</time>
      </trkpt>
      <trkpt lat="42.871759012341499" lon="-1.733304988592863">
        <ele>564.07600000000002</ele>
        <time>2016-06-27T12:16:13Z</time>
      </trkpt>
      <trkpt lat="42.871840987354517" lon="-1.73338302411139">
        <ele>564.09000000000003</ele>
        <time>2016-06-27T12:16:16Z</time>
      </trkpt>
      <trkpt lat="42.871936038136482" lon="-1.733474973589182">
        <ele>564.03800000000001</ele>
        <time>2016-06-27T12:16:19Z</time>
      </trkpt>
      <trkpt lat="42.872047014534473" lon="-1.733571030199528">
        <ele>562.03800000000001</ele>
        <time>2016-06-27T12:16:23Z</time>
      </trkpt>
      <trkpt lat="42.872137036174536" lon="-1.733642024919391">
        <ele>563.048</ele>
        <time>2016-06-27T12:16:26Z</time>
      </trkpt>
      <trkpt lat="42.872230997309089" lon="-1.73370698466897">
        <ele>565.08600000000001</ele>
        <time>2016-06-27T12:16:29Z</time>
      </trkpt>
      <trkpt lat="42.872366029769182" lon="-1.733776973560453">
        <ele>563.077</ele>
        <time>2016-06-27T12:16:33Z</time>
      </trkpt>
      <trkpt lat="42.872497960925102" lon="-1.733800023794174">
        <ele>563.06100000000004</ele>
        <time>2016-06-27T12:16:36Z</time>
      </trkpt>
      <trkpt lat="42.872614972293377" lon="-1.733823996037245">
        <ele>562.02700000000004</ele>
        <time>2016-06-27T12:16:39Z</time>
      </trkpt>
      <trkpt lat="42.872776994481683" lon="-1.733888033777475">
        <ele>562.00800000000004</ele>
        <time>2016-06-27T12:16:43Z</time>
      </trkpt>
      <trkpt lat="42.872868021950126" lon="-1.733902031555772">
        <ele>562.02800000000002</ele>
        <time>2016-06-27T12:16:47Z</time>
      </trkpt>
      <trkpt lat="42.872934993356466" lon="-1.73381200991571">
        <ele>566.09000000000003</ele>
        <time>2016-06-27T12:17:25Z</time>
      </trkpt>
      <trkpt lat="42.87303096614778" lon="-1.733829025179148">
        <ele>568.01499999999999</ele>
        <time>2016-06-27T12:17:35Z</time>
      </trkpt>
      <trkpt lat="42.873130962252617" lon="-1.733849979937077">
        <ele>567.05899999999997</ele>
        <time>2016-06-27T12:17:52Z</time>
      </trkpt>
      <trkpt lat="42.873224001377821" lon="-1.733884010463953">
        <ele>569.01700000000005</ele>
        <time>2016-06-27T12:17:58Z</time>
      </trkpt>
      <trkpt lat="42.873315028846264" lon="-1.733881998807192">
        <ele>570.05700000000002</ele>
        <time>2016-06-27T12:18:02Z</time>
      </trkpt>
      <trkpt lat="42.873450983315706" lon="-1.733916029334068">
        <ele>570.077</ele>
        <time>2016-06-27T12:18:05Z</time>
      </trkpt>
      <trkpt lat="42.873530024662614" lon="-1.734017031267285">
        <ele>571.09500000000003</ele>
        <time>2016-06-27T12:18:08Z</time>
      </trkpt>
      <trkpt lat="42.873633038252592" lon="-1.734059024602175">
        <ele>571.077</ele>
        <time>2016-06-27T12:18:12Z</time>
      </trkpt>
      <trkpt lat="42.873720964416862" lon="-1.734115015715361">
        <ele>571.06100000000004</ele>
        <time>2016-06-27T12:18:15Z</time>
      </trkpt>
      <trkpt lat="42.873806962743402" lon="-1.734168995171785">
        <ele>572.02700000000004</ele>
        <time>2016-06-27T12:18:18Z</time>
      </trkpt>
      <trkpt lat="42.873893966898322" lon="-1.734217023476958">
        <ele>571.00800000000004</ele>
        <time>2016-06-27T12:18:21Z</time>
      </trkpt>
      <trkpt lat="42.874028999358416" lon="-1.734263962134719">
        <ele>572.02800000000002</ele>
        <time>2016-06-27T12:18:25Z</time>
      </trkpt>
      <trkpt lat="42.874130001291633" lon="-1.734298998489976">
        <ele>572.00999999999999</ele>
        <time>2016-06-27T12:18:28Z</time>
      </trkpt>
      <trkpt lat="42.874215999618173" lon="-1.734353983774781">
        <ele>572.08500000000004</ele>
        <time>2016-06-27T12:18:31Z</time>
      </trkpt>
      <trkpt lat="42.874303003773093" lon="-1.734420033171773">
        <ele>571.05899999999997</ele>
        <time>2016-06-27T12:18:34Z</time>
      </trkpt>
      <trkpt lat="42.874418003484607" lon="-1.734466971829534">
        <ele>572.03700000000003</ele>
        <time>2016-06-27T12:18:37Z</time>
      </trkpt>
      <trkpt lat="42.874548006802797" lon="-1.7345239687711">
        <ele>572.06700000000001</ele>
        <time>2016-06-27T12:18:40Z</time>
      </trkpt>
      <trkpt lat="42.874642973765731" lon="-1.734569985419512">
        <ele>571.04700000000003</ele>
        <time>2016-06-27T12:18:42Z</time>
      </trkpt>
      <trkpt lat="42.87474799901247" lon="-1.734626982361078">
        <ele>570.07500000000005</ele>
        <time>2016-06-27T12:18:45Z</time>
      </trkpt>
      <trkpt lat="42.874860987067223" lon="-1.734675010666251">
        <ele>570.09500000000003</ele>
        <time>2016-06-27T12:18:48Z</time>
      </trkpt>
      <trkpt lat="42.874953020364046" lon="-1.734741982072592">
        <ele>571.04899999999998</ele>
        <time>2016-06-27T12:18:51Z</time>
      </trkpt>
      <trkpt lat="42.875049998983741" lon="-1.734793027862907">
        <ele>571.02300000000002</ele>
        <time>2016-06-27T12:18:54Z</time>
      </trkpt>
      <trkpt lat="42.875157035887241" lon="-1.734823035076261">
        <ele>570.00800000000004</ele>
        <time>2016-06-27T12:18:57Z</time>
      </trkpt>
      <trkpt lat="42.875269018113613" lon="-1.734855975955725">
        <ele>571.05999999999995</ele>
        <time>2016-06-27T12:19:00Z</time>
      </trkpt>
      <trkpt lat="42.875354010611773" lon="-1.734905010089278">
        <ele>573.072</ele>
        <time>2016-06-27T12:19:03Z</time>
      </trkpt>
      <trkpt lat="42.875443026423454" lon="-1.734927976503968">
        <ele>574.077</ele>
        <time>2016-06-27T12:19:06Z</time>
      </trkpt>
      <trkpt lat="42.87554201669991" lon="-1.734952032566071">
        <ele>575.03099999999995</ele>
        <time>2016-06-27T12:19:09Z</time>
      </trkpt>
      <trkpt lat="42.875657016411424" lon="-1.735015986487269">
        <ele>572.06899999999996</ele>
        <time>2016-06-27T12:19:13Z</time>
      </trkpt>
      <trkpt lat="42.875730022788048" lon="-1.735095027834177">
        <ele>571.029</ele>
        <time>2016-06-27T12:19:15Z</time>
      </trkpt>
      <trkpt lat="42.875808980315924" lon="-1.735158981755376">
        <ele>571.08900000000006</ele>
        <time>2016-06-27T12:19:17Z</time>
      </trkpt>
      <trkpt lat="42.875902019441128" lon="-1.735179014503956">
        <ele>571.03700000000003</ele>
        <time>2016-06-27T12:19:20Z</time>
      </trkpt>
      <trkpt lat="42.876039985567331" lon="-1.735170967876911">
        <ele>573.04399999999998</ele>
        <time>2016-06-27T12:19:26Z</time>
      </trkpt>
      <trkpt lat="42.876136964187026" lon="-1.735224025323987">
        <ele>574.005</ele>
        <time>2016-06-27T12:19:30Z</time>
      </trkpt>
      <trkpt lat="42.876213993877172" lon="-1.73529502004385">
        <ele>574.01499999999999</ele>
        <time>2016-06-27T12:19:33Z</time>
      </trkpt>
      <trkpt lat="42.876296974718571" lon="-1.735362997278571">
        <ele>575.00800000000004</ele>
        <time>2016-06-27T12:19:36Z</time>
      </trkpt>
      <trkpt lat="42.876393031328917" lon="-1.73542401753366">
        <ele>573.05499999999995</ele>
        <time>2016-06-27T12:19:40Z</time>
      </trkpt>
      <trkpt lat="42.876475006341934" lon="-1.73548998311162">
        <ele>571.06700000000001</ele>
        <time>2016-06-27T12:19:44Z</time>
      </trkpt>
      <trkpt lat="42.876602998003364" lon="-1.735512027516961">
        <ele>572.02200000000005</ele>
        <time>2016-06-27T12:19:49Z</time>
      </trkpt>
      <trkpt lat="42.8767029941082" lon="-1.735530970618129">
        <ele>567.096</ele>
        <time>2016-06-27T12:19:55Z</time>
      </trkpt>
      <trkpt lat="42.876776000484824" lon="-1.735434997826815">
        <ele>573.06399999999996</ele>
        <time>2016-06-27T12:20:04Z</time>
      </trkpt>
      <trkpt lat="42.876892006024718" lon="-1.735448995605111">
        <ele>574.05399999999997</ele>
        <time>2016-06-27T12:20:10Z</time>
      </trkpt>
      <trkpt lat="42.87702402099967" lon="-1.73548998311162">
        <ele>572.09400000000005</ele>
        <time>2016-06-27T12:20:14Z</time>
      </trkpt>
      <trkpt lat="42.877114964649081" lon="-1.735527031123638">
        <ele>572.01199999999994</ele>
        <time>2016-06-27T12:20:17Z</time>
      </trkpt>
      <trkpt lat="42.877201968804002" lon="-1.735562989488244">
        <ele>572.08699999999999</ele>
        <time>2016-06-27T12:20:20Z</time>
      </trkpt>
      <trkpt lat="42.877291990444064" lon="-1.735617974773049">
        <ele>575.04200000000003</ele>
        <time>2016-06-27T12:20:24Z</time>
      </trkpt>
      <trkpt lat="42.877400033175945" lon="-1.735629038885236">
        <ele>575.02599999999995</ele>
        <time>2016-06-27T12:20:27Z</time>
      </trkpt>
      <trkpt lat="42.877496005967259" lon="-1.735646976158023">
        <ele>575.00800000000004</ele>
        <time>2016-06-27T12:20:30Z</time>
      </trkpt>
      <trkpt lat="42.877592984586954" lon="-1.7356619797647">
        <ele>575.08900000000006</ele>
        <time>2016-06-27T12:20:33Z</time>
      </trkpt>
      <trkpt lat="42.877690969035029" lon="-1.735642030835152">
        <ele>576.01099999999997</ele>
        <time>2016-06-27T12:20:38Z</time>
      </trkpt>
      <trkpt lat="42.877789959311485" lon="-1.735642030835152">
        <ele>578.02599999999995</ele>
        <time>2016-06-27T12:20:42Z</time>
      </trkpt>
      <trkpt lat="42.877886015921831" lon="-1.735572963953018">
        <ele>577.03999999999996</ele>
        <time>2016-06-27T12:20:46Z</time>
      </trkpt>
      <trkpt lat="42.877952987328172" lon="-1.735488977283239">
        <ele>575.05799999999999</ele>
        <time>2016-06-27T12:20:50Z</time>
      </trkpt>
      <trkpt lat="42.878019958734512" lon="-1.735404990613461">
        <ele>579.08799999999997</ele>
        <time>2016-06-27T12:20:56Z</time>
      </trkpt>
      <trkpt lat="42.878106962889433" lon="-1.735373977571726">
        <ele>580.02800000000002</ele>
        <time>2016-06-27T12:21:01Z</time>
      </trkpt>
      <trkpt lat="42.878201007843018" lon="-1.735347993671894">
        <ele>582.02599999999995</ele>
        <time>2016-06-27T12:21:05Z</time>
      </trkpt>
      <trkpt lat="42.878307038918138" lon="-1.735343970358372">
        <ele>581.08600000000001</ele>
        <time>2016-06-27T12:21:10Z</time>
      </trkpt>
      <trkpt lat="42.878404017537832" lon="-1.73536098562181">
        <ele>583.05999999999995</ele>
        <time>2016-06-27T12:21:13Z</time>
      </trkpt>
      <trkpt lat="42.878512982279062" lon="-1.735361991450191">
        <ele>583.02599999999995</ele>
        <time>2016-06-27T12:21:18Z</time>
      </trkpt>
      <trkpt lat="42.878610966727138" lon="-1.735370960086584">
        <ele>586.00800000000004</ele>
        <time>2016-06-27T12:21:22Z</time>
      </trkpt>
      <trkpt lat="42.878724038600922" lon="-1.735372971743345">
        <ele>589.09900000000005</ele>
        <time>2016-06-27T12:21:27Z</time>
      </trkpt>
      <trkpt lat="42.878825962543488" lon="-1.735385041683912">
        <ele>591.06100000000004</ele>
        <time>2016-06-27T12:21:32Z</time>
      </trkpt>
      <trkpt lat="42.878921013325453" lon="-1.735374983400106">
        <ele>591.07600000000002</ele>
        <time>2016-06-27T12:21:36Z</time>
      </trkpt>
      <trkpt lat="42.879011034965515" lon="-1.735378000885248">
        <ele>592.07000000000005</ele>
        <time>2016-06-27T12:21:40Z</time>
      </trkpt>
      <trkpt lat="42.879137014970183" lon="-1.735356040298939">
        <ele>593.06799999999998</ele>
        <time>2016-06-27T12:21:46Z</time>
      </trkpt>
      <trkpt lat="42.879247991368175" lon="-1.73531798645854">
        <ele>593.05799999999999</ele>
        <time>2016-06-27T12:21:51Z</time>
      </trkpt>
      <trkpt lat="42.879341030493379" lon="-1.73529502004385">
        <ele>591.08799999999997</ele>
        <time>2016-06-27T12:21:56Z</time>
      </trkpt>
      <trkpt lat="42.879437003284693" lon="-1.73525202088058">
        <ele>592.03599999999994</ele>
        <time>2016-06-27T12:22:01Z</time>
      </trkpt>
      <trkpt lat="42.879550997167826" lon="-1.735217990353704">
        <ele>591.05799999999999</ele>
        <time>2016-06-27T12:22:06Z</time>
      </trkpt>
      <trkpt lat="42.879616040736437" lon="-1.735302982851863">
        <ele>587.05200000000002</ele>
        <time>2016-06-27T12:22:10Z</time>
      </trkpt>
      <trkpt lat="42.879599025472999" lon="-1.735436003655195">
        <ele>585.01700000000005</ele>
        <time>2016-06-27T12:22:16Z</time>
      </trkpt>
      <trkpt lat="42.879506992176175" lon="-1.735476991161704">
        <ele>583.00800000000004</ele>
        <time>2016-06-27T12:22:20Z</time>
      </trkpt>
      <trkpt lat="42.879401966929436" lon="-1.735512027516961">
        <ele>581.02599999999995</ele>
        <time>2016-06-27T12:22:25Z</time>
      </trkpt>
      <trkpt lat="42.87932401522994" lon="-1.735577993094921">
        <ele>581.07799999999997</ele>
        <time>2016-06-27T12:22:31Z</time>
      </trkpt>
      <trkpt lat="42.879417976364493" lon="-1.735561983659864">
        <ele>583.01300000000003</ele>
        <time>2016-06-27T12:22:36Z</time>
      </trkpt>
      <trkpt lat="42.879510009661317" lon="-1.735584028065205">
        <ele>584.04700000000003</ele>
        <time>2016-06-27T12:22:40Z</time>
      </trkpt>
      <trkpt lat="42.879610005766153" lon="-1.735574975609779">
        <ele>583.09500000000003</ele>
        <time>2016-06-27T12:22:44Z</time>
      </trkpt>
      <trkpt lat="42.879706984385848" lon="-1.735577993094921">
        <ele>585.08500000000004</ele>
        <time>2016-06-27T12:22:48Z</time>
      </trkpt>
      <trkpt lat="42.87981896661222" lon="-1.735587967559695">
        <ele>587.08500000000004</ele>
        <time>2016-06-27T12:22:53Z</time>
      </trkpt>
      <trkpt lat="42.879918040707707" lon="-1.735600037500262">
        <ele>587.08299999999997</ele>
        <time>2016-06-27T12:22:57Z</time>
      </trkpt>
      <trkpt lat="42.880018036812544" lon="-1.735600037500262">
        <ele>586.09799999999996</ele>
        <time>2016-06-27T12:23:01Z</time>
      </trkpt>
      <trkpt lat="42.880123984068632" lon="-1.735615041106939">
        <ele>587.01499999999999</ele>
        <time>2016-06-27T12:23:05Z</time>
      </trkpt>
      <trkpt lat="42.880223980173469" lon="-1.735625015571713">
        <ele>588.02599999999995</ele>
        <time>2016-06-27T12:23:09Z</time>
      </trkpt>
      <trkpt lat="42.880319030955434" lon="-1.735627027228475">
        <ele>588.00800000000004</ele>
        <time>2016-06-27T12:23:13Z</time>
      </trkpt>
      <trkpt lat="42.880415003746748" lon="-1.735619986429811">
        <ele>588.08000000000004</ele>
        <time>2016-06-27T12:23:17Z</time>
      </trkpt>
      <trkpt lat="42.880509970709682" lon="-1.735602971166372">
        <ele>589.06200000000001</ele>
        <time>2016-06-27T12:23:21Z</time>
      </trkpt>
      <trkpt lat="42.880614995956421" lon="-1.735592996701598">
        <ele>589.04700000000003</ele>
        <time>2016-06-27T12:23:25Z</time>
      </trkpt>
      <trkpt lat="42.880722032859921" lon="-1.735541028901935">
        <ele>589.03099999999995</ele>
        <time>2016-06-27T12:23:29Z</time>
      </trkpt>
      <trkpt lat="42.880823034793139" lon="-1.735486965626478">
        <ele>590.04899999999998</ele>
        <time>2016-06-27T12:23:33Z</time>
      </trkpt>
      <trkpt lat="42.880901992321014" lon="-1.735422005876899">
        <ele>590.01900000000001</ele>
        <time>2016-06-27T12:23:37Z</time>
      </trkpt>
      <trkpt lat="42.880991008132696" lon="-1.735370038077235">
        <ele>590.05899999999997</ele>
        <time>2016-06-27T12:23:41Z</time>
      </trkpt>
      <trkpt lat="42.881091004237533" lon="-1.735307006165385">
        <ele>589.06700000000001</ele>
        <time>2016-06-27T12:23:45Z</time>
      </trkpt>
      <trkpt lat="42.881191000342369" lon="-1.735246991738677">
        <ele>591.08100000000002</ele>
        <time>2016-06-27T12:23:49Z</time>
      </trkpt>
      <trkpt lat="42.881281021982431" lon="-1.735183959826827">
        <ele>590.06100000000004</ele>
        <time>2016-06-27T12:23:53Z</time>
      </trkpt>
      <trkpt lat="42.881369031965733" lon="-1.735125035047531">
        <ele>591.01700000000005</ele>
        <time>2016-06-27T12:23:57Z</time>
      </trkpt>
      <trkpt lat="42.881463998928666" lon="-1.735055968165398">
        <ele>591.00800000000004</ele>
        <time>2016-06-27T12:24:02Z</time>
      </trkpt>
      <trkpt lat="42.881553014740348" lon="-1.735002994537354">
        <ele>591.05899999999997</ele>
        <time>2016-06-27T12:24:06Z</time>
      </trkpt>
      <trkpt lat="42.881635995581746" lon="-1.734948009252548">
        <ele>591.07100000000003</ele>
        <time>2016-06-27T12:24:10Z</time>
      </trkpt>
      <trkpt lat="42.881733980029821" lon="-1.734896041452885">
        <ele>591.096</ele>
        <time>2016-06-27T12:24:15Z</time>
      </trkpt>
      <trkpt lat="42.881840011104941" lon="-1.734853964298964">
        <ele>589.03999999999996</ele>
        <time>2016-06-27T12:24:21Z</time>
      </trkpt>
      <trkpt lat="42.881947970017791" lon="-1.734827980399132">
        <ele>591.03800000000001</ele>
        <time>2016-06-27T12:24:25Z</time>
      </trkpt>
      <trkpt lat="42.882045032456517" lon="-1.734807025641203">
        <ele>592.07799999999997</ele>
        <time>2016-06-27T12:24:30Z</time>
      </trkpt>
      <trkpt lat="42.882151985540986" lon="-1.734792022034526">
        <ele>591.06799999999998</ele>
        <time>2016-06-27T12:24:35Z</time>
      </trkpt>
      <trkpt lat="42.8822479583323" lon="-1.734804008156061">
        <ele>591.07600000000002</ele>
        <time>2016-06-27T12:24:39Z</time>
      </trkpt>
      <trkpt lat="42.882344014942646" lon="-1.734800990670919">
        <ele>591.04700000000003</ele>
        <time>2016-06-27T12:24:43Z</time>
      </trkpt>
      <trkpt lat="42.882441999390721" lon="-1.7348019964993">
        <ele>593.029</ele>
        <time>2016-06-27T12:24:48Z</time>
      </trkpt>
      <trkpt lat="42.882535038515925" lon="-1.734781041741371">
        <ele>595.02099999999996</ele>
        <time>2016-06-27T12:24:53Z</time>
      </trkpt>
      <trkpt lat="42.882636040449142" lon="-1.734774000942707">
        <ele>596.00800000000004</ele>
        <time>2016-06-27T12:24:58Z</time>
      </trkpt>
      <trkpt lat="42.882736958563328" lon="-1.734766038134694">
        <ele>598.02499999999998</ele>
        <time>2016-06-27T12:25:03Z</time>
      </trkpt>
      <trkpt lat="42.882832009345293" lon="-1.734749022871256">
        <ele>598.05700000000002</ele>
        <time>2016-06-27T12:25:07Z</time>
      </trkpt>
      <trkpt lat="42.882934017106891" lon="-1.734747011214495">
        <ele>598.04200000000003</ele>
        <time>2016-06-27T12:25:11Z</time>
      </trkpt>
      <trkpt lat="42.88304197601974" lon="-1.734724966809154">
        <ele>597.03599999999994</ele>
        <time>2016-06-27T12:25:16Z</time>
      </trkpt>
      <trkpt lat="42.883138032630086" lon="-1.734714992344379">
        <ele>598.09400000000005</ele>
        <time>2016-06-27T12:25:20Z</time>
      </trkpt>
      <trkpt lat="42.883245991542935" lon="-1.734713986515999">
        <ele>599.05399999999997</ele>
        <time>2016-06-27T12:25:25Z</time>
      </trkpt>
      <trkpt lat="42.883341964334249" lon="-1.734713986515999">
        <ele>600.04399999999998</ele>
        <time>2016-06-27T12:25:29Z</time>
      </trkpt>
      <trkpt lat="42.883438020944595" lon="-1.734712980687618">
        <ele>601.06200000000001</ele>
        <time>2016-06-27T12:25:33Z</time>
      </trkpt>
      <trkpt lat="42.883533993735909" lon="-1.734717004001141">
        <ele>603.07399999999996</ele>
        <time>2016-06-27T12:25:37Z</time>
      </trkpt>
      <trkpt lat="42.883628038689494" lon="-1.734711974859238">
        <ele>604.05600000000004</ele>
        <time>2016-06-27T12:25:41Z</time>
      </trkpt>
      <trkpt lat="42.883714959025383" lon="-1.734685990959406">
        <ele>604.02099999999996</ele>
        <time>2016-06-27T12:25:45Z</time>
      </trkpt>
      <trkpt lat="42.883807998150587" lon="-1.734675010666251">
        <ele>606.00800000000004</ele>
        <time>2016-06-27T12:25:49Z</time>
      </trkpt>
      <trkpt lat="42.883914029225707" lon="-1.734646009281278">
        <ele>605.08799999999997</ele>
        <time>2016-06-27T12:25:54Z</time>
      </trkpt>
      <trkpt lat="42.884040009230375" lon="-1.734604015946388">
        <ele>607.01999999999998</ele>
        <time>2016-06-27T12:26:00Z</time>
      </trkpt>
      <trkpt lat="42.884133970364928" lon="-1.734578032046557">
        <ele>608.08500000000004</ele>
        <time>2016-06-27T12:26:04Z</time>
      </trkpt>
      <trkpt lat="42.884227009490132" lon="-1.734571997076273">
        <ele>607.05899999999997</ele>
        <time>2016-06-27T12:26:08Z</time>
      </trkpt>
      <trkpt lat="42.884327005594969" lon="-1.734554981812835">
        <ele>605.04700000000003</ele>
        <time>2016-06-27T12:26:13Z</time>
      </trkpt>
      <trkpt lat="42.884422978386283" lon="-1.734536960721016">
        <ele>606.04700000000003</ele>
        <time>2016-06-27T12:26:17Z</time>
      </trkpt>
      <trkpt lat="42.884521968662739" lon="-1.734526986256242">
        <ele>606.09699999999998</ele>
        <time>2016-06-27T12:26:21Z</time>
      </trkpt>
      <trkpt lat="42.884620036929846" lon="-1.734538972377777">
        <ele>607.08500000000004</ele>
        <time>2016-06-27T12:26:24Z</time>
      </trkpt>
      <trkpt lat="42.884734030812979" lon="-1.734531009569764">
        <ele>608.07899999999995</ele>
        <time>2016-06-27T12:26:28Z</time>
      </trkpt>
      <trkpt lat="42.884828997775912" lon="-1.734497984871268">
        <ele>608.005</ele>
        <time>2016-06-27T12:26:32Z</time>
      </trkpt>
      <trkpt lat="42.884940980002284" lon="-1.734477030113339">
        <ele>609.02499999999998</ele>
        <time>2016-06-27T12:26:36Z</time>
      </trkpt>
      <trkpt lat="42.885042987763882" lon="-1.73443696461618">
        <ele>611.00800000000004</ele>
        <time>2016-06-27T12:26:40Z</time>
      </trkpt>
      <trkpt lat="42.885124962776899" lon="-1.734373010694981">
        <ele>612.05799999999999</ele>
        <time>2016-06-27T12:26:44Z</time>
      </trkpt>
      <trkpt lat="42.885215990245342" lon="-1.734293969348073">
        <ele>613.07000000000005</ele>
        <time>2016-06-27T12:26:48Z</time>
      </trkpt>
      <trkpt lat="42.885299976915121" lon="-1.734209982678294">
        <ele>613.04499999999996</ele>
        <time>2016-06-27T12:26:52Z</time>
      </trkpt>
      <trkpt lat="42.885365020483732" lon="-1.734108980745077">
        <ele>614.07899999999995</ele>
        <time>2016-06-27T12:26:56Z</time>
      </trkpt>
      <trkpt lat="42.885458981618285" lon="-1.734018959105015">
        <ele>614.08699999999999</ele>
        <time>2016-06-27T12:27:00Z</time>
      </trkpt>
      <trkpt lat="42.885530982166529" lon="-1.733903037384152">
        <ele>613.08699999999999</ele>
        <time>2016-06-27T12:27:04Z</time>
      </trkpt>
      <trkpt lat="42.885611029341817" lon="-1.733817039057612">
        <ele>613.02700000000004</ele>
        <time>2016-06-27T12:27:08Z</time>
      </trkpt>
      <trkpt lat="42.885697027668357" lon="-1.733703967183828">
        <ele>611.02499999999998</ele>
        <time>2016-06-27T12:27:12Z</time>
      </trkpt>
      <trkpt lat="42.885771039873362" lon="-1.733596008270979">
        <ele>611.05600000000004</ele>
        <time>2016-06-27T12:27:16Z</time>
      </trkpt>
      <trkpt lat="42.885844968259335" lon="-1.733476985245943">
        <ele>612.05899999999997</ele>
        <time>2016-06-27T12:27:20Z</time>
      </trkpt>
      <trkpt lat="42.885891990736127" lon="-1.733365003019571">
        <ele>615.01400000000001</ele>
        <time>2016-06-27T12:27:24Z</time>
      </trkpt>
      <trkpt lat="42.885942030698061" lon="-1.733250003308058">
        <ele>617.00800000000004</ele>
        <time>2016-06-27T12:27:28Z</time>
      </trkpt>
      <trkpt lat="42.886001961305737" lon="-1.733129974454641">
        <ele>616.04600000000005</ele>
        <time>2016-06-27T12:27:32Z</time>
      </trkpt>
      <trkpt lat="42.886050995439291" lon="-1.733025033026934">
        <ele>617.01800000000003</ele>
        <time>2016-06-27T12:27:36Z</time>
      </trkpt>
      <trkpt lat="42.88609298877418" lon="-1.732905004173517">
        <ele>616.08299999999997</ele>
        <time>2016-06-27T12:27:41Z</time>
      </trkpt>
      <trkpt lat="42.886161971837282" lon="-1.732821017503738">
        <ele>617.03700000000003</ele>
        <time>2016-06-27T12:27:45Z</time>
      </trkpt>
      <trkpt lat="42.886260962113738" lon="-1.732762008905411">
        <ele>619.04499999999996</ele>
        <time>2016-06-27T12:27:49Z</time>
      </trkpt>
      <trkpt lat="42.886362969875336" lon="-1.732732001692057">
        <ele>620.07500000000005</ele>
        <time>2016-06-27T12:27:54Z</time>
      </trkpt>
      <trkpt lat="42.886462965980172" lon="-1.732698976993561">
        <ele>621.02499999999998</ele>
        <time>2016-06-27T12:27:57Z</time>
      </trkpt>
      <trkpt lat="42.886557010933757" lon="-1.732671987265348">
        <ele>622.01300000000003</ele>
        <time>2016-06-27T12:28:01Z</time>
      </trkpt>
      <trkpt lat="42.886667987331748" lon="-1.732650026679039">
        <ele>623.01400000000001</ele>
        <time>2016-06-27T12:28:06Z</time>
      </trkpt>
      <trkpt lat="42.88677804172039" lon="-1.732617001980543">
        <ele>625.05399999999997</ele>
        <time>2016-06-27T12:28:11Z</time>
      </trkpt>
      <trkpt lat="42.88686596788466" lon="-1.732595041394234">
        <ele>625.00900000000001</ele>
        <time>2016-06-27T12:28:15Z</time>
      </trkpt>
      <trkpt lat="42.886974010616541" lon="-1.732557993382216">
        <ele>626.00800000000004</ele>
        <time>2016-06-27T12:28:20Z</time>
      </trkpt>
      <trkpt lat="42.88707903586328" lon="-1.732509965077043">
        <ele>627.09199999999998</ele>
        <time>2016-06-27T12:28:25Z</time>
      </trkpt>
      <trkpt lat="42.887176014482975" lon="-1.732442993670702">
        <ele>627.04399999999998</ele>
        <time>2016-06-27T12:28:30Z</time>
      </trkpt>
      <trkpt lat="42.887268969789147" lon="-1.732364036142826">
        <ele>628.03899999999999</ele>
        <time>2016-06-27T12:28:35Z</time>
      </trkpt>
      <trkpt lat="42.887363014742732" lon="-1.73228700645268">
        <ele>629.06299999999999</ele>
        <time>2016-06-27T12:28:40Z</time>
      </trkpt>
      <trkpt lat="42.887457981705666" lon="-1.732209976762533">
        <ele>630.02099999999996</ele>
        <time>2016-06-27T12:28:45Z</time>
      </trkpt>
      <trkpt lat="42.887559989467263" lon="-1.732152979820967">
        <ele>631.02099999999996</ele>
        <time>2016-06-27T12:28:50Z</time>
      </trkpt>
      <trkpt lat="42.887667026370764" lon="-1.732125990092754">
        <ele>631.03099999999995</ele>
        <time>2016-06-27T12:28:55Z</time>
      </trkpt>
      <trkpt lat="42.887759981676936" lon="-1.732130013406277">
        <ele>630.08900000000006</ele>
        <time>2016-06-27T12:29:00Z</time>
      </trkpt>
      <trkpt lat="42.887851009145379" lon="-1.732149040326476">
        <ele>632.08699999999999</ele>
        <time>2016-06-27T12:29:03Z</time>
      </trkpt>
      <trkpt lat="42.887942036613822" lon="-1.732153985649347">
        <ele>634.04200000000003</ele>
        <time>2016-06-27T12:29:07Z</time>
      </trkpt>
      <trkpt lat="42.888052007183433" lon="-1.732145017012954">
        <ele>635.02599999999995</ele>
        <time>2016-06-27T12:29:12Z</time>
      </trkpt>
      <trkpt lat="42.888159966096282" lon="-1.732122972607613">
        <ele>636.00800000000004</ele>
        <time>2016-06-27T12:29:17Z</time>
      </trkpt>
      <trkpt lat="42.888265997171402" lon="-1.732102017849684">
        <ele>637.05899999999997</ele>
        <time>2016-06-27T12:29:22Z</time>
      </trkpt>
      <trkpt lat="42.888360964134336" lon="-1.732104029506445">
        <ele>637.07100000000003</ele>
        <time>2016-06-27T12:29:26Z</time>
      </trkpt>
      <trkpt lat="42.888449979946017" lon="-1.732131019234657">
        <ele>635.07600000000002</ele>
        <time>2016-06-27T12:29:30Z</time>
      </trkpt>
      <trkpt lat="42.888537989929318" lon="-1.73220201395452">
        <ele>635.04999999999995</ele>
        <time>2016-06-27T12:29:34Z</time>
      </trkpt>
      <trkpt lat="42.888618959113955" lon="-1.732312990352511">
        <ele>634.05799999999999</ele>
        <time>2016-06-27T12:29:38Z</time>
      </trkpt>
      <trkpt lat="42.88868903182447" lon="-1.732435030862689">
        <ele>635.05799999999999</ele>
        <time>2016-06-27T12:29:42Z</time>
      </trkpt>
      <trkpt lat="42.888764971867204" lon="-1.732552964240313">
        <ele>635.07799999999997</ele>
        <time>2016-06-27T12:29:46Z</time>
      </trkpt>
      <trkpt lat="42.888825992122293" lon="-1.732657989487052">
        <ele>635.07600000000002</ele>
        <time>2016-06-27T12:29:50Z</time>
      </trkpt>
      <trkpt lat="42.888892963528633" lon="-1.732762008905411">
        <ele>635.05899999999997</ele>
        <time>2016-06-27T12:29:54Z</time>
      </trkpt>
      <trkpt lat="42.888978961855173" lon="-1.732859993353486">
        <ele>634.00300000000004</ele>
        <time>2016-06-27T12:29:58Z</time>
      </trkpt>
      <trkpt lat="42.889060014858842" lon="-1.732948003336787">
        <ele>634.02300000000002</ele>
        <time>2016-06-27T12:30:02Z</time>
      </trkpt>
      <trkpt lat="42.889148024842143" lon="-1.733063003048301">
        <ele>635.00800000000004</ele>
        <time>2016-06-27T12:30:07Z</time>
      </trkpt>
      <trkpt lat="42.889223964884877" lon="-1.733162999153137">
        <ele>635.06600000000003</ele>
        <time>2016-06-27T12:30:11Z</time>
      </trkpt>
      <trkpt lat="42.889285990968347" lon="-1.73327699303627">
        <ele>636.08799999999997</ele>
        <time>2016-06-27T12:30:15Z</time>
      </trkpt>
      <trkpt lat="42.889366960152984" lon="-1.733385035768151">
        <ele>636.03300000000002</ele>
        <time>2016-06-27T12:30:19Z</time>
      </trkpt>
      <trkpt lat="42.889441978186369" lon="-1.733496012166143">
        <ele>635.08699999999999</ele>
        <time>2016-06-27T12:30:23Z</time>
      </trkpt>
      <trkpt lat="42.889516996219754" lon="-1.733599025756121">
        <ele>635.05499999999995</ele>
        <time>2016-06-27T12:30:27Z</time>
      </trkpt>
      <trkpt lat="42.889599977061152" lon="-1.733702039346099">
        <ele>635.05499999999995</ele>
        <time>2016-06-27T12:30:31Z</time>
      </trkpt>
      <trkpt lat="42.889674995094538" lon="-1.733771022409201">
        <ele>635.06500000000005</ele>
        <time>2016-06-27T12:30:34Z</time>
      </trkpt>
      <trkpt lat="42.889763005077839" lon="-1.733827013522387">
        <ele>636.09299999999996</ele>
        <time>2016-06-27T12:30:37Z</time>
      </trkpt>
      <trkpt lat="42.889874987304211" lon="-1.733889039605856">
        <ele>637.07600000000002</ele>
        <time>2016-06-27T12:30:41Z</time>
      </trkpt>
      <trkpt lat="42.889964003115892" lon="-1.73392198048532">
        <ele>637.09000000000003</ele>
        <time>2016-06-27T12:30:44Z</time>
      </trkpt>
      <trkpt lat="42.890052013099194" lon="-1.733960034325719">
        <ele>637.01900000000001</ele>
        <time>2016-06-27T12:30:47Z</time>
      </trkpt>
      <trkpt lat="42.890159972012043" lon="-1.734021976590157">
        <ele>638.00800000000004</ele>
        <time>2016-06-27T12:30:51Z</time>
      </trkpt>
      <trkpt lat="42.890272960066795" lon="-1.734079979360104">
        <ele>638.06799999999998</ele>
        <time>2016-06-27T12:30:55Z</time>
      </trkpt>
      <trkpt lat="42.890371028333902" lon="-1.734137982130051">
        <ele>638.03999999999996</ele>
        <time>2016-06-27T12:30:59Z</time>
      </trkpt>
      <trkpt lat="42.890413021668792" lon="-1.734247030690312">
        <ele>639.03499999999997</ele>
        <time>2016-06-27T12:31:04Z</time>
      </trkpt>
      <trkpt lat="42.890502037480474" lon="-1.734201014041901">
        <ele>639.04899999999998</ele>
        <time>2016-06-27T12:32:56Z</time>
      </trkpt>
      <trkpt lat="42.890605973079801" lon="-1.734255999326706">
        <ele>639.05700000000002</ele>
        <time>2016-06-27T12:33:00Z</time>
      </trkpt>
      <trkpt lat="42.890694988891482" lon="-1.734300004318357">
        <ele>640.01700000000005</ele>
        <time>2016-06-27T12:33:03Z</time>
      </trkpt>
      <trkpt lat="42.890788028016686" lon="-1.734357001259923">
        <ele>640.08699999999999</ele>
        <time>2016-06-27T12:33:07Z</time>
      </trkpt>
      <trkpt lat="42.890885006636381" lon="-1.734413998201489">
        <ele>641.01499999999999</ele>
        <time>2016-06-27T12:33:11Z</time>
      </trkpt>
      <trkpt lat="42.890986008569598" lon="-1.73448096960783">
        <ele>641.053</ele>
        <time>2016-06-27T12:33:15Z</time>
      </trkpt>
      <trkpt lat="42.891078963875771" lon="-1.734526986256242">
        <ele>640.00400000000002</ele>
        <time>2016-06-27T12:33:19Z</time>
      </trkpt>
      <trkpt lat="42.891174014657736" lon="-1.734570991247892">
        <ele>643.01400000000001</ele>
        <time>2016-06-27T12:33:23Z</time>
      </trkpt>
      <trkpt lat="42.891282979398966" lon="-1.734628994017839">
        <ele>643.00800000000004</ele>
        <time>2016-06-27T12:33:27Z</time>
      </trkpt>
      <trkpt lat="42.891397979110479" lon="-1.734676016494632">
        <ele>643.08600000000001</ele>
        <time>2016-06-27T12:33:31Z</time>
      </trkpt>
      <trkpt lat="42.891493029892445" lon="-1.73471599817276">
        <ele>644.01800000000003</ele>
        <time>2016-06-27T12:33:34Z</time>
      </trkpt>
      <trkpt lat="42.891599982976913" lon="-1.734795039519668">
        <ele>644.09299999999996</ele>
        <time>2016-06-27T12:33:38Z</time>
      </trkpt>
      <trkpt lat="42.891705008223653" lon="-1.734864022582769">
        <ele>643.05700000000002</ele>
        <time>2016-06-27T12:33:42Z</time>
      </trkpt>
      <trkpt lat="42.891798969358206" lon="-1.734952032566071">
        <ele>645.08500000000004</ele>
        <time>2016-06-27T12:33:46Z</time>
      </trkpt>
      <trkpt lat="42.891877004876733" lon="-1.735034007579088">
        <ele>646.06500000000005</ele>
        <time>2016-06-27T12:33:49Z</time>
      </trkpt>
      <trkpt lat="42.891963003203273" lon="-1.735096033662558">
        <ele>643.02499999999998</ele>
        <time>2016-06-27T12:33:53Z</time>
      </trkpt>
      <trkpt lat="42.892057970166206" lon="-1.735155964270234">
        <ele>642.01300000000003</ele>
        <time>2016-06-27T12:33:57Z</time>
      </trkpt>
      <trkpt lat="42.892166012898088" lon="-1.735217990353704">
        <ele>644.072</ele>
        <time>2016-06-27T12:34:01Z</time>
      </trkpt>
      <trkpt lat="42.892249999567866" lon="-1.735278004780412">
        <ele>647.01300000000003</ele>
        <time>2016-06-27T12:34:04Z</time>
      </trkpt>
      <trkpt lat="42.892326023429632" lon="-1.735341958701611">
        <ele>649.01400000000001</ele>
        <time>2016-06-27T12:34:07Z</time>
      </trkpt>
      <trkpt lat="42.892410010099411" lon="-1.735396021977067">
        <ele>650.00800000000004</ele>
        <time>2016-06-27T12:34:10Z</time>
      </trkpt>
      <trkpt lat="42.89249500259757" lon="-1.735479002818465">
        <ele>651.048</ele>
        <time>2016-06-27T12:34:14Z</time>
      </trkpt>
      <trkpt lat="42.892602039501071" lon="-1.735562989488244">
        <ele>651.02999999999997</ele>
        <time>2016-06-27T12:34:18Z</time>
      </trkpt>
      <trkpt lat="42.892697006464005" lon="-1.735642030835152">
        <ele>651.09500000000003</ele>
        <time>2016-06-27T12:34:22Z</time>
      </trkpt>
      <trkpt lat="42.89279599674046" lon="-1.735723000019789">
        <ele>653.09900000000005</ele>
        <time>2016-06-27T12:34:26Z</time>
      </trkpt>
      <trkpt lat="42.892899010330439" lon="-1.735793994739652">
        <ele>652.08699999999999</ele>
        <time>2016-06-27T12:34:30Z</time>
      </trkpt>
      <trkpt lat="42.892991965636611" lon="-1.735874963924289">
        <ele>651.04700000000003</ele>
        <time>2016-06-27T12:34:34Z</time>
      </trkpt>
      <trkpt lat="42.893097996711731" lon="-1.735951993614435">
        <ele>651.02700000000004</ele>
        <time>2016-06-27T12:34:38Z</time>
      </trkpt>
      <trkpt lat="42.893183995038271" lon="-1.736000021919608">
        <ele>649.01499999999999</ele>
        <time>2016-06-27T12:34:41Z</time>
      </trkpt>
      <trkpt lat="42.893290026113391" lon="-1.736065987497568">
        <ele>649.06799999999998</ele>
        <time>2016-06-27T12:34:45Z</time>
      </trkpt>
      <trkpt lat="42.893393039703369" lon="-1.736132958903909">
        <ele>650.04200000000003</ele>
        <time>2016-06-27T12:34:49Z</time>
      </trkpt>
      <trkpt lat="42.893487000837922" lon="-1.73619800247252">
        <ele>649.02599999999995</ele>
        <time>2016-06-27T12:34:53Z</time>
      </trkpt>
      <trkpt lat="42.893584985285997" lon="-1.73626103438437">
        <ele>650.00800000000004</ele>
        <time>2016-06-27T12:34:57Z</time>
      </trkpt>
      <trkpt lat="42.893685987219214" lon="-1.736329011619091">
        <ele>651.02700000000004</ele>
        <time>2016-06-27T12:35:01Z</time>
      </trkpt>
      <trkpt lat="42.893777014687657" lon="-1.736383996903896">
        <ele>652.03899999999999</ele>
        <time>2016-06-27T12:35:05Z</time>
      </trkpt>
      <trkpt lat="42.893876004964113" lon="-1.736436970531941">
        <ele>651.06399999999996</ele>
        <time>2016-06-27T12:35:09Z</time>
      </trkpt>
      <trkpt lat="42.893983041867614" lon="-1.736483993008733">
        <ele>651.02800000000002</ele>
        <time>2016-06-27T12:35:13Z</time>
      </trkpt>
      <trkpt lat="42.89408496581018" lon="-1.73650000244379">
        <ele>651.04600000000005</ele>
        <time>2016-06-27T12:35:17Z</time>
      </trkpt>
      <trkpt lat="42.894229972735047" lon="-1.736518023535609">
        <ele>652.04600000000005</ele>
        <time>2016-06-27T12:35:22Z</time>
      </trkpt>
      <trkpt lat="42.894371962174773" lon="-1.736511988565326">
        <ele>653.07600000000002</ele>
        <time>2016-06-27T12:35:27Z</time>
      </trkpt>
      <trkpt lat="42.894466007128358" lon="-1.736512994393706">
        <ele>653.04399999999998</ele>
        <time>2016-06-27T12:35:30Z</time>
      </trkpt>
      <trkpt lat="42.894574971869588" lon="-1.7365219630301">
        <ele>652.01499999999999</ele>
        <time>2016-06-27T12:35:34Z</time>
      </trkpt>
      <trkpt lat="42.894683014601469" lon="-1.736549958586693">
        <ele>653.06500000000005</ele>
        <time>2016-06-27T12:35:38Z</time>
      </trkpt>
      <trkpt lat="42.894762977957726" lon="-1.736622964963317">
        <ele>653.01099999999997</ele>
        <time>2016-06-27T12:35:42Z</time>
      </trkpt>
      <trkpt lat="42.894851993769407" lon="-1.736730001866818">
        <ele>655.00800000000004</ele>
        <time>2016-06-27T12:35:47Z</time>
      </trkpt>
      <trkpt lat="42.894941009581089" lon="-1.736834021285176">
        <ele>657.01199999999994</ele>
        <time>2016-06-27T12:35:52Z</time>
      </trkpt>
      <trkpt lat="42.895023990422487" lon="-1.736919013783336">
        <ele>657.09400000000005</ele>
        <time>2016-06-27T12:35:57Z</time>
      </trkpt>
      <trkpt lat="42.895124992355704" lon="-1.736978022381663">
        <ele>657.01900000000001</ele>
        <time>2016-06-27T12:36:02Z</time>
      </trkpt>
      <trkpt lat="42.89522297680378" lon="-1.736990008503199">
        <ele>661.02300000000002</ele>
        <time>2016-06-27T12:36:07Z</time>
      </trkpt>
      <trkpt lat="42.895315010100603" lon="-1.736973999068141">
        <ele>662.08100000000002</ele>
        <time>2016-06-27T12:36:11Z</time>
      </trkpt>
      <trkpt lat="42.895411988720298" lon="-1.73694902099669">
        <ele>664.01099999999997</ele>
        <time>2016-06-27T12:36:15Z</time>
      </trkpt>
      <trkpt lat="42.895504022017121" lon="-1.736912978813052">
        <ele>664.07100000000003</ele>
        <time>2016-06-27T12:36:19Z</time>
      </trkpt>
      <trkpt lat="42.895604018121958" lon="-1.736912978813052">
        <ele>661.08900000000006</ele>
        <time>2016-06-27T12:36:22Z</time>
      </trkpt>
      <trkpt lat="42.895694961771369" lon="-1.736912978813052">
        <ele>663.029</ele>
        <time>2016-06-27T12:36:25Z</time>
      </trkpt>
      <trkpt lat="42.895800992846489" lon="-1.7369070276618">
        <ele>662</ele>
        <time>2016-06-27T12:36:28Z</time>
      </trkpt>
      <trkpt lat="42.89591196924448" lon="-1.736913984641433">
        <ele>661.01999999999998</ele>
        <time>2016-06-27T12:36:31Z</time>
      </trkpt>
      <trkpt lat="42.896049013361335" lon="-1.736899986863136">
        <ele>661.00800000000004</ele>
        <time>2016-06-27T12:36:35Z</time>
      </trkpt>
      <trkpt lat="42.896184967830777" lon="-1.736900992691517">
        <ele>661.09299999999996</ele>
        <time>2016-06-27T12:36:39Z</time>
      </trkpt>
      <trkpt lat="42.896293010562658" lon="-1.736881965771318">
        <ele>662.05499999999995</ele>
        <time>2016-06-27T12:36:42Z</time>
      </trkpt>
      <trkpt lat="42.896402981132269" lon="-1.736880959942937">
        <ele>663.02999999999997</ele>
        <time>2016-06-27T12:36:45Z</time>
      </trkpt>
      <trkpt lat="42.896500965580344" lon="-1.736882971599698">
        <ele>662.06399999999996</ele>
        <time>2016-06-27T12:36:48Z</time>
      </trkpt>
      <trkpt lat="42.896594004705548" lon="-1.736888000741601">
        <ele>662.03200000000004</ele>
        <time>2016-06-27T12:36:51Z</time>
      </trkpt>
      <trkpt lat="42.896690983325243" lon="-1.736871991306543">
        <ele>661.072</ele>
        <time>2016-06-27T12:36:54Z</time>
      </trkpt>
      <trkpt lat="42.896793996915221" lon="-1.736851036548615">
        <ele>663.072</ele>
        <time>2016-06-27T12:36:57Z</time>
      </trkpt>
      <trkpt lat="42.896893993020058" lon="-1.736840978264809">
        <ele>664.02999999999997</ele>
        <time>2016-06-27T12:37:00Z</time>
      </trkpt>
      <trkpt lat="42.896988037973642" lon="-1.736810971051455">
        <ele>665.03800000000001</ele>
        <time>2016-06-27T12:37:03Z</time>
      </trkpt>
      <trkpt lat="42.897103037685156" lon="-1.73677702434361">
        <ele>663.07000000000005</ele>
        <time>2016-06-27T12:37:06Z</time>
      </trkpt>
      <trkpt lat="42.897189036011696" lon="-1.73673695884645">
        <ele>662.01700000000005</ele>
        <time>2016-06-27T12:37:09Z</time>
      </trkpt>
      <trkpt lat="42.897282997146249" lon="-1.736697982996702">
        <ele>663.00800000000004</ele>
        <time>2016-06-27T12:37:12Z</time>
      </trkpt>
      <trkpt lat="42.897367989644408" lon="-1.736654983833432">
        <ele>663.06399999999996</ele>
        <time>2016-06-27T12:37:15Z</time>
      </trkpt>
      <trkpt lat="42.897474020719528" lon="-1.736576026305556">
        <ele>663.05600000000004</ele>
        <time>2016-06-27T12:37:19Z</time>
      </trkpt>
      <trkpt lat="42.897567981854081" lon="-1.736506037414074">
        <ele>665.07100000000003</ele>
        <time>2016-06-27T12:37:23Z</time>
      </trkpt>
      <trkpt lat="42.897670995444059" lon="-1.736422972753644">
        <ele>663.08500000000004</ele>
        <time>2016-06-27T12:37:27Z</time>
      </trkpt>
      <trkpt lat="42.897749030962586" lon="-1.736359018832445">
        <ele>664.07299999999998</ele>
        <time>2016-06-27T12:37:30Z</time>
      </trkpt>
      <trkpt lat="42.897848021239042" lon="-1.736279977485538">
        <ele>663.03300000000002</ele>
        <time>2016-06-27T12:37:34Z</time>
      </trkpt>
      <trkpt lat="42.897946005687118" lon="-1.736203031614423">
        <ele>665.053</ele>
        <time>2016-06-27T12:37:38Z</time>
      </trkpt>
      <trkpt lat="42.898032004013658" lon="-1.736129019409418">
        <ele>668.02099999999996</ele>
        <time>2016-06-27T12:37:42Z</time>
      </trkpt>
      <trkpt lat="42.898121019825339" lon="-1.736059030517936">
        <ele>669.05200000000002</ele>
        <time>2016-06-27T12:37:46Z</time>
      </trkpt>
      <trkpt lat="42.89823099039495" lon="-1.736007984727621">
        <ele>668.053</ele>
        <time>2016-06-27T12:37:50Z</time>
      </trkpt>
      <trkpt lat="42.898349007591605" lon="-1.735979989171028">
        <ele>667.00800000000004</ele>
        <time>2016-06-27T12:37:54Z</time>
      </trkpt>
      <trkpt lat="42.898447997868061" lon="-1.735947970300913">
        <ele>668.00800000000004</ele>
        <time>2016-06-27T12:37:58Z</time>
      </trkpt>
      <trkpt lat="42.898556040599942" lon="-1.735888039693236">
        <ele>668.08600000000001</ele>
        <time>2016-06-27T12:38:03Z</time>
      </trkpt>
      <trkpt lat="42.898676991462708" lon="-1.735875969752669">
        <ele>669.02800000000002</ele>
        <time>2016-06-27T12:38:07Z</time>
      </trkpt>
      <trkpt lat="42.898774975910783" lon="-1.73587697558105">
        <ele>668.04300000000001</ele>
        <time>2016-06-27T12:38:10Z</time>
      </trkpt>
      <trkpt lat="42.898892993107438" lon="-1.735873036086559">
        <ele>668.077</ele>
        <time>2016-06-27T12:38:14Z</time>
      </trkpt>
      <trkpt lat="42.898984020575881" lon="-1.735872030258179">
        <ele>669.02499999999998</ele>
        <time>2016-06-27T12:38:17Z</time>
      </trkpt>
      <trkpt lat="42.899073958396912" lon="-1.73589700832963">
        <ele>667.02499999999998</ele>
        <time>2016-06-27T12:38:20Z</time>
      </trkpt>
      <trkpt lat="42.899164985865355" lon="-1.735913017764688">
        <ele>667.06500000000005</ele>
        <time>2016-06-27T12:38:23Z</time>
      </trkpt>
      <trkpt lat="42.899164985865355" lon="-1.735913017764688">
        <ele>667.09299999999996</ele>
        <time>2016-06-27T12:38:23Z</time>
      </trkpt>
      <trkpt lat="42.899261964485049" lon="-1.735936990007758">
        <ele>671.06399999999996</ele>
        <time>2016-06-27T12:38:27Z</time>
      </trkpt>
      <trkpt lat="42.899364978075027" lon="-1.735974038019776">
        <ele>673.00599999999997</ele>
        <time>2016-06-27T12:38:32Z</time>
      </trkpt>
      <trkpt lat="42.89945499971509" lon="-1.736017959192395">
        <ele>673.01599999999996</ele>
        <time>2016-06-27T12:38:35Z</time>
      </trkpt>
      <trkpt lat="42.899547033011913" lon="-1.736063975840807">
        <ele>672.00800000000004</ele>
        <time>2016-06-27T12:38:38Z</time>
      </trkpt>
      <trkpt lat="42.899649040773511" lon="-1.736149974167347">
        <ele>672.09699999999998</ele>
        <time>2016-06-27T12:38:42Z</time>
      </trkpt>
      <trkpt lat="42.89973302744329" lon="-1.736237984150648">
        <ele>671.029</ele>
        <time>2016-06-27T12:38:45Z</time>
      </trkpt>
      <trkpt lat="42.899823971092701" lon="-1.736335968598723">
        <ele>671.04399999999998</ele>
        <time>2016-06-27T12:38:49Z</time>
      </trkpt>
      <trkpt lat="42.899908041581511" lon="-1.736422972753644">
        <ele>669.09799999999996</ele>
        <time>2016-06-27T12:38:53Z</time>
      </trkpt>
      <trkpt lat="42.899994039908051" lon="-1.736514000222087">
        <ele>670.08600000000001</ele>
        <time>2016-06-27T12:38:57Z</time>
      </trkpt>
      <trkpt lat="42.900051958858967" lon="-1.73665096051991">
        <ele>674.01599999999996</ele>
        <time>2016-06-27T12:39:00Z</time>
      </trkpt>
      <trkpt lat="42.900117002427578" lon="-1.736746011301875">
        <ele>673.06600000000003</ele>
        <time>2016-06-27T12:39:04Z</time>
      </trkpt>
      <trkpt lat="42.900204006582499" lon="-1.736837960779667">
        <ele>672.024</ele>
        <time>2016-06-27T12:39:08Z</time>
      </trkpt>
      <trkpt lat="42.900285981595516" lon="-1.736932005733252">
        <ele>672.08600000000001</ele>
        <time>2016-06-27T12:39:12Z</time>
      </trkpt>
      <trkpt lat="42.90040098130703" lon="-1.736917002126575">
        <ele>670.05999999999995</ele>
        <time>2016-06-27T12:39:16Z</time>
      </trkpt>
      <trkpt lat="42.900477005168796" lon="-1.736794039607048">
        <ele>670.02599999999995</ele>
        <time>2016-06-27T12:39:19Z</time>
      </trkpt>
      <trkpt lat="42.900537019595504" lon="-1.73667199909687">
        <ele>671.00800000000004</ele>
        <time>2016-06-27T12:39:22Z</time>
      </trkpt>
      <trkpt lat="42.900606002658606" lon="-1.736578959971666">
        <ele>672.03899999999999</ele>
        <time>2016-06-27T12:39:25Z</time>
      </trkpt>
      <trkpt lat="42.900703987106681" lon="-1.736564040184021">
        <ele>673.04100000000005</ele>
        <time>2016-06-27T12:39:29Z</time>
      </trkpt>
      <trkpt lat="42.900785962119699" lon="-1.73662799410522">
        <ele>674.03599999999994</ele>
        <time>2016-06-27T12:39:33Z</time>
      </trkpt>
      <trkpt lat="42.900872966274619" lon="-1.736696977168322">
        <ele>676.00999999999999</ele>
        <time>2016-06-27T12:39:37Z</time>
      </trkpt>
      <trkpt lat="42.90095997042954" lon="-1.736782975494862">
        <ele>678.048</ele>
        <time>2016-06-27T12:39:42Z</time>
      </trkpt>
      <trkpt lat="42.901052003726363" lon="-1.736860005185008">
        <ele>679.02800000000002</ele>
        <time>2016-06-27T12:39:47Z</time>
      </trkpt>
      <trkpt lat="42.901139007881284" lon="-1.736922031268477">
        <ele>679.05799999999999</ele>
        <time>2016-06-27T12:39:52Z</time>
      </trkpt>
      <trkpt lat="42.901220982894301" lon="-1.737010041251779">
        <ele>683.01599999999996</ele>
        <time>2016-06-27T12:39:57Z</time>
      </trkpt>
      <trkpt lat="42.901329025626183" lon="-1.737053040415049">
        <ele>683.04200000000003</ele>
        <time>2016-06-27T12:40:03Z</time>
      </trkpt>
      <trkpt lat="42.901413012295961" lon="-1.737120011821389">
        <ele>684.02200000000005</ele>
        <time>2016-06-27T12:40:07Z</time>
      </trkpt>
      <trkpt lat="42.901499010622501" lon="-1.737202992662787">
        <ele>685.01400000000001</ele>
        <time>2016-06-27T12:40:12Z</time>
      </trkpt>
      <trkpt lat="42.9015819914639" lon="-1.737267030403018">
        <ele>685.00800000000004</ele>
        <time>2016-06-27T12:40:18Z</time>
      </trkpt>
      <trkpt lat="42.901656003668904" lon="-1.737341964617372">
        <ele>688.06500000000005</ele>
        <time>2016-06-27T12:40:23Z</time>
      </trkpt>
      <trkpt lat="42.901739990338683" lon="-1.737407008185983">
        <ele>688.05700000000002</ele>
        <time>2016-06-27T12:40:28Z</time>
      </trkpt>
      <trkpt lat="42.9018409922719" lon="-1.737441038712859">
        <ele>688.08199999999999</ele>
        <time>2016-06-27T12:40:34Z</time>
      </trkpt>
      <trkpt lat="42.901921961456537" lon="-1.737534999847412">
        <ele>689.06600000000003</ele>
        <time>2016-06-27T12:40:40Z</time>
      </trkpt>
      <trkpt lat="42.902009971439838" lon="-1.737587973475456">
        <ele>688.01400000000001</ele>
        <time>2016-06-27T12:40:46Z</time>
      </trkpt>
      <trkpt lat="42.902084989473224" lon="-1.737662991508842">
        <ele>690.06399999999996</ele>
        <time>2016-06-27T12:40:51Z</time>
      </trkpt>
      <trkpt lat="42.902175011113286" lon="-1.737738009542227">
        <ele>692.06399999999996</ele>
        <time>2016-06-27T12:40:57Z</time>
      </trkpt>
      <trkpt lat="42.902254974469543" lon="-1.737805986776948">
        <ele>694.09199999999998</ele>
        <time>2016-06-27T12:41:03Z</time>
      </trkpt>
      <trkpt lat="42.902347007766366" lon="-1.737840017303824">
        <ele>695.01800000000003</ele>
        <time>2016-06-27T12:41:09Z</time>
      </trkpt>
      <trkpt lat="42.902428982779384" lon="-1.737909000366926">
        <ele>695.09799999999996</ele>
        <time>2016-06-27T12:41:16Z</time>
      </trkpt>
      <trkpt lat="42.902524033561349" lon="-1.737969014793634">
        <ele>697.01700000000005</ele>
        <time>2016-06-27T12:41:23Z</time>
      </trkpt>
      <trkpt lat="42.902619000524282" lon="-1.738007990643382">
        <ele>697.00800000000004</ele>
        <time>2016-06-27T12:41:29Z</time>
      </trkpt>
      <trkpt lat="42.902711033821106" lon="-1.738058030605316">
        <ele>697.04200000000003</ele>
        <time>2016-06-27T12:41:36Z</time>
      </trkpt>
      <trkpt lat="42.902811029925942" lon="-1.738078985363245">
        <ele>697.01400000000001</ele>
        <time>2016-06-27T12:41:43Z</time>
      </trkpt>
      <trkpt lat="42.902874983847141" lon="-1.738165989518166">
        <ele>699.01900000000001</ele>
        <time>2016-06-27T12:41:51Z</time>
      </trkpt>
      <trkpt lat="42.902930974960327" lon="-1.738269003108144">
        <ele>700.04300000000001</ele>
        <time>2016-06-27T12:41:59Z</time>
      </trkpt>
      <trkpt lat="42.903014961630106" lon="-1.738350978121162">
        <ele>704.08100000000002</ele>
        <time>2016-06-27T12:42:10Z</time>
      </trkpt>
      <trkpt lat="42.903091991320252" lon="-1.73843395896256">
        <ele>703.08100000000002</ele>
        <time>2016-06-27T12:42:18Z</time>
      </trkpt>
      <trkpt lat="42.903146976605058" lon="-1.738537978380919">
        <ele>707.04100000000005</ele>
        <time>2016-06-27T12:42:26Z</time>
      </trkpt>
      <trkpt lat="42.903218977153301" lon="-1.738620959222317">
        <ele>708.09900000000005</ele>
        <time>2016-06-27T12:42:34Z</time>
      </trkpt>
      <trkpt lat="42.903282009065151" lon="-1.738710980862379">
        <ele>709.04600000000005</ele>
        <time>2016-06-27T12:42:41Z</time>
      </trkpt>
      <trkpt lat="42.903350992128253" lon="-1.738793039694428">
        <ele>712.08799999999997</ele>
        <time>2016-06-27T12:42:48Z</time>
      </trkpt>
      <trkpt lat="42.903432967141271" lon="-1.738863028585911">
        <ele>712.01599999999996</ele>
        <time>2016-06-27T12:42:57Z</time>
      </trkpt>
      <trkpt lat="42.903520977124572" lon="-1.738923965021968">
        <ele>717.00800000000004</ele>
        <time>2016-06-27T12:43:05Z</time>
      </trkpt>
      <trkpt lat="42.903613010421395" lon="-1.738937040790916">
        <ele>718.01499999999999</ele>
        <time>2016-06-27T12:43:13Z</time>
      </trkpt>
      <trkpt lat="42.903706971555948" lon="-1.738917008042336">
        <ele>717.01700000000005</ele>
        <time>2016-06-27T12:43:19Z</time>
      </trkpt>
      <trkpt lat="42.903805961832404" lon="-1.738873003050685">
        <ele>718.08199999999999</ele>
        <time>2016-06-27T12:43:27Z</time>
      </trkpt>
      <trkpt lat="42.903894977644086" lon="-1.738831009715796">
        <ele>720.03599999999994</ele>
        <time>2016-06-27T12:43:35Z</time>
      </trkpt>
      <trkpt lat="42.903984999284148" lon="-1.738810976967216">
        <ele>720.07399999999996</ele>
        <time>2016-06-27T12:43:41Z</time>
      </trkpt>
      <trkpt lat="42.904073009267449" lon="-1.738783987239003">
        <ele>722.024</ele>
        <time>2016-06-27T12:43:48Z</time>
      </trkpt>
      <trkpt lat="42.904155990108848" lon="-1.738718021661043">
        <ele>723.024</ele>
        <time>2016-06-27T12:43:56Z</time>
      </trkpt>
      <trkpt lat="42.90424601174891" lon="-1.738758003339171">
        <ele>723.06200000000001</ele>
        <time>2016-06-27T12:44:03Z</time>
      </trkpt>
      <trkpt lat="42.904338967055082" lon="-1.738817011937499">
        <ele>723.03899999999999</ele>
        <time>2016-06-27T12:44:09Z</time>
      </trkpt>
      <trkpt lat="42.904434017837048" lon="-1.738887000828981">
        <ele>723.00099999999998</ele>
        <time>2016-06-27T12:44:15Z</time>
      </trkpt>
      <trkpt lat="42.904506018385291" lon="-1.738979034125805">
        <ele>726.02099999999996</ele>
        <time>2016-06-27T12:44:20Z</time>
      </trkpt>
      <trkpt lat="42.904579024761915" lon="-1.739057991653681">
        <ele>726.00800000000004</ele>
        <time>2016-06-27T12:44:26Z</time>
      </trkpt>
      <trkpt lat="42.904651025310159" lon="-1.739134015515447">
        <ele>726.09400000000005</ele>
        <time>2016-06-27T12:44:31Z</time>
      </trkpt>
      <trkpt lat="42.904727971181273" lon="-1.739208027720451">
        <ele>728.07600000000002</ele>
        <time>2016-06-27T12:44:36Z</time>
      </trkpt>
      <trkpt lat="42.904812963679433" lon="-1.739282039925456">
        <ele>731.07100000000003</ele>
        <time>2016-06-27T12:44:41Z</time>
      </trkpt>
      <trkpt lat="42.90491396561265" lon="-1.73931104131043">
        <ele>735.05499999999995</ele>
        <time>2016-06-27T12:44:47Z</time>
      </trkpt>
      <trkpt lat="42.905009016394615" lon="-1.739296959713101">
        <ele>737.03300000000002</ele>
        <time>2016-06-27T12:44:52Z</time>
      </trkpt>
      <trkpt lat="42.905104989185929" lon="-1.739278016611934">
        <ele>736.02300000000002</ele>
        <time>2016-06-27T12:44:58Z</time>
      </trkpt>
      <trkpt lat="42.905197022482753" lon="-1.739322021603584">
        <ele>738.06299999999999</ele>
        <time>2016-06-27T12:45:05Z</time>
      </trkpt>
      <trkpt lat="42.905300036072731" lon="-1.739381030201912">
        <ele>737.06100000000004</ele>
        <time>2016-06-27T12:45:11Z</time>
      </trkpt>
      <trkpt lat="42.905390979722142" lon="-1.739475997164846">
        <ele>738.06100000000004</ele>
        <time>2016-06-27T12:45:18Z</time>
      </trkpt>
      <trkpt lat="42.905464991927147" lon="-1.739552021026611">
        <ele>738.02099999999996</ele>
        <time>2016-06-27T12:45:23Z</time>
      </trkpt>
      <trkpt lat="42.905573034659028" lon="-1.739622009918094">
        <ele>736.01300000000003</ele>
        <time>2016-06-27T12:45:27Z</time>
      </trkpt>
      <trkpt lat="42.905675964429975" lon="-1.739681018516421">
        <ele>736.00800000000004</ele>
        <time>2016-06-27T12:45:31Z</time>
      </trkpt>
      <trkpt lat="42.905803034082055" lon="-1.739725023508072">
        <ele>739.077</ele>
        <time>2016-06-27T12:45:34Z</time>
      </trkpt>
      <trkpt lat="42.905918033793569" lon="-1.739773973822594">
        <ele>737.07899999999995</ele>
        <time>2016-06-27T12:45:38Z</time>
      </trkpt>
      <trkpt lat="42.906038984656334" lon="-1.739794006571174">
        <ele>737.08399999999995</ele>
        <time>2016-06-27T12:45:40Z</time>
      </trkpt>
      <trkpt lat="42.906140992417932" lon="-1.739796018227935">
        <ele>736.048</ele>
        <time>2016-06-27T12:45:43Z</time>
      </trkpt>
      <trkpt lat="42.906243000179529" lon="-1.739779002964497">
        <ele>735.03599999999994</ele>
        <time>2016-06-27T12:45:48Z</time>
      </trkpt>
      <trkpt lat="42.906333021819592" lon="-1.739770034328103">
        <ele>733.096</ele>
        <time>2016-06-27T12:45:50Z</time>
      </trkpt>
      <trkpt lat="42.906451961025596" lon="-1.7397650051862">
        <ele>733.096</ele>
        <time>2016-06-27T12:45:53Z</time>
      </trkpt>
      <trkpt lat="42.906551035121083" lon="-1.739729968830943">
        <ele>733.06399999999996</ele>
        <time>2016-06-27T12:45:57Z</time>
      </trkpt>
      <trkpt lat="42.906664023175836" lon="-1.739760981872678">
        <ele>730.03200000000004</ele>
        <time>2016-06-27T12:46:00Z</time>
      </trkpt>
      <trkpt lat="42.906777011230588" lon="-1.73976399935782">
        <ele>728.09199999999998</ele>
        <time>2016-06-27T12:46:04Z</time>
      </trkpt>
      <trkpt lat="42.90686896070838" lon="-1.739712031558156">
        <ele>726.01099999999997</ele>
        <time>2016-06-27T12:46:07Z</time>
      </trkpt>
      <trkpt lat="42.906983960419893" lon="-1.739682024344802">
        <ele>727.00800000000004</ele>
        <time>2016-06-27T12:46:12Z</time>
      </trkpt>
      <trkpt lat="42.907118992879987" lon="-1.739652017131448">
        <ele>726.024</ele>
        <time>2016-06-27T12:46:17Z</time>
      </trkpt>
      <trkpt lat="42.907187975943089" lon="-1.739518996328116">
        <ele>725.05600000000004</ele>
        <time>2016-06-27T12:46:22Z</time>
      </trkpt>
      <trkpt lat="42.907274980098009" lon="-1.739437021315098">
        <ele>723.05100000000004</ele>
        <time>2016-06-27T12:46:27Z</time>
      </trkpt>
      <trkpt lat="42.907358966767788" lon="-1.739364014938474">
        <ele>725.03499999999997</ele>
        <time>2016-06-27T12:46:32Z</time>
      </trkpt>
      <trkpt lat="42.907454017549753" lon="-1.739297965541482">
        <ele>724.03300000000002</ele>
        <time>2016-06-27T12:46:37Z</time>
      </trkpt>
      <trkpt lat="42.90755401365459" lon="-1.739253960549831">
        <ele>725.053</ele>
        <time>2016-06-27T12:46:42Z</time>
      </trkpt>
      <trkpt lat="42.907650992274284" lon="-1.739214984700084">
        <ele>727.07299999999998</ele>
        <time>2016-06-27T12:46:47Z</time>
      </trkpt>
      <trkpt lat="42.907756017521024" lon="-1.739170979708433">
        <ele>726.08100000000002</ele>
        <time>2016-06-27T12:46:53Z</time>
      </trkpt>
      <trkpt lat="42.907842015847564" lon="-1.739113982766867">
        <ele>727.08799999999997</ele>
        <time>2016-06-27T12:46:58Z</time>
      </trkpt>
      <trkpt lat="42.907940000295639" lon="-1.739109037443996">
        <ele>727.024</ele>
        <time>2016-06-27T12:47:04Z</time>
      </trkpt>
      <trkpt lat="42.908035973086953" lon="-1.739100990816951">
        <ele>727.02599999999995</ele>
        <time>2016-06-27T12:47:09Z</time>
      </trkpt>
      <trkpt lat="42.908137980848551" lon="-1.739109037443996">
        <ele>727.00800000000004</ele>
        <time>2016-06-27T12:47:14Z</time>
      </trkpt>
      <trkpt lat="42.908234959468246" lon="-1.739113982766867">
        <ele>729.01900000000001</ele>
        <time>2016-06-27T12:47:19Z</time>
      </trkpt>
      <trkpt lat="42.908331016078591" lon="-1.739107025787234">
        <ele>731.08100000000002</ele>
        <time>2016-06-27T12:47:25Z</time>
      </trkpt>
      <trkpt lat="42.908422965556383" lon="-1.739140972495079">
        <ele>734.06600000000003</ele>
        <time>2016-06-27T12:47:32Z</time>
      </trkpt>
      <trkpt lat="42.908530002459884" lon="-1.739172991365194">
        <ele>739.07000000000005</ele>
        <time>2016-06-27T12:47:38Z</time>
      </trkpt>
      <trkpt lat="42.908627986907959" lon="-1.739197969436646">
        <ele>738.048</ele>
        <time>2016-06-27T12:47:43Z</time>
      </trkpt>
      <trkpt lat="42.908731000497937" lon="-1.739215990528464">
        <ele>738.05799999999999</ele>
        <time>2016-06-27T12:47:48Z</time>
      </trkpt>
      <trkpt lat="42.90882202796638" lon="-1.739178020507097">
        <ele>735.01800000000003</ele>
        <time>2016-06-27T12:47:54Z</time>
      </trkpt>
      <trkpt lat="42.908922024071217" lon="-1.739207021892071">
        <ele>736.04600000000005</ele>
        <time>2016-06-27T12:48:00Z</time>
      </trkpt>
      <trkpt lat="42.909019002690911" lon="-1.739245997741818">
        <ele>735.08100000000002</ele>
        <time>2016-06-27T12:48:06Z</time>
      </trkpt>
      <trkpt lat="42.909126039594412" lon="-1.739288996905088">
        <ele>737.06100000000004</ele>
        <time>2016-06-27T12:48:13Z</time>
      </trkpt>
      <trkpt lat="42.909204997122288" lon="-1.739352028816938">
        <ele>739.01700000000005</ele>
        <time>2016-06-27T12:48:21Z</time>
      </trkpt>
      <trkpt lat="42.909294012933969" lon="-1.739368960261345">
        <ele>738.00800000000004</ele>
        <time>2016-06-27T12:48:27Z</time>
      </trkpt>
      <trkpt lat="42.909386968240142" lon="-1.739348005503416">
        <ele>739.07899999999995</ele>
        <time>2016-06-27T12:48:34Z</time>
      </trkpt>
      <trkpt lat="42.909475984051824" lon="-1.739325961098075">
        <ele>741.01099999999997</ele>
        <time>2016-06-27T12:48:42Z</time>
      </trkpt>
      <trkpt lat="42.909577991813421" lon="-1.73929100856185">
        <ele>743.01599999999996</ele>
        <time>2016-06-27T12:48:51Z</time>
      </trkpt>
      <trkpt lat="42.9096619784832" lon="-1.739239040762186">
        <ele>744.00999999999999</ele>
        <time>2016-06-27T12:49:01Z</time>
      </trkpt>
      <trkpt lat="42.90974797680974" lon="-1.739179026335478">
        <ele>746.06799999999998</ele>
        <time>2016-06-27T12:49:24Z</time>
      </trkpt>
      <trkpt lat="42.909761974588037" lon="-1.739054974168539">
        <ele>748.03800000000001</ele>
        <time>2016-06-27T12:49:39Z</time>
      </trkpt>
      <trkpt lat="42.909824000671506" lon="-1.738956989720464">
        <ele>750.07799999999997</ele>
        <time>2016-06-27T12:49:55Z</time>
      </trkpt>
      <trkpt lat="42.909908993169665" lon="-1.738919019699097">
        <ele>751.096</ele>
        <time>2016-06-27T12:50:09Z</time>
      </trkpt>
      <trkpt lat="42.909984011203051" lon="-1.73899102024734">
        <ele>752.072</ele>
        <time>2016-06-27T12:50:27Z</time>
      </trkpt>
      <trkpt lat="42.910074032843113" lon="-1.738992026075721">
        <ele>756.01300000000003</ele>
        <time>2016-06-27T12:50:43Z</time>
      </trkpt>
      <trkpt lat="42.910165982320905" lon="-1.739014992490411">
        <ele>757.01400000000001</ele>
        <time>2016-06-27T12:50:55Z</time>
      </trkpt>
      <trkpt lat="42.91026396676898" lon="-1.738997977226973">
        <ele>760.00800000000004</ele>
        <time>2016-06-27T12:51:05Z</time>
      </trkpt>
      <trkpt lat="42.910356000065804" lon="-1.738963024690747">
        <ele>759.06799999999998</ele>
        <time>2016-06-27T12:51:20Z</time>
      </trkpt>
      <trkpt lat="42.910448033362627" lon="-1.738920025527477">
        <ele>762.03999999999996</ele>
        <time>2016-06-27T12:51:33Z</time>
      </trkpt>
      <trkpt lat="42.910539982840419" lon="-1.73890401609242">
        <ele>763.03499999999997</ele>
        <time>2016-06-27T12:51:45Z</time>
      </trkpt>
      <trkpt lat="42.910638973116875" lon="-1.73886202275753">
        <ele>765.04899999999998</ele>
        <time>2016-06-27T12:51:59Z</time>
      </trkpt>
      <trkpt lat="42.910726983100176" lon="-1.73881801776588">
        <ele>766.08699999999999</ele>
        <time>2016-06-27T12:52:12Z</time>
      </trkpt>
      <trkpt lat="42.910831002518535" lon="-1.738792033866048">
        <ele>767.02700000000004</ele>
        <time>2016-06-27T12:52:24Z</time>
      </trkpt>
      <trkpt lat="42.910927981138229" lon="-1.738736964762211">
        <ele>768.02700000000004</ele>
        <time>2016-06-27T12:52:37Z</time>
      </trkpt>
      <trkpt lat="42.911013979464769" lon="-1.738701006397605">
        <ele>769.04499999999996</ele>
        <time>2016-06-27T12:52:46Z</time>
      </trkpt>
      <trkpt lat="42.911108024418354" lon="-1.738678961992264">
        <ele>771.04100000000005</ele>
        <time>2016-06-27T12:52:56Z</time>
      </trkpt>
      <trkpt lat="42.911197040230036" lon="-1.738708969205618">
        <ele>773.08100000000002</ele>
        <time>2016-06-27T12:53:09Z</time>
      </trkpt>
      <trkpt lat="42.911220006644726" lon="-1.738586006686091">
        <ele>776.00900000000001</ele>
        <time>2016-06-27T12:53:43Z</time>
      </trkpt>
      <trkpt lat="42.911185976117849" lon="-1.738471006974578">
        <ele>777.00800000000004</ele>
        <time>2016-06-27T12:53:48Z</time>
      </trkpt>
      <trkpt lat="42.911153035238385" lon="-1.738344021141529">
        <ele>778.01499999999999</ele>
        <time>2016-06-27T12:53:53Z</time>
      </trkpt>
      <trkpt lat="42.911129985004663" lon="-1.738220974802971">
        <ele>777.09699999999998</ele>
        <time>2016-06-27T12:53:59Z</time>
      </trkpt>
      <trkpt lat="42.911140965297818" lon="-1.7380899656564">
        <ele>779.06200000000001</ele>
        <time>2016-06-27T12:54:04Z</time>
      </trkpt>
      <trkpt lat="42.911166027188301" lon="-1.737964991480112">
        <ele>779.04600000000005</ele>
        <time>2016-06-27T12:54:10Z</time>
      </trkpt>
      <trkpt lat="42.911197962239385" lon="-1.737849991768599">
        <ele>778.05399999999997</ele>
        <time>2016-06-27T12:54:16Z</time>
      </trkpt>
      <trkpt lat="42.9112299811095" lon="-1.737725017592311">
        <ele>779.07399999999996</ele>
        <time>2016-06-27T12:54:23Z</time>
      </trkpt>
      <trkpt lat="42.911252025514841" lon="-1.737601971253753">
        <ele>781.07399999999996</ele>
        <time>2016-06-27T12:54:29Z</time>
      </trkpt>
      <trkpt lat="42.91129301302135" lon="-1.737475991249085">
        <ele>780.04200000000003</ele>
        <time>2016-06-27T12:54:36Z</time>
      </trkpt>
      <trkpt lat="42.911341041326523" lon="-1.737345987930894">
        <ele>782.06500000000005</ele>
        <time>2016-06-27T12:54:43Z</time>
      </trkpt>
      <trkpt lat="42.911384040489793" lon="-1.737215984612703">
        <ele>784.06799999999998</ele>
        <time>2016-06-27T12:54:52Z</time>
      </trkpt>
      <trkpt lat="42.911431984975934" lon="-1.737110959365964">
        <ele>784.01400000000001</ele>
        <time>2016-06-27T12:54:57Z</time>
      </trkpt>
      <trkpt lat="42.911485964432359" lon="-1.736995037645102">
        <ele>784.00800000000004</ele>
        <time>2016-06-27T12:55:03Z</time>
      </trkpt>
      <trkpt lat="42.911529969424009" lon="-1.73686302267015">
        <ele>785.09699999999998</ele>
        <time>2016-06-27T12:55:09Z</time>
      </trkpt>
      <trkpt lat="42.911587972193956" lon="-1.736741987988353">
        <ele>786.04899999999998</ele>
        <time>2016-06-27T12:55:15Z</time>
      </trkpt>
      <trkpt lat="42.91163700632751" lon="-1.736635034903884">
        <ele>786.08399999999995</ele>
        <time>2016-06-27T12:55:20Z</time>
      </trkpt>
      <trkpt lat="42.911691991612315" lon="-1.736515006050468">
        <ele>786.07799999999997</ele>
        <time>2016-06-27T12:55:26Z</time>
      </trkpt>
      <trkpt lat="42.911742031574249" lon="-1.736381985247135">
        <ele>787.05600000000004</ele>
        <time>2016-06-27T12:55:32Z</time>
      </trkpt>
      <trkpt lat="42.911774972453713" lon="-1.736253993585706">
        <ele>788.01599999999996</ele>
        <time>2016-06-27T12:55:37Z</time>
      </trkpt>
      <trkpt lat="42.91180900298059" lon="-1.736119966953993">
        <ele>789.02599999999995</ele>
        <time>2016-06-27T12:55:43Z</time>
      </trkpt>
      <trkpt lat="42.911861976608634" lon="-1.735987029969692">
        <ele>789.08399999999995</ele>
        <time>2016-06-27T12:55:49Z</time>
      </trkpt>
      <trkpt lat="42.911902964115143" lon="-1.735845962539315">
        <ele>789.06100000000004</ele>
        <time>2016-06-27T12:55:54Z</time>
      </trkpt>
      <trkpt lat="42.911948980763555" lon="-1.735729034990072">
        <ele>789.02099999999996</ele>
        <time>2016-06-27T12:55:58Z</time>
      </trkpt>
      <trkpt lat="42.912006983533502" lon="-1.735623003914952">
        <ele>789.01300000000003</ele>
        <time>2016-06-27T12:56:02Z</time>
      </trkpt>
      <trkpt lat="42.912058029323816" lon="-1.735509010031819">
        <ele>788.00800000000004</ele>
        <time>2016-06-27T12:56:06Z</time>
      </trkpt>
      <trkpt lat="42.912103962153196" lon="-1.735371965914965">
        <ele>789.02700000000004</ele>
        <time>2016-06-27T12:56:11Z</time>
      </trkpt>
      <trkpt lat="42.912161964923143" lon="-1.735258977860212">
        <ele>790.07899999999995</ele>
        <time>2016-06-27T12:56:15Z</time>
      </trkpt>
      <trkpt lat="42.912243017926812" lon="-1.735148001462221">
        <ele>789.09400000000005</ele>
        <time>2016-06-27T12:56:20Z</time>
      </trkpt>
      <trkpt lat="42.912323987111449" lon="-1.735065020620823">
        <ele>789.07799999999997</ele>
        <time>2016-06-27T12:56:24Z</time>
      </trkpt>
      <trkpt lat="42.912394981831312" lon="-1.734986985102296">
        <ele>789.03599999999994</ele>
        <time>2016-06-27T12:56:28Z</time>
      </trkpt>
      <trkpt lat="42.912494977936149" lon="-1.734927976503968">
        <ele>788.08600000000001</ele>
        <time>2016-06-27T12:56:32Z</time>
      </trkpt>
      <trkpt lat="42.912567984312773" lon="-1.734850024804473">
        <ele>787.06600000000003</ele>
        <time>2016-06-27T12:56:35Z</time>
      </trkpt>
      <trkpt lat="42.912662029266357" lon="-1.73475899733603">
        <ele>788.09400000000005</ele>
        <time>2016-06-27T12:56:39Z</time>
      </trkpt>
      <trkpt lat="42.912768982350826" lon="-1.734688002616167">
        <ele>789.08699999999999</ele>
        <time>2016-06-27T12:56:44Z</time>
      </trkpt>
      <trkpt lat="42.912870990112424" lon="-1.734639974310994">
        <ele>791.04200000000003</ele>
        <time>2016-06-27T12:56:49Z</time>
      </trkpt>
      <trkpt lat="42.912960005924106" lon="-1.734608039259911">
        <ele>792.02599999999995</ele>
        <time>2016-06-27T12:56:54Z</time>
      </trkpt>
      <trkpt lat="42.913051033392549" lon="-1.734576020389795">
        <ele>793.00800000000004</ele>
        <time>2016-06-27T12:56:59Z</time>
      </trkpt>
      <trkpt lat="42.913140971213579" lon="-1.734582977369428">
        <ele>794.08900000000006</ele>
        <time>2016-06-27T12:57:04Z</time>
      </trkpt>
      <trkpt lat="42.913245996460319" lon="-1.734569985419512">
        <ele>794.02099999999996</ele>
        <time>2016-06-27T12:57:10Z</time>
      </trkpt>
      <trkpt lat="42.913335012272" lon="-1.734551964327693">
        <ele>794.06600000000003</ele>
        <time>2016-06-27T12:57:15Z</time>
      </trkpt>
      <trkpt lat="42.913429979234934" lon="-1.734559005126357">
        <ele>796.02999999999997</ele>
        <time>2016-06-27T12:57:20Z</time>
      </trkpt>
      <trkpt lat="42.913429979234934" lon="-1.734559005126357">
        <ele>796.07799999999997</ele>
        <time>2016-06-27T12:57:20Z</time>
      </trkpt>
      <trkpt lat="42.913521006703377" lon="-1.734548024833202">
        <ele>796.08799999999997</ele>
        <time>2016-06-27T12:57:25Z</time>
      </trkpt>
      <trkpt lat="42.913623014464974" lon="-1.734551964327693">
        <ele>797.03800000000001</ele>
        <time>2016-06-27T12:57:30Z</time>
      </trkpt>
      <trkpt lat="42.913717981427908" lon="-1.734550958499312">
        <ele>796.06600000000003</ele>
        <time>2016-06-27T12:57:35Z</time>
      </trkpt>
      <trkpt lat="42.913810014724731" lon="-1.734527992084622">
        <ele>797.08600000000001</ele>
        <time>2016-06-27T12:57:40Z</time>
      </trkpt>
      <trkpt lat="42.913912022486329" lon="-1.734502008184791">
        <ele>799.05999999999995</ele>
        <time>2016-06-27T12:57:46Z</time>
      </trkpt>
      <trkpt lat="42.91400296613574" lon="-1.734475018456578">
        <ele>800.02599999999995</ele>
        <time>2016-06-27T12:57:51Z</time>
      </trkpt>
      <trkpt lat="42.9140879586339" lon="-1.73443503677845">
        <ele>800.00800000000004</ele>
        <time>2016-06-27T12:57:56Z</time>
      </trkpt>
      <trkpt lat="42.914188038557768" lon="-1.734368987381458">
        <ele>800.04899999999998</ele>
        <time>2016-06-27T12:58:02Z</time>
      </trkpt>
      <trkpt lat="42.914278982207179" lon="-1.734331017360091">
        <ele>802.09100000000001</ele>
        <time>2016-06-27T12:58:07Z</time>
      </trkpt>
      <trkpt lat="42.914375038817525" lon="-1.734268991276622">
        <ele>803.01599999999996</ele>
        <time>2016-06-27T12:58:12Z</time>
      </trkpt>
      <trkpt lat="42.91445198468864" lon="-1.734171006828547">
        <ele>802.03999999999996</ele>
        <time>2016-06-27T12:58:17Z</time>
      </trkpt>
      <trkpt lat="42.914527002722025" lon="-1.734075034037232">
        <ele>800.048</ele>
        <time>2016-06-27T12:58:22Z</time>
      </trkpt>
      <trkpt lat="42.914595985785127" lon="-1.733990041539073">
        <ele>800.09799999999996</ele>
        <time>2016-06-27T12:58:26Z</time>
      </trkpt>
      <trkpt lat="42.91468801908195" lon="-1.733928015455604">
        <ele>800.03800000000001</ele>
        <time>2016-06-27T12:58:31Z</time>
      </trkpt>
      <trkpt lat="42.914778962731361" lon="-1.73389800824225">
        <ele>800.07600000000002</ele>
        <time>2016-06-27T12:58:36Z</time>
      </trkpt>
      <trkpt lat="42.91488298214972" lon="-1.733903037384152">
        <ele>799.09500000000003</ele>
        <time>2016-06-27T12:58:42Z</time>
      </trkpt>
      <trkpt lat="42.914973003789783" lon="-1.733933966606855">
        <ele>800.04899999999998</ele>
        <time>2016-06-27T12:58:47Z</time>
      </trkpt>
      <trkpt lat="42.915070988237858" lon="-1.733991969376802">
        <ele>802.02300000000002</ele>
        <time>2016-06-27T12:58:53Z</time>
      </trkpt>
      <trkpt lat="42.915156986564398" lon="-1.73404997214675">
        <ele>803.00800000000004</ele>
        <time>2016-06-27T12:58:58Z</time>
      </trkpt>
      <trkpt lat="42.915238039568067" lon="-1.734119961038232">
        <ele>803.04999999999995</ele>
        <time>2016-06-27T12:59:05Z</time>
      </trkpt>
      <trkpt lat="42.915328983217478" lon="-1.734150974079967">
        <ele>804.09199999999998</ele>
        <time>2016-06-27T12:59:12Z</time>
      </trkpt>
      <trkpt lat="42.915416993200779" lon="-1.734191039577127">
        <ele>807.02700000000004</ele>
        <time>2016-06-27T12:59:19Z</time>
      </trkpt>
      <trkpt lat="42.915509026497602" lon="-1.734220962971449">
        <ele>807.02099999999996</ele>
        <time>2016-06-27T12:59:27Z</time>
      </trkpt>
      <trkpt lat="42.915601981803775" lon="-1.734252981841564">
        <ele>809.09900000000005</ele>
        <time>2016-06-27T12:59:35Z</time>
      </trkpt>
      <trkpt lat="42.915698038414121" lon="-1.734293969348073">
        <ele>811.09900000000005</ele>
        <time>2016-06-27T12:59:43Z</time>
      </trkpt>
      <trkpt lat="42.915793005377054" lon="-1.734344009310007">
        <ele>814.07899999999995</ele>
        <time>2016-06-27T12:59:52Z</time>
      </trkpt>
      <trkpt lat="42.915899958461523" lon="-1.734378039836884">
        <ele>815.05700000000002</ele>
        <time>2016-06-27T13:00:02Z</time>
      </trkpt>
      <trkpt lat="42.915989980101585" lon="-1.734407041221857">
        <ele>819.04700000000003</ele>
        <time>2016-06-27T13:00:10Z</time>
      </trkpt>
      <trkpt lat="42.916083019226789" lon="-1.734423972666264">
        <ele>822.029</ele>
        <time>2016-06-27T13:00:17Z</time>
      </trkpt>
      <trkpt lat="42.916182009503245" lon="-1.734418021515012">
        <ele>822.02099999999996</ele>
        <time>2016-06-27T13:00:24Z</time>
      </trkpt>
      <trkpt lat="42.916279993951321" lon="-1.734438976272941">
        <ele>819.00800000000004</ele>
        <time>2016-06-27T13:00:32Z</time>
      </trkpt>
      <trkpt lat="42.916374038904905" lon="-1.734461020678282">
        <ele>822.02499999999998</ele>
        <time>2016-06-27T13:00:41Z</time>
      </trkpt>
      <trkpt lat="42.916458025574684" lon="-1.734507037326694">
        <ele>822.04700000000003</ele>
        <time>2016-06-27T13:00:48Z</time>
      </trkpt>
      <trkpt lat="42.916541006416082" lon="-1.734576020389795">
        <ele>823.072</ele>
        <time>2016-06-27T13:00:56Z</time>
      </trkpt>
      <trkpt lat="42.916606971994042" lon="-1.734667969867587">
        <ele>823.08600000000001</ele>
        <time>2016-06-27T13:01:03Z</time>
      </trkpt>
      <trkpt lat="42.916681990027428" lon="-1.734767965972424">
        <ele>826.09400000000005</ele>
        <time>2016-06-27T13:01:11Z</time>
      </trkpt>
      <trkpt lat="42.916763965040445" lon="-1.734858993440867">
        <ele>827.06399999999996</ele>
        <time>2016-06-27T13:01:20Z</time>
      </trkpt>
      <trkpt lat="42.916851975023746" lon="-1.734954966232181">
        <ele>830.09400000000005</ele>
        <time>2016-06-27T13:01:27Z</time>
      </trkpt>
      <trkpt lat="42.916912995278835" lon="-1.735068038105965">
        <ele>830.03200000000004</ele>
        <time>2016-06-27T13:01:34Z</time>
      </trkpt>
      <trkpt lat="42.917001005262136" lon="-1.735138026997447">
        <ele>832.048</ele>
        <time>2016-06-27T13:01:42Z</time>
      </trkpt>
      <trkpt lat="42.917088009417057" lon="-1.735198963433504">
        <ele>832.06100000000004</ele>
        <time>2016-06-27T13:01:49Z</time>
      </trkpt>
      <trkpt lat="42.917175013571978" lon="-1.735247997567058">
        <ele>831.01700000000005</ele>
        <time>2016-06-27T13:01:56Z</time>
      </trkpt>
      <trkpt lat="42.917266963049769" lon="-1.735296025872231">
        <ele>833.00800000000004</ele>
        <time>2016-06-27T13:02:03Z</time>
      </trkpt>
      <trkpt lat="42.917368970811367" lon="-1.735335001721978">
        <ele>836.06500000000005</ele>
        <time>2016-06-27T13:02:10Z</time>
      </trkpt>
      <trkpt lat="42.917471984401345" lon="-1.735347993671894">
        <ele>836.05700000000002</ele>
        <time>2016-06-27T13:02:17Z</time>
      </trkpt>
      <trkpt lat="42.91756602935493" lon="-1.735389987006784">
        <ele>834.05200000000002</ele>
        <time>2016-06-27T13:02:23Z</time>
      </trkpt>
      <trkpt lat="42.917658984661102" lon="-1.735421000048518">
        <ele>834.05600000000004</ele>
        <time>2016-06-27T13:02:30Z</time>
      </trkpt>
      <trkpt lat="42.917751017957926" lon="-1.735466010868549">
        <ele>833.05399999999997</ele>
        <time>2016-06-27T13:02:37Z</time>
      </trkpt>
      <trkpt lat="42.917841961607337" lon="-1.735527031123638">
        <ele>835.04399999999998</ele>
        <time>2016-06-27T13:02:45Z</time>
      </trkpt>
      <trkpt lat="42.917927959933877" lon="-1.735570030286908">
        <ele>838.024</ele>
        <time>2016-06-27T13:02:52Z</time>
      </trkpt>
      <trkpt lat="42.91804002597928" lon="-1.735620992258191">
        <ele>844.06200000000001</ele>
        <time>2016-06-27T13:03:01Z</time>
      </trkpt>
      <trkpt lat="42.918130969628692" lon="-1.735630966722965">
        <ele>846.029</ele>
        <time>2016-06-27T13:03:08Z</time>
      </trkpt>
      <trkpt lat="42.918218979611993" lon="-1.735659968107939">
        <ele>847</ele>
        <time>2016-06-27T13:03:15Z</time>
      </trkpt>
      <trkpt lat="42.918309001252055" lon="-1.735701961442828">
        <ele>849.01999999999998</ele>
        <time>2016-06-27T13:03:23Z</time>
      </trkpt>
      <trkpt lat="42.918407991528511" lon="-1.735730962827802">
        <ele>849.00800000000004</ele>
        <time>2016-06-27T13:03:31Z</time>
      </trkpt>
      <trkpt lat="42.918499018996954" lon="-1.735741021111608">
        <ele>849.07299999999998</ele>
        <time>2016-06-27T13:03:38Z</time>
      </trkpt>
      <trkpt lat="42.918592980131507" lon="-1.735706990584731">
        <ele>845.02499999999998</ele>
        <time>2016-06-27T13:03:43Z</time>
      </trkpt>
      <trkpt lat="42.918712003156543" lon="-1.735711013898253">
        <ele>845.00999999999999</ele>
        <time>2016-06-27T13:03:46Z</time>
      </trkpt>
      <trkpt lat="42.918811999261379" lon="-1.735736997798085">
        <ele>845.05399999999997</ele>
        <time>2016-06-27T13:03:50Z</time>
      </trkpt>
      <trkpt lat="42.918907972052693" lon="-1.735759964212775">
        <ele>848.09199999999998</ele>
        <time>2016-06-27T13:03:57Z</time>
      </trkpt>
      <trkpt lat="42.918993970379233" lon="-1.735805980861187">
        <ele>848.04200000000003</ele>
        <time>2016-06-27T13:04:05Z</time>
      </trkpt>
      <trkpt lat="42.919065970927477" lon="-1.735890973359346">
        <ele>850.02200000000005</ele>
        <time>2016-06-27T13:04:12Z</time>
      </trkpt>
      <trkpt lat="42.919129002839327" lon="-1.735992981120944">
        <ele>850.02999999999997</ele>
        <time>2016-06-27T13:04:17Z</time>
      </trkpt>
      <trkpt lat="42.919216006994247" lon="-1.736117033287883">
        <ele>849.07600000000002</ele>
        <time>2016-06-27T13:04:21Z</time>
      </trkpt>
      <trkpt lat="42.919274009764194" lon="-1.736276037991047">
        <ele>848.09000000000003</ele>
        <time>2016-06-27T13:04:24Z</time>
      </trkpt>
      <trkpt lat="42.919325977563858" lon="-1.736406041309238">
        <ele>848.01900000000001</ele>
        <time>2016-06-27T13:04:27Z</time>
      </trkpt>
      <trkpt lat="42.919399989768863" lon="-1.73649899661541">
        <ele>848.00800000000004</ele>
        <time>2016-06-27T13:04:33Z</time>
      </trkpt>
      <trkpt lat="42.9194809589535" lon="-1.736560016870499">
        <ele>848.09799999999996</ele>
        <time>2016-06-27T13:04:38Z</time>
      </trkpt>
      <trkpt lat="42.919561006128788" lon="-1.736620031297207">
        <ele>847.01999999999998</ele>
        <time>2016-06-27T13:04:43Z</time>
      </trkpt>
      <trkpt lat="42.919649016112089" lon="-1.736704017966986">
        <ele>846.02499999999998</ele>
        <time>2016-06-27T13:04:49Z</time>
      </trkpt>
      <trkpt lat="42.919741971418262" lon="-1.736773001030088">
        <ele>848.07899999999995</ele>
        <time>2016-06-27T13:04:54Z</time>
      </trkpt>
      <trkpt lat="42.919819001108408" lon="-1.736851036548615">
        <ele>849.08699999999999</ele>
        <time>2016-06-27T13:04:59Z</time>
      </trkpt>
      <trkpt lat="42.919881027191877" lon="-1.736973999068141">
        <ele>851.077</ele>
        <time>2016-06-27T13:05:05Z</time>
      </trkpt>
      <trkpt lat="42.919944981113076" lon="-1.737067960202694">
        <ele>850.05700000000002</ele>
        <time>2016-06-27T13:05:11Z</time>
      </trkpt>
      <trkpt lat="42.920018993318081" lon="-1.737141972407699">
        <ele>852.03499999999997</ele>
        <time>2016-06-27T13:05:16Z</time>
      </trkpt>
      <trkpt lat="42.920087976381183" lon="-1.737243980169296">
        <ele>853.029</ele>
        <time>2016-06-27T13:05:22Z</time>
      </trkpt>
      <trkpt lat="42.920175986364484" lon="-1.737301982939243">
        <ele>855</ele>
        <time>2016-06-27T13:05:28Z</time>
      </trkpt>
      <trkpt lat="42.920237006619573" lon="-1.737416982650757">
        <ele>855.01999999999998</ele>
        <time>2016-06-27T13:05:34Z</time>
      </trkpt>
      <trkpt lat="42.920333985239267" lon="-1.737469034269452">
        <ele>855.00800000000004</ele>
        <time>2016-06-27T13:05:39Z</time>
      </trkpt>
      <trkpt lat="42.920440016314387" lon="-1.737538017332554">
        <ele>858.07299999999998</ele>
        <time>2016-06-27T13:05:44Z</time>
      </trkpt>
      <trkpt lat="42.920520985499024" lon="-1.737600965425372">
        <ele>857.08500000000004</ele>
        <time>2016-06-27T13:05:49Z</time>
      </trkpt>
      <trkpt lat="42.920607989653945" lon="-1.737646982073784">
        <ele>857.00999999999999</ele>
        <time>2016-06-27T13:05:53Z</time>
      </trkpt>
      <trkpt lat="42.92070304043591" lon="-1.737683024257422">
        <ele>857.08399999999995</ele>
        <time>2016-06-27T13:05:59Z</time>
      </trkpt>
      <trkpt lat="42.920780992135406" lon="-1.737772962078452">
        <ele>855.05200000000002</ele>
        <time>2016-06-27T13:06:04Z</time>
      </trkpt>
      <trkpt lat="42.920865984633565" lon="-1.737862983718514">
        <ele>856.06200000000001</ele>
        <time>2016-06-27T13:06:09Z</time>
      </trkpt>
      <trkpt lat="42.92096002958715" lon="-1.737921992316842">
        <ele>855.04200000000003</ele>
        <time>2016-06-27T13:06:13Z</time>
      </trkpt>
      <trkpt lat="42.922005001455545" lon="-1.738243019208312">
        <ele>791.51400000000001</ele>
        <time>2016-06-12T09:54:02Z</time>
      </trkpt>
      <trkpt lat="42.922111032530665" lon="-1.738502020016313">
        <ele>794.50800000000004</ele>
        <time>2016-06-12T09:54:56Z</time>
      </trkpt>
      <trkpt lat="42.922242963686585" lon="-1.738700000569224">
        <ele>795.346</ele>
        <time>2016-06-12T09:55:04Z</time>
      </trkpt>
      <trkpt lat="42.922289986163378" lon="-1.73901398666203">
        <ele>798.71799999999996</ele>
        <time>2016-06-12T09:55:12Z</time>
      </trkpt>
      <trkpt lat="42.92240297421813" lon="-1.739220013841987">
        <ele>796.95100000000002</ele>
        <time>2016-06-12T09:55:16Z</time>
      </trkpt>
      <trkpt lat="42.922510011121631" lon="-1.739424029365182">
        <ele>793.75</ele>
        <time>2016-06-12T09:55:20Z</time>
      </trkpt>
      <trkpt lat="42.922540018334985" lon="-1.739676995202899">
        <ele>787.72299999999996</ele>
        <time>2016-06-12T09:55:25Z</time>
      </trkpt>
      <trkpt lat="42.922644959762692" lon="-1.739925015717745">
        <ele>780.74199999999996</ele>
        <time>2016-06-12T09:55:32Z</time>
      </trkpt>
      <trkpt lat="42.922769011929631" lon="-1.740137999877334">
        <ele>777.69100000000003</ele>
        <time>2016-06-12T09:55:37Z</time>
      </trkpt>
      <trkpt lat="42.922900021076202" lon="-1.740321982651949">
        <ele>774.83799999999997</ele>
        <time>2016-06-12T09:55:41Z</time>
      </trkpt>
      <trkpt lat="42.923041004687548" lon="-1.740504037588835">
        <ele>767.947</ele>
        <time>2016-06-12T09:55:46Z</time>
      </trkpt>
      <trkpt lat="42.923191040754318" lon="-1.740701012313366">
        <ele>770.529</ele>
        <time>2016-06-12T09:55:54Z</time>
      </trkpt>
      <trkpt lat="42.923213001340628" lon="-1.740978034213185">
        <ele>775.52099999999996</ele>
        <time>2016-06-12T09:56:03Z</time>
      </trkpt>
      <trkpt lat="42.923345016315579" lon="-1.741174003109336">
        <ele>776.50800000000004</ele>
        <time>2016-06-12T09:56:10Z</time>
      </trkpt>
      <trkpt lat="42.923476025462151" lon="-1.741343988105655">
        <ele>770.63499999999999</ele>
        <time>2016-06-12T09:56:16Z</time>
      </trkpt>
      <trkpt lat="42.92360401712358" lon="-1.741568958386779">
        <ele>766.38699999999994</ele>
        <time>2016-06-12T09:56:24Z</time>
      </trkpt>
      <trkpt lat="42.923780959099531" lon="-1.741515984758735">
        <ele>764.54999999999995</ele>
        <time>2016-06-12T09:56:35Z</time>
      </trkpt>
      <trkpt lat="42.923962008208036" lon="-1.741642970591784">
        <ele>762.51900000000001</ele>
        <time>2016-06-12T09:56:43Z</time>
      </trkpt>
      <trkpt lat="42.924166023731232" lon="-1.741834999993444">
        <ele>759.94200000000001</ele>
        <time>2016-06-12T09:56:48Z</time>
      </trkpt>
      <trkpt lat="42.924255961552262" lon="-1.742052007466555">
        <ele>759.32100000000003</ele>
        <time>2016-06-12T09:57:01Z</time>
      </trkpt>
      <trkpt lat="42.924344977363944" lon="-1.742274966090918">
        <ele>758.54999999999995</ele>
        <time>2016-06-12T09:57:13Z</time>
      </trkpt>
      <trkpt lat="42.924509011209011" lon="-1.742398012429476">
        <ele>750.75699999999995</ele>
        <time>2016-06-12T09:57:23Z</time>
      </trkpt>
      <trkpt lat="42.92468000203371" lon="-1.742317965254188">
        <ele>749.74699999999996</ele>
        <time>2016-06-12T09:57:36Z</time>
      </trkpt>
      <trkpt lat="42.924860967323184" lon="-1.742177987471223">
        <ele>751.029</ele>
        <time>2016-06-12T09:58:08Z</time>
      </trkpt>
      <trkpt lat="42.925013015046716" lon="-1.742040021345019">
        <ele>745.721</ele>
        <time>2016-06-12T09:58:13Z</time>
      </trkpt>
      <trkpt lat="42.925189035013318" lon="-1.741985036060214">
        <ele>744.70799999999997</ele>
        <time>2016-06-12T09:58:20Z</time>
      </trkpt>
      <trkpt lat="42.925378968939185" lon="-1.741942036896944">
        <ele>743.67499999999995</ele>
        <time>2016-06-12T09:58:25Z</time>
      </trkpt>
      <trkpt lat="42.925557000562549" lon="-1.741798035800457">
        <ele>737.64700000000005</ele>
        <time>2016-06-12T09:58:33Z</time>
      </trkpt>
      <trkpt lat="42.925705024972558" lon="-1.741657974198461">
        <ele>732.97000000000003</ele>
        <time>2016-06-12T09:58:39Z</time>
      </trkpt>
      <trkpt lat="42.925869980826974" lon="-1.741530988365412">
        <ele>731.98900000000003</ele>
        <time>2016-06-12T09:58:45Z</time>
      </trkpt>
      <trkpt lat="42.926067961379886" lon="-1.741515984758735">
        <ele>728.42200000000003</ele>
        <time>2016-06-12T09:58:56Z</time>
      </trkpt>
      <trkpt lat="42.926240963861346" lon="-1.741624027490616">
        <ele>726.58100000000002</ele>
        <time>2016-06-12T09:59:10Z</time>
      </trkpt>
      <trkpt lat="42.926384964957833" lon="-1.741809016093612">
        <ele>724.38</ele>
        <time>2016-06-12T09:59:18Z</time>
      </trkpt>
      <trkpt lat="42.926449002698064" lon="-1.742044966667891">
        <ele>721.55700000000002</ele>
        <time>2016-06-12T09:59:25Z</time>
      </trkpt>
      <trkpt lat="42.926516979932785" lon="-1.742286030203104">
        <ele>716.774</ele>
        <time>2016-06-12T10:00:00Z</time>
      </trkpt>
      <trkpt lat="42.926712026819587" lon="-1.742313019931316">
        <ele>715.75599999999997</ele>
        <time>2016-06-12T10:00:06Z</time>
      </trkpt>
      <trkpt lat="42.926896009594202" lon="-1.742329029366374">
        <ele>715.32100000000003</ele>
        <time>2016-06-12T10:00:11Z</time>
      </trkpt>
      <trkpt lat="42.927080998197198" lon="-1.742300027981401">
        <ele>713.50800000000004</ele>
        <time>2016-06-12T10:00:18Z</time>
      </trkpt>
      <trkpt lat="42.927285013720393" lon="-1.74223599024117">
        <ele>711.19799999999998</ele>
        <time>2016-06-12T10:00:27Z</time>
      </trkpt>
      <trkpt lat="42.927508978173137" lon="-1.742268009111285">
        <ele>709.77999999999997</ele>
        <time>2016-06-12T10:00:32Z</time>
      </trkpt>
      <trkpt lat="42.927721962332726" lon="-1.742308996617794">
        <ele>708.79300000000001</ele>
        <time>2016-06-12T10:00:36Z</time>
      </trkpt>
      <trkpt lat="42.927930001169443" lon="-1.742313019931316">
        <ele>706.79200000000003</ele>
        <time>2016-06-12T10:00:41Z</time>
      </trkpt>
      <trkpt lat="42.928154971450567" lon="-1.742230039089918">
        <ele>704.98500000000001</ele>
        <time>2016-06-12T10:00:46Z</time>
      </trkpt>
      <trkpt lat="42.928377008065581" lon="-1.742273038253188">
        <ele>700.87400000000002</ele>
        <time>2016-06-12T10:00:50Z</time>
      </trkpt>
      <trkpt lat="42.928536012768745" lon="-1.742391977459192">
        <ele>699.15300000000002</ele>
        <time>2016-06-12T10:00:59Z</time>
      </trkpt>
      <trkpt lat="42.928748996928334" lon="-1.742465989664197">
        <ele>693.41999999999996</ele>
        <time>2016-06-12T10:01:05Z</time>
      </trkpt>
      <trkpt lat="42.928929040208459" lon="-1.742561962455511">
        <ele>690.92200000000003</ele>
        <time>2016-06-12T10:01:12Z</time>
      </trkpt>
      <trkpt lat="42.929111011326313" lon="-1.742673022672534">
        <ele>688.56200000000001</ele>
        <time>2016-06-12T10:01:19Z</time>
      </trkpt>
      <trkpt lat="42.92927797883749" lon="-1.742776036262512">
        <ele>684.90800000000002</ele>
        <time>2016-06-12T10:01:24Z</time>
      </trkpt>
      <trkpt lat="42.929489035159349" lon="-1.742863040417433">
        <ele>678.80799999999999</ele>
        <time>2016-06-12T10:01:30Z</time>
      </trkpt>
      <trkpt lat="42.929668994620442" lon="-1.742895981296897">
        <ele>675.78300000000002</ele>
        <time>2016-06-12T10:01:35Z</time>
      </trkpt>
      <trkpt lat="42.929818024858832" lon="-1.743068983778358">
        <ele>672.53499999999997</ele>
        <time>2016-06-12T10:01:42Z</time>
      </trkpt>
      <trkpt lat="42.930009970441461" lon="-1.743101002648473">
        <ele>667.73800000000006</ele>
        <time>2016-06-12T10:01:55Z</time>
      </trkpt>
      <trkpt lat="42.930194037035108" lon="-1.743020033463836">
        <ele>664.39700000000005</ele>
        <time>2016-06-12T10:02:00Z</time>
      </trkpt>
      <trkpt lat="42.930386988446116" lon="-1.742906961590052">
        <ele>661.52999999999997</ele>
        <time>2016-06-12T10:02:07Z</time>
      </trkpt>
      <trkpt lat="42.930576000362635" lon="-1.742855999618769">
        <ele>659.78899999999999</ele>
        <time>2016-06-12T10:02:11Z</time>
      </trkpt>
      <trkpt lat="42.930775992572308" lon="-1.742848036810756">
        <ele>657.33799999999997</ele>
        <time>2016-06-12T10:02:16Z</time>
      </trkpt>
      <trkpt lat="42.930956035852432" lon="-1.74281501211226">
        <ele>655.68499999999995</ele>
        <time>2016-06-12T10:02:19Z</time>
      </trkpt>
      <trkpt lat="42.931162985041738" lon="-1.742757009342313">
        <ele>655.72199999999998</ele>
        <time>2016-06-12T10:02:25Z</time>
      </trkpt>
      <trkpt lat="42.931363983079791" lon="-1.742840996012092">
        <ele>652.66200000000003</ele>
        <time>2016-06-12T10:02:29Z</time>
      </trkpt>
      <trkpt lat="42.931586019694805" lon="-1.742863040417433">
        <ele>655.90800000000002</ele>
        <time>2016-06-12T10:02:35Z</time>
      </trkpt>
      <trkpt lat="42.931777965277433" lon="-1.7429010104388">
        <ele>653.70799999999997</ele>
        <time>2016-06-12T10:02:41Z</time>
      </trkpt>
      <trkpt lat="42.931963037699461" lon="-1.742895981296897">
        <ele>651.46299999999997</ele>
        <time>2016-06-12T10:02:50Z</time>
      </trkpt>
      <trkpt lat="42.932127993553877" lon="-1.743000000715256">
        <ele>645.56500000000005</ele>
        <time>2016-06-12T10:03:23Z</time>
      </trkpt>
      <trkpt lat="42.932245004922152" lon="-1.743194041773677">
        <ele>643.58799999999997</ele>
        <time>2016-06-12T10:03:30Z</time>
      </trkpt>
      <trkpt lat="42.932390011847019" lon="-1.743412977084518">
        <ele>644.52700000000004</ele>
        <time>2016-06-12T10:03:34Z</time>
      </trkpt>
      <trkpt lat="42.932364027947187" lon="-1.743684969842434">
        <ele>646.55999999999995</ele>
        <time>2016-06-12T10:03:42Z</time>
      </trkpt>
      <trkpt lat="42.932451032102108" lon="-1.743927961215377">
        <ele>646.75900000000001</ele>
        <time>2016-06-12T10:03:48Z</time>
      </trkpt>
      <trkpt lat="42.932598972693086" lon="-1.744071040302515">
        <ele>646.87800000000004</ele>
        <time>2016-06-12T10:03:54Z</time>
      </trkpt>
      <trkpt lat="42.93275898322463" lon="-1.744201965630055">
        <ele>646.95500000000004</ele>
        <time>2016-06-12T10:04:00Z</time>
      </trkpt>
      <trkpt lat="42.932941038161516" lon="-1.744324006140232">
        <ele>645.54499999999996</ele>
        <time>2016-06-12T10:04:06Z</time>
      </trkpt>
      <trkpt lat="42.933110017329454" lon="-1.744415033608675">
        <ele>647.54700000000003</ele>
        <time>2016-06-12T10:04:12Z</time>
      </trkpt>
      <trkpt lat="42.933285031467676" lon="-1.744511006399989">
        <ele>647.21100000000001</ele>
        <time>2016-06-12T10:04:19Z</time>
      </trkpt>
      <trkpt lat="42.933441018685699" lon="-1.744634974747896">
        <ele>649.90800000000002</ele>
        <time>2016-06-12T10:04:25Z</time>
      </trkpt>
      <trkpt lat="42.933607986196876" lon="-1.744804959744215">
        <ele>650.77499999999998</ele>
        <time>2016-06-12T10:04:31Z</time>
      </trkpt>
      <trkpt lat="42.933715023100376" lon="-1.745003024116159">
        <ele>650.56700000000001</ele>
        <time>2016-06-12T10:04:36Z</time>
      </trkpt>
      <trkpt lat="42.933823987841606" lon="-1.74522103741765">
        <ele>647.95000000000005</ele>
        <time>2016-06-12T10:04:40Z</time>
      </trkpt>
      <trkpt lat="42.9339590203017" lon="-1.745400996878743">
        <ele>646.72900000000004</ele>
        <time>2016-06-12T10:04:44Z</time>
      </trkpt>
      <trkpt lat="42.934116013348103" lon="-1.745556984096766">
        <ele>645.78200000000004</ele>
        <time>2016-06-12T10:04:48Z</time>
      </trkpt>
      <trkpt lat="42.934279041364789" lon="-1.745734009891748">
        <ele>642.79100000000005</ele>
        <time>2016-06-12T10:04:52Z</time>
      </trkpt>
      <trkpt lat="42.934437962248921" lon="-1.745937019586563">
        <ele>641.53999999999996</ele>
        <time>2016-06-12T10:04:56Z</time>
      </trkpt>
      <trkpt lat="42.934569977223873" lon="-1.746151009574533">
        <ele>639.53700000000003</ele>
        <time>2016-06-12T10:05:00Z</time>
      </trkpt>
      <trkpt lat="42.934679025784135" lon="-1.746394000947475">
        <ele>638.52700000000004</ele>
        <time>2016-06-12T10:05:04Z</time>
      </trkpt>
      <trkpt lat="42.934788996353745" lon="-1.746664987877011">
        <ele>638.56799999999998</ele>
        <time>2016-06-12T10:05:08Z</time>
      </trkpt>
      <trkpt lat="42.934893015772104" lon="-1.746943015605211">
        <ele>636.51400000000001</ele>
        <time>2016-06-12T10:05:12Z</time>
      </trkpt>
      <trkpt lat="42.935003992170095" lon="-1.747204028069973">
        <ele>634.70799999999997</ele>
        <time>2016-06-12T10:05:16Z</time>
      </trkpt>
      <trkpt lat="42.935210019350052" lon="-1.747358003631234">
        <ele>630.04300000000001</ele>
        <time>2016-06-12T10:05:20Z</time>
      </trkpt>
      <trkpt lat="42.935418980196118" lon="-1.747428998351097">
        <ele>627.57500000000005</ele>
        <time>2016-06-12T10:05:24Z</time>
      </trkpt>
      <trkpt lat="42.93563598766923" lon="-1.747551960870624">
        <ele>625.55799999999999</ele>
        <time>2016-06-12T10:05:28Z</time>
      </trkpt>
      <trkpt lat="42.935852995142341" lon="-1.747690010815859">
        <ele>622.71699999999998</ele>
        <time>2016-06-12T10:05:32Z</time>
      </trkpt>
      <trkpt lat="42.936016023159027" lon="-1.747835017740727">
        <ele>622.58000000000004</ele>
        <time>2016-06-12T10:05:36Z</time>
      </trkpt>
      <trkpt lat="42.936169998720288" lon="-1.747976001352072">
        <ele>619.49900000000002</ele>
        <time>2016-06-12T10:05:41Z</time>
      </trkpt>
      <trkpt lat="42.936315005645156" lon="-1.748127965256572">
        <ele>616.68799999999999</ele>
        <time>2016-06-12T10:05:45Z</time>
      </trkpt>
      <trkpt lat="42.936467975378036" lon="-1.748286969959736">
        <ele>615.52499999999998</ele>
        <time>2016-06-12T10:05:51Z</time>
      </trkpt>
      <trkpt lat="42.936662016436458" lon="-1.748323012143374">
        <ele>609.52800000000002</ele>
        <time>2016-06-12T10:06:00Z</time>
      </trkpt>
      <trkpt lat="42.936873994767666" lon="-1.74831697717309">
        <ele>609.58900000000006</ele>
        <time>2016-06-12T10:06:07Z</time>
      </trkpt>
      <trkpt lat="42.937082033604383" lon="-1.748253023251891">
        <ele>608.51700000000005</ele>
        <time>2016-06-12T10:06:14Z</time>
      </trkpt>
      <trkpt lat="42.937269033864141" lon="-1.748193008825183">
        <ele>608.50800000000004</ele>
        <time>2016-06-12T10:06:19Z</time>
      </trkpt>
      <trkpt lat="42.937479000538588" lon="-1.748169958591461">
        <ele>610.39300000000003</ele>
        <time>2016-06-12T10:06:24Z</time>
      </trkpt>
      <trkpt lat="42.937668012455106" lon="-1.748185968026519">
        <ele>610.57500000000005</ele>
        <time>2016-06-12T10:06:29Z</time>
      </trkpt>
      <trkpt lat="42.937812013551593" lon="-1.748332986608148">
        <ele>611.59799999999996</ele>
        <time>2016-06-12T10:06:35Z</time>
      </trkpt>
      <trkpt lat="42.937970012426376" lon="-1.748501965776086">
        <ele>610.54700000000003</ele>
        <time>2016-06-12T10:06:44Z</time>
      </trkpt>
      <trkpt lat="42.938145026564598" lon="-1.748672034591436">
        <ele>609.50999999999999</ele>
        <time>2016-06-12T10:06:50Z</time>
      </trkpt>
      <trkpt lat="42.938307970762253" lon="-1.748804971575737">
        <ele>608.79899999999998</ele>
        <time>2016-06-12T10:06:54Z</time>
      </trkpt>
      <trkpt lat="42.938475022092462" lon="-1.748932041227818">
        <ele>608.55799999999999</ele>
        <time>2016-06-12T10:06:58Z</time>
      </trkpt>
      <trkpt lat="42.938633020967245" lon="-1.749071013182402">
        <ele>605.77499999999998</ele>
        <time>2016-06-12T10:07:01Z</time>
      </trkpt>
      <trkpt lat="42.93881599791348" lon="-1.74921702593565">
        <ele>605.55600000000004</ele>
        <time>2016-06-12T10:07:05Z</time>
      </trkpt>
      <trkpt lat="42.939021019265056" lon="-1.749311992898583">
        <ele>603.55899999999997</ele>
        <time>2016-06-12T10:07:09Z</time>
      </trkpt>
      <trkpt lat="42.939226040616632" lon="-1.749394973739982">
        <ele>604.51400000000001</ele>
        <time>2016-06-12T10:07:13Z</time>
      </trkpt>
      <trkpt lat="42.939406000077724" lon="-1.749593960121274">
        <ele>604.50800000000004</ele>
        <time>2016-06-12T10:07:17Z</time>
      </trkpt>
      <trkpt lat="42.939540026709437" lon="-1.749780038371682">
        <ele>602.55600000000004</ele>
        <time>2016-06-12T10:07:20Z</time>
      </trkpt>
      <trkpt lat="42.939686961472034" lon="-1.749937031418085">
        <ele>602.53800000000001</ele>
        <time>2016-06-12T10:07:23Z</time>
      </trkpt>
      <trkpt lat="42.939843032509089" lon="-1.750068962574005">
        <ele>603.58100000000002</ele>
        <time>2016-06-12T10:07:26Z</time>
      </trkpt>
      <trkpt lat="42.940001031383872" lon="-1.750198965892196">
        <ele>604.33000000000004</ele>
        <time>2016-06-12T10:07:29Z</time>
      </trkpt>
      <trkpt lat="42.940200017765164" lon="-1.750313965603709">
        <ele>603.54300000000001</ele>
        <time>2016-06-12T10:07:32Z</time>
      </trkpt>
      <trkpt lat="42.940374026075006" lon="-1.750460984185338">
        <ele>604.62199999999996</ele>
        <time>2016-06-12T10:07:35Z</time>
      </trkpt>
      <trkpt lat="42.940565971657634" lon="-1.750600961968303">
        <ele>600.63099999999997</ele>
        <time>2016-06-12T10:07:38Z</time>
      </trkpt>
      <trkpt lat="42.940765963867307" lon="-1.7507029697299">
        <ele>599.51800000000003</ele>
        <time>2016-06-12T10:07:41Z</time>
      </trkpt>
      <trkpt lat="42.940979031845927" lon="-1.75078796222806">
        <ele>597.77499999999998</ele>
        <time>2016-06-12T10:07:44Z</time>
      </trkpt>
      <trkpt lat="42.941205007955432" lon="-1.750784022733569">
        <ele>597.72799999999995</ele>
        <time>2016-06-12T10:07:47Z</time>
      </trkpt>
      <trkpt lat="42.941445987671614" lon="-1.750729959458113">
        <ele>595.91999999999996</ele>
        <time>2016-06-12T10:07:50Z</time>
      </trkpt>
      <trkpt lat="42.941689984872937" lon="-1.750682014971972">
        <ele>594.50800000000004</ele>
        <time>2016-06-12T10:07:53Z</time>
      </trkpt>
      <trkpt lat="42.94193297624588" lon="-1.750684026628733">
        <ele>593.72799999999995</ele>
        <time>2016-06-12T10:07:56Z</time>
      </trkpt>
      <trkpt lat="42.942175967618823" lon="-1.750713028013706">
        <ele>591.98000000000002</ele>
        <time>2016-06-12T10:07:59Z</time>
      </trkpt>
      <trkpt lat="42.942385012283921" lon="-1.750793997198343">
        <ele>592.54300000000001</ele>
        <time>2016-06-12T10:08:02Z</time>
      </trkpt>
      <trkpt lat="42.942596990615129" lon="-1.75087102688849">
        <ele>591.78200000000004</ele>
        <time>2016-06-12T10:08:05Z</time>
      </trkpt>
      <trkpt lat="42.942802011966705" lon="-1.750939004123211">
        <ele>589.73500000000001</ele>
        <time>2016-06-12T10:08:08Z</time>
      </trkpt>
      <trkpt lat="42.943010972812772" lon="-1.75100396387279">
        <ele>588.78399999999999</ele>
        <time>2016-06-12T10:08:11Z</time>
      </trkpt>
      <trkpt lat="42.943214988335967" lon="-1.751088034361601">
        <ele>588.52300000000002</ele>
        <time>2016-06-12T10:08:14Z</time>
      </trkpt>
      <trkpt lat="42.943396959453821" lon="-1.751227006316185">
        <ele>587.59000000000003</ele>
        <time>2016-06-12T10:08:17Z</time>
      </trkpt>
      <trkpt lat="42.943551018834114" lon="-1.751385005190969">
        <ele>587.53300000000002</ele>
        <time>2016-06-12T10:08:20Z</time>
      </trkpt>
      <trkpt lat="42.94371304102242" lon="-1.75153998658061">
        <ele>587.32299999999998</ele>
        <time>2016-06-12T10:08:23Z</time>
      </trkpt>
      <trkpt lat="42.943867016583681" lon="-1.751716006547213">
        <ele>588.31500000000005</ele>
        <time>2016-06-12T10:08:26Z</time>
      </trkpt>
      <trkpt lat="42.944015963003039" lon="-1.751886997371912">
        <ele>590.40800000000002</ele>
        <time>2016-06-12T10:08:29Z</time>
      </trkpt>
      <trkpt lat="42.94416700489819" lon="-1.752091012895107">
        <ele>589.73400000000004</ele>
        <time>2016-06-12T10:08:32Z</time>
      </trkpt>
      <trkpt lat="42.944311005994678" lon="-1.752299973741174">
        <ele>588.75599999999997</ele>
        <time>2016-06-12T10:08:35Z</time>
      </trkpt>
      <trkpt lat="42.944446038454771" lon="-1.752517987042666">
        <ele>587.529</ele>
        <time>2016-06-12T10:08:38Z</time>
      </trkpt>
      <trkpt lat="42.944600014016032" lon="-1.752717979252338">
        <ele>585.76800000000003</ele>
        <time>2016-06-12T10:08:41Z</time>
      </trkpt>
      <trkpt lat="42.944771004840732" lon="-1.752898022532463">
        <ele>584.59100000000001</ele>
        <time>2016-06-12T10:08:44Z</time>
      </trkpt>
      <trkpt lat="42.94496001675725" lon="-1.753055015578866">
        <ele>583.54999999999995</ele>
        <time>2016-06-12T10:08:47Z</time>
      </trkpt>
      <trkpt lat="42.945145005360246" lon="-1.753226006403565">
        <ele>581.76900000000001</ele>
        <time>2016-06-12T10:08:50Z</time>
      </trkpt>
      <trkpt lat="42.945338040590286" lon="-1.753398003056645">
        <ele>581.54600000000005</ele>
        <time>2016-06-12T10:08:53Z</time>
      </trkpt>
      <trkpt lat="42.945533003658056" lon="-1.753562036901712">
        <ele>581.51700000000005</ele>
        <time>2016-06-12T10:08:56Z</time>
      </trkpt>
      <trkpt lat="42.94573400169611" lon="-1.753727998584509">
        <ele>581.58699999999999</ele>
        <time>2016-06-12T10:08:59Z</time>
      </trkpt>
      <trkpt lat="42.945912033319473" lon="-1.753908963873982">
        <ele>582.31500000000005</ele>
        <time>2016-06-12T10:09:02Z</time>
      </trkpt>
      <trkpt lat="42.94610196724534" lon="-1.754126977175474">
        <ele>580.20799999999997</ele>
        <time>2016-06-12T10:09:05Z</time>
      </trkpt>
      <trkpt lat="42.946279998868704" lon="-1.754369968548417">
        <ele>580.77200000000005</ele>
        <time>2016-06-12T10:09:08Z</time>
      </trkpt>
      <trkpt lat="42.946447972208261" lon="-1.754625029861927">
        <ele>580.57399999999996</ele>
        <time>2016-06-12T10:09:11Z</time>
      </trkpt>
      <trkpt lat="42.946606976911426" lon="-1.754871960729361">
        <ele>579.59699999999998</ele>
        <time>2016-06-12T10:09:14Z</time>
      </trkpt>
      <trkpt lat="42.946785008534789" lon="-1.755095003172755">
        <ele>577.52599999999995</ele>
        <time>2016-06-12T10:09:17Z</time>
      </trkpt>
      <trkpt lat="42.946919035166502" lon="-1.755337994545698">
        <ele>579.34900000000005</ele>
        <time>2016-06-12T10:09:20Z</time>
      </trkpt>
      <trkpt lat="42.94706798158586" lon="-1.755543015897274">
        <ele>579.32799999999997</ele>
        <time>2016-06-12T10:09:23Z</time>
      </trkpt>
      <trkpt lat="42.947218017652631" lon="-1.755826994776726">
        <ele>577.79700000000003</ele>
        <time>2016-06-12T10:09:27Z</time>
      </trkpt>
      <trkpt lat="42.947375010699034" lon="-1.756050959229469">
        <ele>579.17399999999998</ele>
        <time>2016-06-12T10:09:30Z</time>
      </trkpt>
      <trkpt lat="42.947557987645268" lon="-1.756305014714599">
        <ele>577.57299999999998</ele>
        <time>2016-06-12T10:09:33Z</time>
      </trkpt>
      <trkpt lat="42.947679022327065" lon="-1.756559992209077">
        <ele>579.48500000000001</ele>
        <time>2016-06-12T10:09:36Z</time>
      </trkpt>
      <trkpt lat="42.947822017595172" lon="-1.756782028824091">
        <ele>578.91300000000001</ele>
        <time>2016-06-12T10:09:39Z</time>
      </trkpt>
      <trkpt lat="42.947901980951428" lon="-1.75706097856164">
        <ele>579.50800000000004</ele>
        <time>2016-06-12T10:09:42Z</time>
      </trkpt>
      <trkpt lat="42.948027038946748" lon="-1.757305981591344">
        <ele>577.51800000000003</ele>
        <time>2016-06-12T10:09:45Z</time>
      </trkpt>
      <trkpt lat="42.948180008679628" lon="-1.75753497518599">
        <ele>574.86000000000001</ele>
        <time>2016-06-12T10:09:49Z</time>
      </trkpt>
      <trkpt lat="42.948349993675947" lon="-1.757658021524549">
        <ele>574.78300000000002</ele>
        <time>2016-06-12T10:09:52Z</time>
      </trkpt>
      <trkpt lat="42.94850598089397" lon="-1.757803028449416">
        <ele>575.52200000000005</ele>
        <time>2016-06-12T10:09:55Z</time>
      </trkpt>
      <trkpt lat="42.948664985597134" lon="-1.757976030930877">
        <ele>576.58500000000004</ele>
        <time>2016-06-12T10:09:58Z</time>
      </trkpt>
      <trkpt lat="42.948824996128678" lon="-1.758142998442054">
        <ele>576.57399999999996</ele>
        <time>2016-06-12T10:10:01Z</time>
      </trkpt>
      <trkpt lat="42.948995986953378" lon="-1.758324969559908">
        <ele>576.58299999999997</ele>
        <time>2016-06-12T10:10:04Z</time>
      </trkpt>
      <trkpt lat="42.949159014970064" lon="-1.758494032546878">
        <ele>576.51999999999998</ele>
        <time>2016-06-12T10:10:07Z</time>
      </trkpt>
      <trkpt lat="42.949320031329989" lon="-1.758661000058055">
        <ele>576.54499999999996</ele>
        <time>2016-06-12T10:10:10Z</time>
      </trkpt>
      <trkpt lat="42.94949303381145" lon="-1.758842971175909">
        <ele>576.54700000000003</ele>
        <time>2016-06-12T10:10:13Z</time>
      </trkpt>
      <trkpt lat="42.949678022414446" lon="-1.759030977264047">
        <ele>574.71100000000001</ele>
        <time>2016-06-12T10:10:16Z</time>
      </trkpt>
      <trkpt lat="42.949866028502584" lon="-1.759227029979229">
        <ele>571.80799999999999</ele>
        <time>2016-06-12T10:10:19Z</time>
      </trkpt>
      <trkpt lat="42.950047999620438" lon="-1.759415036067367">
        <ele>570.58500000000004</ele>
        <time>2016-06-12T10:10:22Z</time>
      </trkpt>
      <trkpt lat="42.950216978788376" lon="-1.759590972214937">
        <ele>569.52700000000004</ele>
        <time>2016-06-12T10:10:25Z</time>
      </trkpt>
      <trkpt lat="42.950383024290204" lon="-1.75974695943296">
        <ele>568.59000000000003</ele>
        <time>2016-06-12T10:10:28Z</time>
      </trkpt>
      <trkpt lat="42.950556026771665" lon="-1.759936977177858">
        <ele>567.36900000000003</ele>
        <time>2016-06-12T10:10:31Z</time>
      </trkpt>
      <trkpt lat="42.950721988454461" lon="-1.760115008801222">
        <ele>566.572</ele>
        <time>2016-06-12T10:10:34Z</time>
      </trkpt>
      <trkpt lat="42.950898008421063" lon="-1.760298991575837">
        <ele>566.59100000000001</ele>
        <time>2016-06-12T10:10:37Z</time>
      </trkpt>
      <trkpt lat="42.951081991195679" lon="-1.760471994057298">
        <ele>565.77999999999997</ele>
        <time>2016-06-12T10:10:40Z</time>
      </trkpt>
      <trkpt lat="42.951250970363617" lon="-1.760658994317055">
        <ele>566.58699999999999</ele>
        <time>2016-06-12T10:10:43Z</time>
      </trkpt>
      <trkpt lat="42.951424978673458" lon="-1.76084297709167">
        <ele>566.59299999999996</ele>
        <time>2016-06-12T10:10:46Z</time>
      </trkpt>
      <trkpt lat="42.951611978933215" lon="-1.761039029806852">
        <ele>564.76499999999999</ele>
        <time>2016-06-12T10:10:49Z</time>
      </trkpt>
      <trkpt lat="42.951776012778282" lon="-1.761247990652919">
        <ele>564.52099999999996</ele>
        <time>2016-06-12T10:10:52Z</time>
      </trkpt>
      <trkpt lat="42.95192495919764" lon="-1.761468015611172">
        <ele>564.50800000000004</ele>
        <time>2016-06-12T10:10:55Z</time>
      </trkpt>
      <trkpt lat="42.952052028849721" lon="-1.761693991720676">
        <ele>564.55999999999995</ele>
        <time>2016-06-12T10:10:58Z</time>
      </trkpt>
      <trkpt lat="42.952164011076093" lon="-1.761916028335691">
        <ele>563.75199999999995</ele>
        <time>2016-06-12T10:11:01Z</time>
      </trkpt>
      <trkpt lat="42.952278004959226" lon="-1.762142004445195">
        <ele>563.56500000000005</ele>
        <time>2016-06-12T10:11:04Z</time>
      </trkpt>
      <trkpt lat="42.952415971085429" lon="-1.762364963069558">
        <ele>562.71400000000006</ele>
        <time>2016-06-12T10:11:07Z</time>
      </trkpt>
      <trkpt lat="42.952556032687426" lon="-1.762579036876559">
        <ele>562.51700000000005</ele>
        <time>2016-06-12T10:11:10Z</time>
      </trkpt>
      <trkpt lat="42.952698022127151" lon="-1.762808030471206">
        <ele>561.73599999999999</ele>
        <time>2016-06-12T10:11:13Z</time>
      </trkpt>
      <trkpt lat="42.952808998525143" lon="-1.763064013794065">
        <ele>561.52499999999998</ele>
        <time>2016-06-12T10:11:16Z</time>
      </trkpt>
      <trkpt lat="42.952901031821966" lon="-1.763351010158658">
        <ele>560.51199999999994</ele>
        <time>2016-06-12T10:11:19Z</time>
      </trkpt>
      <trkpt lat="42.952979989349842" lon="-1.763664996251464">
        <ele>560.55899999999997</ele>
        <time>2016-06-12T10:11:22Z</time>
      </trkpt>
      <trkpt lat="42.953075040131807" lon="-1.76395601592958">
        <ele>560.50300000000004</ele>
        <time>2016-06-12T10:11:25Z</time>
      </trkpt>
      <trkpt lat="42.953187022358179" lon="-1.764247035607696">
        <ele>560.72299999999996</ele>
        <time>2016-06-12T10:11:28Z</time>
      </trkpt>
      <trkpt lat="42.953273020684719" lon="-1.764480974525213">
        <ele>559.50800000000004</ele>
        <time>2016-06-12T10:11:30Z</time>
      </trkpt>
      <trkpt lat="42.953406041488051" lon="-1.764775011688471">
        <ele>557.54600000000005</ele>
        <time>2016-06-12T10:11:33Z</time>
      </trkpt>
      <trkpt lat="42.953543001785874" lon="-1.765038035809994">
        <ele>557.71799999999996</ele>
        <time>2016-06-12T10:11:36Z</time>
      </trkpt>
      <trkpt lat="42.953679040074348" lon="-1.765294019132853">
        <ele>557.55100000000004</ele>
        <time>2016-06-12T10:11:39Z</time>
      </trkpt>
      <trkpt lat="42.953816000372171" lon="-1.765570035204291">
        <ele>554.98000000000002</ele>
        <time>2016-06-12T10:11:42Z</time>
      </trkpt>
      <trkpt lat="42.953958995640278" lon="-1.765843033790588">
        <ele>553.75300000000004</ele>
        <time>2016-06-12T10:11:45Z</time>
      </trkpt>
      <trkpt lat="42.954088998958468" lon="-1.76610697992146">
        <ele>553.78200000000004</ele>
        <time>2016-06-12T10:11:48Z</time>
      </trkpt>
      <trkpt lat="42.954229982569814" lon="-1.766376961022615">
        <ele>554.32100000000003</ele>
        <time>2016-06-12T10:11:51Z</time>
      </trkpt>
      <trkpt lat="42.954359985888004" lon="-1.766660017892718">
        <ele>552.75800000000004</ele>
        <time>2016-06-12T10:11:54Z</time>
      </trkpt>
      <trkpt lat="42.954494012519717" lon="-1.76694399677217">
        <ele>551.58399999999995</ele>
        <time>2016-06-12T10:11:57Z</time>
      </trkpt>
      <trkpt lat="42.954632984474301" lon="-1.767216995358467">
        <ele>549.70699999999999</ele>
        <time>2016-06-12T10:12:00Z</time>
      </trkpt>
      <trkpt lat="42.954783020541072" lon="-1.767498962581158">
        <ele>549.51700000000005</ele>
        <time>2016-06-12T10:12:03Z</time>
      </trkpt>
      <trkpt lat="42.954915035516024" lon="-1.767772966995835">
        <ele>549.30799999999999</ele>
        <time>2016-06-12T10:12:06Z</time>
      </trkpt>
      <trkpt lat="42.955010002478957" lon="-1.76806197501719">
        <ele>546.84900000000005</ele>
        <time>2016-06-12T10:12:09Z</time>
      </trkpt>
      <trkpt lat="42.95510396361351" lon="-1.768322987481952">
        <ele>546.57100000000003</ele>
        <time>2016-06-12T10:12:12Z</time>
      </trkpt>
      <trkpt lat="42.955200020223856" lon="-1.768576037138701">
        <ele>546.35400000000004</ele>
        <time>2016-06-12T10:12:15Z</time>
      </trkpt>
      <trkpt lat="42.955290963873267" lon="-1.768840989097953">
        <ele>546.52300000000002</ele>
        <time>2016-06-12T10:12:18Z</time>
      </trkpt>
      <trkpt lat="42.955377968028188" lon="-1.769057996571064">
        <ele>547.57600000000002</ele>
        <time>2016-06-12T10:12:21Z</time>
      </trkpt>
      <trkpt lat="42.955468995496631" lon="-1.769339963793755">
        <ele>548.53499999999997</ele>
        <time>2016-06-12T10:12:25Z</time>
      </trkpt>
      <trkpt lat="42.955573014914989" lon="-1.769591001793742">
        <ele>550.59400000000005</ele>
        <time>2016-06-12T10:12:30Z</time>
      </trkpt>
      <trkpt lat="42.955649960786104" lon="-1.769827958196402">
        <ele>548.75099999999998</ele>
        <time>2016-06-12T10:12:33Z</time>
      </trkpt>
      <trkpt lat="42.955726990476251" lon="-1.77008000202477">
        <ele>549.32799999999997</ele>
        <time>2016-06-12T10:12:37Z</time>
      </trkpt>
      <trkpt lat="42.955799996852875" lon="-1.7703150305897">
        <ele>549.58900000000006</ele>
        <time>2016-06-12T10:12:41Z</time>
      </trkpt>
      <trkpt lat="42.955865962430835" lon="-1.770549975335598">
        <ele>551.31700000000001</ele>
        <time>2016-06-12T10:12:45Z</time>
      </trkpt>
      <trkpt lat="42.955937962979078" lon="-1.77081098780036">
        <ele>550.50800000000004</ele>
        <time>2016-06-12T10:12:51Z</time>
      </trkpt>
      <trkpt lat="42.95600401237607" lon="-1.771064959466457">
        <ele>550.56299999999999</ele>
        <time>2016-06-12T10:12:57Z</time>
      </trkpt>
      <trkpt lat="42.956077018752694" lon="-1.771337036043406">
        <ele>550.59500000000003</ele>
        <time>2016-06-12T10:13:03Z</time>
      </trkpt>
      <trkpt lat="42.956136027351022" lon="-1.771582961082459">
        <ele>550.55799999999999</ele>
        <time>2016-06-12T10:13:08Z</time>
      </trkpt>
      <trkpt lat="42.956208027899265" lon="-1.771850008517504">
        <ele>550.55700000000002</ele>
        <time>2016-06-12T10:13:13Z</time>
      </trkpt>
      <trkpt lat="42.956264019012451" lon="-1.772114038467407">
        <ele>551.51999999999998</ele>
        <time>2016-06-12T10:13:18Z</time>
      </trkpt>
      <trkpt lat="42.956324033439159" lon="-1.772387037053704">
        <ele>551.51900000000001</ele>
        <time>2016-06-12T10:13:23Z</time>
      </trkpt>
      <trkpt lat="42.956379018723965" lon="-1.772666992619634">
        <ele>550.51800000000003</ele>
        <time>2016-06-12T10:13:28Z</time>
      </trkpt>
      <trkpt lat="42.956445990130305" lon="-1.772933034226298">
        <ele>551.53499999999997</ele>
        <time>2016-06-12T10:13:33Z</time>
      </trkpt>
      <trkpt lat="42.956488989293575" lon="-1.773189017549157">
        <ele>552.59299999999996</ele>
        <time>2016-06-12T10:13:38Z</time>
      </trkpt>
      <trkpt lat="42.956516984850168" lon="-1.773446006700397">
        <ele>552.56500000000005</ele>
        <time>2016-06-12T10:13:43Z</time>
      </trkpt>
      <trkpt lat="42.956543974578381" lon="-1.773723028600216">
        <ele>553.32100000000003</ele>
        <time>2016-06-12T10:13:49Z</time>
      </trkpt>
      <trkpt lat="42.956567024812102" lon="-1.773977000266314">
        <ele>554.30799999999999</ele>
        <time>2016-06-12T10:13:54Z</time>
      </trkpt>
      <trkpt lat="42.956595020368695" lon="-1.774230971932411">
        <ele>554.59000000000003</ele>
        <time>2016-06-12T10:13:59Z</time>
      </trkpt>
      <trkpt lat="42.956622010096908" lon="-1.774477986618877">
        <ele>554.77200000000005</ele>
        <time>2016-06-12T10:14:04Z</time>
      </trkpt>
      <trkpt lat="42.956668026745319" lon="-1.774725001305342">
        <ele>554.46500000000003</ele>
        <time>2016-06-12T10:14:09Z</time>
      </trkpt>
      <trkpt lat="42.956694010645151" lon="-1.775001017376781">
        <ele>556.58399999999995</ele>
        <time>2016-06-12T10:14:15Z</time>
      </trkpt>
      <trkpt lat="42.956729969009757" lon="-1.775272004306316">
        <ele>560.14700000000005</ele>
        <time>2016-06-12T10:14:22Z</time>
      </trkpt>
      <trkpt lat="42.956751007586718" lon="-1.77555900067091">
        <ele>564.32600000000002</ele>
        <time>2016-06-12T10:14:28Z</time>
      </trkpt>
      <trkpt lat="42.956781014800072" lon="-1.775843985378742">
        <ele>563.53499999999997</ele>
        <time>2016-06-12T10:14:34Z</time>
      </trkpt>
      <trkpt lat="42.956833988428116" lon="-1.776091000065208">
        <ele>565.37199999999996</ele>
        <time>2016-06-12T10:14:40Z</time>
      </trkpt>
      <trkpt lat="42.95688696205616" lon="-1.776328040286899">
        <ele>569.577</ele>
        <time>2016-06-12T10:14:46Z</time>
      </trkpt>
      <trkpt lat="42.956931972876191" lon="-1.776607995852828">
        <ele>573.56100000000004</ele>
        <time>2016-06-12T10:14:52Z</time>
      </trkpt>
      <trkpt lat="42.957011014223099" lon="-1.776863979175687">
        <ele>571.72699999999998</ele>
        <time>2016-06-12T10:14:58Z</time>
      </trkpt>
      <trkpt lat="42.957069016993046" lon="-1.777116023004055">
        <ele>569.70799999999997</ele>
        <time>2016-06-12T10:15:03Z</time>
      </trkpt>
      <trkpt lat="42.957117967307568" lon="-1.77738600410521">
        <ele>569.53800000000001</ele>
        <time>2016-06-12T10:15:09Z</time>
      </trkpt>
      <trkpt lat="42.957170018926263" lon="-1.777670988813043">
        <ele>569.52999999999997</ele>
        <time>2016-06-12T10:15:15Z</time>
      </trkpt>
      <trkpt lat="42.957217963412404" lon="-1.777957985177636">
        <ele>571.553</ele>
        <time>2016-06-12T10:15:21Z</time>
      </trkpt>
      <trkpt lat="42.957291975617409" lon="-1.778217991814017">
        <ele>571.51199999999994</ele>
        <time>2016-06-12T10:15:27Z</time>
      </trkpt>
      <trkpt lat="42.957359030842781" lon="-1.778469029814005">
        <ele>571.57500000000005</ele>
        <time>2016-06-12T10:15:33Z</time>
      </trkpt>
      <trkpt lat="42.95744301751256" lon="-1.778699029237032">
        <ele>574.31399999999996</ele>
        <time>2016-06-12T10:15:39Z</time>
      </trkpt>
      <trkpt lat="42.957519963383675" lon="-1.778920982033014">
        <ele>575.36300000000006</ele>
        <time>2016-06-12T10:15:45Z</time>
      </trkpt>
      <trkpt lat="42.957571009173989" lon="-1.779177971184254">
        <ele>575.57000000000005</ele>
        <time>2016-06-12T10:15:53Z</time>
      </trkpt>
      <trkpt lat="42.957639992237091" lon="-1.779452981427312">
        <ele>577.34699999999998</ele>
        <time>2016-06-12T10:16:01Z</time>
      </trkpt>
      <trkpt lat="42.957691038027406" lon="-1.779691027477384">
        <ele>575.529</ele>
        <time>2016-06-12T10:16:07Z</time>
      </trkpt>
      <trkpt lat="42.957771001383662" lon="-1.779933013021946">
        <ele>575.32100000000003</ele>
        <time>2016-06-12T10:16:13Z</time>
      </trkpt>
      <trkpt lat="42.95796001330018" lon="-1.779868975281715">
        <ele>576.50800000000004</ele>
        <time>2016-06-12T10:16:25Z</time>
      </trkpt>
      <trkpt lat="42.958081969991326" lon="-1.779678035527468">
        <ele>581.55499999999995</ele>
        <time>2016-06-12T10:16:39Z</time>
      </trkpt>
      <trkpt lat="42.958242986351252" lon="-1.779525987803936">
        <ele>585.55700000000002</ele>
        <time>2016-06-12T10:16:51Z</time>
      </trkpt>
      <trkpt lat="42.958310041576624" lon="-1.779280984774232">
        <ele>589.58000000000004</ele>
        <time>2016-06-12T10:17:05Z</time>
      </trkpt>
      <trkpt lat="42.958355974406004" lon="-1.779037993401289">
        <ele>595.529</ele>
        <time>2016-06-12T10:17:20Z</time>
      </trkpt>
      <trkpt lat="42.958466028794646" lon="-1.778788967058063">
        <ele>595.35199999999998</ele>
        <time>2016-06-12T10:17:35Z</time>
      </trkpt>
      <trkpt lat="42.958460999652743" lon="-1.778542036190629">
        <ele>597.51099999999997</ele>
        <time>2016-06-12T10:17:47Z</time>
      </trkpt>
      <trkpt lat="42.958448007702827" lon="-1.778275994583964">
        <ele>599.59000000000003</ele>
        <time>2016-06-12T10:18:03Z</time>
      </trkpt>
      <trkpt lat="42.95845597051084" lon="-1.778013976290822">
        <ele>607.39700000000005</ele>
        <time>2016-06-12T10:18:17Z</time>
      </trkpt>
      <trkpt lat="42.958443984389305" lon="-1.777757992967963">
        <ele>608.35699999999997</ele>
        <time>2016-06-12T10:18:28Z</time>
      </trkpt>
      <trkpt lat="42.95845203101635" lon="-1.77749203518033">
        <ele>612.5</ele>
        <time>2016-06-12T10:18:42Z</time>
      </trkpt>
      <trkpt lat="42.958485977724195" lon="-1.77723303437233">
        <ele>612.51999999999998</ele>
        <time>2016-06-12T10:18:53Z</time>
      </trkpt>
      <trkpt lat="42.958554960787296" lon="-1.77699901163578">
        <ele>609.50800000000004</ele>
        <time>2016-06-12T10:19:03Z</time>
      </trkpt>
      <trkpt lat="42.958644982427359" lon="-1.776779992505908">
        <ele>613.36599999999999</ele>
        <time>2016-06-12T10:19:15Z</time>
      </trkpt>
      <trkpt lat="42.958752019330859" lon="-1.776577988639474">
        <ele>614.59799999999996</ele>
        <time>2016-06-12T10:19:26Z</time>
      </trkpt>
      <trkpt lat="42.958843968808651" lon="-1.776366010308266">
        <ele>616.38099999999997</ele>
        <time>2016-06-12T10:19:38Z</time>
      </trkpt>
      <trkpt lat="42.958924015983939" lon="-1.776138022542">
        <ele>619.50999999999999</ele>
        <time>2016-06-12T10:19:50Z</time>
      </trkpt>
      <trkpt lat="42.959028035402298" lon="-1.77592596039176">
        <ele>620.58299999999997</ele>
        <time>2016-06-12T10:20:01Z</time>
      </trkpt>
      <trkpt lat="42.959130965173244" lon="-1.775716999545693">
        <ele>622.51199999999994</ele>
        <time>2016-06-12T10:20:14Z</time>
      </trkpt>
      <trkpt lat="42.959259040653706" lon="-1.775524970144033">
        <ele>627.351</ele>
        <time>2016-06-12T10:20:29Z</time>
      </trkpt>
      <trkpt lat="42.959406981244683" lon="-1.775361020117998">
        <ele>630.59799999999996</ele>
        <time>2016-06-12T10:20:44Z</time>
      </trkpt>
      <trkpt lat="42.959572020918131" lon="-1.775255994871259">
        <ele>633.55399999999997</ele>
        <time>2016-06-12T10:20:59Z</time>
      </trkpt>
      <trkpt lat="42.959753992035985" lon="-1.77517200820148">
        <ele>635.55600000000004</ele>
        <time>2016-06-12T10:21:16Z</time>
      </trkpt>
      <trkpt lat="42.959945015609264" lon="-1.775137977674604">
        <ele>637.51099999999997</ele>
        <time>2016-06-12T10:21:30Z</time>
      </trkpt>
      <trkpt lat="42.960115000605583" lon="-1.775045022368431">
        <ele>639.30799999999999</ele>
        <time>2016-06-12T10:21:43Z</time>
      </trkpt>
      <trkpt lat="42.960268976166844" lon="-1.774904038757086">
        <ele>637.74599999999998</ele>
        <time>2016-06-12T10:21:55Z</time>
      </trkpt>
      <trkpt lat="42.960439966991544" lon="-1.774774035438895">
        <ele>639.34799999999996</ele>
        <time>2016-06-12T10:22:06Z</time>
      </trkpt>
      <trkpt lat="42.960611041635275" lon="-1.774695999920368">
        <ele>637.58100000000002</ele>
        <time>2016-06-12T10:22:11Z</time>
      </trkpt>
      <trkpt lat="42.960796030238271" lon="-1.774623999372125">
        <ele>636.52999999999997</ele>
        <time>2016-06-12T10:22:15Z</time>
      </trkpt>
      <trkpt lat="42.960999039933085" lon="-1.774622993543744">
        <ele>635.53300000000002</ele>
        <time>2016-06-12T10:22:19Z</time>
      </trkpt>
      <trkpt lat="42.961186962202191" lon="-1.774669010192156">
        <ele>635.572</ele>
        <time>2016-06-12T10:22:23Z</time>
      </trkpt>
      <trkpt lat="42.96137597411871" lon="-1.774781998246908">
        <ele>632.73099999999999</ele>
        <time>2016-06-12T10:22:28Z</time>
      </trkpt>
      <trkpt lat="42.961565991863608" lon="-1.774913007393479">
        <ele>633.58799999999997</ele>
        <time>2016-06-12T10:22:33Z</time>
      </trkpt>
      <trkpt lat="42.961758021265268" lon="-1.775037981569767">
        <ele>632.51700000000005</ele>
        <time>2016-06-12T10:22:38Z</time>
      </trkpt>
      <trkpt lat="42.961931023746729" lon="-1.775107970461249">
        <ele>635.38699999999994</ele>
        <time>2016-06-12T10:22:43Z</time>
      </trkpt>
      <trkpt lat="42.962131015956402" lon="-1.775181982666254">
        <ele>635.71500000000003</ele>
        <time>2016-06-12T10:22:49Z</time>
      </trkpt>
      <trkpt lat="42.962292032316327" lon="-1.775305029004812">
        <ele>637.30799999999999</ele>
        <time>2016-06-12T10:22:54Z</time>
      </trkpt>
      <trkpt lat="42.962475009262562" lon="-1.775435032323003">
        <ele>637.54200000000003</ele>
        <time>2016-06-12T10:22:59Z</time>
      </trkpt>
      <trkpt lat="42.962668966501951" lon="-1.775448024272919">
        <ele>639.51400000000001</ele>
        <time>2016-06-12T10:23:06Z</time>
      </trkpt>
      <trkpt lat="42.962837023660541" lon="-1.775542991235852">
        <ele>638.54700000000003</ele>
        <time>2016-06-12T10:23:12Z</time>
      </trkpt>
      <trkpt lat="42.963013965636492" lon="-1.775626977905631">
        <ele>641.32600000000002</ele>
        <time>2016-06-12T10:23:18Z</time>
      </trkpt>
      <trkpt lat="42.963212030008435" lon="-1.775684980675578">
        <ele>643.56899999999996</ele>
        <time>2016-06-12T10:23:24Z</time>
      </trkpt>
      <trkpt lat="42.963410010561347" lon="-1.775655979290605">
        <ele>642.58799999999997</ele>
        <time>2016-06-12T10:23:29Z</time>
      </trkpt>
      <trkpt lat="42.963505983352661" lon="-1.775431009009481">
        <ele>643.39700000000005</ele>
        <time>2016-06-12T10:23:37Z</time>
      </trkpt>
      <trkpt lat="42.963572032749653" lon="-1.775165973231196">
        <ele>647.34400000000005</ele>
        <time>2016-06-12T10:23:45Z</time>
      </trkpt>
      <trkpt lat="42.963645039126277" lon="-1.774910995736718">
        <ele>649.52700000000004</ele>
        <time>2016-06-12T10:23:53Z</time>
      </trkpt>
      <trkpt lat="42.963688960298896" lon="-1.774650989100337">
        <ele>652.36800000000005</ele>
        <time>2016-06-12T10:24:01Z</time>
      </trkpt>
      <trkpt lat="42.963730031624436" lon="-1.774384025484324">
        <ele>653.71400000000006</ele>
        <time>2016-06-12T10:24:08Z</time>
      </trkpt>
      <trkpt lat="42.963835978880525" lon="-1.774177998304367">
        <ele>656.10799999999995</ele>
        <time>2016-06-12T10:24:14Z</time>
      </trkpt>
      <trkpt lat="42.963942009955645" lon="-1.773977000266314">
        <ele>657.68299999999999</ele>
        <time>2016-06-12T10:24:20Z</time>
      </trkpt>
      <trkpt lat="42.963995989412069" lon="-1.773730991408229">
        <ele>659.42499999999995</ele>
        <time>2016-06-12T10:24:27Z</time>
      </trkpt>
      <trkpt lat="42.963960031047463" lon="-1.773478025570512">
        <ele>661.34799999999996</ele>
        <time>2016-06-12T10:24:35Z</time>
      </trkpt>
      <trkpt lat="42.963934969156981" lon="-1.77321600727737">
        <ele>663.98699999999997</ele>
        <time>2016-06-12T10:24:44Z</time>
      </trkpt>
      <trkpt lat="42.963904961943626" lon="-1.772946026176214">
        <ele>661.53999999999996</ele>
        <time>2016-06-12T10:24:53Z</time>
      </trkpt>
      <trkpt lat="42.963817035779357" lon="-1.772695994004607">
        <ele>661.58900000000006</ele>
        <time>2016-06-12T10:25:02Z</time>
      </trkpt>
      <trkpt lat="42.963806977495551" lon="-1.77244202233851">
        <ele>665.31799999999998</ele>
        <time>2016-06-12T10:25:11Z</time>
      </trkpt>
      <trkpt lat="42.963844025507569" lon="-1.772197019308806">
        <ele>669.39499999999998</ele>
        <time>2016-06-12T10:25:20Z</time>
      </trkpt>
      <trkpt lat="42.963880989700556" lon="-1.771927960216999">
        <ele>668.53200000000004</ele>
        <time>2016-06-12T10:25:27Z</time>
      </trkpt>
      <trkpt lat="42.963891969993711" lon="-1.771679017692804">
        <ele>673.09199999999998</ele>
        <time>2016-06-12T10:25:36Z</time>
      </trkpt>
      <trkpt lat="42.96397503465414" lon="-1.771438037976623">
        <ele>672.81100000000004</ele>
        <time>2016-06-12T10:25:45Z</time>
      </trkpt>
      <trkpt lat="42.964081987738609" lon="-1.771224969998002">
        <ele>669.50800000000004</ele>
        <time>2016-06-12T10:25:54Z</time>
      </trkpt>
      <trkpt lat="42.964209979400039" lon="-1.771023971959949">
        <ele>674.37400000000002</ele>
        <time>2016-06-12T10:26:07Z</time>
      </trkpt>
      <trkpt lat="42.964352974668145" lon="-1.770860021933913">
        <ele>678.56600000000003</ele>
        <time>2016-06-12T10:26:20Z</time>
      </trkpt>
      <trkpt lat="42.964496975764632" lon="-1.770708980038762">
        <ele>678.58900000000006</ele>
        <time>2016-06-12T10:26:32Z</time>
      </trkpt>
      <trkpt lat="42.964570987969637" lon="-1.770481998100877">
        <ele>679.51800000000003</ele>
        <time>2016-06-12T10:26:43Z</time>
      </trkpt>
      <trkpt lat="42.964637037366629" lon="-1.770230960100889">
        <ele>677.52099999999996</ele>
        <time>2016-06-12T10:26:54Z</time>
      </trkpt>
      <trkpt lat="42.96468598768115" lon="-1.76999500952661">
        <ele>679.55999999999995</ele>
        <time>2016-06-12T10:27:04Z</time>
      </trkpt>
      <trkpt lat="42.964725969359279" lon="-1.769754029810429">
        <ele>681.55899999999997</ele>
        <time>2016-06-12T10:27:13Z</time>
      </trkpt>
      <trkpt lat="42.964772991836071" lon="-1.76950198598206">
        <ele>682.96600000000001</ele>
        <time>2016-06-12T10:27:22Z</time>
      </trkpt>
      <trkpt lat="42.964845998212695" lon="-1.769257988780737">
        <ele>680.76700000000005</ele>
        <time>2016-06-12T10:27:31Z</time>
      </trkpt>
      <trkpt lat="42.964923027902842" lon="-1.769014997407794">
        <ele>680.38099999999997</ele>
        <time>2016-06-12T10:27:39Z</time>
      </trkpt>
      <trkpt lat="42.965020006522536" lon="-1.768774017691612">
        <ele>681.51900000000001</ele>
        <time>2016-06-12T10:27:48Z</time>
      </trkpt>
      <trkpt lat="42.965154033154249" lon="-1.768568996340036">
        <ele>683.30799999999999</ele>
        <time>2016-06-12T10:27:57Z</time>
      </trkpt>
      <trkpt lat="42.965300967916846" lon="-1.768395993858576">
        <ele>684.53700000000003</ele>
        <time>2016-06-12T10:28:06Z</time>
      </trkpt>
      <trkpt lat="42.965474976226687" lon="-1.768294991925359">
        <ele>685.56899999999996</ele>
        <time>2016-06-12T10:28:16Z</time>
      </trkpt>
      <trkpt lat="42.96560799703002" lon="-1.76812500692904">
        <ele>687.55200000000002</ele>
        <time>2016-06-12T10:28:26Z</time>
      </trkpt>
      <trkpt lat="42.965703969821334" lon="-1.767907999455929">
        <ele>689.59100000000001</ele>
        <time>2016-06-12T10:28:36Z</time>
      </trkpt>
      <trkpt lat="42.965797008946538" lon="-1.767669031396508">
        <ele>691.524</ele>
        <time>2016-06-12T10:28:46Z</time>
      </trkpt>
      <trkpt lat="42.965872026979923" lon="-1.767443977296352">
        <ele>692.33299999999997</ele>
        <time>2016-06-12T10:28:55Z</time>
      </trkpt>
      <trkpt lat="42.965965988114476" lon="-1.767231998965144">
        <ele>692.53200000000004</ele>
        <time>2016-06-12T10:29:04Z</time>
      </trkpt>
      <trkpt lat="42.966035977005959" lon="-1.766999987885356">
        <ele>695.38900000000001</ele>
        <time>2016-06-12T10:29:13Z</time>
      </trkpt>
      <trkpt lat="42.966133961454034" lon="-1.766782980412245">
        <ele>697.59900000000005</ele>
        <time>2016-06-12T10:29:23Z</time>
      </trkpt>
      <trkpt lat="42.966218031942844" lon="-1.766537977382541">
        <ele>698.70699999999999</ele>
        <time>2016-06-12T10:29:33Z</time>
      </trkpt>
      <trkpt lat="42.966297995299101" lon="-1.766294986009598">
        <ele>699.52700000000004</ele>
        <time>2016-06-12T10:29:42Z</time>
      </trkpt>
      <trkpt lat="42.966361027210951" lon="-1.76606297492981">
        <ele>699.50800000000004</ele>
        <time>2016-06-12T10:29:50Z</time>
      </trkpt>
      <trkpt lat="42.96642598696053" lon="-1.765827024355531">
        <ele>698.76999999999998</ele>
        <time>2016-06-12T10:29:58Z</time>
      </trkpt>
      <trkpt lat="42.966470997780561" lon="-1.765587972477078">
        <ele>700.34199999999998</ele>
        <time>2016-06-12T10:30:06Z</time>
      </trkpt>
      <trkpt lat="42.96651198528707" lon="-1.765326038002968">
        <ele>701.54499999999996</ele>
        <time>2016-06-12T10:30:15Z</time>
      </trkpt>
      <trkpt lat="42.966541992500424" lon="-1.765082962810993">
        <ele>703.34400000000005</ele>
        <time>2016-06-12T10:30:23Z</time>
      </trkpt>
      <trkpt lat="42.966579040512443" lon="-1.764818010851741">
        <ele>705.327</ele>
        <time>2016-06-12T10:30:32Z</time>
      </trkpt>
      <trkpt lat="42.966630002483726" lon="-1.764579964801669">
        <ele>705.52599999999995</ele>
        <time>2016-06-12T10:30:40Z</time>
      </trkpt>
      <trkpt lat="42.966735027730465" lon="-1.764345020055771">
        <ele>706.52499999999998</ele>
        <time>2016-06-12T10:30:49Z</time>
      </trkpt>
      <trkpt lat="42.966848015785217" lon="-1.764130024239421">
        <ele>708.58199999999999</ele>
        <time>2016-06-12T10:30:57Z</time>
      </trkpt>
      <trkpt lat="42.966950023546815" lon="-1.763927014544606">
        <ele>710.55799999999999</ele>
        <time>2016-06-12T10:31:04Z</time>
      </trkpt>
      <trkpt lat="42.96706703491509" lon="-1.763726016506553">
        <ele>711.55200000000002</ele>
        <time>2016-06-12T10:31:11Z</time>
      </trkpt>
      <trkpt lat="42.967205001041293" lon="-1.763497022911906">
        <ele>710.51700000000005</ele>
        <time>2016-06-12T10:31:17Z</time>
      </trkpt>
      <trkpt lat="42.967345984652638" lon="-1.763327037915587">
        <ele>708.70799999999997</ele>
        <time>2016-06-12T10:31:21Z</time>
      </trkpt>
      <trkpt lat="42.967558968812227" lon="-1.763194017112255">
        <ele>707.51599999999996</ele>
        <time>2016-06-12T10:31:25Z</time>
      </trkpt>
      <trkpt lat="42.9677589610219" lon="-1.7630759999156">
        <ele>704.72799999999995</ele>
        <time>2016-06-12T10:31:28Z</time>
      </trkpt>
      <trkpt lat="42.967898016795516" lon="-1.762825967743993">
        <ele>704.53099999999995</ele>
        <time>2016-06-12T10:31:32Z</time>
      </trkpt>
      <trkpt lat="42.967982003465295" lon="-1.762597979977727">
        <ele>705.58000000000004</ele>
        <time>2016-06-12T10:31:36Z</time>
      </trkpt>
      <trkpt lat="42.968062972649932" lon="-1.762372003868222">
        <ele>706.59299999999996</ele>
        <time>2016-06-12T10:31:40Z</time>
      </trkpt>
      <trkpt lat="42.968155005946755" lon="-1.762135969474912">
        <ele>707.38199999999995</ele>
        <time>2016-06-12T10:31:44Z</time>
      </trkpt>
      <trkpt lat="42.968261037021875" lon="-1.761889960616827">
        <ele>707.57100000000003</ele>
        <time>2016-06-12T10:31:48Z</time>
      </trkpt>
      <trkpt lat="42.968351980671287" lon="-1.761674964800477">
        <ele>708.57799999999997</ele>
        <time>2016-06-12T10:31:52Z</time>
      </trkpt>
      <trkpt lat="42.968461029231548" lon="-1.761449994519353">
        <ele>709.59199999999998</ele>
        <time>2016-06-12T10:31:57Z</time>
      </trkpt>
      <trkpt lat="42.968578040599823" lon="-1.761217983439565">
        <ele>709.77300000000002</ele>
        <time>2016-06-12T10:32:02Z</time>
      </trkpt>
      <trkpt lat="42.968670995905995" lon="-1.760952025651932">
        <ele>708.72000000000003</ele>
        <time>2016-06-12T10:32:07Z</time>
      </trkpt>
      <trkpt lat="42.968721035867929" lon="-1.760696964338422">
        <ele>708.50800000000004</ele>
        <time>2016-06-12T10:32:11Z</time>
      </trkpt>
      <trkpt lat="42.968789013102651" lon="-1.760414997115731">
        <ele>708.59000000000003</ele>
        <time>2016-06-12T10:32:15Z</time>
      </trkpt>
      <trkpt lat="42.968852967023849" lon="-1.760143004357815">
        <ele>708.55200000000002</ele>
        <time>2016-06-12T10:32:19Z</time>
      </trkpt>
      <trkpt lat="42.968907030299306" lon="-1.759880986064673">
        <ele>708.34500000000003</ele>
        <time>2016-06-12T10:32:23Z</time>
      </trkpt>
      <trkpt lat="42.968951035290956" lon="-1.759640006348491">
        <ele>708.57399999999996</ele>
        <time>2016-06-12T10:32:27Z</time>
      </trkpt>
      <trkpt lat="42.969011971727014" lon="-1.759368013590574">
        <ele>708.56700000000001</ele>
        <time>2016-06-12T10:32:32Z</time>
      </trkpt>
      <trkpt lat="42.969073997810483" lon="-1.759093003347516">
        <ele>709.53599999999994</ele>
        <time>2016-06-12T10:32:37Z</time>
      </trkpt>
      <trkpt lat="42.969127977266908" lon="-1.758826961740851">
        <ele>708.71500000000003</ele>
        <time>2016-06-12T10:32:41Z</time>
      </trkpt>
      <trkpt lat="42.969170976430178" lon="-1.75856402143836">
        <ele>709.572</ele>
        <time>2016-06-12T10:32:45Z</time>
      </trkpt>
      <trkpt lat="42.969208024442196" lon="-1.758277025073767">
        <ele>710.72500000000002</ele>
        <time>2016-06-12T10:32:50Z</time>
      </trkpt>
      <trkpt lat="42.969214981421828" lon="-1.758031016215682">
        <ele>712.52599999999995</ele>
        <time>2016-06-12T10:32:55Z</time>
      </trkpt>
      <trkpt lat="42.96919503249228" lon="-1.757762962952256">
        <ele>710.50800000000004</ele>
        <time>2016-06-12T10:33:01Z</time>
      </trkpt>
      <trkpt lat="42.969167958945036" lon="-1.757485019043088">
        <ele>711.50800000000004</ele>
        <time>2016-06-12T10:33:07Z</time>
      </trkpt>
      <trkpt lat="42.969104005023837" lon="-1.757240016013384">
        <ele>709.62300000000005</ele>
        <time>2016-06-12T10:33:12Z</time>
      </trkpt>
      <trkpt lat="42.96906896866858" lon="-1.756968023255467">
        <ele>708.55499999999995</ele>
        <time>2016-06-12T10:33:16Z</time>
      </trkpt>
      <trkpt lat="42.969037033617496" lon="-1.756713967770338">
        <ele>706.77800000000002</ele>
        <time>2016-06-12T10:33:19Z</time>
      </trkpt>
      <trkpt lat="42.968970984220505" lon="-1.756402999162674">
        <ele>703.99699999999996</ele>
        <time>2016-06-12T10:33:22Z</time>
      </trkpt>
      <trkpt lat="42.968891020864248" lon="-1.756061017513275">
        <ele>700.80999999999995</ele>
        <time>2016-06-12T10:33:25Z</time>
      </trkpt>
      <trkpt lat="42.968822959810495" lon="-1.755688022822142">
        <ele>697.59900000000005</ele>
        <time>2016-06-12T10:33:28Z</time>
      </trkpt>
      <trkpt lat="42.968823965638876" lon="-1.755347969010472">
        <ele>697.59799999999996</ele>
        <time>2016-06-12T10:33:31Z</time>
      </trkpt>
      <trkpt lat="42.96878800727427" lon="-1.755015961825848">
        <ele>697.53499999999997</ele>
        <time>2016-06-12T10:33:34Z</time>
      </trkpt>
      <trkpt lat="42.968790018931031" lon="-1.754661994054914">
        <ele>697.54100000000005</ele>
        <time>2016-06-12T10:33:37Z</time>
      </trkpt>
      <trkpt lat="42.968779960647225" lon="-1.754308026283979">
        <ele>694.98099999999999</ele>
        <time>2016-06-12T10:33:40Z</time>
      </trkpt>
      <trkpt lat="42.968799993395805" lon="-1.753982976078987">
        <ele>692.70899999999995</ele>
        <time>2016-06-12T10:33:43Z</time>
      </trkpt>
      <trkpt lat="42.968797981739044" lon="-1.753722969442606">
        <ele>692.50800000000004</ele>
        <time>2016-06-12T10:33:46Z</time>
      </trkpt>
      <trkpt lat="42.968796975910664" lon="-1.753448965027928">
        <ele>692.58500000000004</ele>
        <time>2016-06-12T10:33:49Z</time>
      </trkpt>
      <trkpt lat="42.968811979517341" lon="-1.753147970885038">
        <ele>691.61699999999996</ele>
        <time>2016-06-12T10:33:52Z</time>
      </trkpt>
      <trkpt lat="42.968799993395805" lon="-1.752844965085387">
        <ele>692.35000000000002</ele>
        <time>2016-06-12T10:33:55Z</time>
      </trkpt>
      <trkpt lat="42.968807034194469" lon="-1.752558974549174">
        <ele>692.57899999999995</ele>
        <time>2016-06-12T10:33:58Z</time>
      </trkpt>
      <trkpt lat="42.968819020316005" lon="-1.752259992063046">
        <ele>693.51199999999994</ele>
        <time>2016-06-12T10:34:01Z</time>
      </trkpt>
      <trkpt lat="42.968850033357739" lon="-1.751952962949872">
        <ele>690.79100000000005</ele>
        <time>2016-06-12T10:34:05Z</time>
      </trkpt>
      <trkpt lat="42.968892026692629" lon="-1.751678036525846">
        <ele>693.55999999999995</ele>
        <time>2016-06-12T10:34:09Z</time>
      </trkpt>
      <trkpt lat="42.968893032521009" lon="-1.751406965777278">
        <ele>695.74699999999996</ele>
        <time>2016-06-12T10:34:16Z</time>
      </trkpt>
      <trkpt lat="42.968906024470925" lon="-1.751103959977627">
        <ele>694.45600000000002</ele>
        <time>2016-06-12T10:34:20Z</time>
      </trkpt>
      <trkpt lat="42.968934020027518" lon="-1.750860968604684">
        <ele>694.55899999999997</ele>
        <time>2016-06-12T10:34:23Z</time>
      </trkpt>
      <trkpt lat="42.968992022797465" lon="-1.750600961968303">
        <ele>695.31399999999996</ele>
        <time>2016-06-12T10:34:26Z</time>
      </trkpt>
      <trkpt lat="42.96904600225389" lon="-1.75035797059536">
        <ele>697.20799999999997</ele>
        <time>2016-06-12T10:34:30Z</time>
      </trkpt>
      <trkpt lat="42.969077015295625" lon="-1.750115985050798">
        <ele>700.78599999999994</ele>
        <time>2016-06-12T10:34:34Z</time>
      </trkpt>
      <trkpt lat="42.96915203332901" lon="-1.749850027263165">
        <ele>702.12800000000004</ele>
        <time>2016-06-12T10:34:38Z</time>
      </trkpt>
      <trkpt lat="42.969204001128674" lon="-1.749579962342978">
        <ele>705.17100000000005</ele>
        <time>2016-06-12T10:34:42Z</time>
      </trkpt>
      <trkpt lat="42.969295028597116" lon="-1.749357003718615">
        <ele>701.53999999999996</ele>
        <time>2016-06-12T10:34:46Z</time>
      </trkpt>
      <trkpt lat="42.969352025538683" lon="-1.749115018174052">
        <ele>709.28300000000002</ele>
        <time>2016-06-12T10:34:54Z</time>
      </trkpt>
      <trkpt lat="42.969465013593435" lon="-1.748844031244516">
        <ele>704.75199999999995</ele>
        <time>2016-06-12T10:34:58Z</time>
      </trkpt>
      <trkpt lat="42.969575989991426" lon="-1.748598022386432">
        <ele>703.52099999999996</ele>
        <time>2016-06-12T10:35:05Z</time>
      </trkpt>
      <trkpt lat="42.96973398886621" lon="-1.748453015461564">
        <ele>702.72799999999995</ele>
        <time>2016-06-12T10:35:11Z</time>
      </trkpt>
      <trkpt lat="42.969915037974715" lon="-1.748451003804803">
        <ele>702.39700000000005</ele>
        <time>2016-06-12T10:35:18Z</time>
      </trkpt>
      <trkpt lat="42.970105977728963" lon="-1.748452009633184">
        <ele>702.72299999999996</ele>
        <time>2016-06-12T10:35:26Z</time>
      </trkpt>
      <trkpt lat="42.970263976603746" lon="-1.748332986608148">
        <ele>704.32500000000005</ele>
        <time>2016-06-12T10:35:35Z</time>
      </trkpt>
      <trkpt lat="42.970283003523946" lon="-1.748059988021851">
        <ele>707.30799999999999</ele>
        <time>2016-06-12T10:35:45Z</time>
      </trkpt>
      <trkpt lat="42.970279986038804" lon="-1.747793024405837">
        <ele>708.55999999999995</ele>
        <time>2016-06-12T10:35:53Z</time>
      </trkpt>
      <trkpt lat="42.970304964110255" lon="-1.747524971142411">
        <ele>708.38199999999995</ele>
        <time>2016-06-12T10:35:58Z</time>
      </trkpt>
      <trkpt lat="42.970345029607415" lon="-1.747249038890004">
        <ele>707.51499999999999</ele>
        <time>2016-06-12T10:36:02Z</time>
      </trkpt>
      <trkpt lat="42.970391968265176" lon="-1.746957013383508">
        <ele>706.51400000000001</ele>
        <time>2016-06-12T10:36:06Z</time>
      </trkpt>
      <trkpt lat="42.970448965206742" lon="-1.746666999533773">
        <ele>706.56700000000001</ele>
        <time>2016-06-12T10:36:11Z</time>
      </trkpt>
      <trkpt lat="42.970482995733619" lon="-1.746407998725772">
        <ele>706.57600000000002</ele>
        <time>2016-06-12T10:36:16Z</time>
      </trkpt>
      <trkpt lat="42.970540998503566" lon="-1.746137011796236">
        <ele>707.36500000000001</ele>
        <time>2016-06-12T10:36:22Z</time>
      </trkpt>
      <trkpt lat="42.970574023202062" lon="-1.745881028473377">
        <ele>708.56200000000001</ele>
        <time>2016-06-12T10:36:28Z</time>
      </trkpt>
      <trkpt lat="42.970620039850473" lon="-1.745642982423306">
        <ele>708.55399999999997</ele>
        <time>2016-06-12T10:36:33Z</time>
      </trkpt>
      <trkpt lat="42.970663039013743" lon="-1.745364032685757">
        <ele>710.35599999999999</ele>
        <time>2016-06-12T10:36:39Z</time>
      </trkpt>
      <trkpt lat="42.97072296962142" lon="-1.74509396776557">
        <ele>710.51099999999997</ele>
        <time>2016-06-12T10:36:45Z</time>
      </trkpt>
      <trkpt lat="42.970775021240115" lon="-1.744841001927853">
        <ele>711.50800000000004</ele>
        <time>2016-06-12T10:36:51Z</time>
      </trkpt>
      <trkpt lat="42.970815002918243" lon="-1.744593987241387">
        <ele>713.39599999999996</ele>
        <time>2016-06-12T10:36:57Z</time>
      </trkpt>
      <trkpt lat="42.970864037051797" lon="-1.744332974776626">
        <ele>713.58799999999997</ele>
        <time>2016-06-12T10:37:03Z</time>
      </trkpt>
      <trkpt lat="42.97091600485146" lon="-1.744065005332232">
        <ele>714.56100000000004</ele>
        <time>2016-06-12T10:37:09Z</time>
      </trkpt>
      <trkpt lat="42.970965038985014" lon="-1.743809022009373">
        <ele>714.55999999999995</ele>
        <time>2016-06-12T10:37:15Z</time>
      </trkpt>
      <trkpt lat="42.971013989299536" lon="-1.743553960695863">
        <ele>714.57299999999998</ele>
        <time>2016-06-12T10:37:21Z</time>
      </trkpt>
      <trkpt lat="42.971054976806045" lon="-1.74326897598803">
        <ele>714.38199999999995</ele>
        <time>2016-06-12T10:37:27Z</time>
      </trkpt>
      <trkpt lat="42.971096970140934" lon="-1.742974016815424">
        <ele>715.59100000000001</ele>
        <time>2016-06-12T10:37:33Z</time>
      </trkpt>
      <trkpt lat="42.971128989011049" lon="-1.742692971602082">
        <ele>715.57799999999997</ele>
        <time>2016-06-12T10:37:39Z</time>
      </trkpt>
      <trkpt lat="42.971158996224403" lon="-1.742414021864533">
        <ele>717.56299999999999</ele>
        <time>2016-06-12T10:37:45Z</time>
      </trkpt>
      <trkpt lat="42.971209036186337" lon="-1.742144040763378">
        <ele>717.54399999999998</ele>
        <time>2016-06-12T10:37:51Z</time>
      </trkpt>
      <trkpt lat="42.971219010651112" lon="-1.741881016641855">
        <ele>718.31799999999998</ele>
        <time>2016-06-12T10:37:57Z</time>
      </trkpt>
      <trkpt lat="42.971234014257789" lon="-1.74161396920681">
        <ele>719.50800000000004</ele>
        <time>2016-06-12T10:38:03Z</time>
      </trkpt>
      <trkpt lat="42.971235020086169" lon="-1.741361003369093">
        <ele>719.52700000000004</ele>
        <time>2016-06-12T10:38:08Z</time>
      </trkpt>
      <trkpt lat="42.971233008429408" lon="-1.741077024489641">
        <ele>717.779</ele>
        <time>2016-06-12T10:38:13Z</time>
      </trkpt>
      <trkpt lat="42.971225967630744" lon="-1.740803020074964">
        <ele>717.38199999999995</ele>
        <time>2016-06-12T10:38:18Z</time>
      </trkpt>
      <trkpt lat="42.971253041177988" lon="-1.74053899012506">
        <ele>718.53099999999995</ele>
        <time>2016-06-12T10:38:23Z</time>
      </trkpt>
      <trkpt lat="42.971319006755948" lon="-1.740287030115724">
        <ele>718.58399999999995</ele>
        <time>2016-06-12T10:38:28Z</time>
      </trkpt>
      <trkpt lat="42.97141196206212" lon="-1.74004496075213">
        <ele>720.39300000000003</ele>
        <time>2016-06-12T10:38:33Z</time>
      </trkpt>
      <trkpt lat="42.971521010622382" lon="-1.73980699852109">
        <ele>719.55200000000002</ele>
        <time>2016-06-12T10:38:38Z</time>
      </trkpt>
      <trkpt lat="42.971617989242077" lon="-1.739595020189881">
        <ele>719.54899999999998</ele>
        <time>2016-06-12T10:38:42Z</time>
      </trkpt>
      <trkpt lat="42.971695018932223" lon="-1.739309029653668">
        <ele>718.77499999999998</ele>
        <time>2016-06-12T10:38:47Z</time>
      </trkpt>
      <trkpt lat="42.971714967861772" lon="-1.739024966955185">
        <ele>718.32799999999997</ele>
        <time>2016-06-12T10:38:52Z</time>
      </trkpt>
      <trkpt lat="42.97170901671052" lon="-1.738769989460707">
        <ele>718.51999999999998</ele>
        <time>2016-06-12T10:38:57Z</time>
      </trkpt>
      <trkpt lat="42.97170901671052" lon="-1.738505959510803">
        <ele>717.50800000000004</ele>
        <time>2016-06-12T10:39:02Z</time>
      </trkpt>
      <trkpt lat="42.971697030588984" lon="-1.738243019208312">
        <ele>717.57799999999997</ele>
        <time>2016-06-12T10:39:07Z</time>
      </trkpt>
      <trkpt lat="42.971686972305179" lon="-1.737953005358577">
        <ele>718.52999999999997</ele>
        <time>2016-06-12T10:39:12Z</time>
      </trkpt>
      <trkpt lat="42.971670040860772" lon="-1.737671038135886">
        <ele>720.68299999999999</ele>
        <time>2016-06-12T10:39:17Z</time>
      </trkpt>
      <trkpt lat="42.971664005890489" lon="-1.737395022064447">
        <ele>721.56200000000001</ele>
        <time>2016-06-12T10:39:22Z</time>
      </trkpt>
      <trkpt lat="42.971700970083475" lon="-1.737125040963292">
        <ele>721.57500000000005</ele>
        <time>2016-06-12T10:39:27Z</time>
      </trkpt>
      <trkpt lat="42.971738018095493" lon="-1.736835027113557">
        <ele>720.524</ele>
        <time>2016-06-12T10:39:32Z</time>
      </trkpt>
      <trkpt lat="42.971761990338564" lon="-1.736566973850131">
        <ele>721.57299999999998</ele>
        <time>2016-06-12T10:39:37Z</time>
      </trkpt>
      <trkpt lat="42.971794009208679" lon="-1.736280983313918">
        <ele>718.51999999999998</ele>
        <time>2016-06-12T10:39:42Z</time>
      </trkpt>
      <trkpt lat="42.971727959811687" lon="-1.736001027747989">
        <ele>716.58699999999999</ele>
        <time>2016-06-12T10:39:48Z</time>
      </trkpt>
      <trkpt lat="42.971567027270794" lon="-1.735808998346329">
        <ele>716.54200000000003</ele>
        <time>2016-06-12T10:39:53Z</time>
      </trkpt>
      <trkpt lat="42.971407016739249" lon="-1.735640019178391">
        <ele>716.32600000000002</ele>
        <time>2016-06-12T10:39:57Z</time>
      </trkpt>
      <trkpt lat="42.971250023692846" lon="-1.735481014475226">
        <ele>717.50800000000004</ele>
        <time>2016-06-12T10:40:01Z</time>
      </trkpt>
      <trkpt lat="42.971112979575992" lon="-1.735271969810128">
        <ele>717.38900000000001</ele>
        <time>2016-06-12T10:40:05Z</time>
      </trkpt>
      <trkpt lat="42.971018012613058" lon="-1.73503995873034">
        <ele>721.33100000000002</ele>
        <time>2016-06-12T10:40:09Z</time>
      </trkpt>
      <trkpt lat="42.970949029549956" lon="-1.734812976792455">
        <ele>722.59400000000005</ele>
        <time>2016-06-12T10:40:13Z</time>
      </trkpt>
      <trkpt lat="42.970863031223416" lon="-1.734595969319344">
        <ele>722.75300000000004</ele>
        <time>2016-06-12T10:40:17Z</time>
      </trkpt>
      <trkpt lat="42.970681982114911" lon="-1.734338980168104">
        <ele>719.99599999999998</ele>
        <time>2016-06-12T10:40:24Z</time>
      </trkpt>
      <trkpt lat="42.970566982403398" lon="-1.734138987958431">
        <ele>716.65499999999997</ele>
        <time>2016-06-12T10:40:28Z</time>
      </trkpt>
      <trkpt lat="42.970494981855154" lon="-1.733872024342418">
        <ele>715.79399999999998</ele>
        <time>2016-06-12T10:40:33Z</time>
      </trkpt>
      <trkpt lat="42.970484001561999" lon="-1.73362098634243">
        <ele>713.59100000000001</ele>
        <time>2016-06-12T10:40:37Z</time>
      </trkpt>
      <trkpt lat="42.970490958541632" lon="-1.733277998864651">
        <ele>708.03300000000002</ele>
        <time>2016-06-12T10:40:41Z</time>
      </trkpt>
      <trkpt lat="42.970491964370012" lon="-1.732951020821929">
        <ele>707.32299999999998</ele>
        <time>2016-06-12T10:40:44Z</time>
      </trkpt>
      <trkpt lat="42.970477966591716" lon="-1.732648015022278">
        <ele>706.31500000000005</ele>
        <time>2016-06-12T10:40:47Z</time>
      </trkpt>
      <trkpt lat="42.970471009612083" lon="-1.7323740106076">
        <ele>705.70799999999997</ele>
        <time>2016-06-12T10:40:50Z</time>
      </trkpt>
      <trkpt lat="42.970470003783703" lon="-1.732112998142839">
        <ele>705.78399999999999</ele>
        <time>2016-06-12T10:40:53Z</time>
      </trkpt>
      <trkpt lat="42.970476960763335" lon="-1.731817033141851">
        <ele>705.56600000000003</ele>
        <time>2016-06-12T10:40:57Z</time>
      </trkpt>
      <trkpt lat="42.970496993511915" lon="-1.731527019292116">
        <ele>705.54899999999998</ele>
        <time>2016-06-12T10:41:01Z</time>
      </trkpt>
      <trkpt lat="42.970525994896889" lon="-1.731226025149226">
        <ele>705.51800000000003</ele>
        <time>2016-06-12T10:41:05Z</time>
      </trkpt>
      <trkpt lat="42.970535969361663" lon="-1.730916984379292">
        <ele>704.58100000000002</ele>
        <time>2016-06-12T10:41:09Z</time>
      </trkpt>
      <trkpt lat="42.970551978796721" lon="-1.730640968307853">
        <ele>704.54999999999995</ele>
        <time>2016-06-12T10:41:14Z</time>
      </trkpt>
      <trkpt lat="42.970596989616752" lon="-1.730391019955277">
        <ele>706.57899999999995</ele>
        <time>2016-06-12T10:41:19Z</time>
      </trkpt>
      <trkpt lat="42.970628002658486" lon="-1.730136964470148">
        <ele>706.74599999999998</ele>
        <time>2016-06-12T10:41:23Z</time>
      </trkpt>
      <trkpt lat="42.970660021528602" lon="-1.729844016954303">
        <ele>707.58199999999999</ele>
        <time>2016-06-12T10:41:28Z</time>
      </trkpt>
      <trkpt lat="42.970691034570336" lon="-1.729577975347638">
        <ele>707.54300000000001</ele>
        <time>2016-06-12T10:41:33Z</time>
      </trkpt>
      <trkpt lat="42.970707966014743" lon="-1.729296008124948">
        <ele>708.51700000000005</ele>
        <time>2016-06-12T10:41:39Z</time>
      </trkpt>
      <trkpt lat="42.97074300237" lon="-1.729014962911606">
        <ele>709.50800000000004</ele>
        <time>2016-06-12T10:41:45Z</time>
      </trkpt>
      <trkpt lat="42.970759011805058" lon="-1.728768032044172">
        <ele>710.34900000000005</ele>
        <time>2016-06-12T10:41:50Z</time>
      </trkpt>
      <trkpt lat="42.97078600153327" lon="-1.728484975174069">
        <ele>709.52099999999996</ele>
        <time>2016-06-12T10:41:56Z</time>
      </trkpt>
      <trkpt lat="42.970769992098212" lon="-1.728202002122998">
        <ele>707.774</ele>
        <time>2016-06-12T10:42:01Z</time>
      </trkpt>
      <trkpt lat="42.970746019855142" lon="-1.727915005758405">
        <ele>706.37300000000005</ele>
        <time>2016-06-12T10:42:05Z</time>
      </trkpt>
      <trkpt lat="42.970710983499885" lon="-1.727604037150741">
        <ele>704.726</ele>
        <time>2016-06-12T10:42:09Z</time>
      </trkpt>
      <trkpt lat="42.970643006265163" lon="-1.727298013865948">
        <ele>703.54499999999996</ele>
        <time>2016-06-12T10:42:13Z</time>
      </trkpt>
      <trkpt lat="42.970559019595385" lon="-1.727042030543089">
        <ele>704.39400000000001</ele>
        <time>2016-06-12T10:42:16Z</time>
      </trkpt>
      <trkpt lat="42.97046204097569" lon="-1.726758973672986">
        <ele>704.34100000000001</ele>
        <time>2016-06-12T10:42:20Z</time>
      </trkpt>
      <trkpt lat="42.970371013507247" lon="-1.726502990350127">
        <ele>704.57799999999997</ele>
        <time>2016-06-12T10:42:24Z</time>
      </trkpt>
      <trkpt lat="42.970303958281875" lon="-1.726275002583861">
        <ele>703.53300000000002</ele>
        <time>2016-06-12T10:42:28Z</time>
      </trkpt>
      <trkpt lat="42.970218965783715" lon="-1.726009966805577">
        <ele>704.32600000000002</ele>
        <time>2016-06-12T10:42:33Z</time>
      </trkpt>
      <trkpt lat="42.970133973285556" lon="-1.725747026503086">
        <ele>705.50800000000004</ele>
        <time>2016-06-12T10:42:38Z</time>
      </trkpt>
      <trkpt lat="42.970045963302255" lon="-1.725484002381563">
        <ele>705.51800000000003</ele>
        <time>2016-06-12T10:42:43Z</time>
      </trkpt>
      <trkpt lat="42.969968011602759" lon="-1.725259032100439">
        <ele>705.58000000000004</ele>
        <time>2016-06-12T10:42:48Z</time>
      </trkpt>
      <trkpt lat="42.969898022711277" lon="-1.725024003535509">
        <ele>705.56299999999999</ele>
        <time>2016-06-12T10:42:54Z</time>
      </trkpt>
      <trkpt lat="42.969810012727976" lon="-1.724797021597624">
        <ele>703.58199999999999</ele>
        <time>2016-06-12T10:43:01Z</time>
      </trkpt>
      <trkpt lat="42.969738012179732" lon="-1.724539026618004">
        <ele>700.79499999999996</ele>
        <time>2016-06-12T10:43:32Z</time>
      </trkpt>
      <trkpt lat="42.969669029116631" lon="-1.724310033023357">
        <ele>701.58399999999995</ele>
        <time>2016-06-12T10:43:40Z</time>
      </trkpt>
      <trkpt lat="42.969603985548019" lon="-1.724063018336892">
        <ele>701.58299999999997</ele>
        <time>2016-06-12T10:43:47Z</time>
      </trkpt>
      <trkpt lat="42.969516981393099" lon="-1.723803011700511">
        <ele>701.57000000000005</ele>
        <time>2016-06-12T10:43:53Z</time>
      </trkpt>
      <trkpt lat="42.969421008601785" lon="-1.723581980913878">
        <ele>701.51400000000001</ele>
        <time>2016-06-12T10:43:59Z</time>
      </trkpt>
      <trkpt lat="42.969292011111975" lon="-1.723399003967643">
        <ele>702.55399999999997</ele>
        <time>2016-06-12T10:44:06Z</time>
      </trkpt>
      <trkpt lat="42.969228979200125" lon="-1.723164981231093">
        <ele>702.50900000000001</ele>
        <time>2016-06-12T10:44:13Z</time>
      </trkpt>
      <trkpt lat="42.969178017228842" lon="-1.722922995686531">
        <ele>704.50800000000004</ele>
        <time>2016-06-12T10:44:22Z</time>
      </trkpt>
      <trkpt lat="42.969097970053554" lon="-1.722701964899898">
        <ele>703.55200000000002</ele>
        <time>2016-06-12T10:44:48Z</time>
      </trkpt>
      <trkpt lat="42.969287987798452" lon="-1.722599035128951">
        <ele>713.79399999999998</ele>
        <time>2016-06-12T10:46:41Z</time>
      </trkpt>
      <trkpt lat="42.969452021643519" lon="-1.72249099239707">
        <ele>714.38699999999994</ele>
        <time>2016-06-12T10:47:57Z</time>
      </trkpt>
      <trkpt lat="42.969613960012794" lon="-1.722347997128964">
        <ele>718.48599999999999</ele>
        <time>2016-06-12T10:48:07Z</time>
      </trkpt>
      <trkpt lat="42.969789979979396" lon="-1.722235009074211">
        <ele>719.57899999999995</ele>
        <time>2016-06-12T10:48:18Z</time>
      </trkpt>
      <trkpt lat="42.969967005774379" lon="-1.722143981605768">
        <ele>713.51800000000003</ele>
        <time>2016-06-12T10:48:31Z</time>
      </trkpt>
      <trkpt lat="42.970126010477543" lon="-1.722024036571384">
        <ele>714.54700000000003</ele>
        <time>2016-06-12T10:48:42Z</time>
      </trkpt>
      <trkpt lat="42.970320973545313" lon="-1.72199796885252">
        <ele>718.39400000000001</ele>
        <time>2016-06-12T10:49:32Z</time>
      </trkpt>
      <trkpt lat="42.970519037917256" lon="-1.721950024366379">
        <ele>718.73099999999999</ele>
        <time>2016-06-12T10:49:42Z</time>
      </trkpt>
      <trkpt lat="42.970690028741956" lon="-1.7218660376966">
        <ele>719.36099999999999</ele>
        <time>2016-06-12T10:49:52Z</time>
      </trkpt>
      <trkpt lat="42.970874011516571" lon="-1.721897972747684">
        <ele>719.50699999999995</ele>
        <time>2016-06-12T10:50:02Z</time>
      </trkpt>
      <trkpt lat="42.971051959320903" lon="-1.721958993002772">
        <ele>720.30799999999999</ele>
        <time>2016-06-12T10:50:11Z</time>
      </trkpt>
      <trkpt lat="42.971227979287505" lon="-1.722023030743003">
        <ele>722.524</ele>
        <time>2016-06-12T10:50:21Z</time>
      </trkpt>
      <trkpt lat="42.971401987597346" lon="-1.721925968304277">
        <ele>724.56600000000003</ele>
        <time>2016-06-12T10:50:32Z</time>
      </trkpt>
      <trkpt lat="42.971528973430395" lon="-1.721748020499945">
        <ele>725.54899999999998</ele>
        <time>2016-06-12T10:50:39Z</time>
      </trkpt>
      <trkpt lat="42.971668029204011" lon="-1.721561020240188">
        <ele>726.56799999999998</ele>
        <time>2016-06-12T10:50:46Z</time>
      </trkpt>
      <trkpt lat="42.971822004765272" lon="-1.721417019143701">
        <ele>727.37099999999998</ele>
        <time>2016-06-12T10:50:55Z</time>
      </trkpt>
      <trkpt lat="42.971983021125197" lon="-1.721268994733691">
        <ele>729.54999999999995</ele>
        <time>2016-06-12T10:51:04Z</time>
      </trkpt>
      <trkpt lat="42.972135990858078" lon="-1.72113798558712">
        <ele>731.53899999999999</ele>
        <time>2016-06-12T10:51:12Z</time>
      </trkpt>
      <trkpt lat="42.972286026924849" lon="-1.720998007804155">
        <ele>731.58600000000001</ele>
        <time>2016-06-12T10:53:08Z</time>
      </trkpt>
      <trkpt lat="42.97244100831449" lon="-1.720845038071275">
        <ele>733.57299999999998</ele>
        <time>2016-06-12T10:53:15Z</time>
      </trkpt>
      <trkpt lat="42.972599007189274" lon="-1.72070799395442">
        <ele>734.38499999999999</ele>
        <time>2016-06-12T10:53:21Z</time>
      </trkpt>
      <trkpt lat="42.972766980528831" lon="-1.720532979816198">
        <ele>736.31299999999999</ele>
        <time>2016-06-12T10:53:27Z</time>
      </trkpt>
      <trkpt lat="42.972903018817306" lon="-1.720371041446924">
        <ele>736.50800000000004</ele>
        <time>2016-06-12T10:53:32Z</time>
      </trkpt>
      <trkpt lat="42.973053976893425" lon="-1.720210025086999">
        <ele>737.57799999999997</ele>
        <time>2016-06-12T10:53:37Z</time>
      </trkpt>
      <trkpt lat="42.973224967718124" lon="-1.720035010948777">
        <ele>738.58000000000004</ele>
        <time>2016-06-12T10:53:43Z</time>
      </trkpt>
      <trkpt lat="42.973391013219953" lon="-1.719833007082343">
        <ele>737.52300000000002</ele>
        <time>2016-06-12T10:53:48Z</time>
      </trkpt>
      <trkpt lat="42.973511964082718" lon="-1.719607030972838">
        <ele>736.58199999999999</ele>
        <time>2016-06-12T10:53:52Z</time>
      </trkpt>
      <trkpt lat="42.973584970459342" lon="-1.71935498714447">
        <ele>736.55499999999995</ele>
        <time>2016-06-12T10:53:56Z</time>
      </trkpt>
      <trkpt lat="42.973682032898068" lon="-1.719123981893063">
        <ele>736.524</ele>
        <time>2016-06-12T10:54:00Z</time>
      </trkpt>
      <trkpt lat="42.97379300929606" lon="-1.718910997733474">
        <ele>738.35299999999995</ele>
        <time>2016-06-12T10:54:04Z</time>
      </trkpt>
      <trkpt lat="42.973917983472347" lon="-1.718693990260363">
        <ele>741.34000000000003</ele>
        <time>2016-06-12T10:54:09Z</time>
      </trkpt>
      <trkpt lat="42.973984032869339" lon="-1.718457033857703">
        <ele>740.52300000000002</ele>
        <time>2016-06-12T10:54:19Z</time>
      </trkpt>
      <trkpt lat="42.974024014547467" lon="-1.718175988644362">
        <ele>739.58299999999997</ele>
        <time>2016-06-12T10:54:24Z</time>
      </trkpt>
      <trkpt lat="42.97409500926733" lon="-1.717876000329852">
        <ele>738.51099999999997</ele>
        <time>2016-06-12T10:54:28Z</time>
      </trkpt>
      <trkpt lat="42.974169021472335" lon="-1.717620017006993">
        <ele>736.70799999999997</ele>
        <time>2016-06-12T10:54:31Z</time>
      </trkpt>
      <trkpt lat="42.974218977615237" lon="-1.717322962358594">
        <ele>734.75300000000004</ele>
        <time>2016-06-12T10:54:34Z</time>
      </trkpt>
      <trkpt lat="42.974250996485353" lon="-1.717017022892833">
        <ele>734.53499999999997</ele>
        <time>2016-06-12T10:54:37Z</time>
      </trkpt>
      <trkpt lat="42.974256025627255" lon="-1.716726003214717">
        <ele>733.56799999999998</ele>
        <time>2016-06-12T10:54:40Z</time>
      </trkpt>
      <trkpt lat="42.974216965958476" lon="-1.716482006013393">
        <ele>733.34699999999998</ele>
        <time>2016-06-12T10:54:43Z</time>
      </trkpt>
      <trkpt lat="42.974123004823923" lon="-1.716214958578348">
        <ele>733.54999999999995</ele>
        <time>2016-06-12T10:54:47Z</time>
      </trkpt>
      <trkpt lat="42.974001970142126" lon="-1.716004991903901">
        <ele>732.53899999999999</ele>
        <time>2016-06-12T10:54:51Z</time>
      </trkpt>
      <trkpt lat="42.973856963217258" lon="-1.715812040492892">
        <ele>729.76800000000003</ele>
        <time>2016-06-12T10:54:55Z</time>
      </trkpt>
      <trkpt lat="42.973971962928772" lon="-1.716024018824101">
        <ele>731.57500000000005</ele>
        <time>2016-06-12T10:55:22Z</time>
      </trkpt>
      <trkpt lat="42.974086962640285" lon="-1.716214036568999">
        <ele>730.73099999999999</ele>
        <time>2016-06-12T10:55:29Z</time>
      </trkpt>
      <trkpt lat="42.974173966795206" lon="-1.716443030163646">
        <ele>730.56100000000004</ele>
        <time>2016-06-12T10:55:34Z</time>
      </trkpt>
      <trkpt lat="42.974230963736773" lon="-1.71671099960804">
        <ele>731.50699999999995</ele>
        <time>2016-06-12T10:55:39Z</time>
      </trkpt>
      <trkpt lat="42.974295001477003" lon="-1.716944016516209">
        <ele>730.30799999999999</ele>
        <time>2016-06-12T10:55:44Z</time>
      </trkpt>
      <trkpt lat="42.974495999515057" lon="-1.716999001801014">
        <ele>731.31399999999996</ele>
        <time>2016-06-12T10:55:50Z</time>
      </trkpt>
      <trkpt lat="42.974685011431575" lon="-1.717143002897501">
        <ele>730.51599999999996</ele>
        <time>2016-06-12T10:55:55Z</time>
      </trkpt>
      <trkpt lat="42.974879974499345" lon="-1.717253979295492">
        <ele>730.529</ele>
        <time>2016-06-12T10:56:00Z</time>
      </trkpt>
      <trkpt lat="42.975006038323045" lon="-1.717052981257439">
        <ele>731.548</ele>
        <time>2016-06-12T10:56:05Z</time>
      </trkpt>
      <trkpt lat="42.975088013336062" lon="-1.716776965186">
        <ele>734.31100000000004</ele>
        <time>2016-06-12T10:56:10Z</time>
      </trkpt>
      <trkpt lat="42.975207958370447" lon="-1.716564986854792">
        <ele>736.57000000000005</ele>
        <time>2016-06-12T10:56:15Z</time>
      </trkpt>
      <trkpt lat="42.97536201775074" lon="-1.716393996030092">
        <ele>737.58900000000006</ele>
        <time>2016-06-12T10:56:20Z</time>
      </trkpt>
      <trkpt lat="42.975546000525355" lon="-1.716377986595035">
        <ele>738.58600000000001</ele>
        <time>2016-06-12T10:56:45Z</time>
      </trkpt>
      <trkpt lat="42.975727971643209" lon="-1.716497009620071">
        <ele>738.58199999999999</ele>
        <time>2016-06-12T10:56:51Z</time>
      </trkpt>
      <trkpt lat="42.975893011316657" lon="-1.716627012938261">
        <ele>737.54300000000001</ele>
        <time>2016-06-12T10:56:56Z</time>
      </trkpt>
      <trkpt lat="42.976070959120989" lon="-1.716761039569974">
        <ele>735.51700000000005</ele>
        <time>2016-06-12T10:57:01Z</time>
      </trkpt>
      <trkpt lat="42.975866021588445" lon="-1.716637993231416">
        <ele>735.50800000000004</ele>
        <time>2016-06-12T10:57:17Z</time>
      </trkpt>
      <trkpt lat="42.975707016885281" lon="-1.71651603654027">
        <ele>736.53899999999999</ele>
        <time>2016-06-12T10:57:21Z</time>
      </trkpt>
      <trkpt lat="42.975532002747059" lon="-1.716396007686853">
        <ele>737.59100000000001</ele>
        <time>2016-06-12T10:57:26Z</time>
      </trkpt>
      <trkpt lat="42.975461008027196" lon="-1.716159973293543">
        <ele>738.71400000000006</ele>
        <time>2016-06-12T10:57:41Z</time>
      </trkpt>
      <trkpt lat="42.975530996918678" lon="-1.715930979698896">
        <ele>738.59299999999996</ele>
        <time>2016-06-12T10:57:49Z</time>
      </trkpt>
      <trkpt lat="42.975595034658909" lon="-1.715668961405754">
        <ele>737.56600000000003</ele>
        <time>2016-06-12T10:57:58Z</time>
      </trkpt>
      <trkpt lat="42.975639039650559" lon="-1.715419013053179">
        <ele>737.53499999999997</ele>
        <time>2016-06-12T10:58:04Z</time>
      </trkpt>
      <trkpt lat="42.975680027157068" lon="-1.715177027508616">
        <ele>735.73400000000004</ele>
        <time>2016-06-12T10:58:11Z</time>
      </trkpt>
      <trkpt lat="42.975714979693294" lon="-1.714914003387094">
        <ele>734.59100000000001</ele>
        <time>2016-06-12T10:58:17Z</time>
      </trkpt>
      <trkpt lat="42.975751021876931" lon="-1.714665982872248">
        <ele>734.51300000000003</ele>
        <time>2016-06-12T10:58:23Z</time>
      </trkpt>
      <trkpt lat="42.975822016596794" lon="-1.71441100537777">
        <ele>736.54300000000001</ele>
        <time>2016-06-12T10:58:31Z</time>
      </trkpt>
      <trkpt lat="42.975927963852882" lon="-1.714187962934375">
        <ele>737.50699999999995</ele>
        <time>2016-06-12T10:58:38Z</time>
      </trkpt>
      <trkpt lat="42.976017985492945" lon="-1.713971961289644">
        <ele>737.50800000000004</ele>
        <time>2016-06-12T10:58:46Z</time>
      </trkpt>
      <trkpt lat="42.976045981049538" lon="-1.713708015158773">
        <ele>737.58199999999999</ele>
        <time>2016-06-12T10:58:55Z</time>
      </trkpt>
      <trkpt lat="42.976101972162724" lon="-1.713462006300688">
        <ele>738.53399999999999</ele>
        <time>2016-06-12T10:59:03Z</time>
      </trkpt>
      <trkpt lat="42.976030977442861" lon="-1.713219014927745">
        <ele>739.51700000000005</ele>
        <time>2016-06-12T10:59:12Z</time>
      </trkpt>
      <trkpt lat="42.975893011316657" lon="-1.713047018274665">
        <ele>744.31600000000003</ele>
        <time>2016-06-12T11:01:31Z</time>
      </trkpt>
      <trkpt lat="42.97581497579813" lon="-1.712796986103058">
        <ele>745.399</ele>
        <time>2016-06-12T11:01:41Z</time>
      </trkpt>
      <trkpt lat="42.975639039650559" lon="-1.712688021361828">
        <ele>744.56799999999998</ele>
        <time>2016-06-12T11:01:48Z</time>
      </trkpt>
      <trkpt lat="42.975484980270267" lon="-1.712544020265341">
        <ele>747.58699999999999</ele>
        <time>2016-06-12T11:01:54Z</time>
      </trkpt>
      <trkpt lat="42.975303009152412" lon="-1.712398007512093">
        <ele>744.51400000000001</ele>
        <time>2016-06-12T11:02:00Z</time>
      </trkpt>
      <trkpt lat="42.975142998620868" lon="-1.712282001972199">
        <ele>740.78899999999999</ele>
        <time>2016-06-12T11:02:05Z</time>
      </trkpt>
      <trkpt lat="42.975016012787819" lon="-1.71209299005568">
        <ele>742.70600000000002</ele>
        <time>2016-06-12T11:02:20Z</time>
      </trkpt>
      <trkpt lat="42.974833035841584" lon="-1.711990982294083">
        <ele>741.52599999999995</ele>
        <time>2016-06-12T11:02:26Z</time>
      </trkpt>
      <trkpt lat="42.974645029753447" lon="-1.712028030306101">
        <ele>740.70799999999997</ele>
        <time>2016-06-12T11:02:32Z</time>
      </trkpt>
      <trkpt lat="42.974448977038264" lon="-1.711995005607605">
        <ele>737.55899999999997</ele>
        <time>2016-06-12T11:02:39Z</time>
      </trkpt>
      <trkpt lat="42.974250996485353" lon="-1.711921999230981">
        <ele>738.41099999999994</ele>
        <time>2016-06-12T11:02:46Z</time>
      </trkpt>
      <trkpt lat="42.974061984568834" lon="-1.711822003126144">
        <ele>742.57399999999996</ele>
        <time>2016-06-12T11:02:53Z</time>
      </trkpt>
      <trkpt lat="42.973855035379529" lon="-1.711758971214294">
        <ele>743.74300000000005</ele>
        <time>2016-06-12T11:03:01Z</time>
      </trkpt>
      <trkpt lat="42.973675997927785" lon="-1.71172795817256">
        <ele>745.33600000000001</ele>
        <time>2016-06-12T11:03:08Z</time>
      </trkpt>
      <trkpt lat="42.973474999889731" lon="-1.711712032556534">
        <ele>747.59500000000003</ele>
        <time>2016-06-12T11:03:16Z</time>
      </trkpt>
      <trkpt lat="42.973295040428638" lon="-1.711669033393264">
        <ele>749.37400000000002</ele>
        <time>2016-06-12T11:03:30Z</time>
      </trkpt>
      <trkpt lat="42.973152967169881" lon="-1.711512040346861">
        <ele>751.53099999999995</ele>
        <time>2016-06-12T11:03:46Z</time>
      </trkpt>
      <trkpt lat="42.973067974671721" lon="-1.711290003731847">
        <ele>753.53499999999997</ele>
        <time>2016-06-12T11:04:02Z</time>
      </trkpt>
      <trkpt lat="42.972926991060376" lon="-1.711136028170586">
        <ele>756.58600000000001</ele>
        <time>2016-06-12T11:04:11Z</time>
      </trkpt>
      <trkpt lat="42.97280503436923" lon="-1.710941987112165">
        <ele>756.51400000000001</ele>
        <time>2016-06-12T11:04:19Z</time>
      </trkpt>
      <trkpt lat="42.972688023000956" lon="-1.710735959932208">
        <ele>761.30799999999999</ele>
        <time>2016-06-12T11:04:30Z</time>
      </trkpt>
      <trkpt lat="42.972596995532513" lon="-1.710504032671452">
        <ele>760.72400000000005</ele>
        <time>2016-06-12T11:04:41Z</time>
      </trkpt>
      <trkpt lat="42.972518038004637" lon="-1.710262969136238">
        <ele>761.56600000000003</ele>
        <time>2016-06-12T11:04:53Z</time>
      </trkpt>
      <trkpt lat="42.972401026636362" lon="-1.710059959441423">
        <ele>758.58900000000006</ele>
        <time>2016-06-12T11:05:04Z</time>
      </trkpt>
      <trkpt lat="42.972235986962914" lon="-1.709940014407039">
        <ele>759.35799999999995</ele>
        <time>2016-06-12T11:05:13Z</time>
      </trkpt>
      <trkpt lat="42.972147976979613" lon="-1.709718983620405">
        <ele>763.59100000000001</ele>
        <time>2016-06-12T11:05:24Z</time>
      </trkpt>
      <trkpt lat="42.972167003899813" lon="-1.709451014176011">
        <ele>771.78999999999996</ele>
        <time>2016-06-12T11:06:27Z</time>
      </trkpt>
      <trkpt lat="42.972207991406322" lon="-1.709209028631449">
        <ele>774.399</ele>
        <time>2016-06-12T11:06:40Z</time>
      </trkpt>
      <trkpt lat="42.972192987799644" lon="-1.708960002288222">
        <ele>776.57600000000002</ele>
        <time>2016-06-12T11:06:52Z</time>
      </trkpt>
      <trkpt lat="42.972216038033366" lon="-1.708694966509938">
        <ele>771.39400000000001</ele>
        <time>2016-06-12T11:07:02Z</time>
      </trkpt>
      <trkpt lat="42.972173038870096" lon="-1.708445018157363">
        <ele>773.75699999999995</ele>
        <time>2016-06-12T11:07:14Z</time>
      </trkpt>
      <trkpt lat="42.972178990021348" lon="-1.708187023177743">
        <ele>776.52200000000005</ele>
        <time>2016-06-12T11:07:26Z</time>
      </trkpt>
      <trkpt lat="42.972164992243052" lon="-1.707942020148039">
        <ele>780.50800000000004</ele>
        <time>2016-06-12T11:07:37Z</time>
      </trkpt>
      <trkpt lat="42.972116963937879" lon="-1.707700034603477">
        <ele>777.54999999999995</ele>
        <time>2016-06-12T11:07:46Z</time>
      </trkpt>
      <trkpt lat="42.972050998359919" lon="-1.707440027967095">
        <ele>772.94200000000001</ele>
        <time>2016-06-12T11:07:57Z</time>
      </trkpt>
      <trkpt lat="42.97201001085341" lon="-1.707191001623869">
        <ele>770.57500000000005</ele>
        <time>2016-06-12T11:08:08Z</time>
      </trkpt>
      <trkpt lat="42.972021996974945" lon="-1.706933006644249">
        <ele>769.64400000000001</ele>
        <time>2016-06-12T11:08:20Z</time>
      </trkpt>
      <trkpt lat="42.971999030560255" lon="-1.706666965037584">
        <ele>778.22699999999998</ele>
        <time>2016-06-12T11:08:29Z</time>
      </trkpt>
      <trkpt lat="42.972040018066764" lon="-1.706412993371487">
        <ele>783.55600000000004</ele>
        <time>2016-06-12T11:08:36Z</time>
      </trkpt>
      <trkpt lat="42.972058961167932" lon="-1.706147035583854">
        <ele>781.52499999999998</ele>
        <time>2016-06-12T11:08:43Z</time>
      </trkpt>
      <trkpt lat="42.972056027501822" lon="-1.705901026725769">
        <ele>777.51199999999994</ele>
        <time>2016-06-12T11:08:49Z</time>
      </trkpt>
      <trkpt lat="42.97201001085341" lon="-1.705648982897401">
        <ele>777.77499999999998</ele>
        <time>2016-06-12T11:08:55Z</time>
      </trkpt>
      <trkpt lat="42.971905991435051" lon="-1.705439016222954">
        <ele>777.52800000000002</ele>
        <time>2016-06-12T11:09:01Z</time>
      </trkpt>
      <trkpt lat="42.971770958974957" lon="-1.705270959064364">
        <ele>776.01999999999998</ele>
        <time>2016-06-12T11:10:25Z</time>
      </trkpt>
      <trkpt lat="42.971661994233727" lon="-1.705061998218298">
        <ele>777.50800000000004</ele>
        <time>2016-06-12T11:10:32Z</time>
      </trkpt>
      <trkpt lat="42.971569038927555" lon="-1.704828981310129">
        <ele>778.58799999999997</ele>
        <time>2016-06-12T11:10:38Z</time>
      </trkpt>
      <trkpt lat="42.971508018672466" lon="-1.704588001593947">
        <ele>777.59000000000003</ele>
        <time>2016-06-12T11:10:44Z</time>
      </trkpt>
      <trkpt lat="42.971417997032404" lon="-1.704350039362907">
        <ele>774.56299999999999</ele>
        <time>2016-06-12T11:10:50Z</time>
      </trkpt>
      <trkpt lat="42.971296962350607" lon="-1.70407997444272">
        <ele>771.77200000000005</ele>
        <time>2016-06-12T11:10:55Z</time>
      </trkpt>
      <trkpt lat="42.971211969852448" lon="-1.703857015818358">
        <ele>770.53499999999997</ele>
        <time>2016-06-12T11:11:00Z</time>
      </trkpt>
      <trkpt lat="42.971117002889514" lon="-1.703632967546582">
        <ele>769.53399999999999</ele>
        <time>2016-06-12T11:11:05Z</time>
      </trkpt>
      <trkpt lat="42.97102396376431" lon="-1.703401962295175">
        <ele>771.52300000000002</ele>
        <time>2016-06-12T11:11:10Z</time>
      </trkpt>
      <trkpt lat="42.970971995964646" lon="-1.703154025599361">
        <ele>777.28999999999996</ele>
        <time>2016-06-12T11:11:16Z</time>
      </trkpt>
      <trkpt lat="42.970949029549956" lon="-1.702884966507554">
        <ele>774.55399999999997</ele>
        <time>2016-06-12T11:11:24Z</time>
      </trkpt>
      <trkpt lat="42.970826989039779" lon="-1.702699977904558">
        <ele>777.35599999999999</ele>
        <time>2016-06-12T11:11:30Z</time>
      </trkpt>
      <trkpt lat="42.970653986558318" lon="-1.70261699706316">
        <ele>784.31100000000004</ele>
        <time>2016-06-12T11:11:36Z</time>
      </trkpt>
      <trkpt lat="42.970472015440464" lon="-1.702524041756988">
        <ele>791.10799999999995</ele>
        <time>2016-06-12T11:11:42Z</time>
      </trkpt>
      <trkpt lat="42.97029297798872" lon="-1.702520018443465">
        <ele>793.346</ele>
        <time>2016-06-12T11:11:47Z</time>
      </trkpt>
      <trkpt lat="42.970083011314273" lon="-1.702512977644801">
        <ele>792.548</ele>
        <time>2016-06-12T11:11:54Z</time>
      </trkpt>
      <trkpt lat="42.969881007447839" lon="-1.702477019280195">
        <ele>790.52099999999996</ele>
        <time>2016-06-12T11:11:59Z</time>
      </trkpt>
      <trkpt lat="42.969694007188082" lon="-1.702479030936956">
        <ele>790.52999999999997</ele>
        <time>2016-06-12T11:12:03Z</time>
      </trkpt>
      <trkpt lat="42.969486974179745" lon="-1.702455980703235">
        <ele>789.54300000000001</ele>
        <time>2016-06-12T11:12:08Z</time>
      </trkpt>
      <trkpt lat="42.969297040253878" lon="-1.702377023175359">
        <ele>786.572</ele>
        <time>2016-06-12T11:12:13Z</time>
      </trkpt>
      <trkpt lat="42.969084978103638" lon="-1.702388003468514">
        <ele>781.66099999999994</ele>
        <time>2016-06-12T11:12:21Z</time>
      </trkpt>
      <trkpt lat="42.968879034742713" lon="-1.702458998188376">
        <ele>780.73800000000006</ele>
        <time>2016-06-12T11:12:28Z</time>
      </trkpt>
      <trkpt lat="42.968698991462588" lon="-1.702419016510248">
        <ele>784.37099999999998</ele>
        <time>2016-06-12T11:12:51Z</time>
      </trkpt>
      <trkpt lat="42.96850897371769" lon="-1.702389009296894">
        <ele>786.34100000000001</ele>
        <time>2016-06-12T11:13:02Z</time>
      </trkpt>
      <trkpt lat="42.968320967629552" lon="-1.702303010970354">
        <ele>787.71500000000003</ele>
        <time>2016-06-12T11:13:12Z</time>
      </trkpt>
      <trkpt lat="42.968132039532065" lon="-1.702308040112257">
        <ele>791.70799999999997</ele>
        <time>2016-06-12T11:13:22Z</time>
      </trkpt>
      <trkpt lat="42.967951996251941" lon="-1.702337041497231">
        <ele>792.35799999999995</ele>
        <time>2016-06-12T11:13:33Z</time>
      </trkpt>
      <trkpt lat="42.967744041234255" lon="-1.702354978770018">
        <ele>792.38999999999999</ele>
        <time>2016-06-12T11:13:41Z</time>
      </trkpt>
      <trkpt lat="42.967544971033931" lon="-1.702383980154991">
        <ele>794.39300000000003</ele>
        <time>2016-06-12T11:13:48Z</time>
      </trkpt>
      <trkpt lat="42.967336010187864" lon="-1.702395966276527">
        <ele>792.39200000000005</ele>
        <time>2016-06-12T11:13:54Z</time>
      </trkpt>
      <trkpt lat="42.967125037685037" lon="-1.702457992359996">
        <ele>791.53499999999997</ele>
        <time>2016-06-12T11:13:59Z</time>
      </trkpt>
      <trkpt lat="42.966924961656332" lon="-1.702525969594717">
        <ele>788.73400000000004</ele>
        <time>2016-06-12T11:14:06Z</time>
      </trkpt>
      <trkpt lat="42.966754976660013" lon="-1.702610040083528">
        <ele>787.34299999999996</ele>
        <time>2016-06-12T11:14:14Z</time>
      </trkpt>
      <trkpt lat="42.96655498445034" lon="-1.702653039246798">
        <ele>784.58000000000004</ele>
        <time>2016-06-12T11:14:21Z</time>
      </trkpt>
      <trkpt lat="42.966362033039331" lon="-1.702651027590036">
        <ele>784.59500000000003</ele>
        <time>2016-06-12T11:14:27Z</time>
      </trkpt>
      <trkpt lat="42.966157011687756" lon="-1.702665025368333">
        <ele>788.649</ele>
        <time>2016-06-12T11:14:32Z</time>
      </trkpt>
      <trkpt lat="42.965948972851038" lon="-1.702645998448134">
        <ele>784.72299999999996</ele>
        <time>2016-06-12T11:14:37Z</time>
      </trkpt>
      <trkpt lat="42.965776976197958" lon="-1.702716993167996">
        <ele>783.50800000000004</ele>
        <time>2016-06-12T11:14:42Z</time>
      </trkpt>
      <trkpt lat="42.965601040050387" lon="-1.702793017029762">
        <ele>779.88</ele>
        <time>2016-06-12T11:14:48Z</time>
      </trkpt>
      <trkpt lat="42.965377997606993" lon="-1.702808020636439">
        <ele>777.52200000000005</ele>
        <time>2016-06-12T11:14:53Z</time>
      </trkpt>
      <trkpt lat="42.965196026489139" lon="-1.702888989821076">
        <ele>775.56500000000005</ele>
        <time>2016-06-12T11:14:58Z</time>
      </trkpt>
      <trkpt lat="42.96498597599566" lon="-1.702931988984346">
        <ele>775.37400000000002</ele>
        <time>2016-06-12T11:15:06Z</time>
      </trkpt>
      <trkpt lat="42.964759999886155" lon="-1.702968031167984">
        <ele>777.51700000000005</ele>
        <time>2016-06-12T11:15:11Z</time>
      </trkpt>
      <trkpt lat="42.964562019333243" lon="-1.703031985089183">
        <ele>777.57600000000002</ele>
        <time>2016-06-12T11:15:16Z</time>
      </trkpt>
      <trkpt lat="42.964377030730247" lon="-1.703075990080833">
        <ele>777.59500000000003</ele>
        <time>2016-06-12T11:15:21Z</time>
      </trkpt>
      <trkpt lat="42.964186007156968" lon="-1.703102979809046">
        <ele>777.73199999999997</ele>
        <time>2016-06-12T11:15:26Z</time>
      </trkpt>
      <trkpt lat="42.964001018553972" lon="-1.703129969537258">
        <ele>776.31100000000004</ele>
        <time>2016-06-12T11:15:33Z</time>
      </trkpt>
      <trkpt lat="42.963820975273848" lon="-1.703176992014051">
        <ele>775.52099999999996</ele>
        <time>2016-06-12T11:15:40Z</time>
      </trkpt>
      <trkpt lat="42.963646966964006" lon="-1.703273970633745">
        <ele>775.70299999999997</ele>
        <time>2016-06-12T11:16:00Z</time>
      </trkpt>
      <trkpt lat="42.963447980582714" lon="-1.703318981453776">
        <ele>778.30799999999999</ele>
        <time>2016-06-12T11:16:11Z</time>
      </trkpt>
      <trkpt lat="42.963256035000086" lon="-1.703382013365626">
        <ele>779.52200000000005</ele>
        <time>2016-06-12T11:16:19Z</time>
      </trkpt>
      <trkpt lat="42.963055958971381" lon="-1.703424006700516">
        <ele>779.54399999999998</ele>
        <time>2016-06-12T11:16:27Z</time>
      </trkpt>
      <trkpt lat="42.962865019217134" lon="-1.703439010307193">
        <ele>779.53700000000003</ele>
        <time>2016-06-12T11:16:34Z</time>
      </trkpt>
      <trkpt lat="42.962690005078912" lon="-1.70354101806879">
        <ele>780.56600000000003</ele>
        <time>2016-06-12T11:16:41Z</time>
      </trkpt>
      <trkpt lat="42.962510967627168" lon="-1.703587034717202">
        <ele>780.38900000000001</ele>
        <time>2016-06-12T11:16:46Z</time>
      </trkpt>
      <trkpt lat="42.962314998731017" lon="-1.703629028052092">
        <ele>782.53800000000001</ele>
        <time>2016-06-12T11:16:51Z</time>
      </trkpt>
      <trkpt lat="42.96210503205657" lon="-1.703616036102176">
        <ele>783.54700000000003</ele>
        <time>2016-06-12T11:16:56Z</time>
      </trkpt>
      <trkpt lat="42.961909985169768" lon="-1.703717960044742">
        <ele>785.57399999999996</ele>
        <time>2016-06-12T11:17:02Z</time>
      </trkpt>
      <trkpt lat="42.961709992960095" lon="-1.703771017491818">
        <ele>789.31600000000003</ele>
        <time>2016-06-12T11:17:08Z</time>
      </trkpt>
      <trkpt lat="42.961518969386816" lon="-1.703828014433384">
        <ele>791.57600000000002</ele>
        <time>2016-06-12T11:17:15Z</time>
      </trkpt>
      <trkpt lat="42.96131101436913" lon="-1.70386397279799">
        <ele>795.31299999999999</ele>
        <time>2016-06-12T11:17:22Z</time>
      </trkpt>
      <trkpt lat="42.961101969704032" lon="-1.703961035236716">
        <ele>795.50800000000004</ele>
        <time>2016-06-12T11:17:28Z</time>
      </trkpt>
      <trkpt lat="42.960940031334758" lon="-1.704108975827694">
        <ele>792.53200000000004</ele>
        <time>2016-06-12T11:17:33Z</time>
      </trkpt>
      <trkpt lat="42.960772980004549" lon="-1.704214001074433">
        <ele>785.62400000000002</ele>
        <time>2016-06-12T11:17:41Z</time>
      </trkpt>
      <trkpt lat="42.960585979744792" lon="-1.704206960275769">
        <ele>783.577</ele>
        <time>2016-06-12T11:17:47Z</time>
      </trkpt>
      <trkpt lat="42.9603679664433" lon="-1.704235039651394">
        <ele>782.74599999999998</ele>
        <time>2016-06-12T11:17:52Z</time>
      </trkpt>
      <trkpt lat="42.960165040567517" lon="-1.704241996631026">
        <ele>780.76900000000001</ele>
        <time>2016-06-12T11:17:56Z</time>
      </trkpt>
      <trkpt lat="42.959949038922787" lon="-1.704254988580942">
        <ele>776.63800000000003</ele>
        <time>2016-06-12T11:18:01Z</time>
      </trkpt>
      <trkpt lat="42.959766983985901" lon="-1.7042519710958">
        <ele>775.71699999999998</ele>
        <time>2016-06-12T11:18:06Z</time>
      </trkpt>
      <trkpt lat="42.959547964856029" lon="-1.704267980530858">
        <ele>772.88400000000001</ele>
        <time>2016-06-12T11:18:11Z</time>
      </trkpt>
      <trkpt lat="42.959341015666723" lon="-1.70424803160131">
        <ele>768.86300000000006</ele>
        <time>2016-06-12T11:18:15Z</time>
      </trkpt>
      <trkpt lat="42.959150997921824" lon="-1.704268986359239">
        <ele>767.54399999999998</ele>
        <time>2016-06-12T11:18:19Z</time>
      </trkpt>
      <trkpt lat="42.958963997662067" lon="-1.70431500300765">
        <ele>766.51800000000003</ele>
        <time>2016-06-12T11:18:23Z</time>
      </trkpt>
      <trkpt lat="42.958761993795633" lon="-1.704303016886115">
        <ele>767.50800000000004</ele>
        <time>2016-06-12T11:18:27Z</time>
      </trkpt>
      <trkpt lat="42.958556972444057" lon="-1.704221041873097">
        <ele>764.78700000000003</ele>
        <time>2016-06-12T11:18:32Z</time>
      </trkpt>
      <trkpt lat="42.958364021033049" lon="-1.70416597276926">
        <ele>762.75900000000001</ele>
        <time>2016-06-12T11:18:36Z</time>
      </trkpt>
      <trkpt lat="42.958180960267782" lon="-1.704177958890796">
        <ele>755.74199999999996</ele>
        <time>2016-06-12T11:19:58Z</time>
      </trkpt>
      <trkpt lat="42.95798297971487" lon="-1.704145018011332">
        <ele>755.57100000000003</ele>
        <time>2016-06-12T11:20:08Z</time>
      </trkpt>
      <trkpt lat="42.957806959748268" lon="-1.704038986936212">
        <ele>759.34400000000005</ele>
        <time>2016-06-12T11:20:16Z</time>
      </trkpt>
      <trkpt lat="42.957644015550613" lon="-1.70388400554657">
        <ele>761.39300000000003</ele>
        <time>2016-06-12T11:20:25Z</time>
      </trkpt>
      <trkpt lat="42.957482999190688" lon="-1.703745033591986">
        <ele>758.78200000000004</ele>
        <time>2016-06-12T11:20:35Z</time>
      </trkpt>
      <trkpt lat="42.957313014194369" lon="-1.703607989475131">
        <ele>760.59900000000005</ele>
        <time>2016-06-12T11:20:43Z</time>
      </trkpt>
      <trkpt lat="42.95714202336967" lon="-1.703507993370295">
        <ele>767.55600000000004</ele>
        <time>2016-06-12T11:20:54Z</time>
      </trkpt>
      <trkpt lat="42.956959968432784" lon="-1.70341202057898">
        <ele>767.35900000000004</ele>
        <time>2016-06-12T11:21:05Z</time>
      </trkpt>
      <trkpt lat="42.956799035891891" lon="-1.703300038352609">
        <ele>774.51400000000001</ele>
        <time>2016-06-12T11:21:18Z</time>
      </trkpt>
      <trkpt lat="42.95662603341043" lon="-1.703191995620728">
        <ele>780.50800000000004</ele>
        <time>2016-06-12T11:21:31Z</time>
      </trkpt>
      <trkpt lat="42.956463005393744" lon="-1.703060986474156">
        <ele>779.37599999999998</ele>
        <time>2016-06-12T11:21:43Z</time>
      </trkpt>
      <trkpt lat="42.956292014569044" lon="-1.702926959842444">
        <ele>783.35799999999995</ele>
        <time>2016-06-12T11:21:56Z</time>
      </trkpt>
      <trkpt lat="42.956111971288919" lon="-1.702821012586355">
        <ele>787.55100000000004</ele>
        <time>2016-06-12T11:22:07Z</time>
      </trkpt>
      <trkpt lat="42.955942992120981" lon="-1.702720010653138">
        <ele>789.59000000000003</ele>
        <time>2016-06-12T11:22:17Z</time>
      </trkpt>
      <trkpt lat="42.95581198297441" lon="-1.702522030100226">
        <ele>788.53300000000002</ele>
        <time>2016-06-12T11:22:24Z</time>
      </trkpt>
      <trkpt lat="42.955636968836188" lon="-1.702383980154991">
        <ele>786.55200000000002</ele>
        <time>2016-06-12T11:22:29Z</time>
      </trkpt>
      <trkpt lat="42.955453991889954" lon="-1.70229303650558">
        <ele>788.57100000000003</ele>
        <time>2016-06-12T11:22:34Z</time>
      </trkpt>
      <trkpt lat="42.955255005508661" lon="-1.702237967401743">
        <ele>787.798</ele>
        <time>2016-06-12T11:22:39Z</time>
      </trkpt>
      <trkpt lat="42.955068005248904" lon="-1.702146017923951">
        <ele>788.58399999999995</ele>
        <time>2016-06-12T11:22:45Z</time>
      </trkpt>
      <trkpt lat="42.954914029687643" lon="-1.701985001564026">
        <ele>787.30700000000002</ele>
        <time>2016-06-12T11:22:49Z</time>
      </trkpt>
      <trkpt lat="42.954746978357434" lon="-1.701819039881229">
        <ele>784.71699999999998</ele>
        <time>2016-06-12T11:22:53Z</time>
      </trkpt>
      <trkpt lat="42.95462996698916" lon="-1.701589962467551">
        <ele>783.50800000000004</ele>
        <time>2016-06-12T11:22:58Z</time>
      </trkpt>
      <trkpt lat="42.954481020569801" lon="-1.701442021876574">
        <ele>785.51900000000001</ele>
        <time>2016-06-12T11:23:03Z</time>
      </trkpt>
      <trkpt lat="42.954359985888004" lon="-1.701215961948037">
        <ele>783.79100000000005</ele>
        <time>2016-06-12T11:23:09Z</time>
      </trkpt>
      <trkpt lat="42.954230988398194" lon="-1.701040025800467">
        <ele>781.59400000000005</ele>
        <time>2016-06-12T11:23:13Z</time>
      </trkpt>
      <trkpt lat="42.954069972038269" lon="-1.700902981683612">
        <ele>780.54300000000001</ele>
        <time>2016-06-12T11:23:19Z</time>
      </trkpt>
      <trkpt lat="42.953901998698711" lon="-1.700744982808828">
        <ele>780.38599999999997</ele>
        <time>2016-06-12T11:23:25Z</time>
      </trkpt>
      <trkpt lat="42.953786998987198" lon="-1.70053199864924">
        <ele>776.54499999999996</ele>
        <time>2016-06-12T11:23:58Z</time>
      </trkpt>
      <trkpt lat="42.953773001208901" lon="-1.700268974527717">
        <ele>773.79399999999998</ele>
        <time>2016-06-12T11:24:12Z</time>
      </trkpt>
      <trkpt lat="42.953869979828596" lon="-1.700050961226225">
        <ele>767.76099999999997</ele>
        <time>2016-06-12T11:24:35Z</time>
      </trkpt>
      <trkpt lat="42.95392001979053" lon="-1.699805958196521">
        <ele>765.45600000000002</ele>
        <time>2016-06-12T11:25:28Z</time>
      </trkpt>
      <trkpt lat="42.953931000083685" lon="-1.699547963216901">
        <ele>758.35900000000004</ele>
        <time>2016-06-12T11:25:51Z</time>
      </trkpt>
      <trkpt lat="42.953994031995535" lon="-1.699316035956144">
        <ele>755.61400000000003</ele>
        <time>2016-06-12T11:26:13Z</time>
      </trkpt>
      <trkpt lat="42.953972993418574" lon="-1.69907103292644">
        <ele>754.70799999999997</ele>
        <time>2016-06-12T11:26:36Z</time>
      </trkpt>
      <trkpt lat="42.953870985656977" lon="-1.698838016018271">
        <ele>752.64599999999996</ele>
        <time>2016-06-12T11:26:57Z</time>
      </trkpt>
      <trkpt lat="42.953746011480689" lon="-1.698632994666696">
        <ele>752.75800000000004</ele>
        <time>2016-06-12T11:27:05Z</time>
      </trkpt>
      <trkpt lat="42.953630005940795" lon="-1.69842797331512">
        <ele>751.56100000000004</ele>
        <time>2016-06-12T11:27:12Z</time>
      </trkpt>
      <trkpt lat="42.953530009835958" lon="-1.698217000812292">
        <ele>750.58000000000004</ele>
        <time>2016-06-12T11:27:21Z</time>
      </trkpt>
      <trkpt lat="42.953539984300733" lon="-1.697970991954207">
        <ele>745.73299999999995</ele>
        <time>2016-06-12T11:27:28Z</time>
      </trkpt>
      <trkpt lat="42.953519029542804" lon="-1.697695981711149">
        <ele>739.37199999999996</ele>
        <time>2016-06-12T11:27:48Z</time>
      </trkpt>
      <trkpt lat="42.953430013731122" lon="-1.697475034743547">
        <ele>736.55100000000004</ele>
        <time>2016-06-12T11:27:57Z</time>
      </trkpt>
      <trkpt lat="42.953305039554834" lon="-1.69728803448379">
        <ele>734.57799999999997</ele>
        <time>2016-06-12T11:28:05Z</time>
      </trkpt>
      <trkpt lat="42.953182999044657" lon="-1.697070021182299">
        <ele>732.57799999999997</ele>
        <time>2016-06-12T11:28:13Z</time>
      </trkpt>
      <trkpt lat="42.95306196436286" lon="-1.696869023144245">
        <ele>731.53300000000002</ele>
        <time>2016-06-12T11:28:22Z</time>
      </trkpt>
      <trkpt lat="42.952941013500094" lon="-1.696679005399346">
        <ele>732.32600000000002</ele>
        <time>2016-06-12T11:28:32Z</time>
      </trkpt>
      <trkpt lat="42.952827019616961" lon="-1.696484964340925">
        <ele>732.70799999999997</ele>
        <time>2016-06-12T11:28:43Z</time>
      </trkpt>
      <trkpt lat="42.952728029340506" lon="-1.696280026808381">
        <ele>735.58799999999997</ele>
        <time>2016-06-12T11:29:03Z</time>
      </trkpt>
      <trkpt lat="42.952635996043682" lon="-1.696060001850128">
        <ele>739.32000000000005</ele>
        <time>2016-06-12T11:29:14Z</time>
      </trkpt>
      <trkpt lat="42.952526025474072" lon="-1.695841988548636">
        <ele>741.56299999999999</ele>
        <time>2016-06-12T11:29:23Z</time>
      </trkpt>
      <trkpt lat="42.952452013269067" lon="-1.695605032145977">
        <ele>743.52200000000005</ele>
        <time>2016-06-12T11:29:35Z</time>
      </trkpt>
      <trkpt lat="42.952365009114146" lon="-1.695382995530963">
        <ele>743.72500000000002</ele>
        <time>2016-06-12T11:29:43Z</time>
      </trkpt>
      <trkpt lat="42.952258978039026" lon="-1.69518300332129">
        <ele>741.524</ele>
        <time>2016-06-12T11:29:53Z</time>
      </trkpt>
      <trkpt lat="42.952161999419332" lon="-1.694958033040166">
        <ele>739.71299999999997</ele>
        <time>2016-06-12T11:30:06Z</time>
      </trkpt>
      <trkpt lat="42.952067032456398" lon="-1.694742031395435">
        <ele>741.50999999999999</ele>
        <time>2016-06-12T11:30:16Z</time>
      </trkpt>
      <trkpt lat="42.951947003602982" lon="-1.694522006437182">
        <ele>738.53200000000004</ele>
        <time>2016-06-12T11:30:25Z</time>
      </trkpt>
      <trkpt lat="42.951827980577946" lon="-1.69430298730731">
        <ele>737.59199999999998</ele>
        <time>2016-06-12T11:30:33Z</time>
      </trkpt>
      <trkpt lat="42.951725972816348" lon="-1.694081034511328">
        <ele>735.51099999999997</ele>
        <time>2016-06-12T11:30:43Z</time>
      </trkpt>
      <trkpt lat="42.951605021953583" lon="-1.693884981796145">
        <ele>737.50800000000004</ele>
        <time>2016-06-12T11:30:54Z</time>
      </trkpt>
      <trkpt lat="42.9515350330621" lon="-1.69363503344357">
        <ele>739.59400000000005</ele>
        <time>2016-06-12T11:31:05Z</time>
      </trkpt>
      <trkpt lat="42.951434031128883" lon="-1.693418025970459">
        <ele>736.73599999999999</ele>
        <time>2016-06-12T11:31:16Z</time>
      </trkpt>
      <trkpt lat="42.951335040852427" lon="-1.693209987133741">
        <ele>736.59900000000005</ele>
        <time>2016-06-12T11:31:24Z</time>
      </trkpt>
      <trkpt lat="42.95123303309083" lon="-1.693003959953785">
        <ele>733.53800000000001</ele>
        <time>2016-06-12T11:31:45Z</time>
      </trkpt>
      <trkpt lat="42.951129013672471" lon="-1.692792987450957">
        <ele>734.59100000000001</ele>
        <time>2016-06-12T11:31:52Z</time>
      </trkpt>
      <trkpt lat="42.951031029224396" lon="-1.692557036876679">
        <ele>737.58000000000004</ele>
        <time>2016-06-12T11:32:01Z</time>
      </trkpt>
      <trkpt lat="42.950909994542599" lon="-1.692356038838625">
        <ele>737.76900000000001</ele>
        <time>2016-06-12T11:32:09Z</time>
      </trkpt>
      <trkpt lat="42.950807986781001" lon="-1.69213299639523">
        <ele>737.52599999999995</ele>
        <time>2016-06-12T11:32:17Z</time>
      </trkpt>
      <trkpt lat="42.950688041746616" lon="-1.691924035549164">
        <ele>737.72299999999996</ele>
        <time>2016-06-12T11:32:26Z</time>
      </trkpt>
      <trkpt lat="42.950574969872832" lon="-1.691708033904433">
        <ele>739.58299999999997</ele>
        <time>2016-06-12T11:32:37Z</time>
      </trkpt>
      <trkpt lat="42.950488971546292" lon="-1.6914870031178">
        <ele>741.31100000000004</ele>
        <time>2016-06-12T11:32:54Z</time>
      </trkpt>
      <trkpt lat="42.950377995148301" lon="-1.691243005916476">
        <ele>740.50800000000004</ele>
        <time>2016-06-12T11:33:09Z</time>
      </trkpt>
      <trkpt lat="42.950330972671509" lon="-1.691004037857056">
        <ele>742.36300000000006</ele>
        <time>2016-06-12T11:33:16Z</time>
      </trkpt>
      <trkpt lat="42.950304988771677" lon="-1.69075601734221">
        <ele>744.58500000000004</ele>
        <time>2016-06-12T11:33:26Z</time>
      </trkpt>
      <trkpt lat="42.950207004323602" lon="-1.690530963242054">
        <ele>739.71799999999996</ele>
        <time>2016-06-12T11:33:39Z</time>
      </trkpt>
      <trkpt lat="42.950141038745642" lon="-1.690294006839395">
        <ele>742.75699999999995</ele>
        <time>2016-06-12T11:33:51Z</time>
      </trkpt>
      <trkpt lat="42.95007498934865" lon="-1.690055038779974">
        <ele>742.57000000000005</ele>
        <time>2016-06-12T11:34:01Z</time>
      </trkpt>
      <trkpt lat="42.950021009892225" lon="-1.689814981073141">
        <ele>743.57899999999995</ele>
        <time>2016-06-12T11:34:08Z</time>
      </trkpt>
      <trkpt lat="42.949942974373698" lon="-1.689570983871818">
        <ele>744.548</ele>
        <time>2016-06-12T11:34:16Z</time>
      </trkpt>
      <trkpt lat="42.949869967997074" lon="-1.689325980842114">
        <ele>741.51499999999999</ele>
        <time>2016-06-12T11:34:27Z</time>
      </trkpt>
      <trkpt lat="42.949818000197411" lon="-1.689085001125932">
        <ele>743.39400000000001</ele>
        <time>2016-06-12T11:34:40Z</time>
      </trkpt>
      <trkpt lat="42.949726972728968" lon="-1.688872016966343">
        <ele>741.55700000000002</ele>
        <time>2016-06-12T11:35:08Z</time>
      </trkpt>
      <trkpt lat="42.949638962745667" lon="-1.688643023371697">
        <ele>742.52200000000005</ele>
        <time>2016-06-12T11:35:23Z</time>
      </trkpt>
      <trkpt lat="42.949555981904268" lon="-1.68841696344316">
        <ele>742.30799999999999</ele>
        <time>2016-06-12T11:35:38Z</time>
      </trkpt>
      <trkpt lat="42.949453974142671" lon="-1.688192998990417">
        <ele>742.51999999999998</ele>
        <time>2016-06-12T11:35:51Z</time>
      </trkpt>
      <trkpt lat="42.949397983029485" lon="-1.687955036759377">
        <ele>743.37199999999996</ele>
        <time>2016-06-12T11:36:06Z</time>
      </trkpt>
      <trkpt lat="42.949325982481241" lon="-1.68772797100246">
        <ele>748.375</ele>
        <time>2016-06-12T11:36:23Z</time>
      </trkpt>
      <trkpt lat="42.949248030781746" lon="-1.687500989064574">
        <ele>750.53399999999999</ele>
        <time>2016-06-12T11:36:41Z</time>
      </trkpt>
      <trkpt lat="42.949166977778077" lon="-1.687279036268592">
        <ele>751.56700000000001</ele>
        <time>2016-06-12T11:37:03Z</time>
      </trkpt>
      <trkpt lat="42.949090031906962" lon="-1.687041996046901">
        <ele>756.57600000000002</ele>
        <time>2016-06-12T11:37:26Z</time>
      </trkpt>
      <trkpt lat="42.949002021923661" lon="-1.686819959431887">
        <ele>762.57500000000005</ele>
        <time>2016-06-12T11:38:06Z</time>
      </trkpt>
      <trkpt lat="42.948917029425502" lon="-1.68658996000886">
        <ele>766.35199999999998</ele>
        <time>2016-06-12T11:38:28Z</time>
      </trkpt>
      <trkpt lat="42.948805969208479" lon="-1.686383010819554">
        <ele>766.54899999999998</ele>
        <time>2016-06-12T11:38:50Z</time>
      </trkpt>
      <trkpt lat="42.948812004178762" lon="-1.686134990304709">
        <ele>770.40200000000004</ele>
        <time>2016-06-12T11:39:00Z</time>
      </trkpt>
      <trkpt lat="42.948787026107311" lon="-1.685844976454973">
        <ele>769.92200000000003</ele>
        <time>2016-06-12T11:39:08Z</time>
      </trkpt>
      <trkpt lat="42.948776967823505" lon="-1.685565020889044">
        <ele>769.50800000000004</ele>
        <time>2016-06-12T11:39:13Z</time>
      </trkpt>
      <trkpt lat="42.948750983923674" lon="-1.685271989554167">
        <ele>769.44500000000005</ele>
        <time>2016-06-12T11:39:19Z</time>
      </trkpt>
      <trkpt lat="42.948732040822506" lon="-1.6849559918046">
        <ele>767.93700000000001</ele>
        <time>2016-06-12T11:39:24Z</time>
      </trkpt>
      <trkpt lat="42.948705973103642" lon="-1.684639994055033">
        <ele>765.99000000000001</ele>
        <time>2016-06-12T11:39:28Z</time>
      </trkpt>
      <trkpt lat="42.948685018345714" lon="-1.684325002133846">
        <ele>762.76900000000001</ele>
        <time>2016-06-12T11:39:32Z</time>
      </trkpt>
      <trkpt lat="42.94863497838378" lon="-1.684083016589284">
        <ele>762.35199999999998</ele>
        <time>2016-06-12T11:39:38Z</time>
      </trkpt>
      <trkpt lat="42.948791971430182" lon="-1.683911019936204">
        <ele>763.77099999999996</ele>
        <time>2016-06-12T11:40:03Z</time>
      </trkpt>
      <trkpt lat="42.948894985020161" lon="-1.68368898332119">
        <ele>763.30999999999995</ele>
        <time>2016-06-12T11:40:09Z</time>
      </trkpt>
      <trkpt lat="42.948962040245533" lon="-1.683452026918531">
        <ele>763.73699999999997</ele>
        <time>2016-06-12T11:40:14Z</time>
      </trkpt>
      <trkpt lat="42.949044015258551" lon="-1.683214986696839">
        <ele>755.78200000000004</ele>
        <time>2016-06-12T11:40:20Z</time>
      </trkpt>
      <trkpt lat="42.949058013036847" lon="-1.682966966181994">
        <ele>754.34299999999996</ele>
        <time>2016-06-12T11:40:25Z</time>
      </trkpt>
      <trkpt lat="42.949048038572073" lon="-1.682704025879502">
        <ele>756.51700000000005</ele>
        <time>2016-06-12T11:40:31Z</time>
      </trkpt>
      <trkpt lat="42.949038986116648" lon="-1.682448964565992">
        <ele>755.30799999999999</ele>
        <time>2016-06-12T11:40:37Z</time>
      </trkpt>
      <trkpt lat="42.949057007208467" lon="-1.682179989293218">
        <ele>752.78899999999999</ele>
        <time>2016-06-12T11:40:41Z</time>
      </trkpt>
      <trkpt lat="42.949048960581422" lon="-1.68188301846385">
        <ele>753.91099999999994</ele>
        <time>2016-06-12T11:40:47Z</time>
      </trkpt>
      <trkpt lat="42.948921974748373" lon="-1.681679002940655">
        <ele>749.38400000000001</ele>
        <time>2016-06-12T11:40:53Z</time>
      </trkpt>
      <trkpt lat="42.948749978095293" lon="-1.681567020714283">
        <ele>743.65300000000002</ele>
        <time>2016-06-12T11:41:03Z</time>
      </trkpt>
      <trkpt lat="42.948559960350394" lon="-1.681468030437827">
        <ele>742.37599999999998</ele>
        <time>2016-06-12T11:41:12Z</time>
      </trkpt>
      <trkpt lat="42.948392992839217" lon="-1.681337021291256">
        <ele>742.52499999999998</ele>
        <time>2016-06-12T11:41:34Z</time>
      </trkpt>
      <trkpt lat="42.948257038369775" lon="-1.68115396052599">
        <ele>738.74400000000003</ele>
        <time>2016-06-12T11:41:44Z</time>
      </trkpt>
      <trkpt lat="42.94816198758781" lon="-1.680944999679923">
        <ele>736.74099999999999</ele>
        <time>2016-06-12T11:41:54Z</time>
      </trkpt>
      <trkpt lat="42.948099039494991" lon="-1.680713994428515">
        <ele>733.56299999999999</ele>
        <time>2016-06-12T11:43:18Z</time>
      </trkpt>
      <trkpt lat="42.948006000369787" lon="-1.68048600666225">
        <ele>731.74400000000003</ele>
        <time>2016-06-12T11:43:24Z</time>
      </trkpt>
      <trkpt lat="42.947949003428221" lon="-1.680233962833881">
        <ele>730.31799999999998</ele>
        <time>2016-06-12T11:43:30Z</time>
      </trkpt>
      <trkpt lat="42.947885971516371" lon="-1.679991977289319">
        <ele>727.50800000000004</ele>
        <time>2016-06-12T11:43:35Z</time>
      </trkpt>
      <trkpt lat="42.947855964303017" lon="-1.679744962602854">
        <ele>727.577</ele>
        <time>2016-06-12T11:43:41Z</time>
      </trkpt>
      <trkpt lat="42.947866022586823" lon="-1.679447991773486">
        <ele>724.59900000000005</ele>
        <time>2016-06-12T11:43:47Z</time>
      </trkpt>
      <trkpt lat="42.947844984009862" lon="-1.67919896543026">
        <ele>724.77200000000005</ele>
        <time>2016-06-12T11:43:52Z</time>
      </trkpt>
      <trkpt lat="42.947954032570124" lon="-1.678993022069335">
        <ele>721.56100000000004</ele>
        <time>2016-06-12T11:43:58Z</time>
      </trkpt>
      <trkpt lat="42.947772983461618" lon="-1.678916998207569">
        <ele>717.68399999999997</ele>
        <time>2016-06-12T11:44:16Z</time>
      </trkpt>
      <trkpt lat="42.947581959888339" lon="-1.678921021521092">
        <ele>713.65300000000002</ele>
        <time>2016-06-12T11:44:21Z</time>
      </trkpt>
      <trkpt lat="42.947402000427246" lon="-1.678942982107401">
        <ele>713.51199999999994</ele>
        <time>2016-06-12T11:44:26Z</time>
      </trkpt>
      <trkpt lat="42.947205025702715" lon="-1.678928984329104">
        <ele>713.73900000000003</ele>
        <time>2016-06-12T11:44:32Z</time>
      </trkpt>
      <trkpt lat="42.946996986865997" lon="-1.678935019299388">
        <ele>707.86199999999997</ele>
        <time>2016-06-12T11:44:37Z</time>
      </trkpt>
      <trkpt lat="42.946805041283369" lon="-1.67891900986433">
        <ele>705.38300000000004</ele>
        <time>2016-06-12T11:44:42Z</time>
      </trkpt>
      <trkpt lat="42.946620974689722" lon="-1.678828988224268">
        <ele>701.51099999999997</ele>
        <time>2016-06-12T11:44:48Z</time>
      </trkpt>
      <trkpt lat="42.94646599330008" lon="-1.678695967420936">
        <ele>699.70799999999997</ele>
        <time>2016-06-12T11:44:53Z</time>
      </trkpt>
      <trkpt lat="42.946297014132142" lon="-1.678547021001577">
        <ele>697.52700000000004</ele>
        <time>2016-06-12T11:44:58Z</time>
      </trkpt>
      <trkpt lat="42.946148989722133" lon="-1.678372006863356">
        <ele>694.67899999999997</ele>
        <time>2016-06-12T11:45:04Z</time>
      </trkpt>
      <trkpt lat="42.94599199667573" lon="-1.678228005766869">
        <ele>690.59199999999998</ele>
        <time>2016-06-12T11:45:11Z</time>
      </trkpt>
      <trkpt lat="42.945838021114469" lon="-1.678096996620297">
        <ele>683.98099999999999</ele>
        <time>2016-06-12T11:45:16Z</time>
      </trkpt>
      <trkpt lat="42.94569100253284" lon="-1.677942015230656">
        <ele>681.55399999999997</ele>
        <time>2016-06-12T11:45:22Z</time>
      </trkpt>
      <trkpt lat="42.94558497145772" lon="-1.677704975008965">
        <ele>676.74300000000005</ele>
        <time>2016-06-12T11:45:28Z</time>
      </trkpt>
      <trkpt lat="42.945482963696122" lon="-1.677474975585938">
        <ele>673.52200000000005</ele>
        <time>2016-06-12T11:45:37Z</time>
      </trkpt>
      <trkpt lat="42.94541398063302" lon="-1.677242964506149">
        <ele>668.75900000000001</ele>
        <time>2016-06-12T11:45:44Z</time>
      </trkpt>
      <trkpt lat="42.94536997564137" lon="-1.67698597535491">
        <ele>662.81500000000005</ele>
        <time>2016-06-12T11:45:52Z</time>
      </trkpt>
      <trkpt lat="42.945324964821339" lon="-1.676747007295489">
        <ele>657.76499999999999</ele>
        <time>2016-06-12T11:45:59Z</time>
      </trkpt>
      <trkpt lat="42.945436025038362" lon="-1.676546009257436">
        <ele>647.61099999999999</ele>
        <time>2016-06-12T11:46:08Z</time>
      </trkpt>
      <trkpt lat="42.945631993934512" lon="-1.676452970132232">
        <ele>644.70799999999997</ele>
        <time>2016-06-12T11:46:24Z</time>
      </trkpt>
      <trkpt lat="42.945816982537508" lon="-1.676412988454104">
        <ele>643.79200000000003</ele>
        <time>2016-06-12T11:46:29Z</time>
      </trkpt>
      <trkpt lat="42.946023009717464" lon="-1.676324978470802">
        <ele>640.86400000000003</ele>
        <time>2016-06-12T11:46:34Z</time>
      </trkpt>
      <trkpt lat="42.946224007755518" lon="-1.676220959052444">
        <ele>638.55700000000002</ele>
        <time>2016-06-12T11:46:39Z</time>
      </trkpt>
      <trkpt lat="42.946426011621952" lon="-1.676158010959625">
        <ele>637.55600000000004</ele>
        <time>2016-06-12T11:46:44Z</time>
      </trkpt>
      <trkpt lat="42.946640001609921" lon="-1.676132027059794">
        <ele>640.35900000000004</ele>
        <time>2016-06-12T11:46:48Z</time>
      </trkpt>
      <trkpt lat="42.946821972727776" lon="-1.67610302567482">
        <ele>638.71799999999996</ele>
        <time>2016-06-12T11:46:51Z</time>
      </trkpt>
      <trkpt lat="42.947063036262989" lon="-1.676048962399364">
        <ele>636.43700000000001</ele>
        <time>2016-06-12T11:46:55Z</time>
      </trkpt>
      <trkpt lat="42.947277026250958" lon="-1.675978973507881">
        <ele>635.78399999999999</ele>
        <time>2016-06-12T11:46:59Z</time>
      </trkpt>
      <trkpt lat="42.947491016238928" lon="-1.675852993503213">
        <ele>630.81899999999996</ele>
        <time>2016-06-12T11:47:03Z</time>
      </trkpt>
      <trkpt lat="42.947653038427234" lon="-1.67567596770823">
        <ele>625.60900000000004</ele>
        <time>2016-06-12T11:47:06Z</time>
      </trkpt>
      <trkpt lat="42.947799973189831" lon="-1.675479998812079">
        <ele>622.71900000000005</ele>
        <time>2016-06-12T11:47:09Z</time>
      </trkpt>
      <trkpt lat="42.947955038398504" lon="-1.675296016037464">
        <ele>621.50800000000004</ele>
        <time>2016-06-12T11:47:12Z</time>
      </trkpt>
      <trkpt lat="42.948126029223204" lon="-1.675105998292565">
        <ele>619.77200000000005</ele>
        <time>2016-06-12T11:47:16Z</time>
      </trkpt>
      <trkpt lat="42.948323003947735" lon="-1.67492100968957">
        <ele>617.51400000000001</ele>
        <time>2016-06-12T11:47:20Z</time>
      </trkpt>
      <trkpt lat="42.948504975065589" lon="-1.674714982509613">
        <ele>615.59699999999998</ele>
        <time>2016-06-12T11:47:24Z</time>
      </trkpt>
      <trkpt lat="42.948663979768753" lon="-1.674523958936334">
        <ele>613.79600000000005</ele>
        <time>2016-06-12T11:47:28Z</time>
      </trkpt>
      <trkpt lat="42.948818961158395" lon="-1.67432002723217">
        <ele>612.56899999999996</ele>
        <time>2016-06-12T11:47:32Z</time>
      </trkpt>
      <trkpt lat="42.948947958648205" lon="-1.674097990617156">
        <ele>610.78800000000001</ele>
        <time>2016-06-12T11:47:35Z</time>
      </trkpt>
      <trkpt lat="42.949058013036847" lon="-1.673895986750722">
        <ele>609.58699999999999</ele>
        <time>2016-06-12T11:47:38Z</time>
      </trkpt>
      <trkpt lat="42.94919203966856" lon="-1.673620976507664">
        <ele>608.59400000000005</ele>
        <time>2016-06-12T11:47:42Z</time>
      </trkpt>
      <trkpt lat="42.949302010238171" lon="-1.673424001783133">
        <ele>608.56799999999998</ele>
        <time>2016-06-12T11:47:45Z</time>
      </trkpt>
      <trkpt lat="42.949432013556361" lon="-1.673183022066951">
        <ele>608.54200000000003</ele>
        <time>2016-06-12T11:47:49Z</time>
      </trkpt>
      <trkpt lat="42.949548019096255" lon="-1.67296702042222">
        <ele>608.52599999999995</ele>
        <time>2016-06-12T11:47:53Z</time>
      </trkpt>
      <trkpt lat="42.949655978009105" lon="-1.672732997685671">
        <ele>609.10799999999995</ele>
        <time>2016-06-12T11:47:57Z</time>
      </trkpt>
      <trkpt lat="42.94977399520576" lon="-1.672496041283011">
        <ele>611.36699999999996</ele>
        <time>2016-06-12T11:48:02Z</time>
      </trkpt>
      <trkpt lat="42.949852030724287" lon="-1.672264030203223">
        <ele>609.79899999999998</ele>
        <time>2016-06-12T11:48:07Z</time>
      </trkpt>
      <trkpt lat="42.949920007959008" lon="-1.672026989981532">
        <ele>608.59199999999998</ele>
        <time>2016-06-12T11:48:11Z</time>
      </trkpt>
      <trkpt lat="42.949981028214097" lon="-1.671754997223616">
        <ele>609.58100000000002</ele>
        <time>2016-06-12T11:48:15Z</time>
      </trkpt>
      <trkpt lat="42.950039030984044" lon="-1.671470012515783">
        <ele>609.58399999999995</ele>
        <time>2016-06-12T11:48:20Z</time>
      </trkpt>
      <trkpt lat="42.950025033205748" lon="-1.671222997829318">
        <ele>607.75300000000004</ele>
        <time>2016-06-12T11:48:24Z</time>
      </trkpt>
      <trkpt lat="42.950016986578703" lon="-1.670959973707795">
        <ele>605.55200000000002</ele>
        <time>2016-06-12T11:48:28Z</time>
      </trkpt>
      <trkpt lat="42.949973987415433" lon="-1.670694015920162">
        <ele>601.08900000000006</ele>
        <time>2016-06-12T11:48:32Z</time>
      </trkpt>
      <trkpt lat="42.949964012950659" lon="-1.670391010120511">
        <ele>598.36400000000003</ele>
        <time>2016-06-12T11:48:37Z</time>
      </trkpt>
      <trkpt lat="42.949980022385716" lon="-1.670068977400661">
        <ele>597.70600000000002</ele>
        <time>2016-06-12T11:48:41Z</time>
      </trkpt>
      <trkpt lat="42.94998899102211" lon="-1.669817017391324">
        <ele>595.61599999999999</ele>
        <time>2016-06-12T11:48:44Z</time>
      </trkpt>
      <trkpt lat="42.950015980750322" lon="-1.669476963579655">
        <ele>592.60799999999995</ele>
        <time>2016-06-12T11:48:48Z</time>
      </trkpt>
      <trkpt lat="42.950038025155663" lon="-1.669200025498867">
        <ele>590.71699999999998</ele>
        <time>2016-06-12T11:48:51Z</time>
      </trkpt>
      <trkpt lat="42.950040036812425" lon="-1.668945970013738">
        <ele>587.899</ele>
        <time>2016-06-12T11:48:54Z</time>
      </trkpt>
      <trkpt lat="42.950017992407084" lon="-1.668664002791047">
        <ele>584.71199999999999</ele>
        <time>2016-06-12T11:48:58Z</time>
      </trkpt>
      <trkpt lat="42.949901986867189" lon="-1.668449006974697">
        <ele>584.59100000000001</ele>
        <time>2016-06-12T11:49:17Z</time>
      </trkpt>
      <trkpt lat="42.949795033782721" lon="-1.668231999501586">
        <ele>580.76400000000001</ele>
        <time>2016-06-12T11:49:24Z</time>
      </trkpt>
      <trkpt lat="42.94979696162045" lon="-1.667941985651851">
        <ele>579.38300000000004</ele>
        <time>2016-06-12T11:49:30Z</time>
      </trkpt>
      <trkpt lat="42.949771983548999" lon="-1.667687008157373">
        <ele>580.56200000000001</ele>
        <time>2016-06-12T11:49:34Z</time>
      </trkpt>
      <trkpt lat="42.949890000745654" lon="-1.663927976042032">
        <ele>575.09400000000005</ele>
        <time>2015-08-22T11:08:14Z</time>
      </trkpt>
      <trkpt lat="42.949898969382048" lon="-1.663853963837028">
        <ele>574.28999999999996</ele>
        <time>2015-08-22T11:08:15Z</time>
      </trkpt>
      <trkpt lat="42.949905004352331" lon="-1.663779029622674">
        <ele>573.49400000000003</ele>
        <time>2015-08-22T11:08:16Z</time>
      </trkpt>
      <trkpt lat="42.949907016009092" lon="-1.663704011589289">
        <ele>571.68700000000001</ele>
        <time>2015-08-22T11:08:17Z</time>
      </trkpt>
      <trkpt lat="42.949901986867189" lon="-1.663634022697806">
        <ele>570.88</ele>
        <time>2015-08-22T11:08:18Z</time>
      </trkpt>
      <trkpt lat="42.949894024059176" lon="-1.663569984957576">
        <ele>569.82100000000003</ele>
        <time>2015-08-22T11:08:19Z</time>
      </trkpt>
      <trkpt lat="42.949884971603751" lon="-1.663510976359248">
        <ele>569.05799999999999</ele>
        <time>2015-08-22T11:08:20Z</time>
      </trkpt>
      <trkpt lat="42.949877008795738" lon="-1.663454985246062">
        <ele>568.41099999999994</ele>
        <time>2015-08-22T11:08:21Z</time>
      </trkpt>
      <trkpt lat="42.949869967997074" lon="-1.663402011618018">
        <ele>567.82100000000003</ele>
        <time>2015-08-22T11:08:22Z</time>
      </trkpt>
      <trkpt lat="42.949828980490565" lon="-1.66338499635458">
        <ele>567.20299999999997</ele>
        <time>2015-08-22T11:08:23Z</time>
      </trkpt>
      <trkpt lat="42.949772989377379" lon="-1.663382984697819">
        <ele>566.40800000000002</ele>
        <time>2015-08-22T11:08:24Z</time>
      </trkpt>
      <trkpt lat="42.949715992435813" lon="-1.66338499635458">
        <ele>565.81200000000001</ele>
        <time>2015-08-22T11:08:25Z</time>
      </trkpt>
      <trkpt lat="42.949609039351344" lon="-1.663365969434381">
        <ele>565.86099999999999</ele>
        <time>2015-08-22T11:08:27Z</time>
      </trkpt>
      <trkpt lat="42.949505019932985" lon="-1.663335040211678">
        <ele>565.49699999999996</ele>
        <time>2015-08-22T11:08:29Z</time>
      </trkpt>
      <trkpt lat="42.949451040476561" lon="-1.663320036605001">
        <ele>565.06100000000004</ele>
        <time>2015-08-22T11:08:30Z</time>
      </trkpt>
      <trkpt lat="42.949396977201104" lon="-1.663305032998323">
        <ele>564.62400000000002</ele>
        <time>2015-08-22T11:08:31Z</time>
      </trkpt>
      <trkpt lat="42.949341991916299" lon="-1.663290029391646">
        <ele>564.04700000000003</ele>
        <time>2015-08-22T11:08:32Z</time>
      </trkpt>
      <trkpt lat="42.949286000803113" lon="-1.66327896527946">
        <ele>563.22799999999995</ele>
        <time>2015-08-22T11:08:33Z</time>
      </trkpt>
      <trkpt lat="42.949226992204785" lon="-1.663273014128208">
        <ele>562.68499999999995</ele>
        <time>2015-08-22T11:08:34Z</time>
      </trkpt>
      <trkpt lat="42.949171001091599" lon="-1.663271002471447">
        <ele>562.01300000000003</ele>
        <time>2015-08-22T11:08:35Z</time>
      </trkpt>
      <trkpt lat="42.949116015806794" lon="-1.663272008299828">
        <ele>561.24300000000005</ele>
        <time>2015-08-22T11:08:36Z</time>
      </trkpt>
      <trkpt lat="42.949064970016479" lon="-1.663275025784969">
        <ele>560.40700000000004</ele>
        <time>2015-08-22T11:08:37Z</time>
      </trkpt>
      <trkpt lat="42.949015013873577" lon="-1.66327603161335">
        <ele>559.40800000000002</ele>
        <time>2015-08-22T11:08:38Z</time>
      </trkpt>
      <trkpt lat="42.948962040245533" lon="-1.663277959451079">
        <ele>558.43200000000002</ele>
        <time>2015-08-22T11:08:39Z</time>
      </trkpt>
      <trkpt lat="42.948908982798457" lon="-1.663280976936221">
        <ele>557.62099999999998</ele>
        <time>2015-08-22T11:08:40Z</time>
      </trkpt>
      <trkpt lat="42.948853997513652" lon="-1.663283994421363">
        <ele>555.697</ele>
        <time>2015-08-22T11:08:41Z</time>
      </trkpt>
      <trkpt lat="42.948801023885608" lon="-1.663285000249744">
        <ele>554.87099999999998</ele>
        <time>2015-08-22T11:08:42Z</time>
      </trkpt>
      <trkpt lat="42.948744026944041" lon="-1.663286006078124">
        <ele>553.89400000000001</ele>
        <time>2015-08-22T11:08:43Z</time>
      </trkpt>
      <trkpt lat="42.948686024174094" lon="-1.663287011906505">
        <ele>552.83699999999999</ele>
        <time>2015-08-22T11:08:44Z</time>
      </trkpt>
      <trkpt lat="42.948628021404147" lon="-1.663287011906505">
        <ele>551.86800000000005</ele>
        <time>2015-08-22T11:08:45Z</time>
      </trkpt>
      <trkpt lat="42.948568006977439" lon="-1.663290029391646">
        <ele>550.85500000000002</ele>
        <time>2015-08-22T11:08:46Z</time>
      </trkpt>
      <trkpt lat="42.948507992550731" lon="-1.663306038826704">
        <ele>549.68299999999999</ele>
        <time>2015-08-22T11:08:47Z</time>
      </trkpt>
      <trkpt lat="42.948447978124022" lon="-1.663335040211678">
        <ele>548.625</ele>
        <time>2015-08-22T11:08:48Z</time>
      </trkpt>
      <trkpt lat="42.948386035859585" lon="-1.663378039374948">
        <ele>547.61699999999996</ele>
        <time>2015-08-22T11:08:49Z</time>
      </trkpt>
      <trkpt lat="42.948328033089638" lon="-1.663423972204328">
        <ele>546.80799999999999</ele>
        <time>2015-08-22T11:08:50Z</time>
      </trkpt>
      <trkpt lat="42.94827195815742" lon="-1.663476023823023">
        <ele>545.83900000000006</ele>
        <time>2015-08-22T11:08:51Z</time>
      </trkpt>
      <trkpt lat="42.948217978700995" lon="-1.663533020764589">
        <ele>545.05799999999999</ele>
        <time>2015-08-22T11:08:52Z</time>
      </trkpt>
      <trkpt lat="42.94816299341619" lon="-1.663592029362917">
        <ele>544.05399999999997</ele>
        <time>2015-08-22T11:08:53Z</time>
      </trkpt>
      <trkpt lat="42.948110019788146" lon="-1.663647014647722">
        <ele>543.27800000000002</ele>
        <time>2015-08-22T11:08:54Z</time>
      </trkpt>
      <trkpt lat="42.947949003428221" lon="-1.663790009915829">
        <ele>542.63099999999997</ele>
        <time>2015-08-22T11:08:57Z</time>
      </trkpt>
      <trkpt lat="42.947889994829893" lon="-1.663820017129183">
        <ele>542.28399999999999</ele>
        <time>2015-08-22T11:08:58Z</time>
      </trkpt>
      <trkpt lat="42.947830986231565" lon="-1.663832003250718">
        <ele>541.81500000000005</ele>
        <time>2015-08-22T11:08:59Z</time>
      </trkpt>
      <trkpt lat="42.947769965976477" lon="-1.663833009079099">
        <ele>541.24199999999996</ele>
        <time>2015-08-22T11:09:00Z</time>
      </trkpt>
      <trkpt lat="42.947706012055278" lon="-1.663821022957563">
        <ele>540.63300000000004</ele>
        <time>2015-08-22T11:09:01Z</time>
      </trkpt>
      <trkpt lat="42.947642980143428" lon="-1.663805013522506">
        <ele>539.82299999999998</ele>
        <time>2015-08-22T11:09:02Z</time>
      </trkpt>
      <trkpt lat="42.94758003205061" lon="-1.663795961067081">
        <ele>539.01499999999999</ele>
        <time>2015-08-22T11:09:03Z</time>
      </trkpt>
      <trkpt lat="42.947509959340096" lon="-1.663797972723842">
        <ele>538.20799999999997</ele>
        <time>2015-08-22T11:09:04Z</time>
      </trkpt>
      <trkpt lat="42.947437958791852" lon="-1.663809036836028">
        <ele>537.24400000000003</ele>
        <time>2015-08-22T11:09:05Z</time>
      </trkpt>
      <trkpt lat="42.947361012920737" lon="-1.663830997422338">
        <ele>535.49300000000005</ele>
        <time>2015-08-22T11:09:06Z</time>
      </trkpt>
      <trkpt lat="42.947284989058971" lon="-1.663859998807311">
        <ele>534.62900000000002</ele>
        <time>2015-08-22T11:09:07Z</time>
      </trkpt>
      <trkpt lat="42.947208965197206" lon="-1.663895035162568">
        <ele>533.86300000000006</ele>
        <time>2015-08-22T11:09:08Z</time>
      </trkpt>
      <trkpt lat="42.947135958820581" lon="-1.663933005183935">
        <ele>533.07600000000002</ele>
        <time>2015-08-22T11:09:09Z</time>
      </trkpt>
      <trkpt lat="42.947065969929099" lon="-1.663974998518825">
        <ele>532.29899999999998</ele>
        <time>2015-08-22T11:09:10Z</time>
      </trkpt>
      <trkpt lat="42.946997992694378" lon="-1.664016991853714">
        <ele>531.63</ele>
        <time>2015-08-22T11:09:11Z</time>
      </trkpt>
      <trkpt lat="42.946882992982864" lon="-1.664088992401958">
        <ele>531.02700000000004</ele>
        <time>2015-08-22T11:09:13Z</time>
      </trkpt>
      <trkpt lat="42.946833958849311" lon="-1.664114976301789">
        <ele>530.62900000000002</ele>
        <time>2015-08-22T11:09:14Z</time>
      </trkpt>
      <trkpt lat="42.94678702019155" lon="-1.66413601487875">
        <ele>530.20000000000005</ele>
        <time>2015-08-22T11:09:15Z</time>
      </trkpt>
      <trkpt lat="42.946741003543139" lon="-1.664154035970569">
        <ele>529.62</ele>
        <time>2015-08-22T11:09:16Z</time>
      </trkpt>
      <trkpt lat="42.946694986894727" lon="-1.664172979071736">
        <ele>529.20799999999997</ele>
        <time>2015-08-22T11:09:17Z</time>
      </trkpt>
      <trkpt lat="42.946647964417934" lon="-1.664185971021652">
        <ele>528.65300000000002</ele>
        <time>2015-08-22T11:09:18Z</time>
      </trkpt>
      <trkpt lat="42.946595996618271" lon="-1.664183959364891">
        <ele>528.04200000000003</ele>
        <time>2015-08-22T11:09:19Z</time>
      </trkpt>
      <trkpt lat="42.946546040475368" lon="-1.664164010435343">
        <ele>527.43799999999999</ele>
        <time>2015-08-22T11:09:20Z</time>
      </trkpt>
      <trkpt lat="42.946503041312099" lon="-1.664129979908466">
        <ele>526.87199999999996</ele>
        <time>2015-08-22T11:09:21Z</time>
      </trkpt>
      <trkpt lat="42.946418970823288" lon="-1.664054039865732">
        <ele>526.09500000000003</ele>
        <time>2015-08-22T11:09:23Z</time>
      </trkpt>
      <trkpt lat="42.946382006630301" lon="-1.664017997682095">
        <ele>525.48800000000006</ele>
        <time>2015-08-22T11:09:24Z</time>
      </trkpt>
      <trkpt lat="42.946351999416947" lon="-1.663984972983599">
        <ele>524.42899999999997</ele>
        <time>2015-08-22T11:09:25Z</time>
      </trkpt>
      <trkpt lat="42.946326015517116" lon="-1.663950020447373">
        <ele>523.49599999999998</ele>
        <time>2015-08-22T11:09:26Z</time>
      </trkpt>
      <trkpt lat="42.946307994425297" lon="-1.663924958556891">
        <ele>522.43499999999995</ele>
        <time>2015-08-22T11:09:27Z</time>
      </trkpt>
      <trkpt lat="42.946290979161859" lon="-1.663901992142201">
        <ele>521.48599999999999</ele>
        <time>2015-08-22T11:09:28Z</time>
      </trkpt>
      <trkpt lat="42.946279998868704" lon="-1.663885982707143">
        <ele>520.41399999999999</ele>
        <time>2015-08-22T11:09:29Z</time>
      </trkpt>
      <trkpt lat="42.946269018575549" lon="-1.663855975493789">
        <ele>520.40800000000002</ele>
        <time>2015-08-22T11:09:30Z</time>
      </trkpt>
      <trkpt lat="42.946258038282394" lon="-1.663816999644041">
        <ele>520.46400000000006</ele>
        <time>2015-08-22T11:09:33Z</time>
      </trkpt>
      <trkpt lat="42.946245968341827" lon="-1.663768971338868">
        <ele>520.41300000000001</ele>
        <time>2015-08-22T11:09:36Z</time>
      </trkpt>
      <trkpt lat="42.946253009140491" lon="-1.663684984669089">
        <ele>520.41899999999998</ele>
        <time>2015-08-22T11:09:40Z</time>
      </trkpt>
      <trkpt lat="42.946259966120124" lon="-1.663637962192297">
        <ele>520.44299999999998</ele>
        <time>2015-08-22T11:09:42Z</time>
      </trkpt>
      <trkpt lat="42.94629299081862" lon="-1.663591023534536">
        <ele>520.46600000000001</ele>
        <time>2015-08-22T11:09:45Z</time>
      </trkpt>
      <trkpt lat="42.946334984153509" lon="-1.663546012714505">
        <ele>520.47900000000004</ele>
        <time>2015-08-22T11:09:48Z</time>
      </trkpt>
      <trkpt lat="42.94635602273047" lon="-1.663511982187629">
        <ele>520.88999999999999</ele>
        <time>2015-08-22T11:09:50Z</time>
      </trkpt>
      <trkpt lat="42.946368008852005" lon="-1.663489015772939">
        <ele>521.25699999999995</ele>
        <time>2015-08-22T11:09:51Z</time>
      </trkpt>
      <trkpt lat="42.94637898914516" lon="-1.66347099468112">
        <ele>521.65899999999999</ele>
        <time>2015-08-22T11:09:52Z</time>
      </trkpt>
      <trkpt lat="42.946388963609934" lon="-1.66345096193254">
        <ele>522.00300000000004</ele>
        <time>2015-08-22T11:09:53Z</time>
      </trkpt>
      <trkpt lat="42.946398016065359" lon="-1.663435036316514">
        <ele>522.423</ele>
        <time>2015-08-22T11:09:54Z</time>
      </trkpt>
      <trkpt lat="42.946415031328797" lon="-1.663404023274779">
        <ele>522.40800000000002</ele>
        <time>2015-08-22T11:09:56Z</time>
      </trkpt>
      <trkpt lat="42.94642299413681" lon="-1.663389019668102">
        <ele>522.476</ele>
        <time>2015-08-22T11:09:57Z</time>
      </trkpt>
      <trkpt lat="42.946472028270364" lon="-1.663346020504832">
        <ele>522.495</ele>
        <time>2015-08-22T11:10:02Z</time>
      </trkpt>
      <trkpt lat="42.94655098579824" lon="-1.663237977772951">
        <ele>522.82100000000003</ele>
        <time>2015-08-22T11:10:10Z</time>
      </trkpt>
      <trkpt lat="42.946557020768523" lon="-1.663229009136558">
        <ele>523.21500000000003</ele>
        <time>2015-08-22T11:10:11Z</time>
      </trkpt>
      <trkpt lat="42.946560960263014" lon="-1.663220962509513">
        <ele>523.87800000000004</ele>
        <time>2015-08-22T11:10:12Z</time>
      </trkpt>
      <trkpt lat="42.946565989404917" lon="-1.663217023015022">
        <ele>524.24099999999999</ele>
        <time>2015-08-22T11:10:13Z</time>
      </trkpt>
      <trkpt lat="42.946565989404917" lon="-1.663217023015022">
        <ele>524.64200000000005</ele>
        <time>2015-08-22T11:10:14Z</time>
      </trkpt>
      <trkpt lat="42.946565989404917" lon="-1.663217023015022">
        <ele>524.69899999999996</ele>
        <time>2015-08-22T11:10:16Z</time>
      </trkpt>
      <trkpt lat="42.946568001061678" lon="-1.663195984438062">
        <ele>524.67200000000003</ele>
        <time>2015-08-22T11:10:18Z</time>
      </trkpt>
      <trkpt lat="42.946584010496736" lon="-1.663160026073456">
        <ele>525.01300000000003</ele>
        <time>2015-08-22T11:10:21Z</time>
      </trkpt>
      <trkpt lat="42.946585016325116" lon="-1.663148961961269">
        <ele>525.41399999999999</ele>
        <time>2015-08-22T11:10:22Z</time>
      </trkpt>
      <trkpt lat="42.946587027981877" lon="-1.663137981668115">
        <ele>525.80799999999999</ele>
        <time>2015-08-22T11:10:23Z</time>
      </trkpt>
      <trkpt lat="42.946588033810258" lon="-1.663129013031721">
        <ele>526.27800000000002</ele>
        <time>2015-08-22T11:10:24Z</time>
      </trkpt>
      <trkpt lat="42.946591973304749" lon="-1.663120966404676">
        <ele>526.63699999999994</ele>
        <time>2015-08-22T11:10:25Z</time>
      </trkpt>
      <trkpt lat="42.946583004668355" lon="-1.663111997768283">
        <ele>526.69299999999998</ele>
        <time>2015-08-22T11:10:27Z</time>
      </trkpt>
      <trkpt lat="42.946547968313098" lon="-1.663123983889818">
        <ele>526.63699999999994</ele>
        <time>2015-08-22T11:10:31Z</time>
      </trkpt>
      <trkpt lat="42.946456018835306" lon="-1.663182992488146">
        <ele>526.67999999999995</ele>
        <time>2015-08-22T11:10:37Z</time>
      </trkpt>
      <trkpt lat="42.946397010236979" lon="-1.663247030228376">
        <ele>526.69299999999998</ele>
        <time>2015-08-22T11:10:41Z</time>
      </trkpt>
      <trkpt lat="42.946248985826969" lon="-1.663379967212677">
        <ele>526.61400000000003</ele>
        <time>2015-08-22T11:10:48Z</time>
      </trkpt>
      <trkpt lat="42.946029966697097" lon="-1.663563027977943">
        <ele>526.69100000000003</ele>
        <time>2015-08-22T11:10:56Z</time>
      </trkpt>
      <trkpt lat="42.945859981700778" lon="-1.663671992719173">
        <ele>526.68100000000004</ele>
        <time>2015-08-22T11:11:02Z</time>
      </trkpt>
      <trkpt lat="42.945703994482756" lon="-1.663777017965913">
        <ele>526.66099999999994</ele>
        <time>2015-08-22T11:11:07Z</time>
      </trkpt>
      <trkpt lat="42.94567096978426" lon="-1.663798978552222">
        <ele>526.61699999999996</ele>
        <time>2015-08-22T11:11:08Z</time>
      </trkpt>
      <trkpt lat="42.945440970361233" lon="-1.663988996297121">
        <ele>526.60799999999995</ele>
        <time>2015-08-22T11:11:15Z</time>
      </trkpt>
      <trkpt lat="42.945247013121843" lon="-1.664092009887099">
        <ele>526.69899999999996</ele>
        <time>2015-08-22T11:11:21Z</time>
      </trkpt>
      <trkpt lat="42.945034028962255" lon="-1.664183959364891">
        <ele>526.63800000000003</ele>
        <time>2015-08-22T11:11:27Z</time>
      </trkpt>
      <trkpt lat="42.944995975121856" lon="-1.664196029305458">
        <ele>526.66399999999999</ele>
        <time>2015-08-22T11:11:28Z</time>
      </trkpt>
      <trkpt lat="42.944878041744232" lon="-1.664240034297109">
        <ele>526.65800000000002</ele>
        <time>2015-08-22T11:11:31Z</time>
      </trkpt>
      <trkpt lat="42.944774022325873" lon="-1.664281021803618">
        <ele>526.67100000000005</ele>
        <time>2015-08-22T11:11:33Z</time>
      </trkpt>
      <trkpt lat="42.94457696378231" lon="-1.664326032623649">
        <ele>526.654</ele>
        <time>2015-08-22T11:11:36Z</time>
      </trkpt>
      <trkpt lat="42.944440003484488" lon="-1.664350004866719">
        <ele>526.65499999999997</ele>
        <time>2015-08-22T11:11:38Z</time>
      </trkpt>
      <trkpt lat="42.944375965744257" lon="-1.664366014301777">
        <ele>526.61199999999997</ele>
        <time>2015-08-22T11:11:39Z</time>
      </trkpt>
      <trkpt lat="42.94425300322473" lon="-1.664393004029989">
        <ele>526.22400000000005</ele>
        <time>2015-08-22T11:11:41Z</time>
      </trkpt>
      <trkpt lat="42.944191982969642" lon="-1.664407001808286">
        <ele>525.80399999999997</ele>
        <time>2015-08-22T11:11:42Z</time>
      </trkpt>
      <trkpt lat="42.944133980199695" lon="-1.664420999586582">
        <ele>525.41399999999999</ele>
        <time>2015-08-22T11:11:43Z</time>
      </trkpt>
      <trkpt lat="42.944076983258128" lon="-1.664431979879737">
        <ele>524.80799999999999</ele>
        <time>2015-08-22T11:11:44Z</time>
      </trkpt>
      <trkpt lat="42.944018980488181" lon="-1.664439020678401">
        <ele>524.49300000000005</ele>
        <time>2015-08-22T11:11:45Z</time>
      </trkpt>
      <trkpt lat="42.943958966061473" lon="-1.664445977658033">
        <ele>524.452</ele>
        <time>2015-08-22T11:11:46Z</time>
      </trkpt>
      <trkpt lat="42.943678004667163" lon="-1.664493000134826">
        <ele>524.47799999999995</ele>
        <time>2015-08-22T11:11:51Z</time>
      </trkpt>
      <trkpt lat="42.943575996905565" lon="-1.664535999298096">
        <ele>524.47199999999998</ele>
        <time>2015-08-22T11:11:53Z</time>
      </trkpt>
      <trkpt lat="42.943381033837795" lon="-1.664661979302764">
        <ele>524.46500000000003</ele>
        <time>2015-08-22T11:11:57Z</time>
      </trkpt>
      <trkpt lat="42.943295035511255" lon="-1.664725011214614">
        <ele>524.47799999999995</ele>
        <time>2015-08-22T11:11:59Z</time>
      </trkpt>
      <trkpt lat="42.943253964185715" lon="-1.66475803591311">
        <ele>524.01900000000001</ele>
        <time>2015-08-22T11:12:00Z</time>
      </trkpt>
      <trkpt lat="42.943214988335967" lon="-1.664789970964193">
        <ele>523.62599999999998</ele>
        <time>2015-08-22T11:12:01Z</time>
      </trkpt>
      <trkpt lat="42.9431770183146" lon="-1.664826013147831">
        <ele>523.23500000000001</ele>
        <time>2015-08-22T11:12:02Z</time>
      </trkpt>
      <trkpt lat="42.943139970302582" lon="-1.664857026189566">
        <ele>522.88599999999997</ele>
        <time>2015-08-22T11:12:03Z</time>
      </trkpt>
      <trkpt lat="42.943102000281215" lon="-1.664884015917778">
        <ele>522.41399999999999</ele>
        <time>2015-08-22T11:12:04Z</time>
      </trkpt>
      <trkpt lat="42.943063024431467" lon="-1.66491100564599">
        <ele>522.40800000000002</ele>
        <time>2015-08-22T11:12:05Z</time>
      </trkpt>
      <trkpt lat="42.942954981699586" lon="-1.664972025901079">
        <ele>522.44399999999996</ele>
        <time>2015-08-22T11:12:08Z</time>
      </trkpt>
      <trkpt lat="42.942830007523298" lon="-1.665037991479039">
        <ele>522.45299999999997</ele>
        <time>2015-08-22T11:12:11Z</time>
      </trkpt>
      <trkpt lat="42.942749038338661" lon="-1.66506296955049">
        <ele>522.41899999999998</ele>
        <time>2015-08-22T11:12:13Z</time>
      </trkpt>
      <trkpt lat="42.942628003656864" lon="-1.665104040876031">
        <ele>522.47299999999996</ele>
        <time>2015-08-22T11:12:16Z</time>
      </trkpt>
      <trkpt lat="42.942587016150355" lon="-1.665118960663676">
        <ele>522.42600000000004</ele>
        <time>2015-08-22T11:12:17Z</time>
      </trkpt>
      <trkpt lat="42.942295996472239" lon="-1.665161959826946">
        <ele>522.44899999999996</ele>
        <time>2015-08-22T11:12:24Z</time>
      </trkpt>
      <trkpt lat="42.942096004262567" lon="-1.665198002010584">
        <ele>522.47000000000003</ele>
        <time>2015-08-22T11:12:29Z</time>
      </trkpt>
      <trkpt lat="42.941939011216164" lon="-1.665276037529111">
        <ele>522.48699999999997</ele>
        <time>2015-08-22T11:12:34Z</time>
      </trkpt>
      <trkpt lat="42.941881008446217" lon="-1.665318030864">
        <ele>522.42600000000004</ele>
        <time>2015-08-22T11:12:37Z</time>
      </trkpt>
      <trkpt lat="42.941849995404482" lon="-1.665344014763832">
        <ele>522.447</ele>
        <time>2015-08-22T11:12:39Z</time>
      </trkpt>
      <trkpt lat="42.941762991249561" lon="-1.66540696285665">
        <ele>522.41099999999994</ele>
        <time>2015-08-22T11:12:43Z</time>
      </trkpt>
      <trkpt lat="42.941710017621517" lon="-1.665452979505062">
        <ele>522.40800000000002</ele>
        <time>2015-08-22T11:12:45Z</time>
      </trkpt>
      <trkpt lat="42.94163198210299" lon="-1.665521962568164">
        <ele>522.45299999999997</ele>
        <time>2015-08-22T11:12:48Z</time>
      </trkpt>
      <trkpt lat="42.941538020968437" lon="-1.66561902500689">
        <ele>522.86199999999997</ele>
        <time>2015-08-22T11:12:52Z</time>
      </trkpt>
      <trkpt lat="42.941515976563096" lon="-1.665645008906722">
        <ele>523.46799999999996</ele>
        <time>2015-08-22T11:12:53Z</time>
      </trkpt>
      <trkpt lat="42.941497033461928" lon="-1.665673004463315">
        <ele>523.89200000000005</ele>
        <time>2015-08-22T11:12:54Z</time>
      </trkpt>
      <trkpt lat="42.941481024026871" lon="-1.665706029161811">
        <ele>524.255</ele>
        <time>2015-08-22T11:12:55Z</time>
      </trkpt>
      <trkpt lat="42.941468032076955" lon="-1.665739975869656">
        <ele>524.62800000000004</ele>
        <time>2015-08-22T11:12:56Z</time>
      </trkpt>
      <trkpt lat="42.941428972408175" lon="-1.665851958096027">
        <ele>524.62900000000002</ele>
        <time>2015-08-22T11:12:59Z</time>
      </trkpt>
      <trkpt lat="42.941435007378459" lon="-1.666131997480989">
        <ele>524.65599999999995</ele>
        <time>2015-08-22T11:13:05Z</time>
      </trkpt>
      <trkpt lat="42.941490998491645" lon="-1.666421005502343">
        <ele>524.62300000000005</ele>
        <time>2015-08-22T11:13:11Z</time>
      </trkpt>
      <trkpt lat="42.941457973793149" lon="-1.666684029623866">
        <ele>524.68299999999999</ele>
        <time>2015-08-22T11:13:16Z</time>
      </trkpt>
      <trkpt lat="42.941409023478627" lon="-1.66688502766192">
        <ele>524.61099999999999</ele>
        <time>2015-08-22T11:13:21Z</time>
      </trkpt>
      <trkpt lat="42.941295029595494" lon="-1.667106980457902">
        <ele>525.00800000000004</ele>
        <time>2015-08-22T11:13:28Z</time>
      </trkpt>
      <trkpt lat="42.941278014332056" lon="-1.667135981842876">
        <ele>525.47299999999996</ele>
        <time>2015-08-22T11:13:29Z</time>
      </trkpt>
      <trkpt lat="42.941260999068618" lon="-1.66716699488461">
        <ele>525.87199999999996</ele>
        <time>2015-08-22T11:13:30Z</time>
      </trkpt>
      <trkpt lat="42.94124498963356" lon="-1.667198007926345">
        <ele>526.26800000000003</ele>
        <time>2015-08-22T11:13:31Z</time>
      </trkpt>
      <trkpt lat="42.941228980198503" lon="-1.667228015139699">
        <ele>526.67200000000003</ele>
        <time>2015-08-22T11:13:32Z</time>
      </trkpt>
      <trkpt lat="42.941154967993498" lon="-1.667390959337354">
        <ele>526.625</ele>
        <time>2015-08-22T11:13:37Z</time>
      </trkpt>
      <trkpt lat="42.941053966060281" lon="-1.667565973475575">
        <ele>526.68799999999999</ele>
        <time>2015-08-22T11:13:42Z</time>
      </trkpt>
      <trkpt lat="42.940937038511038" lon="-1.667793039232492">
        <ele>526.67899999999997</ele>
        <time>2015-08-22T11:13:47Z</time>
      </trkpt>
      <trkpt lat="42.940906025469303" lon="-1.66783201508224">
        <ele>526.66600000000005</ele>
        <time>2015-08-22T11:13:48Z</time>
      </trkpt>
      <trkpt lat="42.940744003280997" lon="-1.667951960116625">
        <ele>526.64599999999996</ele>
        <time>2015-08-22T11:13:53Z</time>
      </trkpt>
      <trkpt lat="42.940531019121408" lon="-1.668042987585068">
        <ele>526.68799999999999</ele>
        <time>2015-08-22T11:14:01Z</time>
      </trkpt>
      <trkpt lat="42.940464969724417" lon="-1.668066959828138">
        <ele>526.61599999999999</ele>
        <time>2015-08-22T11:14:04Z</time>
      </trkpt>
      <trkpt lat="42.940373020246625" lon="-1.668052040040493">
        <ele>526.60799999999995</ele>
        <time>2015-08-22T11:14:08Z</time>
      </trkpt>
      <trkpt lat="42.940347036346793" lon="-1.668040975928307">
        <ele>527.04499999999996</ele>
        <time>2015-08-22T11:14:09Z</time>
      </trkpt>
      <trkpt lat="42.9403190407902" lon="-1.668029995635152">
        <ele>527.49400000000003</ele>
        <time>2015-08-22T11:14:10Z</time>
      </trkpt>
      <trkpt lat="42.940291967242956" lon="-1.668019015341997">
        <ele>527.88999999999999</ele>
        <time>2015-08-22T11:14:11Z</time>
      </trkpt>
      <trkpt lat="42.940265983343124" lon="-1.668007029220462">
        <ele>528.21400000000006</ele>
        <time>2015-08-22T11:14:12Z</time>
      </trkpt>
      <trkpt lat="42.940237987786531" lon="-1.667993031442165">
        <ele>528.67700000000002</ele>
        <time>2015-08-22T11:14:13Z</time>
      </trkpt>
      <trkpt lat="42.940142014995217" lon="-1.667941985651851">
        <ele>528.69000000000005</ele>
        <time>2015-08-22T11:14:17Z</time>
      </trkpt>
      <trkpt lat="42.939953003078699" lon="-1.667844001203775">
        <ele>528.67100000000005</ele>
        <time>2015-08-22T11:14:25Z</time>
      </trkpt>
      <trkpt lat="42.939910003915429" lon="-1.667817011475563">
        <ele>529.66800000000001</ele>
        <time>2015-08-22T11:14:27Z</time>
      </trkpt>
      <trkpt lat="42.939889971166849" lon="-1.667802007868886">
        <ele>530.29499999999996</ele>
        <time>2015-08-22T11:14:28Z</time>
      </trkpt>
      <trkpt lat="42.939865998923779" lon="-1.66778801009059">
        <ele>530.649</ele>
        <time>2015-08-22T11:14:29Z</time>
      </trkpt>
      <trkpt lat="42.939843032509089" lon="-1.667776023969054">
        <ele>531.22299999999996</ele>
        <time>2015-08-22T11:14:30Z</time>
      </trkpt>
      <trkpt lat="42.939780000597239" lon="-1.667735036462545">
        <ele>531.20799999999997</ele>
        <time>2015-08-22T11:14:33Z</time>
      </trkpt>
      <trkpt lat="42.939622001722455" lon="-1.66765901260078">
        <ele>531.22000000000003</ele>
        <time>2015-08-22T11:14:40Z</time>
      </trkpt>
      <trkpt lat="42.939489986747503" lon="-1.667634034529328">
        <ele>531.63900000000001</ele>
        <time>2015-08-22T11:14:46Z</time>
      </trkpt>
      <trkpt lat="42.939469031989574" lon="-1.667632022872567">
        <ele>532.02499999999998</ele>
        <time>2015-08-22T11:14:47Z</time>
      </trkpt>
      <trkpt lat="42.939447993412614" lon="-1.667630011215806">
        <ele>532.47900000000004</ele>
        <time>2015-08-22T11:14:48Z</time>
      </trkpt>
      <trkpt lat="42.939426032826304" lon="-1.667624982073903">
        <ele>532.85199999999998</ele>
        <time>2015-08-22T11:14:49Z</time>
      </trkpt>
      <trkpt lat="42.939407005906105" lon="-1.667625987902284">
        <ele>533.245</ele>
        <time>2015-08-22T11:14:50Z</time>
      </trkpt>
      <trkpt lat="42.939354032278061" lon="-1.667625987902284">
        <ele>533.226</ele>
        <time>2015-08-22T11:14:53Z</time>
      </trkpt>
      <trkpt lat="42.939335005357862" lon="-1.667625987902284">
        <ele>533.69299999999998</ele>
        <time>2015-08-22T11:14:54Z</time>
      </trkpt>
      <trkpt lat="42.939316984266043" lon="-1.66763998568058">
        <ele>534.09900000000005</ele>
        <time>2015-08-22T11:14:55Z</time>
      </trkpt>
      <trkpt lat="42.939296029508114" lon="-1.667653983458877">
        <ele>534.60699999999997</ele>
        <time>2015-08-22T11:14:56Z</time>
      </trkpt>
      <trkpt lat="42.939277002587914" lon="-1.667653983458877">
        <ele>535.02700000000004</ele>
        <time>2015-08-22T11:14:57Z</time>
      </trkpt>
      <trkpt lat="42.939259987324476" lon="-1.667646020650864">
        <ele>535.40800000000002</ele>
        <time>2015-08-22T11:14:58Z</time>
      </trkpt>
      <trkpt lat="42.939242972061038" lon="-1.667633028700948">
        <ele>535.47000000000003</ele>
        <time>2015-08-22T11:14:59Z</time>
      </trkpt>
      <trkpt lat="42.939226040616632" lon="-1.66761601343751">
        <ele>535.87900000000002</ele>
        <time>2015-08-22T11:15:00Z</time>
      </trkpt>
      <trkpt lat="42.939212964847684" lon="-1.667593969032168">
        <ele>536.28499999999997</ele>
        <time>2015-08-22T11:15:01Z</time>
      </trkpt>
      <trkpt lat="42.939205002039671" lon="-1.667566979303956">
        <ele>536.69899999999996</ele>
        <time>2015-08-22T11:15:02Z</time>
      </trkpt>
      <trkpt lat="42.939200978726149" lon="-1.667542001232505">
        <ele>537.072</ele>
        <time>2015-08-22T11:15:03Z</time>
      </trkpt>
      <trkpt lat="42.939199972897768" lon="-1.667515011504293">
        <ele>537.625</ele>
        <time>2015-08-22T11:15:04Z</time>
      </trkpt>
      <trkpt lat="42.93920399621129" lon="-1.667457008734345">
        <ele>538.04600000000005</ele>
        <time>2015-08-22T11:15:06Z</time>
      </trkpt>
      <trkpt lat="42.939207013696432" lon="-1.667430019006133">
        <ele>538.423</ele>
        <time>2015-08-22T11:15:07Z</time>
      </trkpt>
      <trkpt lat="42.939208019524813" lon="-1.66740202344954">
        <ele>538.87400000000002</ele>
        <time>2015-08-22T11:15:08Z</time>
      </trkpt>
      <trkpt lat="42.939210031181574" lon="-1.667371010407805">
        <ele>539.25599999999997</ele>
        <time>2015-08-22T11:15:09Z</time>
      </trkpt>
      <trkpt lat="42.939209025353193" lon="-1.667342009022832">
        <ele>539.62099999999998</ele>
        <time>2015-08-22T11:15:10Z</time>
      </trkpt>
      <trkpt lat="42.939206007868052" lon="-1.667191972956061">
        <ele>539.60799999999995</ele>
        <time>2015-08-22T11:15:15Z</time>
      </trkpt>
      <trkpt lat="42.939201984554529" lon="-1.667164983227849">
        <ele>540.03800000000001</ele>
        <time>2015-08-22T11:15:16Z</time>
      </trkpt>
      <trkpt lat="42.939197961241007" lon="-1.667136987671256">
        <ele>540.42700000000002</ele>
        <time>2015-08-22T11:15:17Z</time>
      </trkpt>
      <trkpt lat="42.939194021746516" lon="-1.667107986286283">
        <ele>540.84299999999996</ele>
        <time>2015-08-22T11:15:18Z</time>
      </trkpt>
      <trkpt lat="42.939192010089755" lon="-1.66707999072969">
        <ele>541.42700000000002</ele>
        <time>2015-08-22T11:15:19Z</time>
      </trkpt>
      <trkpt lat="42.939188992604613" lon="-1.667053001001477">
        <ele>541.85000000000002</ele>
        <time>2015-08-22T11:15:20Z</time>
      </trkpt>
      <trkpt lat="42.939164014533162" lon="-1.66697395965457">
        <ele>542.26300000000003</ele>
        <time>2015-08-22T11:15:23Z</time>
      </trkpt>
      <trkpt lat="42.939155967906117" lon="-1.666945964097977">
        <ele>542.68399999999997</ele>
        <time>2015-08-22T11:15:24Z</time>
      </trkpt>
      <trkpt lat="42.939145993441343" lon="-1.666918974369764">
        <ele>543.08100000000002</ele>
        <time>2015-08-22T11:15:25Z</time>
      </trkpt>
      <trkpt lat="42.93913702480495" lon="-1.666889972984791">
        <ele>543.423</ele>
        <time>2015-08-22T11:15:26Z</time>
      </trkpt>
      <trkpt lat="42.939125038683414" lon="-1.666861977428198">
        <ele>543.88300000000004</ele>
        <time>2015-08-22T11:15:27Z</time>
      </trkpt>
      <trkpt lat="42.93909695930779" lon="-1.666781008243561">
        <ele>543.81100000000004</ele>
        <time>2015-08-22T11:15:30Z</time>
      </trkpt>
      <trkpt lat="42.939068963751197" lon="-1.66667003184557">
        <ele>544.20799999999997</ele>
        <time>2015-08-22T11:15:34Z</time>
      </trkpt>
      <trkpt lat="42.939066030085087" lon="-1.666646981611848">
        <ele>544.82299999999998</ele>
        <time>2015-08-22T11:15:35Z</time>
      </trkpt>
      <trkpt lat="42.939066030085087" lon="-1.666619991883636">
        <ele>545.29200000000003</ele>
        <time>2015-08-22T11:15:36Z</time>
      </trkpt>
      <trkpt lat="42.939067035913467" lon="-1.666598031297326">
        <ele>545.85799999999995</ele>
        <time>2015-08-22T11:15:37Z</time>
      </trkpt>
      <trkpt lat="42.939062006771564" lon="-1.666573975235224">
        <ele>546.49199999999996</ele>
        <time>2015-08-22T11:15:38Z</time>
      </trkpt>
      <trkpt lat="42.939027976244688" lon="-1.666509015485644">
        <ele>546.47500000000002</ele>
        <time>2015-08-22T11:15:41Z</time>
      </trkpt>
      <trkpt lat="42.938950024545193" lon="-1.666470039635897">
        <ele>546.48800000000006</ele>
        <time>2015-08-22T11:15:45Z</time>
      </trkpt>
      <trkpt lat="42.938909037038684" lon="-1.666470961645246">
        <ele>546.41899999999998</ele>
        <time>2015-08-22T11:15:47Z</time>
      </trkpt>
      <trkpt lat="42.938887998461723" lon="-1.666470961645246">
        <ele>546.85599999999999</ele>
        <time>2015-08-22T11:15:48Z</time>
      </trkpt>
      <trkpt lat="42.938866959884763" lon="-1.666469033807516">
        <ele>547.22699999999998</ele>
        <time>2015-08-22T11:15:49Z</time>
      </trkpt>
      <trkpt lat="42.938848016783595" lon="-1.666468027979136">
        <ele>547.66800000000001</ele>
        <time>2015-08-22T11:15:50Z</time>
      </trkpt>
      <trkpt lat="42.938827984035015" lon="-1.666468027979136">
        <ele>548.01400000000001</ele>
        <time>2015-08-22T11:15:51Z</time>
      </trkpt>
      <trkpt lat="42.938808035105467" lon="-1.666467022150755">
        <ele>548.40800000000002</ele>
        <time>2015-08-22T11:15:52Z</time>
      </trkpt>
      <trkpt lat="42.938735028728843" lon="-1.666450006887317">
        <ele>548.46299999999997</ele>
        <time>2015-08-22T11:15:56Z</time>
      </trkpt>
      <trkpt lat="42.938648024573922" lon="-1.666467022150755">
        <ele>548.84199999999998</ele>
        <time>2015-08-22T11:16:00Z</time>
      </trkpt>
      <trkpt lat="42.938628997653723" lon="-1.666470961645246">
        <ele>549.23800000000006</ele>
        <time>2015-08-22T11:16:01Z</time>
      </trkpt>
      <trkpt lat="42.938609970733523" lon="-1.666482025757432">
        <ele>549.61199999999997</ele>
        <time>2015-08-22T11:16:02Z</time>
      </trkpt>
      <trkpt lat="42.938590021803975" lon="-1.666502980515361">
        <ele>550.09500000000003</ele>
        <time>2015-08-22T11:16:03Z</time>
      </trkpt>
      <trkpt lat="42.938572000712156" lon="-1.66652100160718">
        <ele>550.43799999999999</ele>
        <time>2015-08-22T11:16:04Z</time>
      </trkpt>
      <trkpt lat="42.938506035134196" lon="-1.666557965800166">
        <ele>550.48900000000003</ele>
        <time>2015-08-22T11:16:07Z</time>
      </trkpt>
      <trkpt lat="42.938457001000643" lon="-1.666580010205507">
        <ele>550.85599999999999</ele>
        <time>2015-08-22T11:16:09Z</time>
      </trkpt>
      <trkpt lat="42.93842900544405" lon="-1.666583027690649">
        <ele>551.23800000000006</ele>
        <time>2015-08-22T11:16:10Z</time>
      </trkpt>
      <trkpt lat="42.938400004059076" lon="-1.666585961356759">
        <ele>551.87</ele>
        <time>2015-08-22T11:16:11Z</time>
      </trkpt>
      <trkpt lat="42.938371002674103" lon="-1.666589984670281">
        <ele>552.21699999999998</ele>
        <time>2015-08-22T11:16:12Z</time>
      </trkpt>
      <trkpt lat="42.93834300711751" lon="-1.666598031297326">
        <ele>552.60799999999995</ele>
        <time>2015-08-22T11:16:13Z</time>
      </trkpt>
      <trkpt lat="42.938312999904156" lon="-1.666605994105339">
        <ele>552.654</ele>
        <time>2015-08-22T11:16:14Z</time>
      </trkpt>
      <trkpt lat="42.938124993816018" lon="-1.666598031297326">
        <ele>552.68299999999999</ele>
        <time>2015-08-22T11:16:20Z</time>
      </trkpt>
      <trkpt lat="42.937831962481141" lon="-1.666595013812184">
        <ele>552.66899999999998</ele>
        <time>2015-08-22T11:16:29Z</time>
      </trkpt>
      <trkpt lat="42.937658037990332" lon="-1.666632983833551">
        <ele>552.65300000000002</ele>
        <time>2015-08-22T11:16:35Z</time>
      </trkpt>
      <trkpt lat="42.9375059902668" lon="-1.666709007695317">
        <ele>552.62599999999998</ele>
        <time>2015-08-22T11:16:41Z</time>
      </trkpt>
      <trkpt lat="42.937348997220397" lon="-1.666786037385464">
        <ele>553.03899999999999</ele>
        <time>2015-08-22T11:16:48Z</time>
      </trkpt>
      <trkpt lat="42.937325024977326" lon="-1.66680003516376">
        <ele>553.41999999999996</ele>
        <time>2015-08-22T11:16:49Z</time>
      </trkpt>
      <trkpt lat="42.937298035249114" lon="-1.666813027113676">
        <ele>553.83699999999999</ele>
        <time>2015-08-22T11:16:50Z</time>
      </trkpt>
      <trkpt lat="42.93726802803576" lon="-1.666828030720353">
        <ele>554.29600000000005</ele>
        <time>2015-08-22T11:16:51Z</time>
      </trkpt>
      <trkpt lat="42.937235003337264" lon="-1.666844040155411">
        <ele>554.83100000000002</ele>
        <time>2015-08-22T11:16:52Z</time>
      </trkpt>
      <trkpt lat="42.937126038596034" lon="-1.666890978813171">
        <ele>554.82399999999996</ele>
        <time>2015-08-22T11:16:55Z</time>
      </trkpt>
      <trkpt lat="42.937000980600715" lon="-1.666946969926357">
        <ele>554.80799999999999</ele>
        <time>2015-08-22T11:16:58Z</time>
      </trkpt>
      <trkpt lat="42.936816997826099" lon="-1.667028022930026">
        <ele>554.83000000000004</ele>
        <time>2015-08-22T11:17:02Z</time>
      </trkpt>
      <trkpt lat="42.936581969261169" lon="-1.667137993499637">
        <ele>554.29899999999998</ele>
        <time>2015-08-22T11:17:07Z</time>
      </trkpt>
      <trkpt lat="42.936532013118267" lon="-1.667156014591456">
        <ele>553.86500000000001</ele>
        <time>2015-08-22T11:17:08Z</time>
      </trkpt>
      <trkpt lat="42.936480967327952" lon="-1.667176969349384">
        <ele>553.47900000000004</ele>
        <time>2015-08-22T11:17:09Z</time>
      </trkpt>
      <trkpt lat="42.936430005356669" lon="-1.667194990441203">
        <ele>553.072</ele>
        <time>2015-08-22T11:17:10Z</time>
      </trkpt>
      <trkpt lat="42.936376025900245" lon="-1.667212005704641">
        <ele>552.69500000000005</ele>
        <time>2015-08-22T11:17:11Z</time>
      </trkpt>
      <trkpt lat="42.936102021485567" lon="-1.667304961010814">
        <ele>552.64599999999996</ele>
        <time>2015-08-22T11:17:16Z</time>
      </trkpt>
      <trkpt lat="42.935992972925305" lon="-1.667342009022832">
        <ele>552.68299999999999</ele>
        <time>2015-08-22T11:17:18Z</time>
      </trkpt>
      <trkpt lat="42.935888031497598" lon="-1.667376039549708">
        <ele>552.03300000000002</ele>
        <time>2015-08-22T11:17:20Z</time>
      </trkpt>
      <trkpt lat="42.935837991535664" lon="-1.667396994307637">
        <ele>551.62300000000005</ele>
        <time>2015-08-22T11:17:21Z</time>
      </trkpt>
      <trkpt lat="42.935790969058871" lon="-1.667416021227837">
        <ele>551.21500000000003</ele>
        <time>2015-08-22T11:17:22Z</time>
      </trkpt>
      <trkpt lat="42.935741012915969" lon="-1.667438987642527">
        <ele>550.80799999999999</ele>
        <time>2015-08-22T11:17:23Z</time>
      </trkpt>
      <trkpt lat="42.935696002095938" lon="-1.667458014562726">
        <ele>550.41399999999999</ele>
        <time>2015-08-22T11:17:24Z</time>
      </trkpt>
      <trkpt lat="42.935648979619145" lon="-1.667474023997784">
        <ele>550.43299999999999</ele>
        <time>2015-08-22T11:17:25Z</time>
      </trkpt>
      <trkpt lat="42.935556024312973" lon="-1.667503025382757">
        <ele>550.43899999999996</ele>
        <time>2015-08-22T11:17:27Z</time>
      </trkpt>
      <trkpt lat="42.935417974367738" lon="-1.667559016495943">
        <ele>550.423</ele>
        <time>2015-08-22T11:17:30Z</time>
      </trkpt>
      <trkpt lat="42.935372041538358" lon="-1.667572008445859">
        <ele>550.03599999999994</ele>
        <time>2015-08-22T11:17:31Z</time>
      </trkpt>
      <trkpt lat="42.935328036546707" lon="-1.667583994567394">
        <ele>549.65899999999999</ele>
        <time>2015-08-22T11:17:32Z</time>
      </trkpt>
      <trkpt lat="42.935285959392786" lon="-1.667604027315974">
        <ele>549.00999999999999</ele>
        <time>2015-08-22T11:17:33Z</time>
      </trkpt>
      <trkpt lat="42.935244971886277" lon="-1.66761701926589">
        <ele>548.62699999999995</ele>
        <time>2015-08-22T11:17:34Z</time>
      </trkpt>
      <trkpt lat="42.935202978551388" lon="-1.667627999559045">
        <ele>548.26800000000003</ele>
        <time>2015-08-22T11:17:35Z</time>
      </trkpt>
      <trkpt lat="42.935082027688622" lon="-1.667649038136005">
        <ele>548.24199999999996</ele>
        <time>2015-08-22T11:17:38Z</time>
      </trkpt>
      <trkpt lat="42.934858985245228" lon="-1.667720032855868">
        <ele>548.226</ele>
        <time>2015-08-22T11:17:44Z</time>
      </trkpt>
      <trkpt lat="42.934564026072621" lon="-1.667803013697267">
        <ele>548.20799999999997</ele>
        <time>2015-08-22T11:17:52Z</time>
      </trkpt>
      <trkpt lat="42.934367973357439" lon="-1.667836960405111">
        <ele>548.21699999999998</ele>
        <time>2015-08-22T11:17:57Z</time>
      </trkpt>
      <trkpt lat="42.934328997507691" lon="-1.66783201508224">
        <ele>548.28599999999994</ele>
        <time>2015-08-22T11:17:58Z</time>
      </trkpt>
      <trkpt lat="42.93396002613008" lon="-1.667808964848518">
        <ele>548.21199999999999</ele>
        <time>2015-08-22T11:18:07Z</time>
      </trkpt>
      <trkpt lat="42.933750981464982" lon="-1.667804019525647">
        <ele>548.23599999999999</ele>
        <time>2015-08-22T11:18:12Z</time>
      </trkpt>
      <trkpt lat="42.93363799341023" lon="-1.667804019525647">
        <ele>548.22900000000004</ele>
        <time>2015-08-22T11:18:15Z</time>
      </trkpt>
      <trkpt lat="42.933385027572513" lon="-1.667805025354028">
        <ele>548.24199999999996</ele>
        <time>2015-08-22T11:18:23Z</time>
      </trkpt>
      <trkpt lat="42.933240020647645" lon="-1.667807959020138">
        <ele>548.68299999999999</ele>
        <time>2015-08-22T11:18:28Z</time>
      </trkpt>
      <trkpt lat="42.933213030919433" lon="-1.667805025354028">
        <ele>549.05999999999995</ele>
        <time>2015-08-22T11:18:29Z</time>
      </trkpt>
      <trkpt lat="42.933182017877698" lon="-1.667802007868886">
        <ele>549.45899999999995</ele>
        <time>2015-08-22T11:18:30Z</time>
      </trkpt>
      <trkpt lat="42.933152010664344" lon="-1.667805025354028">
        <ele>549.803</ele>
        <time>2015-08-22T11:18:31Z</time>
      </trkpt>
      <trkpt lat="42.933120997622609" lon="-1.667805025354028">
        <ele>550.22299999999996</ele>
        <time>2015-08-22T11:18:32Z</time>
      </trkpt>
      <trkpt lat="42.933009015396237" lon="-1.66778801009059">
        <ele>550.20799999999997</ele>
        <time>2015-08-22T11:18:36Z</time>
      </trkpt>
      <trkpt lat="42.932861996814609" lon="-1.667773006483913">
        <ele>550.27599999999995</ele>
        <time>2015-08-22T11:18:42Z</time>
      </trkpt>
      <trkpt lat="42.932760994881392" lon="-1.667770994827151">
        <ele>550.83500000000004</ele>
        <time>2015-08-22T11:18:46Z</time>
      </trkpt>
      <trkpt lat="42.93273501098156" lon="-1.667769988998771">
        <ele>551.26099999999997</ele>
        <time>2015-08-22T11:18:47Z</time>
      </trkpt>
      <trkpt lat="42.932711038738489" lon="-1.667766971513629">
        <ele>551.63499999999999</ele>
        <time>2015-08-22T11:18:48Z</time>
      </trkpt>
      <trkpt lat="42.932686982676387" lon="-1.66776898317039">
        <ele>552.07799999999997</ele>
        <time>2015-08-22T11:18:49Z</time>
      </trkpt>
      <trkpt lat="42.932663010433316" lon="-1.667766971513629">
        <ele>552.45100000000002</ele>
        <time>2015-08-22T11:18:50Z</time>
      </trkpt>
      <trkpt lat="42.932460000738502" lon="-1.667776023969054">
        <ele>552.42200000000003</ele>
        <time>2015-08-22T11:18:58Z</time>
      </trkpt>
      <trkpt lat="42.932337960228324" lon="-1.667793961241841">
        <ele>552.84900000000005</ele>
        <time>2015-08-22T11:19:03Z</time>
      </trkpt>
      <trkpt lat="42.932309964671731" lon="-1.667798990383744">
        <ele>553.24099999999999</ele>
        <time>2015-08-22T11:19:04Z</time>
      </trkpt>
      <trkpt lat="42.932281969115138" lon="-1.667801002040505">
        <ele>553.68100000000004</ele>
        <time>2015-08-22T11:19:05Z</time>
      </trkpt>
      <trkpt lat="42.932256991043687" lon="-1.667804019525647">
        <ele>554.00900000000001</ele>
        <time>2015-08-22T11:19:06Z</time>
      </trkpt>
      <trkpt lat="42.932234024628997" lon="-1.667807037010789">
        <ele>554.40800000000002</ele>
        <time>2015-08-22T11:19:07Z</time>
      </trkpt>
      <trkpt lat="42.932029003277421" lon="-1.667839977890253">
        <ele>554.47500000000002</ele>
        <time>2015-08-22T11:19:15Z</time>
      </trkpt>
      <trkpt lat="42.93181300163269" lon="-1.667867973446846">
        <ele>554.49400000000003</ele>
        <time>2015-08-22T11:19:23Z</time>
      </trkpt>
      <trkpt lat="42.931650979444385" lon="-1.667890017852187">
        <ele>554.45000000000005</ele>
        <time>2015-08-22T11:19:29Z</time>
      </trkpt>
      <trkpt lat="42.931519970297813" lon="-1.667922036722302">
        <ele>554.85400000000004</ele>
        <time>2015-08-22T11:19:34Z</time>
      </trkpt>
      <trkpt lat="42.931492980569601" lon="-1.667928993701935">
        <ele>555.29700000000003</ele>
        <time>2015-08-22T11:19:35Z</time>
      </trkpt>
      <trkpt lat="42.931462973356247" lon="-1.667932011187077">
        <ele>555.82000000000005</ele>
        <time>2015-08-22T11:19:36Z</time>
      </trkpt>
      <trkpt lat="42.931433971971273" lon="-1.66793704032898">
        <ele>555.26099999999997</ele>
        <time>2015-08-22T11:19:37Z</time>
      </trkpt>
      <trkpt lat="42.931406982243061" lon="-1.667941985651851">
        <ele>554.63800000000003</ele>
        <time>2015-08-22T11:19:38Z</time>
      </trkpt>
      <trkpt lat="42.931379992514849" lon="-1.667943997308612">
        <ele>554.27599999999995</ele>
        <time>2015-08-22T11:19:39Z</time>
      </trkpt>
      <trkpt lat="42.931354008615017" lon="-1.667948020622134">
        <ele>555.09000000000003</ele>
        <time>2015-08-22T11:19:40Z</time>
      </trkpt>
      <trkpt lat="42.931328024715185" lon="-1.667951038107276">
        <ele>555.61900000000003</ele>
        <time>2015-08-22T11:19:41Z</time>
      </trkpt>
      <trkpt lat="42.931301034986973" lon="-1.667951960116625">
        <ele>556.40800000000002</ele>
        <time>2015-08-22T11:19:42Z</time>
      </trkpt>
      <trkpt lat="42.93127303943038" lon="-1.667955983430147">
        <ele>557.27800000000002</ele>
        <time>2015-08-22T11:19:43Z</time>
      </trkpt>
      <trkpt lat="42.931247977539897" lon="-1.66796101257205">
        <ele>557.83699999999999</ele>
        <time>2015-08-22T11:19:44Z</time>
      </trkpt>
      <trkpt lat="42.931074975058436" lon="-1.667997976765037">
        <ele>557.81299999999999</ele>
        <time>2015-08-22T11:19:51Z</time>
      </trkpt>
      <trkpt lat="42.930901972576976" lon="-1.66802303865552">
        <ele>557.86699999999996</ele>
        <time>2015-08-22T11:19:58Z</time>
      </trkpt>
      <trkpt lat="42.930766018107533" lon="-1.668040975928307">
        <ele>557.86000000000001</ele>
        <time>2015-08-22T11:20:04Z</time>
      </trkpt>
      <trkpt lat="42.930741040036082" lon="-1.66804701089859">
        <ele>557.81299999999999</ele>
        <time>2015-08-22T11:20:05Z</time>
      </trkpt>
      <trkpt lat="42.930581029504538" lon="-1.66809001006186">
        <ele>558.274</ele>
        <time>2015-08-22T11:20:12Z</time>
      </trkpt>
      <trkpt lat="42.930555967614055" lon="-1.668094033375382">
        <ele>559.01099999999997</ele>
        <time>2015-08-22T11:20:13Z</time>
      </trkpt>
      <trkpt lat="42.930531995370984" lon="-1.668094033375382">
        <ele>559.46699999999998</ele>
        <time>2015-08-22T11:20:14Z</time>
      </trkpt>
      <trkpt lat="42.930510034784675" lon="-1.668098978698254">
        <ele>560.08100000000002</ele>
        <time>2015-08-22T11:20:15Z</time>
      </trkpt>
      <trkpt lat="42.930367961525917" lon="-1.668144995346665">
        <ele>560.01900000000001</ele>
        <time>2015-08-22T11:20:21Z</time>
      </trkpt>
      <trkpt lat="42.930211974307895" lon="-1.668209033086896">
        <ele>560.00800000000004</ele>
        <time>2015-08-22T11:20:28Z</time>
      </trkpt>
      <trkpt lat="42.930151959881186" lon="-1.668242979794741">
        <ele>560.447</ele>
        <time>2015-08-22T11:20:31Z</time>
      </trkpt>
      <trkpt lat="42.930131005123258" lon="-1.668250020593405">
        <ele>560.89599999999996</ele>
        <time>2015-08-22T11:20:32Z</time>
      </trkpt>
      <trkpt lat="42.930109966546297" lon="-1.668255971744657">
        <ele>561.27200000000005</ele>
        <time>2015-08-22T11:20:33Z</time>
      </trkpt>
      <trkpt lat="42.930089011788368" lon="-1.668266030028462">
        <ele>561.61599999999999</ele>
        <time>2015-08-22T11:20:34Z</time>
      </trkpt>
      <trkpt lat="42.930067973211408" lon="-1.668278016149998">
        <ele>562.06899999999996</ele>
        <time>2015-08-22T11:20:35Z</time>
      </trkpt>
      <trkpt lat="42.930046012625098" lon="-1.668288996443152">
        <ele>562.01199999999994</ele>
        <time>2015-08-22T11:20:36Z</time>
      </trkpt>
      <trkpt lat="42.929889019578695" lon="-1.668336018919945">
        <ele>562.03300000000002</ele>
        <time>2015-08-22T11:20:43Z</time>
      </trkpt>
      <trkpt lat="42.929693972691894" lon="-1.66830500587821">
        <ele>562.02999999999997</ele>
        <time>2015-08-22T11:20:51Z</time>
      </trkpt>
      <trkpt lat="42.929506972432137" lon="-1.668210038915277">
        <ele>562.072</ele>
        <time>2015-08-22T11:20:59Z</time>
      </trkpt>
      <trkpt lat="42.929463973268867" lon="-1.668191011995077">
        <ele>562.41300000000001</ele>
        <time>2015-08-22T11:21:01Z</time>
      </trkpt>
      <trkpt lat="42.929443018510938" lon="-1.668181959539652">
        <ele>563.41399999999999</ele>
        <time>2015-08-22T11:21:02Z</time>
      </trkpt>
      <trkpt lat="42.929420974105597" lon="-1.668170979246497">
        <ele>563.80799999999999</ele>
        <time>2015-08-22T11:21:03Z</time>
      </trkpt>
      <trkpt lat="42.929399013519287" lon="-1.668159998953342">
        <ele>564.23800000000006</ele>
        <time>2015-08-22T11:21:04Z</time>
      </trkpt>
      <trkpt lat="42.929309997707605" lon="-1.668115993961692">
        <ele>564.26700000000005</ele>
        <time>2015-08-22T11:21:08Z</time>
      </trkpt>
      <trkpt lat="42.929097013548017" lon="-1.668055979534984">
        <ele>564.21299999999997</ele>
        <time>2015-08-22T11:21:17Z</time>
      </trkpt>
      <trkpt lat="42.92891001328826" lon="-1.668055979534984">
        <ele>564.25699999999995</ele>
        <time>2015-08-22T11:21:25Z</time>
      </trkpt>
      <trkpt lat="42.928808005526662" lon="-1.668053967878223">
        <ele>564.63999999999999</ele>
        <time>2015-08-22T11:21:30Z</time>
      </trkpt>
      <trkpt lat="42.928787972778082" lon="-1.668052962049842">
        <ele>565.09299999999996</ele>
        <time>2015-08-22T11:21:31Z</time>
      </trkpt>
      <trkpt lat="42.928769029676914" lon="-1.668053967878223">
        <ele>565.61400000000003</ele>
        <time>2015-08-22T11:21:32Z</time>
      </trkpt>
      <trkpt lat="42.928752014413476" lon="-1.668060002848506">
        <ele>566.05100000000004</ele>
        <time>2015-08-22T11:21:33Z</time>
      </trkpt>
      <trkpt lat="42.928734999150038" lon="-1.668064026162028">
        <ele>566.49599999999998</ele>
        <time>2015-08-22T11:21:34Z</time>
      </trkpt>
      <trkpt lat="42.928633997216821" lon="-1.668071988970041">
        <ele>566.43100000000004</ele>
        <time>2015-08-22T11:21:39Z</time>
      </trkpt>
      <trkpt lat="42.928595021367073" lon="-1.668071988970041">
        <ele>566.82399999999996</ele>
        <time>2015-08-22T11:21:41Z</time>
      </trkpt>
      <trkpt lat="42.928578006103635" lon="-1.668072994798422">
        <ele>567.20799999999997</ele>
        <time>2015-08-22T11:21:42Z</time>
      </trkpt>
      <trkpt lat="42.928564008325338" lon="-1.668071988970041">
        <ele>567.61000000000001</ele>
        <time>2015-08-22T11:21:43Z</time>
      </trkpt>
      <trkpt lat="42.928547998890281" lon="-1.668070983141661">
        <ele>568.03899999999999</ele>
        <time>2015-08-22T11:21:44Z</time>
      </trkpt>
      <trkpt lat="42.928530983626842" lon="-1.6680689714849">
        <ele>568.45500000000004</ele>
        <time>2015-08-22T11:21:45Z</time>
      </trkpt>
      <trkpt lat="42.928492007777095" lon="-1.668066959828138">
        <ele>568.46900000000005</ele>
        <time>2015-08-22T11:21:47Z</time>
      </trkpt>
      <trkpt lat="42.928449008613825" lon="-1.66806997731328">
        <ele>568.48199999999997</ele>
        <time>2015-08-22T11:21:49Z</time>
      </trkpt>
      <trkpt lat="42.928386982530355" lon="-1.668077018111944">
        <ele>569.28499999999997</ele>
        <time>2015-08-22T11:21:52Z</time>
      </trkpt>
      <trkpt lat="42.928369967266917" lon="-1.668077018111944">
        <ele>569.83600000000001</ele>
        <time>2015-08-22T11:21:53Z</time>
      </trkpt>
      <trkpt lat="42.928350018337369" lon="-1.668075006455183">
        <ele>570.29300000000001</ele>
        <time>2015-08-22T11:21:54Z</time>
      </trkpt>
      <trkpt lat="42.92833099141717" lon="-1.66806603781879">
        <ele>570.63599999999997</ele>
        <time>2015-08-22T11:21:55Z</time>
      </trkpt>
      <trkpt lat="42.928238036110997" lon="-1.668048016726971">
        <ele>570.61699999999996</ele>
        <time>2015-08-22T11:22:00Z</time>
      </trkpt>
      <trkpt lat="42.928172992542386" lon="-1.668033013120294">
        <ele>571.01800000000003</ele>
        <time>2015-08-22T11:22:03Z</time>
      </trkpt>
      <trkpt lat="42.928153965622187" lon="-1.66802597232163">
        <ele>571.40800000000002</ele>
        <time>2015-08-22T11:22:04Z</time>
      </trkpt>
      <trkpt lat="42.928134016692638" lon="-1.668020021170378">
        <ele>571.85400000000004</ele>
        <time>2015-08-22T11:22:05Z</time>
      </trkpt>
      <trkpt lat="42.92811599560082" lon="-1.668015997856855">
        <ele>572.45299999999997</ele>
        <time>2015-08-22T11:22:06Z</time>
      </trkpt>
      <trkpt lat="42.92809696868062" lon="-1.668012980371714">
        <ele>572.899</ele>
        <time>2015-08-22T11:22:07Z</time>
      </trkpt>
      <trkpt lat="42.928034020587802" lon="-1.668006023392081">
        <ele>572.86300000000006</ele>
        <time>2015-08-22T11:22:10Z</time>
      </trkpt>
      <trkpt lat="42.927918015047908" lon="-1.667956989258528">
        <ele>573.29600000000005</ele>
        <time>2015-08-22T11:22:16Z</time>
      </trkpt>
      <trkpt lat="42.927896976470947" lon="-1.667951038107276">
        <ele>574.09900000000005</ele>
        <time>2015-08-22T11:22:17Z</time>
      </trkpt>
      <trkpt lat="42.92787803336978" lon="-1.667942991480231">
        <ele>574.49000000000001</ele>
        <time>2015-08-22T11:22:18Z</time>
      </trkpt>
      <trkpt lat="42.92785900644958" lon="-1.66793704032898">
        <ele>574.85699999999997</ele>
        <time>2015-08-22T11:22:19Z</time>
      </trkpt>
      <trkpt lat="42.927737971767783" lon="-1.667893035337329">
        <ele>575.26400000000001</ele>
        <time>2015-08-22T11:22:25Z</time>
      </trkpt>
      <trkpt lat="42.927719028666615" lon="-1.667888006195426">
        <ele>575.60599999999999</ele>
        <time>2015-08-22T11:22:26Z</time>
      </trkpt>
      <trkpt lat="42.927701007574797" lon="-1.667881971225143">
        <ele>576.01599999999996</ele>
        <time>2015-08-22T11:22:27Z</time>
      </trkpt>
      <trkpt lat="42.927679968997836" lon="-1.667876020073891">
        <ele>576.40800000000002</ele>
        <time>2015-08-22T11:22:28Z</time>
      </trkpt>
      <trkpt lat="42.927659014239907" lon="-1.667870990931988">
        <ele>576.81700000000001</ele>
        <time>2015-08-22T11:22:29Z</time>
      </trkpt>
      <trkpt lat="42.92755700647831" lon="-1.667834026739001">
        <ele>576.83600000000001</ele>
        <time>2015-08-22T11:22:34Z</time>
      </trkpt>
      <trkpt lat="42.927422979846597" lon="-1.667781975120306">
        <ele>577.27200000000005</ele>
        <time>2015-08-22T11:22:41Z</time>
      </trkpt>
      <trkpt lat="42.927405964583158" lon="-1.667777029797435">
        <ele>577.65599999999995</ele>
        <time>2015-08-22T11:22:42Z</time>
      </trkpt>
      <trkpt lat="42.92738601565361" lon="-1.667770994827151">
        <ele>578.09900000000005</ele>
        <time>2015-08-22T11:22:43Z</time>
      </trkpt>
      <trkpt lat="42.92736598290503" lon="-1.667764959856868">
        <ele>578.64200000000005</ele>
        <time>2015-08-22T11:22:44Z</time>
      </trkpt>
      <trkpt lat="42.927345028147101" lon="-1.667755991220474">
        <ele>579.09299999999996</ele>
        <time>2015-08-22T11:22:45Z</time>
      </trkpt>
      <trkpt lat="42.927290964871645" lon="-1.667727995663881">
        <ele>579.07000000000005</ele>
        <time>2015-08-22T11:22:48Z</time>
      </trkpt>
      <trkpt lat="42.927179988473654" lon="-1.667718021199107">
        <ele>579.43700000000001</ele>
        <time>2015-08-22T11:22:54Z</time>
      </trkpt>
      <trkpt lat="42.927160961553454" lon="-1.667713997885585">
        <ele>579.84900000000005</ele>
        <time>2015-08-22T11:22:55Z</time>
      </trkpt>
      <trkpt lat="42.927142018452287" lon="-1.667708968743682">
        <ele>580.21299999999997</ele>
        <time>2015-08-22T11:22:56Z</time>
      </trkpt>
      <trkpt lat="42.927122991532087" lon="-1.667709974572063">
        <ele>580.60799999999995</ele>
        <time>2015-08-22T11:22:57Z</time>
      </trkpt>
      <trkpt lat="42.927105976268649" lon="-1.667709974572063">
        <ele>581.09400000000005</ele>
        <time>2015-08-22T11:22:58Z</time>
      </trkpt>
      <trkpt lat="42.926987037062645" lon="-1.667726989835501">
        <ele>581.01300000000003</ele>
        <time>2015-08-22T11:23:04Z</time>
      </trkpt>
      <trkpt lat="42.926872037351131" lon="-1.667753979563713">
        <ele>581.06899999999996</ele>
        <time>2015-08-22T11:23:11Z</time>
      </trkpt>
      <trkpt lat="42.926710015162826" lon="-1.667755991220474">
        <ele>581.09299999999996</ele>
        <time>2015-08-22T11:23:20Z</time>
      </trkpt>
      <trkpt lat="42.926694005727768" lon="-1.667758002877235">
        <ele>581.49599999999998</ele>
        <time>2015-08-22T11:23:21Z</time>
      </trkpt>
      <trkpt lat="42.926675984635949" lon="-1.667763032019138">
        <ele>581.84900000000005</ele>
        <time>2015-08-22T11:23:22Z</time>
      </trkpt>
      <trkpt lat="42.926658969372511" lon="-1.667766971513629">
        <ele>582.21000000000004</ele>
        <time>2015-08-22T11:23:23Z</time>
      </trkpt>
      <trkpt lat="42.926638014614582" lon="-1.667766971513629">
        <ele>582.697</ele>
        <time>2015-08-22T11:23:24Z</time>
      </trkpt>
      <trkpt lat="42.926617981866002" lon="-1.667764959856868">
        <ele>583.02499999999998</ele>
        <time>2015-08-22T11:23:25Z</time>
      </trkpt>
      <trkpt lat="42.926585962995887" lon="-1.667762026190758">
        <ele>583.02599999999995</ele>
        <time>2015-08-22T11:23:27Z</time>
      </trkpt>
      <trkpt lat="42.926500970497727" lon="-1.667755991220474">
        <ele>583.40800000000002</ele>
        <time>2015-08-22T11:23:32Z</time>
      </trkpt>
      <trkpt lat="42.926484039053321" lon="-1.667760014533997">
        <ele>583.80799999999999</ele>
        <time>2015-08-22T11:23:33Z</time>
      </trkpt>
      <trkpt lat="42.926465012133121" lon="-1.667760014533997">
        <ele>584.45299999999997</ele>
        <time>2015-08-22T11:23:34Z</time>
      </trkpt>
      <trkpt lat="42.926450008526444" lon="-1.667764037847519">
        <ele>584.85199999999998</ele>
        <time>2015-08-22T11:23:35Z</time>
      </trkpt>
      <trkpt lat="42.926436010748148" lon="-1.66776797734201">
        <ele>585.28800000000001</ele>
        <time>2015-08-22T11:23:36Z</time>
      </trkpt>
      <trkpt lat="42.92631296440959" lon="-1.667764037847519">
        <ele>585.25199999999995</ele>
        <time>2015-08-22T11:23:43Z</time>
      </trkpt>
      <trkpt lat="42.926268959417939" lon="-1.667753979563713">
        <ele>585.66499999999996</ele>
        <time>2015-08-22T11:23:46Z</time>
      </trkpt>
      <trkpt lat="42.926253033801913" lon="-1.667753979563713">
        <ele>586.02800000000002</ele>
        <time>2015-08-22T11:23:47Z</time>
      </trkpt>
      <trkpt lat="42.926239036023617" lon="-1.667754985392094">
        <ele>586.67899999999997</ele>
        <time>2015-08-22T11:23:48Z</time>
      </trkpt>
      <trkpt lat="42.92622403241694" lon="-1.667761020362377">
        <ele>587.02599999999995</ele>
        <time>2015-08-22T11:23:49Z</time>
      </trkpt>
      <trkpt lat="42.926208022981882" lon="-1.667763032019138">
        <ele>587.47799999999995</ele>
        <time>2015-08-22T11:23:50Z</time>
      </trkpt>
      <trkpt lat="42.926092017441988" lon="-1.667794967070222">
        <ele>587.83299999999997</ele>
        <time>2015-08-22T11:23:57Z</time>
      </trkpt>
      <trkpt lat="42.92607500217855" lon="-1.667797984555364">
        <ele>588.226</ele>
        <time>2015-08-22T11:23:58Z</time>
      </trkpt>
      <trkpt lat="42.926056981086731" lon="-1.667802007868886">
        <ele>588.60799999999995</ele>
        <time>2015-08-22T11:23:59Z</time>
      </trkpt>
      <trkpt lat="42.926041977480054" lon="-1.667806031182408">
        <ele>589.09799999999996</ele>
        <time>2015-08-22T11:24:00Z</time>
      </trkpt>
      <trkpt lat="42.926024962216616" lon="-1.667808964848518">
        <ele>589.48699999999997</ele>
        <time>2015-08-22T11:24:01Z</time>
      </trkpt>
      <trkpt lat="42.925938963890076" lon="-1.667819023132324">
        <ele>589.46299999999997</ele>
        <time>2015-08-22T11:24:06Z</time>
      </trkpt>
      <trkpt lat="42.925853971391916" lon="-1.66783201508224">
        <ele>589.88699999999994</ele>
        <time>2015-08-22T11:24:11Z</time>
      </trkpt>
      <trkpt lat="42.92583703994751" lon="-1.667836038395762">
        <ele>590.26999999999998</ele>
        <time>2015-08-22T11:24:12Z</time>
      </trkpt>
      <trkpt lat="42.925819018855691" lon="-1.667837966233492">
        <ele>590.673</ele>
        <time>2015-08-22T11:24:13Z</time>
      </trkpt>
      <trkpt lat="42.925798986107111" lon="-1.667845007032156">
        <ele>591.06399999999996</ele>
        <time>2015-08-22T11:24:14Z</time>
      </trkpt>
      <trkpt lat="42.925778031349182" lon="-1.667842995375395">
        <ele>591.471</ele>
        <time>2015-08-22T11:24:15Z</time>
      </trkpt>
      <trkpt lat="42.925757998600602" lon="-1.667841989547014">
        <ele>592.08900000000006</ele>
        <time>2015-08-22T11:24:16Z</time>
      </trkpt>
      <trkpt lat="42.925746012479067" lon="-1.667839977890253">
        <ele>592.60599999999999</ele>
        <time>2015-08-22T11:24:17Z</time>
      </trkpt>
      <trkpt lat="42.92573100887239" lon="-1.667836038395762">
        <ele>593.02599999999995</ele>
        <time>2015-08-22T11:24:18Z</time>
      </trkpt>
      <trkpt lat="42.92571198195219" lon="-1.667835032567382">
        <ele>593.60799999999995</ele>
        <time>2015-08-22T11:24:19Z</time>
      </trkpt>
      <trkpt lat="42.925695972517133" lon="-1.667834026739001">
        <ele>594.24900000000002</ele>
        <time>2015-08-22T11:24:20Z</time>
      </trkpt>
      <trkpt lat="42.925679963082075" lon="-1.667833020910621">
        <ele>594.22799999999995</ele>
        <time>2015-08-22T11:24:21Z</time>
      </trkpt>
      <trkpt lat="42.92555901221931" lon="-1.66781198233366">
        <ele>594.22400000000005</ele>
        <time>2015-08-22T11:24:28Z</time>
      </trkpt>
      <trkpt lat="42.925433032214642" lon="-1.667779041454196">
        <ele>594.27800000000002</ele>
        <time>2015-08-22T11:24:35Z</time>
      </trkpt>
      <trkpt lat="42.92530202306807" lon="-1.667729001492262">
        <ele>594.27099999999996</ele>
        <time>2015-08-22T11:24:43Z</time>
      </trkpt>
      <trkpt lat="42.925262041389942" lon="-1.667704023420811">
        <ele>594.66399999999999</ele>
        <time>2015-08-22T11:24:46Z</time>
      </trkpt>
      <trkpt lat="42.925246031954885" lon="-1.667694970965385">
        <ele>595.09500000000003</ele>
        <time>2015-08-22T11:24:47Z</time>
      </trkpt>
      <trkpt lat="42.925233040004969" lon="-1.667689019814134">
        <ele>595.452</ele>
        <time>2015-08-22T11:24:48Z</time>
      </trkpt>
      <trkpt lat="42.925220970064402" lon="-1.667683990672231">
        <ele>595.88599999999997</ele>
        <time>2015-08-22T11:24:49Z</time>
      </trkpt>
      <trkpt lat="42.925204960629344" lon="-1.667680973187089">
        <ele>596.25999999999999</ele>
        <time>2015-08-22T11:24:50Z</time>
      </trkpt>
      <trkpt lat="42.925097001716495" lon="-1.667633028700948">
        <ele>596.226</ele>
        <time>2015-08-22T11:24:58Z</time>
      </trkpt>
      <trkpt lat="42.925089038908482" lon="-1.667621964588761">
        <ele>596.60799999999995</ele>
        <time>2015-08-22T11:24:59Z</time>
      </trkpt>
      <trkpt lat="42.925083003938198" lon="-1.667611990123987">
        <ele>597.06899999999996</ele>
        <time>2015-08-22T11:25:00Z</time>
      </trkpt>
      <trkpt lat="42.925075963139534" lon="-1.667597992345691">
        <ele>597.47799999999995</ele>
        <time>2015-08-22T11:25:01Z</time>
      </trkpt>
      <trkpt lat="42.925068000331521" lon="-1.667587012052536">
        <ele>597.87400000000002</ele>
        <time>2015-08-22T11:25:02Z</time>
      </trkpt>
      <trkpt lat="42.925052996724844" lon="-1.667586006224155">
        <ele>598.27800000000002</ele>
        <time>2015-08-22T11:25:03Z</time>
      </trkpt>
      <trkpt lat="42.925020977854729" lon="-1.667582988739014">
        <ele>598.83100000000002</ele>
        <time>2015-08-22T11:25:05Z</time>
      </trkpt>
      <trkpt lat="42.9250000230968" lon="-1.667583994567394">
        <ele>599.24400000000003</ele>
        <time>2015-08-22T11:25:06Z</time>
      </trkpt>
      <trkpt lat="42.924978984519839" lon="-1.667587012052536">
        <ele>599.67499999999995</ele>
        <time>2015-08-22T11:25:07Z</time>
      </trkpt>
      <trkpt lat="42.92496096342802" lon="-1.667592963203788">
        <ele>600.01199999999994</ele>
        <time>2015-08-22T11:25:08Z</time>
      </trkpt>
      <trkpt lat="42.924945959821343" lon="-1.66759598068893">
        <ele>600.46400000000006</ele>
        <time>2015-08-22T11:25:09Z</time>
      </trkpt>
      <trkpt lat="42.924876976758242" lon="-1.667604027315974">
        <ele>600.40599999999995</ele>
        <time>2015-08-22T11:25:13Z</time>
      </trkpt>
      <trkpt lat="42.924784021452069" lon="-1.66759698651731">
        <ele>600.81600000000003</ele>
        <time>2015-08-22T11:25:18Z</time>
      </trkpt>
      <trkpt lat="42.924771029502153" lon="-1.667592041194439">
        <ele>601.20799999999997</ele>
        <time>2015-08-22T11:25:19Z</time>
      </trkpt>
      <trkpt lat="42.924757031723857" lon="-1.667589023709297">
        <ele>601.67700000000002</ele>
        <time>2015-08-22T11:25:20Z</time>
      </trkpt>
      <trkpt lat="42.92474303394556" lon="-1.667590029537678">
        <ele>602.06600000000003</ele>
        <time>2015-08-22T11:25:21Z</time>
      </trkpt>
      <trkpt lat="42.924728030338883" lon="-1.667591035366058">
        <ele>602.42200000000003</ele>
        <time>2015-08-22T11:25:22Z</time>
      </trkpt>
      <trkpt lat="42.924654018133879" lon="-1.667567985132337">
        <ele>602.476</ele>
        <time>2015-08-22T11:25:27Z</time>
      </trkpt>
      <trkpt lat="42.92461403645575" lon="-1.667558010667563">
        <ele>602.86900000000003</ele>
        <time>2015-08-22T11:25:30Z</time>
      </trkpt>
      <trkpt lat="42.924600960686803" lon="-1.66755398735404">
        <ele>603.28200000000004</ele>
        <time>2015-08-22T11:25:31Z</time>
      </trkpt>
      <trkpt lat="42.924586962908506" lon="-1.667548036202788">
        <ele>603.63300000000004</ele>
        <time>2015-08-22T11:25:32Z</time>
      </trkpt>
      <trkpt lat="42.92457296513021" lon="-1.667539989575744">
        <ele>604.28999999999996</ele>
        <time>2015-08-22T11:25:33Z</time>
      </trkpt>
      <trkpt lat="42.924561984837055" lon="-1.66753001511097">
        <ele>604.64400000000001</ele>
        <time>2015-08-22T11:25:34Z</time>
      </trkpt>
      <trkpt lat="42.924546981230378" lon="-1.667523980140686">
        <ele>604.60500000000002</ele>
        <time>2015-08-22T11:25:35Z</time>
      </trkpt>
      <trkpt lat="42.924451008439064" lon="-1.667440999299288">
        <ele>605.01499999999999</ele>
        <time>2015-08-22T11:25:42Z</time>
      </trkpt>
      <trkpt lat="42.92444203980267" lon="-1.667421972379088">
        <ele>605.40800000000002</ele>
        <time>2015-08-22T11:25:43Z</time>
      </trkpt>
      <trkpt lat="42.924427036195993" lon="-1.667410992085934">
        <ele>605.86500000000001</ele>
        <time>2015-08-22T11:25:44Z</time>
      </trkpt>
      <trkpt lat="42.924411026760936" lon="-1.667396994307637">
        <ele>606.25400000000002</ele>
        <time>2015-08-22T11:25:45Z</time>
      </trkpt>
      <trkpt lat="42.924396023154259" lon="-1.667387019842863">
        <ele>606.61000000000001</ele>
        <time>2015-08-22T11:25:46Z</time>
      </trkpt>
      <trkpt lat="42.924352018162608" lon="-1.66735801845789">
        <ele>606.69399999999996</ele>
        <time>2015-08-22T11:25:49Z</time>
      </trkpt>
      <trkpt lat="42.924237018451095" lon="-1.667291969060898">
        <ele>606.61699999999996</ele>
        <time>2015-08-22T11:25:56Z</time>
      </trkpt>
      <trkpt lat="42.924203993752599" lon="-1.66727302595973">
        <ele>607.08000000000004</ele>
        <time>2015-08-22T11:25:58Z</time>
      </trkpt>
      <trkpt lat="42.924182033166289" lon="-1.667265985161066">
        <ele>607.471</ele>
        <time>2015-08-22T11:25:59Z</time>
      </trkpt>
      <trkpt lat="42.924158982932568" lon="-1.667259028181434">
        <ele>608.428</ele>
        <time>2015-08-22T11:26:00Z</time>
      </trkpt>
      <trkpt lat="42.924137022346258" lon="-1.667248969897628">
        <ele>608.81200000000001</ele>
        <time>2015-08-22T11:26:01Z</time>
      </trkpt>
      <trkpt lat="42.924119001254439" lon="-1.667231032624841">
        <ele>608.83199999999999</ele>
        <time>2015-08-22T11:26:02Z</time>
      </trkpt>
      <trkpt lat="42.923973994329572" lon="-1.667147967964411">
        <ele>608.80499999999995</ele>
        <time>2015-08-22T11:26:08Z</time>
      </trkpt>
      <trkpt lat="42.923833010718226" lon="-1.667074039578438">
        <ele>608.80799999999999</ele>
        <time>2015-08-22T11:26:12Z</time>
      </trkpt>
      <trkpt lat="42.923743994906545" lon="-1.667033974081278">
        <ele>608.822</ele>
        <time>2015-08-22T11:26:14Z</time>
      </trkpt>
      <trkpt lat="42.923556994646788" lon="-1.66695199906826">
        <ele>608.851</ele>
        <time>2015-08-22T11:26:18Z</time>
      </trkpt>
      <trkpt lat="42.923460016027093" lon="-1.666899025440216">
        <ele>608.47699999999998</ele>
        <time>2015-08-22T11:26:20Z</time>
      </trkpt>
      <trkpt lat="42.923419028520584" lon="-1.666873041540384">
        <ele>608.01099999999997</ele>
        <time>2015-08-22T11:26:21Z</time>
      </trkpt>
      <trkpt lat="42.923375023528934" lon="-1.66684303432703">
        <ele>607.62400000000002</ele>
        <time>2015-08-22T11:26:22Z</time>
      </trkpt>
      <trkpt lat="42.923320038244128" lon="-1.666816966608167">
        <ele>607.28700000000003</ele>
        <time>2015-08-22T11:26:23Z</time>
      </trkpt>
      <trkpt lat="42.92326002381742" lon="-1.666792994365096">
        <ele>606.84799999999996</ele>
        <time>2015-08-22T11:26:24Z</time>
      </trkpt>
      <trkpt lat="42.923086015507579" lon="-1.666706996038556">
        <ele>606.83500000000004</ele>
        <time>2015-08-22T11:26:27Z</time>
      </trkpt>
      <trkpt lat="42.922920975834131" lon="-1.666631978005171">
        <ele>606.83500000000004</ele>
        <time>2015-08-22T11:26:30Z</time>
      </trkpt>
      <trkpt lat="42.922802036628127" lon="-1.666618986055255">
        <ele>606.88599999999997</ele>
        <time>2015-08-22T11:26:32Z</time>
      </trkpt>
      <trkpt lat="42.922684019431472" lon="-1.66662996634841">
        <ele>606.81399999999996</ele>
        <time>2015-08-22T11:26:34Z</time>
      </trkpt>
      <trkpt lat="42.922583017498255" lon="-1.66662996634841">
        <ele>606.80799999999999</ele>
        <time>2015-08-22T11:26:36Z</time>
      </trkpt>
      <trkpt lat="42.922474974766374" lon="-1.666615968570113">
        <ele>606.85400000000004</ele>
        <time>2015-08-22T11:26:39Z</time>
      </trkpt>
      <trkpt lat="42.922382019460201" lon="-1.66656400077045">
        <ele>606.85299999999995</ele>
        <time>2015-08-22T11:26:44Z</time>
      </trkpt>
      <trkpt lat="42.922318987548351" lon="-1.666512032970786">
        <ele>606.83900000000006</ele>
        <time>2015-08-22T11:26:50Z</time>
      </trkpt>
      <trkpt lat="42.922199964523315" lon="-1.666483031585813">
        <ele>606.89300000000003</ele>
        <time>2015-08-22T11:26:57Z</time>
      </trkpt>
      <trkpt lat="42.922099968418479" lon="-1.666486971080303">
        <ele>606.87599999999998</ele>
        <time>2015-08-22T11:27:02Z</time>
      </trkpt>
      <trkpt lat="42.9220350086689" lon="-1.666470039635897">
        <ele>607.26900000000001</ele>
        <time>2015-08-22T11:27:07Z</time>
      </trkpt>
      <trkpt lat="42.922022016718984" lon="-1.666459981352091">
        <ele>607.63999999999999</ele>
        <time>2015-08-22T11:27:08Z</time>
      </trkpt>
      <trkpt lat="42.922006007283926" lon="-1.666452018544078">
        <ele>608.04700000000003</ele>
        <time>2015-08-22T11:27:09Z</time>
      </trkpt>
      <trkpt lat="42.921991003677249" lon="-1.666443971917033">
        <ele>608.47799999999995</ele>
        <time>2015-08-22T11:27:10Z</time>
      </trkpt>
      <trkpt lat="42.921979017555714" lon="-1.66643600910902">
        <ele>608.83299999999997</ele>
        <time>2015-08-22T11:27:11Z</time>
      </trkpt>
      <trkpt lat="42.921930989250541" lon="-1.666422011330724">
        <ele>608.82600000000002</ele>
        <time>2015-08-22T11:27:14Z</time>
      </trkpt>
      <trkpt lat="42.921839961782098" lon="-1.666401978582144">
        <ele>608.80799999999999</ele>
        <time>2015-08-22T11:27:20Z</time>
      </trkpt>
      <trkpt lat="42.921823030337691" lon="-1.666396027430892">
        <ele>609.22799999999995</ele>
        <time>2015-08-22T11:27:21Z</time>
      </trkpt>
      <trkpt lat="42.921810960397124" lon="-1.666387980803847">
        <ele>609.63699999999994</ele>
        <time>2015-08-22T11:27:22Z</time>
      </trkpt>
      <trkpt lat="42.921797968447208" lon="-1.666384963318706">
        <ele>610.053</ele>
        <time>2015-08-22T11:27:23Z</time>
      </trkpt>
      <trkpt lat="42.921781959012151" lon="-1.666384041309357">
        <ele>610.47699999999998</ele>
        <time>2015-08-22T11:27:24Z</time>
      </trkpt>
      <trkpt lat="42.921752035617828" lon="-1.666390998288989">
        <ele>610.86000000000001</ele>
        <time>2015-08-22T11:27:25Z</time>
      </trkpt>
      <trkpt lat="42.921664025634527" lon="-1.666396027430892">
        <ele>610.82299999999998</ele>
        <time>2015-08-22T11:27:29Z</time>
      </trkpt>
      <trkpt lat="42.921578027307987" lon="-1.666322015225887">
        <ele>611.22400000000005</ele>
        <time>2015-08-22T11:27:35Z</time>
      </trkpt>
      <trkpt lat="42.921561012044549" lon="-1.666313968598843">
        <ele>611.68100000000004</ele>
        <time>2015-08-22T11:27:36Z</time>
      </trkpt>
      <trkpt lat="42.921545002609491" lon="-1.66630600579083">
        <ele>612.04200000000003</ele>
        <time>2015-08-22T11:27:37Z</time>
      </trkpt>
      <trkpt lat="42.921525975689292" lon="-1.666302988305688">
        <ele>612.42200000000003</ele>
        <time>2015-08-22T11:27:38Z</time>
      </trkpt>
      <trkpt lat="42.921506026759744" lon="-1.666294019669294">
        <ele>612.81399999999996</ele>
        <time>2015-08-22T11:27:39Z</time>
      </trkpt>
      <trkpt lat="42.921402007341385" lon="-1.666271975263953">
        <ele>612.80799999999999</ele>
        <time>2015-08-22T11:27:44Z</time>
      </trkpt>
      <trkpt lat="42.92128499597311" lon="-1.666241968050599">
        <ele>613.28499999999997</ele>
        <time>2015-08-22T11:27:51Z</time>
      </trkpt>
      <trkpt lat="42.921266974881291" lon="-1.666235011070967">
        <ele>613.87400000000002</ele>
        <time>2015-08-22T11:27:52Z</time>
      </trkpt>
      <trkpt lat="42.921249959617853" lon="-1.666226964443922">
        <ele>614.26999999999998</ele>
        <time>2015-08-22T11:27:53Z</time>
      </trkpt>
      <trkpt lat="42.921235039830208" lon="-1.666214978322387">
        <ele>614.69399999999996</ele>
        <time>2015-08-22T11:27:54Z</time>
      </trkpt>
      <trkpt lat="42.921223975718021" lon="-1.666205003857613">
        <ele>615.09699999999998</ele>
        <time>2015-08-22T11:27:55Z</time>
      </trkpt>
      <trkpt lat="42.921179970726371" lon="-1.66615697555244">
        <ele>615.05999999999995</ele>
        <time>2015-08-22T11:27:59Z</time>
      </trkpt>
      <trkpt lat="42.921177037060261" lon="-1.666144989430904">
        <ele>615.42100000000005</ele>
        <time>2015-08-22T11:28:00Z</time>
      </trkpt>
      <trkpt lat="42.921171002089977" lon="-1.66613400913775">
        <ele>616.02800000000002</ele>
        <time>2015-08-22T11:28:01Z</time>
      </trkpt>
      <trkpt lat="42.921166978776455" lon="-1.66613400913775">
        <ele>616.44799999999998</ele>
        <time>2015-08-22T11:28:02Z</time>
      </trkpt>
      <trkpt lat="42.921151975169778" lon="-1.666117999702692">
        <ele>616.86099999999999</ele>
        <time>2015-08-22T11:28:03Z</time>
      </trkpt>
      <trkpt lat="42.921140994876623" lon="-1.666102996096015">
        <ele>617.41700000000003</ele>
        <time>2015-08-22T11:28:04Z</time>
      </trkpt>
      <trkpt lat="42.921130014583468" lon="-1.666093021631241">
        <ele>617.40800000000002</ele>
        <time>2015-08-22T11:28:05Z</time>
      </trkpt>
      <trkpt lat="42.92106899432838" lon="-1.666075000539422">
        <ele>617.81500000000005</ele>
        <time>2015-08-22T11:28:09Z</time>
      </trkpt>
      <trkpt lat="42.921053990721703" lon="-1.6660709772259">
        <ele>618.23400000000004</ele>
        <time>2015-08-22T11:28:10Z</time>
      </trkpt>
      <trkpt lat="42.921035969629884" lon="-1.666065026074648">
        <ele>618.67999999999995</ele>
        <time>2015-08-22T11:28:11Z</time>
      </trkpt>
      <trkpt lat="42.921023983508348" lon="-1.666063014417887">
        <ele>619.05399999999997</ele>
        <time>2015-08-22T11:28:12Z</time>
      </trkpt>
      <trkpt lat="42.921008979901671" lon="-1.666062008589506">
        <ele>619.68700000000001</ele>
        <time>2015-08-22T11:28:13Z</time>
      </trkpt>
      <trkpt lat="42.92098400183022" lon="-1.666058991104364">
        <ele>619.63</ele>
        <time>2015-08-22T11:28:16Z</time>
      </trkpt>
      <trkpt lat="42.92098299600184" lon="-1.666061002761126">
        <ele>619.69100000000003</ele>
        <time>2015-08-22T11:29:17Z</time>
      </trkpt>
      <trkpt lat="42.92098299600184" lon="-1.666061002761126">
        <ele>619.65800000000002</ele>
        <time>2015-08-22T11:29:18Z</time>
      </trkpt>
      <trkpt lat="42.92098299600184" lon="-1.666061002761126">
        <ele>619.61400000000003</ele>
        <time>2015-08-22T11:29:25Z</time>
      </trkpt>
      <trkpt lat="42.92096103541553" lon="-1.666061002761126">
        <ele>619.654</ele>
        <time>2015-08-22T11:29:26Z</time>
      </trkpt>
      <trkpt lat="42.920947959646583" lon="-1.666081035509706">
        <ele>619.60900000000004</ele>
        <time>2015-08-22T11:29:27Z</time>
      </trkpt>
      <trkpt lat="42.920933961868286" lon="-1.666082963347435">
        <ele>619.60799999999995</ele>
        <time>2015-08-22T11:29:28Z</time>
      </trkpt>
      <trkpt lat="42.920894986018538" lon="-1.66609201580286">
        <ele>619.65200000000004</ele>
        <time>2015-08-22T11:29:31Z</time>
      </trkpt>
      <trkpt lat="42.920846035704017" lon="-1.666082041338086">
        <ele>619.63099999999997</ele>
        <time>2015-08-22T11:29:34Z</time>
      </trkpt>
      <trkpt lat="42.920814016833901" lon="-1.666090004146099">
        <ele>619.64700000000005</ele>
        <time>2015-08-22T11:29:37Z</time>
      </trkpt>
      <trkpt lat="42.920794989913702" lon="-1.666097966954112">
        <ele>619.62099999999998</ele>
        <time>2015-08-22T11:29:38Z</time>
      </trkpt>
      <trkpt lat="42.920770011842251" lon="-1.666109031066299">
        <ele>620.01400000000001</ele>
        <time>2015-08-22T11:29:40Z</time>
      </trkpt>
      <trkpt lat="42.920759031549096" lon="-1.666115988045931">
        <ele>620.48699999999997</ele>
        <time>2015-08-22T11:29:41Z</time>
      </trkpt>
      <trkpt lat="42.92074796743691" lon="-1.666126968339086">
        <ele>621.28800000000001</ele>
        <time>2015-08-22T11:29:42Z</time>
      </trkpt>
      <trkpt lat="42.920736987143755" lon="-1.666136020794511">
        <ele>621.63499999999999</ele>
        <time>2015-08-22T11:29:43Z</time>
      </trkpt>
      <trkpt lat="42.920671021565795" lon="-1.666192011907697">
        <ele>621.63900000000001</ele>
        <time>2015-08-22T11:29:48Z</time>
      </trkpt>
      <trkpt lat="42.920612012967467" lon="-1.66624397970736">
        <ele>621.601</ele>
        <time>2015-08-22T11:29:54Z</time>
      </trkpt>
      <trkpt lat="42.920578988268971" lon="-1.666271975263953">
        <ele>621.62099999999998</ele>
        <time>2015-08-22T11:29:58Z</time>
      </trkpt>
      <trkpt lat="42.920556021854281" lon="-1.666297037154436">
        <ele>622.00800000000004</ele>
        <time>2015-08-22T11:30:00Z</time>
      </trkpt>
      <trkpt lat="42.920550992712379" lon="-1.666298964992166">
        <ele>622.47400000000005</ele>
        <time>2015-08-22T11:30:01Z</time>
      </trkpt>
      <trkpt lat="42.920539006590843" lon="-1.666309023275971">
        <ele>622.81299999999999</ele>
        <time>2015-08-22T11:30:02Z</time>
      </trkpt>
      <trkpt lat="42.920527020469308" lon="-1.666320003569126">
        <ele>623.23900000000003</ele>
        <time>2015-08-22T11:30:03Z</time>
      </trkpt>
      <trkpt lat="42.920512016862631" lon="-1.666330983862281">
        <ele>623.86300000000006</ele>
        <time>2015-08-22T11:30:04Z</time>
      </trkpt>
      <trkpt lat="42.920471029356122" lon="-1.666356967762113">
        <ele>623.88599999999997</ele>
        <time>2015-08-22T11:30:06Z</time>
      </trkpt>
      <trkpt lat="42.920412020757794" lon="-1.666379012167454">
        <ele>623.82899999999995</ele>
        <time>2015-08-22T11:30:12Z</time>
      </trkpt>
      <trkpt lat="42.920406991615891" lon="-1.666378006339073">
        <ele>623.88</ele>
        <time>2015-08-22T11:30:14Z</time>
      </trkpt>
      <trkpt lat="42.920401962473989" lon="-1.666380017995834">
        <ele>623.86699999999996</ele>
        <time>2015-08-22T11:30:15Z</time>
      </trkpt>
      <trkpt lat="42.920378996059299" lon="-1.666402984410524">
        <ele>622.08799999999997</ele>
        <time>2015-08-22T11:30:21Z</time>
      </trkpt>
      <trkpt lat="42.920373966917396" lon="-1.666423017159104">
        <ele>621.62400000000002</ele>
        <time>2015-08-22T11:30:22Z</time>
      </trkpt>
      <trkpt lat="42.920370027422905" lon="-1.666439026594162">
        <ele>621.62599999999998</ele>
        <time>2015-08-22T11:30:23Z</time>
      </trkpt>
      <trkpt lat="42.92036097496748" lon="-1.666466016322374">
        <ele>621.60799999999995</ele>
        <time>2015-08-22T11:30:25Z</time>
      </trkpt>
      <trkpt lat="42.920353012159467" lon="-1.666505998000503">
        <ele>621.63900000000001</ele>
        <time>2015-08-22T11:30:28Z</time>
      </trkpt>
      <trkpt lat="42.920353012159467" lon="-1.666505998000503">
        <ele>621.63800000000003</ele>
        <time>2015-08-22T11:30:29Z</time>
      </trkpt>
      <trkpt lat="42.920353012159467" lon="-1.666514966636896">
        <ele>621.61400000000003</ele>
        <time>2015-08-22T11:30:30Z</time>
      </trkpt>
      <trkpt lat="42.920368015766144" lon="-1.66654497385025">
        <ele>622.03800000000001</ele>
        <time>2015-08-22T11:30:34Z</time>
      </trkpt>
      <trkpt lat="42.92038100771606" lon="-1.666559977456927">
        <ele>622.48099999999999</ele>
        <time>2015-08-22T11:30:35Z</time>
      </trkpt>
      <trkpt lat="42.920387964695692" lon="-1.666568024083972">
        <ele>622.87400000000002</ele>
        <time>2015-08-22T11:30:36Z</time>
      </trkpt>
      <trkpt lat="42.920389976352453" lon="-1.666572969406843">
        <ele>623.22500000000002</ele>
        <time>2015-08-22T11:30:37Z</time>
      </trkpt>
      <trkpt lat="42.92040497995913" lon="-1.666585961356759">
        <ele>623.69200000000001</ele>
        <time>2015-08-22T11:30:38Z</time>
      </trkpt>
      <trkpt lat="42.92042501270771" lon="-1.666609011590481">
        <ele>624.27800000000002</ele>
        <time>2015-08-22T11:30:42Z</time>
      </trkpt>
      <trkpt lat="42.92042501270771" lon="-1.6666270326823">
        <ele>624.63300000000004</ele>
        <time>2015-08-22T11:30:43Z</time>
      </trkpt>
      <trkpt lat="42.92042400687933" lon="-1.666642958298326">
        <ele>625.02599999999995</ele>
        <time>2015-08-22T11:30:44Z</time>
      </trkpt>
      <trkpt lat="42.920426018536091" lon="-1.66665100492537">
        <ele>625.40800000000002</ele>
        <time>2015-08-22T11:30:45Z</time>
      </trkpt>
      <trkpt lat="42.920426018536091" lon="-1.666661985218525">
        <ele>625.87800000000004</ele>
        <time>2015-08-22T11:30:46Z</time>
      </trkpt>
      <trkpt lat="42.920421995222569" lon="-1.666696015745401">
        <ele>625.83699999999999</ele>
        <time>2015-08-22T11:30:49Z</time>
      </trkpt>
      <trkpt lat="42.920414032414556" lon="-1.666706996038556">
        <ele>625.89300000000003</ele>
        <time>2015-08-22T11:30:52Z</time>
      </trkpt>
      <trkpt lat="42.920399028807878" lon="-1.66671596467495">
        <ele>626.49699999999996</ele>
        <time>2015-08-22T11:30:54Z</time>
      </trkpt>
      <trkpt lat="42.920392993837595" lon="-1.666724011301994">
        <ele>626.82000000000005</ele>
        <time>2015-08-22T11:30:55Z</time>
      </trkpt>
      <trkpt lat="42.920386036857963" lon="-1.666727028787136">
        <ele>627.28300000000002</ele>
        <time>2015-08-22T11:30:56Z</time>
      </trkpt>
      <trkpt lat="42.920372961089015" lon="-1.666729040443897">
        <ele>628.09400000000005</ele>
        <time>2015-08-22T11:30:57Z</time>
      </trkpt>
      <trkpt lat="42.920329961925745" lon="-1.66673599742353">
        <ele>628.07100000000003</ele>
        <time>2015-08-22T11:31:01Z</time>
      </trkpt>
      <trkpt lat="42.920288974419236" lon="-1.666740020737052">
        <ele>628.43399999999997</ele>
        <time>2015-08-22T11:31:06Z</time>
      </trkpt>
      <trkpt lat="42.920281011611223" lon="-1.666744966059923">
        <ele>628.85500000000002</ele>
        <time>2015-08-22T11:31:07Z</time>
      </trkpt>
      <trkpt lat="42.920281011611223" lon="-1.666745971888304">
        <ele>629.40999999999997</ele>
        <time>2015-08-22T11:31:08Z</time>
      </trkpt>
      <trkpt lat="42.92027497664094" lon="-1.666749995201826">
        <ele>629.80799999999999</ele>
        <time>2015-08-22T11:31:09Z</time>
      </trkpt>
      <trkpt lat="42.920270031318069" lon="-1.666754018515348">
        <ele>630.23400000000004</ele>
        <time>2015-08-22T11:31:10Z</time>
      </trkpt>
      <trkpt lat="42.920259973034263" lon="-1.666761981323361">
        <ele>630.25300000000004</ele>
        <time>2015-08-22T11:31:12Z</time>
      </trkpt>
      <trkpt lat="42.920259973034263" lon="-1.666761981323361">
        <ele>632.279</ele>
        <time>2015-08-22T11:31:18Z</time>
      </trkpt>
      <trkpt lat="42.920244969427586" lon="-1.666787965223193">
        <ele>632.21299999999997</ele>
        <time>2015-08-22T11:31:21Z</time>
      </trkpt>
      <trkpt lat="42.920240024104714" lon="-1.666795006021857">
        <ele>632.25599999999997</ele>
        <time>2015-08-22T11:31:22Z</time>
      </trkpt>
      <trkpt lat="42.920213034376502" lon="-1.666827024891973">
        <ele>632.24900000000002</ele>
        <time>2015-08-22T11:31:25Z</time>
      </trkpt>
      <trkpt lat="42.920219991356134" lon="-1.666847979649901">
        <ele>632.28999999999996</ele>
        <time>2015-08-22T11:31:27Z</time>
      </trkpt>
      <trkpt lat="42.920194007456303" lon="-1.666910005733371">
        <ele>632.62699999999995</ele>
        <time>2015-08-22T11:31:32Z</time>
      </trkpt>
      <trkpt lat="42.920195013284683" lon="-1.666927020996809">
        <ele>633.02700000000004</ele>
        <time>2015-08-22T11:31:33Z</time>
      </trkpt>
      <trkpt lat="42.920190989971161" lon="-1.66693196631968">
        <ele>633.46799999999996</ele>
        <time>2015-08-22T11:31:34Z</time>
      </trkpt>
      <trkpt lat="42.920186966657639" lon="-1.666958034038544">
        <ele>633.81399999999996</ele>
        <time>2015-08-22T11:31:35Z</time>
      </trkpt>
      <trkpt lat="42.9201889783144" lon="-1.666978988796473">
        <ele>634.20799999999997</ele>
        <time>2015-08-22T11:31:36Z</time>
      </trkpt>
      <trkpt lat="42.920143967494369" lon="-1.667077979072928">
        <ele>634.25300000000004</ele>
        <time>2015-08-22T11:31:41Z</time>
      </trkpt>
      <trkpt lat="42.920136004686356" lon="-1.667096000164747">
        <ele>634.63199999999995</ele>
        <time>2015-08-22T11:31:42Z</time>
      </trkpt>
      <trkpt lat="42.920132987201214" lon="-1.667106980457902">
        <ele>635.26800000000003</ele>
        <time>2015-08-22T11:31:43Z</time>
      </trkpt>
      <trkpt lat="42.920128041878343" lon="-1.667116032913327">
        <ele>635.62199999999996</ele>
        <time>2015-08-22T11:31:44Z</time>
      </trkpt>
      <trkpt lat="42.92012401856482" lon="-1.667119972407818">
        <ele>636.09500000000003</ele>
        <time>2015-08-22T11:31:45Z</time>
      </trkpt>
      <trkpt lat="42.920113038271666" lon="-1.667141010984778">
        <ele>636.48800000000006</ele>
        <time>2015-08-22T11:31:46Z</time>
      </trkpt>
      <trkpt lat="42.920105997473001" lon="-1.667154002934694">
        <ele>636.49900000000002</ele>
        <time>2015-08-22T11:31:47Z</time>
      </trkpt>
      <trkpt lat="42.920100968331099" lon="-1.667155008763075">
        <ele>636.41600000000005</ele>
        <time>2015-08-22T11:31:48Z</time>
      </trkpt>
      <trkpt lat="42.920100968331099" lon="-1.667155008763075">
        <ele>636.88300000000004</ele>
        <time>2015-08-22T11:31:51Z</time>
      </trkpt>
      <trkpt lat="42.920091999694705" lon="-1.66716699488461">
        <ele>637.22500000000002</ele>
        <time>2015-08-22T11:31:52Z</time>
      </trkpt>
      <trkpt lat="42.920086970552802" lon="-1.667178981006146">
        <ele>637.81700000000001</ele>
        <time>2015-08-22T11:31:53Z</time>
      </trkpt>
      <trkpt lat="42.920078001916409" lon="-1.6671899612993">
        <ele>638.20799999999997</ele>
        <time>2015-08-22T11:31:54Z</time>
      </trkpt>
      <trkpt lat="42.920070039108396" lon="-1.667199013754726">
        <ele>638.66899999999998</ele>
        <time>2015-08-22T11:31:55Z</time>
      </trkpt>
      <trkpt lat="42.920050006359816" lon="-1.667270008474588">
        <ele>638.68799999999999</ele>
        <time>2015-08-22T11:32:01Z</time>
      </trkpt>
      <trkpt lat="42.920036008581519" lon="-1.667290963232517">
        <ele>639.06399999999996</ele>
        <time>2015-08-22T11:32:04Z</time>
      </trkpt>
      <trkpt lat="42.920029973611236" lon="-1.66729599237442">
        <ele>639.41800000000001</ele>
        <time>2015-08-22T11:32:05Z</time>
      </trkpt>
      <trkpt lat="42.920025028288364" lon="-1.667303033173084">
        <ele>639.82100000000003</ele>
        <time>2015-08-22T11:32:06Z</time>
      </trkpt>
      <trkpt lat="42.920021004974842" lon="-1.667329017072916">
        <ele>640.654</ele>
        <time>2015-08-22T11:32:17Z</time>
      </trkpt>
      <trkpt lat="42.920014970004559" lon="-1.667333040386438">
        <ele>641.08500000000004</ele>
        <time>2015-08-22T11:32:18Z</time>
      </trkpt>
      <trkpt lat="42.920004995539784" lon="-1.66733899153769">
        <ele>641.43200000000002</ele>
        <time>2015-08-22T11:32:19Z</time>
      </trkpt>
      <trkpt lat="42.919999966397882" lon="-1.667345026507974">
        <ele>641.88499999999999</ele>
        <time>2015-08-22T11:32:20Z</time>
      </trkpt>
      <trkpt lat="42.919988986104727" lon="-1.667377967387438">
        <ele>642.68899999999996</ele>
        <time>2015-08-22T11:32:25Z</time>
      </trkpt>
      <trkpt lat="42.91997498832643" lon="-1.667433036491275">
        <ele>642.61699999999996</ele>
        <time>2015-08-22T11:32:29Z</time>
      </trkpt>
      <trkpt lat="42.919970965012908" lon="-1.667438987642527">
        <ele>642.60799999999995</ele>
        <time>2015-08-22T11:32:30Z</time>
      </trkpt>
      <trkpt lat="42.919967025518417" lon="-1.66744401678443">
        <ele>643.45899999999995</ele>
        <time>2015-08-22T11:32:32Z</time>
      </trkpt>
      <trkpt lat="42.919966019690037" lon="-1.667453991249204">
        <ele>643.89800000000002</ele>
        <time>2015-08-22T11:32:33Z</time>
      </trkpt>
      <trkpt lat="42.919969037175179" lon="-1.667473018169403">
        <ele>644.86400000000003</ele>
        <time>2015-08-22T11:32:35Z</time>
      </trkpt>
      <trkpt lat="42.91995101608336" lon="-1.667507970705628">
        <ele>644.81799999999998</ele>
        <time>2015-08-22T11:32:39Z</time>
      </trkpt>
      <trkpt lat="42.919949004426599" lon="-1.667520040646195">
        <ele>645.26099999999997</ele>
        <time>2015-08-22T11:32:41Z</time>
      </trkpt>
      <trkpt lat="42.91995202191174" lon="-1.667533032596111">
        <ele>645.64400000000001</ele>
        <time>2015-08-22T11:32:42Z</time>
      </trkpt>
      <trkpt lat="42.919955961406231" lon="-1.667548036202788">
        <ele>646.01499999999999</ele>
        <time>2015-08-22T11:32:43Z</time>
      </trkpt>
      <trkpt lat="42.919947998598218" lon="-1.667555999010801">
        <ele>647.072</ele>
        <time>2015-08-22T11:32:51Z</time>
      </trkpt>
      <trkpt lat="42.919940035790205" lon="-1.667580977082253">
        <ele>647.47299999999996</ele>
        <time>2015-08-22T11:32:53Z</time>
      </trkpt>
      <trkpt lat="42.919932994991541" lon="-1.667586006224155">
        <ele>647.88499999999999</ele>
        <time>2015-08-22T11:32:54Z</time>
      </trkpt>
      <trkpt lat="42.919926960021257" lon="-1.66759598068893">
        <ele>648.21299999999997</ele>
        <time>2015-08-22T11:32:55Z</time>
      </trkpt>
      <trkpt lat="42.919920003041625" lon="-1.667607966810465">
        <ele>648.60799999999995</ele>
        <time>2015-08-22T11:32:56Z</time>
      </trkpt>
      <trkpt lat="42.919918997213244" lon="-1.667621964588761">
        <ele>649.24800000000005</ele>
        <time>2015-08-22T11:32:57Z</time>
      </trkpt>
      <trkpt lat="42.919920003041625" lon="-1.667634034529328">
        <ele>649.22699999999998</ele>
        <time>2015-08-22T11:32:58Z</time>
      </trkpt>
      <trkpt lat="42.919906005263329" lon="-1.667668987065554">
        <ele>649.21299999999997</ele>
        <time>2015-08-22T11:33:01Z</time>
      </trkpt>
      <trkpt lat="42.919904999434948" lon="-1.667675022035837">
        <ele>649.28700000000003</ele>
        <time>2015-08-22T11:33:02Z</time>
      </trkpt>
      <trkpt lat="42.919902987778187" lon="-1.66768197901547">
        <ele>650.46000000000004</ele>
        <time>2015-08-22T11:33:07Z</time>
      </trkpt>
      <trkpt lat="42.919903993606567" lon="-1.667696982622147">
        <ele>650.87300000000005</ele>
        <time>2015-08-22T11:33:08Z</time>
      </trkpt>
      <trkpt lat="42.919902987778187" lon="-1.667713997885585">
        <ele>651.21400000000006</ele>
        <time>2015-08-22T11:33:09Z</time>
      </trkpt>
      <trkpt lat="42.919902987778187" lon="-1.667741993442178">
        <ele>651.25099999999998</ele>
        <time>2015-08-22T11:33:11Z</time>
      </trkpt>
      <trkpt lat="42.919895024970174" lon="-1.667770994827151">
        <ele>651.22699999999998</ele>
        <time>2015-08-22T11:33:14Z</time>
      </trkpt>
      <trkpt lat="42.919892007485032" lon="-1.667777029797435">
        <ele>651.26800000000003</ele>
        <time>2015-08-22T11:33:15Z</time>
      </trkpt>
      <trkpt lat="42.919885972514749" lon="-1.667813993990421">
        <ele>651.61400000000003</ele>
        <time>2015-08-22T11:33:19Z</time>
      </trkpt>
      <trkpt lat="42.919883960857987" lon="-1.667822040617466">
        <ele>652.00800000000004</ele>
        <time>2015-08-22T11:33:20Z</time>
      </trkpt>
      <trkpt lat="42.919880021363497" lon="-1.667833020910621">
        <ele>652.69299999999998</ele>
        <time>2015-08-22T11:33:21Z</time>
      </trkpt>
      <trkpt lat="42.919874992221594" lon="-1.667839977890253">
        <ele>653.04200000000003</ele>
        <time>2015-08-22T11:33:22Z</time>
      </trkpt>
      <trkpt lat="42.919870968908072" lon="-1.667846012860537">
        <ele>653.44799999999998</ele>
        <time>2015-08-22T11:33:23Z</time>
      </trkpt>
      <trkpt lat="42.919853031635284" lon="-1.667879037559032">
        <ele>653.43200000000002</ele>
        <time>2015-08-22T11:33:28Z</time>
      </trkpt>
      <trkpt lat="42.919855965301394" lon="-1.667910972610116">
        <ele>653.88499999999999</ele>
        <time>2015-08-22T11:33:31Z</time>
      </trkpt>
      <trkpt lat="42.919858982786536" lon="-1.667920025065541">
        <ele>654.22799999999995</ele>
        <time>2015-08-22T11:33:32Z</time>
      </trkpt>
      <trkpt lat="42.919862000271678" lon="-1.667933017015457">
        <ele>654.61900000000003</ele>
        <time>2015-08-22T11:33:33Z</time>
      </trkpt>
      <trkpt lat="42.9198660235852" lon="-1.667950032278895">
        <ele>655.06600000000003</ele>
        <time>2015-08-22T11:33:34Z</time>
      </trkpt>
      <trkpt lat="42.919867029413581" lon="-1.667966963723302">
        <ele>655.44600000000003</ele>
        <time>2015-08-22T11:33:35Z</time>
      </trkpt>
      <trkpt lat="42.919862000271678" lon="-1.667990013957024">
        <ele>655.48800000000006</ele>
        <time>2015-08-22T11:33:36Z</time>
      </trkpt>
      <trkpt lat="42.919826963916421" lon="-1.668036030605435">
        <ele>655.41600000000005</ele>
        <time>2015-08-22T11:33:42Z</time>
      </trkpt>
      <trkpt lat="42.919826963916421" lon="-1.668058997020125">
        <ele>657.40800000000002</ele>
        <time>2015-08-22T11:33:52Z</time>
      </trkpt>
      <trkpt lat="42.919832998886704" lon="-1.668142983689904">
        <ele>657.44500000000005</ele>
        <time>2015-08-22T11:33:57Z</time>
      </trkpt>
      <trkpt lat="42.919821012765169" lon="-1.66817500256002">
        <ele>657.47400000000005</ele>
        <time>2015-08-22T11:34:00Z</time>
      </trkpt>
      <trkpt lat="42.919797040522099" lon="-1.668200986459851">
        <ele>657.41999999999996</ele>
        <time>2015-08-22T11:34:03Z</time>
      </trkpt>
      <trkpt lat="42.919794023036957" lon="-1.668210960924625">
        <ele>657.84400000000005</ele>
        <time>2015-08-22T11:34:04Z</time>
      </trkpt>
      <trkpt lat="42.919792011380196" lon="-1.668223030865192">
        <ele>658.46699999999998</ele>
        <time>2015-08-22T11:34:05Z</time>
      </trkpt>
      <trkpt lat="42.919792011380196" lon="-1.668236022815108">
        <ele>658.82000000000005</ele>
        <time>2015-08-22T11:34:06Z</time>
      </trkpt>
      <trkpt lat="42.919789999723434" lon="-1.668245997279882">
        <ele>659.25099999999998</ele>
        <time>2015-08-22T11:34:07Z</time>
      </trkpt>
      <trkpt lat="42.919789999723434" lon="-1.668245997279882">
        <ele>659.61800000000005</ele>
        <time>2015-08-22T11:34:15Z</time>
      </trkpt>
      <trkpt lat="42.919782036915421" lon="-1.668316991999745">
        <ele>659.673</ele>
        <time>2015-08-22T11:34:19Z</time>
      </trkpt>
      <trkpt lat="42.919747000560164" lon="-1.668421011418104">
        <ele>659.68499999999995</ele>
        <time>2015-08-22T11:34:25Z</time>
      </trkpt>
      <trkpt lat="42.9197399597615" lon="-1.668436015024781">
        <ele>660.01300000000003</ele>
        <time>2015-08-22T11:34:26Z</time>
      </trkpt>
      <trkpt lat="42.919734008610249" lon="-1.668441966176033">
        <ele>660.40800000000002</ele>
        <time>2015-08-22T11:34:27Z</time>
      </trkpt>
      <trkpt lat="42.919734008610249" lon="-1.668440960347652">
        <ele>661.06799999999998</ele>
        <time>2015-08-22T11:34:28Z</time>
      </trkpt>
      <trkpt lat="42.919729985296726" lon="-1.668450012803078">
        <ele>661.45699999999999</ele>
        <time>2015-08-22T11:34:29Z</time>
      </trkpt>
      <trkpt lat="42.919726967811584" lon="-1.66845596395433">
        <ele>661.81299999999999</ele>
        <time>2015-08-22T11:34:30Z</time>
      </trkpt>
      <trkpt lat="42.91971699334681" lon="-1.668498041108251">
        <ele>661.85699999999997</ele>
        <time>2015-08-22T11:34:34Z</time>
      </trkpt>
      <trkpt lat="42.919697966426611" lon="-1.668547997251153">
        <ele>662.25999999999999</ele>
        <time>2015-08-22T11:34:38Z</time>
      </trkpt>
      <trkpt lat="42.919690003618598" lon="-1.668555038049817">
        <ele>662.64300000000003</ele>
        <time>2015-08-22T11:34:39Z</time>
      </trkpt>
      <trkpt lat="42.919680029153824" lon="-1.66856300085783">
        <ele>663.44399999999996</ele>
        <time>2015-08-22T11:34:40Z</time>
      </trkpt>
      <trkpt lat="42.919677011668682" lon="-1.668568029999733">
        <ele>663.82100000000003</ele>
        <time>2015-08-22T11:34:41Z</time>
      </trkpt>
      <trkpt lat="42.919668965041637" lon="-1.668588984757662">
        <ele>663.89099999999996</ele>
        <time>2015-08-22T11:34:43Z</time>
      </trkpt>
      <trkpt lat="42.919668965041637" lon="-1.668588984757662">
        <ele>663.88099999999997</ele>
        <time>2015-08-22T11:34:59Z</time>
      </trkpt>
      <trkpt lat="42.919643986970186" lon="-1.66862603276968">
        <ele>663.81899999999996</ele>
        <time>2015-08-22T11:35:02Z</time>
      </trkpt>
      <trkpt lat="42.919625965878367" lon="-1.668697027489543">
        <ele>663.80799999999999</ele>
        <time>2015-08-22T11:35:08Z</time>
      </trkpt>
      <trkpt lat="42.919615991413593" lon="-1.668737009167671">
        <ele>664.27999999999997</ele>
        <time>2015-08-22T11:35:10Z</time>
      </trkpt>
      <trkpt lat="42.919612973928452" lon="-1.668754024431109">
        <ele>664.67899999999997</ele>
        <time>2015-08-22T11:35:11Z</time>
      </trkpt>
      <trkpt lat="42.919609034433961" lon="-1.66875695809722">
        <ele>665.03499999999997</ele>
        <time>2015-08-22T11:35:12Z</time>
      </trkpt>
      <trkpt lat="42.919595036655664" lon="-1.66877799667418">
        <ele>665.41899999999998</ele>
        <time>2015-08-22T11:35:13Z</time>
      </trkpt>
      <trkpt lat="42.919585984200239" lon="-1.668793000280857">
        <ele>665.83199999999999</ele>
        <time>2015-08-22T11:35:14Z</time>
      </trkpt>
      <trkpt lat="42.91956402361393" lon="-1.668844968080521">
        <ele>665.86500000000001</ele>
        <time>2015-08-22T11:35:18Z</time>
      </trkpt>
      <trkpt lat="42.919560000300407" lon="-1.668872041627765">
        <ele>666.26599999999996</ele>
        <time>2015-08-22T11:35:21Z</time>
      </trkpt>
      <trkpt lat="42.919557988643646" lon="-1.668886039406061">
        <ele>666.83299999999997</ele>
        <time>2015-08-22T11:35:22Z</time>
      </trkpt>
      <trkpt lat="42.919540973380208" lon="-1.668917974457145">
        <ele>667.63400000000001</ele>
        <time>2015-08-22T11:35:24Z</time>
      </trkpt>
      <trkpt lat="42.919533010572195" lon="-1.668935995548964">
        <ele>668.05499999999995</ele>
        <time>2015-08-22T11:35:25Z</time>
      </trkpt>
      <trkpt lat="42.919528987258673" lon="-1.668955022469163">
        <ele>668.00999999999999</ele>
        <time>2015-08-22T11:35:26Z</time>
      </trkpt>
      <trkpt lat="42.91952496394515" lon="-1.669024005532265">
        <ele>668.40800000000002</ele>
        <time>2015-08-22T11:35:29Z</time>
      </trkpt>
      <trkpt lat="42.91952395811677" lon="-1.669038003310561">
        <ele>668.83399999999995</ele>
        <time>2015-08-22T11:35:30Z</time>
      </trkpt>
      <trkpt lat="42.91952102445066" lon="-1.669041020795703">
        <ele>669.26300000000003</ele>
        <time>2015-08-22T11:35:31Z</time>
      </trkpt>
      <trkpt lat="42.919519012793899" lon="-1.669053006917238">
        <ele>669.67899999999997</ele>
        <time>2015-08-22T11:35:32Z</time>
      </trkpt>
      <trkpt lat="42.919510966166854" lon="-1.669074967503548">
        <ele>670.02300000000002</ele>
        <time>2015-08-22T11:35:33Z</time>
      </trkpt>
      <trkpt lat="42.91950199753046" lon="-1.669097011908889">
        <ele>670.02599999999995</ele>
        <time>2015-08-22T11:35:36Z</time>
      </trkpt>
      <trkpt lat="42.919495962560177" lon="-1.669117966666818">
        <ele>670.41899999999998</ele>
        <time>2015-08-22T11:35:38Z</time>
      </trkpt>
      <trkpt lat="42.919496968388557" lon="-1.669130958616734">
        <ele>670.83000000000004</ele>
        <time>2015-08-22T11:35:39Z</time>
      </trkpt>
      <trkpt lat="42.919495962560177" lon="-1.669144034385681">
        <ele>671.23699999999997</ele>
        <time>2015-08-22T11:35:40Z</time>
      </trkpt>
      <trkpt lat="42.919495962560177" lon="-1.669170018285513">
        <ele>671.65300000000002</ele>
        <time>2015-08-22T11:35:41Z</time>
      </trkpt>
      <trkpt lat="42.919497974216938" lon="-1.669190973043442">
        <ele>672.20399999999995</ele>
        <time>2015-08-22T11:35:42Z</time>
      </trkpt>
      <trkpt lat="42.919477019459009" lon="-1.669288035482168">
        <ele>672.21400000000006</ele>
        <time>2015-08-22T11:35:47Z</time>
      </trkpt>
      <trkpt lat="42.91945899836719" lon="-1.669335979968309">
        <ele>672.60799999999995</ele>
        <time>2015-08-22T11:35:50Z</time>
      </trkpt>
      <trkpt lat="42.919452041387558" lon="-1.669349977746606">
        <ele>673.06600000000003</ele>
        <time>2015-08-22T11:35:51Z</time>
      </trkpt>
      <trkpt lat="42.919442988932133" lon="-1.669362969696522">
        <ele>673.43499999999995</ele>
        <time>2015-08-22T11:35:52Z</time>
      </trkpt>
      <trkpt lat="42.919426979497075" lon="-1.669377973303199">
        <ele>673.81100000000004</ele>
        <time>2015-08-22T11:35:53Z</time>
      </trkpt>
      <trkpt lat="42.919409964233637" lon="-1.669398006051779">
        <ele>674.22500000000002</ele>
        <time>2015-08-22T11:35:54Z</time>
      </trkpt>
      <trkpt lat="42.919365959241986" lon="-1.669467994943261">
        <ele>674.23800000000006</ele>
        <time>2015-08-22T11:36:01Z</time>
      </trkpt>
      <trkpt lat="42.919355984777212" lon="-1.669517029076815">
        <ele>674.61099999999999</ele>
        <time>2015-08-22T11:36:04Z</time>
      </trkpt>
      <trkpt lat="42.919353973120451" lon="-1.669527003541589">
        <ele>675.06200000000001</ele>
        <time>2015-08-22T11:36:05Z</time>
      </trkpt>
      <trkpt lat="42.919353973120451" lon="-1.669542007148266">
        <ele>675.46900000000005</ele>
        <time>2015-08-22T11:36:06Z</time>
      </trkpt>
      <trkpt lat="42.919354978948832" lon="-1.669560028240085">
        <ele>675.81700000000001</ele>
        <time>2015-08-22T11:36:07Z</time>
      </trkpt>
      <trkpt lat="42.919360008090734" lon="-1.669575031846762">
        <ele>676.28700000000003</ele>
        <time>2015-08-22T11:36:08Z</time>
      </trkpt>
      <trkpt lat="42.919353973120451" lon="-1.669626999646425">
        <ele>676.21500000000003</ele>
        <time>2015-08-22T11:36:13Z</time>
      </trkpt>
      <trkpt lat="42.919322038069367" lon="-1.669679973274469">
        <ele>676.60799999999995</ele>
        <time>2015-08-22T11:36:16Z</time>
      </trkpt>
      <trkpt lat="42.919314997270703" lon="-1.669693971052766">
        <ele>677.072</ele>
        <time>2015-08-22T11:36:17Z</time>
      </trkpt>
      <trkpt lat="42.919305022805929" lon="-1.669706040993333">
        <ele>677.66099999999994</ele>
        <time>2015-08-22T11:36:18Z</time>
      </trkpt>
      <trkpt lat="42.919302005320787" lon="-1.669717021286488">
        <ele>678.47699999999998</ele>
        <time>2015-08-22T11:36:19Z</time>
      </trkpt>
      <trkpt lat="42.919278033077717" lon="-1.669801007956266">
        <ele>678.46100000000001</ele>
        <time>2015-08-22T11:36:27Z</time>
      </trkpt>
      <trkpt lat="42.919276021420956" lon="-1.669811988249421">
        <ele>678.85400000000004</ele>
        <time>2015-08-22T11:36:28Z</time>
      </trkpt>
      <trkpt lat="42.919273003935814" lon="-1.669821962714195">
        <ele>679.25699999999995</ele>
        <time>2015-08-22T11:36:29Z</time>
      </trkpt>
      <trkpt lat="42.919268980622292" lon="-1.669832020998001">
        <ele>679.62800000000004</ele>
        <time>2015-08-22T11:36:30Z</time>
      </trkpt>
      <trkpt lat="42.91926403529942" lon="-1.669840989634395">
        <ele>680.09500000000003</ele>
        <time>2015-08-22T11:36:31Z</time>
      </trkpt>
      <trkpt lat="42.919250959530473" lon="-1.669856999069452">
        <ele>680.43200000000002</ele>
        <time>2015-08-22T11:36:32Z</time>
      </trkpt>
      <trkpt lat="42.919224975630641" lon="-1.669880971312523">
        <ele>680.49199999999996</ele>
        <time>2015-08-22T11:36:35Z</time>
      </trkpt>
      <trkpt lat="42.919197985902429" lon="-1.669919025152922">
        <ele>680.81100000000004</ele>
        <time>2015-08-22T11:36:41Z</time>
      </trkpt>
      <trkpt lat="42.919193962588906" lon="-1.669927993789315">
        <ele>681.20799999999997</ele>
        <time>2015-08-22T11:36:42Z</time>
      </trkpt>
      <trkpt lat="42.919191028922796" lon="-1.669936962425709">
        <ele>682.21400000000006</ele>
        <time>2015-08-22T11:36:43Z</time>
      </trkpt>
      <trkpt lat="42.919185999780893" lon="-1.669944003224373">
        <ele>682.63300000000004</ele>
        <time>2015-08-22T11:36:44Z</time>
      </trkpt>
      <trkpt lat="42.919174013659358" lon="-1.670028995722532">
        <ele>682.62900000000002</ele>
        <time>2015-08-22T11:36:51Z</time>
      </trkpt>
      <trkpt lat="42.919174013659358" lon="-1.670037964358926">
        <ele>683.07299999999998</ele>
        <time>2015-08-22T11:36:52Z</time>
      </trkpt>
      <trkpt lat="42.919174013659358" lon="-1.670050034299493">
        <ele>683.69600000000003</ele>
        <time>2015-08-22T11:36:53Z</time>
      </trkpt>
      <trkpt lat="42.919170996174216" lon="-1.670063026249409">
        <ele>684.08900000000006</ele>
        <time>2015-08-22T11:36:54Z</time>
      </trkpt>
      <trkpt lat="42.919170996174216" lon="-1.670074006542563">
        <ele>684.63</ele>
        <time>2015-08-22T11:36:55Z</time>
      </trkpt>
      <trkpt lat="42.919169990345836" lon="-1.670084986835718">
        <ele>685.04700000000003</ele>
        <time>2015-08-22T11:36:56Z</time>
      </trkpt>
      <trkpt lat="42.919164039194584" lon="-1.670124968513846">
        <ele>685.09799999999996</ele>
        <time>2015-08-22T11:36:59Z</time>
      </trkpt>
      <trkpt lat="42.919109975919127" lon="-1.670254971832037">
        <ele>685.01499999999999</ele>
        <time>2015-08-22T11:37:07Z</time>
      </trkpt>
      <trkpt lat="42.91909396648407" lon="-1.670275004580617">
        <ele>685.42600000000004</ele>
        <time>2015-08-22T11:37:09Z</time>
      </trkpt>
      <trkpt lat="42.919087009504437" lon="-1.670284979045391">
        <ele>686.00800000000004</ele>
        <time>2015-08-22T11:37:10Z</time>
      </trkpt>
      <trkpt lat="42.919084997847676" lon="-1.670296965166926">
        <ele>686.47000000000003</ele>
        <time>2015-08-22T11:37:11Z</time>
      </trkpt>
      <trkpt lat="42.919080974534154" lon="-1.670321021229029">
        <ele>686.87900000000002</ele>
        <time>2015-08-22T11:37:12Z</time>
      </trkpt>
      <trkpt lat="42.919077035039663" lon="-1.670324960723519">
        <ele>687.28499999999997</ele>
        <time>2015-08-22T11:37:13Z</time>
      </trkpt>
      <trkpt lat="42.919073011726141" lon="-1.670330995693803">
        <ele>687.29899999999998</ele>
        <time>2015-08-22T11:37:14Z</time>
      </trkpt>
      <trkpt lat="42.919069994240999" lon="-1.670338958501816">
        <ele>687.27200000000005</ele>
        <time>2015-08-22T11:37:15Z</time>
      </trkpt>
      <trkpt lat="42.919064965099096" lon="-1.670347005128861">
        <ele>687.26499999999999</ele>
        <time>2015-08-22T11:37:16Z</time>
      </trkpt>
      <trkpt lat="42.919062031432986" lon="-1.670356979593635">
        <ele>687.27599999999995</ele>
        <time>2015-08-22T11:37:17Z</time>
      </trkpt>
      <trkpt lat="42.919046021997929" lon="-1.670401990413666">
        <ele>687.61300000000006</ele>
        <time>2015-08-22T11:37:21Z</time>
      </trkpt>
      <trkpt lat="42.919044010341167" lon="-1.670415988191962">
        <ele>688.01900000000001</ele>
        <time>2015-08-22T11:37:22Z</time>
      </trkpt>
      <trkpt lat="42.919041998684406" lon="-1.670429985970259">
        <ele>688.40899999999999</ele>
        <time>2015-08-22T11:37:23Z</time>
      </trkpt>
      <trkpt lat="42.919043004512787" lon="-1.670443983748555">
        <ele>688.81899999999996</ele>
        <time>2015-08-22T11:37:24Z</time>
      </trkpt>
      <trkpt lat="42.919040992856026" lon="-1.670456975698471">
        <ele>689.20799999999997</ele>
        <time>2015-08-22T11:37:25Z</time>
      </trkpt>
      <trkpt lat="42.919003022834659" lon="-1.670527970418334">
        <ele>689.23199999999997</ele>
        <time>2015-08-22T11:37:31Z</time>
      </trkpt>
      <trkpt lat="42.918996987864375" lon="-1.670553032308817">
        <ele>689.23099999999999</ele>
        <time>2015-08-22T11:37:33Z</time>
      </trkpt>
      <trkpt lat="42.918992964550853" lon="-1.670566024258733">
        <ele>689.64700000000005</ele>
        <time>2015-08-22T11:37:34Z</time>
      </trkpt>
      <trkpt lat="42.918990030884743" lon="-1.670579016208649">
        <ele>690.03099999999995</ele>
        <time>2015-08-22T11:37:35Z</time>
      </trkpt>
      <trkpt lat="42.918987013399601" lon="-1.670586979016662">
        <ele>690.49400000000003</ele>
        <time>2015-08-22T11:37:36Z</time>
      </trkpt>
      <trkpt lat="42.918981984257698" lon="-1.670589996501803">
        <ele>691.077</ele>
        <time>2015-08-22T11:37:37Z</time>
      </trkpt>
      <trkpt lat="42.918981984257698" lon="-1.670589996501803">
        <ele>691.46799999999996</ele>
        <time>2015-08-22T11:37:38Z</time>
      </trkpt>
      <trkpt lat="42.918931022286415" lon="-1.670686975121498">
        <ele>691.495</ele>
        <time>2015-08-22T11:37:46Z</time>
      </trkpt>
      <trkpt lat="42.918911995366216" lon="-1.670719999819994">
        <ele>691.85900000000004</ele>
        <time>2015-08-22T11:37:49Z</time>
      </trkpt>
      <trkpt lat="42.918908977881074" lon="-1.670727962628007">
        <ele>692.20299999999997</ele>
        <time>2015-08-22T11:37:50Z</time>
      </trkpt>
      <trkpt lat="42.918896991759539" lon="-1.670747995376587">
        <ele>693.423</ele>
        <time>2015-08-22T11:37:53Z</time>
      </trkpt>
      <trkpt lat="42.918893974274397" lon="-1.670758975669742">
        <ele>693.40800000000002</ele>
        <time>2015-08-22T11:37:54Z</time>
      </trkpt>
      <trkpt lat="42.918885005638003" lon="-1.670786971226335">
        <ele>693.43600000000004</ele>
        <time>2015-08-22T11:37:56Z</time>
      </trkpt>
      <trkpt lat="42.91885600425303" lon="-1.6708820220083">
        <ele>693.41499999999996</ele>
        <time>2015-08-22T11:38:03Z</time>
      </trkpt>
      <trkpt lat="42.91883303783834" lon="-1.67092502117157">
        <ele>693.87099999999998</ele>
        <time>2015-08-22T11:38:06Z</time>
      </trkpt>
      <trkpt lat="42.918822979554534" lon="-1.670930972322822">
        <ele>694.26499999999999</ele>
        <time>2015-08-22T11:38:07Z</time>
      </trkpt>
      <trkpt lat="42.91881401091814" lon="-1.670937007293105">
        <ele>694.63800000000003</ele>
        <time>2015-08-22T11:38:08Z</time>
      </trkpt>
      <trkpt lat="42.91881401091814" lon="-1.670937007293105">
        <ele>695.26099999999997</ele>
        <time>2015-08-22T11:38:09Z</time>
      </trkpt>
      <trkpt lat="42.918806970119476" lon="-1.670945975929499">
        <ele>695.63199999999995</ele>
        <time>2015-08-22T11:38:10Z</time>
      </trkpt>
      <trkpt lat="42.918766988441348" lon="-1.671030968427658">
        <ele>695.63900000000001</ele>
        <time>2015-08-22T11:38:17Z</time>
      </trkpt>
      <trkpt lat="42.918761959299445" lon="-1.671042032539845">
        <ele>695.62599999999998</ele>
        <time>2015-08-22T11:38:18Z</time>
      </trkpt>
      <trkpt lat="42.918759025633335" lon="-1.67105401866138">
        <ele>696.04700000000003</ele>
        <time>2015-08-22T11:38:19Z</time>
      </trkpt>
      <trkpt lat="42.91875097900629" lon="-1.671078996732831">
        <ele>696.41099999999994</ele>
        <time>2015-08-22T11:38:20Z</time>
      </trkpt>
      <trkpt lat="42.918734969571233" lon="-1.671091988682747">
        <ele>696.80799999999999</ele>
        <time>2015-08-22T11:38:21Z</time>
      </trkpt>
      <trkpt lat="42.918729018419981" lon="-1.671103974804282">
        <ele>697.63300000000004</ele>
        <time>2015-08-22T11:38:22Z</time>
      </trkpt>
      <trkpt lat="42.918724995106459" lon="-1.671115038916469">
        <ele>697.67200000000003</ele>
        <time>2015-08-22T11:38:23Z</time>
      </trkpt>
      <trkpt lat="42.918687025085092" lon="-1.671243030577898">
        <ele>697.65800000000002</ele>
        <time>2015-08-22T11:38:33Z</time>
      </trkpt>
      <trkpt lat="42.918678978458047" lon="-1.671259040012956">
        <ele>698.09199999999998</ele>
        <time>2015-08-22T11:38:34Z</time>
      </trkpt>
      <trkpt lat="42.918675038963556" lon="-1.671260967850685">
        <ele>698.45500000000004</ele>
        <time>2015-08-22T11:38:35Z</time>
      </trkpt>
      <trkpt lat="42.918666992336512" lon="-1.671283012256026">
        <ele>698.89800000000002</ele>
        <time>2015-08-22T11:38:36Z</time>
      </trkpt>
      <trkpt lat="42.918665986508131" lon="-1.671297010034323">
        <ele>699.28899999999999</ele>
        <time>2015-08-22T11:38:37Z</time>
      </trkpt>
      <trkpt lat="42.91866498067975" lon="-1.671307990327478">
        <ele>699.68600000000004</ele>
        <time>2015-08-22T11:38:38Z</time>
      </trkpt>
      <trkpt lat="42.91866498067975" lon="-1.671318970620632">
        <ele>699.673</ele>
        <time>2015-08-22T11:38:39Z</time>
      </trkpt>
      <trkpt lat="42.918634973466396" lon="-1.671425001695752">
        <ele>700.08500000000004</ele>
        <time>2015-08-22T11:38:48Z</time>
      </trkpt>
      <trkpt lat="42.918632961809635" lon="-1.671434976160526">
        <ele>700.61300000000006</ele>
        <time>2015-08-22T11:38:49Z</time>
      </trkpt>
      <trkpt lat="42.918632039800286" lon="-1.671443022787571">
        <ele>701.40800000000002</ele>
        <time>2015-08-22T11:38:51Z</time>
      </trkpt>
      <trkpt lat="42.918630028143525" lon="-1.671454003080726">
        <ele>701.81799999999998</ele>
        <time>2015-08-22T11:38:52Z</time>
      </trkpt>
      <trkpt lat="42.918613012880087" lon="-1.671495996415615">
        <ele>701.86699999999996</ele>
        <time>2015-08-22T11:38:58Z</time>
      </trkpt>
      <trkpt lat="42.91859901510179" lon="-1.671512005850673">
        <ele>701.85299999999995</ele>
        <time>2015-08-22T11:39:00Z</time>
      </trkpt>
      <trkpt lat="42.918591974303126" lon="-1.671524997800589">
        <ele>701.86699999999996</ele>
        <time>2015-08-22T11:39:01Z</time>
      </trkpt>
      <trkpt lat="42.918583005666733" lon="-1.671544024720788">
        <ele>702.26999999999998</ele>
        <time>2015-08-22T11:39:03Z</time>
      </trkpt>
      <trkpt lat="42.918579988181591" lon="-1.671551987528801">
        <ele>702.62300000000005</ele>
        <time>2015-08-22T11:39:04Z</time>
      </trkpt>
      <trkpt lat="42.918575964868069" lon="-1.671560034155846">
        <ele>703.05399999999997</ele>
        <time>2015-08-22T11:39:05Z</time>
      </trkpt>
      <trkpt lat="42.918571019545197" lon="-1.671566991135478">
        <ele>703.46100000000001</ele>
        <time>2015-08-22T11:39:06Z</time>
      </trkpt>
      <trkpt lat="42.918565990403295" lon="-1.671574031934142">
        <ele>703.86400000000003</ele>
        <time>2015-08-22T11:39:07Z</time>
      </trkpt>
      <trkpt lat="42.918560961261392" lon="-1.671580988913775">
        <ele>703.80600000000004</ele>
        <time>2015-08-22T11:39:08Z</time>
      </trkpt>
      <trkpt lat="42.918557021766901" lon="-1.671595992520452">
        <ele>703.81600000000003</ele>
        <time>2015-08-22T11:39:10Z</time>
      </trkpt>
      <trkpt lat="42.918557021766901" lon="-1.671603033319116">
        <ele>703.80799999999999</ele>
        <time>2015-08-22T11:39:11Z</time>
      </trkpt>
      <trkpt lat="42.91855501011014" lon="-1.671615019440651">
        <ele>703.87699999999995</ele>
        <time>2015-08-22T11:39:12Z</time>
      </trkpt>
      <trkpt lat="42.918529026210308" lon="-1.671682996675372">
        <ele>704.27599999999995</ele>
        <time>2015-08-22T11:39:16Z</time>
      </trkpt>
      <trkpt lat="42.918518967926502" lon="-1.671707974746823">
        <ele>705.08199999999999</ele>
        <time>2015-08-22T11:39:18Z</time>
      </trkpt>
      <trkpt lat="42.918508993461728" lon="-1.67172197252512">
        <ele>705.64599999999996</ele>
        <time>2015-08-22T11:39:19Z</time>
      </trkpt>
      <trkpt lat="42.918502036482096" lon="-1.671733036637306">
        <ele>706.04899999999998</ele>
        <time>2015-08-22T11:39:20Z</time>
      </trkpt>
      <trkpt lat="42.918462976813316" lon="-1.671821968629956">
        <ele>706.44200000000001</ele>
        <time>2015-08-22T11:39:25Z</time>
      </trkpt>
      <trkpt lat="42.918453002348542" lon="-1.671835966408253">
        <ele>706.87300000000005</ele>
        <time>2015-08-22T11:39:26Z</time>
      </trkpt>
      <trkpt lat="42.918444033712149" lon="-1.67184803634882">
        <ele>707.25</ele>
        <time>2015-08-22T11:39:27Z</time>
      </trkpt>
      <trkpt lat="42.918435987085104" lon="-1.671859016641974">
        <ele>707.83500000000004</ele>
        <time>2015-08-22T11:39:28Z</time>
      </trkpt>
      <trkpt lat="42.918432969599962" lon="-1.671869996935129">
        <ele>708.28599999999994</ele>
        <time>2015-08-22T11:39:29Z</time>
      </trkpt>
      <trkpt lat="42.91842701844871" lon="-1.671890029683709">
        <ele>708.61400000000003</ele>
        <time>2015-08-22T11:39:31Z</time>
      </trkpt>
      <trkpt lat="42.918421989306808" lon="-1.671903021633625">
        <ele>709.00800000000004</ele>
        <time>2015-08-22T11:39:32Z</time>
      </trkpt>
      <trkpt lat="42.918417965993285" lon="-1.671910984441638">
        <ele>709.43399999999997</ele>
        <time>2015-08-22T11:39:33Z</time>
      </trkpt>
      <trkpt lat="42.918410003185272" lon="-1.671918025240302">
        <ele>709.88300000000004</ele>
        <time>2015-08-22T11:39:34Z</time>
      </trkpt>
      <trkpt lat="42.918402962386608" lon="-1.671926993876696">
        <ele>710.29899999999998</ele>
        <time>2015-08-22T11:39:35Z</time>
      </trkpt>
      <trkpt lat="42.918367004022002" lon="-1.672011986374855">
        <ele>710.61300000000006</ele>
        <time>2015-08-22T11:39:42Z</time>
      </trkpt>
      <trkpt lat="42.918359963223338" lon="-1.672021960839629">
        <ele>711.03599999999994</ele>
        <time>2015-08-22T11:39:43Z</time>
      </trkpt>
      <trkpt lat="42.918352000415325" lon="-1.672031013295054">
        <ele>711.46900000000005</ele>
        <time>2015-08-22T11:39:44Z</time>
      </trkpt>
      <trkpt lat="42.918346971273422" lon="-1.672041993588209">
        <ele>711.88</ele>
        <time>2015-08-22T11:39:45Z</time>
      </trkpt>
      <trkpt lat="42.91834001429379" lon="-1.672054985538125">
        <ele>712.28700000000003</ele>
        <time>2015-08-22T11:39:46Z</time>
      </trkpt>
      <trkpt lat="42.918312018737197" lon="-1.672088010236621">
        <ele>712.27700000000004</ele>
        <time>2015-08-22T11:39:49Z</time>
      </trkpt>
      <trkpt lat="42.918258039280772" lon="-1.672165039926767">
        <ele>712.26099999999997</ele>
        <time>2015-08-22T11:39:55Z</time>
      </trkpt>
      <trkpt lat="42.918231971561909" lon="-1.672205021604896">
        <ele>712.62699999999995</ele>
        <time>2015-08-22T11:39:57Z</time>
      </trkpt>
      <trkpt lat="42.918219985440373" lon="-1.672222958877683">
        <ele>713.20799999999997</ele>
        <time>2015-08-22T11:39:58Z</time>
      </trkpt>
      <trkpt lat="42.918210010975599" lon="-1.67223502881825">
        <ele>713.678</ele>
        <time>2015-08-22T11:39:59Z</time>
      </trkpt>
      <trkpt lat="42.9181909840554" lon="-1.672249026596546">
        <ele>714.01700000000005</ele>
        <time>2015-08-22T11:40:00Z</time>
      </trkpt>
      <trkpt lat="42.918173968791962" lon="-1.672266041859984">
        <ele>714.66300000000001</ele>
        <time>2015-08-22T11:40:01Z</time>
      </trkpt>
      <trkpt lat="42.918153014034033" lon="-1.672296971082687">
        <ele>714.62699999999995</ele>
        <time>2015-08-22T11:40:03Z</time>
      </trkpt>
      <trkpt lat="42.91806198656559" lon="-1.672375006601214">
        <ele>714.63</ele>
        <time>2015-08-22T11:40:10Z</time>
      </trkpt>
      <trkpt lat="42.918012030422688" lon="-1.672416999936104">
        <ele>715.02300000000002</ele>
        <time>2015-08-22T11:40:15Z</time>
      </trkpt>
      <trkpt lat="42.918001972138882" lon="-1.672427980229259">
        <ele>715.42399999999998</ele>
        <time>2015-08-22T11:40:16Z</time>
      </trkpt>
      <trkpt lat="42.917988980188966" lon="-1.672438960522413">
        <ele>715.84100000000001</ele>
        <time>2015-08-22T11:40:17Z</time>
      </trkpt>
      <trkpt lat="42.917977999895811" lon="-1.6724500246346">
        <ele>716.28300000000002</ele>
        <time>2015-08-22T11:40:18Z</time>
      </trkpt>
      <trkpt lat="42.917968025431037" lon="-1.672461004927754">
        <ele>716.625</ele>
        <time>2015-08-22T11:40:19Z</time>
      </trkpt>
      <trkpt lat="42.917936006560922" lon="-1.67249402962625">
        <ele>716.61699999999996</ele>
        <time>2015-08-22T11:40:22Z</time>
      </trkpt>
      <trkpt lat="42.917917985469103" lon="-1.672539040446281">
        <ele>716.60799999999995</ele>
        <time>2015-08-22T11:40:25Z</time>
      </trkpt>
      <trkpt lat="42.917886972427368" lon="-1.672590002417564">
        <ele>717.06899999999996</ele>
        <time>2015-08-22T11:40:29Z</time>
      </trkpt>
      <trkpt lat="42.917874986305833" lon="-1.672600982710719">
        <ele>717.46799999999996</ele>
        <time>2015-08-22T11:40:30Z</time>
      </trkpt>
      <trkpt lat="42.917865011841059" lon="-1.672613974660635">
        <ele>717.84400000000005</ele>
        <time>2015-08-22T11:40:31Z</time>
      </trkpt>
      <trkpt lat="42.917854031547904" lon="-1.672624032944441">
        <ele>718.25800000000004</ele>
        <time>2015-08-22T11:40:32Z</time>
      </trkpt>
      <trkpt lat="42.917843973264098" lon="-1.672630989924073">
        <ele>718.69100000000003</ele>
        <time>2015-08-22T11:40:33Z</time>
      </trkpt>
      <trkpt lat="42.917814971879125" lon="-1.672660997137427">
        <ele>718.61400000000003</ele>
        <time>2015-08-22T11:40:36Z</time>
      </trkpt>
      <trkpt lat="42.917774990200996" lon="-1.672684969380498">
        <ele>718.61500000000001</ele>
        <time>2015-08-22T11:40:39Z</time>
      </trkpt>
      <trkpt lat="42.917765015736222" lon="-1.672696033492684">
        <ele>718.61199999999997</ele>
        <time>2015-08-22T11:40:40Z</time>
      </trkpt>
      <trkpt lat="42.917746994644403" lon="-1.672771973535419">
        <ele>718.69799999999998</ele>
        <time>2015-08-22T11:40:44Z</time>
      </trkpt>
      <trkpt lat="42.917721010744572" lon="-1.672869035974145">
        <ele>718.61500000000001</ele>
        <time>2015-08-22T11:40:48Z</time>
      </trkpt>
      <trkpt lat="42.917684968560934" lon="-1.672948999330401">
        <ele>718.62599999999998</ele>
        <time>2015-08-22T11:40:51Z</time>
      </trkpt>
      <trkpt lat="42.917626965790987" lon="-1.673050001263619">
        <ele>718.60799999999995</ele>
        <time>2015-08-22T11:40:55Z</time>
      </trkpt>
      <trkpt lat="42.917587989941239" lon="-1.673129964619875">
        <ele>718.67999999999995</ele>
        <time>2015-08-22T11:40:58Z</time>
      </trkpt>
      <trkpt lat="42.917574997991323" lon="-1.673157960176468">
        <ele>718.279</ele>
        <time>2015-08-22T11:40:59Z</time>
      </trkpt>
      <trkpt lat="42.917564017698169" lon="-1.673194002360106">
        <ele>717.81500000000005</ele>
        <time>2015-08-22T11:41:00Z</time>
      </trkpt>
      <trkpt lat="42.917551025748253" lon="-1.673228032886982">
        <ele>717.43899999999996</ele>
        <time>2015-08-22T11:41:01Z</time>
      </trkpt>
      <trkpt lat="42.917536022141576" lon="-1.673261979594827">
        <ele>717.05200000000002</ele>
        <time>2015-08-22T11:41:02Z</time>
      </trkpt>
      <trkpt lat="42.917522024363279" lon="-1.673293998464942">
        <ele>716.66499999999996</ele>
        <time>2015-08-22T11:41:03Z</time>
      </trkpt>
      <trkpt lat="42.917481036856771" lon="-1.673384020105004">
        <ele>716.62599999999998</ele>
        <time>2015-08-22T11:41:06Z</time>
      </trkpt>
      <trkpt lat="42.917453041300178" lon="-1.673432970419526">
        <ele>716.24300000000005</ele>
        <time>2015-08-22T11:41:08Z</time>
      </trkpt>
      <trkpt lat="42.917433008551598" lon="-1.673454008996487">
        <ele>715.88900000000001</ele>
        <time>2015-08-22T11:41:09Z</time>
      </trkpt>
      <trkpt lat="42.917414987459779" lon="-1.673480998724699">
        <ele>715.40599999999995</ele>
        <time>2015-08-22T11:41:10Z</time>
      </trkpt>
      <trkpt lat="42.91739696636796" lon="-1.673508994281292">
        <ele>715.02599999999995</ele>
        <time>2015-08-22T11:41:11Z</time>
      </trkpt>
      <trkpt lat="42.917378023266792" lon="-1.673541013151407">
        <ele>714.60799999999995</ele>
        <time>2015-08-22T11:41:12Z</time>
      </trkpt>
      <trkpt lat="42.917334018275142" lon="-1.673609996214509">
        <ele>714.29899999999998</ele>
        <time>2015-08-22T11:41:14Z</time>
      </trkpt>
      <trkpt lat="42.917311973869801" lon="-1.673642015084624">
        <ele>713.69799999999998</ele>
        <time>2015-08-22T11:41:15Z</time>
      </trkpt>
      <trkpt lat="42.917290013283491" lon="-1.673666993156076">
        <ele>712.84400000000005</ele>
        <time>2015-08-22T11:41:16Z</time>
      </trkpt>
      <trkpt lat="42.917269980534911" lon="-1.673689037561417">
        <ele>712.49800000000005</ele>
        <time>2015-08-22T11:41:17Z</time>
      </trkpt>
      <trkpt lat="42.917248019948602" lon="-1.673709992319346">
        <ele>712.05100000000004</ele>
        <time>2015-08-22T11:41:18Z</time>
      </trkpt>
      <trkpt lat="42.91722496971488" lon="-1.673732958734036">
        <ele>711.62400000000002</ele>
        <time>2015-08-22T11:41:19Z</time>
      </trkpt>
      <trkpt lat="42.91720200330019" lon="-1.673751985654235">
        <ele>711.27499999999998</ele>
        <time>2015-08-22T11:41:20Z</time>
      </trkpt>
      <trkpt lat="42.9171790368855" lon="-1.673767995089293">
        <ele>710.86199999999997</ele>
        <time>2015-08-22T11:41:21Z</time>
      </trkpt>
      <trkpt lat="42.91715900413692" lon="-1.673780987039208">
        <ele>710.46900000000005</ele>
        <time>2015-08-22T11:41:22Z</time>
      </trkpt>
      <trkpt lat="42.917144000530243" lon="-1.67378400452435">
        <ele>710.00400000000002</ele>
        <time>2015-08-22T11:41:23Z</time>
      </trkpt>
      <trkpt lat="42.917136959731579" lon="-1.67378400452435">
        <ele>709.62400000000002</ele>
        <time>2015-08-22T11:41:24Z</time>
      </trkpt>
      <trkpt lat="42.917139977216721" lon="-1.673787022009492">
        <ele>708.20799999999997</ele>
        <time>2015-08-22T11:41:32Z</time>
      </trkpt>
      <trkpt lat="42.917139977216721" lon="-1.673785010352731">
        <ele>708.26700000000005</ele>
        <time>2015-08-22T11:41:33Z</time>
      </trkpt>
      <trkpt lat="42.917139977216721" lon="-1.673785010352731">
        <ele>708.27599999999995</ele>
        <time>2015-08-22T11:41:34Z</time>
      </trkpt>
      <trkpt lat="42.917153974995017" lon="-1.673790961503983">
        <ele>708.21199999999999</ele>
        <time>2015-08-22T11:41:36Z</time>
      </trkpt>
      <trkpt lat="42.917153974995017" lon="-1.673790961503983">
        <ele>708.21600000000001</ele>
        <time>2015-08-22T11:41:37Z</time>
      </trkpt>
      <trkpt lat="42.917152969166636" lon="-1.673786016181111">
        <ele>708.23900000000003</ele>
        <time>2015-08-22T11:41:38Z</time>
      </trkpt>
      <trkpt lat="42.917148023843765" lon="-1.673792973160744">
        <ele>708.22199999999998</ele>
        <time>2015-08-22T11:42:08Z</time>
      </trkpt>
      <trkpt lat="42.917140983045101" lon="-1.67380697093904">
        <ele>708.24300000000005</ele>
        <time>2015-08-22T11:42:09Z</time>
      </trkpt>
      <trkpt lat="42.917111981660128" lon="-1.673852987587452">
        <ele>708.28999999999996</ele>
        <time>2015-08-22T11:42:11Z</time>
      </trkpt>
      <trkpt lat="42.91705003939569" lon="-1.67393496260047">
        <ele>708.24900000000002</ele>
        <time>2015-08-22T11:42:14Z</time>
      </trkpt>
      <trkpt lat="42.917033024132252" lon="-1.673957007005811">
        <ele>707.80200000000002</ele>
        <time>2015-08-22T11:42:15Z</time>
      </trkpt>
      <trkpt lat="42.917015003040433" lon="-1.67397896759212">
        <ele>707.42200000000003</ele>
        <time>2015-08-22T11:42:16Z</time>
      </trkpt>
      <trkpt lat="42.916994970291853" lon="-1.674004029482603">
        <ele>706.80799999999999</ele>
        <time>2015-08-22T11:42:17Z</time>
      </trkpt>
      <trkpt lat="42.916977033019066" lon="-1.67402096092701">
        <ele>706.46500000000003</ele>
        <time>2015-08-22T11:42:18Z</time>
      </trkpt>
      <trkpt lat="42.916961023584008" lon="-1.67404099367559">
        <ele>706.03399999999999</ele>
        <time>2015-08-22T11:42:19Z</time>
      </trkpt>
      <trkpt lat="42.916900003328919" lon="-1.674114000052214">
        <ele>705.63</ele>
        <time>2015-08-22T11:42:22Z</time>
      </trkpt>
      <trkpt lat="42.916875025257468" lon="-1.674141995608807">
        <ele>705.22400000000005</ele>
        <time>2015-08-22T11:42:23Z</time>
      </trkpt>
      <trkpt lat="42.916846023872495" lon="-1.674168985337019">
        <ele>704.88699999999994</ele>
        <time>2015-08-22T11:42:24Z</time>
      </trkpt>
      <trkpt lat="42.916820961982012" lon="-1.674195975065231">
        <ele>704.45000000000005</ele>
        <time>2015-08-22T11:42:25Z</time>
      </trkpt>
      <trkpt lat="42.916797995567322" lon="-1.674219025298953">
        <ele>704.05100000000004</ele>
        <time>2015-08-22T11:42:26Z</time>
      </trkpt>
      <trkpt lat="42.91675197891891" lon="-1.674271998926997">
        <ele>703.66800000000001</ele>
        <time>2015-08-22T11:42:28Z</time>
      </trkpt>
      <trkpt lat="42.916728006675839" lon="-1.674302006140351">
        <ele>703.08600000000001</ele>
        <time>2015-08-22T11:42:29Z</time>
      </trkpt>
      <trkpt lat="42.916701016947627" lon="-1.674334025010467">
        <ele>702.25999999999999</ele>
        <time>2015-08-22T11:42:30Z</time>
      </trkpt>
      <trkpt lat="42.916675033047795" lon="-1.674368977546692">
        <ele>701.82600000000002</ele>
        <time>2015-08-22T11:42:31Z</time>
      </trkpt>
      <trkpt lat="42.916649971157312" lon="-1.67440501973033">
        <ele>701.40800000000002</ele>
        <time>2015-08-22T11:42:32Z</time>
      </trkpt>
      <trkpt lat="42.916623987257481" lon="-1.674439972266555">
        <ele>700.81899999999996</ele>
        <time>2015-08-22T11:42:33Z</time>
      </trkpt>
      <trkpt lat="42.91660001501441" lon="-1.674474002793431">
        <ele>700.428</ele>
        <time>2015-08-22T11:42:34Z</time>
      </trkpt>
      <trkpt lat="42.916577970609069" lon="-1.674501998350024">
        <ele>700.08399999999995</ele>
        <time>2015-08-22T11:42:35Z</time>
      </trkpt>
      <trkpt lat="42.91655701585114" lon="-1.674524964764714">
        <ele>699.678</ele>
        <time>2015-08-22T11:42:36Z</time>
      </trkpt>
      <trkpt lat="42.91653698310256" lon="-1.674543991684914">
        <ele>699.221</ele>
        <time>2015-08-22T11:42:37Z</time>
      </trkpt>
      <trkpt lat="42.916520973667502" lon="-1.674564024433494">
        <ele>698.86400000000003</ele>
        <time>2015-08-22T11:42:38Z</time>
      </trkpt>
      <trkpt lat="42.916503036394715" lon="-1.674586990848184">
        <ele>698.41499999999996</ele>
        <time>2015-08-22T11:42:39Z</time>
      </trkpt>
      <trkpt lat="42.916485015302896" lon="-1.674609035253525">
        <ele>698.01199999999994</ele>
        <time>2015-08-22T11:42:40Z</time>
      </trkpt>
      <trkpt lat="42.916465988382697" lon="-1.674626972526312">
        <ele>697.62900000000002</ele>
        <time>2015-08-22T11:42:41Z</time>
      </trkpt>
      <trkpt lat="42.916446961462498" lon="-1.67464298196137">
        <ele>697.60000000000002</ele>
        <time>2015-08-22T11:42:42Z</time>
      </trkpt>
      <trkpt lat="42.916430030018091" lon="-1.674658991396427">
        <ele>697.22000000000003</ele>
        <time>2015-08-22T11:42:43Z</time>
      </trkpt>
      <trkpt lat="42.916413014754653" lon="-1.674679024145007">
        <ele>696.80799999999999</ele>
        <time>2015-08-22T11:42:44Z</time>
      </trkpt>
      <trkpt lat="42.916392982006073" lon="-1.674704002216458">
        <ele>696.45299999999997</ele>
        <time>2015-08-22T11:42:45Z</time>
      </trkpt>
      <trkpt lat="42.916372027248144" lon="-1.674730991944671">
        <ele>696.08199999999999</ele>
        <time>2015-08-22T11:42:46Z</time>
      </trkpt>
      <trkpt lat="42.916353000327945" lon="-1.674763010814786">
        <ele>695.63800000000003</ele>
        <time>2015-08-22T11:42:47Z</time>
      </trkpt>
      <trkpt lat="42.916316958144307" lon="-1.674821013584733">
        <ele>695.61199999999997</ele>
        <time>2015-08-22T11:42:49Z</time>
      </trkpt>
      <trkpt lat="42.916301032528281" lon="-1.674852026626468">
        <ele>695.09500000000003</ele>
        <time>2015-08-22T11:42:50Z</time>
      </trkpt>
      <trkpt lat="42.916286028921604" lon="-1.674886979162693">
        <ele>694.678</ele>
        <time>2015-08-22T11:42:51Z</time>
      </trkpt>
      <trkpt lat="42.916273958981037" lon="-1.67492201551795">
        <ele>694.24900000000002</ele>
        <time>2015-08-22T11:42:52Z</time>
      </trkpt>
      <trkpt lat="42.916262978687882" lon="-1.674957973882556">
        <ele>693.64599999999996</ele>
        <time>2015-08-22T11:42:53Z</time>
      </trkpt>
      <trkpt lat="42.916251998394728" lon="-1.674993010237813">
        <ele>693.22900000000004</ele>
        <time>2015-08-22T11:42:54Z</time>
      </trkpt>
      <trkpt lat="42.916242023929954" lon="-1.675027040764689">
        <ele>692.20000000000005</ele>
        <time>2015-08-22T11:42:55Z</time>
      </trkpt>
      <trkpt lat="42.916233977302909" lon="-1.675061993300915">
        <ele>691.62</ele>
        <time>2015-08-22T11:42:56Z</time>
      </trkpt>
      <trkpt lat="42.916229031980038" lon="-1.67509401217103">
        <ele>691.20799999999997</ele>
        <time>2015-08-22T11:42:57Z</time>
      </trkpt>
      <trkpt lat="42.916230037808418" lon="-1.675121001899242">
        <ele>690.63300000000004</ele>
        <time>2015-08-22T11:42:58Z</time>
      </trkpt>
      <trkpt lat="42.91623598895967" lon="-1.675173975527287">
        <ele>690.68200000000002</ele>
        <time>2015-08-22T11:43:00Z</time>
      </trkpt>
      <trkpt lat="42.916241018101573" lon="-1.67526600882411">
        <ele>690.65800000000002</ele>
        <time>2015-08-22T11:43:03Z</time>
      </trkpt>
      <trkpt lat="42.916257027536631" lon="-1.67533096857369">
        <ele>690.29200000000003</ele>
        <time>2015-08-22T11:43:05Z</time>
      </trkpt>
      <trkpt lat="42.916257027536631" lon="-1.675367010757327">
        <ele>689.81500000000005</ele>
        <time>2015-08-22T11:43:06Z</time>
      </trkpt>
      <trkpt lat="42.916253004223108" lon="-1.675407998263836">
        <ele>689.47799999999995</ele>
        <time>2015-08-22T11:43:07Z</time>
      </trkpt>
      <trkpt lat="42.916246969252825" lon="-1.675454014912248">
        <ele>689.03899999999999</ele>
        <time>2015-08-22T11:43:08Z</time>
      </trkpt>
      <trkpt lat="42.916234983131289" lon="-1.67550103738904">
        <ele>688.67600000000004</ele>
        <time>2015-08-22T11:43:09Z</time>
      </trkpt>
      <trkpt lat="42.916207993403077" lon="-1.675582006573677">
        <ele>688.21799999999996</ele>
        <time>2015-08-22T11:43:11Z</time>
      </trkpt>
      <trkpt lat="42.916188966482878" lon="-1.675617964938283">
        <ele>687.89800000000002</ele>
        <time>2015-08-22T11:43:12Z</time>
      </trkpt>
      <trkpt lat="42.916168011724949" lon="-1.675649983808398">
        <ele>687.41700000000003</ele>
        <time>2015-08-22T11:43:13Z</time>
      </trkpt>
      <trkpt lat="42.916144961491227" lon="-1.675683008506894">
        <ele>687.00800000000004</ele>
        <time>2015-08-22T11:43:14Z</time>
      </trkpt>
      <trkpt lat="42.916118977591395" lon="-1.675717039033771">
        <ele>686.67200000000003</ele>
        <time>2015-08-22T11:43:15Z</time>
      </trkpt>
      <trkpt lat="42.916040020063519" lon="-1.675820974633098">
        <ele>686.08100000000002</ele>
        <time>2015-08-22T11:43:18Z</time>
      </trkpt>
      <trkpt lat="42.916013030335307" lon="-1.675856010988355">
        <ele>685.64700000000005</ele>
        <time>2015-08-22T11:43:19Z</time>
      </trkpt>
      <trkpt lat="42.915987968444824" lon="-1.67588802985847">
        <ele>684.66099999999994</ele>
        <time>2015-08-22T11:43:20Z</time>
      </trkpt>
      <trkpt lat="42.915965002030134" lon="-1.675918959081173">
        <ele>684.29399999999998</ele>
        <time>2015-08-22T11:43:21Z</time>
      </trkpt>
      <trkpt lat="42.915896018967032" lon="-1.67601702734828">
        <ele>683.85699999999997</ele>
        <time>2015-08-22T11:43:24Z</time>
      </trkpt>
      <trkpt lat="42.915870035067201" lon="-1.676049968227744">
        <ele>683.43799999999999</ele>
        <time>2015-08-22T11:43:25Z</time>
      </trkpt>
      <trkpt lat="42.915842961519957" lon="-1.67608299292624">
        <ele>682.85500000000002</ele>
        <time>2015-08-22T11:43:26Z</time>
      </trkpt>
      <trkpt lat="42.915815971791744" lon="-1.676118029281497">
        <ele>682.49800000000005</ele>
        <time>2015-08-22T11:43:27Z</time>
      </trkpt>
      <trkpt lat="42.915790993720293" lon="-1.676155999302864">
        <ele>681.81500000000005</ele>
        <time>2015-08-22T11:43:28Z</time>
      </trkpt>
      <trkpt lat="42.915768027305603" lon="-1.676193969324231">
        <ele>681.226</ele>
        <time>2015-08-22T11:43:29Z</time>
      </trkpt>
      <trkpt lat="42.915743971243501" lon="-1.676235962659121">
        <ele>680.60799999999995</ele>
        <time>2015-08-22T11:43:30Z</time>
      </trkpt>
      <trkpt lat="42.91571999900043" lon="-1.6762750223279">
        <ele>680.23000000000002</ele>
        <time>2015-08-22T11:43:31Z</time>
      </trkpt>
      <trkpt lat="42.91569602675736" lon="-1.676311986520886">
        <ele>679.67899999999997</ele>
        <time>2015-08-22T11:43:32Z</time>
      </trkpt>
      <trkpt lat="42.915642969310284" lon="-1.676381975412369">
        <ele>679.625</ele>
        <time>2015-08-22T11:43:34Z</time>
      </trkpt>
      <trkpt lat="42.915585972368717" lon="-1.67644701898098">
        <ele>679.01900000000001</ele>
        <time>2015-08-22T11:43:36Z</time>
      </trkpt>
      <trkpt lat="42.915559988468885" lon="-1.676479959860444">
        <ele>678.68200000000002</ele>
        <time>2015-08-22T11:43:37Z</time>
      </trkpt>
      <trkpt lat="42.915538027882576" lon="-1.676516002044082">
        <ele>678.09500000000003</ele>
        <time>2015-08-22T11:43:38Z</time>
      </trkpt>
      <trkpt lat="42.915516989305615" lon="-1.676545003429055">
        <ele>677.65599999999995</ele>
        <time>2015-08-22T11:43:39Z</time>
      </trkpt>
      <trkpt lat="42.915497962385416" lon="-1.676574004814029">
        <ele>677.04300000000001</ele>
        <time>2015-08-22T11:43:40Z</time>
      </trkpt>
      <trkpt lat="42.915478013455868" lon="-1.676596971228719">
        <ele>676.41200000000003</ele>
        <time>2015-08-22T11:43:41Z</time>
      </trkpt>
      <trkpt lat="42.915456974878907" lon="-1.676617003977299">
        <ele>675.83199999999999</ele>
        <time>2015-08-22T11:43:42Z</time>
      </trkpt>
      <trkpt lat="42.915437025949359" lon="-1.676640976220369">
        <ele>675.20500000000004</ele>
        <time>2015-08-22T11:43:43Z</time>
      </trkpt>
      <trkpt lat="42.915414981544018" lon="-1.676672995090485">
        <ele>674.60799999999995</ele>
        <time>2015-08-22T11:43:44Z</time>
      </trkpt>
      <trkpt lat="42.91539603844285" lon="-1.6767050139606">
        <ele>673.81200000000001</ele>
        <time>2015-08-22T11:43:45Z</time>
      </trkpt>
      <trkpt lat="42.915378017351031" lon="-1.676733009517193">
        <ele>673.49099999999999</ele>
        <time>2015-08-22T11:43:46Z</time>
      </trkpt>
      <trkpt lat="42.91535496711731" lon="-1.676762010902166">
        <ele>672.81700000000001</ele>
        <time>2015-08-22T11:43:47Z</time>
      </trkpt>
      <trkpt lat="42.915325965732336" lon="-1.676795035600662">
        <ele>672.44100000000003</ele>
        <time>2015-08-22T11:43:48Z</time>
      </trkpt>
      <trkpt lat="42.915295036509633" lon="-1.676828982308507">
        <ele>672.48400000000004</ele>
        <time>2015-08-22T11:43:49Z</time>
      </trkpt>
      <trkpt lat="42.915236027911305" lon="-1.676907017827034">
        <ele>672.077</ele>
        <time>2015-08-22T11:43:51Z</time>
      </trkpt>
      <trkpt lat="42.91520300321281" lon="-1.676944987848401">
        <ele>671.49800000000005</ele>
        <time>2015-08-22T11:43:52Z</time>
      </trkpt>
      <trkpt lat="42.915167966857553" lon="-1.676981030032039">
        <ele>671.03499999999997</ele>
        <time>2015-08-22T11:43:53Z</time>
      </trkpt>
      <trkpt lat="42.915129996836185" lon="-1.677011959254742">
        <ele>670.65700000000004</ele>
        <time>2015-08-22T11:43:54Z</time>
      </trkpt>
      <trkpt lat="42.915091020986438" lon="-1.677035009488463">
        <ele>670</ele>
        <time>2015-08-22T11:43:55Z</time>
      </trkpt>
      <trkpt lat="42.914953976869583" lon="-1.677117990329862">
        <ele>670.01999999999998</ele>
        <time>2015-08-22T11:43:59Z</time>
      </trkpt>
      <trkpt lat="42.914887005463243" lon="-1.677155960351229">
        <ele>670.00800000000004</ele>
        <time>2015-08-22T11:44:01Z</time>
      </trkpt>
      <trkpt lat="42.914693970233202" lon="-1.677298033609986">
        <ele>669.68600000000004</ele>
        <time>2015-08-22T11:44:08Z</time>
      </trkpt>
      <trkpt lat="42.914678966626525" lon="-1.677334997802973">
        <ele>669.255</ele>
        <time>2015-08-22T11:44:09Z</time>
      </trkpt>
      <trkpt lat="42.914663041010499" lon="-1.67737103998661">
        <ele>668.24099999999999</ele>
        <time>2015-08-22T11:44:10Z</time>
      </trkpt>
      <trkpt lat="42.91464501991868" lon="-1.677408004179597">
        <ele>667.875</ele>
        <time>2015-08-22T11:44:11Z</time>
      </trkpt>
      <trkpt lat="42.914557009935379" lon="-1.677543958649039">
        <ele>667.87800000000004</ele>
        <time>2015-08-22T11:44:15Z</time>
      </trkpt>
      <trkpt lat="42.914342014119029" lon="-1.677784016355872">
        <ele>667.851</ele>
        <time>2015-08-22T11:44:22Z</time>
      </trkpt>
      <trkpt lat="42.914313012734056" lon="-1.677817041054368">
        <ele>667.44200000000001</ele>
        <time>2015-08-22T11:44:23Z</time>
      </trkpt>
      <trkpt lat="42.91428099386394" lon="-1.677848976105452">
        <ele>666.84900000000005</ele>
        <time>2015-08-22T11:44:24Z</time>
      </trkpt>
      <trkpt lat="42.914249980822206" lon="-1.677882000803947">
        <ele>666.46799999999996</ele>
        <time>2015-08-22T11:44:25Z</time>
      </trkpt>
      <trkpt lat="42.914223996922374" lon="-1.677914019674063">
        <ele>666.04200000000003</ele>
        <time>2015-08-22T11:44:26Z</time>
      </trkpt>
      <trkpt lat="42.914201030507684" lon="-1.677944026887417">
        <ele>665.226</ele>
        <time>2015-08-22T11:44:27Z</time>
      </trkpt>
      <trkpt lat="42.914177980273962" lon="-1.67797302827239">
        <ele>664.60799999999995</ele>
        <time>2015-08-22T11:44:28Z</time>
      </trkpt>
      <trkpt lat="42.914153002202511" lon="-1.678002029657364">
        <ele>664.02700000000004</ele>
        <time>2015-08-22T11:44:29Z</time>
      </trkpt>
      <trkpt lat="42.914127018302679" lon="-1.678030025213957">
        <ele>663.44600000000003</ele>
        <time>2015-08-22T11:44:30Z</time>
      </trkpt>
      <trkpt lat="42.914097011089325" lon="-1.678053997457027">
        <ele>662.822</ele>
        <time>2015-08-22T11:44:31Z</time>
      </trkpt>
      <trkpt lat="42.914034985005856" lon="-1.678095990791917">
        <ele>662.476</ele>
        <time>2015-08-22T11:44:33Z</time>
      </trkpt>
      <trkpt lat="42.914005983620882" lon="-1.678119963034987">
        <ele>661.45899999999995</ele>
        <time>2015-08-22T11:44:34Z</time>
      </trkpt>
      <trkpt lat="42.91397999972105" lon="-1.678136978298426">
        <ele>661.02200000000005</ele>
        <time>2015-08-22T11:44:35Z</time>
      </trkpt>
      <trkpt lat="42.913955021649599" lon="-1.67814795859158">
        <ele>660.64300000000003</ele>
        <time>2015-08-22T11:44:36Z</time>
      </trkpt>
      <trkpt lat="42.913931971415877" lon="-1.678162040188909">
        <ele>660.03999999999996</ele>
        <time>2015-08-22T11:44:37Z</time>
      </trkpt>
      <trkpt lat="42.913906993344426" lon="-1.678177965804935">
        <ele>659.69500000000005</ele>
        <time>2015-08-22T11:44:38Z</time>
      </trkpt>
      <trkpt lat="42.913877991959453" lon="-1.678195986896753">
        <ele>659.04899999999998</ele>
        <time>2015-08-22T11:44:39Z</time>
      </trkpt>
      <trkpt lat="42.913847984746099" lon="-1.67820998467505">
        <ele>658.62300000000005</ele>
        <time>2015-08-22T11:44:40Z</time>
      </trkpt>
      <trkpt lat="42.913818983361125" lon="-1.678221970796585">
        <ele>658.00800000000004</ele>
        <time>2015-08-22T11:44:41Z</time>
      </trkpt>
      <trkpt lat="42.91376399807632" lon="-1.678248038515449">
        <ele>657.63999999999999</ele>
        <time>2015-08-22T11:44:43Z</time>
      </trkpt>
      <trkpt lat="42.913737008348107" lon="-1.678262958303094">
        <ele>657.05899999999997</ele>
        <time>2015-08-22T11:44:44Z</time>
      </trkpt>
      <trkpt lat="42.913708006963134" lon="-1.678279973566532">
        <ele>656.64499999999998</ele>
        <time>2015-08-22T11:44:45Z</time>
      </trkpt>
      <trkpt lat="42.91367799974978" lon="-1.678299000486732">
        <ele>656.26900000000001</ele>
        <time>2015-08-22T11:44:46Z</time>
      </trkpt>
      <trkpt lat="42.913650004193187" lon="-1.678321966901422">
        <ele>655.65200000000004</ele>
        <time>2015-08-22T11:44:47Z</time>
      </trkpt>
      <trkpt lat="42.913625026121736" lon="-1.678347028791904">
        <ele>655.01499999999999</ele>
        <time>2015-08-22T11:44:48Z</time>
      </trkpt>
      <trkpt lat="42.913599964231253" lon="-1.678371001034975">
        <ele>654.46600000000001</ele>
        <time>2015-08-22T11:44:49Z</time>
      </trkpt>
      <trkpt lat="42.913579009473324" lon="-1.678392961621285">
        <ele>653.85299999999995</ele>
        <time>2015-08-22T11:44:50Z</time>
      </trkpt>
      <trkpt lat="42.913556965067983" lon="-1.678416011855006">
        <ele>653.27800000000002</ele>
        <time>2015-08-22T11:44:51Z</time>
      </trkpt>
      <trkpt lat="42.913538021966815" lon="-1.678440989926457">
        <ele>652.63300000000004</ele>
        <time>2015-08-22T11:44:52Z</time>
      </trkpt>
      <trkpt lat="42.913515977561474" lon="-1.678463034331799">
        <ele>652.02599999999995</ele>
        <time>2015-08-22T11:44:53Z</time>
      </trkpt>
      <trkpt lat="42.913494016975164" lon="-1.678482983261347">
        <ele>651.40800000000002</ele>
        <time>2015-08-22T11:44:54Z</time>
      </trkpt>
      <trkpt lat="42.913475995883346" lon="-1.678509972989559">
        <ele>650.81799999999998</ele>
        <time>2015-08-22T11:44:55Z</time>
      </trkpt>
      <trkpt lat="42.913458980619907" lon="-1.678539980202913">
        <ele>650.41700000000003</ele>
        <time>2015-08-22T11:44:56Z</time>
      </trkpt>
      <trkpt lat="42.913439031690359" lon="-1.678565964102745">
        <ele>649.89300000000003</ele>
        <time>2015-08-22T11:44:57Z</time>
      </trkpt>
      <trkpt lat="42.91342000477016" lon="-1.678583985194564">
        <ele>649.26700000000005</ele>
        <time>2015-08-22T11:44:58Z</time>
      </trkpt>
      <trkpt lat="42.913398966193199" lon="-1.678598988801241">
        <ele>648.24000000000001</ele>
        <time>2015-08-22T11:44:59Z</time>
      </trkpt>
      <trkpt lat="42.913375999778509" lon="-1.678608963266015">
        <ele>647.63300000000004</ele>
        <time>2015-08-22T11:45:00Z</time>
      </trkpt>
      <trkpt lat="42.913353033363819" lon="-1.678616004064679">
        <ele>647.06399999999996</ele>
        <time>2015-08-22T11:45:01Z</time>
      </trkpt>
      <trkpt lat="42.913328977301717" lon="-1.67861700989306">
        <ele>646.61099999999999</ele>
        <time>2015-08-22T11:45:02Z</time>
      </trkpt>
      <trkpt lat="42.913305005058646" lon="-1.678613992407918">
        <ele>646.01700000000005</ele>
        <time>2015-08-22T11:45:03Z</time>
      </trkpt>
      <trkpt lat="42.913281032815576" lon="-1.678610974922776">
        <ele>645.48699999999997</ele>
        <time>2015-08-22T11:45:04Z</time>
      </trkpt>
      <trkpt lat="42.913253037258983" lon="-1.678610974922776">
        <ele>644.81500000000005</ele>
        <time>2015-08-22T11:45:05Z</time>
      </trkpt>
      <trkpt lat="42.913224035874009" lon="-1.678613992407918">
        <ele>644.20799999999997</ele>
        <time>2015-08-22T11:45:06Z</time>
      </trkpt>
      <trkpt lat="42.913196040317416" lon="-1.678623966872692">
        <ele>644.25199999999995</ele>
        <time>2015-08-22T11:45:07Z</time>
      </trkpt>
      <trkpt lat="42.913167960941792" lon="-1.678632013499737">
        <ele>643.84100000000001</ele>
        <time>2015-08-22T11:45:08Z</time>
      </trkpt>
      <trkpt lat="42.913140971213579" lon="-1.678634025156498">
        <ele>643.24699999999996</ele>
        <time>2015-08-22T11:45:09Z</time>
      </trkpt>
      <trkpt lat="42.913123033940792" lon="-1.678636036813259">
        <ele>642.82100000000003</ele>
        <time>2015-08-22T11:45:10Z</time>
      </trkpt>
      <trkpt lat="42.913111969828606" lon="-1.678636958822608">
        <ele>642.29399999999998</ele>
        <time>2015-08-22T11:45:11Z</time>
      </trkpt>
      <trkpt lat="42.913106018677354" lon="-1.678636958822608">
        <ele>641.85699999999997</ele>
        <time>2015-08-22T11:45:12Z</time>
      </trkpt>
      <trkpt lat="42.913101995363832" lon="-1.678636036813259">
        <ele>641.428</ele>
        <time>2015-08-22T11:45:13Z</time>
      </trkpt>
      <trkpt lat="42.913100989535451" lon="-1.678634025156498">
        <ele>640.245</ele>
        <time>2015-08-22T11:45:16Z</time>
      </trkpt>
      <trkpt lat="42.913097972050309" lon="-1.678643999621272">
        <ele>639.81899999999996</ele>
        <time>2015-08-22T11:45:17Z</time>
      </trkpt>
      <trkpt lat="42.913093026727438" lon="-1.678650034591556">
        <ele>639.80899999999997</ele>
        <time>2015-08-22T11:45:18Z</time>
      </trkpt>
      <trkpt lat="42.913090009242296" lon="-1.678662020713091">
        <ele>639.81899999999996</ele>
        <time>2015-08-22T11:45:20Z</time>
      </trkpt>
      <trkpt lat="42.913089003413916" lon="-1.67866000905633">
        <ele>639.80799999999999</ele>
        <time>2015-08-22T11:45:30Z</time>
      </trkpt>
      <trkpt lat="42.913091015070677" lon="-1.678671995177865">
        <ele>639.89200000000005</ele>
        <time>2015-08-22T11:45:33Z</time>
      </trkpt>
      <trkpt lat="42.913093026727438" lon="-1.678671995177865">
        <ele>639.83100000000002</ele>
        <time>2015-08-22T11:45:34Z</time>
      </trkpt>
      <trkpt lat="42.913089003413916" lon="-1.678665960207582">
        <ele>639.83699999999999</ele>
        <time>2015-08-22T11:45:52Z</time>
      </trkpt>
      <trkpt lat="42.913087997585535" lon="-1.678655985742807">
        <ele>639.87099999999998</ele>
        <time>2015-08-22T11:45:53Z</time>
      </trkpt>
      <trkpt lat="42.913089003413916" lon="-1.678652968257666">
        <ele>639.83399999999995</ele>
        <time>2015-08-22T11:45:54Z</time>
      </trkpt>
      <trkpt lat="42.913078023120761" lon="-1.67864098213613">
        <ele>639.85699999999997</ele>
        <time>2015-08-22T11:45:59Z</time>
      </trkpt>
      <trkpt lat="42.913064025342464" lon="-1.678634025156498">
        <ele>639.84799999999996</ele>
        <time>2015-08-22T11:46:00Z</time>
      </trkpt>
      <trkpt lat="42.913010967895389" lon="-1.678651040419936">
        <ele>639.85500000000002</ele>
        <time>2015-08-22T11:46:03Z</time>
      </trkpt>
      <trkpt lat="42.912934022024274" lon="-1.67874701321125">
        <ele>639.88099999999997</ele>
        <time>2015-08-22T11:46:07Z</time>
      </trkpt>
      <trkpt lat="42.91288398206234" lon="-1.678820019587874">
        <ele>639.26099999999997</ele>
        <time>2015-08-22T11:46:09Z</time>
      </trkpt>
      <trkpt lat="42.912863027304411" lon="-1.6788549721241">
        <ele>638.81700000000001</ele>
        <time>2015-08-22T11:46:10Z</time>
      </trkpt>
      <trkpt lat="42.91284198872745" lon="-1.678887996822596">
        <ele>638.20799999999997</ele>
        <time>2015-08-22T11:46:11Z</time>
      </trkpt>
      <trkpt lat="42.912823967635632" lon="-1.678922027349472">
        <ele>637.029</ele>
        <time>2015-08-22T11:46:12Z</time>
      </trkpt>
      <trkpt lat="42.912808964028955" lon="-1.678959997370839">
        <ele>636.48800000000006</ele>
        <time>2015-08-22T11:46:13Z</time>
      </trkpt>
      <trkpt lat="42.912794966250658" lon="-1.678997967392206">
        <ele>635.86400000000003</ele>
        <time>2015-08-22T11:46:14Z</time>
      </trkpt>
      <trkpt lat="42.912782980129123" lon="-1.679037027060986">
        <ele>635.27800000000002</ele>
        <time>2015-08-22T11:46:15Z</time>
      </trkpt>
      <trkpt lat="42.912765964865685" lon="-1.679073991253972">
        <ele>634.61099999999999</ele>
        <time>2015-08-22T11:46:16Z</time>
      </trkpt>
      <trkpt lat="42.912744004279375" lon="-1.679107015952468">
        <ele>634.024</ele>
        <time>2015-08-22T11:46:17Z</time>
      </trkpt>
      <trkpt lat="42.912717014551163" lon="-1.679126964882016">
        <ele>633.66499999999996</ele>
        <time>2015-08-22T11:46:18Z</time>
      </trkpt>
      <trkpt lat="42.912684995681047" lon="-1.679128976538777">
        <ele>633.09199999999998</ele>
        <time>2015-08-22T11:46:19Z</time>
      </trkpt>
      <trkpt lat="42.912651970982552" lon="-1.679122019559145">
        <ele>632.44299999999998</ele>
        <time>2015-08-22T11:46:20Z</time>
      </trkpt>
      <trkpt lat="42.912620035931468" lon="-1.67911103926599">
        <ele>632.06399999999996</ele>
        <time>2015-08-22T11:46:21Z</time>
      </trkpt>
      <trkpt lat="42.912592040374875" lon="-1.679102992638946">
        <ele>631.40999999999997</ele>
        <time>2015-08-22T11:46:22Z</time>
      </trkpt>
      <trkpt lat="42.912566978484392" lon="-1.679095029830933">
        <ele>630.80799999999999</ele>
        <time>2015-08-22T11:46:23Z</time>
      </trkpt>
      <trkpt lat="42.912520039826632" lon="-1.679081032052636">
        <ele>630.89499999999998</ele>
        <time>2015-08-22T11:46:25Z</time>
      </trkpt>
      <trkpt lat="42.912501012906432" lon="-1.679081032052636">
        <ele>630.46400000000006</ele>
        <time>2015-08-22T11:46:26Z</time>
      </trkpt>
      <trkpt lat="42.912481985986233" lon="-1.679082037881017">
        <ele>630.02999999999997</ele>
        <time>2015-08-22T11:46:27Z</time>
      </trkpt>
      <trkpt lat="42.912463964894414" lon="-1.679083965718746">
        <ele>629.49400000000003</ele>
        <time>2015-08-22T11:46:28Z</time>
      </trkpt>
      <trkpt lat="42.912448039278388" lon="-1.679092012345791">
        <ele>629.04700000000003</ele>
        <time>2015-08-22T11:46:29Z</time>
      </trkpt>
      <trkpt lat="42.912434041500092" lon="-1.67911103926599">
        <ele>628.63</ele>
        <time>2015-08-22T11:46:30Z</time>
      </trkpt>
      <trkpt lat="42.912423983216286" lon="-1.679139034822583">
        <ele>628.64099999999996</ele>
        <time>2015-08-22T11:46:31Z</time>
      </trkpt>
      <trkpt lat="42.91241099126637" lon="-1.67919703759253">
        <ele>628.05799999999999</ele>
        <time>2015-08-22T11:46:33Z</time>
      </trkpt>
      <trkpt lat="42.912407973781228" lon="-1.679226960986853">
        <ele>627.63300000000004</ele>
        <time>2015-08-22T11:46:34Z</time>
      </trkpt>
      <trkpt lat="42.912405962124467" lon="-1.679253028705716">
        <ele>627.02300000000002</ele>
        <time>2015-08-22T11:46:35Z</time>
      </trkpt>
      <trkpt lat="42.912402022629976" lon="-1.67928303591907">
        <ele>626.61500000000001</ele>
        <time>2015-08-22T11:46:36Z</time>
      </trkpt>
      <trkpt lat="42.912394981831312" lon="-1.679310025647283">
        <ele>625.40800000000002</ele>
        <time>2015-08-22T11:46:37Z</time>
      </trkpt>
      <trkpt lat="42.912382995709777" lon="-1.67932796292007">
        <ele>624.84400000000005</ele>
        <time>2015-08-22T11:46:38Z</time>
      </trkpt>
      <trkpt lat="42.912370003759861" lon="-1.679333997890353">
        <ele>624.24300000000005</ele>
        <time>2015-08-22T11:46:39Z</time>
      </trkpt>
      <trkpt lat="42.912360029295087" lon="-1.67932603508234">
        <ele>623.62900000000002</ele>
        <time>2015-08-22T11:46:40Z</time>
      </trkpt>
      <trkpt lat="42.91234795935452" lon="-1.679303990676999">
        <ele>623.66300000000001</ele>
        <time>2015-08-22T11:46:41Z</time>
      </trkpt>
      <trkpt lat="42.912287022918463" lon="-1.67921899817884">
        <ele>623.66600000000005</ele>
        <time>2015-08-22T11:46:44Z</time>
      </trkpt>
      <trkpt lat="42.912215022370219" lon="-1.679136017337441">
        <ele>623.06899999999996</ele>
        <time>2015-08-22T11:46:47Z</time>
      </trkpt>
      <trkpt lat="42.912185015156865" lon="-1.679106010124087">
        <ele>622.69000000000005</ele>
        <time>2015-08-22T11:46:48Z</time>
      </trkpt>
      <trkpt lat="42.91215400211513" lon="-1.679071979597211">
        <ele>622.21699999999998</ele>
        <time>2015-08-22T11:46:49Z</time>
      </trkpt>
      <trkpt lat="42.912121983245015" lon="-1.679038032889366">
        <ele>621.86199999999997</ele>
        <time>2015-08-22T11:46:50Z</time>
      </trkpt>
      <trkpt lat="42.91209097020328" lon="-1.679000984877348">
        <ele>621.48299999999995</ele>
        <time>2015-08-22T11:46:51Z</time>
      </trkpt>
      <trkpt lat="42.912028022110462" lon="-1.678910963237286">
        <ele>621.41099999999994</ele>
        <time>2015-08-22T11:46:53Z</time>
      </trkpt>
      <trkpt lat="42.911946969106793" lon="-1.678611980751157">
        <ele>621.00800000000004</ele>
        <time>2015-08-22T11:46:57Z</time>
      </trkpt>
      <trkpt lat="42.911920985206962" lon="-1.678525982424617">
        <ele>620.65700000000004</ele>
        <time>2015-08-22T11:46:58Z</time>
      </trkpt>
      <trkpt lat="42.911885026842356" lon="-1.678437972441316">
        <ele>619.82600000000002</ele>
        <time>2015-08-22T11:46:59Z</time>
      </trkpt>
      <trkpt lat="42.911842027679086" lon="-1.678358009085059">
        <ele>619.23199999999997</ele>
        <time>2015-08-22T11:47:00Z</time>
      </trkpt>
      <trkpt lat="42.911790981888771" lon="-1.678278967738152">
        <ele>617.87599999999998</ele>
        <time>2015-08-22T11:47:01Z</time>
      </trkpt>
      <trkpt lat="42.911733984947205" lon="-1.678201016038656">
        <ele>617.09900000000005</ele>
        <time>2015-08-22T11:47:02Z</time>
      </trkpt>
      <trkpt lat="42.911537010222673" lon="-1.677980991080403">
        <ele>616.65200000000004</ele>
        <time>2015-08-22T11:47:05Z</time>
      </trkpt>
      <trkpt lat="42.911468027159572" lon="-1.677912008017302">
        <ele>616.23299999999995</ele>
        <time>2015-08-22T11:47:06Z</time>
      </trkpt>
      <trkpt lat="42.911393009126186" lon="-1.677835984155536">
        <ele>615.80999999999995</ele>
        <time>2015-08-22T11:47:07Z</time>
      </trkpt>
      <trkpt lat="42.911325031891465" lon="-1.677762977778912">
        <ele>615.41200000000003</ele>
        <time>2015-08-22T11:47:08Z</time>
      </trkpt>
      <trkpt lat="42.911263005807996" lon="-1.677692988887429">
        <ele>615.03200000000004</ele>
        <time>2015-08-22T11:47:09Z</time>
      </trkpt>
      <trkpt lat="42.911201985552907" lon="-1.677627023309469">
        <ele>615.005</ele>
        <time>2015-08-22T11:47:10Z</time>
      </trkpt>
      <trkpt lat="42.911133002489805" lon="-1.677571032196283">
        <ele>614.40800000000002</ele>
        <time>2015-08-22T11:47:11Z</time>
      </trkpt>
      <trkpt lat="42.91105798445642" lon="-1.677529038861394">
        <ele>613.86199999999997</ele>
        <time>2015-08-22T11:47:12Z</time>
      </trkpt>
      <trkpt lat="42.910972991958261" lon="-1.677505988627672">
        <ele>613.44100000000003</ele>
        <time>2015-08-22T11:47:13Z</time>
      </trkpt>
      <trkpt lat="42.91088598780334" lon="-1.67749903164804">
        <ele>612.89700000000005</ele>
        <time>2015-08-22T11:47:14Z</time>
      </trkpt>
      <trkpt lat="42.910794960334897" lon="-1.677508000284433">
        <ele>612.23099999999999</ele>
        <time>2015-08-22T11:47:15Z</time>
      </trkpt>
      <trkpt lat="42.910705022513866" lon="-1.677525015547872">
        <ele>612.274</ele>
        <time>2015-08-22T11:47:16Z</time>
      </trkpt>
      <trkpt lat="42.910613995045424" lon="-1.677543958649039">
        <ele>611.88699999999994</ele>
        <time>2015-08-22T11:47:17Z</time>
      </trkpt>
      <trkpt lat="42.910522967576981" lon="-1.677567008882761">
        <ele>611.47799999999995</ele>
        <time>2015-08-22T11:47:18Z</time>
      </trkpt>
      <trkpt lat="42.910432023927569" lon="-1.677589975297451">
        <ele>611.06500000000005</ele>
        <time>2015-08-22T11:47:19Z</time>
      </trkpt>
      <trkpt lat="42.910338984802365" lon="-1.677615037187934">
        <ele>610.66200000000003</ele>
        <time>2015-08-22T11:47:20Z</time>
      </trkpt>
      <trkpt lat="42.910243012011051" lon="-1.677642026916146">
        <ele>610.08299999999997</ele>
        <time>2015-08-22T11:47:21Z</time>
      </trkpt>
      <trkpt lat="42.910147039219737" lon="-1.677669016644359">
        <ele>609.41099999999994</ele>
        <time>2015-08-22T11:47:22Z</time>
      </trkpt>
      <trkpt lat="42.910044025629759" lon="-1.677700029686093">
        <ele>608.80799999999999</ele>
        <time>2015-08-22T11:47:23Z</time>
      </trkpt>
      <trkpt lat="42.909945035353303" lon="-1.677725007757545">
        <ele>608.22699999999998</ele>
        <time>2015-08-22T11:47:24Z</time>
      </trkpt>
      <trkpt lat="42.909843027591705" lon="-1.677747974172235">
        <ele>607.69600000000003</ele>
        <time>2015-08-22T11:47:25Z</time>
      </trkpt>
      <trkpt lat="42.909739008173347" lon="-1.677774041891098">
        <ele>606.29200000000003</ele>
        <time>2015-08-22T11:47:26Z</time>
      </trkpt>
      <trkpt lat="42.909634988754988" lon="-1.677802037447691">
        <ele>605.69600000000003</ele>
        <time>2015-08-22T11:47:27Z</time>
      </trkpt>
      <trkpt lat="42.909529963508248" lon="-1.677832966670394">
        <ele>604.82899999999995</ele>
        <time>2015-08-22T11:47:28Z</time>
      </trkpt>
      <trkpt lat="42.909427033737302" lon="-1.677863979712129">
        <ele>604.41200000000003</ele>
        <time>2015-08-22T11:47:29Z</time>
      </trkpt>
      <trkpt lat="42.909323014318943" lon="-1.677888035774231">
        <ele>604.02300000000002</ele>
        <time>2015-08-22T11:47:30Z</time>
      </trkpt>
      <trkpt lat="42.909212959930301" lon="-1.677904967218638">
        <ele>603.40999999999997</ele>
        <time>2015-08-22T11:47:31Z</time>
      </trkpt>
      <trkpt lat="42.909113969653845" lon="-1.677906978875399">
        <ele>603.02700000000004</ele>
        <time>2015-08-22T11:47:32Z</time>
      </trkpt>
      <trkpt lat="42.909023026004434" lon="-1.677892981097102">
        <ele>602.46799999999996</ele>
        <time>2015-08-22T11:47:33Z</time>
      </trkpt>
      <trkpt lat="42.908939961344004" lon="-1.67786599136889">
        <ele>602.01400000000001</ele>
        <time>2015-08-22T11:47:34Z</time>
      </trkpt>
      <trkpt lat="42.90886402130127" lon="-1.677816035225987">
        <ele>601.40800000000002</ele>
        <time>2015-08-22T11:47:35Z</time>
      </trkpt>
      <trkpt lat="42.908795038238168" lon="-1.677753003314138">
        <ele>600.62300000000005</ele>
        <time>2015-08-22T11:47:36Z</time>
      </trkpt>
      <trkpt lat="42.908733012154698" lon="-1.677683014422655">
        <ele>599.81200000000001</ele>
        <time>2015-08-22T11:47:37Z</time>
      </trkpt>
      <trkpt lat="42.908675009384751" lon="-1.67760799638927">
        <ele>599.02800000000002</ele>
        <time>2015-08-22T11:47:38Z</time>
      </trkpt>
      <trkpt lat="42.908631004393101" lon="-1.677527027204633">
        <ele>598.02200000000005</ele>
        <time>2015-08-22T11:47:39Z</time>
      </trkpt>
      <trkpt lat="42.908598985522985" lon="-1.67743700556457">
        <ele>597.01499999999999</ele>
        <time>2015-08-22T11:47:40Z</time>
      </trkpt>
      <trkpt lat="42.908582976087928" lon="-1.677336003631353">
        <ele>596.048</ele>
        <time>2015-08-22T11:47:41Z</time>
      </trkpt>
      <trkpt lat="42.908588005229831" lon="-1.677228966727853">
        <ele>595.04899999999998</ele>
        <time>2015-08-22T11:47:42Z</time>
      </trkpt>
      <trkpt lat="42.908611977472901" lon="-1.677117990329862">
        <ele>594.02599999999995</ele>
        <time>2015-08-22T11:47:43Z</time>
      </trkpt>
      <trkpt lat="42.908646007999778" lon="-1.677010031417012">
        <ele>593.48800000000006</ele>
        <time>2015-08-22T11:47:44Z</time>
      </trkpt>
      <trkpt lat="42.908680960536003" lon="-1.676892014220357">
        <ele>592.82399999999996</ele>
        <time>2015-08-22T11:47:45Z</time>
      </trkpt>
      <trkpt lat="42.908701999112964" lon="-1.676772991195321">
        <ele>592.02599999999995</ele>
        <time>2015-08-22T11:47:46Z</time>
      </trkpt>
      <trkpt lat="42.908709039911628" lon="-1.676649022847414">
        <ele>591.40800000000002</ele>
        <time>2015-08-22T11:47:47Z</time>
      </trkpt>
      <trkpt lat="42.908703004941344" lon="-1.676523964852095">
        <ele>590.86900000000003</ele>
        <time>2015-08-22T11:47:48Z</time>
      </trkpt>
      <trkpt lat="42.908685989677906" lon="-1.676401002332568">
        <ele>590.41800000000001</ele>
        <time>2015-08-22T11:47:49Z</time>
      </trkpt>
      <trkpt lat="42.908661011606455" lon="-1.676282985135913">
        <ele>589.87400000000002</ele>
        <time>2015-08-22T11:47:50Z</time>
      </trkpt>
      <trkpt lat="42.908634021878242" lon="-1.676174020394683">
        <ele>588.85799999999995</ele>
        <time>2015-08-22T11:47:51Z</time>
      </trkpt>
      <trkpt lat="42.908577024936676" lon="-1.675961958244443">
        <ele>588.21100000000001</ele>
        <time>2015-08-22T11:47:53Z</time>
      </trkpt>
      <trkpt lat="42.908537965267897" lon="-1.675872020423412">
        <ele>587.87400000000002</ele>
        <time>2015-08-22T11:47:54Z</time>
      </trkpt>
      <trkpt lat="42.90847996249795" lon="-1.675799014046788">
        <ele>587.28499999999997</ele>
        <time>2015-08-22T11:47:55Z</time>
      </trkpt>
      <trkpt lat="42.908412991091609" lon="-1.675757020711899">
        <ele>586.65200000000004</ele>
        <time>2015-08-22T11:47:56Z</time>
      </trkpt>
      <trkpt lat="42.908339984714985" lon="-1.675741011276841">
        <ele>586.08500000000004</ele>
        <time>2015-08-22T11:47:57Z</time>
      </trkpt>
      <trkpt lat="42.908261027187109" lon="-1.675732964649797">
        <ele>585.28899999999999</ele>
        <time>2015-08-22T11:47:58Z</time>
      </trkpt>
      <trkpt lat="42.908191038295627" lon="-1.67573899962008">
        <ele>584.61699999999996</ele>
        <time>2015-08-22T11:47:59Z</time>
      </trkpt>
      <trkpt lat="42.908121971413493" lon="-1.675756014883518">
        <ele>584.00800000000004</ele>
        <time>2015-08-22T11:48:00Z</time>
      </trkpt>
      <trkpt lat="42.907998003065586" lon="-1.675935974344611">
        <ele>583.65899999999999</ele>
        <time>2015-08-22T11:48:02Z</time>
      </trkpt>
      <trkpt lat="42.907937988638878" lon="-1.676033036783338">
        <ele>583.22799999999995</ele>
        <time>2015-08-22T11:48:03Z</time>
      </trkpt>
      <trkpt lat="42.907874034717679" lon="-1.676122974604368">
        <ele>582.84400000000005</ele>
        <time>2015-08-22T11:48:04Z</time>
      </trkpt>
      <trkpt lat="42.907803962007165" lon="-1.676207967102528">
        <ele>582.41800000000001</ele>
        <time>2015-08-22T11:48:05Z</time>
      </trkpt>
      <trkpt lat="42.907733973115683" lon="-1.676287008449435">
        <ele>581.851</ele>
        <time>2015-08-22T11:48:06Z</time>
      </trkpt>
      <trkpt lat="42.907659960910678" lon="-1.676362026482821">
        <ele>581.86400000000003</ele>
        <time>2015-08-22T11:48:07Z</time>
      </trkpt>
      <trkpt lat="42.907502967864275" lon="-1.676498986780644">
        <ele>581.29499999999996</ele>
        <time>2015-08-22T11:48:09Z</time>
      </trkpt>
      <trkpt lat="42.907423004508018" lon="-1.676563024520874">
        <ele>580.67200000000003</ele>
        <time>2015-08-22T11:48:10Z</time>
      </trkpt>
      <trkpt lat="42.907341029495001" lon="-1.676627984270454">
        <ele>580.05899999999997</ele>
        <time>2015-08-22T11:48:11Z</time>
      </trkpt>
      <trkpt lat="42.907260982319713" lon="-1.676695961505175">
        <ele>579.40300000000002</ele>
        <time>2015-08-22T11:48:12Z</time>
      </trkpt>
      <trkpt lat="42.907181018963456" lon="-1.676767962053418">
        <ele>578.82299999999998</ele>
        <time>2015-08-22T11:48:13Z</time>
      </trkpt>
      <trkpt lat="42.907101977616549" lon="-1.676851026713848">
        <ele>578.20799999999997</ele>
        <time>2015-08-22T11:48:14Z</time>
      </trkpt>
      <trkpt lat="42.907026037573814" lon="-1.67694297619164">
        <ele>577.49599999999998</ele>
        <time>2015-08-22T11:48:15Z</time>
      </trkpt>
      <trkpt lat="42.906948002055287" lon="-1.677040038630366">
        <ele>576.81500000000005</ele>
        <time>2015-08-22T11:48:16Z</time>
      </trkpt>
      <trkpt lat="42.906870972365141" lon="-1.677127964794636">
        <ele>576.26099999999997</ele>
        <time>2015-08-22T11:48:17Z</time>
      </trkpt>
      <trkpt lat="42.906706016510725" lon="-1.677272971719503">
        <ele>576.26499999999999</ele>
        <time>2015-08-22T11:48:19Z</time>
      </trkpt>
      <trkpt lat="42.906612977385521" lon="-1.677317982539535">
        <ele>575.81799999999998</ele>
        <time>2015-08-22T11:48:20Z</time>
      </trkpt>
      <trkpt lat="42.906517004594207" lon="-1.677344972267747">
        <ele>575.24099999999999</ele>
        <time>2015-08-22T11:48:21Z</time>
      </trkpt>
      <trkpt lat="42.906420025974512" lon="-1.677358970046043">
        <ele>574.87199999999996</ele>
        <time>2015-08-22T11:48:22Z</time>
      </trkpt>
      <trkpt lat="42.906317012384534" lon="-1.677368022501469">
        <ele>574.22900000000004</ele>
        <time>2015-08-22T11:48:23Z</time>
      </trkpt>
      <trkpt lat="42.906219027936459" lon="-1.677373973652721">
        <ele>573.61099999999999</ele>
        <time>2015-08-22T11:48:24Z</time>
      </trkpt>
      <trkpt lat="42.906121965497732" lon="-1.677379002794623">
        <ele>573.02099999999996</ele>
        <time>2015-08-22T11:48:25Z</time>
      </trkpt>
      <trkpt lat="42.906023981049657" lon="-1.677384031936526">
        <ele>572.60299999999995</ele>
        <time>2015-08-22T11:48:26Z</time>
      </trkpt>
      <trkpt lat="42.905925996601582" lon="-1.677390988916159">
        <ele>572.00800000000004</ele>
        <time>2015-08-22T11:48:27Z</time>
      </trkpt>
      <trkpt lat="42.905828012153506" lon="-1.677398029714823">
        <ele>571.42200000000003</ele>
        <time>2015-08-22T11:48:28Z</time>
      </trkpt>
      <trkpt lat="42.90572902187705" lon="-1.677405992522836">
        <ele>570.86099999999999</ele>
        <time>2015-08-22T11:48:29Z</time>
      </trkpt>
      <trkpt lat="42.905631037428975" lon="-1.67741596698761">
        <ele>570.41700000000003</ele>
        <time>2015-08-22T11:48:30Z</time>
      </trkpt>
      <trkpt lat="42.905527018010616" lon="-1.677428958937526">
        <ele>569.81100000000004</ele>
        <time>2015-08-22T11:48:31Z</time>
      </trkpt>
      <trkpt lat="42.90542702190578" lon="-1.677439017221332">
        <ele>569.49400000000003</ele>
        <time>2015-08-22T11:48:32Z</time>
      </trkpt>
      <trkpt lat="42.905326019972563" lon="-1.677445974200964">
        <ele>568.83699999999999</ele>
        <time>2015-08-22T11:48:33Z</time>
      </trkpt>
      <trkpt lat="42.905225018039346" lon="-1.677454020828009">
        <ele>568.45799999999997</ele>
        <time>2015-08-22T11:48:34Z</time>
      </trkpt>
      <trkpt lat="42.905125021934509" lon="-1.677462989464402">
        <ele>567.61500000000001</ele>
        <time>2015-08-22T11:48:35Z</time>
      </trkpt>
      <trkpt lat="42.905026031658053" lon="-1.677475981414318">
        <ele>567.08600000000001</ele>
        <time>2015-08-22T11:48:36Z</time>
      </trkpt>
      <trkpt lat="42.904928969219327" lon="-1.677495008334518">
        <ele>566.46000000000004</ele>
        <time>2015-08-22T11:48:37Z</time>
      </trkpt>
      <trkpt lat="42.904829978942871" lon="-1.67752199806273">
        <ele>565.62599999999998</ele>
        <time>2015-08-22T11:48:38Z</time>
      </trkpt>
      <trkpt lat="42.904737023636699" lon="-1.677553011104465">
        <ele>564.80799999999999</ele>
        <time>2015-08-22T11:48:39Z</time>
      </trkpt>
      <trkpt lat="42.904643984511495" lon="-1.677590981125832">
        <ele>564.279</ele>
        <time>2015-08-22T11:48:40Z</time>
      </trkpt>
      <trkpt lat="42.904551029205322" lon="-1.677633980289102">
        <ele>562.65800000000002</ele>
        <time>2015-08-22T11:48:41Z</time>
      </trkpt>
      <trkpt lat="42.904367968440056" lon="-1.677726013585925">
        <ele>562.024</ele>
        <time>2015-08-22T11:48:43Z</time>
      </trkpt>
      <trkpt lat="42.904276018962264" lon="-1.677774963900447">
        <ele>561.678</ele>
        <time>2015-08-22T11:48:44Z</time>
      </trkpt>
      <trkpt lat="42.904184991493821" lon="-1.677819974720478">
        <ele>561.01099999999997</ele>
        <time>2015-08-22T11:48:45Z</time>
      </trkpt>
      <trkpt lat="42.904088012874126" lon="-1.67786599136889">
        <ele>560.64400000000001</ele>
        <time>2015-08-22T11:48:46Z</time>
      </trkpt>
      <trkpt lat="42.903995979577303" lon="-1.677907984703779">
        <ele>560.05499999999995</ele>
        <time>2015-08-22T11:48:47Z</time>
      </trkpt>
      <trkpt lat="42.903903024271131" lon="-1.67795198969543">
        <ele>559.47199999999998</ele>
        <time>2015-08-22T11:48:48Z</time>
      </trkpt>
      <trkpt lat="42.903808979317546" lon="-1.677997000515461">
        <ele>558.89499999999998</ele>
        <time>2015-08-22T11:48:49Z</time>
      </trkpt>
      <trkpt lat="42.903715018182993" lon="-1.678044022992253">
        <ele>558.04899999999998</ele>
        <time>2015-08-22T11:48:50Z</time>
      </trkpt>
      <trkpt lat="42.903626002371311" lon="-1.67810495942831">
        <ele>557.22299999999996</ele>
        <time>2015-08-22T11:48:51Z</time>
      </trkpt>
      <trkpt lat="42.903543021529913" lon="-1.678186012431979">
        <ele>556.60799999999995</ele>
        <time>2015-08-22T11:48:52Z</time>
      </trkpt>
      <trkpt lat="42.903473032638431" lon="-1.678283996880055">
        <ele>555.87</ele>
        <time>2015-08-22T11:48:53Z</time>
      </trkpt>
      <trkpt lat="42.903410000726581" lon="-1.678401008248329">
        <ele>555.21900000000005</ele>
        <time>2015-08-22T11:48:54Z</time>
      </trkpt>
      <trkpt lat="42.903359960764647" lon="-1.678521037101746">
        <ele>554.61500000000001</ele>
        <time>2015-08-22T11:48:55Z</time>
      </trkpt>
      <trkpt lat="42.903315033763647" lon="-1.678642993792892">
        <ele>554.07899999999995</ele>
        <time>2015-08-22T11:48:56Z</time>
      </trkpt>
      <trkpt lat="42.903271028771996" lon="-1.67876604013145">
        <ele>553.65200000000004</ele>
        <time>2015-08-22T11:48:57Z</time>
      </trkpt>
      <trkpt lat="42.903228029608727" lon="-1.678889002650976">
        <ele>553.02499999999998</ele>
        <time>2015-08-22T11:48:58Z</time>
      </trkpt>
      <trkpt lat="42.903183018788695" lon="-1.679010037332773">
        <ele>552.45600000000002</ele>
        <time>2015-08-22T11:48:59Z</time>
      </trkpt>
      <trkpt lat="42.903139013797045" lon="-1.679127970710397">
        <ele>552.02300000000002</ele>
        <time>2015-08-22T11:49:00Z</time>
      </trkpt>
      <trkpt lat="42.903095008805394" lon="-1.679246993735433">
        <ele>551.47400000000005</ele>
        <time>2015-08-22T11:49:01Z</time>
      </trkpt>
      <trkpt lat="42.903051003813744" lon="-1.67936903424561">
        <ele>550.85599999999999</ele>
        <time>2015-08-22T11:49:02Z</time>
      </trkpt>
      <trkpt lat="42.903005992993712" lon="-1.679481016471982">
        <ele>550.42100000000005</ele>
        <time>2015-08-22T11:49:03Z</time>
      </trkpt>
      <trkpt lat="42.902959976345301" lon="-1.679590987041593">
        <ele>549.80799999999999</ele>
        <time>2015-08-22T11:49:04Z</time>
      </trkpt>
      <trkpt lat="42.90291496552527" lon="-1.679700035601854">
        <ele>549.24800000000005</ele>
        <time>2015-08-22T11:49:05Z</time>
      </trkpt>
      <trkpt lat="42.902867021039128" lon="-1.67980195954442">
        <ele>548.81700000000001</ele>
        <time>2015-08-22T11:49:06Z</time>
      </trkpt>
      <trkpt lat="42.902701981365681" lon="-1.680074036121368">
        <ele>548.88300000000004</ele>
        <time>2015-08-22T11:49:09Z</time>
      </trkpt>
      <trkpt lat="42.902643978595734" lon="-1.680157016962767">
        <ele>548.23699999999997</ele>
        <time>2015-08-22T11:49:10Z</time>
      </trkpt>
      <trkpt lat="42.902584969997406" lon="-1.680236980319023">
        <ele>547.88999999999999</ele>
        <time>2015-08-22T11:49:11Z</time>
      </trkpt>
      <trkpt lat="42.902526967227459" lon="-1.68031501583755">
        <ele>547.423</ele>
        <time>2015-08-22T11:49:12Z</time>
      </trkpt>
      <trkpt lat="42.902467958629131" lon="-1.680391961708665">
        <ele>547.01400000000001</ele>
        <time>2015-08-22T11:49:13Z</time>
      </trkpt>
      <trkpt lat="42.902407022193074" lon="-1.680462034419179">
        <ele>546.64099999999996</ele>
        <time>2015-08-22T11:49:14Z</time>
      </trkpt>
      <trkpt lat="42.902223039418459" lon="-1.680689016357064">
        <ele>546.69399999999996</ele>
        <time>2015-08-22T11:49:17Z</time>
      </trkpt>
      <trkpt lat="42.902164030820131" lon="-1.680763028562069">
        <ele>546.25699999999995</ele>
        <time>2015-08-22T11:49:18Z</time>
      </trkpt>
      <trkpt lat="42.902102004736662" lon="-1.680841986089945">
        <ele>545.822</ele>
        <time>2015-08-22T11:49:19Z</time>
      </trkpt>
      <trkpt lat="42.902037966996431" lon="-1.680922033265233">
        <ele>545.40800000000002</ele>
        <time>2015-08-22T11:49:20Z</time>
      </trkpt>
      <trkpt lat="42.901970995590091" lon="-1.68100199662149">
        <ele>544.64999999999998</ele>
        <time>2015-08-22T11:49:21Z</time>
      </trkpt>
      <trkpt lat="42.901901006698608" lon="-1.681081037968397">
        <ele>544.03899999999999</ele>
        <time>2015-08-22T11:49:22Z</time>
      </trkpt>
      <trkpt lat="42.901831017807126" lon="-1.681157983839512">
        <ele>543.47500000000002</ele>
        <time>2015-08-22T11:49:23Z</time>
      </trkpt>
      <trkpt lat="42.90175499394536" lon="-1.68123995885253">
        <ele>542.86900000000003</ele>
        <time>2015-08-22T11:49:24Z</time>
      </trkpt>
      <trkpt lat="42.901680981740355" lon="-1.681320006027818">
        <ele>542.25199999999995</ele>
        <time>2015-08-22T11:49:25Z</time>
      </trkpt>
      <trkpt lat="42.901606969535351" lon="-1.681398963555694">
        <ele>541.81500000000005</ele>
        <time>2015-08-22T11:49:26Z</time>
      </trkpt>
      <trkpt lat="42.901531029492617" lon="-1.68147599324584">
        <ele>541.42600000000004</ele>
        <time>2015-08-22T11:49:27Z</time>
      </trkpt>
      <trkpt lat="42.90145299397409" lon="-1.681556040421128">
        <ele>540.87300000000005</ele>
        <time>2015-08-22T11:49:28Z</time>
      </trkpt>
      <trkpt lat="42.901373030617833" lon="-1.681636003777385">
        <ele>540.47400000000005</ele>
        <time>2015-08-22T11:49:29Z</time>
      </trkpt>
      <trkpt lat="42.901288960129023" lon="-1.681716972962022">
        <ele>539.85599999999999</ele>
        <time>2015-08-22T11:49:30Z</time>
      </trkpt>
      <trkpt lat="42.901206985116005" lon="-1.681798025965691">
        <ele>538.82100000000003</ele>
        <time>2015-08-22T11:49:31Z</time>
      </trkpt>
      <trkpt lat="42.901122998446226" lon="-1.681884024292231">
        <ele>538.00800000000004</ele>
        <time>2015-08-22T11:49:32Z</time>
      </trkpt>
      <trkpt lat="42.901044962927699" lon="-1.681968010962009">
        <ele>537.46799999999996</ele>
        <time>2015-08-22T11:49:33Z</time>
      </trkpt>
      <trkpt lat="42.900967011228204" lon="-1.682050991803408">
        <ele>536.86699999999996</ele>
        <time>2015-08-22T11:49:34Z</time>
      </trkpt>
      <trkpt lat="42.900887969881296" lon="-1.682132966816425">
        <ele>536.07299999999998</ele>
        <time>2015-08-22T11:49:35Z</time>
      </trkpt>
      <trkpt lat="42.90080800652504" lon="-1.682212008163333">
        <ele>535.49699999999996</ele>
        <time>2015-08-22T11:49:36Z</time>
      </trkpt>
      <trkpt lat="42.900727959349751" lon="-1.682291971519589">
        <ele>534.61000000000001</ele>
        <time>2015-08-22T11:49:37Z</time>
      </trkpt>
      <trkpt lat="42.900647995993495" lon="-1.682374030351639">
        <ele>533.86300000000006</ele>
        <time>2015-08-22T11:49:38Z</time>
      </trkpt>
      <trkpt lat="42.900565015152097" lon="-1.682457011193037">
        <ele>533.24400000000003</ele>
        <time>2015-08-22T11:49:39Z</time>
      </trkpt>
      <trkpt lat="42.900485973805189" lon="-1.682535968720913">
        <ele>532.46100000000001</ele>
        <time>2015-08-22T11:49:40Z</time>
      </trkpt>
      <trkpt lat="42.900104010477662" lon="-1.682922961190343">
        <ele>532.09199999999998</ele>
        <time>2015-08-22T11:49:45Z</time>
      </trkpt>
      <trkpt lat="42.900027986615896" lon="-1.682996973395348">
        <ele>531.673</ele>
        <time>2015-08-22T11:49:46Z</time>
      </trkpt>
      <trkpt lat="42.899952968582511" lon="-1.683072997257114">
        <ele>531.22000000000003</ele>
        <time>2015-08-22T11:49:47Z</time>
      </trkpt>
      <trkpt lat="42.899879962205887" lon="-1.683143991976976">
        <ele>530.60799999999995</ele>
        <time>2015-08-22T11:49:48Z</time>
      </trkpt>
      <trkpt lat="42.899808967486024" lon="-1.683212975040078">
        <ele>530.22000000000003</ele>
        <time>2015-08-22T11:49:49Z</time>
      </trkpt>
      <trkpt lat="42.899739984422922" lon="-1.683281036093831">
        <ele>529.68899999999996</ele>
        <time>2015-08-22T11:49:50Z</time>
      </trkpt>
      <trkpt lat="42.899675024673343" lon="-1.683348007500172">
        <ele>529.28499999999997</ele>
        <time>2015-08-22T11:49:51Z</time>
      </trkpt>
      <trkpt lat="42.89960696361959" lon="-1.683417996391654">
        <ele>528.61900000000003</ele>
        <time>2015-08-22T11:49:52Z</time>
      </trkpt>
      <trkpt lat="42.899543009698391" lon="-1.683479016646743">
        <ele>528.08199999999999</ele>
        <time>2015-08-22T11:49:53Z</time>
      </trkpt>
      <trkpt lat="42.89947603829205" lon="-1.683539031073451">
        <ele>527.44500000000005</ele>
        <time>2015-08-22T11:49:54Z</time>
      </trkpt>
      <trkpt lat="42.899416023865342" lon="-1.683586975559592">
        <ele>526.26599999999996</ele>
        <time>2015-08-22T11:49:55Z</time>
      </trkpt>
      <trkpt lat="42.899360032752156" lon="-1.683628968894482">
        <ele>525.65300000000002</ele>
        <time>2015-08-22T11:49:56Z</time>
      </trkpt>
      <trkpt lat="42.899309992790222" lon="-1.683657970279455">
        <ele>525.01900000000001</ele>
        <time>2015-08-22T11:49:57Z</time>
      </trkpt>
      <trkpt lat="42.899266993626952" lon="-1.683674985542893">
        <ele>525.00900000000001</ele>
        <time>2015-08-22T11:49:58Z</time>
      </trkpt>
      <trkpt lat="42.899223994463682" lon="-1.683676997199655">
        <ele>524.61900000000003</ele>
        <time>2015-08-22T11:49:59Z</time>
      </trkpt>
      <trkpt lat="42.899180995300412" lon="-1.6836660169065">
        <ele>524.20799999999997</ele>
        <time>2015-08-22T11:50:00Z</time>
      </trkpt>
      <trkpt lat="42.899144031107426" lon="-1.683643972501159">
        <ele>523.62199999999996</ele>
        <time>2015-08-22T11:50:01Z</time>
      </trkpt>
      <trkpt lat="42.899114023894072" lon="-1.683614971116185">
        <ele>523.24099999999999</ele>
        <time>2015-08-22T11:50:02Z</time>
      </trkpt>
      <trkpt lat="42.899086028337479" lon="-1.683586975559592">
        <ele>522.61699999999996</ele>
        <time>2015-08-22T11:50:03Z</time>
      </trkpt>
      <trkpt lat="42.899057026952505" lon="-1.683561997488141">
        <ele>522.64099999999996</ele>
        <time>2015-08-22T11:50:04Z</time>
      </trkpt>
      <trkpt lat="42.898965999484062" lon="-1.683514975011349">
        <ele>522.66399999999999</ele>
        <time>2015-08-22T11:50:07Z</time>
      </trkpt>
      <trkpt lat="42.898910008370876" lon="-1.683482034131885">
        <ele>522.697</ele>
        <time>2015-08-22T11:50:09Z</time>
      </trkpt>
      <trkpt lat="42.898882012814283" lon="-1.683468036353588">
        <ele>522.63800000000003</ele>
        <time>2015-08-22T11:50:10Z</time>
      </trkpt>
      <trkpt lat="42.898800959810615" lon="-1.683421013876796">
        <ele>522.67499999999995</ele>
        <time>2015-08-22T11:50:13Z</time>
      </trkpt>
      <trkpt lat="42.898697024211287" lon="-1.683364016935229">
        <ele>523.01900000000001</ele>
        <time>2015-08-22T11:50:17Z</time>
      </trkpt>
      <trkpt lat="42.89868101477623" lon="-1.683340966701508">
        <ele>523.40899999999999</ele>
        <time>2015-08-22T11:50:18Z</time>
      </trkpt>
      <trkpt lat="42.89866198785603" lon="-1.683321017771959">
        <ele>523.81899999999996</ele>
        <time>2015-08-22T11:50:19Z</time>
      </trkpt>
      <trkpt lat="42.89863902144134" lon="-1.683305008336902">
        <ele>524.80799999999999</ele>
        <time>2015-08-22T11:50:20Z</time>
      </trkpt>
      <trkpt lat="42.898591998964548" lon="-1.683275001123548">
        <ele>524.87199999999996</ele>
        <time>2015-08-22T11:50:22Z</time>
      </trkpt>
      <trkpt lat="42.898526033386588" lon="-1.683228984475136">
        <ele>524.84100000000001</ele>
        <time>2015-08-22T11:50:25Z</time>
      </trkpt>
      <trkpt lat="42.89848999120295" lon="-1.683182967826724">
        <ele>524.86699999999996</ele>
        <time>2015-08-22T11:50:27Z</time>
      </trkpt>
      <trkpt lat="42.898480016738176" lon="-1.683152038604021">
        <ele>524.87099999999998</ele>
        <time>2015-08-22T11:50:28Z</time>
      </trkpt>
      <trkpt lat="42.898472975939512" lon="-1.683090012520552">
        <ele>525.274</ele>
        <time>2015-08-22T11:50:30Z</time>
      </trkpt>
      <trkpt lat="42.898474987596273" lon="-1.683055981993675">
        <ele>525.61699999999996</ele>
        <time>2015-08-22T11:50:31Z</time>
      </trkpt>
      <trkpt lat="42.898476999253035" lon="-1.683022035285831">
        <ele>526.07799999999997</ele>
        <time>2015-08-22T11:50:32Z</time>
      </trkpt>
      <trkpt lat="42.898481022566557" lon="-1.682990016415715">
        <ele>526.42499999999995</ele>
        <time>2015-08-22T11:50:33Z</time>
      </trkpt>
      <trkpt lat="42.898484962061048" lon="-1.682959003373981">
        <ele>526.88300000000004</ele>
        <time>2015-08-22T11:50:34Z</time>
      </trkpt>
      <trkpt lat="42.898508012294769" lon="-1.682878034189344">
        <ele>526.82500000000005</ele>
        <time>2015-08-22T11:50:37Z</time>
      </trkpt>
      <trkpt lat="42.898528967052698" lon="-1.682796981185675">
        <ele>526.81700000000001</ele>
        <time>2015-08-22T11:50:40Z</time>
      </trkpt>
      <trkpt lat="42.898570960387588" lon="-1.682665972039104">
        <ele>527.40800000000002</ele>
        <time>2015-08-22T11:50:45Z</time>
      </trkpt>
      <trkpt lat="42.898580012843013" lon="-1.682639988139272">
        <ele>527.87900000000002</ele>
        <time>2015-08-22T11:50:46Z</time>
      </trkpt>
      <trkpt lat="42.898588981479406" lon="-1.68261400423944">
        <ele>528.21799999999996</ele>
        <time>2015-08-22T11:50:47Z</time>
      </trkpt>
      <trkpt lat="42.898599039763212" lon="-1.682590031996369">
        <ele>528.88400000000001</ele>
        <time>2015-08-22T11:50:48Z</time>
      </trkpt>
      <trkpt lat="42.898608008399606" lon="-1.682565975934267">
        <ele>529.45799999999997</ele>
        <time>2015-08-22T11:50:49Z</time>
      </trkpt>
      <trkpt lat="42.898621000349522" lon="-1.682545021176338">
        <ele>530.21100000000001</ele>
        <time>2015-08-22T11:50:50Z</time>
      </trkpt>
      <trkpt lat="42.898634998127818" lon="-1.682522976770997">
        <ele>530.85400000000004</ele>
        <time>2015-08-22T11:50:51Z</time>
      </trkpt>
      <trkpt lat="42.898647990077734" lon="-1.682501016184688">
        <ele>531.495</ele>
        <time>2015-08-22T11:50:52Z</time>
      </trkpt>
      <trkpt lat="42.898688977584243" lon="-1.682434966787696">
        <ele>531.42200000000003</ele>
        <time>2015-08-22T11:50:55Z</time>
      </trkpt>
      <trkpt lat="42.898769024759531" lon="-1.682306975126267">
        <ele>531.47400000000005</ele>
        <time>2015-08-22T11:51:01Z</time>
      </trkpt>
      <trkpt lat="42.898769024759531" lon="-1.682235980406404">
        <ele>531.45600000000002</ele>
        <time>2015-08-22T11:51:04Z</time>
      </trkpt>
      <trkpt lat="42.898759972304106" lon="-1.682217959314585">
        <ele>531.42100000000005</ele>
        <time>2015-08-22T11:51:05Z</time>
      </trkpt>
      <trkpt lat="42.898685960099101" lon="-1.682238997891545">
        <ele>531.40800000000002</ele>
        <time>2015-08-22T11:51:08Z</time>
      </trkpt>
      <trkpt lat="42.898630974814296" lon="-1.682280991226435">
        <ele>532.03800000000001</ele>
        <time>2015-08-22T11:51:11Z</time>
      </trkpt>
      <trkpt lat="42.898612031713128" lon="-1.68229297734797">
        <ele>532.43700000000001</ele>
        <time>2015-08-22T11:51:12Z</time>
      </trkpt>
      <trkpt lat="42.898589987307787" lon="-1.682295994833112">
        <ele>533.07299999999998</ele>
        <time>2015-08-22T11:51:13Z</time>
      </trkpt>
      <trkpt lat="42.898569032549858" lon="-1.682297000661492">
        <ele>533.49699999999996</ele>
        <time>2015-08-22T11:51:14Z</time>
      </trkpt>
      <trkpt lat="42.898545982316136" lon="-1.682297000661492">
        <ele>534.08000000000004</ele>
        <time>2015-08-22T11:51:15Z</time>
      </trkpt>
      <trkpt lat="42.898439029231668" lon="-1.682235980406404">
        <ele>534.08299999999997</ele>
        <time>2015-08-22T11:51:20Z</time>
      </trkpt>
      <trkpt lat="42.898253034800291" lon="-1.682072030380368">
        <ele>533.63400000000001</ele>
        <time>2015-08-22T11:51:27Z</time>
      </trkpt>
      <trkpt lat="42.898223027586937" lon="-1.682050991803408">
        <ele>533.23099999999999</ele>
        <time>2015-08-22T11:51:28Z</time>
      </trkpt>
      <trkpt lat="42.898191008716822" lon="-1.682031964883208">
        <ele>532.82299999999998</ele>
        <time>2015-08-22T11:51:29Z</time>
      </trkpt>
      <trkpt lat="42.898158989846706" lon="-1.682014027610421">
        <ele>532.48299999999995</ele>
        <time>2015-08-22T11:51:30Z</time>
      </trkpt>
      <trkpt lat="42.898125965148211" lon="-1.681995000690222">
        <ele>532.01099999999997</ele>
        <time>2015-08-22T11:51:31Z</time>
      </trkpt>
      <trkpt lat="42.898019012063742" lon="-1.681931968778372">
        <ele>532.00800000000004</ele>
        <time>2015-08-22T11:51:34Z</time>
      </trkpt>
      <trkpt lat="42.897895965725183" lon="-1.681872038170695">
        <ele>532.06299999999999</ele>
        <time>2015-08-22T11:51:38Z</time>
      </trkpt>
      <trkpt lat="42.897842992097139" lon="-1.681846976280212">
        <ele>532.06200000000001</ele>
        <time>2015-08-22T11:51:40Z</time>
      </trkpt>
      <trkpt lat="42.897689016535878" lon="-1.681812023743987">
        <ele>532.09799999999996</ele>
        <time>2015-08-22T11:51:46Z</time>
      </trkpt>
      <trkpt lat="42.897524982690811" lon="-1.681831972673535">
        <ele>532.03200000000004</ele>
        <time>2015-08-22T11:51:52Z</time>
      </trkpt>
      <trkpt lat="42.89737100712955" lon="-1.681858040392399">
        <ele>532.02499999999998</ele>
        <time>2015-08-22T11:52:00Z</time>
      </trkpt>
      <trkpt lat="42.897247960790992" lon="-1.68188301846385">
        <ele>532.09799999999996</ele>
        <time>2015-08-22T11:52:08Z</time>
      </trkpt>
      <trkpt lat="42.897130027413368" lon="-1.681917971000075">
        <ele>532.03899999999999</ele>
        <time>2015-08-22T11:52:16Z</time>
      </trkpt>
      <trkpt lat="42.897116029635072" lon="-1.681921994313598">
        <ele>532.48599999999999</ele>
        <time>2015-08-22T11:52:17Z</time>
      </trkpt>
      <trkpt lat="42.897100020200014" lon="-1.68192601762712">
        <ele>532.89499999999998</ele>
        <time>2015-08-22T11:52:18Z</time>
      </trkpt>
      <trkpt lat="42.897086022421718" lon="-1.681930040940642">
        <ele>533.44899999999996</ele>
        <time>2015-08-22T11:52:19Z</time>
      </trkpt>
      <trkpt lat="42.897073030471802" lon="-1.681932974606752">
        <ele>533.82299999999998</ele>
        <time>2015-08-22T11:52:20Z</time>
      </trkpt>
      <trkpt lat="42.897059032693505" lon="-1.681935992091894">
        <ele>534.20799999999997</ele>
        <time>2015-08-22T11:52:21Z</time>
      </trkpt>
      <trkpt lat="42.897031959146261" lon="-1.681944960728288">
        <ele>534.25</ele>
        <time>2015-08-22T11:52:23Z</time>
      </trkpt>
      <trkpt lat="42.896916959434748" lon="-1.681989971548319">
        <ele>534.25900000000001</ele>
        <time>2015-08-22T11:52:31Z</time>
      </trkpt>
      <trkpt lat="42.896836996078491" lon="-1.682031964883208">
        <ele>534.63499999999999</ele>
        <time>2015-08-22T11:52:37Z</time>
      </trkpt>
      <trkpt lat="42.896822998300195" lon="-1.682041017338634">
        <ele>535.07899999999995</ele>
        <time>2015-08-22T11:52:38Z</time>
      </trkpt>
      <trkpt lat="42.896809000521898" lon="-1.682050991803408">
        <ele>535.43200000000002</ele>
        <time>2015-08-22T11:52:39Z</time>
      </trkpt>
      <trkpt lat="42.896792991086841" lon="-1.682062977924943">
        <ele>535.875</ele>
        <time>2015-08-22T11:52:40Z</time>
      </trkpt>
      <trkpt lat="42.896776981651783" lon="-1.682073036208749">
        <ele>536.25599999999997</ele>
        <time>2015-08-22T11:52:41Z</time>
      </trkpt>
      <trkpt lat="42.896698024123907" lon="-1.682118969038129">
        <ele>536.27300000000002</ele>
        <time>2015-08-22T11:52:47Z</time>
      </trkpt>
      <trkpt lat="42.896583024412394" lon="-1.68218401260674">
        <ele>536.625</ele>
        <time>2015-08-22T11:52:55Z</time>
      </trkpt>
      <trkpt lat="42.896568020805717" lon="-1.682189041748643">
        <ele>537.02599999999995</ele>
        <time>2015-08-22T11:52:56Z</time>
      </trkpt>
      <trkpt lat="42.896553017199039" lon="-1.682193987071514">
        <ele>537.40800000000002</ele>
        <time>2015-08-22T11:52:57Z</time>
      </trkpt>
      <trkpt lat="42.896539019420743" lon="-1.682201027870178">
        <ele>537.80799999999999</ele>
        <time>2015-08-22T11:52:58Z</time>
      </trkpt>
      <trkpt lat="42.896526027470827" lon="-1.682207984849811">
        <ele>538.24300000000005</ele>
        <time>2015-08-22T11:52:59Z</time>
      </trkpt>
      <trkpt lat="42.896450003609061" lon="-1.682222988456488">
        <ele>538.22199999999998</ele>
        <time>2015-08-22T11:53:04Z</time>
      </trkpt>
      <trkpt lat="42.896399041637778" lon="-1.682217959314585">
        <ele>538.66800000000001</ele>
        <time>2015-08-22T11:53:07Z</time>
      </trkpt>
      <trkpt lat="42.896384038031101" lon="-1.682216031476855">
        <ele>539.072</ele>
        <time>2015-08-22T11:53:08Z</time>
      </trkpt>
      <trkpt lat="42.896369034424424" lon="-1.682217037305236">
        <ele>539.66499999999996</ele>
        <time>2015-08-22T11:53:09Z</time>
      </trkpt>
      <trkpt lat="42.896352019160986" lon="-1.682218965142965">
        <ele>540.02800000000002</ele>
        <time>2015-08-22T11:53:10Z</time>
      </trkpt>
      <trkpt lat="42.896341038867831" lon="-1.682218965142965">
        <ele>540.44899999999996</ele>
        <time>2015-08-22T11:53:11Z</time>
      </trkpt>
      <trkpt lat="42.896329974755645" lon="-1.682216031476855">
        <ele>540.48599999999999</ele>
        <time>2015-08-22T11:53:12Z</time>
      </trkpt>
      <trkpt lat="42.896303990855813" lon="-1.682203039526939">
        <ele>540.87099999999998</ele>
        <time>2015-08-22T11:53:14Z</time>
      </trkpt>
      <trkpt lat="42.896297033876181" lon="-1.682189041748643">
        <ele>541.24099999999999</ele>
        <time>2015-08-22T11:53:15Z</time>
      </trkpt>
      <trkpt lat="42.896290998905897" lon="-1.682173032313585">
        <ele>541.81500000000005</ele>
        <time>2015-08-22T11:53:16Z</time>
      </trkpt>
      <trkpt lat="42.896288987249136" lon="-1.682154005393386">
        <ele>542.20799999999997</ele>
        <time>2015-08-22T11:53:17Z</time>
      </trkpt>
      <trkpt lat="42.896288987249136" lon="-1.682132966816425">
        <ele>542.64800000000002</ele>
        <time>2015-08-22T11:53:18Z</time>
      </trkpt>
      <trkpt lat="42.896269960328937" lon="-1.682057026773691">
        <ele>542.68700000000001</ele>
        <time>2015-08-22T11:53:22Z</time>
      </trkpt>
      <trkpt lat="42.896221010014415" lon="-1.681858040392399">
        <ele>542.63300000000004</ele>
        <time>2015-08-22T11:53:27Z</time>
      </trkpt>
      <trkpt lat="42.89614699780941" lon="-1.681653019040823">
        <ele>542.61699999999996</ele>
        <time>2015-08-22T11:53:31Z</time>
      </trkpt>
      <trkpt lat="42.896123025566339" lon="-1.681605996564031">
        <ele>542.23000000000002</ele>
        <time>2015-08-22T11:53:32Z</time>
      </trkpt>
      <trkpt lat="42.896094024181366" lon="-1.681565009057522">
        <ele>541.86300000000006</ele>
        <time>2015-08-22T11:53:33Z</time>
      </trkpt>
      <trkpt lat="42.896067034453154" lon="-1.68153902515769">
        <ele>541.29399999999998</ele>
        <time>2015-08-22T11:53:34Z</time>
      </trkpt>
      <trkpt lat="42.896037027239799" lon="-1.681516980752349">
        <ele>540.87099999999998</ele>
        <time>2015-08-22T11:53:35Z</time>
      </trkpt>
      <trkpt lat="42.896007020026445" lon="-1.681497031822801">
        <ele>540.44399999999996</ele>
        <time>2015-08-22T11:53:36Z</time>
      </trkpt>
      <trkpt lat="42.895971983671188" lon="-1.681490996852517">
        <ele>540.40499999999997</ele>
        <time>2015-08-22T11:53:37Z</time>
      </trkpt>
      <trkpt lat="42.895940970629454" lon="-1.681485967710614">
        <ele>540.41499999999996</ele>
        <time>2015-08-22T11:53:38Z</time>
      </trkpt>
      <trkpt lat="42.895869975909591" lon="-1.681523015722632">
        <ele>540.40800000000002</ele>
        <time>2015-08-22T11:53:41Z</time>
      </trkpt>
      <trkpt lat="42.895838962867856" lon="-1.681572971865535">
        <ele>540.03499999999997</ele>
        <time>2015-08-22T11:53:43Z</time>
      </trkpt>
      <trkpt lat="42.895820019766688" lon="-1.681600967422128">
        <ele>539.69399999999996</ele>
        <time>2015-08-22T11:53:44Z</time>
      </trkpt>
      <trkpt lat="42.895804010331631" lon="-1.681627035140991">
        <ele>539.21000000000004</ele>
        <time>2015-08-22T11:53:45Z</time>
      </trkpt>
      <trkpt lat="42.895785989239812" lon="-1.681651007384062">
        <ele>538.85400000000004</ele>
        <time>2015-08-22T11:53:46Z</time>
      </trkpt>
      <trkpt lat="42.895772997289896" lon="-1.681674979627132">
        <ele>538.24699999999996</ele>
        <time>2015-08-22T11:53:47Z</time>
      </trkpt>
      <trkpt lat="42.895712982863188" lon="-1.681737005710602">
        <ele>538.23000000000002</ele>
        <time>2015-08-22T11:53:50Z</time>
      </trkpt>
      <trkpt lat="42.895683981478214" lon="-1.681746980175376">
        <ele>538.221</ele>
        <time>2015-08-22T11:53:51Z</time>
      </trkpt>
      <trkpt lat="42.895612986758351" lon="-1.681728959083557">
        <ele>537.89800000000002</ele>
        <time>2015-08-22T11:53:54Z</time>
      </trkpt>
      <trkpt lat="42.895589014515281" lon="-1.681717978790402">
        <ele>537.41099999999994</ele>
        <time>2015-08-22T11:53:55Z</time>
      </trkpt>
      <trkpt lat="42.895564958453178" lon="-1.681701969355345">
        <ele>536.82100000000003</ele>
        <time>2015-08-22T11:53:56Z</time>
      </trkpt>
      <trkpt lat="42.89554500952363" lon="-1.681684032082558">
        <ele>536.20299999999997</ele>
        <time>2015-08-22T11:53:57Z</time>
      </trkpt>
      <trkpt lat="42.895525982603431" lon="-1.681665005162358">
        <ele>535.60799999999995</ele>
        <time>2015-08-22T11:53:58Z</time>
      </trkpt>
      <trkpt lat="42.895505027845502" lon="-1.681650001555681">
        <ele>535.04200000000003</ele>
        <time>2015-08-22T11:53:59Z</time>
      </trkpt>
      <trkpt lat="42.8954809717834" lon="-1.681638015434146">
        <ele>534.48099999999999</ele>
        <time>2015-08-22T11:54:00Z</time>
      </trkpt>
      <trkpt lat="42.895461022853851" lon="-1.681616976857185">
        <ele>533.89700000000005</ele>
        <time>2015-08-22T11:54:01Z</time>
      </trkpt>
      <trkpt lat="42.895445013418794" lon="-1.681590992957354">
        <ele>532.46100000000001</ele>
        <time>2015-08-22T11:54:02Z</time>
      </trkpt>
      <trkpt lat="42.895433027297258" lon="-1.681562997400761">
        <ele>531.83399999999995</ele>
        <time>2015-08-22T11:54:03Z</time>
      </trkpt>
      <trkpt lat="42.895419029518962" lon="-1.681530978530645">
        <ele>531.41700000000003</ele>
        <time>2015-08-22T11:54:04Z</time>
      </trkpt>
      <trkpt lat="42.895401008427143" lon="-1.681499965488911">
        <ele>530.82799999999997</ele>
        <time>2015-08-22T11:54:05Z</time>
      </trkpt>
      <trkpt lat="42.895376030355692" lon="-1.681479010730982">
        <ele>530.46500000000003</ele>
        <time>2015-08-22T11:54:06Z</time>
      </trkpt>
      <trkpt lat="42.895349962636828" lon="-1.68145596049726">
        <ele>530.029</ele>
        <time>2015-08-22T11:54:07Z</time>
      </trkpt>
      <trkpt lat="42.895328002050519" lon="-1.681422013789415">
        <ele>529.39999999999998</ele>
        <time>2015-08-22T11:54:08Z</time>
      </trkpt>
      <trkpt lat="42.895303023979068" lon="-1.681342972442508">
        <ele>529.41999999999996</ele>
        <time>2015-08-22T11:54:10Z</time>
      </trkpt>
      <trkpt lat="42.895276034250855" lon="-1.681196037679911">
        <ele>529.40800000000002</ele>
        <time>2015-08-22T11:54:15Z</time>
      </trkpt>
      <trkpt lat="42.895182995125651" lon="-1.681009959429503">
        <ele>529.47299999999996</ele>
        <time>2015-08-22T11:54:21Z</time>
      </trkpt>
      <trkpt lat="42.89507101289928" lon="-1.680866964161396">
        <ele>529.49199999999996</ele>
        <time>2015-08-22T11:54:27Z</time>
      </trkpt>
      <trkpt lat="42.894923994317651" lon="-1.680779960006475">
        <ele>529.44799999999998</ele>
        <time>2015-08-22T11:54:33Z</time>
      </trkpt>
      <trkpt lat="42.89481402374804" lon="-1.680777026340365">
        <ele>529.88199999999995</ele>
        <time>2015-08-22T11:54:37Z</time>
      </trkpt>
      <trkpt lat="42.894787034019828" lon="-1.680782977491617">
        <ele>530.26499999999999</ele>
        <time>2015-08-22T11:54:38Z</time>
      </trkpt>
      <trkpt lat="42.894759960472584" lon="-1.680791024118662">
        <ele>530.66800000000001</ele>
        <time>2015-08-22T11:54:39Z</time>
      </trkpt>
      <trkpt lat="42.894735988229513" lon="-1.680800998583436">
        <ele>531.04899999999998</ele>
        <time>2015-08-22T11:54:40Z</time>
      </trkpt>
      <trkpt lat="42.894712015986443" lon="-1.680813990533352">
        <ele>531.41600000000005</ele>
        <time>2015-08-22T11:54:41Z</time>
      </trkpt>
      <trkpt lat="42.894638003781438" lon="-1.680871993303299">
        <ele>532.08699999999999</ele>
        <time>2015-08-22T11:54:44Z</time>
      </trkpt>
      <trkpt lat="42.894614031538367" lon="-1.680891020223498">
        <ele>532.44200000000001</ele>
        <time>2015-08-22T11:54:45Z</time>
      </trkpt>
      <trkpt lat="42.894589975476265" lon="-1.680909963324666">
        <ele>532.82600000000002</ele>
        <time>2015-08-22T11:54:46Z</time>
      </trkpt>
      <trkpt lat="42.894564997404814" lon="-1.680927984416485">
        <ele>533.20799999999997</ele>
        <time>2015-08-22T11:54:47Z</time>
      </trkpt>
      <trkpt lat="42.894542030990124" lon="-1.680948017165065">
        <ele>533.67899999999997</ele>
        <time>2015-08-22T11:54:48Z</time>
      </trkpt>
      <trkpt lat="42.894425019621849" lon="-1.681039966642857">
        <ele>534.02800000000002</ele>
        <time>2015-08-22T11:54:53Z</time>
      </trkpt>
      <trkpt lat="42.894400041550398" lon="-1.681057987734675">
        <ele>534.48400000000004</ele>
        <time>2015-08-22T11:54:54Z</time>
      </trkpt>
      <trkpt lat="42.894373973831534" lon="-1.681071985512972">
        <ele>534.87800000000004</ele>
        <time>2015-08-22T11:54:55Z</time>
      </trkpt>
      <trkpt lat="42.894351007416844" lon="-1.681090006604791">
        <ele>535.28099999999995</ele>
        <time>2015-08-22T11:54:56Z</time>
      </trkpt>
      <trkpt lat="42.894327035173774" lon="-1.681105010211468">
        <ele>535.68399999999997</ele>
        <time>2015-08-22T11:54:57Z</time>
      </trkpt>
      <trkpt lat="42.89425402879715" lon="-1.681161001324654">
        <ele>535.67499999999995</ele>
        <time>2015-08-22T11:55:00Z</time>
      </trkpt>
      <trkpt lat="42.894207006320357" lon="-1.68119695968926">
        <ele>536.23199999999997</ele>
        <time>2015-08-22T11:55:02Z</time>
      </trkpt>
      <trkpt lat="42.894184039905667" lon="-1.681213974952698">
        <ele>536.61599999999999</ele>
        <time>2015-08-22T11:55:03Z</time>
      </trkpt>
      <trkpt lat="42.894160989671946" lon="-1.681226966902614">
        <ele>537.07600000000002</ele>
        <time>2015-08-22T11:55:04Z</time>
      </trkpt>
      <trkpt lat="42.894135005772114" lon="-1.6812380310148">
        <ele>537.41300000000001</ele>
        <time>2015-08-22T11:55:05Z</time>
      </trkpt>
      <trkpt lat="42.894108016043901" lon="-1.681243982166052">
        <ele>537.80799999999999</ele>
        <time>2015-08-22T11:55:06Z</time>
      </trkpt>
      <trkpt lat="42.894081026315689" lon="-1.681245993822813">
        <ele>537.81200000000001</ele>
        <time>2015-08-22T11:55:07Z</time>
      </trkpt>
      <trkpt lat="42.893974995240569" lon="-1.681254040449858">
        <ele>537.84100000000001</ele>
        <time>2015-08-22T11:55:11Z</time>
      </trkpt>
      <trkpt lat="42.893845997750759" lon="-1.681213974952698">
        <ele>537.89700000000005</ele>
        <time>2015-08-22T11:55:16Z</time>
      </trkpt>
      <trkpt lat="42.893749019131064" lon="-1.681049019098282">
        <ele>538.21100000000001</ele>
        <time>2015-08-22T11:55:22Z</time>
      </trkpt>
      <trkpt lat="42.893737033009529" lon="-1.68102202937007">
        <ele>538.61400000000003</ele>
        <time>2015-08-22T11:55:23Z</time>
      </trkpt>
      <trkpt lat="42.893722029402852" lon="-1.680995961651206">
        <ele>539.01700000000005</ele>
        <time>2015-08-22T11:55:24Z</time>
      </trkpt>
      <trkpt lat="42.893709959462285" lon="-1.680966038256884">
        <ele>539.47799999999995</ele>
        <time>2015-08-22T11:55:25Z</time>
      </trkpt>
      <trkpt lat="42.89369897916913" lon="-1.680933013558388">
        <ele>539.83500000000004</ele>
        <time>2015-08-22T11:55:26Z</time>
      </trkpt>
      <trkpt lat="42.893653968349099" lon="-1.680804016068578">
        <ele>539.81700000000001</ele>
        <time>2015-08-22T11:55:30Z</time>
      </trkpt>
      <trkpt lat="42.893606023862958" lon="-1.68063897639513">
        <ele>540.28700000000003</ele>
        <time>2015-08-22T11:55:35Z</time>
      </trkpt>
      <trkpt lat="42.893595965579152" lon="-1.680607041344047">
        <ele>540.81500000000005</ele>
        <time>2015-08-22T11:55:36Z</time>
      </trkpt>
      <trkpt lat="42.893585991114378" lon="-1.680569993332028">
        <ele>541.20799999999997</ele>
        <time>2015-08-22T11:55:37Z</time>
      </trkpt>
      <trkpt lat="42.893577022477984" lon="-1.680537974461913">
        <ele>541.65200000000004</ele>
        <time>2015-08-22T11:55:38Z</time>
      </trkpt>
      <trkpt lat="42.893565958365798" lon="-1.68050603941083">
        <ele>542.09100000000001</ele>
        <time>2015-08-22T11:55:39Z</time>
      </trkpt>
      <trkpt lat="42.893522959202528" lon="-1.68033697642386">
        <ele>542.04700000000003</ele>
        <time>2015-08-22T11:55:44Z</time>
      </trkpt>
      <trkpt lat="42.893500998616219" lon="-1.680242009460926">
        <ele>542.43100000000004</ele>
        <time>2015-08-22T11:55:47Z</time>
      </trkpt>
      <trkpt lat="42.893493035808206" lon="-1.680213008075953">
        <ele>542.86400000000003</ele>
        <time>2015-08-22T11:55:48Z</time>
      </trkpt>
      <trkpt lat="42.893485995009542" lon="-1.680181995034218">
        <ele>543.29700000000003</ele>
        <time>2015-08-22T11:55:49Z</time>
      </trkpt>
      <trkpt lat="42.893477026373148" lon="-1.680151987820864">
        <ele>543.69799999999998</ele>
        <time>2015-08-22T11:55:50Z</time>
      </trkpt>
      <trkpt lat="42.893468979746103" lon="-1.68012298643589">
        <ele>544.01499999999999</ele>
        <time>2015-08-22T11:55:51Z</time>
      </trkpt>
      <trkpt lat="42.89346101693809" lon="-1.680089961737394">
        <ele>544.05899999999997</ele>
        <time>2015-08-22T11:55:52Z</time>
      </trkpt>
      <trkpt lat="42.893420029431581" lon="-1.679946966469288">
        <ele>544.40300000000002</ele>
        <time>2015-08-22T11:55:57Z</time>
      </trkpt>
      <trkpt lat="42.893412988632917" lon="-1.679916959255934">
        <ele>544.82299999999998</ele>
        <time>2015-08-22T11:55:58Z</time>
      </trkpt>
      <trkpt lat="42.893405025824904" lon="-1.679887035861611">
        <ele>545.20799999999997</ele>
        <time>2015-08-22T11:55:59Z</time>
      </trkpt>
      <trkpt lat="42.89339697919786" lon="-1.679856022819877">
        <ele>545.67600000000004</ele>
        <time>2015-08-22T11:56:00Z</time>
      </trkpt>
      <trkpt lat="42.893389016389847" lon="-1.679825009778142">
        <ele>546.04499999999996</ele>
        <time>2015-08-22T11:56:01Z</time>
      </trkpt>
      <trkpt lat="42.893322966992855" lon="-1.679574977606535">
        <ele>546.46100000000001</ele>
        <time>2015-08-22T11:56:09Z</time>
      </trkpt>
      <trkpt lat="42.893316010013223" lon="-1.6795439645648">
        <ele>546.85500000000002</ele>
        <time>2015-08-22T11:56:10Z</time>
      </trkpt>
      <trkpt lat="42.893308969214559" lon="-1.679512029513717">
        <ele>547.428</ele>
        <time>2015-08-22T11:56:11Z</time>
      </trkpt>
      <trkpt lat="42.893301006406546" lon="-1.679483028128743">
        <ele>547.87099999999998</ele>
        <time>2015-08-22T11:56:12Z</time>
      </trkpt>
      <trkpt lat="42.893292037770152" lon="-1.679451009258628">
        <ele>548.28200000000004</ele>
        <time>2015-08-22T11:56:13Z</time>
      </trkpt>
      <trkpt lat="42.893250966444612" lon="-1.679324023425579">
        <ele>548.21900000000005</ele>
        <time>2015-08-22T11:56:17Z</time>
      </trkpt>
      <trkpt lat="42.893239986151457" lon="-1.679260991513729">
        <ele>548.65200000000004</ele>
        <time>2015-08-22T11:56:19Z</time>
      </trkpt>
      <trkpt lat="42.893231017515063" lon="-1.679229978471994">
        <ele>549.053</ele>
        <time>2015-08-22T11:56:20Z</time>
      </trkpt>
      <trkpt lat="42.893222970888019" lon="-1.679201982915402">
        <ele>549.40800000000002</ele>
        <time>2015-08-22T11:56:21Z</time>
      </trkpt>
      <trkpt lat="42.893211990594864" lon="-1.679168036207557">
        <ele>550.00800000000004</ele>
        <time>2015-08-22T11:56:22Z</time>
      </trkpt>
      <trkpt lat="42.89320302195847" lon="-1.679137023165822">
        <ele>550.42600000000004</ele>
        <time>2015-08-22T11:56:23Z</time>
      </trkpt>
      <trkpt lat="42.893193969503045" lon="-1.679103998467326">
        <ele>550.44500000000005</ele>
        <time>2015-08-22T11:56:24Z</time>
      </trkpt>
      <trkpt lat="42.893118029460311" lon="-1.678823037073016">
        <ele>550.42100000000005</ele>
        <time>2015-08-22T11:56:33Z</time>
      </trkpt>
      <trkpt lat="42.893059020861983" lon="-1.678562024608254">
        <ele>550.48500000000001</ele>
        <time>2015-08-22T11:56:41Z</time>
      </trkpt>
      <trkpt lat="42.893022978678346" lon="-1.678433027118444">
        <ele>550.82799999999997</ele>
        <time>2015-08-22T11:56:45Z</time>
      </trkpt>
      <trkpt lat="42.893015015870333" lon="-1.678400002419949">
        <ele>551.29100000000005</ele>
        <time>2015-08-22T11:56:46Z</time>
      </trkpt>
      <trkpt lat="42.893005963414907" lon="-1.678367983549833">
        <ele>551.64200000000005</ele>
        <time>2015-08-22T11:56:47Z</time>
      </trkpt>
      <trkpt lat="42.892993977293372" lon="-1.678334958851337">
        <ele>552.01900000000001</ele>
        <time>2015-08-22T11:56:48Z</time>
      </trkpt>
      <trkpt lat="42.892985008656979" lon="-1.678306041285396">
        <ele>552.48699999999997</ele>
        <time>2015-08-22T11:56:49Z</time>
      </trkpt>
      <trkpt lat="42.892936980351806" lon="-1.678122980520129">
        <ele>552.44200000000001</ele>
        <time>2015-08-22T11:56:55Z</time>
      </trkpt>
      <trkpt lat="42.892904039472342" lon="-1.677989037707448">
        <ele>552.82600000000002</ele>
        <time>2015-08-22T11:56:59Z</time>
      </trkpt>
      <trkpt lat="42.892891969531775" lon="-1.677957018837333">
        <ele>553.20799999999997</ele>
        <time>2015-08-22T11:57:00Z</time>
      </trkpt>
      <trkpt lat="42.892883000895381" lon="-1.677927011623979">
        <ele>553.649</ele>
        <time>2015-08-22T11:57:01Z</time>
      </trkpt>
      <trkpt lat="42.892875038087368" lon="-1.677895998582244">
        <ele>554.048</ele>
        <time>2015-08-22T11:57:02Z</time>
      </trkpt>
      <trkpt lat="42.892864979803562" lon="-1.67786599136889">
        <ele>554.47400000000005</ele>
        <time>2015-08-22T11:57:03Z</time>
      </trkpt>
      <trkpt lat="42.892834972590208" lon="-1.677741017192602">
        <ele>554.89800000000002</ele>
        <time>2015-08-22T11:57:07Z</time>
      </trkpt>
      <trkpt lat="42.892824998125434" lon="-1.677707992494106">
        <ele>555.21100000000001</ele>
        <time>2015-08-22T11:57:08Z</time>
      </trkpt>
      <trkpt lat="42.892817035317421" lon="-1.677676979452372">
        <ele>555.66399999999999</ele>
        <time>2015-08-22T11:57:09Z</time>
      </trkpt>
      <trkpt lat="42.892807982861996" lon="-1.677644038572907">
        <ele>556.09500000000003</ele>
        <time>2015-08-22T11:57:10Z</time>
      </trkpt>
      <trkpt lat="42.892799014225602" lon="-1.677615037187934">
        <ele>556.49199999999996</ele>
        <time>2015-08-22T11:57:11Z</time>
      </trkpt>
      <trkpt lat="42.892763977870345" lon="-1.677460977807641">
        <ele>556.85400000000004</ele>
        <time>2015-08-22T11:57:16Z</time>
      </trkpt>
      <trkpt lat="42.892759032547474" lon="-1.677430970594287">
        <ele>557.25599999999997</ele>
        <time>2015-08-22T11:57:17Z</time>
      </trkpt>
      <trkpt lat="42.89275199174881" lon="-1.677404986694455">
        <ele>557.81100000000004</ele>
        <time>2015-08-22T11:57:18Z</time>
      </trkpt>
      <trkpt lat="42.892741011455655" lon="-1.677385037764907">
        <ele>558.20799999999997</ele>
        <time>2015-08-22T11:57:19Z</time>
      </trkpt>
      <trkpt lat="42.892723996192217" lon="-1.67737103998661">
        <ele>558.67600000000004</ele>
        <time>2015-08-22T11:57:20Z</time>
      </trkpt>
      <trkpt lat="42.892680997028947" lon="-1.677361987531185">
        <ele>558.65499999999997</ele>
        <time>2015-08-22T11:57:22Z</time>
      </trkpt>
      <trkpt lat="42.892612013965845" lon="-1.677471036091447">
        <ele>558.69100000000003</ele>
        <time>2015-08-22T11:57:26Z</time>
      </trkpt>
      <trkpt lat="42.892549987882376" lon="-1.67762802913785">
        <ele>558.65499999999997</ele>
        <time>2015-08-22T11:57:30Z</time>
      </trkpt>
      <trkpt lat="42.892527021467686" lon="-1.677659964188933">
        <ele>558.66800000000001</ele>
        <time>2015-08-22T11:57:31Z</time>
      </trkpt>
      <trkpt lat="42.892415039241314" lon="-1.67780103161931">
        <ele>558.62099999999998</ele>
        <time>2015-08-22T11:57:36Z</time>
      </trkpt>
      <trkpt lat="42.892329040914774" lon="-1.677912008017302">
        <ele>558.67200000000003</ele>
        <time>2015-08-22T11:57:40Z</time>
      </trkpt>
      <trkpt lat="42.892228960990906" lon="-1.678047962486744">
        <ele>558.09900000000005</ele>
        <time>2015-08-22T11:57:44Z</time>
      </trkpt>
      <trkpt lat="42.892202977091074" lon="-1.678084004670382">
        <ele>557.298</ele>
        <time>2015-08-22T11:57:45Z</time>
      </trkpt>
      <trkpt lat="42.892176993191242" lon="-1.678119041025639">
        <ele>556.61500000000001</ele>
        <time>2015-08-22T11:57:46Z</time>
      </trkpt>
      <trkpt lat="42.89215100929141" lon="-1.678154999390245">
        <ele>556.02599999999995</ele>
        <time>2015-08-22T11:57:47Z</time>
      </trkpt>
      <trkpt lat="42.892122007906437" lon="-1.678184000775218">
        <ele>555.40800000000002</ele>
        <time>2015-08-22T11:57:48Z</time>
      </trkpt>
      <trkpt lat="42.892094012349844" lon="-1.678215013816953">
        <ele>554.80999999999995</ele>
        <time>2015-08-22T11:57:49Z</time>
      </trkpt>
      <trkpt lat="42.892069034278393" lon="-1.678248038515449">
        <ele>554.22900000000004</ele>
        <time>2015-08-22T11:57:50Z</time>
      </trkpt>
      <trkpt lat="42.891993010416627" lon="-1.678374018520117">
        <ele>554.23500000000001</ele>
        <time>2015-08-22T11:57:53Z</time>
      </trkpt>
      <trkpt lat="42.891946993768215" lon="-1.678497986868024">
        <ele>553.899</ele>
        <time>2015-08-22T11:57:55Z</time>
      </trkpt>
      <trkpt lat="42.891926961019635" lon="-1.678567975759506">
        <ele>553.42200000000003</ele>
        <time>2015-08-22T11:57:56Z</time>
      </trkpt>
      <trkpt lat="42.891906006261706" lon="-1.678641987964511">
        <ele>553.04499999999996</ele>
        <time>2015-08-22T11:57:57Z</time>
      </trkpt>
      <trkpt lat="42.891886979341507" lon="-1.678729997947812">
        <ele>552.69600000000003</ele>
        <time>2015-08-22T11:57:58Z</time>
      </trkpt>
      <trkpt lat="42.891868958249688" lon="-1.678822031244636">
        <ele>552.02300000000002</ele>
        <time>2015-08-22T11:57:59Z</time>
      </trkpt>
      <trkpt lat="42.891848003491759" lon="-1.678920015692711">
        <ele>551.47299999999996</ele>
        <time>2015-08-22T11:58:00Z</time>
      </trkpt>
      <trkpt lat="42.891825037077069" lon="-1.679016994312406">
        <ele>550.88499999999999</ele>
        <time>2015-08-22T11:58:01Z</time>
      </trkpt>
      <trkpt lat="42.891799975186586" lon="-1.679114978760481">
        <ele>550.21299999999997</ele>
        <time>2015-08-22T11:58:02Z</time>
      </trkpt>
      <trkpt lat="42.891772985458374" lon="-1.679217992350459">
        <ele>549.60799999999995</ele>
        <time>2015-08-22T11:58:04Z</time>
      </trkpt>
      <trkpt lat="42.891744989901781" lon="-1.679315976798534">
        <ele>549.08799999999997</ele>
        <time>2015-08-22T11:58:05Z</time>
      </trkpt>
      <trkpt lat="42.891715988516808" lon="-1.679415972903371">
        <ele>548.47699999999998</ele>
        <time>2015-08-22T11:58:06Z</time>
      </trkpt>
      <trkpt lat="42.891685981303453" lon="-1.679514041170478">
        <ele>547.66300000000001</ele>
        <time>2015-08-22T11:58:07Z</time>
      </trkpt>
      <trkpt lat="42.891655974090099" lon="-1.679609008133411">
        <ele>547.01700000000005</ele>
        <time>2015-08-22T11:58:08Z</time>
      </trkpt>
      <trkpt lat="42.891621021553874" lon="-1.679698023945093">
        <ele>547.02999999999997</ele>
        <time>2015-08-22T11:58:09Z</time>
      </trkpt>
      <trkpt lat="42.891496969386935" lon="-1.67994998395443">
        <ele>547.053</ele>
        <time>2015-08-22T11:58:12Z</time>
      </trkpt>
      <trkpt lat="42.891341987997293" lon="-1.680256007239223">
        <ele>547.09400000000005</ele>
        <time>2015-08-22T11:58:16Z</time>
      </trkpt>
      <trkpt lat="42.891302006319165" lon="-1.680332031100988">
        <ele>546.63099999999997</ele>
        <time>2015-08-22T11:58:17Z</time>
      </trkpt>
      <trkpt lat="42.891263030469418" lon="-1.680407971143723">
        <ele>546.04499999999996</ele>
        <time>2015-08-22T11:58:18Z</time>
      </trkpt>
      <trkpt lat="42.891227994114161" lon="-1.680477038025856">
        <ele>545.447</ele>
        <time>2015-08-22T11:58:19Z</time>
      </trkpt>
      <trkpt lat="42.891192035749555" lon="-1.680541997775435">
        <ele>544.81100000000004</ele>
        <time>2015-08-22T11:58:20Z</time>
      </trkpt>
      <trkpt lat="42.89116102270782" lon="-1.680604023858905">
        <ele>544.40800000000002</ele>
        <time>2015-08-22T11:58:21Z</time>
      </trkpt>
      <trkpt lat="42.891130009666085" lon="-1.680663032457233">
        <ele>543.875</ele>
        <time>2015-08-22T11:58:22Z</time>
      </trkpt>
      <trkpt lat="42.89109799079597" lon="-1.680713994428515">
        <ele>543.25400000000002</ele>
        <time>2015-08-22T11:58:23Z</time>
      </trkpt>
      <trkpt lat="42.891067983582616" lon="-1.680763028562069">
        <ele>542.65999999999997</ele>
        <time>2015-08-22T11:58:24Z</time>
      </trkpt>
      <trkpt lat="42.891035964712501" lon="-1.680812984704971">
        <ele>541.83399999999995</ele>
        <time>2015-08-22T11:58:25Z</time>
      </trkpt>
      <trkpt lat="42.891007969155908" lon="-1.680857995525003">
        <ele>541.27700000000004</ele>
        <time>2015-08-22T11:58:26Z</time>
      </trkpt>
      <trkpt lat="42.890983996912837" lon="-1.680906023830175">
        <ele>540.49000000000001</ele>
        <time>2015-08-22T11:58:27Z</time>
      </trkpt>
      <trkpt lat="42.890958013013005" lon="-1.680952040478587">
        <ele>539.89099999999996</ele>
        <time>2015-08-22T11:58:28Z</time>
      </trkpt>
      <trkpt lat="42.890850976109505" lon="-1.681136023253202">
        <ele>539.428</ele>
        <time>2015-08-22T11:58:32Z</time>
      </trkpt>
      <trkpt lat="42.89081996306777" lon="-1.681186985224485">
        <ele>538.86300000000006</ele>
        <time>2015-08-22T11:58:33Z</time>
      </trkpt>
      <trkpt lat="42.890788028016686" lon="-1.681239036843181">
        <ele>538.44399999999996</ele>
        <time>2015-08-22T11:58:34Z</time>
      </trkpt>
      <trkpt lat="42.890755003318191" lon="-1.681288992986083">
        <ele>537.21799999999996</ele>
        <time>2015-08-22T11:58:35Z</time>
      </trkpt>
      <trkpt lat="42.89068803191185" lon="-1.681386977434158">
        <ele>536.80799999999999</ele>
        <time>2015-08-22T11:58:37Z</time>
      </trkpt>
      <trkpt lat="42.890652995556593" lon="-1.681437017396092">
        <ele>536.28700000000003</ele>
        <time>2015-08-22T11:58:38Z</time>
      </trkpt>
      <trkpt lat="42.890618965029716" lon="-1.681488985195756">
        <ele>535.89599999999996</ele>
        <time>2015-08-22T11:58:39Z</time>
      </trkpt>
      <trkpt lat="42.89058200083673" lon="-1.681542964652181">
        <ele>535.072</ele>
        <time>2015-08-22T11:58:40Z</time>
      </trkpt>
      <trkpt lat="42.890545958653092" lon="-1.681597027927637">
        <ele>534.28599999999994</ele>
        <time>2015-08-22T11:58:41Z</time>
      </trkpt>
      <trkpt lat="42.890508994460106" lon="-1.681651007384062">
        <ele>533.48900000000003</ele>
        <time>2015-08-22T11:58:42Z</time>
      </trkpt>
      <trkpt lat="42.890471024438739" lon="-1.681702975183725">
        <ele>532.84199999999998</ele>
        <time>2015-08-22T11:58:43Z</time>
      </trkpt>
      <trkpt lat="42.890430958941579" lon="-1.681759972125292">
        <ele>532.28300000000002</ele>
        <time>2015-08-22T11:58:44Z</time>
      </trkpt>
      <trkpt lat="42.890390977263451" lon="-1.681817974895239">
        <ele>531.66999999999996</ele>
        <time>2015-08-22T11:58:45Z</time>
      </trkpt>
      <trkpt lat="42.890350995585322" lon="-1.681872960180044">
        <ele>531.05899999999997</ele>
        <time>2015-08-22T11:58:46Z</time>
      </trkpt>
      <trkpt lat="42.890313025563955" lon="-1.681927023455501">
        <ele>530.40300000000002</ele>
        <time>2015-08-22T11:58:47Z</time>
      </trkpt>
      <trkpt lat="42.890272960066795" lon="-1.681982008740306">
        <ele>529.82299999999998</ele>
        <time>2015-08-22T11:58:48Z</time>
      </trkpt>
      <trkpt lat="42.890235995873809" lon="-1.682036994025111">
        <ele>529.20799999999997</ele>
        <time>2015-08-22T11:58:49Z</time>
      </trkpt>
      <trkpt lat="42.890202971175313" lon="-1.6820980142802">
        <ele>528.66600000000005</ele>
        <time>2015-08-22T11:58:50Z</time>
      </trkpt>
      <trkpt lat="42.890185033902526" lon="-1.682169009000063">
        <ele>527.82500000000005</ele>
        <time>2015-08-22T11:58:51Z</time>
      </trkpt>
      <trkpt lat="42.890186039730906" lon="-1.682245032861829">
        <ele>527.28099999999995</ele>
        <time>2015-08-22T11:58:52Z</time>
      </trkpt>
      <trkpt lat="42.890200959518552" lon="-1.682324996218085">
        <ele>526.63499999999999</ele>
        <time>2015-08-22T11:58:53Z</time>
      </trkpt>
      <trkpt lat="42.890204982832074" lon="-1.682409988716245">
        <ele>525.82799999999997</ele>
        <time>2015-08-22T11:58:54Z</time>
      </trkpt>
      <trkpt lat="42.890192996710539" lon="-1.682490035891533">
        <ele>525.24099999999999</ele>
        <time>2015-08-22T11:58:55Z</time>
      </trkpt>
      <trkpt lat="42.890146980062127" lon="-1.682635964825749">
        <ele>525.23199999999997</ele>
        <time>2015-08-22T11:58:57Z</time>
      </trkpt>
      <trkpt lat="42.890104986727238" lon="-1.682766973972321">
        <ele>525.25900000000001</ele>
        <time>2015-08-22T11:58:59Z</time>
      </trkpt>
      <trkpt lat="42.890028962865472" lon="-1.682975012809038">
        <ele>525.23099999999999</ele>
        <time>2015-08-22T11:59:03Z</time>
      </trkpt>
      <trkpt lat="42.890011025592685" lon="-1.683020023629069">
        <ele>525.26099999999997</ele>
        <time>2015-08-22T11:59:04Z</time>
      </trkpt>
      <trkpt lat="42.889946987852454" lon="-1.683143991976976">
        <ele>524.80700000000002</ele>
        <time>2015-08-22T11:59:07Z</time>
      </trkpt>
      <trkpt lat="42.889922009781003" lon="-1.683181039988995">
        <ele>524.40800000000002</ele>
        <time>2015-08-22T11:59:08Z</time>
      </trkpt>
      <trkpt lat="42.889897031709552" lon="-1.683213980868459">
        <ele>524.04399999999998</ele>
        <time>2015-08-22T11:59:09Z</time>
      </trkpt>
      <trkpt lat="42.889874987304211" lon="-1.683243988081813">
        <ele>523.66300000000001</ele>
        <time>2015-08-22T11:59:10Z</time>
      </trkpt>
      <trkpt lat="42.88985101506114" lon="-1.683277012780309">
        <ele>523.24900000000002</ele>
        <time>2015-08-22T11:59:11Z</time>
      </trkpt>
      <trkpt lat="42.889782031998038" lon="-1.683357981964946">
        <ele>523.24300000000005</ele>
        <time>2015-08-22T11:59:14Z</time>
      </trkpt>
      <trkpt lat="42.889680024236441" lon="-1.683481028303504">
        <ele>523.27599999999995</ele>
        <time>2015-08-22T11:59:19Z</time>
      </trkpt>
      <trkpt lat="42.889544991776347" lon="-1.683662999421358">
        <ele>523.28899999999999</ele>
        <time>2015-08-22T11:59:26Z</time>
      </trkpt>
      <trkpt lat="42.889526970684528" lon="-1.683687977492809">
        <ele>523.23000000000002</ele>
        <time>2015-08-22T11:59:27Z</time>
      </trkpt>
      <trkpt lat="42.889453964307904" lon="-1.683789985254407">
        <ele>523.25699999999995</ele>
        <time>2015-08-22T11:59:31Z</time>
      </trkpt>
      <trkpt lat="42.889381041750312" lon="-1.683890987187624">
        <ele>523.25699999999995</ele>
        <time>2015-08-22T11:59:35Z</time>
      </trkpt>
      <trkpt lat="42.889323960989714" lon="-1.683954019099474">
        <ele>523.20000000000005</ele>
        <time>2015-08-22T11:59:39Z</time>
      </trkpt>
      <trkpt lat="42.88929495960474" lon="-1.683980002999306">
        <ele>523.22000000000003</ele>
        <time>2015-08-22T11:59:41Z</time>
      </trkpt>
      <trkpt lat="42.889239974319935" lon="-1.684040017426014">
        <ele>523.20799999999997</ele>
        <time>2015-08-22T11:59:45Z</time>
      </trkpt>
      <trkpt lat="42.8892279881984" lon="-1.684056026861072">
        <ele>523.62599999999998</ele>
        <time>2015-08-22T11:59:46Z</time>
      </trkpt>
      <trkpt lat="42.889213990420103" lon="-1.684063989669085">
        <ele>524.05499999999995</ele>
        <time>2015-08-22T11:59:47Z</time>
      </trkpt>
      <trkpt lat="42.889202004298568" lon="-1.68407597579062">
        <ele>524.62099999999998</ele>
        <time>2015-08-22T11:59:48Z</time>
      </trkpt>
      <trkpt lat="42.889188006520271" lon="-1.684085028246045">
        <ele>525.43499999999995</ele>
        <time>2015-08-22T11:59:49Z</time>
      </trkpt>
      <trkpt lat="42.88914299570024" lon="-1.684092991054058">
        <ele>526.02800000000002</ele>
        <time>2015-08-22T11:59:52Z</time>
      </trkpt>
      <trkpt lat="42.889125980436802" lon="-1.684090979397297">
        <ele>526.44100000000003</ele>
        <time>2015-08-22T11:59:53Z</time>
      </trkpt>
      <trkpt lat="42.889106031507254" lon="-1.684089973568916">
        <ele>526.81200000000001</ele>
        <time>2015-08-22T11:59:54Z</time>
      </trkpt>
      <trkpt lat="42.889085998758674" lon="-1.68409701436758">
        <ele>527.28899999999999</ele>
        <time>2015-08-22T11:59:55Z</time>
      </trkpt>
      <trkpt lat="42.889064960181713" lon="-1.684101959690452">
        <ele>527.62199999999996</ele>
        <time>2015-08-22T11:59:56Z</time>
      </trkpt>
      <trkpt lat="42.888961024582386" lon="-1.684131966903806">
        <ele>527.66200000000003</ele>
        <time>2015-08-22T12:00:01Z</time>
      </trkpt>
      <trkpt lat="42.888820040971041" lon="-1.684177983552218">
        <ele>527.60799999999995</ele>
        <time>2015-08-22T12:00:08Z</time>
      </trkpt>
      <trkpt lat="42.888656007125974" lon="-1.684215031564236">
        <ele>528.20799999999997</ele>
        <time>2015-08-22T12:00:16Z</time>
      </trkpt>
      <trkpt lat="42.888633962720633" lon="-1.684221988543868">
        <ele>528.64300000000003</ele>
        <time>2015-08-22T12:00:17Z</time>
      </trkpt>
      <trkpt lat="42.888613007962704" lon="-1.684228023514152">
        <ele>529.05200000000002</ele>
        <time>2015-08-22T12:00:18Z</time>
      </trkpt>
      <trkpt lat="42.888592975214124" lon="-1.684233974665403">
        <ele>529.41800000000001</ele>
        <time>2015-08-22T12:00:19Z</time>
      </trkpt>
      <trkpt lat="42.888572020456195" lon="-1.684236992150545">
        <ele>529.87199999999996</ele>
        <time>2015-08-22T12:00:20Z</time>
      </trkpt>
      <trkpt lat="42.888483004644513" lon="-1.684244032949209">
        <ele>529.875</ele>
        <time>2015-08-22T12:00:24Z</time>
      </trkpt>
      <trkpt lat="42.888281000778079" lon="-1.684260964393616">
        <ele>529.88800000000003</ele>
        <time>2015-08-22T12:00:32Z</time>
      </trkpt>
      <trkpt lat="42.888086037710309" lon="-1.68431100435555">
        <ele>529.81899999999996</ele>
        <time>2015-08-22T12:00:40Z</time>
      </trkpt>
      <trkpt lat="42.887988975271583" lon="-1.684337994083762">
        <ele>530.28599999999994</ele>
        <time>2015-08-22T12:00:44Z</time>
      </trkpt>
      <trkpt lat="42.887967014685273" lon="-1.684342017397285">
        <ele>530.65800000000002</ele>
        <time>2015-08-22T12:00:45Z</time>
      </trkpt>
      <trkpt lat="42.887943964451551" lon="-1.684344029054046">
        <ele>531.05200000000002</ele>
        <time>2015-08-22T12:00:46Z</time>
      </trkpt>
      <trkpt lat="42.88791798055172" lon="-1.684342017397285">
        <ele>531.41700000000003</ele>
        <time>2015-08-22T12:00:47Z</time>
      </trkpt>
      <trkpt lat="42.887891996651888" lon="-1.684343023225665">
        <ele>531.80799999999999</ele>
        <time>2015-08-22T12:00:48Z</time>
      </trkpt>
      <trkpt lat="42.887741960585117" lon="-1.684341011568904">
        <ele>531.82600000000002</ele>
        <time>2015-08-22T12:00:53Z</time>
      </trkpt>
      <trkpt lat="42.887712959200144" lon="-1.684340005740523">
        <ele>531.85500000000002</ele>
        <time>2015-08-22T12:00:54Z</time>
      </trkpt>
      <trkpt lat="42.887641964480281" lon="-1.68433397077024">
        <ele>531.46100000000001</ele>
        <time>2015-08-22T12:00:56Z</time>
      </trkpt>
      <trkpt lat="42.887599971145391" lon="-1.68433103710413">
        <ele>531.09500000000003</ele>
        <time>2015-08-22T12:00:57Z</time>
      </trkpt>
      <trkpt lat="42.88755496032536" lon="-1.684323996305466">
        <ele>530.69799999999998</ele>
        <time>2015-08-22T12:00:58Z</time>
      </trkpt>
      <trkpt lat="42.887505004182458" lon="-1.684319972991943">
        <ele>530.24099999999999</ele>
        <time>2015-08-22T12:00:59Z</time>
      </trkpt>
      <trkpt lat="42.887455970048904" lon="-1.684313016012311">
        <ele>529.85199999999998</ele>
        <time>2015-08-22T12:01:00Z</time>
      </trkpt>
      <trkpt lat="42.887409031391144" lon="-1.684301029890776">
        <ele>529.43899999999996</ele>
        <time>2015-08-22T12:01:01Z</time>
      </trkpt>
      <trkpt lat="42.88735999725759" lon="-1.684289965778589">
        <ele>529.02599999999995</ele>
        <time>2015-08-22T12:01:02Z</time>
      </trkpt>
      <trkpt lat="42.887313980609179" lon="-1.684275968000293">
        <ele>528.24699999999996</ele>
        <time>2015-08-22T12:01:03Z</time>
      </trkpt>
      <trkpt lat="42.887269975617528" lon="-1.684266999363899">
        <ele>527.61099999999999</ele>
        <time>2015-08-22T12:01:04Z</time>
      </trkpt>
      <trkpt lat="42.887224964797497" lon="-1.684265993535519">
        <ele>527.00800000000004</ele>
        <time>2015-08-22T12:01:05Z</time>
      </trkpt>
      <trkpt lat="42.887178026139736" lon="-1.684263981878758">
        <ele>526.48299999999995</ele>
        <time>2015-08-22T12:01:06Z</time>
      </trkpt>
      <trkpt lat="42.88712496869266" lon="-1.684265993535519">
        <ele>525.85199999999998</ele>
        <time>2015-08-22T12:01:07Z</time>
      </trkpt>
      <trkpt lat="42.887069983407855" lon="-1.684271022677422">
        <ele>525.298</ele>
        <time>2015-08-22T12:01:08Z</time>
      </trkpt>
      <trkpt lat="42.886964958161116" lon="-1.684278985485435">
        <ele>525.26199999999994</ele>
        <time>2015-08-22T12:01:10Z</time>
      </trkpt>
      <trkpt lat="42.886912990361452" lon="-1.684275968000293">
        <ele>524.84500000000003</ele>
        <time>2015-08-22T12:01:11Z</time>
      </trkpt>
      <trkpt lat="42.886862028390169" lon="-1.684272028505802">
        <ele>524.47799999999995</ele>
        <time>2015-08-22T12:01:12Z</time>
      </trkpt>
      <trkpt lat="42.886815005913377" lon="-1.68426800519228">
        <ele>523.88900000000001</ele>
        <time>2015-08-22T12:01:13Z</time>
      </trkpt>
      <trkpt lat="42.886772006750107" lon="-1.684271022677422">
        <ele>523.07600000000002</ele>
        <time>2015-08-22T12:01:14Z</time>
      </trkpt>
      <trkpt lat="42.886729007586837" lon="-1.684270016849041">
        <ele>522.41600000000005</ele>
        <time>2015-08-22T12:01:15Z</time>
      </trkpt>
      <trkpt lat="42.886692965403199" lon="-1.68426901102066">
        <ele>521.87599999999998</ele>
        <time>2015-08-22T12:01:16Z</time>
      </trkpt>
      <trkpt lat="42.886659018695354" lon="-1.684273034334183">
        <ele>521.01300000000003</ele>
        <time>2015-08-22T12:01:17Z</time>
      </trkpt>
      <trkpt lat="42.886530021205544" lon="-1.684285020455718">
        <ele>520.60799999999995</ele>
        <time>2015-08-22T12:01:21Z</time>
      </trkpt>
      <trkpt lat="42.886488027870655" lon="-1.68429097160697">
        <ele>520.27200000000005</ele>
        <time>2015-08-22T12:01:22Z</time>
      </trkpt>
      <trkpt lat="42.886442011222243" lon="-1.684298012405634">
        <ele>519.67100000000005</ele>
        <time>2015-08-22T12:01:23Z</time>
      </trkpt>
      <trkpt lat="42.88639297708869" lon="-1.684308992698789">
        <ele>519.25699999999995</ele>
        <time>2015-08-22T12:01:24Z</time>
      </trkpt>
      <trkpt lat="42.886340003460646" lon="-1.684328019618988">
        <ele>518.83100000000002</ele>
        <time>2015-08-22T12:01:25Z</time>
      </trkpt>
      <trkpt lat="42.886290969327092" lon="-1.684346962720156">
        <ele>518.21400000000006</ele>
        <time>2015-08-22T12:01:26Z</time>
      </trkpt>
      <trkpt lat="42.886239001527429" lon="-1.684365989640355">
        <ele>517.86699999999996</ele>
        <time>2015-08-22T12:01:27Z</time>
      </trkpt>
      <trkpt lat="42.886184016242623" lon="-1.684384010732174">
        <ele>516.65800000000002</ele>
        <time>2015-08-22T12:01:28Z</time>
      </trkpt>
      <trkpt lat="42.886130036786199" lon="-1.684395996853709">
        <ele>516.23500000000001</ele>
        <time>2015-08-22T12:01:29Z</time>
      </trkpt>
      <trkpt lat="42.886079996824265" lon="-1.684384010732174">
        <ele>515.63900000000001</ele>
        <time>2015-08-22T12:01:30Z</time>
      </trkpt>
      <trkpt lat="42.886033980175853" lon="-1.684363977983594">
        <ele>515.00099999999998</ele>
        <time>2015-08-22T12:01:31Z</time>
      </trkpt>
      <trkpt lat="42.885987041518092" lon="-1.684342017397285">
        <ele>514.42100000000005</ele>
        <time>2015-08-22T12:01:32Z</time>
      </trkpt>
      <trkpt lat="42.885939013212919" lon="-1.684320978820324">
        <ele>514.00800000000004</ele>
        <time>2015-08-22T12:01:33Z</time>
      </trkpt>
      <trkpt lat="42.885729968547821" lon="-1.684231963008642">
        <ele>513.45399999999995</ele>
        <time>2015-08-22T12:01:37Z</time>
      </trkpt>
      <trkpt lat="42.885676994919777" lon="-1.68420497328043">
        <ele>513.06299999999999</ele>
        <time>2015-08-22T12:01:38Z</time>
      </trkpt>
      <trkpt lat="42.885625027120113" lon="-1.684181001037359">
        <ele>512.68899999999996</ele>
        <time>2015-08-22T12:01:39Z</time>
      </trkpt>
      <trkpt lat="42.885571969673038" lon="-1.684158034622669">
        <ele>512.21299999999997</ele>
        <time>2015-08-22T12:01:40Z</time>
      </trkpt>
      <trkpt lat="42.885520001873374" lon="-1.68414001353085">
        <ele>511.83600000000001</ele>
        <time>2015-08-22T12:01:41Z</time>
      </trkpt>
      <trkpt lat="42.885282039642334" lon="-1.684082010760903">
        <ele>511.84899999999999</ele>
        <time>2015-08-22T12:01:46Z</time>
      </trkpt>
      <trkpt lat="42.885240968316793" lon="-1.684082010760903">
        <ele>511.45999999999998</ele>
        <time>2015-08-22T12:01:47Z</time>
      </trkpt>
      <trkpt lat="42.885205009952188" lon="-1.684087039902806">
        <ele>511.08699999999999</ele>
        <time>2015-08-22T12:01:48Z</time>
      </trkpt>
      <trkpt lat="42.885177014395595" lon="-1.684088967740536">
        <ele>510.68099999999998</ele>
        <time>2015-08-22T12:01:49Z</time>
      </trkpt>
      <trkpt lat="42.885152036324143" lon="-1.684092991054058">
        <ele>510.06099999999998</ele>
        <time>2015-08-22T12:01:50Z</time>
      </trkpt>
      <trkpt lat="42.885124962776899" lon="-1.684089973568916">
        <ele>509.61700000000002</ele>
        <time>2015-08-22T12:01:51Z</time>
      </trkpt>
      <trkpt lat="42.885098978877068" lon="-1.684088967740536">
        <ele>509.20800000000003</ele>
        <time>2015-08-22T12:01:52Z</time>
      </trkpt>
      <trkpt lat="42.885071989148855" lon="-1.684088967740536">
        <ele>508.88900000000001</ele>
        <time>2015-08-22T12:01:53Z</time>
      </trkpt>
      <trkpt lat="42.885038964450359" lon="-1.684085028246045">
        <ele>508.428</ele>
        <time>2015-08-22T12:01:54Z</time>
      </trkpt>
      <trkpt lat="42.885010968893766" lon="-1.684071030467749">
        <ele>508.07400000000001</ele>
        <time>2015-08-22T12:01:55Z</time>
      </trkpt>
      <trkpt lat="42.884986996650696" lon="-1.684044962748885">
        <ele>507.45800000000003</ele>
        <time>2015-08-22T12:01:56Z</time>
      </trkpt>
      <trkpt lat="42.884962018579245" lon="-1.684015961363912">
        <ele>506.88099999999997</ele>
        <time>2015-08-22T12:01:57Z</time>
      </trkpt>
      <trkpt lat="42.884939974173903" lon="-1.683984026312828">
        <ele>506.22399999999999</ele>
        <time>2015-08-22T12:01:58Z</time>
      </trkpt>
      <trkpt lat="42.884920025244355" lon="-1.68394798412919">
        <ele>505.63499999999999</ele>
        <time>2015-08-22T12:01:59Z</time>
      </trkpt>
      <trkpt lat="42.884889012202621" lon="-1.683922000229359">
        <ele>505.05200000000002</ele>
        <time>2015-08-22T12:02:00Z</time>
      </trkpt>
      <trkpt lat="42.884819023311138" lon="-1.683900039643049">
        <ele>505.05099999999999</ele>
        <time>2015-08-22T12:02:02Z</time>
      </trkpt>
      <trkpt lat="42.884710980579257" lon="-1.683934992179275">
        <ele>504.601</ele>
        <time>2015-08-22T12:02:05Z</time>
      </trkpt>
      <trkpt lat="42.884644009172916" lon="-1.683960976079106">
        <ele>503.81099999999998</ele>
        <time>2015-08-22T12:02:06Z</time>
      </trkpt>
      <trkpt lat="42.88460997864604" lon="-1.683976985514164">
        <ele>503.20800000000003</ele>
        <time>2015-08-22T12:02:08Z</time>
      </trkpt>
      <trkpt lat="42.884576031938195" lon="-1.68399098329246">
        <ele>502.81599999999997</ele>
        <time>2015-08-22T12:02:09Z</time>
      </trkpt>
      <trkpt lat="42.884434964507818" lon="-1.684039011597633">
        <ele>502.83499999999998</ele>
        <time>2015-08-22T12:02:13Z</time>
      </trkpt>
      <trkpt lat="42.884232960641384" lon="-1.684131966903806">
        <ele>502.471</ele>
        <time>2015-08-22T12:02:19Z</time>
      </trkpt>
      <trkpt lat="42.884195996448398" lon="-1.684145964682102">
        <ele>502.02499999999998</ele>
        <time>2015-08-22T12:02:20Z</time>
      </trkpt>
      <trkpt lat="42.884160960093141" lon="-1.684160968288779">
        <ele>501.65800000000002</ele>
        <time>2015-08-22T12:02:21Z</time>
      </trkpt>
      <trkpt lat="42.884123995900154" lon="-1.684174966067076">
        <ele>501.26100000000002</ele>
        <time>2015-08-22T12:02:22Z</time>
      </trkpt>
      <trkpt lat="42.884087031707168" lon="-1.684192987158895">
        <ele>500.87200000000001</ele>
        <time>2015-08-22T12:02:23Z</time>
      </trkpt>
      <trkpt lat="42.883893996477127" lon="-1.684274962171912">
        <ele>500.85899999999998</ele>
        <time>2015-08-22T12:02:28Z</time>
      </trkpt>
      <trkpt lat="42.883612029254436" lon="-1.684405971318483">
        <ele>500.47800000000001</ele>
        <time>2015-08-22T12:02:35Z</time>
      </trkpt>
      <trkpt lat="42.883572969585657" lon="-1.684427009895444">
        <ele>500.03300000000002</ele>
        <time>2015-08-22T12:02:36Z</time>
      </trkpt>
      <trkpt lat="42.883533993735909" lon="-1.684442013502121">
        <ele>499.42599999999999</ele>
        <time>2015-08-22T12:02:37Z</time>
      </trkpt>
      <trkpt lat="42.883494012057781" lon="-1.684455005452037">
        <ele>499.00799999999998</ele>
        <time>2015-08-22T12:02:38Z</time>
      </trkpt>
      <trkpt lat="42.883451012894511" lon="-1.68446296826005">
        <ele>498.61799999999999</ele>
        <time>2015-08-22T12:02:39Z</time>
      </trkpt>
      <trkpt lat="42.883324027061462" lon="-1.684486018493772">
        <ele>498.68700000000001</ele>
        <time>2015-08-22T12:02:42Z</time>
      </trkpt>
      <trkpt lat="42.883042981848121" lon="-1.684520971029997">
        <ele>498.29300000000001</ele>
        <time>2015-08-22T12:02:49Z</time>
      </trkpt>
      <trkpt lat="42.883005011826754" lon="-1.684533040970564">
        <ele>497.84699999999998</ele>
        <time>2015-08-22T12:02:50Z</time>
      </trkpt>
      <trkpt lat="42.882963018491864" lon="-1.684543015435338">
        <ele>497.47000000000003</ele>
        <time>2015-08-22T12:02:51Z</time>
      </trkpt>
      <trkpt lat="42.882924964651465" lon="-1.684552989900112">
        <ele>496.87299999999999</ele>
        <time>2015-08-22T12:02:52Z</time>
      </trkpt>
      <trkpt lat="42.882888000458479" lon="-1.684561958536506">
        <ele>496.41399999999999</ele>
        <time>2015-08-22T12:02:53Z</time>
      </trkpt>
      <trkpt lat="42.882703011855483" lon="-1.684600012376905">
        <ele>496.48099999999999</ele>
        <time>2015-08-22T12:02:58Z</time>
      </trkpt>
      <trkpt lat="42.882433030754328" lon="-1.684623984619975">
        <ele>496.41500000000002</ele>
        <time>2015-08-22T12:03:05Z</time>
      </trkpt>
      <trkpt lat="42.882271008566022" lon="-1.684637982398272">
        <ele>496.065</ele>
        <time>2015-08-22T12:03:09Z</time>
      </trkpt>
      <trkpt lat="42.882231026887894" lon="-1.684643011540175">
        <ele>495.61099999999999</ele>
        <time>2015-08-22T12:03:10Z</time>
      </trkpt>
      <trkpt lat="42.882189033553004" lon="-1.684647034853697">
        <ele>495.20800000000003</ele>
        <time>2015-08-22T12:03:11Z</time>
      </trkpt>
      <trkpt lat="42.882148968055844" lon="-1.684648040682077">
        <ele>494.87200000000001</ele>
        <time>2015-08-22T12:03:12Z</time>
      </trkpt>
      <trkpt lat="42.882106974720955" lon="-1.684649968519807">
        <ele>494.44099999999997</ele>
        <time>2015-08-22T12:03:13Z</time>
      </trkpt>
      <trkpt lat="42.881807992234826" lon="-1.684662960469723">
        <ele>494.41699999999997</ele>
        <time>2015-08-22T12:03:21Z</time>
      </trkpt>
      <trkpt lat="42.881658039987087" lon="-1.684652986004949">
        <ele>494.041</ele>
        <time>2015-08-22T12:03:25Z</time>
      </trkpt>
      <trkpt lat="42.881620991975069" lon="-1.684652986004949">
        <ele>493.61399999999998</ele>
        <time>2015-08-22T12:03:26Z</time>
      </trkpt>
      <trkpt lat="42.881582016125321" lon="-1.684645023196936">
        <ele>493.27699999999999</ele>
        <time>2015-08-22T12:03:27Z</time>
      </trkpt>
      <trkpt lat="42.881543962284923" lon="-1.684642005711794">
        <ele>492.88799999999998</ele>
        <time>2015-08-22T12:03:28Z</time>
      </trkpt>
      <trkpt lat="42.881501968950033" lon="-1.684637982398272">
        <ele>492.44499999999999</ele>
        <time>2015-08-22T12:03:29Z</time>
      </trkpt>
      <trkpt lat="42.881288984790444" lon="-1.684664972126484">
        <ele>492.44900000000001</ele>
        <time>2015-08-22T12:03:35Z</time>
      </trkpt>
      <trkpt lat="42.88121203891933" lon="-1.684681987389922">
        <ele>492.40199999999999</ele>
        <time>2015-08-22T12:03:37Z</time>
      </trkpt>
      <trkpt lat="42.881124028936028" lon="-1.684686010703445">
        <ele>492.42200000000003</ele>
        <time>2015-08-22T12:03:39Z</time>
      </trkpt>
      <trkpt lat="42.880976004526019" lon="-1.684703025966883">
        <ele>492.00799999999998</ele>
        <time>2015-08-22T12:03:42Z</time>
      </trkpt>
      <trkpt lat="42.880924036726356" lon="-1.684707971289754">
        <ele>491.66500000000002</ele>
        <time>2015-08-22T12:03:43Z</time>
      </trkpt>
      <trkpt lat="42.880872990936041" lon="-1.684710988774896">
        <ele>491.23399999999998</ele>
        <time>2015-08-22T12:03:44Z</time>
      </trkpt>
      <trkpt lat="42.880826974287629" lon="-1.684720041230321">
        <ele>490.62</ele>
        <time>2015-08-22T12:03:45Z</time>
      </trkpt>
      <trkpt lat="42.88078498095274" lon="-1.684724986553192">
        <ele>490.23399999999998</ele>
        <time>2015-08-22T12:03:46Z</time>
      </trkpt>
      <trkpt lat="42.880671992897987" lon="-1.684745019301772">
        <ele>489.887</ele>
        <time>2015-08-22T12:03:49Z</time>
      </trkpt>
      <trkpt lat="42.880637040361762" lon="-1.684748958796263">
        <ele>489.42000000000002</ele>
        <time>2015-08-22T12:03:50Z</time>
      </trkpt>
      <trkpt lat="42.880600998178124" lon="-1.684755999594927">
        <ele>489.06099999999998</ele>
        <time>2015-08-22T12:03:51Z</time>
      </trkpt>
      <trkpt lat="42.880563028156757" lon="-1.684767985716462">
        <ele>488.66800000000001</ele>
        <time>2015-08-22T12:03:52Z</time>
      </trkpt>
      <trkpt lat="42.880522962659597" lon="-1.684779971837997">
        <ele>488.03199999999998</ele>
        <time>2015-08-22T12:03:53Z</time>
      </trkpt>
      <trkpt lat="42.880320958793163" lon="-1.684878962114453">
        <ele>488.09199999999998</ele>
        <time>2015-08-22T12:03:59Z</time>
      </trkpt>
      <trkpt lat="42.88018299266696" lon="-1.68489002622664">
        <ele>488.01100000000002</ele>
        <time>2015-08-22T12:04:03Z</time>
      </trkpt>
      <trkpt lat="42.879944024607539" lon="-1.684967977926135">
        <ele>488.00799999999998</ele>
        <time>2015-08-22T12:04:09Z</time>
      </trkpt>
      <trkpt lat="42.879653004929423" lon="-1.685046013444662">
        <ele>488.09399999999999</ele>
        <time>2015-08-22T12:04:16Z</time>
      </trkpt>
      <trkpt lat="42.879308005794883" lon="-1.685136035084724">
        <ele>488.07299999999998</ele>
        <time>2015-08-22T12:04:24Z</time>
      </trkpt>
      <trkpt lat="42.879043975844979" lon="-1.685215998440981">
        <ele>487.649</ele>
        <time>2015-08-22T12:04:31Z</time>
      </trkpt>
      <trkpt lat="42.879012040793896" lon="-1.685227984562516">
        <ele>487.28300000000002</ele>
        <time>2015-08-22T12:04:32Z</time>
      </trkpt>
      <trkpt lat="42.878981027752161" lon="-1.685240976512432">
        <ele>486.846</ele>
        <time>2015-08-22T12:04:33Z</time>
      </trkpt>
      <trkpt lat="42.878951020538807" lon="-1.685252962633967">
        <ele>486.41899999999998</ele>
        <time>2015-08-22T12:04:34Z</time>
      </trkpt>
      <trkpt lat="42.878921013325453" lon="-1.685268972069025">
        <ele>486.02999999999997</ele>
        <time>2015-08-22T12:04:35Z</time>
      </trkpt>
      <trkpt lat="42.878799978643656" lon="-1.685304008424282">
        <ele>486.02699999999999</ele>
        <time>2015-08-22T12:04:39Z</time>
      </trkpt>
      <trkpt lat="42.878691013902426" lon="-1.685315994545817">
        <ele>486.01900000000001</ele>
        <time>2015-08-22T12:04:43Z</time>
      </trkpt>
      <trkpt lat="42.878668969497085" lon="-1.68529998511076">
        <ele>486.00900000000001</ele>
        <time>2015-08-22T12:04:44Z</time>
      </trkpt>
      <trkpt lat="42.878610966727138" lon="-1.685209041461349">
        <ele>486.01900000000001</ele>
        <time>2015-08-22T12:04:47Z</time>
      </trkpt>
      <trkpt lat="42.878619013354182" lon="-1.685119019821286">
        <ele>485.608</ele>
        <time>2015-08-22T12:04:49Z</time>
      </trkpt>
      <trkpt lat="42.878640973940492" lon="-1.685082977637649">
        <ele>485.23200000000003</ele>
        <time>2015-08-22T12:04:50Z</time>
      </trkpt>
      <trkpt lat="42.878666035830975" lon="-1.685052970424295">
        <ele>484.63099999999997</ele>
        <time>2015-08-22T12:04:51Z</time>
      </trkpt>
      <trkpt lat="42.878694031387568" lon="-1.685025980696082">
        <ele>484.21699999999998</ele>
        <time>2015-08-22T12:04:52Z</time>
      </trkpt>
      <trkpt lat="42.878724960610271" lon="-1.684996979311109">
        <ele>483.88099999999997</ele>
        <time>2015-08-22T12:04:53Z</time>
      </trkpt>
      <trkpt lat="42.878811964765191" lon="-1.684830011799932">
        <ele>483.86399999999998</ele>
        <time>2015-08-22T12:04:57Z</time>
      </trkpt>
      <trkpt lat="42.878824034705758" lon="-1.684781983494759">
        <ele>483.87700000000001</ele>
        <time>2015-08-22T12:04:58Z</time>
      </trkpt>
      <trkpt lat="42.878853036090732" lon="-1.684640999883413">
        <ele>483.81799999999998</ele>
        <time>2015-08-22T12:05:01Z</time>
      </trkpt>
      <trkpt lat="42.878882037475705" lon="-1.684508984908462">
        <ele>483.86500000000001</ele>
        <time>2015-08-22T12:05:04Z</time>
      </trkpt>
      <trkpt lat="42.878925958648324" lon="-1.684266999363899">
        <ele>483.89499999999998</ele>
        <time>2015-08-22T12:05:10Z</time>
      </trkpt>
      <trkpt lat="42.878931993618608" lon="-1.684240009635687">
        <ele>484.649</ele>
        <time>2015-08-22T12:05:11Z</time>
      </trkpt>
      <trkpt lat="42.878938028588891" lon="-1.684208996593952">
        <ele>485.02300000000002</ele>
        <time>2015-08-22T12:05:12Z</time>
      </trkpt>
      <trkpt lat="42.878944985568523" lon="-1.684171026572585">
        <ele>485.40800000000002</ele>
        <time>2015-08-22T12:05:13Z</time>
      </trkpt>
      <trkpt lat="42.878954038023949" lon="-1.684133978560567">
        <ele>485.82999999999998</ele>
        <time>2015-08-22T12:05:14Z</time>
      </trkpt>
      <trkpt lat="42.878969963639975" lon="-1.684069018810988">
        <ele>485.82900000000001</ele>
        <time>2015-08-22T12:05:16Z</time>
      </trkpt>
      <trkpt lat="42.878999970853329" lon="-1.683886041864753">
        <ele>486.28500000000003</ele>
        <time>2015-08-22T12:05:21Z</time>
      </trkpt>
      <trkpt lat="42.879008017480373" lon="-1.683851005509496">
        <ele>486.649</ele>
        <time>2015-08-22T12:05:22Z</time>
      </trkpt>
      <trkpt lat="42.879013968631625" lon="-1.683816974982619">
        <ele>487.05200000000002</ele>
        <time>2015-08-22T12:05:23Z</time>
      </trkpt>
      <trkpt lat="42.879020003601909" lon="-1.683785039931536">
        <ele>487.44499999999999</ele>
        <time>2015-08-22T12:05:24Z</time>
      </trkpt>
      <trkpt lat="42.879025032743812" lon="-1.683755032718182">
        <ele>487.88600000000002</ele>
        <time>2015-08-22T12:05:25Z</time>
      </trkpt>
      <trkpt lat="42.879047999158502" lon="-1.683626035228372">
        <ele>487.84300000000002</ele>
        <time>2015-08-22T12:05:29Z</time>
      </trkpt>
      <trkpt lat="42.879056967794895" lon="-1.683555040508509">
        <ele>488.28800000000001</ele>
        <time>2015-08-22T12:05:31Z</time>
      </trkpt>
      <trkpt lat="42.879064008593559" lon="-1.683524027466774">
        <ele>488.82400000000001</ele>
        <time>2015-08-22T12:05:32Z</time>
      </trkpt>
      <trkpt lat="42.879069037735462" lon="-1.683491002768278">
        <ele>489.226</ele>
        <time>2015-08-22T12:05:33Z</time>
      </trkpt>
      <trkpt lat="42.879074988886714" lon="-1.683458983898163">
        <ele>489.608</ele>
        <time>2015-08-22T12:05:34Z</time>
      </trkpt>
      <trkpt lat="42.879085969179869" lon="-1.683425959199667">
        <ele>490.089</ele>
        <time>2015-08-22T12:05:35Z</time>
      </trkpt>
      <trkpt lat="42.879107007756829" lon="-1.683320011943579">
        <ele>490.08800000000002</ele>
        <time>2015-08-22T12:05:38Z</time>
      </trkpt>
      <trkpt lat="42.879117988049984" lon="-1.683252034708858">
        <ele>490.024</ele>
        <time>2015-08-22T12:05:40Z</time>
      </trkpt>
      <trkpt lat="42.879124023020267" lon="-1.683212975040078">
        <ele>490.66800000000001</ele>
        <time>2015-08-22T12:05:41Z</time>
      </trkpt>
      <trkpt lat="42.8791309799999" lon="-1.683181039988995">
        <ele>491.041</ele>
        <time>2015-08-22T12:05:42Z</time>
      </trkpt>
      <trkpt lat="42.879138020798564" lon="-1.683146003633738">
        <ele>491.66399999999999</ele>
        <time>2015-08-22T12:05:43Z</time>
      </trkpt>
      <trkpt lat="42.879138020798564" lon="-1.683108033612371">
        <ele>492.08499999999998</ele>
        <time>2015-08-22T12:05:44Z</time>
      </trkpt>
      <trkpt lat="42.879142966121435" lon="-1.683070985600352">
        <ele>492.61200000000002</ele>
        <time>2015-08-22T12:05:45Z</time>
      </trkpt>
      <trkpt lat="42.879150006920099" lon="-1.682999990880489">
        <ele>492.61799999999999</ele>
        <time>2015-08-22T12:05:47Z</time>
      </trkpt>
      <trkpt lat="42.879165010526776" lon="-1.682864036411047">
        <ele>493.09800000000001</ele>
        <time>2015-08-22T12:05:51Z</time>
      </trkpt>
      <trkpt lat="42.879168028011918" lon="-1.682833023369312">
        <ele>493.41699999999997</ele>
        <time>2015-08-22T12:05:52Z</time>
      </trkpt>
      <trkpt lat="42.879170961678028" lon="-1.682802010327578">
        <ele>493.80799999999999</ele>
        <time>2015-08-22T12:05:53Z</time>
      </trkpt>
      <trkpt lat="42.879172973334789" lon="-1.682770997285843">
        <ele>494.27199999999999</ele>
        <time>2015-08-22T12:05:54Z</time>
      </trkpt>
      <trkpt lat="42.87917498499155" lon="-1.682739984244108">
        <ele>494.661</ele>
        <time>2015-08-22T12:05:55Z</time>
      </trkpt>
      <trkpt lat="42.879179008305073" lon="-1.682703020051122">
        <ele>494.64699999999999</ele>
        <time>2015-08-22T12:05:56Z</time>
      </trkpt>
      <trkpt lat="42.879187976941466" lon="-1.682486012578011">
        <ele>494.63099999999997</ele>
        <time>2015-08-22T12:06:03Z</time>
      </trkpt>
      <trkpt lat="42.879188982769847" lon="-1.682297000661492">
        <ele>495.25400000000002</ele>
        <time>2015-08-22T12:06:09Z</time>
      </trkpt>
      <trkpt lat="42.879192000254989" lon="-1.682261964306235">
        <ele>495.64699999999999</ele>
        <time>2015-08-22T12:06:10Z</time>
      </trkpt>
      <trkpt lat="42.87919501774013" lon="-1.68222701177001">
        <ele>496.06799999999998</ele>
        <time>2015-08-22T12:06:11Z</time>
      </trkpt>
      <trkpt lat="42.879199041053653" lon="-1.682193987071514">
        <ele>496.42500000000001</ele>
        <time>2015-08-22T12:06:12Z</time>
      </trkpt>
      <trkpt lat="42.879203986376524" lon="-1.682160962373018">
        <ele>496.815</ele>
        <time>2015-08-22T12:06:13Z</time>
      </trkpt>
      <trkpt lat="42.879213960841298" lon="-1.681997012346983">
        <ele>496.86500000000001</ele>
        <time>2015-08-22T12:06:18Z</time>
      </trkpt>
      <trkpt lat="42.879212033003569" lon="-1.681963987648487">
        <ele>497.411</ele>
        <time>2015-08-22T12:06:19Z</time>
      </trkpt>
      <trkpt lat="42.879213038831949" lon="-1.681933980435133">
        <ele>497.80799999999999</ele>
        <time>2015-08-22T12:06:20Z</time>
      </trkpt>
      <trkpt lat="42.879212033003569" lon="-1.681901039555669">
        <ele>498.22199999999998</ele>
        <time>2015-08-22T12:06:21Z</time>
      </trkpt>
      <trkpt lat="42.879215972498059" lon="-1.681869020685554">
        <ele>498.62099999999998</ele>
        <time>2015-08-22T12:06:22Z</time>
      </trkpt>
      <trkpt lat="42.879215972498059" lon="-1.681829961016774">
        <ele>499.08699999999999</ele>
        <time>2015-08-22T12:06:23Z</time>
      </trkpt>
      <trkpt lat="42.87921697832644" lon="-1.681766007095575">
        <ele>499.08100000000002</ele>
        <time>2015-08-22T12:06:25Z</time>
      </trkpt>
      <trkpt lat="42.879223013296723" lon="-1.68166701681912">
        <ele>499.68400000000003</ele>
        <time>2015-08-22T12:06:28Z</time>
      </trkpt>
      <trkpt lat="42.879224019125104" lon="-1.681633992120624">
        <ele>500.06700000000001</ele>
        <time>2015-08-22T12:06:29Z</time>
      </trkpt>
      <trkpt lat="42.879225024953485" lon="-1.681599039584398">
        <ele>500.488</ele>
        <time>2015-08-22T12:06:30Z</time>
      </trkpt>
      <trkpt lat="42.879225024953485" lon="-1.68156199157238">
        <ele>500.875</ele>
        <time>2015-08-22T12:06:31Z</time>
      </trkpt>
      <trkpt lat="42.879230976104736" lon="-1.681527961045504">
        <ele>501.25299999999999</ele>
        <time>2015-08-22T12:06:32Z</time>
      </trkpt>
      <trkpt lat="42.8792380169034" lon="-1.681494014337659">
        <ele>501.20400000000001</ele>
        <time>2015-08-22T12:06:33Z</time>
      </trkpt>
      <trkpt lat="42.879244973883033" lon="-1.681329980492592">
        <ele>501.61399999999998</ele>
        <time>2015-08-22T12:06:38Z</time>
      </trkpt>
      <trkpt lat="42.879246985539794" lon="-1.681297039613128">
        <ele>502.00799999999998</ele>
        <time>2015-08-22T12:06:39Z</time>
      </trkpt>
      <trkpt lat="42.879250003024936" lon="-1.681262003257871">
        <ele>502.49599999999998</ele>
        <time>2015-08-22T12:06:40Z</time>
      </trkpt>
      <trkpt lat="42.879255032166839" lon="-1.681226966902614">
        <ele>502.88499999999999</ele>
        <time>2015-08-22T12:06:41Z</time>
      </trkpt>
      <trkpt lat="42.879257965832949" lon="-1.681191008538008">
        <ele>503.221</ele>
        <time>2015-08-22T12:06:42Z</time>
      </trkpt>
      <trkpt lat="42.879275986924767" lon="-1.680985987186432">
        <ele>503.65499999999997</ele>
        <time>2015-08-22T12:06:48Z</time>
      </trkpt>
      <trkpt lat="42.87928001023829" lon="-1.680954974144697">
        <ele>504.048</ele>
        <time>2015-08-22T12:06:49Z</time>
      </trkpt>
      <trkpt lat="42.879284033551812" lon="-1.680920021608472">
        <ele>504.89100000000002</ele>
        <time>2015-08-22T12:06:50Z</time>
      </trkpt>
      <trkpt lat="42.879288978874683" lon="-1.680883979424834">
        <ele>505.21199999999999</ele>
        <time>2015-08-22T12:06:51Z</time>
      </trkpt>
      <trkpt lat="42.879299959167838" lon="-1.680715000256896">
        <ele>505.24900000000002</ele>
        <time>2015-08-22T12:06:56Z</time>
      </trkpt>
      <trkpt lat="42.879308005794883" lon="-1.680575022473931">
        <ele>505.65699999999998</ele>
        <time>2015-08-22T12:07:00Z</time>
      </trkpt>
      <trkpt lat="42.879313034936786" lon="-1.680539986118674">
        <ele>506.19999999999999</ele>
        <time>2015-08-22T12:07:01Z</time>
      </trkpt>
      <trkpt lat="42.879317980259657" lon="-1.680502016097307">
        <ele>506.62</ele>
        <time>2015-08-22T12:07:02Z</time>
      </trkpt>
      <trkpt lat="42.879325021058321" lon="-1.680463962256908">
        <ele>507.00799999999998</ele>
        <time>2015-08-22T12:07:03Z</time>
      </trkpt>
      <trkpt lat="42.879328960552812" lon="-1.680424986407161">
        <ele>507.49599999999998</ele>
        <time>2015-08-22T12:07:04Z</time>
      </trkpt>
      <trkpt lat="42.879331978037953" lon="-1.680387016385794">
        <ele>507.435</ele>
        <time>2015-08-22T12:07:05Z</time>
      </trkpt>
      <trkpt lat="42.879348993301392" lon="-1.680128015577793">
        <ele>507.86099999999999</ele>
        <time>2015-08-22T12:07:12Z</time>
      </trkpt>
      <trkpt lat="42.879353016614914" lon="-1.680090967565775">
        <ele>508.245</ele>
        <time>2015-08-22T12:07:13Z</time>
      </trkpt>
      <trkpt lat="42.879356034100056" lon="-1.680052997544408">
        <ele>508.64800000000002</ele>
        <time>2015-08-22T12:07:14Z</time>
      </trkpt>
      <trkpt lat="42.879360979422927" lon="-1.680016033351421">
        <ele>509.471</ele>
        <time>2015-08-22T12:07:15Z</time>
      </trkpt>
      <trkpt lat="42.879362991079688" lon="-1.679977979511023">
        <ele>509.41199999999998</ele>
        <time>2015-08-22T12:07:16Z</time>
      </trkpt>
      <trkpt lat="42.879375983029604" lon="-1.679766001179814">
        <ele>509.839</ele>
        <time>2015-08-22T12:07:22Z</time>
      </trkpt>
      <trkpt lat="42.879379000514746" lon="-1.679730964824557">
        <ele>510.255</ele>
        <time>2015-08-22T12:07:23Z</time>
      </trkpt>
      <trkpt lat="42.87938604131341" lon="-1.679696012288332">
        <ele>510.60700000000003</ele>
        <time>2015-08-22T12:07:24Z</time>
      </trkpt>
      <trkpt lat="42.879390986636281" lon="-1.679657958447933">
        <ele>511.017</ele>
        <time>2015-08-22T12:07:25Z</time>
      </trkpt>
      <trkpt lat="42.879395009949803" lon="-1.679620994254947">
        <ele>511.40800000000002</ele>
        <time>2015-08-22T12:07:26Z</time>
      </trkpt>
      <trkpt lat="42.879425017163157" lon="-1.679292004555464">
        <ele>511.87599999999998</ele>
        <time>2015-08-22T12:07:35Z</time>
      </trkpt>
      <trkpt lat="42.87942904047668" lon="-1.679255040362477">
        <ele>512.29499999999996</ele>
        <time>2015-08-22T12:07:36Z</time>
      </trkpt>
      <trkpt lat="42.879433985799551" lon="-1.679221009835601">
        <ele>512.64099999999996</ele>
        <time>2015-08-22T12:07:37Z</time>
      </trkpt>
      <trkpt lat="42.879435997456312" lon="-1.679180022329092">
        <ele>513.08500000000004</ele>
        <time>2015-08-22T12:07:38Z</time>
      </trkpt>
      <trkpt lat="42.879440020769835" lon="-1.679143980145454">
        <ele>513.41800000000001</ele>
        <time>2015-08-22T12:07:39Z</time>
      </trkpt>
      <trkpt lat="42.879444966092706" lon="-1.67907097376883">
        <ele>513.87099999999998</ele>
        <time>2015-08-22T12:07:41Z</time>
      </trkpt>
      <trkpt lat="42.879448989406228" lon="-1.679033003747463">
        <ele>514.44200000000001</ele>
        <time>2015-08-22T12:07:42Z</time>
      </trkpt>
      <trkpt lat="42.879451001062989" lon="-1.678993022069335">
        <ele>514.82899999999995</ele>
        <time>2015-08-22T12:07:43Z</time>
      </trkpt>
      <trkpt lat="42.87945301271975" lon="-1.678954968228936">
        <ele>515.29100000000005</ele>
        <time>2015-08-22T12:07:44Z</time>
      </trkpt>
      <trkpt lat="42.879456030204892" lon="-1.678915992379189">
        <ele>515.68100000000004</ele>
        <time>2015-08-22T12:07:45Z</time>
      </trkpt>
      <trkpt lat="42.879489976912737" lon="-1.678582979366183">
        <ele>515.61900000000003</ele>
        <time>2015-08-22T12:07:53Z</time>
      </trkpt>
      <trkpt lat="42.879516966640949" lon="-1.678289026021957">
        <ele>515.60799999999995</ele>
        <time>2015-08-22T12:08:00Z</time>
      </trkpt>
      <trkpt lat="42.879525013267994" lon="-1.678205961361527">
        <ele>515.61000000000001</ele>
        <time>2015-08-22T12:08:02Z</time>
      </trkpt>
      <trkpt lat="42.879545968025923" lon="-1.677903039380908">
        <ele>515.66899999999998</ele>
        <time>2015-08-22T12:08:09Z</time>
      </trkpt>
      <trkpt lat="42.879558959975839" lon="-1.677774041891098">
        <ele>515.63499999999999</ele>
        <time>2015-08-22T12:08:12Z</time>
      </trkpt>
      <trkpt lat="42.879590978845954" lon="-1.677423007786274">
        <ele>515.66899999999998</ele>
        <time>2015-08-22T12:08:21Z</time>
      </trkpt>
      <trkpt lat="42.879614029079676" lon="-1.677129976451397">
        <ele>516.01199999999994</ele>
        <time>2015-08-22T12:08:29Z</time>
      </trkpt>
      <trkpt lat="42.879616962745786" lon="-1.677088988944888">
        <ele>516.68499999999995</ele>
        <time>2015-08-22T12:08:30Z</time>
      </trkpt>
      <trkpt lat="42.879618974402547" lon="-1.677052024751902">
        <ele>517.05600000000004</ele>
        <time>2015-08-22T12:08:31Z</time>
      </trkpt>
      <trkpt lat="42.87962500937283" lon="-1.677012965083122">
        <ele>517.49300000000005</ele>
        <time>2015-08-22T12:08:32Z</time>
      </trkpt>
      <trkpt lat="42.87962500937283" lon="-1.676971977576613">
        <ele>517.84400000000005</ele>
        <time>2015-08-22T12:08:33Z</time>
      </trkpt>
      <trkpt lat="42.879638001322746" lon="-1.676823031157255">
        <ele>517.80499999999995</ele>
        <time>2015-08-22T12:08:37Z</time>
      </trkpt>
      <trkpt lat="42.879651999101043" lon="-1.676707025617361">
        <ele>518.21500000000003</ele>
        <time>2015-08-22T12:08:40Z</time>
      </trkpt>
      <trkpt lat="42.879654010757804" lon="-1.676667965948582">
        <ele>518.60799999999995</ele>
        <time>2015-08-22T12:08:41Z</time>
      </trkpt>
      <trkpt lat="42.879658034071326" lon="-1.676629995927215">
        <ele>519.04499999999996</ele>
        <time>2015-08-22T12:08:42Z</time>
      </trkpt>
      <trkpt lat="42.879661973565817" lon="-1.676592025905848">
        <ele>519.47400000000005</ele>
        <time>2015-08-22T12:08:43Z</time>
      </trkpt>
      <trkpt lat="42.879664991050959" lon="-1.676557995378971">
        <ele>519.86000000000001</ele>
        <time>2015-08-22T12:08:44Z</time>
      </trkpt>
      <trkpt lat="42.879670020192862" lon="-1.676521031185985">
        <ele>519.85400000000004</ele>
        <time>2015-08-22T12:08:45Z</time>
      </trkpt>
      <trkpt lat="42.879697009921074" lon="-1.676209978759289">
        <ele>520.24699999999996</ele>
        <time>2015-08-22T12:08:53Z</time>
      </trkpt>
      <trkpt lat="42.879702961072326" lon="-1.676172008737922">
        <ele>520.63999999999999</ele>
        <time>2015-08-22T12:08:54Z</time>
      </trkpt>
      <trkpt lat="42.87971000187099" lon="-1.676139989867806">
        <ele>521.21100000000001</ele>
        <time>2015-08-22T12:08:55Z</time>
      </trkpt>
      <trkpt lat="42.879713019356132" lon="-1.67610302567482">
        <ele>521.64800000000002</ele>
        <time>2015-08-22T12:08:56Z</time>
      </trkpt>
      <trkpt lat="42.879715031012893" lon="-1.676066983491182">
        <ele>522.06899999999996</ele>
        <time>2015-08-22T12:08:57Z</time>
      </trkpt>
      <trkpt lat="42.879729028791189" lon="-1.675914013758302">
        <ele>522.00400000000002</ele>
        <time>2015-08-22T12:09:01Z</time>
      </trkpt>
      <trkpt lat="42.879740009084344" lon="-1.675757020711899">
        <ele>522.42399999999998</ele>
        <time>2015-08-22T12:09:05Z</time>
      </trkpt>
      <trkpt lat="42.879743026569486" lon="-1.675717961043119">
        <ele>522.80799999999999</ele>
        <time>2015-08-22T12:09:06Z</time>
      </trkpt>
      <trkpt lat="42.879746966063976" lon="-1.675679991021752">
        <ele>523.26700000000005</ele>
        <time>2015-08-22T12:09:07Z</time>
      </trkpt>
      <trkpt lat="42.879748977720737" lon="-1.675642021000385">
        <ele>523.64599999999996</ele>
        <time>2015-08-22T12:09:08Z</time>
      </trkpt>
      <trkpt lat="42.879750989377499" lon="-1.675602961331606">
        <ele>524.02200000000005</ele>
        <time>2015-08-22T12:09:09Z</time>
      </trkpt>
      <trkpt lat="42.879760041832924" lon="-1.67552400380373">
        <ele>524.04600000000005</ele>
        <time>2015-08-22T12:09:11Z</time>
      </trkpt>
      <trkpt lat="42.879785019904375" lon="-1.675247987732291">
        <ele>524.42899999999997</ele>
        <time>2015-08-22T12:09:18Z</time>
      </trkpt>
      <trkpt lat="42.879788959398866" lon="-1.675209011882544">
        <ele>524.89200000000005</ele>
        <time>2015-08-22T12:09:19Z</time>
      </trkpt>
      <trkpt lat="42.879794994369149" lon="-1.675174981355667">
        <ele>525.26300000000003</ele>
        <time>2015-08-22T12:09:20Z</time>
      </trkpt>
      <trkpt lat="42.879798011854291" lon="-1.675134999677539">
        <ele>525.64999999999998</ele>
        <time>2015-08-22T12:09:21Z</time>
      </trkpt>
      <trkpt lat="42.879801029339433" lon="-1.675098035484552">
        <ele>526.04399999999998</ele>
        <time>2015-08-22T12:09:22Z</time>
      </trkpt>
      <trkpt lat="42.87981703877449" lon="-1.674855966120958">
        <ele>526.005</ele>
        <time>2015-08-22T12:09:28Z</time>
      </trkpt>
      <trkpt lat="42.879849979653955" lon="-1.674465034157038">
        <ele>526.01499999999999</ele>
        <time>2015-08-22T12:09:38Z</time>
      </trkpt>
      <trkpt lat="42.879854002967477" lon="-1.674424968659878">
        <ele>526.40800000000002</ele>
        <time>2015-08-22T12:09:39Z</time>
      </trkpt>
      <trkpt lat="42.87986297160387" lon="-1.674390016123653">
        <ele>526.81500000000005</ele>
        <time>2015-08-22T12:09:40Z</time>
      </trkpt>
      <trkpt lat="42.879865989089012" lon="-1.674354979768395">
        <ele>527.22400000000005</ele>
        <time>2015-08-22T12:09:41Z</time>
      </trkpt>
      <trkpt lat="42.879866994917393" lon="-1.674317009747028">
        <ele>527.63999999999999</ele>
        <time>2015-08-22T12:09:42Z</time>
      </trkpt>
      <trkpt lat="42.879871018230915" lon="-1.674279039725661">
        <ele>528.07399999999996</ele>
        <time>2015-08-22T12:09:43Z</time>
      </trkpt>
      <trkpt lat="42.879879986867309" lon="-1.674204021692276">
        <ele>528.08699999999999</ele>
        <time>2015-08-22T12:09:45Z</time>
      </trkpt>
      <trkpt lat="42.879884010180831" lon="-1.674009980633855">
        <ele>528.02999999999997</ele>
        <time>2015-08-22T12:09:50Z</time>
      </trkpt>
      <trkpt lat="42.879860959947109" lon="-1.673810994252563">
        <ele>528.471</ele>
        <time>2015-08-22T12:09:55Z</time>
      </trkpt>
      <trkpt lat="42.879852997139096" lon="-1.673773024231195">
        <ele>528.89800000000002</ele>
        <time>2015-08-22T12:09:56Z</time>
      </trkpt>
      <trkpt lat="42.879844028502703" lon="-1.673734970390797">
        <ele>529.47699999999998</ele>
        <time>2015-08-22T12:09:57Z</time>
      </trkpt>
      <trkpt lat="42.879833970218897" lon="-1.673694988712668">
        <ele>529.86099999999999</ele>
        <time>2015-08-22T12:09:58Z</time>
      </trkpt>
      <trkpt lat="42.879820978268981" lon="-1.67365500703454">
        <ele>530.22699999999998</ele>
        <time>2015-08-22T12:09:59Z</time>
      </trkpt>
      <trkpt lat="42.879716036841273" lon="-1.673494996502996">
        <ele>530.20799999999997</ele>
        <time>2015-08-22T12:10:04Z</time>
      </trkpt>
      <trkpt lat="42.879533981904387" lon="-1.673384020105004">
        <ele>530.26800000000003</ele>
        <time>2015-08-22T12:10:10Z</time>
      </trkpt>
      <trkpt lat="42.879348993301392" lon="-1.673390977084637">
        <ele>530.29700000000003</ele>
        <time>2015-08-22T12:10:15Z</time>
      </trkpt>
      <trkpt lat="42.879310017451644" lon="-1.673406986519694">
        <ele>530.65300000000002</ele>
        <time>2015-08-22T12:10:16Z</time>
      </trkpt>
      <trkpt lat="42.879271041601896" lon="-1.673425007611513">
        <ele>531.09699999999998</ele>
        <time>2015-08-22T12:10:17Z</time>
      </trkpt>
      <trkpt lat="42.879228964447975" lon="-1.673445040360093">
        <ele>531.44000000000005</ele>
        <time>2015-08-22T12:10:18Z</time>
      </trkpt>
      <trkpt lat="42.879188982769847" lon="-1.673467000946403">
        <ele>531.82299999999998</ele>
        <time>2015-08-22T12:10:19Z</time>
      </trkpt>
      <trkpt lat="42.879150006920099" lon="-1.673490973189473">
        <ele>532.24400000000003</ele>
        <time>2015-08-22T12:10:20Z</time>
      </trkpt>
      <trkpt lat="42.879106001928449" lon="-1.673513017594814">
        <ele>532.28099999999995</ele>
        <time>2015-08-22T12:10:21Z</time>
      </trkpt>
      <trkpt lat="42.878871979191899" lon="-1.673598010092974">
        <ele>532.26099999999997</ele>
        <time>2015-08-22T12:10:26Z</time>
      </trkpt>
      <trkpt lat="42.878779023885727" lon="-1.673595998436213">
        <ele>532.221</ele>
        <time>2015-08-22T12:10:28Z</time>
      </trkpt>
      <trkpt lat="42.878607027232647" lon="-1.673447974026203">
        <ele>532.21299999999997</ele>
        <time>2015-08-22T12:10:32Z</time>
      </trkpt>
      <trkpt lat="42.878520023077726" lon="-1.673331968486309">
        <ele>531.80799999999999</ele>
        <time>2015-08-22T12:10:34Z</time>
      </trkpt>
      <trkpt lat="42.878476018086076" lon="-1.673273965716362">
        <ele>531.43700000000001</ele>
        <time>2015-08-22T12:10:35Z</time>
      </trkpt>
      <trkpt lat="42.878436036407948" lon="-1.673214035108686">
        <ele>531.096</ele>
        <time>2015-08-22T12:10:36Z</time>
      </trkpt>
      <trkpt lat="42.878396976739168" lon="-1.673149997368455">
        <ele>530.62199999999996</ele>
        <time>2015-08-22T12:10:37Z</time>
      </trkpt>
      <trkpt lat="42.878353977575898" lon="-1.673090988770127">
        <ele>530.27599999999995</ele>
        <time>2015-08-22T12:10:38Z</time>
      </trkpt>
      <trkpt lat="42.8782709967345" lon="-1.672973977401853">
        <ele>530.21900000000005</ele>
        <time>2015-08-22T12:10:40Z</time>
      </trkpt>
      <trkpt lat="42.878136970102787" lon="-1.672692010179162">
        <ele>530.27200000000005</ele>
        <time>2015-08-22T12:10:44Z</time>
      </trkpt>
      <trkpt lat="42.878116015344858" lon="-1.672611963003874">
        <ele>530.25300000000004</ele>
        <time>2015-08-22T12:10:45Z</time>
      </trkpt>
      <trkpt lat="42.878092965111136" lon="-1.672447007149458">
        <ele>529.88999999999999</ele>
        <time>2015-08-22T12:10:47Z</time>
      </trkpt>
      <trkpt lat="42.878094976767898" lon="-1.672357991337776">
        <ele>529.41300000000001</ele>
        <time>2015-08-22T12:10:48Z</time>
      </trkpt>
      <trkpt lat="42.878102017566562" lon="-1.672272998839617">
        <ele>528.84299999999996</ele>
        <time>2015-08-22T12:10:49Z</time>
      </trkpt>
      <trkpt lat="42.878114003688097" lon="-1.672185994684696">
        <ele>528.40700000000004</ele>
        <time>2015-08-22T12:10:50Z</time>
      </trkpt>
      <trkpt lat="42.878131018951535" lon="-1.672103013843298">
        <ele>528.00800000000004</ele>
        <time>2015-08-22T12:10:51Z</time>
      </trkpt>
      <trkpt lat="42.878177035599947" lon="-1.671939985826612">
        <ele>527.63199999999995</ele>
        <time>2015-08-22T12:10:53Z</time>
      </trkpt>
      <trkpt lat="42.878206036984921" lon="-1.671859016641974">
        <ele>527.25099999999998</ele>
        <time>2015-08-22T12:10:54Z</time>
      </trkpt>
      <trkpt lat="42.878237972036004" lon="-1.671768995001912">
        <ele>526.81700000000001</ele>
        <time>2015-08-22T12:10:55Z</time>
      </trkpt>
      <trkpt lat="42.878272002562881" lon="-1.67167897336185">
        <ele>525.83100000000002</ele>
        <time>2015-08-22T12:10:56Z</time>
      </trkpt>
      <trkpt lat="42.878345008939505" lon="-1.671495996415615">
        <ele>525.48400000000004</ele>
        <time>2015-08-22T12:10:58Z</time>
      </trkpt>
      <trkpt lat="42.878376021981239" lon="-1.671401029452682">
        <ele>524.83699999999999</ele>
        <time>2015-08-22T12:10:59Z</time>
      </trkpt>
      <trkpt lat="42.878409968689084" lon="-1.671303967013955">
        <ele>524.44799999999998</ele>
        <time>2015-08-22T12:11:00Z</time>
      </trkpt>
      <trkpt lat="42.878441987559199" lon="-1.67120598256588">
        <ele>523.83500000000004</ele>
        <time>2015-08-22T12:11:01Z</time>
      </trkpt>
      <trkpt lat="42.878473000600934" lon="-1.671106992289424">
        <ele>523.45299999999997</ele>
        <time>2015-08-22T12:11:02Z</time>
      </trkpt>
      <trkpt lat="42.878519017249346" lon="-1.670901970937848">
        <ele>522.80399999999997</ele>
        <time>2015-08-22T12:11:04Z</time>
      </trkpt>
      <trkpt lat="42.878524968400598" lon="-1.670804992318153">
        <ele>522.41399999999999</ele>
        <time>2015-08-22T12:11:05Z</time>
      </trkpt>
      <trkpt lat="42.878523962572217" lon="-1.670714970678091">
        <ele>521.80799999999999</ele>
        <time>2015-08-22T12:11:06Z</time>
      </trkpt>
      <trkpt lat="42.878515999764204" lon="-1.67062696069479">
        <ele>521.46600000000001</ele>
        <time>2015-08-22T12:11:07Z</time>
      </trkpt>
      <trkpt lat="42.87850602529943" lon="-1.670546997338533">
        <ele>520.85500000000002</ele>
        <time>2015-08-22T12:11:08Z</time>
      </trkpt>
      <trkpt lat="42.878494961187243" lon="-1.670471979305148">
        <ele>520.86099999999999</ele>
        <time>2015-08-22T12:11:09Z</time>
      </trkpt>
      <trkpt lat="42.878481969237328" lon="-1.670400984585285">
        <ele>520.89499999999998</ele>
        <time>2015-08-22T12:11:10Z</time>
      </trkpt>
      <trkpt lat="42.87846595980227" lon="-1.670339964330196">
        <ele>521.43799999999999</ele>
        <time>2015-08-22T12:11:11Z</time>
      </trkpt>
      <trkpt lat="42.878451962023973" lon="-1.670279027894139">
        <ele>521.88099999999997</ele>
        <time>2015-08-22T12:11:12Z</time>
      </trkpt>
      <trkpt lat="42.878435030579567" lon="-1.670225970447063">
        <ele>522.41200000000003</ele>
        <time>2015-08-22T12:11:13Z</time>
      </trkpt>
      <trkpt lat="42.878422038629651" lon="-1.670176014304161">
        <ele>523.05899999999997</ele>
        <time>2015-08-22T12:11:14Z</time>
      </trkpt>
      <trkpt lat="42.878408040851355" lon="-1.670123962685466">
        <ele>523.476</ele>
        <time>2015-08-22T12:11:15Z</time>
      </trkpt>
      <trkpt lat="42.878302009776235" lon="-1.669710986316204">
        <ele>523.49000000000001</ele>
        <time>2015-08-22T12:11:23Z</time>
      </trkpt>
      <trkpt lat="42.878241995349526" lon="-1.669500013813376">
        <ele>523.41899999999998</ele>
        <time>2015-08-22T12:11:27Z</time>
      </trkpt>
      <trkpt lat="42.878204025328159" lon="-1.669348971918225">
        <ele>523.40800000000002</ele>
        <time>2015-08-22T12:11:30Z</time>
      </trkpt>
      <trkpt lat="42.878192961215973" lon="-1.669298009946942">
        <ele>523.47799999999995</ele>
        <time>2015-08-22T12:11:31Z</time>
      </trkpt>
      <trkpt lat="42.878125989809632" lon="-1.669001961126924">
        <ele>523.41700000000003</ele>
        <time>2015-08-22T12:11:37Z</time>
      </trkpt>
      <trkpt lat="42.878091959282756" lon="-1.668855026364327">
        <ele>523.47299999999996</ele>
        <time>2015-08-22T12:11:40Z</time>
      </trkpt>
      <trkpt lat="42.87799003534019" lon="-1.668448001146317">
        <ele>523.41700000000003</ele>
        <time>2015-08-22T12:11:48Z</time>
      </trkpt>
      <trkpt lat="42.877877969294786" lon="-1.668007029220462">
        <ele>524.02999999999997</ele>
        <time>2015-08-22T12:11:56Z</time>
      </trkpt>
      <trkpt lat="42.877864977344871" lon="-1.667947014793754">
        <ele>524.423</ele>
        <time>2015-08-22T12:11:57Z</time>
      </trkpt>
      <trkpt lat="42.877849973738194" lon="-1.66789404116571">
        <ele>524.87400000000002</ele>
        <time>2015-08-22T12:11:58Z</time>
      </trkpt>
      <trkpt lat="42.877835975959897" lon="-1.667840983718634">
        <ele>525.471</ele>
        <time>2015-08-22T12:11:59Z</time>
      </trkpt>
      <trkpt lat="42.877826001495123" lon="-1.667787004262209">
        <ele>525.82299999999998</ele>
        <time>2015-08-22T12:12:00Z</time>
      </trkpt>
      <trkpt lat="42.877778979018331" lon="-1.667623976245523">
        <ele>525.88300000000004</ele>
        <time>2015-08-22T12:12:03Z</time>
      </trkpt>
      <trkpt lat="42.877671020105481" lon="-1.667226003482938">
        <ele>525.81100000000004</ele>
        <time>2015-08-22T12:12:11Z</time>
      </trkpt>
      <trkpt lat="42.877658028155565" lon="-1.667176969349384">
        <ele>525.80799999999999</ele>
        <time>2015-08-22T12:12:12Z</time>
      </trkpt>
      <trkpt lat="42.877571024000645" lon="-1.666855020448566">
        <ele>525.85299999999995</ele>
        <time>2015-08-22T12:12:19Z</time>
      </trkpt>
      <trkpt lat="42.877488965168595" lon="-1.666527036577463">
        <ele>525.81200000000001</ele>
        <time>2015-08-22T12:12:26Z</time>
      </trkpt>
      <trkpt lat="42.87747697904706" lon="-1.666476996615529">
        <ele>526.23800000000006</ele>
        <time>2015-08-22T12:12:27Z</time>
      </trkpt>
      <trkpt lat="42.877471027895808" lon="-1.666431985795498">
        <ele>526.66200000000003</ele>
        <time>2015-08-22T12:12:28Z</time>
      </trkpt>
      <trkpt lat="42.877459963783622" lon="-1.666386974975467">
        <ele>527.21500000000003</ele>
        <time>2015-08-22T12:12:29Z</time>
      </trkpt>
      <trkpt lat="42.877453006803989" lon="-1.666343975812197">
        <ele>527.678</ele>
        <time>2015-08-22T12:12:30Z</time>
      </trkpt>
      <trkpt lat="42.877438003197312" lon="-1.666303994134069">
        <ele>528.07899999999995</ele>
        <time>2015-08-22T12:12:31Z</time>
      </trkpt>
      <trkpt lat="42.877396009862423" lon="-1.666130991652608">
        <ele>528.01599999999996</ele>
        <time>2015-08-22T12:12:35Z</time>
      </trkpt>
      <trkpt lat="42.877332977950573" lon="-1.665878025814891">
        <ele>528.44200000000001</ele>
        <time>2015-08-22T12:12:41Z</time>
      </trkpt>
      <trkpt lat="42.877317974343896" lon="-1.665835026651621">
        <ele>528.822</ele>
        <time>2015-08-22T12:12:42Z</time>
      </trkpt>
      <trkpt lat="42.877305988222361" lon="-1.665788004174829">
        <ele>529.21400000000006</ele>
        <time>2015-08-22T12:12:43Z</time>
      </trkpt>
      <trkpt lat="42.877294002100825" lon="-1.665742993354797">
        <ele>529.60799999999995</ele>
        <time>2015-08-22T12:12:44Z</time>
      </trkpt>
      <trkpt lat="42.877286039292812" lon="-1.665695970878005">
        <ele>530.01499999999999</ele>
        <time>2015-08-22T12:12:45Z</time>
      </trkpt>
      <trkpt lat="42.877214038744569" lon="-1.665482986718416">
        <ele>530.03399999999999</ele>
        <time>2015-08-22T12:12:50Z</time>
      </trkpt>
      <trkpt lat="42.877084035426378" lon="-1.665158020332456">
        <ele>530.08000000000004</ele>
        <time>2015-08-22T12:12:58Z</time>
      </trkpt>
      <trkpt lat="42.877033995464444" lon="-1.665034973993897">
        <ele>531.03399999999999</ele>
        <time>2015-08-22T12:13:01Z</time>
      </trkpt>
      <trkpt lat="42.877013962715864" lon="-1.664998009800911">
        <ele>531.48699999999997</ele>
        <time>2015-08-22T12:13:02Z</time>
      </trkpt>
      <trkpt lat="42.876993007957935" lon="-1.664960039779544">
        <ele>531.88999999999999</ele>
        <time>2015-08-22T12:13:03Z</time>
      </trkpt>
      <trkpt lat="42.876971969380975" lon="-1.664920980110765">
        <ele>532.21100000000001</ele>
        <time>2015-08-22T12:13:04Z</time>
      </trkpt>
      <trkpt lat="42.876933999359608" lon="-1.664839005097747">
        <ele>532.28800000000001</ele>
        <time>2015-08-22T12:13:06Z</time>
      </trkpt>
      <trkpt lat="42.876797961071134" lon="-1.664559971541166">
        <ele>532.85799999999995</ele>
        <time>2015-08-22T12:13:13Z</time>
      </trkpt>
      <trkpt lat="42.876774994656444" lon="-1.664520995691419">
        <ele>533.25199999999995</ele>
        <time>2015-08-22T12:13:14Z</time>
      </trkpt>
      <trkpt lat="42.876754961907864" lon="-1.664485037326813">
        <ele>533.61699999999996</ele>
        <time>2015-08-22T12:13:15Z</time>
      </trkpt>
      <trkpt lat="42.876734007149935" lon="-1.664446983486414">
        <ele>534.20799999999997</ele>
        <time>2015-08-22T12:13:16Z</time>
      </trkpt>
      <trkpt lat="42.876712968572974" lon="-1.664413036778569">
        <ele>534.68600000000004</ele>
        <time>2015-08-22T12:13:17Z</time>
      </trkpt>
      <trkpt lat="42.876633005216718" lon="-1.664254032075405">
        <ele>534.68499999999995</ele>
        <time>2015-08-22T12:13:21Z</time>
      </trkpt>
      <trkpt lat="42.876462014392018" lon="-1.663939962163568">
        <ele>534.61099999999999</ele>
        <time>2015-08-22T12:13:29Z</time>
      </trkpt>
      <trkpt lat="42.8764439933002" lon="-1.663904003798962">
        <ele>534.625</ele>
        <time>2015-08-22T12:13:30Z</time>
      </trkpt>
      <trkpt lat="42.876259004697204" lon="-1.663547018542886">
        <ele>534.65800000000002</ele>
        <time>2015-08-22T12:13:39Z</time>
      </trkpt>
      <trkpt lat="42.876102011650801" lon="-1.663250969722867">
        <ele>534.68100000000004</ele>
        <time>2015-08-22T12:13:45Z</time>
      </trkpt>
      <trkpt lat="42.875939989462495" lon="-1.662945030257106">
        <ele>534.64200000000005</ele>
        <time>2015-08-22T12:13:50Z</time>
      </trkpt>
      <trkpt lat="42.875868994742632" lon="-1.662806980311871">
        <ele>534.62900000000002</ele>
        <time>2015-08-22T12:13:52Z</time>
      </trkpt>
      <trkpt lat="42.875678976997733" lon="-1.662463992834091">
        <ele>534.61900000000003</ele>
        <time>2015-08-22T12:13:57Z</time>
      </trkpt>
      <trkpt lat="42.875575041398406" lon="-1.662277998402715">
        <ele>534.60900000000004</ele>
        <time>2015-08-22T12:14:00Z</time>
      </trkpt>
      <trkpt lat="42.875546040013433" lon="-1.662223013117909">
        <ele>534.01900000000001</ele>
        <time>2015-08-22T12:14:01Z</time>
      </trkpt>
      <trkpt lat="42.875516032800078" lon="-1.662174984812737">
        <ele>533.60799999999995</ele>
        <time>2015-08-22T12:14:02Z</time>
      </trkpt>
      <trkpt lat="42.875490970909595" lon="-1.662129973992705">
        <ele>533.06200000000001</ele>
        <time>2015-08-22T12:14:03Z</time>
      </trkpt>
      <trkpt lat="42.875470016151667" lon="-1.662084963172674">
        <ele>532.67100000000005</ele>
        <time>2015-08-22T12:14:04Z</time>
      </trkpt>
      <trkpt lat="42.875450989231467" lon="-1.662043975666165">
        <ele>532.077</ele>
        <time>2015-08-22T12:14:05Z</time>
      </trkpt>
      <trkpt lat="42.875343030318618" lon="-1.661854041740298">
        <ele>532.04100000000005</ele>
        <time>2015-08-22T12:14:10Z</time>
      </trkpt>
      <trkpt lat="42.875279998406768" lon="-1.661737030372024">
        <ele>532.45399999999995</ele>
        <time>2015-08-22T12:14:13Z</time>
      </trkpt>
      <trkpt lat="42.875260971486568" lon="-1.661695959046483">
        <ele>533.077</ele>
        <time>2015-08-22T12:14:14Z</time>
      </trkpt>
      <trkpt lat="42.875239010900259" lon="-1.661660000681877">
        <ele>533.88800000000003</ele>
        <time>2015-08-22T12:14:15Z</time>
      </trkpt>
      <trkpt lat="42.875218978151679" lon="-1.66162203066051">
        <ele>534.26499999999999</ele>
        <time>2015-08-22T12:14:16Z</time>
      </trkpt>
      <trkpt lat="42.87517698481679" lon="-1.661543995141983">
        <ele>534.25300000000004</ele>
        <time>2015-08-22T12:14:18Z</time>
      </trkpt>
      <trkpt lat="42.875029966235161" lon="-1.66128097102046">
        <ele>534.20399999999995</ele>
        <time>2015-08-22T12:14:24Z</time>
      </trkpt>
      <trkpt lat="42.874796027317643" lon="-1.66089003905654">
        <ele>534.21400000000006</ele>
        <time>2015-08-22T12:14:32Z</time>
      </trkpt>
      <trkpt lat="42.87464196793735" lon="-1.660617040470243">
        <ele>534.20799999999997</ele>
        <time>2015-08-22T12:14:37Z</time>
      </trkpt>
      <trkpt lat="42.874573990702629" lon="-1.660512015223503">
        <ele>534.24599999999998</ele>
        <time>2015-08-22T12:14:39Z</time>
      </trkpt>
      <trkpt lat="42.874333010986447" lon="-1.660113958641887">
        <ele>534.22500000000002</ele>
        <time>2015-08-22T12:14:46Z</time>
      </trkpt>
      <trkpt lat="42.874194961041212" lon="-1.65988102555275">
        <ele>533.851</ele>
        <time>2015-08-22T12:14:50Z</time>
      </trkpt>
      <trkpt lat="42.874162020161748" lon="-1.659823022782803">
        <ele>533.41499999999996</ele>
        <time>2015-08-22T12:14:51Z</time>
      </trkpt>
      <trkpt lat="42.87412497214973" lon="-1.659760996699333">
        <ele>533.01800000000003</ele>
        <time>2015-08-22T12:14:52Z</time>
      </trkpt>
      <trkpt lat="42.874092031270266" lon="-1.659700982272625">
        <ele>532.64099999999996</ele>
        <time>2015-08-22T12:14:53Z</time>
      </trkpt>
      <trkpt lat="42.874055989086628" lon="-1.659641973674297">
        <ele>532.22199999999998</ele>
        <time>2015-08-22T12:14:54Z</time>
      </trkpt>
      <trkpt lat="42.874021036550403" lon="-1.65958397090435">
        <ele>532.29899999999998</ele>
        <time>2015-08-22T12:14:55Z</time>
      </trkpt>
      <trkpt lat="42.873814003542066" lon="-1.65923997759819">
        <ele>532.22500000000002</ele>
        <time>2015-08-22T12:15:01Z</time>
      </trkpt>
      <trkpt lat="42.873746026307344" lon="-1.65913000702858">
        <ele>532.226</ele>
        <time>2015-08-22T12:15:03Z</time>
      </trkpt>
      <trkpt lat="42.873496999964118" lon="-1.658715019002557">
        <ele>532.20799999999997</ele>
        <time>2015-08-22T12:15:11Z</time>
      </trkpt>
      <trkpt lat="42.873384011909366" lon="-1.658518966287375">
        <ele>532.20799999999997</ele>
        <time>2015-08-22T12:15:15Z</time>
      </trkpt>
      <trkpt lat="42.873298013582826" lon="-1.658360967412591">
        <ele>532.29300000000001</ele>
        <time>2015-08-22T12:15:18Z</time>
      </trkpt>
      <trkpt lat="42.873185025528073" lon="-1.658071037381887">
        <ele>532.26199999999994</ele>
        <time>2015-08-22T12:15:23Z</time>
      </trkpt>
      <trkpt lat="42.873168010264635" lon="-1.657945979386568">
        <ele>532.298</ele>
        <time>2015-08-22T12:15:25Z</time>
      </trkpt>
      <trkpt lat="42.873145965859294" lon="-1.657640961930156">
        <ele>532.23199999999997</ele>
        <time>2015-08-22T12:15:30Z</time>
      </trkpt>
      <trkpt lat="42.873152000829577" lon="-1.657533003017306">
        <ele>532.255</ele>
        <time>2015-08-22T12:15:32Z</time>
      </trkpt>
      <trkpt lat="42.873184019699693" lon="-1.65721801109612">
        <ele>532.21799999999996</ele>
        <time>2015-08-22T12:15:38Z</time>
      </trkpt>
      <trkpt lat="42.873225007206202" lon="-1.656933026388288">
        <ele>532.279</ele>
        <time>2015-08-22T12:15:44Z</time>
      </trkpt>
      <trkpt lat="42.873235987499356" lon="-1.656889021396637">
        <ele>532.64599999999996</ele>
        <time>2015-08-22T12:15:45Z</time>
      </trkpt>
      <trkpt lat="42.873247973620892" lon="-1.656845016404986">
        <ele>533.07799999999997</ele>
        <time>2015-08-22T12:15:46Z</time>
      </trkpt>
      <trkpt lat="42.873260965570807" lon="-1.656805034726858">
        <ele>533.43299999999999</ele>
        <time>2015-08-22T12:15:47Z</time>
      </trkpt>
      <trkpt lat="42.873273035511374" lon="-1.656761029735208">
        <ele>533.82600000000002</ele>
        <time>2015-08-22T12:15:48Z</time>
      </trkpt>
      <trkpt lat="42.873290972784162" lon="-1.656716018915176">
        <ele>534.40800000000002</ele>
        <time>2015-08-22T12:15:49Z</time>
      </trkpt>
      <trkpt lat="42.873330032452941" lon="-1.656632032245398">
        <ele>534.428</ele>
        <time>2015-08-22T12:15:51Z</time>
      </trkpt>
      <trkpt lat="42.87348099052906" lon="-1.656343024224043">
        <ele>534.42700000000002</ele>
        <time>2015-08-22T12:15:57Z</time>
      </trkpt>
      <trkpt lat="42.873513009399176" lon="-1.656291978433728">
        <ele>534.44299999999998</ele>
        <time>2015-08-22T12:15:58Z</time>
      </trkpt>
      <trkpt lat="42.873598001897335" lon="-1.656130962073803">
        <ele>534.447</ele>
        <time>2015-08-22T12:16:01Z</time>
      </trkpt>
      <trkpt lat="42.873685006052256" lon="-1.655976986512542">
        <ele>534.41999999999996</ele>
        <time>2015-08-22T12:16:04Z</time>
      </trkpt>
      <trkpt lat="42.873805034905672" lon="-1.655698036774993">
        <ele>534.41300000000001</ele>
        <time>2015-08-22T12:16:09Z</time>
      </trkpt>
      <trkpt lat="42.873828001320362" lon="-1.655583959072828">
        <ele>534.44399999999996</ele>
        <time>2015-08-22T12:16:11Z</time>
      </trkpt>
      <trkpt lat="42.873830012977123" lon="-1.655526040121913">
        <ele>534.44100000000003</ele>
        <time>2015-08-22T12:16:12Z</time>
      </trkpt>
      <trkpt lat="42.873858008533716" lon="-1.655282964929938">
        <ele>534.423</ele>
        <time>2015-08-22T12:16:17Z</time>
      </trkpt>
      <trkpt lat="42.873873012140393" lon="-1.654974007979035">
        <ele>534.48299999999995</ele>
        <time>2015-08-22T12:16:24Z</time>
      </trkpt>
      <trkpt lat="42.87388700991869" lon="-1.654583998024464">
        <ele>534.41099999999994</ele>
        <time>2015-08-22T12:16:33Z</time>
      </trkpt>
      <trkpt lat="42.873851973563433" lon="-1.65431996807456">
        <ele>534.40800000000002</ele>
        <time>2015-08-22T12:16:39Z</time>
      </trkpt>
      <trkpt lat="42.873829007148743" lon="-1.654235981404781">
        <ele>534.423</ele>
        <time>2015-08-22T12:16:41Z</time>
      </trkpt>
      <trkpt lat="42.873766981065273" lon="-1.654075970873237">
        <ele>534.89200000000005</ele>
        <time>2015-08-22T12:16:45Z</time>
      </trkpt>
      <trkpt lat="42.873748037964106" lon="-1.654036995023489">
        <ele>535.24800000000005</ele>
        <time>2015-08-22T12:16:46Z</time>
      </trkpt>
      <trkpt lat="42.873728005215526" lon="-1.654001036658883">
        <ele>535.67200000000003</ele>
        <time>2015-08-22T12:16:47Z</time>
      </trkpt>
      <trkpt lat="42.873707972466946" lon="-1.653962982818484">
        <ele>536.05499999999995</ele>
        <time>2015-08-22T12:16:48Z</time>
      </trkpt>
      <trkpt lat="42.873687017709017" lon="-1.653926018625498">
        <ele>536.47799999999995</ele>
        <time>2015-08-22T12:16:49Z</time>
      </trkpt>
      <trkpt lat="42.873507980257273" lon="-1.653611026704311">
        <ele>536.48900000000003</ele>
        <time>2015-08-22T12:16:58Z</time>
      </trkpt>
      <trkpt lat="42.873389963060617" lon="-1.653392007574439">
        <ele>536.42600000000004</ele>
        <time>2015-08-22T12:17:04Z</time>
      </trkpt>
      <trkpt lat="42.8733079880476" lon="-1.653241971507669">
        <ele>537.23299999999995</ele>
        <time>2015-08-22T12:17:08Z</time>
      </trkpt>
      <trkpt lat="42.87328502163291" lon="-1.653208024799824">
        <ele>537.62300000000005</ele>
        <time>2015-08-22T12:17:09Z</time>
      </trkpt>
      <trkpt lat="42.87326498888433" lon="-1.653167959302664">
        <ele>538.01499999999999</ele>
        <time>2015-08-22T12:17:10Z</time>
      </trkpt>
      <trkpt lat="42.873245039954782" lon="-1.653134012594819">
        <ele>538.40800000000002</ele>
        <time>2015-08-22T12:17:11Z</time>
      </trkpt>
      <trkpt lat="42.873224001377821" lon="-1.65309595875442">
        <ele>538.46400000000006</ele>
        <time>2015-08-22T12:17:12Z</time>
      </trkpt>
      <trkpt lat="42.87307396531105" lon="-1.652738973498344">
        <ele>538.49300000000005</ele>
        <time>2015-08-22T12:17:21Z</time>
      </trkpt>
      <trkpt lat="42.87298696115613" lon="-1.652319962158799">
        <ele>538.41899999999998</ele>
        <time>2015-08-22T12:17:30Z</time>
      </trkpt>
      <trkpt lat="42.87298402749002" lon="-1.651888964697719">
        <ele>538.423</ele>
        <time>2015-08-22T12:17:39Z</time>
      </trkpt>
      <trkpt lat="42.873010011389852" lon="-1.651513036340475">
        <ele>538.48599999999999</ele>
        <time>2015-08-22T12:17:46Z</time>
      </trkpt>
      <trkpt lat="42.873019985854626" lon="-1.651350008323789">
        <ele>538.45899999999995</ele>
        <time>2015-08-22T12:17:49Z</time>
      </trkpt>
      <trkpt lat="42.873014034703374" lon="-1.651127971708775">
        <ele>538.45000000000005</ele>
        <time>2015-08-22T12:17:53Z</time>
      </trkpt>
      <trkpt lat="42.872976986691356" lon="-1.650745002552867">
        <ele>538.447</ele>
        <time>2015-08-22T12:18:01Z</time>
      </trkpt>
      <trkpt lat="42.872959971427917" lon="-1.650656992569566">
        <ele>539.01199999999994</ele>
        <time>2015-08-22T12:18:03Z</time>
      </trkpt>
      <trkpt lat="42.872949996963143" lon="-1.650613993406296">
        <ele>539.43200000000002</ele>
        <time>2015-08-22T12:18:04Z</time>
      </trkpt>
      <trkpt lat="42.872939016669989" lon="-1.650570994243026">
        <ele>539.80499999999995</ele>
        <time>2015-08-22T12:18:05Z</time>
      </trkpt>
      <trkpt lat="42.872926024720073" lon="-1.650527995079756">
        <ele>540.20799999999997</ele>
        <time>2015-08-22T12:18:06Z</time>
      </trkpt>
      <trkpt lat="42.872916972264647" lon="-1.650484995916486">
        <ele>540.66200000000003</ele>
        <time>2015-08-22T12:18:07Z</time>
      </trkpt>
      <trkpt lat="42.872890988364816" lon="-1.650396985933185">
        <ele>540.63099999999997</ele>
        <time>2015-08-22T12:18:09Z</time>
      </trkpt>
      <trkpt lat="42.872786968946457" lon="-1.650040000677109">
        <ele>540.67700000000002</ele>
        <time>2015-08-22T12:18:17Z</time>
      </trkpt>
      <trkpt lat="42.87266300059855" lon="-1.649629035964608">
        <ele>540.64099999999996</ele>
        <time>2015-08-22T12:18:26Z</time>
      </trkpt>
      <trkpt lat="42.872595023363829" lon="-1.649416973814368">
        <ele>541.21400000000006</ele>
        <time>2015-08-22T12:18:31Z</time>
      </trkpt>
      <trkpt lat="42.872582031413913" lon="-1.649372968822718">
        <ele>541.62699999999995</ele>
        <time>2015-08-22T12:18:32Z</time>
      </trkpt>
      <trkpt lat="42.872567027807236" lon="-1.649322006851435">
        <ele>542.23800000000006</ele>
        <time>2015-08-22T12:18:33Z</time>
      </trkpt>
      <trkpt lat="42.872555963695049" lon="-1.649285964667797">
        <ele>542.61500000000001</ele>
        <time>2015-08-22T12:18:34Z</time>
      </trkpt>
      <trkpt lat="42.872544983401895" lon="-1.649243971332908">
        <ele>543.04399999999998</ele>
        <time>2015-08-22T12:18:35Z</time>
      </trkpt>
      <trkpt lat="42.872462002560496" lon="-1.648977007716894">
        <ele>543.005</ele>
        <time>2015-08-22T12:18:41Z</time>
      </trkpt>
      <trkpt lat="42.872374998405576" lon="-1.6487090382725">
        <ele>543.61500000000001</ele>
        <time>2015-08-22T12:18:47Z</time>
      </trkpt>
      <trkpt lat="42.872358988970518" lon="-1.64866503328085">
        <ele>544.00800000000004</ele>
        <time>2015-08-22T12:18:48Z</time>
      </trkpt>
      <trkpt lat="42.87234297953546" lon="-1.648620022460818">
        <ele>544.45500000000004</ele>
        <time>2015-08-22T12:18:49Z</time>
      </trkpt>
      <trkpt lat="42.872329987585545" lon="-1.648578029125929">
        <ele>544.82399999999996</ele>
        <time>2015-08-22T12:18:50Z</time>
      </trkpt>
      <trkpt lat="42.872316995635629" lon="-1.64853704161942">
        <ele>545.28999999999996</ele>
        <time>2015-08-22T12:18:51Z</time>
      </trkpt>
      <trkpt lat="42.872207025066018" lon="-1.648214003071189">
        <ele>545.24400000000003</ele>
        <time>2015-08-22T12:18:58Z</time>
      </trkpt>
      <trkpt lat="42.872078027576208" lon="-1.647811001166701">
        <ele>545.28700000000003</ele>
        <time>2015-08-22T12:19:06Z</time>
      </trkpt>
      <trkpt lat="42.87197501398623" lon="-1.647495003417134">
        <ele>545.25999999999999</ele>
        <time>2015-08-22T12:19:12Z</time>
      </trkpt>
      <trkpt lat="42.871907036751509" lon="-1.647281013429165">
        <ele>545.24099999999999</ele>
        <time>2015-08-22T12:19:16Z</time>
      </trkpt>
      <trkpt lat="42.871703021228313" lon="-1.646758988499641">
        <ele>545.298</ele>
        <time>2015-08-22T12:19:26Z</time>
      </trkpt>
      <trkpt lat="42.871543010696769" lon="-1.646322039887309">
        <ele>545.22400000000005</ele>
        <time>2015-08-22T12:19:34Z</time>
      </trkpt>
      <trkpt lat="42.871402027085423" lon="-1.645903028547764">
        <ele>545.20399999999995</ele>
        <time>2015-08-22T12:19:41Z</time>
      </trkpt>
      <trkpt lat="42.871379982680082" lon="-1.645836979150772">
        <ele>545.21400000000006</ele>
        <time>2015-08-22T12:19:42Z</time>
      </trkpt>
      <trkpt lat="42.871307982131839" lon="-1.645625000819564">
        <ele>544.80799999999999</ele>
        <time>2015-08-22T12:19:45Z</time>
      </trkpt>
      <trkpt lat="42.871284009888768" lon="-1.645550988614559">
        <ele>544.21299999999997</ele>
        <time>2015-08-22T12:19:46Z</time>
      </trkpt>
      <trkpt lat="42.871259031817317" lon="-1.645475970581174">
        <ele>543.87199999999996</ele>
        <time>2015-08-22T12:19:47Z</time>
      </trkpt>
      <trkpt lat="42.871234975755215" lon="-1.645399024710059">
        <ele>543.428</ele>
        <time>2015-08-22T12:19:48Z</time>
      </trkpt>
      <trkpt lat="42.871207986027002" lon="-1.645321995019913">
        <ele>543.05200000000002</ele>
        <time>2015-08-22T12:19:49Z</time>
      </trkpt>
      <trkpt lat="42.87118099629879" lon="-1.645243037492037">
        <ele>543.06500000000005</ele>
        <time>2015-08-22T12:19:50Z</time>
      </trkpt>
      <trkpt lat="42.871128022670746" lon="-1.645085038617253">
        <ele>542.678</ele>
        <time>2015-08-22T12:19:52Z</time>
      </trkpt>
      <trkpt lat="42.871102038770914" lon="-1.645008008927107">
        <ele>542.23900000000003</ele>
        <time>2015-08-22T12:19:53Z</time>
      </trkpt>
      <trkpt lat="42.87107496522367" lon="-1.64493097923696">
        <ele>541.68600000000004</ele>
        <time>2015-08-22T12:19:54Z</time>
      </trkpt>
      <trkpt lat="42.871045041829348" lon="-1.644855039194226">
        <ele>541.24099999999999</ele>
        <time>2015-08-22T12:19:55Z</time>
      </trkpt>
      <trkpt lat="42.871015034615993" lon="-1.64477800950408">
        <ele>540.88099999999997</ele>
        <time>2015-08-22T12:19:56Z</time>
      </trkpt>
      <trkpt lat="42.870916966348886" lon="-1.644557984545827">
        <ele>540.80899999999997</ele>
        <time>2015-08-22T12:19:59Z</time>
      </trkpt>
      <trkpt lat="42.870696019381285" lon="-1.644179038703442">
        <ele>540.80799999999999</ele>
        <time>2015-08-22T12:20:05Z</time>
      </trkpt>
      <trkpt lat="42.870453028008342" lon="-1.64376899600029">
        <ele>540.86500000000001</ele>
        <time>2015-08-22T12:20:13Z</time>
      </trkpt>
      <trkpt lat="42.870219005271792" lon="-1.643340010195971">
        <ele>540.83399999999995</ele>
        <time>2015-08-22T12:20:20Z</time>
      </trkpt>
      <trkpt lat="42.870182041078806" lon="-1.643274966627359">
        <ele>540.48000000000002</ele>
        <time>2015-08-22T12:20:21Z</time>
      </trkpt>
      <trkpt lat="42.870143987238407" lon="-1.643212018534541">
        <ele>539.84400000000005</ele>
        <time>2015-08-22T12:20:22Z</time>
      </trkpt>
      <trkpt lat="42.870107023045421" lon="-1.643149992451072">
        <ele>539.42700000000002</ele>
        <time>2015-08-22T12:20:23Z</time>
      </trkpt>
      <trkpt lat="42.870068969205022" lon="-1.643086960539222">
        <ele>538.88999999999999</ele>
        <time>2015-08-22T12:20:24Z</time>
      </trkpt>
      <trkpt lat="42.870032005012035" lon="-1.643029041588306">
        <ele>538.46100000000001</ele>
        <time>2015-08-22T12:20:25Z</time>
      </trkpt>
      <trkpt lat="42.869963021948934" lon="-1.642904989421368">
        <ele>538.41800000000001</ele>
        <time>2015-08-22T12:20:27Z</time>
      </trkpt>
      <trkpt lat="42.869735034182668" lon="-1.642514979466796">
        <ele>538.45899999999995</ele>
        <time>2015-08-22T12:20:33Z</time>
      </trkpt>
      <trkpt lat="42.869692035019398" lon="-1.642450019717217">
        <ele>537.803</ele>
        <time>2015-08-22T12:20:34Z</time>
      </trkpt>
      <trkpt lat="42.869650041684508" lon="-1.642380030825734">
        <ele>537.22299999999996</ele>
        <time>2015-08-22T12:20:35Z</time>
      </trkpt>
      <trkpt lat="42.869606958702207" lon="-1.642305012792349">
        <ele>536.60799999999995</ele>
        <time>2015-08-22T12:20:36Z</time>
      </trkpt>
      <trkpt lat="42.869564965367317" lon="-1.642227983102202">
        <ele>536.08600000000001</ele>
        <time>2015-08-22T12:20:37Z</time>
      </trkpt>
      <trkpt lat="42.869521966204047" lon="-1.642149025574327">
        <ele>535.44500000000005</ele>
        <time>2015-08-22T12:20:38Z</time>
      </trkpt>
      <trkpt lat="42.869477039203048" lon="-1.642068978399038">
        <ele>534.87099999999998</ele>
        <time>2015-08-22T12:20:39Z</time>
      </trkpt>
      <trkpt lat="42.869432028383017" lon="-1.641990020871162">
        <ele>534.46500000000003</ele>
        <time>2015-08-22T12:20:40Z</time>
      </trkpt>
      <trkpt lat="42.869387017562985" lon="-1.641909973695874">
        <ele>534.02800000000002</ele>
        <time>2015-08-22T12:20:41Z</time>
      </trkpt>
      <trkpt lat="42.869342006742954" lon="-1.641831016167998">
        <ele>533.41099999999994</ele>
        <time>2015-08-22T12:20:42Z</time>
      </trkpt>
      <trkpt lat="42.869296995922923" lon="-1.641752980649471">
        <ele>532.81200000000001</ele>
        <time>2015-08-22T12:20:43Z</time>
      </trkpt>
      <trkpt lat="42.869251985102892" lon="-1.641675028949976">
        <ele>532.41899999999998</ele>
        <time>2015-08-22T12:20:44Z</time>
      </trkpt>
      <trkpt lat="42.8692049626261" lon="-1.64159799925983">
        <ele>531.85599999999999</ele>
        <time>2015-08-22T12:20:45Z</time>
      </trkpt>
      <trkpt lat="42.869158023968339" lon="-1.641519963741303">
        <ele>531.25900000000001</ele>
        <time>2015-08-22T12:20:46Z</time>
      </trkpt>
      <trkpt lat="42.869112007319927" lon="-1.641441006213427">
        <ele>530.61400000000003</ele>
        <time>2015-08-22T12:20:47Z</time>
      </trkpt>
      <trkpt lat="42.868930958211422" lon="-1.64112601429224">
        <ele>530.60799999999995</ele>
        <time>2015-08-22T12:20:51Z</time>
      </trkpt>
      <trkpt lat="42.868628036230803" lon="-1.64052402600646">
        <ele>530.65599999999995</ele>
        <time>2015-08-22T12:20:58Z</time>
      </trkpt>
      <trkpt lat="42.868601968511939" lon="-1.640423024073243">
        <ele>530.61500000000001</ele>
        <time>2015-08-22T12:20:59Z</time>
      </trkpt>
      <trkpt lat="42.868561986833811" lon="-1.640208028256893">
        <ele>530.07100000000003</ele>
        <time>2015-08-22T12:21:01Z</time>
      </trkpt>
      <trkpt lat="42.868547989055514" lon="-1.64009302854538">
        <ele>529.43499999999995</ele>
        <time>2015-08-22T12:21:02Z</time>
      </trkpt>
      <trkpt lat="42.868532985448837" lon="-1.639980040490627">
        <ele>528.428</ele>
        <time>2015-08-22T12:21:03Z</time>
      </trkpt>
      <trkpt lat="42.86851798184216" lon="-1.639865962788463">
        <ele>527.221</ele>
        <time>2015-08-22T12:21:04Z</time>
      </trkpt>
      <trkpt lat="42.868503984063864" lon="-1.639747023582459">
        <ele>526.25199999999995</ele>
        <time>2015-08-22T12:21:05Z</time>
      </trkpt>
      <trkpt lat="42.868489986285567" lon="-1.639630012214184">
        <ele>525.279</ele>
        <time>2015-08-22T12:21:06Z</time>
      </trkpt>
      <trkpt lat="42.868478000164032" lon="-1.639513000845909">
        <ele>524.28099999999995</ele>
        <time>2015-08-22T12:21:07Z</time>
      </trkpt>
      <trkpt lat="42.868450004607439" lon="-1.639271015301347">
        <ele>524.26099999999997</ele>
        <time>2015-08-22T12:21:09Z</time>
      </trkpt>
      <trkpt lat="42.868413962423801" lon="-1.63891201838851">
        <ele>524.21699999999998</ele>
        <time>2015-08-22T12:21:12Z</time>
      </trkpt>
      <trkpt lat="42.868400970473886" lon="-1.638795007020235">
        <ele>523.60799999999995</ele>
        <time>2015-08-22T12:21:13Z</time>
      </trkpt>
      <trkpt lat="42.868382027372718" lon="-1.638681013137102">
        <ele>523.07899999999995</ele>
        <time>2015-08-22T12:21:14Z</time>
      </trkpt>
      <trkpt lat="42.868351014330983" lon="-1.63857095874846">
        <ele>521.64800000000002</ele>
        <time>2015-08-22T12:21:15Z</time>
      </trkpt>
      <trkpt lat="42.868306003510952" lon="-1.638470040634275">
        <ele>520.89400000000001</ele>
        <time>2015-08-22T12:21:16Z</time>
      </trkpt>
      <trkpt lat="42.868246994912624" lon="-1.638373984023929">
        <ele>520.05799999999999</ele>
        <time>2015-08-22T12:21:17Z</time>
      </trkpt>
      <trkpt lat="42.868180023506284" lon="-1.638292009010911">
        <ele>519.21100000000001</ele>
        <time>2015-08-22T12:21:18Z</time>
      </trkpt>
      <trkpt lat="42.867940971627831" lon="-1.638123029842973">
        <ele>519.274</ele>
        <time>2015-08-22T12:21:21Z</time>
      </trkpt>
      <trkpt lat="42.867694040760398" lon="-1.63801297545433">
        <ele>518.86500000000001</ele>
        <time>2015-08-22T12:21:24Z</time>
      </trkpt>
      <trkpt lat="42.867611981928349" lon="-1.637976011261344">
        <ele>518.44200000000001</ele>
        <time>2015-08-22T12:21:25Z</time>
      </trkpt>
      <trkpt lat="42.867533024400473" lon="-1.637939969077706">
        <ele>518.06899999999996</ele>
        <time>2015-08-22T12:21:26Z</time>
      </trkpt>
      <trkpt lat="42.867457000538707" lon="-1.637905016541481">
        <ele>517.404</ele>
        <time>2015-08-22T12:21:27Z</time>
      </trkpt>
      <trkpt lat="42.867386005818844" lon="-1.637870986014605">
        <ele>517.024</ele>
        <time>2015-08-22T12:21:28Z</time>
      </trkpt>
      <trkpt lat="42.867040000855923" lon="-1.637707035988569">
        <ele>517.00800000000004</ele>
        <time>2015-08-22T12:21:33Z</time>
      </trkpt>
      <trkpt lat="42.866646973416209" lon="-1.637508971616626">
        <ele>516.68700000000001</ele>
        <time>2015-08-22T12:21:39Z</time>
      </trkpt>
      <trkpt lat="42.866576984524727" lon="-1.637462032958865">
        <ele>515.67600000000004</ele>
        <time>2015-08-22T12:21:40Z</time>
      </trkpt>
      <trkpt lat="42.866512024775147" lon="-1.637410987168551">
        <ele>515.08199999999999</ele>
        <time>2015-08-22T12:21:41Z</time>
      </trkpt>
      <trkpt lat="42.866445975378156" lon="-1.637357007712126">
        <ele>514.476</ele>
        <time>2015-08-22T12:21:42Z</time>
      </trkpt>
      <trkpt lat="42.866253023967147" lon="-1.637161960825324">
        <ele>514.48900000000003</ele>
        <time>2015-08-22T12:21:45Z</time>
      </trkpt>
      <trkpt lat="42.866185968741775" lon="-1.637092977762222">
        <ele>514.072</ele>
        <time>2015-08-22T12:21:46Z</time>
      </trkpt>
      <trkpt lat="42.866120003163815" lon="-1.637021983042359">
        <ele>513.48299999999995</ele>
        <time>2015-08-22T12:21:47Z</time>
      </trkpt>
      <trkpt lat="42.866049008443952" lon="-1.636945959180594">
        <ele>513.02999999999997</ele>
        <time>2015-08-22T12:21:48Z</time>
      </trkpt>
      <trkpt lat="42.86598103120923" lon="-1.63687395863235">
        <ele>512.41200000000003</ele>
        <time>2015-08-22T12:21:49Z</time>
      </trkpt>
      <trkpt lat="42.865912970155478" lon="-1.636802041903138">
        <ele>511.63200000000001</ele>
        <time>2015-08-22T12:21:50Z</time>
      </trkpt>
      <trkpt lat="42.865842981263995" lon="-1.636729035526514">
        <ele>511.005</ele>
        <time>2015-08-22T12:21:51Z</time>
      </trkpt>
      <trkpt lat="42.865771986544132" lon="-1.636655023321509">
        <ele>510.40800000000002</ele>
        <time>2015-08-22T12:21:52Z</time>
      </trkpt>
      <trkpt lat="42.86570300348103" lon="-1.636578999459744">
        <ele>509.87200000000001</ele>
        <time>2015-08-22T12:21:53Z</time>
      </trkpt>
      <trkpt lat="42.865632008761168" lon="-1.636502975597978">
        <ele>509.08100000000002</ele>
        <time>2015-08-22T12:21:54Z</time>
      </trkpt>
      <trkpt lat="42.865556990727782" lon="-1.636428041383624">
        <ele>508.41699999999997</ele>
        <time>2015-08-22T12:21:55Z</time>
      </trkpt>
      <trkpt lat="42.865485996007919" lon="-1.636354029178619">
        <ele>507.86099999999999</ele>
        <time>2015-08-22T12:21:56Z</time>
      </trkpt>
      <trkpt lat="42.865345012396574" lon="-1.636204998940229">
        <ele>507.24400000000003</ele>
        <time>2015-08-22T12:21:58Z</time>
      </trkpt>
      <trkpt lat="42.865274017676711" lon="-1.636132998391986">
        <ele>506.25700000000001</ele>
        <time>2015-08-22T12:21:59Z</time>
      </trkpt>
      <trkpt lat="42.865204028785229" lon="-1.636062003672123">
        <ele>505.298</ele>
        <time>2015-08-22T12:22:00Z</time>
      </trkpt>
      <trkpt lat="42.865134039893746" lon="-1.635990003123879">
        <ele>504.29500000000002</ele>
        <time>2015-08-22T12:22:01Z</time>
      </trkpt>
      <trkpt lat="42.865061033517122" lon="-1.635914985090494">
        <ele>503.21699999999998</ele>
        <time>2015-08-22T12:22:02Z</time>
      </trkpt>
      <trkpt lat="42.864992972463369" lon="-1.635846002027392">
        <ele>502.28699999999998</ele>
        <time>2015-08-22T12:22:03Z</time>
      </trkpt>
      <trkpt lat="42.864721985533834" lon="-1.635565962642431">
        <ele>501.815</ele>
        <time>2015-08-22T12:22:07Z</time>
      </trkpt>
      <trkpt lat="42.864655014127493" lon="-1.635495973750949">
        <ele>501.20800000000003</ele>
        <time>2015-08-22T12:22:08Z</time>
      </trkpt>
      <trkpt lat="42.864587036892772" lon="-1.635427996516228">
        <ele>500.822</ele>
        <time>2015-08-22T12:22:09Z</time>
      </trkpt>
      <trkpt lat="42.864515958353877" lon="-1.635357001796365">
        <ele>500.21100000000001</ele>
        <time>2015-08-22T12:22:10Z</time>
      </trkpt>
      <trkpt lat="42.864448986947536" lon="-1.635289024561644">
        <ele>499.887</ele>
        <time>2015-08-22T12:22:11Z</time>
      </trkpt>
      <trkpt lat="42.864189986139536" lon="-1.635027006268501">
        <ele>499.851</ele>
        <time>2015-08-22T12:22:15Z</time>
      </trkpt>
      <trkpt lat="42.863871976733208" lon="-1.634698016569018">
        <ele>499.22399999999999</ele>
        <time>2015-08-22T12:22:20Z</time>
      </trkpt>
      <trkpt lat="42.863813973963261" lon="-1.634622998535633">
        <ele>498.85700000000003</ele>
        <time>2015-08-22T12:22:21Z</time>
      </trkpt>
      <trkpt lat="42.863759994506836" lon="-1.634542029350996">
        <ele>498.41800000000001</ele>
        <time>2015-08-22T12:22:22Z</time>
      </trkpt>
      <trkpt lat="42.863710960373282" lon="-1.634455025196075">
        <ele>498.03500000000003</ele>
        <time>2015-08-22T12:22:23Z</time>
      </trkpt>
      <trkpt lat="42.863666033372283" lon="-1.63435603491962">
        <ele>497.46199999999999</ele>
        <time>2015-08-22T12:22:24Z</time>
      </trkpt>
      <trkpt lat="42.863629991188645" lon="-1.634255032986403">
        <ele>496.88299999999998</ele>
        <time>2015-08-22T12:22:25Z</time>
      </trkpt>
      <trkpt lat="42.863603001460433" lon="-1.634147996082902">
        <ele>496.21100000000001</ele>
        <time>2015-08-22T12:22:26Z</time>
      </trkpt>
      <trkpt lat="42.863579029217362" lon="-1.634039031341672">
        <ele>495.80799999999999</ele>
        <time>2015-08-22T12:22:27Z</time>
      </trkpt>
      <trkpt lat="42.86355497315526" lon="-1.63392897695303">
        <ele>495.25700000000001</ele>
        <time>2015-08-22T12:22:28Z</time>
      </trkpt>
      <trkpt lat="42.863531000912189" lon="-1.633815988898277">
        <ele>494.23599999999999</ele>
        <time>2015-08-22T12:22:29Z</time>
      </trkpt>
      <trkpt lat="42.863507028669119" lon="-1.633699983358383">
        <ele>493.63200000000001</ele>
        <time>2015-08-22T12:22:30Z</time>
      </trkpt>
      <trkpt lat="42.863483978435397" lon="-1.633582971990109">
        <ele>493.05599999999998</ele>
        <time>2015-08-22T12:22:31Z</time>
      </trkpt>
      <trkpt lat="42.863408038392663" lon="-1.633230010047555">
        <ele>493.09899999999999</ele>
        <time>2015-08-22T12:22:34Z</time>
      </trkpt>
      <trkpt lat="42.86338297650218" lon="-1.633116016164422">
        <ele>492.63200000000001</ele>
        <time>2015-08-22T12:22:35Z</time>
      </trkpt>
      <trkpt lat="42.863359004259109" lon="-1.63300302810967">
        <ele>492.27300000000002</ele>
        <time>2015-08-22T12:22:36Z</time>
      </trkpt>
      <trkpt lat="42.863334026187658" lon="-1.632890962064266">
        <ele>491.88999999999999</ele>
        <time>2015-08-22T12:22:37Z</time>
      </trkpt>
      <trkpt lat="42.863307958468795" lon="-1.632779985666275">
        <ele>491.49599999999998</ele>
        <time>2015-08-22T12:22:38Z</time>
      </trkpt>
      <trkpt lat="42.863282980397344" lon="-1.632669009268284">
        <ele>491.03100000000001</ele>
        <time>2015-08-22T12:22:39Z</time>
      </trkpt>
      <trkpt lat="42.86320997402072" lon="-1.632346976548433">
        <ele>491.024</ele>
        <time>2015-08-22T12:22:42Z</time>
      </trkpt>
      <trkpt lat="42.863088017329574" lon="-1.631967024877667">
        <ele>491.00799999999998</ele>
        <time>2015-08-22T12:22:46Z</time>
      </trkpt>
      <trkpt lat="42.863047029823065" lon="-1.631881026551127">
        <ele>491.06999999999999</ele>
        <time>2015-08-22T12:22:47Z</time>
      </trkpt>
      <trkpt lat="42.862789034843445" lon="-1.631509037688375">
        <ele>491.06900000000002</ele>
        <time>2015-08-22T12:22:52Z</time>
      </trkpt>
      <trkpt lat="42.86260899156332" lon="-1.631290018558502">
        <ele>490.46499999999997</ele>
        <time>2015-08-22T12:22:55Z</time>
      </trkpt>
      <trkpt lat="42.862548977136612" lon="-1.631217012181878">
        <ele>490.07900000000001</ele>
        <time>2015-08-22T12:22:56Z</time>
      </trkpt>
      <trkpt lat="42.862488962709904" lon="-1.631142999976873">
        <ele>489.46199999999999</ele>
        <time>2015-08-22T12:22:57Z</time>
      </trkpt>
      <trkpt lat="42.862427020445466" lon="-1.631067981943488">
        <ele>488.86500000000001</ele>
        <time>2015-08-22T12:22:58Z</time>
      </trkpt>
      <trkpt lat="42.862366000190377" lon="-1.630990030243993">
        <ele>488.476</ele>
        <time>2015-08-22T12:22:59Z</time>
      </trkpt>
      <trkpt lat="42.862302968278527" lon="-1.630909983068705">
        <ele>488.09300000000002</ele>
        <time>2015-08-22T12:23:00Z</time>
      </trkpt>
      <trkpt lat="42.86224102601409" lon="-1.63083303719759">
        <ele>487.69299999999998</ele>
        <time>2015-08-22T12:23:01Z</time>
      </trkpt>
      <trkpt lat="42.862176988273859" lon="-1.630752990022302">
        <ele>487.065</ele>
        <time>2015-08-22T12:23:02Z</time>
      </trkpt>
      <trkpt lat="42.862114040181041" lon="-1.630676966160536">
        <ele>486.42099999999999</ele>
        <time>2015-08-22T12:23:03Z</time>
      </trkpt>
      <trkpt lat="42.86204899661243" lon="-1.630600020289421">
        <ele>485.608</ele>
        <time>2015-08-22T12:23:04Z</time>
      </trkpt>
      <trkpt lat="42.86198403686285" lon="-1.630522990599275">
        <ele>484.88999999999999</ele>
        <time>2015-08-22T12:23:05Z</time>
      </trkpt>
      <trkpt lat="42.861918993294239" lon="-1.630445038899779">
        <ele>484.05900000000003</ele>
        <time>2015-08-22T12:23:06Z</time>
      </trkpt>
      <trkpt lat="42.86185403354466" lon="-1.630367003381252">
        <ele>483.45499999999998</ele>
        <time>2015-08-22T12:23:07Z</time>
      </trkpt>
      <trkpt lat="42.86172604188323" lon="-1.630206992849708">
        <ele>483.42899999999997</ele>
        <time>2015-08-22T12:23:09Z</time>
      </trkpt>
      <trkpt lat="42.861345000565052" lon="-1.62973802536726">
        <ele>483.03199999999998</ele>
        <time>2015-08-22T12:23:15Z</time>
      </trkpt>
      <trkpt lat="42.861283980309963" lon="-1.629664013162255">
        <ele>482.435</ele>
        <time>2015-08-22T12:23:16Z</time>
      </trkpt>
      <trkpt lat="42.861225977540016" lon="-1.629592012614012">
        <ele>482.036</ele>
        <time>2015-08-22T12:23:17Z</time>
      </trkpt>
      <trkpt lat="42.861165041103959" lon="-1.629520012065768">
        <ele>481.63299999999998</ele>
        <time>2015-08-22T12:23:18Z</time>
      </trkpt>
      <trkpt lat="42.861107960343361" lon="-1.629451029002667">
        <ele>481.26799999999997</ele>
        <time>2015-08-22T12:23:19Z</time>
      </trkpt>
      <trkpt lat="42.861001007258892" lon="-1.629311973229051">
        <ele>480.84199999999998</ele>
        <time>2015-08-22T12:23:21Z</time>
      </trkpt>
      <trkpt lat="42.860948033630848" lon="-1.62924500182271">
        <ele>480.226</ele>
        <time>2015-08-22T12:23:22Z</time>
      </trkpt>
      <trkpt lat="42.860894976183772" lon="-1.62917903624475">
        <ele>479.80799999999999</ele>
        <time>2015-08-22T12:23:23Z</time>
      </trkpt>
      <trkpt lat="42.86084502004087" lon="-1.6291160043329">
        <ele>479.46699999999998</ele>
        <time>2015-08-22T12:23:24Z</time>
      </trkpt>
      <trkpt lat="42.860792968422174" lon="-1.629050960764289">
        <ele>479.036</ele>
        <time>2015-08-22T12:23:25Z</time>
      </trkpt>
      <trkpt lat="42.86046196706593" lon="-1.628656005486846">
        <ele>478.49200000000002</ele>
        <time>2015-08-22T12:23:32Z</time>
      </trkpt>
      <trkpt lat="42.860413016751409" lon="-1.628603031858802">
        <ele>478.05599999999998</ele>
        <time>2015-08-22T12:23:33Z</time>
      </trkpt>
      <trkpt lat="42.860364988446236" lon="-1.628553997725248">
        <ele>477.48899999999998</ele>
        <time>2015-08-22T12:23:34Z</time>
      </trkpt>
      <trkpt lat="42.860318971797824" lon="-1.628504963591695">
        <ele>477.03199999999998</ele>
        <time>2015-08-22T12:23:35Z</time>
      </trkpt>
      <trkpt lat="42.860272033140063" lon="-1.628454001620412">
        <ele>476.64299999999997</ele>
        <time>2015-08-22T12:23:36Z</time>
      </trkpt>
      <trkpt lat="42.860177988186479" lon="-1.628355011343956">
        <ele>476.07999999999998</ele>
        <time>2015-08-22T12:23:38Z</time>
      </trkpt>
      <trkpt lat="42.860128032043576" lon="-1.628305977210403">
        <ele>475.62400000000002</ele>
        <time>2015-08-22T12:23:39Z</time>
      </trkpt>
      <trkpt lat="42.860078997910023" lon="-1.628258032724261">
        <ele>475.20400000000001</ele>
        <time>2015-08-22T12:23:40Z</time>
      </trkpt>
      <trkpt lat="42.86002803593874" lon="-1.628206986933947">
        <ele>474.81400000000002</ele>
        <time>2015-08-22T12:23:41Z</time>
      </trkpt>
      <trkpt lat="42.859980007633567" lon="-1.628155019134283">
        <ele>474.40800000000002</ele>
        <time>2015-08-22T12:23:42Z</time>
      </trkpt>
      <trkpt lat="42.859798036515713" lon="-1.627932982519269">
        <ele>474.44299999999998</ele>
        <time>2015-08-22T12:23:46Z</time>
      </trkpt>
      <trkpt lat="42.859523026272655" lon="-1.627468038350344">
        <ele>474.452</ele>
        <time>2015-08-22T12:23:53Z</time>
      </trkpt>
      <trkpt lat="42.859166963025928" lon="-1.626822967082262">
        <ele>474.41800000000001</ele>
        <time>2015-08-22T12:24:02Z</time>
      </trkpt>
      <trkpt lat="42.859040983021259" lon="-1.626594979315996">
        <ele>473.85199999999998</ele>
        <time>2015-08-22T12:24:05Z</time>
      </trkpt>
      <trkpt lat="42.85899898968637" lon="-1.626519039273262">
        <ele>473.47500000000002</ele>
        <time>2015-08-22T12:24:06Z</time>
      </trkpt>
      <trkpt lat="42.8589559905231" lon="-1.626444021239877">
        <ele>473.06799999999998</ele>
        <time>2015-08-22T12:24:07Z</time>
      </trkpt>
      <trkpt lat="42.858916008844972" lon="-1.626370009034872">
        <ele>472.21899999999999</ele>
        <time>2015-08-22T12:24:08Z</time>
      </trkpt>
      <trkpt lat="42.858751974999905" lon="-1.626071026548743">
        <ele>472.23599999999999</ele>
        <time>2015-08-22T12:24:12Z</time>
      </trkpt>
      <trkpt lat="42.858461961150169" lon="-1.62554900161922">
        <ele>471.83699999999999</ele>
        <time>2015-08-22T12:24:19Z</time>
      </trkpt>
      <trkpt lat="42.858420973643661" lon="-1.625477001070976">
        <ele>471.44900000000001</ele>
        <time>2015-08-22T12:24:20Z</time>
      </trkpt>
      <trkpt lat="42.858378980308771" lon="-1.625401983037591">
        <ele>471.01299999999998</ele>
        <time>2015-08-22T12:24:21Z</time>
      </trkpt>
      <trkpt lat="42.858335981145501" lon="-1.625327970832586">
        <ele>470.608</ele>
        <time>2015-08-22T12:24:22Z</time>
      </trkpt>
      <trkpt lat="42.858289964497089" lon="-1.625256976112723">
        <ele>470.26400000000001</ele>
        <time>2015-08-22T12:24:23Z</time>
      </trkpt>
      <trkpt lat="42.858128026127815" lon="-1.625062013044953">
        <ele>470.233</ele>
        <time>2015-08-22T12:24:26Z</time>
      </trkpt>
      <trkpt lat="42.857810016721487" lon="-1.624793037772179">
        <ele>469.85899999999998</ele>
        <time>2015-08-22T12:24:31Z</time>
      </trkpt>
      <trkpt lat="42.857740027830005" lon="-1.624744003638625">
        <ele>469.43299999999999</ele>
        <time>2015-08-22T12:24:32Z</time>
      </trkpt>
      <trkpt lat="42.857669033110142" lon="-1.624694969505072">
        <ele>468.64600000000002</ele>
        <time>2015-08-22T12:24:33Z</time>
      </trkpt>
      <trkpt lat="42.857596026733518" lon="-1.624640990048647">
        <ele>468.29899999999998</ele>
        <time>2015-08-22T12:24:34Z</time>
      </trkpt>
      <trkpt lat="42.857454037293792" lon="-1.624538982287049">
        <ele>468.29000000000002</ele>
        <time>2015-08-22T12:24:36Z</time>
      </trkpt>
      <trkpt lat="42.857381030917168" lon="-1.624490031972528">
        <ele>467.66699999999997</ele>
        <time>2015-08-22T12:24:37Z</time>
      </trkpt>
      <trkpt lat="42.857308024540544" lon="-1.624439992010593">
        <ele>467.28300000000002</ele>
        <time>2015-08-22T12:24:38Z</time>
      </trkpt>
      <trkpt lat="42.857234012335539" lon="-1.624390035867691">
        <ele>466.82499999999999</ele>
        <time>2015-08-22T12:24:39Z</time>
      </trkpt>
      <trkpt lat="42.857161005958915" lon="-1.624338990077376">
        <ele>466.21699999999998</ele>
        <time>2015-08-22T12:24:40Z</time>
      </trkpt>
      <trkpt lat="42.857083976268768" lon="-1.624284004792571">
        <ele>465.80799999999999</ele>
        <time>2015-08-22T12:24:41Z</time>
      </trkpt>
      <trkpt lat="42.856934024021029" lon="-1.624177973717451">
        <ele>465.42899999999997</ele>
        <time>2015-08-22T12:24:43Z</time>
      </trkpt>
      <trkpt lat="42.856860011816025" lon="-1.624121982604265">
        <ele>465.07799999999997</ele>
        <time>2015-08-22T12:24:44Z</time>
      </trkpt>
      <trkpt lat="42.856787005439401" lon="-1.624061968177557">
        <ele>464.67399999999998</ele>
        <time>2015-08-22T12:24:45Z</time>
      </trkpt>
      <trkpt lat="42.856713999062777" lon="-1.6240010317415">
        <ele>464.28800000000001</ele>
        <time>2015-08-22T12:24:46Z</time>
      </trkpt>
      <trkpt lat="42.856639986857772" lon="-1.623943028971553">
        <ele>463.661</ele>
        <time>2015-08-22T12:24:47Z</time>
      </trkpt>
      <trkpt lat="42.856562035158277" lon="-1.623891983181238">
        <ele>463.24400000000003</ele>
        <time>2015-08-22T12:24:48Z</time>
      </trkpt>
      <trkpt lat="42.856478970497847" lon="-1.623844038695097">
        <ele>462.69499999999999</ele>
        <time>2015-08-22T12:24:49Z</time>
      </trkpt>
      <trkpt lat="42.856402024626732" lon="-1.623793998733163">
        <ele>462.25200000000001</ele>
        <time>2015-08-22T12:24:50Z</time>
      </trkpt>
      <trkpt lat="42.856324994936585" lon="-1.623739013448358">
        <ele>461.673</ele>
        <time>2015-08-22T12:24:51Z</time>
      </trkpt>
      <trkpt lat="42.856178982183337" lon="-1.623608004301786">
        <ele>461.28500000000003</ele>
        <time>2015-08-22T12:24:53Z</time>
      </trkpt>
      <trkpt lat="42.856109999120235" lon="-1.623536003753543">
        <ele>460.81299999999999</ele>
        <time>2015-08-22T12:24:54Z</time>
      </trkpt>
      <trkpt lat="42.856043027713895" lon="-1.623462997376919">
        <ele>460.20800000000003</ele>
        <time>2015-08-22T12:24:55Z</time>
      </trkpt>
      <trkpt lat="42.855978989973664" lon="-1.623384039849043">
        <ele>459.82799999999997</ele>
        <time>2015-08-22T12:24:56Z</time>
      </trkpt>
      <trkpt lat="42.855918975546956" lon="-1.623310027644038">
        <ele>459.49700000000001</ele>
        <time>2015-08-22T12:24:57Z</time>
      </trkpt>
      <trkpt lat="42.855857033282518" lon="-1.623240960761905">
        <ele>458.87299999999999</ele>
        <time>2015-08-22T12:24:58Z</time>
      </trkpt>
      <trkpt lat="42.855798024684191" lon="-1.623177006840706">
        <ele>458.46699999999998</ele>
        <time>2015-08-22T12:24:59Z</time>
      </trkpt>
      <trkpt lat="42.855742033571005" lon="-1.623111963272095">
        <ele>457.82999999999998</ele>
        <time>2015-08-22T12:25:00Z</time>
      </trkpt>
      <trkpt lat="42.85568998195231" lon="-1.623050021007657">
        <ele>457.26299999999998</ele>
        <time>2015-08-22T12:25:01Z</time>
      </trkpt>
      <trkpt lat="42.855642037466168" lon="-1.622993024066091">
        <ele>456.89400000000001</ele>
        <time>2015-08-22T12:25:02Z</time>
      </trkpt>
      <trkpt lat="42.855554027482867" lon="-1.622890010476112">
        <ele>456.82100000000003</ele>
        <time>2015-08-22T12:25:04Z</time>
      </trkpt>
      <trkpt lat="42.855478003621101" lon="-1.62282002158463">
        <ele>456.892</ele>
        <time>2015-08-22T12:25:06Z</time>
      </trkpt>
      <trkpt lat="42.855399968102574" lon="-1.622785991057754">
        <ele>456.87299999999999</ele>
        <time>2015-08-22T12:25:08Z</time>
      </trkpt>
      <trkpt lat="42.855293015018106" lon="-1.622729999944568">
        <ele>456.42000000000002</ele>
        <time>2015-08-22T12:25:10Z</time>
      </trkpt>
      <trkpt lat="42.855224031955004" lon="-1.622708961367607">
        <ele>455.80799999999999</ele>
        <time>2015-08-22T12:25:11Z</time>
      </trkpt>
      <trkpt lat="42.855153037235141" lon="-1.622704016044736">
        <ele>455.41000000000003</ele>
        <time>2015-08-22T12:25:12Z</time>
      </trkpt>
      <trkpt lat="42.855081958696246" lon="-1.622709967195988">
        <ele>455.04899999999998</ele>
        <time>2015-08-22T12:25:13Z</time>
      </trkpt>
      <trkpt lat="42.855011969804764" lon="-1.622723964974284">
        <ele>454.69499999999999</ele>
        <time>2015-08-22T12:25:14Z</time>
      </trkpt>
      <trkpt lat="42.854947010055184" lon="-1.622742991894484">
        <ele>454.25900000000001</ele>
        <time>2015-08-22T12:25:15Z</time>
      </trkpt>
      <trkpt lat="42.854885989800096" lon="-1.622763024643064">
        <ele>453.83199999999999</ele>
        <time>2015-08-22T12:25:16Z</time>
      </trkpt>
      <trkpt lat="42.854825975373387" lon="-1.622781967744231">
        <ele>453.26499999999999</ele>
        <time>2015-08-22T12:25:17Z</time>
      </trkpt>
      <trkpt lat="42.854763027280569" lon="-1.622804012149572">
        <ele>452.85599999999999</ele>
        <time>2015-08-22T12:25:18Z</time>
      </trkpt>
      <trkpt lat="42.854703012853861" lon="-1.622823039069772">
        <ele>452.49299999999999</ele>
        <time>2015-08-22T12:25:19Z</time>
      </trkpt>
      <trkpt lat="42.854516012594104" lon="-1.622861009091139">
        <ele>452.42500000000001</ele>
        <time>2015-08-22T12:25:22Z</time>
      </trkpt>
      <trkpt lat="42.854454992339015" lon="-1.622861009091139">
        <ele>452.42599999999999</ele>
        <time>2015-08-22T12:25:23Z</time>
      </trkpt>
      <trkpt lat="42.854221975430846" lon="-1.622870983555913">
        <ele>452.40800000000002</ele>
        <time>2015-08-22T12:25:27Z</time>
      </trkpt>
      <trkpt lat="42.854003962129354" lon="-1.62290601991117">
        <ele>452.40800000000002</ele>
        <time>2015-08-22T12:25:31Z</time>
      </trkpt>
      <trkpt lat="42.853891979902983" lon="-1.622932003811002">
        <ele>452.43299999999999</ele>
        <time>2015-08-22T12:25:33Z</time>
      </trkpt>
      <trkpt lat="42.853728029876947" lon="-1.622967040166259">
        <ele>452.48200000000003</ele>
        <time>2015-08-22T12:25:36Z</time>
      </trkpt>
      <trkpt lat="42.85345503129065" lon="-1.623036023229361">
        <ele>452.47800000000001</ele>
        <time>2015-08-22T12:25:41Z</time>
      </trkpt>
      <trkpt lat="42.853057980537415" lon="-1.623168960213661">
        <ele>452.49200000000002</ele>
        <time>2015-08-22T12:25:48Z</time>
      </trkpt>
      <trkpt lat="42.852942980825901" lon="-1.623209025710821">
        <ele>452.03500000000003</ele>
        <time>2015-08-22T12:25:50Z</time>
      </trkpt>
      <trkpt lat="42.852887995541096" lon="-1.623228974640369">
        <ele>451.678</ele>
        <time>2015-08-22T12:25:51Z</time>
      </trkpt>
      <trkpt lat="42.852834016084671" lon="-1.623248001560569">
        <ele>451.28899999999999</ele>
        <time>2015-08-22T12:25:52Z</time>
      </trkpt>
      <trkpt lat="42.852780958637595" lon="-1.623265016824007">
        <ele>450.81599999999997</ele>
        <time>2015-08-22T12:25:53Z</time>
      </trkpt>
      <trkpt lat="42.852727985009551" lon="-1.623281026259065">
        <ele>450.44099999999997</ele>
        <time>2015-08-22T12:25:54Z</time>
      </trkpt>
      <trkpt lat="42.852622959762812" lon="-1.623316984623671">
        <ele>450.48099999999999</ele>
        <time>2015-08-22T12:25:56Z</time>
      </trkpt>
      <trkpt lat="42.85223102197051" lon="-1.623472971841693">
        <ele>450.40899999999999</ele>
        <time>2015-08-22T12:26:04Z</time>
      </trkpt>
      <trkpt lat="42.852183999493718" lon="-1.623488981276751">
        <ele>450.40800000000002</ele>
        <time>2015-08-22T12:26:05Z</time>
      </trkpt>
      <trkpt lat="42.852005967870355" lon="-1.623559975996614">
        <ele>450.44499999999999</ele>
        <time>2015-08-22T12:26:09Z</time>
      </trkpt>
      <trkpt lat="42.851739004254341" lon="-1.623684028163552">
        <ele>450.43400000000003</ele>
        <time>2015-08-22T12:26:15Z</time>
      </trkpt>
      <trkpt lat="42.851653005927801" lon="-1.623732978478074">
        <ele>450.41000000000003</ele>
        <time>2015-08-22T12:26:17Z</time>
      </trkpt>
      <trkpt lat="42.851289985701442" lon="-1.623971024528146">
        <ele>450.49400000000003</ele>
        <time>2015-08-22T12:26:25Z</time>
      </trkpt>
      <trkpt lat="42.850956972688437" lon="-1.624144027009606">
        <ele>450.46699999999998</ele>
        <time>2015-08-22T12:26:32Z</time>
      </trkpt>
      <trkpt lat="42.850710041821003" lon="-1.624348964542151">
        <ele>450.47000000000003</ele>
        <time>2015-08-22T12:26:38Z</time>
      </trkpt>
      <trkpt lat="42.850638041272759" lon="-1.624419959262013">
        <ele>450.43099999999998</ele>
        <time>2015-08-22T12:26:40Z</time>
      </trkpt>
      <trkpt lat="42.850480964407325" lon="-1.624568989500403">
        <ele>450.46800000000002</ele>
        <time>2015-08-22T12:26:44Z</time>
      </trkpt>
      <trkpt lat="42.850240990519524" lon="-1.624821033328772">
        <ele>450.41199999999998</ele>
        <time>2015-08-22T12:26:50Z</time>
      </trkpt>
      <trkpt lat="42.850077962502837" lon="-1.624928992241621">
        <ele>450.43200000000002</ele>
        <time>2015-08-22T12:26:53Z</time>
      </trkpt>
      <trkpt lat="42.84995399415493" lon="-1.624977020546794">
        <ele>450.40499999999997</ele>
        <time>2015-08-22T12:26:55Z</time>
      </trkpt>
      <trkpt lat="42.849777974188328" lon="-1.625049021095038">
        <ele>450.00799999999998</ele>
        <time>2015-08-22T12:26:58Z</time>
      </trkpt>
      <trkpt lat="42.849729023873806" lon="-1.625072993338108">
        <ele>449.21199999999999</ele>
        <time>2015-08-22T12:26:59Z</time>
      </trkpt>
      <trkpt lat="42.849679989740252" lon="-1.625101994723082">
        <ele>448.88099999999997</ele>
        <time>2015-08-22T12:27:00Z</time>
      </trkpt>
      <trkpt lat="42.84963196143508" lon="-1.625134013593197">
        <ele>448.48700000000002</ele>
        <time>2015-08-22T12:27:01Z</time>
      </trkpt>
      <trkpt lat="42.84958896227181" lon="-1.625170977786183">
        <ele>448.43099999999998</ele>
        <time>2015-08-22T12:27:02Z</time>
      </trkpt>
      <trkpt lat="42.849381007254124" lon="-1.625369964167476">
        <ele>448.45400000000001</ele>
        <time>2015-08-22T12:27:07Z</time>
      </trkpt>
      <trkpt lat="42.849236000329256" lon="-1.625455962494016">
        <ele>448.49700000000001</ele>
        <time>2015-08-22T12:27:10Z</time>
      </trkpt>
      <trkpt lat="42.849087975919247" lon="-1.625547995790839">
        <ele>448.49799999999999</ele>
        <time>2015-08-22T12:27:13Z</time>
      </trkpt>
      <trkpt lat="42.848880020901561" lon="-1.625627037137747">
        <ele>448.495</ele>
        <time>2015-08-22T12:27:17Z</time>
      </trkpt>
      <trkpt lat="42.84877197816968" lon="-1.625639023259282">
        <ele>448.43599999999998</ele>
        <time>2015-08-22T12:27:19Z</time>
      </trkpt>
      <trkpt lat="42.848672987893224" lon="-1.625621002167463">
        <ele>448.41699999999997</ele>
        <time>2015-08-22T12:27:21Z</time>
      </trkpt>
      <trkpt lat="42.848583972081542" lon="-1.625600969418883">
        <ele>448.41800000000001</ele>
        <time>2015-08-22T12:27:23Z</time>
      </trkpt>
      <trkpt lat="42.848539967089891" lon="-1.625598035752773">
        <ele>448.40800000000002</ele>
        <time>2015-08-22T12:27:24Z</time>
      </trkpt>
      <trkpt lat="42.848346009850502" lon="-1.625627037137747">
        <ele>448.464</ele>
        <time>2015-08-22T12:27:28Z</time>
      </trkpt>
      <trkpt lat="42.848242996260524" lon="-1.625644974410534">
        <ele>448.44299999999998</ele>
        <time>2015-08-22T12:27:30Z</time>
      </trkpt>
      <trkpt lat="42.848051972687244" lon="-1.625667018815875">
        <ele>448.44900000000001</ele>
        <time>2015-08-22T12:27:35Z</time>
      </trkpt>
      <trkpt lat="42.847864972427487" lon="-1.625774977728725">
        <ele>448.46300000000002</ele>
        <time>2015-08-22T12:27:41Z</time>
      </trkpt>
      <trkpt lat="42.847822979092598" lon="-1.625792998820543">
        <ele>448.43599999999998</ele>
        <time>2015-08-22T12:27:42Z</time>
      </trkpt>
      <trkpt lat="42.84767696633935" lon="-1.625815965235233">
        <ele>448.44900000000001</ele>
        <time>2015-08-22T12:27:45Z</time>
      </trkpt>
      <trkpt lat="42.847314029932022" lon="-1.625795010477305">
        <ele>448.41000000000003</ele>
        <time>2015-08-22T12:27:52Z</time>
      </trkpt>
      <trkpt lat="42.84694598056376" lon="-1.625752011314035">
        <ele>448.42700000000002</ele>
        <time>2015-08-22T12:27:59Z</time>
      </trkpt>
      <trkpt lat="42.846728973090649" lon="-1.625719992443919">
        <ele>448.88299999999998</ele>
        <time>2015-08-22T12:28:03Z</time>
      </trkpt>
      <trkpt lat="42.846674993634224" lon="-1.625711023807526">
        <ele>449.42500000000001</ele>
        <time>2015-08-22T12:28:04Z</time>
      </trkpt>
      <trkpt lat="42.846624031662941" lon="-1.625699959695339">
        <ele>449.81700000000001</ele>
        <time>2015-08-22T12:28:05Z</time>
      </trkpt>
      <trkpt lat="42.846571980044246" lon="-1.625690991058946">
        <ele>449.40800000000002</ele>
        <time>2015-08-22T12:28:06Z</time>
      </trkpt>
      <trkpt lat="42.846523029729724" lon="-1.625682022422552">
        <ele>449.21899999999999</ele>
        <time>2015-08-22T12:28:07Z</time>
      </trkpt>
      <trkpt lat="42.84647399559617" lon="-1.625672969967127">
        <ele>449.09800000000001</ele>
        <time>2015-08-22T12:28:08Z</time>
      </trkpt>
      <trkpt lat="42.846424961462617" lon="-1.625664001330733">
        <ele>448.69400000000002</ele>
        <time>2015-08-22T12:28:09Z</time>
      </trkpt>
      <trkpt lat="42.846375005319715" lon="-1.625654026865959">
        <ele>448.44799999999998</ele>
        <time>2015-08-22T12:28:10Z</time>
      </trkpt>
      <trkpt lat="42.846227986738086" lon="-1.625604992732406">
        <ele>448.471</ele>
        <time>2015-08-22T12:28:13Z</time>
      </trkpt>
      <trkpt lat="42.846133019775152" lon="-1.625542966648936">
        <ele>448.49400000000003</ele>
        <time>2015-08-22T12:28:15Z</time>
      </trkpt>
      <trkpt lat="42.845776034519076" lon="-1.625262005254626">
        <ele>448.42500000000001</ele>
        <time>2015-08-22T12:28:23Z</time>
      </trkpt>
      <trkpt lat="42.845473028719425" lon="-1.6251200158149">
        <ele>448.42200000000003</ele>
        <time>2015-08-22T12:28:29Z</time>
      </trkpt>
      <trkpt lat="42.845029039308429" lon="-1.624888004735112">
        <ele>448.41300000000001</ele>
        <time>2015-08-22T12:28:38Z</time>
      </trkpt>
      <trkpt lat="42.844934994354844" lon="-1.624830001965165">
        <ele>448.44299999999998</ele>
        <time>2015-08-22T12:28:40Z</time>
      </trkpt>
      <trkpt lat="42.844757968559861" lon="-1.62466898560524">
        <ele>448.40699999999998</ele>
        <time>2015-08-22T12:28:44Z</time>
      </trkpt>
      <trkpt lat="42.844496034085751" lon="-1.624444015324116">
        <ele>448.40800000000002</ele>
        <time>2015-08-22T12:28:50Z</time>
      </trkpt>
      <trkpt lat="42.844322025775909" lon="-1.624258020892739">
        <ele>448.49200000000002</ele>
        <time>2015-08-22T12:28:54Z</time>
      </trkpt>
      <trkpt lat="42.844252958893776" lon="-1.624146038666368">
        <ele>448.45100000000002</ele>
        <time>2015-08-22T12:28:56Z</time>
      </trkpt>
      <trkpt lat="42.844126978889108" lon="-1.623911010101438">
        <ele>448.49700000000001</ele>
        <time>2015-08-22T12:29:00Z</time>
      </trkpt>
      <trkpt lat="42.844062019139528" lon="-1.623720992356539">
        <ele>448.411</ele>
        <time>2015-08-22T12:29:03Z</time>
      </trkpt>
      <trkpt lat="42.844049027189612" lon="-1.623655026778579">
        <ele>448.41399999999999</ele>
        <time>2015-08-22T12:29:04Z</time>
      </trkpt>
      <trkpt lat="42.8440220374614" lon="-1.623372975736857">
        <ele>448.42700000000002</ele>
        <time>2015-08-22T12:29:08Z</time>
      </trkpt>
      <trkpt lat="42.84393603913486" lon="-1.623114980757237">
        <ele>448.45800000000003</ele>
        <time>2015-08-22T12:29:12Z</time>
      </trkpt>
      <trkpt lat="42.843907037749887" lon="-1.623050021007657">
        <ele>448.44499999999999</ele>
        <time>2015-08-22T12:29:13Z</time>
      </trkpt>
      <trkpt lat="42.843764964491129" lon="-1.622737962752581">
        <ele>448.49599999999998</ele>
        <time>2015-08-22T12:29:18Z</time>
      </trkpt>
      <trkpt lat="42.843564972281456" lon="-1.622287016361952">
        <ele>448.43099999999998</ele>
        <time>2015-08-22T12:29:25Z</time>
      </trkpt>
      <trkpt lat="42.843532031401992" lon="-1.62222096696496">
        <ele>448.024</ele>
        <time>2015-08-22T12:29:26Z</time>
      </trkpt>
      <trkpt lat="42.843499006703496" lon="-1.62215399555862">
        <ele>447.608</ele>
        <time>2015-08-22T12:29:27Z</time>
      </trkpt>
      <trkpt lat="42.843463970348239" lon="-1.622086018323898">
        <ele>447.27999999999997</ele>
        <time>2015-08-22T12:29:28Z</time>
      </trkpt>
      <trkpt lat="42.843433963134885" lon="-1.622021980583668">
        <ele>446.46899999999999</ele>
        <time>2015-08-22T12:29:29Z</time>
      </trkpt>
      <trkpt lat="42.843375960364938" lon="-1.621883008629084">
        <ele>446.45499999999998</ele>
        <time>2015-08-22T12:29:31Z</time>
      </trkpt>
      <trkpt lat="42.843221984803677" lon="-1.621474977582693">
        <ele>446.49900000000002</ele>
        <time>2015-08-22T12:29:37Z</time>
      </trkpt>
      <trkpt lat="42.843159958720207" lon="-1.621280014514923">
        <ele>446.48200000000003</ele>
        <time>2015-08-22T12:29:40Z</time>
      </trkpt>
      <trkpt lat="42.843129029497504" lon="-1.621067030355334">
        <ele>446.47500000000002</ele>
        <time>2015-08-22T12:29:43Z</time>
      </trkpt>
      <trkpt lat="42.843148978427052" lon="-1.620768969878554">
        <ele>446.46600000000001</ele>
        <time>2015-08-22T12:29:47Z</time>
      </trkpt>
      <trkpt lat="42.843217961490154" lon="-1.620446015149355">
        <ele>446.47300000000001</ele>
        <time>2015-08-22T12:29:52Z</time>
      </trkpt>
      <trkpt lat="42.843236988410354" lon="-1.620389018207789">
        <ele>446.42700000000002</ele>
        <time>2015-08-22T12:29:53Z</time>
      </trkpt>
      <trkpt lat="42.843268001452088" lon="-1.620278963819146">
        <ele>446.86799999999999</ele>
        <time>2015-08-22T12:29:55Z</time>
      </trkpt>
      <trkpt lat="42.843279987573624" lon="-1.620223978534341">
        <ele>447.214</ele>
        <time>2015-08-22T12:29:56Z</time>
      </trkpt>
      <trkpt lat="42.843290967866778" lon="-1.620168993249536">
        <ele>447.80799999999999</ele>
        <time>2015-08-22T12:29:57Z</time>
      </trkpt>
      <trkpt lat="42.843303959816694" lon="-1.620111996307969">
        <ele>448.25299999999999</ele>
        <time>2015-08-22T12:29:58Z</time>
      </trkpt>
      <trkpt lat="42.843308988958597" lon="-1.620052987709642">
        <ele>448.67200000000003</ele>
        <time>2015-08-22T12:29:59Z</time>
      </trkpt>
      <trkpt lat="42.843317035585642" lon="-1.619993979111314">
        <ele>448.62799999999999</ele>
        <time>2015-08-22T12:30:00Z</time>
      </trkpt>
      <trkpt lat="42.843318041414022" lon="-1.619763979688287">
        <ele>448.61200000000002</ele>
        <time>2015-08-22T12:30:04Z</time>
      </trkpt>
      <trkpt lat="42.843302031978965" lon="-1.619653003290296">
        <ele>448.64499999999998</ele>
        <time>2015-08-22T12:30:06Z</time>
      </trkpt>
      <trkpt lat="42.84324998036027" lon="-1.619417974725366">
        <ele>448.26799999999997</ele>
        <time>2015-08-22T12:30:10Z</time>
      </trkpt>
      <trkpt lat="42.843244029209018" lon="-1.619360977783799">
        <ele>447.839</ele>
        <time>2015-08-22T12:30:11Z</time>
      </trkpt>
      <trkpt lat="42.843243023380637" lon="-1.619305992498994">
        <ele>447.476</ele>
        <time>2015-08-22T12:30:12Z</time>
      </trkpt>
      <trkpt lat="42.843248974531889" lon="-1.619250001385808">
        <ele>447.03399999999999</ele>
        <time>2015-08-22T12:30:13Z</time>
      </trkpt>
      <trkpt lat="42.843262972310185" lon="-1.619194010272622">
        <ele>446.65499999999997</ele>
        <time>2015-08-22T12:30:14Z</time>
      </trkpt>
      <trkpt lat="42.843277975916862" lon="-1.619138019159436">
        <ele>446.61000000000001</ele>
        <time>2015-08-22T12:30:15Z</time>
      </trkpt>
      <trkpt lat="42.843316029757261" lon="-1.618970967829227">
        <ele>446.608</ele>
        <time>2015-08-22T12:30:18Z</time>
      </trkpt>
      <trkpt lat="42.843331033363938" lon="-1.618852028623223">
        <ele>446.67399999999998</ele>
        <time>2015-08-22T12:30:20Z</time>
      </trkpt>
      <trkpt lat="42.84331301227212" lon="-1.618662010878325">
        <ele>446.673</ele>
        <time>2015-08-22T12:30:23Z</time>
      </trkpt>
      <trkpt lat="42.84320798702538" lon="-1.61841700784862">
        <ele>446.67899999999997</ele>
        <time>2015-08-22T12:30:28Z</time>
      </trkpt>
      <trkpt lat="42.843033978715539" lon="-1.618063040077686">
        <ele>446.673</ele>
        <time>2015-08-22T12:30:35Z</time>
      </trkpt>
      <trkpt lat="42.842984022572637" lon="-1.617966983467341">
        <ele>446.26600000000002</ele>
        <time>2015-08-22T12:30:37Z</time>
      </trkpt>
      <trkpt lat="42.842956027016044" lon="-1.617920966818929">
        <ele>445.86900000000003</ele>
        <time>2015-08-22T12:30:38Z</time>
      </trkpt>
      <trkpt lat="42.842925013974309" lon="-1.617878973484039">
        <ele>445.47000000000003</ele>
        <time>2015-08-22T12:30:39Z</time>
      </trkpt>
      <trkpt lat="42.842890983447433" lon="-1.617838991805911">
        <ele>445.04700000000003</ele>
        <time>2015-08-22T12:30:40Z</time>
      </trkpt>
      <trkpt lat="42.842857958748937" lon="-1.617800015956163">
        <ele>444.69499999999999</ele>
        <time>2015-08-22T12:30:41Z</time>
      </trkpt>
      <trkpt lat="42.842822000384331" lon="-1.617753999307752">
        <ele>444.649</ele>
        <time>2015-08-22T12:30:42Z</time>
      </trkpt>
      <trkpt lat="42.842729967087507" lon="-1.617605974897742">
        <ele>444.62299999999999</ele>
        <time>2015-08-22T12:30:45Z</time>
      </trkpt>
      <trkpt lat="42.842675987631083" lon="-1.617501033470035">
        <ele>444.608</ele>
        <time>2015-08-22T12:30:47Z</time>
      </trkpt>
      <trkpt lat="42.84249703399837" lon="-1.617082022130489">
        <ele>444.62</ele>
        <time>2015-08-22T12:30:54Z</time>
      </trkpt>
      <trkpt lat="42.842372981831431" lon="-1.616686983034015">
        <ele>444.62900000000002</ele>
        <time>2015-08-22T12:31:00Z</time>
      </trkpt>
      <trkpt lat="42.842365019023418" lon="-1.616617999970913">
        <ele>444.63499999999999</ele>
        <time>2015-08-22T12:31:01Z</time>
      </trkpt>
      <trkpt lat="42.842380022630095" lon="-1.616335026919842">
        <ele>444.65899999999999</ele>
        <time>2015-08-22T12:31:05Z</time>
      </trkpt>
      <trkpt lat="42.84241002984345" lon="-1.616193037480116">
        <ele>444.66199999999998</ele>
        <time>2015-08-22T12:31:07Z</time>
      </trkpt>
      <trkpt lat="42.842468032613397" lon="-1.616020034998655">
        <ele>444.61500000000001</ele>
        <time>2015-08-22T12:31:10Z</time>
      </trkpt>
      <trkpt lat="42.842490999028087" lon="-1.615974018350244">
        <ele>444.64600000000002</ele>
        <time>2015-08-22T12:31:11Z</time>
      </trkpt>
      <trkpt lat="42.842579009011388" lon="-1.615833034738898">
        <ele>444.65300000000002</ele>
        <time>2015-08-22T12:31:15Z</time>
      </trkpt>
      <trkpt lat="42.842653021216393" lon="-1.615663971751928">
        <ele>444.625</ele>
        <time>2015-08-22T12:31:20Z</time>
      </trkpt>
      <trkpt lat="42.842728961259127" lon="-1.615506978705525">
        <ele>444.62599999999998</ele>
        <time>2015-08-22T12:31:24Z</time>
      </trkpt>
      <trkpt lat="42.842898024246097" lon="-1.615187041461468">
        <ele>443.80799999999999</ele>
        <time>2015-08-22T12:31:32Z</time>
      </trkpt>
      <trkpt lat="42.842912022024393" lon="-1.615142030641437">
        <ele>443.40800000000002</ele>
        <time>2015-08-22T12:31:33Z</time>
      </trkpt>
      <trkpt lat="42.842929037287831" lon="-1.615097019821405">
        <ele>443.06299999999999</ele>
        <time>2015-08-22T12:31:34Z</time>
      </trkpt>
      <trkpt lat="42.84294898621738" lon="-1.615052009001374">
        <ele>442.66199999999998</ele>
        <time>2015-08-22T12:31:35Z</time>
      </trkpt>
      <trkpt lat="42.842983016744256" lon="-1.614953018724918">
        <ele>442.61799999999999</ele>
        <time>2015-08-22T12:31:37Z</time>
      </trkpt>
      <trkpt lat="42.843125006183982" lon="-1.614675996825099">
        <ele>442.642</ele>
        <time>2015-08-22T12:31:42Z</time>
      </trkpt>
      <trkpt lat="42.843161970376968" lon="-1.614628974348307">
        <ele>442.625</ele>
        <time>2015-08-22T12:31:43Z</time>
      </trkpt>
      <trkpt lat="42.843319969251752" lon="-1.614468963816762">
        <ele>442.66800000000001</ele>
        <time>2015-08-22T12:31:47Z</time>
      </trkpt>
      <trkpt lat="42.843564972281456" lon="-1.614318005740643">
        <ele>442.62900000000002</ele>
        <time>2015-08-22T12:31:52Z</time>
      </trkpt>
      <trkpt lat="42.843619035556912" lon="-1.614287998527288">
        <ele>442.68599999999998</ele>
        <time>2015-08-22T12:31:53Z</time>
      </trkpt>
      <trkpt lat="42.843705033883452" lon="-1.614223038777709">
        <ele>442.66199999999998</ele>
        <time>2015-08-22T12:31:55Z</time>
      </trkpt>
      <trkpt lat="42.843778962269425" lon="-1.614128993824124">
        <ele>441.88299999999998</ele>
        <time>2015-08-22T12:31:57Z</time>
      </trkpt>
      <trkpt lat="42.843825984746218" lon="-1.614124970510602">
        <ele>441.411</ele>
        <time>2015-08-22T12:31:58Z</time>
      </trkpt>
      <trkpt lat="42.843869989737868" lon="-1.614134022966027">
        <ele>441.00799999999998</ele>
        <time>2015-08-22T12:31:59Z</time>
      </trkpt>
      <trkpt lat="42.843904020264745" lon="-1.614154977723956">
        <ele>440.637</ele>
        <time>2015-08-22T12:32:00Z</time>
      </trkpt>
      <trkpt lat="42.843940984457731" lon="-1.614228989928961">
        <ele>440.67599999999999</ele>
        <time>2015-08-22T12:32:02Z</time>
      </trkpt>
      <trkpt lat="42.843957999721169" lon="-1.614271989092231">
        <ele>440.65199999999999</ele>
        <time>2015-08-22T12:32:03Z</time>
      </trkpt>
      <trkpt lat="42.843992030248046" lon="-1.614358993247151">
        <ele>440.69600000000003</ele>
        <time>2015-08-22T12:32:05Z</time>
      </trkpt>
      <trkpt lat="42.844008039683104" lon="-1.614400986582041">
        <ele>441.06900000000002</ele>
        <time>2015-08-22T12:32:06Z</time>
      </trkpt>
      <trkpt lat="42.844020025804639" lon="-1.614443985745311">
        <ele>441.44200000000001</ele>
        <time>2015-08-22T12:32:07Z</time>
      </trkpt>
      <trkpt lat="42.84402497112751" lon="-1.614481033757329">
        <ele>441.85300000000001</ele>
        <time>2015-08-22T12:32:08Z</time>
      </trkpt>
      <trkpt lat="42.844008039683104" lon="-1.614510035142303">
        <ele>442.49000000000001</ele>
        <time>2015-08-22T12:32:09Z</time>
      </trkpt>
      <trkpt lat="42.843985995277762" lon="-1.614517997950316">
        <ele>442.84399999999999</ele>
        <time>2015-08-22T12:32:10Z</time>
      </trkpt>
      <trkpt lat="42.843967974185944" lon="-1.614502994343638">
        <ele>442.80500000000001</ele>
        <time>2015-08-22T12:32:11Z</time>
      </trkpt>
      <trkpt lat="42.843915000557899" lon="-1.614381037652493">
        <ele>442.815</ele>
        <time>2015-08-22T12:32:14Z</time>
      </trkpt>
      <trkpt lat="42.843896979466081" lon="-1.61433300934732">
        <ele>443.20800000000003</ele>
        <time>2015-08-22T12:32:15Z</time>
      </trkpt>
      <trkpt lat="42.843880970031023" lon="-1.614286992698908">
        <ele>443.63499999999999</ele>
        <time>2015-08-22T12:32:16Z</time>
      </trkpt>
      <trkpt lat="42.843864038586617" lon="-1.614240976050496">
        <ele>444.084</ele>
        <time>2015-08-22T12:32:17Z</time>
      </trkpt>
      <trkpt lat="42.843849034979939" lon="-1.614194959402084">
        <ele>444.44999999999999</ele>
        <time>2015-08-22T12:32:18Z</time>
      </trkpt>
      <trkpt lat="42.843834031373262" lon="-1.614151038229466">
        <ele>444.89400000000001</ele>
        <time>2015-08-22T12:32:19Z</time>
      </trkpt>
      <trkpt lat="42.843803018331528" lon="-1.614068979397416">
        <ele>444.83699999999999</ele>
        <time>2015-08-22T12:32:21Z</time>
      </trkpt>
      <trkpt lat="42.843676032498479" lon="-1.613783994689584">
        <ele>444.82999999999998</ele>
        <time>2015-08-22T12:32:28Z</time>
      </trkpt>
      <trkpt lat="42.843629010021687" lon="-1.613619038835168">
        <ele>444.851</ele>
        <time>2015-08-22T12:32:32Z</time>
      </trkpt>
      <trkpt lat="42.843651976436377" lon="-1.613586014136672">
        <ele>444.81799999999998</ele>
        <time>2015-08-22T12:32:33Z</time>
      </trkpt>
      <trkpt lat="42.843776028603315" lon="-1.613522982224822">
        <ele>444.89800000000002</ele>
        <time>2015-08-22T12:32:36Z</time>
      </trkpt>
      <trkpt lat="42.843944001942873" lon="-1.61343002691865">
        <ele>444.815</ele>
        <time>2015-08-22T12:32:39Z</time>
      </trkpt>
      <trkpt lat="42.844006028026342" lon="-1.613393984735012">
        <ele>444.82600000000002</ele>
        <time>2015-08-22T12:32:40Z</time>
      </trkpt>
      <trkpt lat="42.844185987487435" lon="-1.613298011943698">
        <ele>444.40800000000002</ele>
        <time>2015-08-22T12:32:43Z</time>
      </trkpt>
      <trkpt lat="42.844242984429002" lon="-1.613264987245202">
        <ele>444.06999999999999</ele>
        <time>2015-08-22T12:32:44Z</time>
      </trkpt>
      <trkpt lat="42.844296041876078" lon="-1.613231040537357">
        <ele>443.46899999999999</ele>
        <time>2015-08-22T12:32:45Z</time>
      </trkpt>
      <trkpt lat="42.844348009675741" lon="-1.613202961161733">
        <ele>442.63499999999999</ele>
        <time>2015-08-22T12:32:46Z</time>
      </trkpt>
      <trkpt lat="42.844783030450344" lon="-1.612971033900976">
        <ele>442.66899999999998</ele>
        <time>2015-08-22T12:32:54Z</time>
      </trkpt>
      <trkpt lat="42.845105985179543" lon="-1.612785961478949">
        <ele>442.61200000000002</ele>
        <time>2015-08-22T12:33:00Z</time>
      </trkpt>
      <trkpt lat="42.845384012907743" lon="-1.612612036988139">
        <ele>442.65499999999997</ele>
        <time>2015-08-22T12:33:05Z</time>
      </trkpt>
      <trkpt lat="42.84550404176116" lon="-1.61255001090467">
        <ele>442.61599999999999</ele>
        <time>2015-08-22T12:33:07Z</time>
      </trkpt>
      <trkpt lat="42.845561960712075" lon="-1.612525032833219">
        <ele>442.673</ele>
        <time>2015-08-22T12:33:08Z</time>
      </trkpt>
      <trkpt lat="42.845674026757479" lon="-1.612475998699665">
        <ele>442.298</ele>
        <time>2015-08-22T12:33:10Z</time>
      </trkpt>
      <trkpt lat="42.845724988728762" lon="-1.612445991486311">
        <ele>441.41500000000002</ele>
        <time>2015-08-22T12:33:11Z</time>
      </trkpt>
      <trkpt lat="42.845776034519076" lon="-1.612403998151422">
        <ele>440.82600000000002</ele>
        <time>2015-08-22T12:33:12Z</time>
      </trkpt>
      <trkpt lat="42.845820961520076" lon="-1.61235798150301">
        <ele>440.40800000000002</ele>
        <time>2015-08-22T12:33:13Z</time>
      </trkpt>
      <trkpt lat="42.845911988988519" lon="-1.612190008163452">
        <ele>440.44</ele>
        <time>2015-08-22T12:33:16Z</time>
      </trkpt>
      <trkpt lat="42.84593403339386" lon="-1.612130999565125">
        <ele>440.46899999999999</ele>
        <time>2015-08-22T12:33:17Z</time>
      </trkpt>
      <trkpt lat="42.845948031172156" lon="-1.612074002623558">
        <ele>440.45499999999998</ele>
        <time>2015-08-22T12:33:18Z</time>
      </trkpt>
      <trkpt lat="42.845975020900369" lon="-1.611881973221898">
        <ele>440.43900000000002</ele>
        <time>2015-08-22T12:33:21Z</time>
      </trkpt>
      <trkpt lat="42.846033023670316" lon="-1.611501015722752">
        <ele>440.44200000000001</ele>
        <time>2015-08-22T12:33:27Z</time>
      </trkpt>
      <trkpt lat="42.846034029498696" lon="-1.611430021002889">
        <ele>440.435</ele>
        <time>2015-08-22T12:33:28Z</time>
      </trkpt>
      <trkpt lat="42.846055990085006" lon="-1.611171020194888">
        <ele>440.45600000000002</ele>
        <time>2015-08-22T12:33:32Z</time>
      </trkpt>
      <trkpt lat="42.846070993691683" lon="-1.611108994111419">
        <ele>440.47300000000001</ele>
        <time>2015-08-22T12:33:33Z</time>
      </trkpt>
      <trkpt lat="42.84610703587532" lon="-1.610855022445321">
        <ele>440.43200000000002</ele>
        <time>2015-08-22T12:33:37Z</time>
      </trkpt>
      <trkpt lat="42.846103012561798" lon="-1.610795008018613">
        <ele>440.49200000000002</ele>
        <time>2015-08-22T12:33:38Z</time>
      </trkpt>
      <trkpt lat="42.84608700312674" lon="-1.610675984993577">
        <ele>440.411</ele>
        <time>2015-08-22T12:33:40Z</time>
      </trkpt>
      <trkpt lat="42.846034029498696" lon="-1.610378008335829">
        <ele>440.40800000000002</ele>
        <time>2015-08-22T12:33:45Z</time>
      </trkpt>
      <trkpt lat="42.845939984545112" lon="-1.609905017539859">
        <ele>440.43400000000003</ele>
        <time>2015-08-22T12:33:53Z</time>
      </trkpt>
      <trkpt lat="42.845902014523745" lon="-1.609720028936863">
        <ele>440.41300000000001</ele>
        <time>2015-08-22T12:33:56Z</time>
      </trkpt>
      <trkpt lat="42.845884999260306" lon="-1.609525987878442">
        <ele>440.459</ele>
        <time>2015-08-22T12:33:59Z</time>
      </trkpt>
      <trkpt lat="42.845832025632262" lon="-1.609273022040725">
        <ele>440.423</ele>
        <time>2015-08-22T12:34:03Z</time>
      </trkpt>
      <trkpt lat="42.845768993720412" lon="-1.609167996793985">
        <ele>440.416</ele>
        <time>2015-08-22T12:34:05Z</time>
      </trkpt>
      <trkpt lat="42.8455900400877" lon="-1.609029024839401">
        <ele>440.47899999999998</ele>
        <time>2015-08-22T12:34:09Z</time>
      </trkpt>
      <trkpt lat="42.845519967377186" lon="-1.608929028734565">
        <ele>440.44</ele>
        <time>2015-08-22T12:34:11Z</time>
      </trkpt>
      <trkpt lat="42.845433969050646" lon="-1.608829032629728">
        <ele>440.49700000000001</ele>
        <time>2015-08-22T12:34:13Z</time>
      </trkpt>
      <trkpt lat="42.845199024304748" lon="-1.608643038198352">
        <ele>440.46300000000002</ele>
        <time>2015-08-22T12:34:18Z</time>
      </trkpt>
      <trkpt lat="42.844977993518114" lon="-1.608503982424736">
        <ele>440.44400000000002</ele>
        <time>2015-08-22T12:34:23Z</time>
      </trkpt>
      <trkpt lat="42.844760986045003" lon="-1.608505994081497">
        <ele>440.41800000000001</ele>
        <time>2015-08-22T12:34:28Z</time>
      </trkpt>
      <trkpt lat="42.844555964693427" lon="-1.608542036265135">
        <ele>440.40800000000002</ele>
        <time>2015-08-22T12:34:32Z</time>
      </trkpt>
      <trkpt lat="42.844494022428989" lon="-1.608641026541591">
        <ele>440.49700000000001</ele>
        <time>2015-08-22T12:34:34Z</time>
      </trkpt>
      <trkpt lat="42.844481030479074" lon="-1.608842024579644">
        <ele>440.43599999999998</ele>
        <time>2015-08-22T12:34:37Z</time>
      </trkpt>
      <trkpt lat="42.844482958316803" lon="-1.608912013471127">
        <ele>440.42200000000003</ele>
        <time>2015-08-22T12:34:38Z</time>
      </trkpt>
      <trkpt lat="42.844479018822312" lon="-1.608975967392325">
        <ele>440.46600000000001</ele>
        <time>2015-08-22T12:34:39Z</time>
      </trkpt>
      <trkpt lat="42.8444520290941" lon="-1.609161039814353">
        <ele>440.44900000000001</ele>
        <time>2015-08-22T12:34:42Z</time>
      </trkpt>
      <trkpt lat="42.844427973031998" lon="-1.609316021203995">
        <ele>440.42200000000003</ele>
        <time>2015-08-22T12:34:45Z</time>
      </trkpt>
      <trkpt lat="42.844384973868728" lon="-1.6093710064888">
        <ele>440.43299999999999</ele>
        <time>2015-08-22T12:34:47Z</time>
      </trkpt>
      <trkpt lat="42.844253964722157" lon="-1.609377963468432">
        <ele>440.44999999999999</ele>
        <time>2015-08-22T12:34:51Z</time>
      </trkpt>
      <trkpt lat="42.844109041616321" lon="-1.609390033408999">
        <ele>440.464</ele>
        <time>2015-08-22T12:34:55Z</time>
      </trkpt>
      <trkpt lat="42.844036035239697" lon="-1.609396990388632">
        <ele>440.40600000000001</ele>
        <time>2015-08-22T12:34:57Z</time>
      </trkpt>
      <trkpt lat="42.843997981399298" lon="-1.609401013702154">
        <ele>440.81599999999997</ele>
        <time>2015-08-22T12:34:58Z</time>
      </trkpt>
      <trkpt lat="42.84395900554955" lon="-1.609404031187296">
        <ele>441.20800000000003</ele>
        <time>2015-08-22T12:34:59Z</time>
      </trkpt>
      <trkpt lat="42.843920029699802" lon="-1.609408976510167">
        <ele>441.86700000000002</ele>
        <time>2015-08-22T12:35:00Z</time>
      </trkpt>
      <trkpt lat="42.843880970031023" lon="-1.60941400565207">
        <ele>442.286</ele>
        <time>2015-08-22T12:35:01Z</time>
      </trkpt>
      <trkpt lat="42.843843000009656" lon="-1.609419034793973">
        <ele>442.642</ele>
        <time>2015-08-22T12:35:02Z</time>
      </trkpt>
      <trkpt lat="42.843689024448395" lon="-1.609424985945225">
        <ele>442.666</ele>
        <time>2015-08-22T12:35:06Z</time>
      </trkpt>
      <trkpt lat="42.843433963134885" lon="-1.609396990388632">
        <ele>442.68900000000002</ele>
        <time>2015-08-22T12:35:13Z</time>
      </trkpt>
      <trkpt lat="42.843192983418703" lon="-1.609378969296813">
        <ele>442.65199999999999</ele>
        <time>2015-08-22T12:35:19Z</time>
      </trkpt>
      <trkpt lat="42.84299299120903" lon="-1.609379975125194">
        <ele>442.613</ele>
        <time>2015-08-22T12:35:24Z</time>
      </trkpt>
      <trkpt lat="42.842800039798021" lon="-1.609358014538884">
        <ele>442.63999999999999</ele>
        <time>2015-08-22T12:35:29Z</time>
      </trkpt>
      <trkpt lat="42.842752011492848" lon="-1.609325995668769">
        <ele>442.62200000000001</ele>
        <time>2015-08-22T12:35:30Z</time>
      </trkpt>
      <trkpt lat="42.842611027881503" lon="-1.609175959601998">
        <ele>442.66199999999998</ele>
        <time>2015-08-22T12:35:33Z</time>
      </trkpt>
      <trkpt lat="42.842568028718233" lon="-1.609103037044406">
        <ele>442.00799999999998</ele>
        <time>2015-08-22T12:35:34Z</time>
      </trkpt>
      <trkpt lat="42.84254196099937" lon="-1.609043022617698">
        <ele>441.608</ele>
        <time>2015-08-22T12:35:35Z</time>
      </trkpt>
      <trkpt lat="42.842522012069821" lon="-1.608992982655764">
        <ele>441.053</ele>
        <time>2015-08-22T12:35:36Z</time>
      </trkpt>
      <trkpt lat="42.842506002634764" lon="-1.608957024291158">
        <ele>440.67200000000003</ele>
        <time>2015-08-22T12:35:37Z</time>
      </trkpt>
      <trkpt lat="42.842498039826751" lon="-1.608931962400675">
        <ele>440.03800000000001</ele>
        <time>2015-08-22T12:35:38Z</time>
      </trkpt>
      <trkpt lat="42.842474989593029" lon="-1.608872031792998">
        <ele>440.09199999999998</ele>
        <time>2015-08-22T12:35:41Z</time>
      </trkpt>
      <trkpt lat="42.842405000701547" lon="-1.608703974634409">
        <ele>440.09500000000003</ele>
        <time>2015-08-22T12:35:45Z</time>
      </trkpt>
      <trkpt lat="42.842368958517909" lon="-1.608646977692843">
        <ele>440.05799999999999</ele>
        <time>2015-08-22T12:35:46Z</time>
      </trkpt>
      <trkpt lat="42.842251025140285" lon="-1.608585035428405">
        <ele>440.04899999999998</ele>
        <time>2015-08-22T12:35:48Z</time>
      </trkpt>
      <trkpt lat="42.842125967144966" lon="-1.608587969094515">
        <ele>440.06599999999997</ele>
        <time>2015-08-22T12:35:50Z</time>
      </trkpt>
      <trkpt lat="42.842011973261833" lon="-1.608600039035082">
        <ele>440.04300000000001</ele>
        <time>2015-08-22T12:35:52Z</time>
      </trkpt>
      <trkpt lat="42.841740986332297" lon="-1.608568020164967">
        <ele>440.06400000000002</ele>
        <time>2015-08-22T12:35:57Z</time>
      </trkpt>
      <trkpt lat="42.841690024361014" lon="-1.60855301655829">
        <ele>439.61000000000001</ele>
        <time>2015-08-22T12:35:58Z</time>
      </trkpt>
      <trkpt lat="42.8416389785707" lon="-1.608538012951613">
        <ele>439.20800000000003</ele>
        <time>2015-08-22T12:35:59Z</time>
      </trkpt>
      <trkpt lat="42.841584999114275" lon="-1.608518986031413">
        <ele>438.815</ele>
        <time>2015-08-22T12:36:01Z</time>
      </trkpt>
      <trkpt lat="42.841538982465863" lon="-1.608498031273484">
        <ele>438.47399999999999</ele>
        <time>2015-08-22T12:36:02Z</time>
      </trkpt>
      <trkpt lat="42.841491959989071" lon="-1.608479004353285">
        <ele>438.04000000000002</ele>
        <time>2015-08-22T12:36:03Z</time>
      </trkpt>
      <trkpt lat="42.841452984139323" lon="-1.608450002968311">
        <ele>438.07400000000001</ele>
        <time>2015-08-22T12:36:04Z</time>
      </trkpt>
      <trkpt lat="42.841408979147673" lon="-1.608427036553621">
        <ele>438.077</ele>
        <time>2015-08-22T12:36:05Z</time>
      </trkpt>
      <trkpt lat="42.841136986389756" lon="-1.608271971344948">
        <ele>438.04000000000002</ele>
        <time>2015-08-22T12:36:11Z</time>
      </trkpt>
      <trkpt lat="42.841007988899946" lon="-1.608154037967324">
        <ele>438.08100000000002</ele>
        <time>2015-08-22T12:36:14Z</time>
      </trkpt>
      <trkpt lat="42.84088896587491" lon="-1.608010958880186">
        <ele>438.07799999999997</ele>
        <time>2015-08-22T12:36:17Z</time>
      </trkpt>
      <trkpt lat="42.840599035844207" lon="-1.607742989435792">
        <ele>438.089</ele>
        <time>2015-08-22T12:36:24Z</time>
      </trkpt>
      <trkpt lat="42.840320002287626" lon="-1.607619021087885">
        <ele>438.00599999999997</ele>
        <time>2015-08-22T12:36:30Z</time>
      </trkpt>
      <trkpt lat="42.839938038960099" lon="-1.607453981414437">
        <ele>438.02600000000001</ele>
        <time>2015-08-22T12:36:38Z</time>
      </trkpt>
      <trkpt lat="42.839741986244917" lon="-1.607398996129632">
        <ele>438.00799999999998</ele>
        <time>2015-08-22T12:36:42Z</time>
      </trkpt>
      <trkpt lat="42.839656993746758" lon="-1.607346022501588">
        <ele>438.029</ele>
        <time>2015-08-22T12:36:44Z</time>
      </trkpt>
      <trkpt lat="42.839580969884992" lon="-1.607275027781725">
        <ele>438.07799999999997</ele>
        <time>2015-08-22T12:36:46Z</time>
      </trkpt>
      <trkpt lat="42.839463036507368" lon="-1.607166985049844">
        <ele>438.01400000000001</ele>
        <time>2015-08-22T12:36:49Z</time>
      </trkpt>
      <trkpt lat="42.839420037344098" lon="-1.607143012806773">
        <ele>438.09800000000001</ele>
        <time>2015-08-22T12:36:50Z</time>
      </trkpt>
      <trkpt lat="42.839334961026907" lon="-1.607108982279897">
        <ele>438.041</ele>
        <time>2015-08-22T12:36:52Z</time>
      </trkpt>
      <trkpt lat="42.839248962700367" lon="-1.607086015865207">
        <ele>438.084</ele>
        <time>2015-08-22T12:36:54Z</time>
      </trkpt>
      <trkpt lat="42.838998008519411" lon="-1.606958024203777">
        <ele>438.04500000000002</ele>
        <time>2015-08-22T12:37:00Z</time>
      </trkpt>
      <trkpt lat="42.838770020753145" lon="-1.606815028935671">
        <ele>438.08199999999999</ele>
        <time>2015-08-22T12:37:06Z</time>
      </trkpt>
      <trkpt lat="42.83848000690341" lon="-1.606550998985767">
        <ele>438.072</ele>
        <time>2015-08-22T12:37:13Z</time>
      </trkpt>
      <trkpt lat="42.838278003036976" lon="-1.606322005391121">
        <ele>438.01299999999998</ele>
        <time>2015-08-22T12:37:18Z</time>
      </trkpt>
      <trkpt lat="42.83824497833848" lon="-1.606260985136032">
        <ele>438.01400000000001</ele>
        <time>2015-08-22T12:37:19Z</time>
      </trkpt>
      <trkpt lat="42.838140036910772" lon="-1.606006007641554">
        <ele>437.608</ele>
        <time>2015-08-22T12:37:23Z</time>
      </trkpt>
      <trkpt lat="42.838114975020289" lon="-1.605942975729704">
        <ele>437.26799999999997</ele>
        <time>2015-08-22T12:37:24Z</time>
      </trkpt>
      <trkpt lat="42.838098965585232" lon="-1.605882039293647">
        <ele>436.89699999999999</ele>
        <time>2015-08-22T12:37:25Z</time>
      </trkpt>
      <trkpt lat="42.8380729816854" lon="-1.60582797601819">
        <ele>436.44299999999998</ele>
        <time>2015-08-22T12:37:26Z</time>
      </trkpt>
      <trkpt lat="42.838052026927471" lon="-1.605777014046907">
        <ele>436.06700000000001</ele>
        <time>2015-08-22T12:37:27Z</time>
      </trkpt>
      <trkpt lat="42.838015984743834" lon="-1.605666037648916">
        <ele>436.01999999999998</ele>
        <time>2015-08-22T12:37:29Z</time>
      </trkpt>
      <trkpt lat="42.837896961718798" lon="-1.60531198605895">
        <ele>436.02300000000002</ele>
        <time>2015-08-22T12:37:36Z</time>
      </trkpt>
      <trkpt lat="42.837796965613961" lon="-1.605064971372485">
        <ele>436.48399999999998</ele>
        <time>2015-08-22T12:37:41Z</time>
      </trkpt>
      <trkpt lat="42.837778022512794" lon="-1.605014009401202">
        <ele>436.86099999999999</ele>
        <time>2015-08-22T12:37:42Z</time>
      </trkpt>
      <trkpt lat="42.837761007249355" lon="-1.604961035773158">
        <ele>437.65600000000001</ele>
        <time>2015-08-22T12:37:43Z</time>
      </trkpt>
      <trkpt lat="42.837741980329156" lon="-1.604904960840941">
        <ele>438.05900000000003</ele>
        <time>2015-08-22T12:37:44Z</time>
      </trkpt>
      <trkpt lat="42.837662016972899" lon="-1.604685019701719">
        <ele>438.01400000000001</ele>
        <time>2015-08-22T12:37:48Z</time>
      </trkpt>
      <trkpt lat="42.837559003382921" lon="-1.604370027780533">
        <ele>438.00799999999998</ele>
        <time>2015-08-22T12:37:54Z</time>
      </trkpt>
      <trkpt lat="42.837536036968231" lon="-1.604323005303741">
        <ele>438.06599999999997</ele>
        <time>2015-08-22T12:37:55Z</time>
      </trkpt>
      <trkpt lat="42.837422965094447" lon="-1.604138016700745">
        <ele>438.02499999999998</ele>
        <time>2015-08-22T12:37:59Z</time>
      </trkpt>
      <trkpt lat="42.837352976202965" lon="-1.604061992838979">
        <ele>438.03100000000001</ele>
        <time>2015-08-22T12:38:01Z</time>
      </trkpt>
      <trkpt lat="42.837120965123177" lon="-1.603834005072713">
        <ele>438.09500000000003</ele>
        <time>2015-08-22T12:38:07Z</time>
      </trkpt>
      <trkpt lat="42.836877973750234" lon="-1.603691009804606">
        <ele>438.06799999999998</ele>
        <time>2015-08-22T12:38:12Z</time>
      </trkpt>
      <trkpt lat="42.836595000699162" lon="-1.603584978729487">
        <ele>438.05099999999999</ele>
        <time>2015-08-22T12:38:18Z</time>
      </trkpt>
      <trkpt lat="42.836430966854095" lon="-1.603474002331495">
        <ele>438.08199999999999</ele>
        <time>2015-08-22T12:38:22Z</time>
      </trkpt>
      <trkpt lat="42.836355026811361" lon="-1.603407030925155">
        <ele>438.03899999999999</ele>
        <time>2015-08-22T12:38:24Z</time>
      </trkpt>
      <trkpt lat="42.83624698407948" lon="-1.603352967649698">
        <ele>438.04199999999997</ele>
        <time>2015-08-22T12:38:27Z</time>
      </trkpt>
      <trkpt lat="42.836210019886494" lon="-1.603369982913137">
        <ele>438.02199999999999</ele>
        <time>2015-08-22T12:38:28Z</time>
      </trkpt>
      <trkpt lat="42.8360940143466" lon="-1.603415999561548">
        <ele>438.01400000000001</ele>
        <time>2015-08-22T12:38:31Z</time>
      </trkpt>
      <trkpt lat="42.835827972739935" lon="-1.603521024808288">
        <ele>438.00799999999998</ele>
        <time>2015-08-22T12:38:38Z</time>
      </trkpt>
      <trkpt lat="42.83562102355063" lon="-1.603561006486416">
        <ele>438.09500000000003</ele>
        <time>2015-08-22T12:38:43Z</time>
      </trkpt>
      <trkpt lat="42.835465036332607" lon="-1.603564023971558">
        <ele>438.09399999999999</ele>
        <time>2015-08-22T12:38:46Z</time>
      </trkpt>
      <trkpt lat="42.83534400165081" lon="-1.603550026193261">
        <ele>438.06999999999999</ele>
        <time>2015-08-22T12:38:48Z</time>
      </trkpt>
      <trkpt lat="42.835224978625774" lon="-1.603520018979907">
        <ele>438.024</ele>
        <time>2015-08-22T12:38:50Z</time>
      </trkpt>
      <trkpt lat="42.835093969479203" lon="-1.603485988453031">
        <ele>438.09699999999998</ele>
        <time>2015-08-22T12:38:53Z</time>
      </trkpt>
      <trkpt lat="42.834967989474535" lon="-1.603370988741517">
        <ele>438.06</ele>
        <time>2015-08-22T12:38:58Z</time>
      </trkpt>
      <trkpt lat="42.834904035553336" lon="-1.603313991799951">
        <ele>438.09100000000001</ele>
        <time>2015-08-22T12:39:01Z</time>
      </trkpt>
      <trkpt lat="42.834821976721287" lon="-1.603276021778584">
        <ele>438.048</ele>
        <time>2015-08-22T12:39:04Z</time>
      </trkpt>
      <trkpt lat="42.834703959524632" lon="-1.603283984586597">
        <ele>438.02499999999998</ele>
        <time>2015-08-22T12:39:07Z</time>
      </trkpt>
      <trkpt lat="42.834661966189742" lon="-1.603279961273074">
        <ele>438.02600000000001</ele>
        <time>2015-08-22T12:39:08Z</time>
      </trkpt>
      <trkpt lat="42.834577979519963" lon="-1.603279039263725">
        <ele>438.00799999999998</ele>
        <time>2015-08-22T12:39:10Z</time>
      </trkpt>
      <trkpt lat="42.834485024213791" lon="-1.603268980979919">
        <ele>438.00799999999998</ele>
        <time>2015-08-22T12:39:12Z</time>
      </trkpt>
      <trkpt lat="42.834374969825149" lon="-1.603232016786933">
        <ele>438.09300000000002</ele>
        <time>2015-08-22T12:39:14Z</time>
      </trkpt>
      <trkpt lat="42.834208002313972" lon="-1.603196980431676">
        <ele>438.012</ele>
        <time>2015-08-22T12:39:17Z</time>
      </trkpt>
      <trkpt lat="42.834038017317653" lon="-1.603174014016986">
        <ele>437.49799999999999</ele>
        <time>2015-08-22T12:39:20Z</time>
      </trkpt>
      <trkpt lat="42.833993006497622" lon="-1.603163033723831">
        <ele>437.04199999999997</ele>
        <time>2015-08-22T12:39:21Z</time>
      </trkpt>
      <trkpt lat="42.833955036476254" lon="-1.603139983490109">
        <ele>436.02499999999998</ele>
        <time>2015-08-22T12:39:22Z</time>
      </trkpt>
      <trkpt lat="42.833911031484604" lon="-1.603109976276755">
        <ele>435.47800000000001</ele>
        <time>2015-08-22T12:39:23Z</time>
      </trkpt>
      <trkpt lat="42.833866020664573" lon="-1.60309799015522">
        <ele>435.41899999999998</ele>
        <time>2015-08-22T12:39:24Z</time>
      </trkpt>
      <trkpt lat="42.833820004016161" lon="-1.603087009862065">
        <ele>435.07600000000002</ele>
        <time>2015-08-22T12:39:25Z</time>
      </trkpt>
      <trkpt lat="42.833767030388117" lon="-1.603078963235021">
        <ele>434.69600000000003</ele>
        <time>2015-08-22T12:39:26Z</time>
      </trkpt>
      <trkpt lat="42.833716990426183" lon="-1.603077035397291">
        <ele>434.23099999999999</ele>
        <time>2015-08-22T12:39:27Z</time>
      </trkpt>
      <trkpt lat="42.833665022626519" lon="-1.603078963235021">
        <ele>433.82400000000001</ele>
        <time>2015-08-22T12:39:28Z</time>
      </trkpt>
      <trkpt lat="42.833610959351063" lon="-1.603074017912149">
        <ele>433.40800000000002</ele>
        <time>2015-08-22T12:39:29Z</time>
      </trkpt>
      <trkpt lat="42.833566032350063" lon="-1.603064965456724">
        <ele>433.47000000000003</ele>
        <time>2015-08-22T12:39:30Z</time>
      </trkpt>
      <trkpt lat="42.83345396630466" lon="-1.602962035685778">
        <ele>433.43900000000002</ele>
        <time>2015-08-22T12:39:33Z</time>
      </trkpt>
      <trkpt lat="42.833407027646899" lon="-1.602792972698808">
        <ele>433.47500000000002</ele>
        <time>2015-08-22T12:39:36Z</time>
      </trkpt>
      <trkpt lat="42.833397975191474" lon="-1.602673027664423">
        <ele>433.42899999999997</ele>
        <time>2015-08-22T12:39:38Z</time>
      </trkpt>
      <trkpt lat="42.833374002948403" lon="-1.60249499604106">
        <ele>433.44200000000001</ele>
        <time>2015-08-22T12:39:41Z</time>
      </trkpt>
      <trkpt lat="42.833355981856585" lon="-1.602381002157927">
        <ele>433.47500000000002</ele>
        <time>2015-08-22T12:39:43Z</time>
      </trkpt>
      <trkpt lat="42.833341984078288" lon="-1.602207999676466">
        <ele>433.49599999999998</ele>
        <time>2015-08-22T12:39:46Z</time>
      </trkpt>
      <trkpt lat="42.833314994350076" lon="-1.602028962224722">
        <ele>433.483</ele>
        <time>2015-08-22T12:39:49Z</time>
      </trkpt>
      <trkpt lat="42.833217009902" lon="-1.601574998348951">
        <ele>433.48500000000001</ele>
        <time>2015-08-22T12:39:57Z</time>
      </trkpt>
      <trkpt lat="42.833070997148752" lon="-1.601459998637438">
        <ele>433.48899999999998</ele>
        <time>2015-08-22T12:40:01Z</time>
      </trkpt>
      <trkpt lat="42.832896988838911" lon="-1.601492017507553">
        <ele>433.017</ele>
        <time>2015-08-22T12:40:05Z</time>
      </trkpt>
      <trkpt lat="42.832857007160783" lon="-1.601525964215398">
        <ele>432.608</ele>
        <time>2015-08-22T12:40:06Z</time>
      </trkpt>
      <trkpt lat="42.832819959148765" lon="-1.601567035540938">
        <ele>432.26900000000001</ele>
        <time>2015-08-22T12:40:07Z</time>
      </trkpt>
      <trkpt lat="42.832779977470636" lon="-1.601605005562306">
        <ele>431.87799999999999</ele>
        <time>2015-08-22T12:40:08Z</time>
      </trkpt>
      <trkpt lat="42.832736978307366" lon="-1.601640963926911">
        <ele>431.41399999999999</ele>
        <time>2015-08-22T12:40:09Z</time>
      </trkpt>
      <trkpt lat="42.832693979144096" lon="-1.601681029424071">
        <ele>431.45800000000003</ele>
        <time>2015-08-22T12:40:10Z</time>
      </trkpt>
      <trkpt lat="42.832282008603215" lon="-1.602011024951935">
        <ele>431.471</ele>
        <time>2015-08-22T12:40:19Z</time>
      </trkpt>
      <trkpt lat="42.832148987799883" lon="-1.602127030491829">
        <ele>431.44400000000002</ele>
        <time>2015-08-22T12:40:22Z</time>
      </trkpt>
      <trkpt lat="42.832016972824931" lon="-1.60223700106144">
        <ele>431.47500000000002</ele>
        <time>2015-08-22T12:40:25Z</time>
      </trkpt>
      <trkpt lat="42.831698041409254" lon="-1.60249600186944">
        <ele>431.49200000000002</ele>
        <time>2015-08-22T12:40:32Z</time>
      </trkpt>
      <trkpt lat="42.831379026174545" lon="-1.602764977142215">
        <ele>431.47800000000001</ele>
        <time>2015-08-22T12:40:39Z</time>
      </trkpt>
      <trkpt lat="42.831099992617965" lon="-1.602990031242371">
        <ele>431.43299999999999</ele>
        <time>2015-08-22T12:40:45Z</time>
      </trkpt>
      <trkpt lat="42.830682992935181" lon="-1.603321032598615">
        <ele>431.42599999999999</ele>
        <time>2015-08-22T12:40:54Z</time>
      </trkpt>
      <trkpt lat="42.830331036821008" lon="-1.603600988164544">
        <ele>431.40800000000002</ele>
        <time>2015-08-22T12:41:02Z</time>
      </trkpt>
      <trkpt lat="42.830296000465751" lon="-1.603632001206279">
        <ele>431.46800000000002</ele>
        <time>2015-08-22T12:41:03Z</time>
      </trkpt>
      <trkpt lat="42.83018502406776" lon="-1.603734008967876">
        <ele>431.41699999999997</ele>
        <time>2015-08-22T12:41:06Z</time>
      </trkpt>
      <trkpt lat="42.830144036561251" lon="-1.603749012574554">
        <ele>431.01299999999998</ele>
        <time>2015-08-22T12:41:07Z</time>
      </trkpt>
      <trkpt lat="42.830104976892471" lon="-1.603749012574554">
        <ele>430.67700000000002</ele>
        <time>2015-08-22T12:41:08Z</time>
      </trkpt>
      <trkpt lat="42.830073041841388" lon="-1.603730991482735">
        <ele>430.26999999999998</ele>
        <time>2015-08-22T12:41:09Z</time>
      </trkpt>
      <trkpt lat="42.830047979950905" lon="-1.603704001754522">
        <ele>429.863</ele>
        <time>2015-08-22T12:41:10Z</time>
      </trkpt>
      <trkpt lat="42.830030964687467" lon="-1.603667959570885">
        <ele>429.45400000000001</ele>
        <time>2015-08-22T12:41:11Z</time>
      </trkpt>
      <trkpt lat="42.830021996051073" lon="-1.603546002879739">
        <ele>429.45100000000002</ele>
        <time>2015-08-22T12:41:14Z</time>
      </trkpt>
      <trkpt lat="42.830017972737551" lon="-1.603504009544849">
        <ele>429.44099999999997</ele>
        <time>2015-08-22T12:41:15Z</time>
      </trkpt>
      <trkpt lat="42.829985031858087" lon="-1.603294964879751">
        <ele>429.48099999999999</ele>
        <time>2015-08-22T12:41:20Z</time>
      </trkpt>
      <trkpt lat="42.8299739677459" lon="-1.603213995695114">
        <ele>429.40899999999999</ele>
        <time>2015-08-22T12:41:22Z</time>
      </trkpt>
      <trkpt lat="42.829964999109507" lon="-1.603173008188605">
        <ele>429.80799999999999</ele>
        <time>2015-08-22T12:41:23Z</time>
      </trkpt>
      <trkpt lat="42.829959969967604" lon="-1.603133026510477">
        <ele>430.21499999999997</ele>
        <time>2015-08-22T12:41:24Z</time>
      </trkpt>
      <trkpt lat="42.829953012987971" lon="-1.603091033175588">
        <ele>430.63400000000001</ele>
        <time>2015-08-22T12:41:25Z</time>
      </trkpt>
      <trkpt lat="42.829947983846068" lon="-1.603052979335189">
        <ele>431.49000000000001</ele>
        <time>2015-08-22T12:41:26Z</time>
      </trkpt>
      <trkpt lat="42.829945972189307" lon="-1.602934040129185">
        <ele>431.44400000000002</ele>
        <time>2015-08-22T12:41:29Z</time>
      </trkpt>
      <trkpt lat="42.829916970804334" lon="-1.602718038484454">
        <ele>431.48700000000002</ele>
        <time>2015-08-22T12:41:34Z</time>
      </trkpt>
      <trkpt lat="42.829905990511179" lon="-1.602627011016011">
        <ele>431.87</ele>
        <time>2015-08-22T12:41:36Z</time>
      </trkpt>
      <trkpt lat="42.829899033531547" lon="-1.6025809943676">
        <ele>432.23099999999999</ele>
        <time>2015-08-22T12:41:37Z</time>
      </trkpt>
      <trkpt lat="42.829896016046405" lon="-1.602534977719188">
        <ele>432.62799999999999</ele>
        <time>2015-08-22T12:41:38Z</time>
      </trkpt>
      <trkpt lat="42.829889981076121" lon="-1.602488961070776">
        <ele>433.21499999999997</ele>
        <time>2015-08-22T12:41:39Z</time>
      </trkpt>
      <trkpt lat="42.82988503575325" lon="-1.602445961907506">
        <ele>433.66500000000002</ele>
        <time>2015-08-22T12:41:40Z</time>
      </trkpt>
      <trkpt lat="42.829870032146573" lon="-1.602315036579967">
        <ele>433.61099999999999</ele>
        <time>2015-08-22T12:41:43Z</time>
      </trkpt>
      <trkpt lat="42.829847987741232" lon="-1.602143961936235">
        <ele>434.00799999999998</ele>
        <time>2015-08-22T12:41:47Z</time>
      </trkpt>
      <trkpt lat="42.82984396442771" lon="-1.602101968601346">
        <ele>434.47199999999998</ele>
        <time>2015-08-22T12:41:48Z</time>
      </trkpt>
      <trkpt lat="42.829840024933219" lon="-1.602059975266457">
        <ele>434.88099999999997</ele>
        <time>2015-08-22T12:41:49Z</time>
      </trkpt>
      <trkpt lat="42.829832984134555" lon="-1.602014964446425">
        <ele>435.697</ele>
        <time>2015-08-22T12:41:50Z</time>
      </trkpt>
      <trkpt lat="42.829783027991652" lon="-1.601769961416721">
        <ele>436.08100000000002</ele>
        <time>2015-08-22T12:41:56Z</time>
      </trkpt>
      <trkpt lat="42.829775987192988" lon="-1.601723022758961">
        <ele>436.41399999999999</ele>
        <time>2015-08-22T12:41:57Z</time>
      </trkpt>
      <trkpt lat="42.829767018556595" lon="-1.601680023595691">
        <ele>437.077</ele>
        <time>2015-08-22T12:41:58Z</time>
      </trkpt>
      <trkpt lat="42.829765006899834" lon="-1.60163501277566">
        <ele>437.41800000000001</ele>
        <time>2015-08-22T12:41:59Z</time>
      </trkpt>
      <trkpt lat="42.82975796610117" lon="-1.601590001955628">
        <ele>437.85500000000002</ele>
        <time>2015-08-22T12:42:00Z</time>
      </trkpt>
      <trkpt lat="42.829742040485144" lon="-1.601501991972327">
        <ele>437.88499999999999</ele>
        <time>2015-08-22T12:42:02Z</time>
      </trkpt>
      <trkpt lat="42.829639026895165" lon="-1.601122040301561">
        <ele>437.88900000000001</ele>
        <time>2015-08-22T12:42:11Z</time>
      </trkpt>
      <trkpt lat="42.82962603494525" lon="-1.601079041138291">
        <ele>438.21699999999998</ele>
        <time>2015-08-22T12:42:12Z</time>
      </trkpt>
      <trkpt lat="42.829609019681811" lon="-1.601041993126273">
        <ele>438.608</ele>
        <time>2015-08-22T12:42:13Z</time>
      </trkpt>
      <trkpt lat="42.829593010246754" lon="-1.601007040590048">
        <ele>439.06900000000002</ele>
        <time>2015-08-22T12:42:14Z</time>
      </trkpt>
      <trkpt lat="42.829581024125218" lon="-1.600968986749649">
        <ele>439.81799999999998</ele>
        <time>2015-08-22T12:42:15Z</time>
      </trkpt>
      <trkpt lat="42.829526038840413" lon="-1.600854992866516">
        <ele>439.81400000000002</ele>
        <time>2015-08-22T12:42:18Z</time>
      </trkpt>
      <trkpt lat="42.829347001388669" lon="-1.600493984296918">
        <ele>439.81799999999998</ele>
        <time>2015-08-22T12:42:27Z</time>
      </trkpt>
      <trkpt lat="42.829185985028744" lon="-1.600235989317298">
        <ele>439.86099999999999</ele>
        <time>2015-08-22T12:42:34Z</time>
      </trkpt>
      <trkpt lat="42.829115996137261" lon="-1.600129958242178">
        <ele>439.81400000000002</ele>
        <time>2015-08-22T12:42:37Z</time>
      </trkpt>
      <trkpt lat="42.828954979777336" lon="-1.599882021546364">
        <ele>439.815</ele>
        <time>2015-08-22T12:42:44Z</time>
      </trkpt>
      <trkpt lat="42.828822964802384" lon="-1.599675994366407">
        <ele>439.892</ele>
        <time>2015-08-22T12:42:50Z</time>
      </trkpt>
      <trkpt lat="42.828705031424761" lon="-1.599498968571425">
        <ele>439.82400000000001</ele>
        <time>2015-08-22T12:42:55Z</time>
      </trkpt>
      <trkpt lat="42.828652979806066" lon="-1.599431997165084">
        <ele>440.404</ele>
        <time>2015-08-22T12:42:57Z</time>
      </trkpt>
      <trkpt lat="42.828629007562995" lon="-1.599396960809827">
        <ele>440.81400000000002</ele>
        <time>2015-08-22T12:42:58Z</time>
      </trkpt>
      <trkpt lat="42.828606041148305" lon="-1.599364019930363">
        <ele>441.20800000000003</ele>
        <time>2015-08-22T12:42:59Z</time>
      </trkpt>
      <trkpt lat="42.828582990914583" lon="-1.599332001060247">
        <ele>441.68299999999999</ele>
        <time>2015-08-22T12:43:00Z</time>
      </trkpt>
      <trkpt lat="42.828561030328274" lon="-1.59929696470499">
        <ele>442.03199999999998</ele>
        <time>2015-08-22T12:43:01Z</time>
      </trkpt>
      <trkpt lat="42.828495986759663" lon="-1.599197974428535">
        <ele>442.08800000000002</ele>
        <time>2015-08-22T12:43:04Z</time>
      </trkpt>
      <trkpt lat="42.828356008976698" lon="-1.598976021632552">
        <ele>442.012</ele>
        <time>2015-08-22T12:43:11Z</time>
      </trkpt>
      <trkpt lat="42.828195998445153" lon="-1.598721966147423">
        <ele>442.09500000000003</ele>
        <time>2015-08-22T12:43:19Z</time>
      </trkpt>
      <trkpt lat="42.828106982633471" lon="-1.59860797226429">
        <ele>442.64800000000002</ele>
        <time>2015-08-22T12:43:23Z</time>
      </trkpt>
      <trkpt lat="42.828078987076879" lon="-1.598596991971135">
        <ele>443.04899999999998</ele>
        <time>2015-08-22T12:43:24Z</time>
      </trkpt>
      <trkpt lat="42.828051997348666" lon="-1.598597997799516">
        <ele>443.42599999999999</ele>
        <time>2015-08-22T12:43:25Z</time>
      </trkpt>
      <trkpt lat="42.828020984306931" lon="-1.598601015284658">
        <ele>443.87099999999998</ele>
        <time>2015-08-22T12:43:26Z</time>
      </trkpt>
      <trkpt lat="42.827991982921958" lon="-1.598600009456277">
        <ele>444.44099999999997</ele>
        <time>2015-08-22T12:43:27Z</time>
      </trkpt>
      <trkpt lat="42.827881006523967" lon="-1.598541000857949">
        <ele>444.41500000000002</ele>
        <time>2015-08-22T12:43:31Z</time>
      </trkpt>
      <trkpt lat="42.827809005975723" lon="-1.598385013639927">
        <ele>444.40800000000002</ele>
        <time>2015-08-22T12:43:35Z</time>
      </trkpt>
      <trkpt lat="42.827730970457196" lon="-1.598159037530422">
        <ele>444.45800000000003</ele>
        <time>2015-08-22T12:43:40Z</time>
      </trkpt>
      <trkpt lat="42.82758504152298" lon="-1.597987962886691">
        <ele>444.46699999999998</ele>
        <time>2015-08-22T12:43:45Z</time>
      </trkpt>
      <trkpt lat="42.827300978824496" lon="-1.597817977890372">
        <ele>444.44299999999998</ele>
        <time>2015-08-22T12:43:53Z</time>
      </trkpt>
      <trkpt lat="42.827034015208483" lon="-1.597713958472014">
        <ele>444.48700000000002</ele>
        <time>2015-08-22T12:44:00Z</time>
      </trkpt>
      <trkpt lat="42.826800998300314" lon="-1.597672970965505">
        <ele>444.42000000000002</ele>
        <time>2015-08-22T12:44:06Z</time>
      </trkpt>
      <trkpt lat="42.826723968610168" lon="-1.597666013985872">
        <ele>444.45299999999997</ele>
        <time>2015-08-22T12:44:08Z</time>
      </trkpt>
      <trkpt lat="42.826400008052588" lon="-1.597662996500731">
        <ele>444.87400000000002</ele>
        <time>2015-08-22T12:44:16Z</time>
      </trkpt>
      <trkpt lat="42.82636103220284" lon="-1.597659979015589">
        <ele>445.291</ele>
        <time>2015-08-22T12:44:17Z</time>
      </trkpt>
      <trkpt lat="42.826322978362441" lon="-1.597656961530447">
        <ele>446.05500000000001</ele>
        <time>2015-08-22T12:44:18Z</time>
      </trkpt>
      <trkpt lat="42.826281990855932" lon="-1.597650004550815">
        <ele>446.40699999999998</ele>
        <time>2015-08-22T12:44:19Z</time>
      </trkpt>
      <trkpt lat="42.826075041666627" lon="-1.597601976245642">
        <ele>446.41699999999997</ele>
        <time>2015-08-22T12:44:24Z</time>
      </trkpt>
      <trkpt lat="42.826032964512706" lon="-1.597595019266009">
        <ele>446.40800000000002</ele>
        <time>2015-08-22T12:44:25Z</time>
      </trkpt>
      <trkpt lat="42.8258260153234" lon="-1.597522012889385">
        <ele>446.46600000000001</ele>
        <time>2015-08-22T12:44:30Z</time>
      </trkpt>
      <trkpt lat="42.825745968148112" lon="-1.597475996240974">
        <ele>446.44499999999999</ele>
        <time>2015-08-22T12:44:32Z</time>
      </trkpt>
      <trkpt lat="42.825581012293696" lon="-1.597377005964518">
        <ele>446.411</ele>
        <time>2015-08-22T12:44:36Z</time>
      </trkpt>
      <trkpt lat="42.825341038405895" lon="-1.597212972119451">
        <ele>446.42500000000001</ele>
        <time>2015-08-22T12:44:42Z</time>
      </trkpt>
      <trkpt lat="42.825268032029271" lon="-1.59714600071311">
        <ele>446.45800000000003</ele>
        <time>2015-08-22T12:44:44Z</time>
      </trkpt>
      <trkpt lat="42.825068039819598" lon="-1.596912983804941">
        <ele>446.42099999999999</ele>
        <time>2015-08-22T12:44:50Z</time>
      </trkpt>
      <trkpt lat="42.825010959059" lon="-1.59682204015553">
        <ele>446.452</ele>
        <time>2015-08-22T12:44:52Z</time>
      </trkpt>
      <trkpt lat="42.824943987652659" lon="-1.596746016293764">
        <ele>446.49900000000002</ele>
        <time>2015-08-22T12:44:54Z</time>
      </trkpt>
      <trkpt lat="42.824794035404921" lon="-1.596615007147193">
        <ele>446.43099999999998</ele>
        <time>2015-08-22T12:44:58Z</time>
      </trkpt>
      <trkpt lat="42.82475296407938" lon="-1.596592962741852">
        <ele>446.46100000000001</ele>
        <time>2015-08-22T12:44:59Z</time>
      </trkpt>
      <trkpt lat="42.824670989066362" lon="-1.596542000770569">
        <ele>446.40699999999998</ele>
        <time>2015-08-22T12:45:01Z</time>
      </trkpt>
      <trkpt lat="42.824609968811274" lon="-1.596470000222325">
        <ele>446.40800000000002</ele>
        <time>2015-08-22T12:45:03Z</time>
      </trkpt>
      <trkpt lat="42.824573004618287" lon="-1.596263973042369">
        <ele>446.48399999999998</ele>
        <time>2015-08-22T12:45:07Z</time>
      </trkpt>
      <trkpt lat="42.824648022651672" lon="-1.596122989431024">
        <ele>446.49299999999999</ele>
        <time>2015-08-22T12:45:10Z</time>
      </trkpt>
      <trkpt lat="42.824742989614606" lon="-1.596039002761245">
        <ele>446.47899999999998</ele>
        <time>2015-08-22T12:45:12Z</time>
      </trkpt>
      <trkpt lat="42.824818007647991" lon="-1.595930038020015">
        <ele>446.45299999999997</ele>
        <time>2015-08-22T12:45:14Z</time>
      </trkpt>
      <trkpt lat="42.82483896240592" lon="-1.595733985304833">
        <ele>446.45600000000002</ele>
        <time>2015-08-22T12:45:17Z</time>
      </trkpt>
      <trkpt lat="42.824838040396571" lon="-1.595671037212014">
        <ele>446.47899999999998</ele>
        <time>2015-08-22T12:45:18Z</time>
      </trkpt>
      <trkpt lat="42.824811972677708" lon="-1.59527700394392">
        <ele>446.44</ele>
        <time>2015-08-22T12:45:24Z</time>
      </trkpt>
      <trkpt lat="42.824767967686057" lon="-1.595012973994017">
        <ele>446.47699999999998</ele>
        <time>2015-08-22T12:45:28Z</time>
      </trkpt>
      <trkpt lat="42.82472999766469" lon="-1.594906020909548">
        <ele>446.44600000000003</ele>
        <time>2015-08-22T12:45:30Z</time>
      </trkpt>
      <trkpt lat="42.82464399933815" lon="-1.594638973474503">
        <ele>446.488</ele>
        <time>2015-08-22T12:45:36Z</time>
      </trkpt>
      <trkpt lat="42.824581973254681" lon="-1.594527997076511">
        <ele>446.416</ele>
        <time>2015-08-22T12:45:39Z</time>
      </trkpt>
      <trkpt lat="42.824517013505101" lon="-1.594467982649803">
        <ele>446.40800000000002</ele>
        <time>2015-08-22T12:45:41Z</time>
      </trkpt>
      <trkpt lat="42.824294976890087" lon="-1.594302020967007">
        <ele>446.47500000000002</ele>
        <time>2015-08-22T12:45:45Z</time>
      </trkpt>
      <trkpt lat="42.824070006608963" lon="-1.594156008213759">
        <ele>445.88400000000001</ele>
        <time>2015-08-22T12:45:48Z</time>
      </trkpt>
      <trkpt lat="42.823992976918817" lon="-1.594089958816767">
        <ele>445.42000000000002</ele>
        <time>2015-08-22T12:45:49Z</time>
      </trkpt>
      <trkpt lat="42.823917958885431" lon="-1.594022987410426">
        <ele>445.01400000000001</ele>
        <time>2015-08-22T12:45:50Z</time>
      </trkpt>
      <trkpt lat="42.823851993307471" lon="-1.593945035710931">
        <ele>444.45699999999999</ele>
        <time>2015-08-22T12:45:51Z</time>
      </trkpt>
      <trkpt lat="42.823788961395621" lon="-1.59385803155601">
        <ele>443.81999999999999</ele>
        <time>2015-08-22T12:45:52Z</time>
      </trkpt>
      <trkpt lat="42.823729030787945" lon="-1.59377102740109">
        <ele>443.25099999999998</ele>
        <time>2015-08-22T12:45:53Z</time>
      </trkpt>
      <trkpt lat="42.823674967512488" lon="-1.593676982447505">
        <ele>442.62799999999999</ele>
        <time>2015-08-22T12:45:54Z</time>
      </trkpt>
      <trkpt lat="42.823619982227683" lon="-1.593586038798094">
        <ele>441.863</ele>
        <time>2015-08-22T12:45:55Z</time>
      </trkpt>
      <trkpt lat="42.823566002771258" lon="-1.593500040471554">
        <ele>441.04399999999998</ele>
        <time>2015-08-22T12:45:56Z</time>
      </trkpt>
      <trkpt lat="42.82350598834455" lon="-1.593415969982743">
        <ele>439.41800000000001</ele>
        <time>2015-08-22T12:45:57Z</time>
      </trkpt>
      <trkpt lat="42.823444968089461" lon="-1.593346986919642">
        <ele>438.608</ele>
        <time>2015-08-22T12:45:58Z</time>
      </trkpt>
      <trkpt lat="42.823318988084793" lon="-1.593227963894606">
        <ele>439.09699999999998</ele>
        <time>2015-08-22T12:46:00Z</time>
      </trkpt>
      <trkpt lat="42.823257967829704" lon="-1.593181025236845">
        <ele>439.44600000000003</ele>
        <time>2015-08-22T12:46:01Z</time>
      </trkpt>
      <trkpt lat="42.823199965059757" lon="-1.593135008588433">
        <ele>439.85199999999998</ele>
        <time>2015-08-22T12:46:02Z</time>
      </trkpt>
      <trkpt lat="42.82314196228981" lon="-1.593096032738686">
        <ele>440.29599999999999</ele>
        <time>2015-08-22T12:46:03Z</time>
      </trkpt>
      <trkpt lat="42.823080020025373" lon="-1.59306300804019">
        <ele>440.67899999999997</ele>
        <time>2015-08-22T12:46:04Z</time>
      </trkpt>
      <trkpt lat="42.82296703197062" lon="-1.593006011098623">
        <ele>440.61200000000002</ele>
        <time>2015-08-22T12:46:06Z</time>
      </trkpt>
      <trkpt lat="42.822915986180305" lon="-1.592972986400127">
        <ele>440.68299999999999</ele>
        <time>2015-08-22T12:46:07Z</time>
      </trkpt>
      <trkpt lat="42.822738038375974" lon="-1.592844994738698">
        <ele>440.61000000000001</ele>
        <time>2015-08-22T12:46:11Z</time>
      </trkpt>
      <trkpt lat="42.822617003694177" lon="-1.592754973098636">
        <ele>440.649</ele>
        <time>2015-08-22T12:46:14Z</time>
      </trkpt>
      <trkpt lat="42.822360014542937" lon="-1.592575013637543">
        <ele>440.60199999999998</ele>
        <time>2015-08-22T12:46:21Z</time>
      </trkpt>
      <trkpt lat="42.822164967656136" lon="-1.592450039461255">
        <ele>440.62200000000001</ele>
        <time>2015-08-22T12:46:27Z</time>
      </trkpt>
      <trkpt lat="42.821999005973339" lon="-1.592323975637555">
        <ele>440.608</ele>
        <time>2015-08-22T12:46:33Z</time>
      </trkpt>
      <trkpt lat="42.821826003491879" lon="-1.592201013118029">
        <ele>440.69499999999999</ele>
        <time>2015-08-22T12:46:40Z</time>
      </trkpt>
      <trkpt lat="42.821803037077188" lon="-1.592177962884307">
        <ele>441.024</ele>
        <time>2015-08-22T12:46:41Z</time>
      </trkpt>
      <trkpt lat="42.821779986843467" lon="-1.592159019783139">
        <ele>441.43000000000001</ele>
        <time>2015-08-22T12:46:42Z</time>
      </trkpt>
      <trkpt lat="42.821759032085538" lon="-1.592134041711688">
        <ele>441.834</ele>
        <time>2015-08-22T12:46:43Z</time>
      </trkpt>
      <trkpt lat="42.821737993508577" lon="-1.592108979821205">
        <ele>442.267</ele>
        <time>2015-08-22T12:46:44Z</time>
      </trkpt>
      <trkpt lat="42.821717960759997" lon="-1.592088025063276">
        <ele>442.69</ele>
        <time>2015-08-22T12:46:45Z</time>
      </trkpt>
      <trkpt lat="42.821680996567011" lon="-1.592041002586484">
        <ele>442.65100000000001</ele>
        <time>2015-08-22T12:46:47Z</time>
      </trkpt>
      <trkpt lat="42.821627017110586" lon="-1.591975959017873">
        <ele>443.28800000000001</ele>
        <time>2015-08-22T12:46:50Z</time>
      </trkpt>
      <trkpt lat="42.821608996018767" lon="-1.591951986774802">
        <ele>443.61599999999999</ele>
        <time>2015-08-22T12:46:51Z</time>
      </trkpt>
      <trkpt lat="42.821591980755329" lon="-1.591931032016873">
        <ele>444.07600000000002</ele>
        <time>2015-08-22T12:46:52Z</time>
      </trkpt>
      <trkpt lat="42.821574965491891" lon="-1.591906975954771">
        <ele>444.41300000000001</ele>
        <time>2015-08-22T12:46:53Z</time>
      </trkpt>
      <trkpt lat="42.821559961885214" lon="-1.591885015368462">
        <ele>444.80799999999999</ele>
        <time>2015-08-22T12:46:54Z</time>
      </trkpt>
      <trkpt lat="42.821544958278537" lon="-1.591863976791501">
        <ele>444.81200000000001</ele>
        <time>2015-08-22T12:46:55Z</time>
      </trkpt>
      <trkpt lat="42.821510005742311" lon="-1.591821983456612">
        <ele>444.81099999999998</ele>
        <time>2015-08-22T12:46:57Z</time>
      </trkpt>
      <trkpt lat="42.821407997980714" lon="-1.59168804064393">
        <ele>445.47699999999998</ele>
        <time>2015-08-22T12:47:03Z</time>
      </trkpt>
      <trkpt lat="42.821390982717276" lon="-1.591663984581828">
        <ele>445.89100000000002</ele>
        <time>2015-08-22T12:47:04Z</time>
      </trkpt>
      <trkpt lat="42.821375979110599" lon="-1.591639006510377">
        <ele>446.23399999999998</ele>
        <time>2015-08-22T12:47:05Z</time>
      </trkpt>
      <trkpt lat="42.82135896384716" lon="-1.591617967933416">
        <ele>446.637</ele>
        <time>2015-08-22T12:47:06Z</time>
      </trkpt>
      <trkpt lat="42.821342032402754" lon="-1.591596007347107">
        <ele>447.06799999999998</ele>
        <time>2015-08-22T12:47:07Z</time>
      </trkpt>
      <trkpt lat="42.821266008540988" lon="-1.591511014848948">
        <ele>447.01499999999999</ele>
        <time>2015-08-22T12:47:11Z</time>
      </trkpt>
      <trkpt lat="42.821189984679222" lon="-1.591432979330421">
        <ele>447.47699999999998</ele>
        <time>2015-08-22T12:47:15Z</time>
      </trkpt>
      <trkpt lat="42.821169029921293" lon="-1.591410012915731">
        <ele>447.86099999999999</ele>
        <time>2015-08-22T12:47:16Z</time>
      </trkpt>
      <trkpt lat="42.821146985515952" lon="-1.591392997652292">
        <ele>448.42700000000002</ele>
        <time>2015-08-22T12:47:17Z</time>
      </trkpt>
      <trkpt lat="42.821125024929643" lon="-1.591371959075332">
        <ele>448.80799999999999</ele>
        <time>2015-08-22T12:47:18Z</time>
      </trkpt>
      <trkpt lat="42.821103986352682" lon="-1.591356033459306">
        <ele>449.26799999999997</ele>
        <time>2015-08-22T12:47:19Z</time>
      </trkpt>
      <trkpt lat="42.820989992469549" lon="-1.591180013492703">
        <ele>449.267</ele>
        <time>2015-08-22T12:47:26Z</time>
      </trkpt>
      <trkpt lat="42.820926960557699" lon="-1.591006005182862">
        <ele>449.24299999999999</ele>
        <time>2015-08-22T12:47:32Z</time>
      </trkpt>
      <trkpt lat="42.82092796638608" lon="-1.590971974655986">
        <ele>449.67700000000002</ele>
        <time>2015-08-22T12:47:33Z</time>
      </trkpt>
      <trkpt lat="42.82092897221446" lon="-1.590934004634619">
        <ele>450.04000000000002</ele>
        <time>2015-08-22T12:47:34Z</time>
      </trkpt>
      <trkpt lat="42.820929978042841" lon="-1.590896034613252">
        <ele>450.44299999999998</ele>
        <time>2015-08-22T12:47:35Z</time>
      </trkpt>
      <trkpt lat="42.820932995527983" lon="-1.590862004086375">
        <ele>451.22399999999999</ele>
        <time>2015-08-22T12:47:36Z</time>
      </trkpt>
      <trkpt lat="42.820944981649518" lon="-1.590796038508415">
        <ele>451.23099999999999</ele>
        <time>2015-08-22T12:47:38Z</time>
      </trkpt>
      <trkpt lat="42.820938024669886" lon="-1.590581964701414">
        <ele>451.24299999999999</ele>
        <time>2015-08-22T12:47:45Z</time>
      </trkpt>
      <trkpt lat="42.820935007184744" lon="-1.590438969433308">
        <ele>451.66399999999999</ele>
        <time>2015-08-22T12:47:49Z</time>
      </trkpt>
      <trkpt lat="42.820934001356363" lon="-1.590400999411941">
        <ele>452.00999999999999</ele>
        <time>2015-08-22T12:47:50Z</time>
      </trkpt>
      <trkpt lat="42.820932995527983" lon="-1.590365963056684">
        <ele>452.608</ele>
        <time>2015-08-22T12:47:51Z</time>
      </trkpt>
      <trkpt lat="42.820926960557699" lon="-1.5903340280056">
        <ele>453.07499999999999</ele>
        <time>2015-08-22T12:47:52Z</time>
      </trkpt>
      <trkpt lat="42.82092503271997" lon="-1.590301003307104">
        <ele>453.41399999999999</ele>
        <time>2015-08-22T12:47:53Z</time>
      </trkpt>
      <trkpt lat="42.820923021063209" lon="-1.590268984436989">
        <ele>453.49000000000001</ele>
        <time>2015-08-22T12:47:54Z</time>
      </trkpt>
      <trkpt lat="42.820922015234828" lon="-1.590201007202268">
        <ele>453.84399999999999</ele>
        <time>2015-08-22T12:47:56Z</time>
      </trkpt>
      <trkpt lat="42.820921009406447" lon="-1.590163037180901">
        <ele>454.267</ele>
        <time>2015-08-22T12:47:57Z</time>
      </trkpt>
      <trkpt lat="42.820921009406447" lon="-1.59012196585536">
        <ele>454.81999999999999</ele>
        <time>2015-08-22T12:47:58Z</time>
      </trkpt>
      <trkpt lat="42.820920003578067" lon="-1.590090030804277">
        <ele>455.26100000000002</ele>
        <time>2015-08-22T12:47:59Z</time>
      </trkpt>
      <trkpt lat="42.820916986092925" lon="-1.590050971135497">
        <ele>455.64800000000002</ele>
        <time>2015-08-22T12:48:00Z</time>
      </trkpt>
      <trkpt lat="42.820911034941673" lon="-1.590011995285749">
        <ele>455.63400000000001</ele>
        <time>2015-08-22T12:48:01Z</time>
      </trkpt>
      <trkpt lat="42.820851020514965" lon="-1.5897969994694">
        <ele>455.65499999999997</ele>
        <time>2015-08-22T12:48:07Z</time>
      </trkpt>
      <trkpt lat="42.820723028853536" lon="-1.589521989226341">
        <ele>455.61000000000001</ele>
        <time>2015-08-22T12:48:15Z</time>
      </trkpt>
      <trkpt lat="42.820567963644862" lon="-1.589220995083451">
        <ele>455.608</ele>
        <time>2015-08-22T12:48:24Z</time>
      </trkpt>
      <trkpt lat="42.820534016937017" lon="-1.589151006191969">
        <ele>456.05399999999997</ele>
        <time>2015-08-22T12:48:26Z</time>
      </trkpt>
      <trkpt lat="42.820515995845199" lon="-1.589114964008331">
        <ele>456.65300000000002</ele>
        <time>2015-08-22T12:48:27Z</time>
      </trkpt>
      <trkpt lat="42.820499986410141" lon="-1.589077999815345">
        <ele>457.089</ele>
        <time>2015-08-22T12:48:28Z</time>
      </trkpt>
      <trkpt lat="42.820489006116986" lon="-1.589036006480455">
        <ele>457.41300000000001</ele>
        <time>2015-08-22T12:48:29Z</time>
      </trkpt>
      <trkpt lat="42.820478025823832" lon="-1.588990995660424">
        <ele>457.88600000000002</ele>
        <time>2015-08-22T12:48:30Z</time>
      </trkpt>
      <trkpt lat="42.820468973368406" lon="-1.588946990668774">
        <ele>457.84899999999999</ele>
        <time>2015-08-22T12:48:31Z</time>
      </trkpt>
      <trkpt lat="42.82043200917542" lon="-1.588639039546251">
        <ele>457.88</ele>
        <time>2015-08-22T12:48:38Z</time>
      </trkpt>
      <trkpt lat="42.820357996970415" lon="-1.588385989889503">
        <ele>457.827</ele>
        <time>2015-08-22T12:48:44Z</time>
      </trkpt>
      <trkpt lat="42.820250038057566" lon="-1.588107040151954">
        <ele>457.84800000000001</ele>
        <time>2015-08-22T12:48:51Z</time>
      </trkpt>
      <trkpt lat="42.820180971175432" lon="-1.587960021570325">
        <ele>458.26100000000002</ele>
        <time>2015-08-22T12:48:55Z</time>
      </trkpt>
      <trkpt lat="42.820164961740375" lon="-1.587919034063816">
        <ele>458.61700000000002</ele>
        <time>2015-08-22T12:48:56Z</time>
      </trkpt>
      <trkpt lat="42.820151969790459" lon="-1.587879974395037">
        <ele>459.00799999999998</ele>
        <time>2015-08-22T12:48:57Z</time>
      </trkpt>
      <trkpt lat="42.82013202086091" lon="-1.587844016030431">
        <ele>459.63499999999999</ele>
        <time>2015-08-22T12:48:58Z</time>
      </trkpt>
      <trkpt lat="42.820109976455569" lon="-1.587808979675174">
        <ele>460.06400000000002</ele>
        <time>2015-08-22T12:48:59Z</time>
      </trkpt>
      <trkpt lat="42.819945020601153" lon="-1.58764997497201">
        <ele>460.01999999999998</ele>
        <time>2015-08-22T12:49:05Z</time>
      </trkpt>
      <trkpt lat="42.819771012291312" lon="-1.587603958323598">
        <ele>460.04399999999998</ele>
        <time>2015-08-22T12:49:11Z</time>
      </trkpt>
      <trkpt lat="42.819590969011188" lon="-1.587621979415417">
        <ele>460.04700000000003</ele>
        <time>2015-08-22T12:49:17Z</time>
      </trkpt>
      <trkpt lat="42.819478986784816" lon="-1.587504968047142">
        <ele>460.05000000000001</ele>
        <time>2015-08-22T12:49:22Z</time>
      </trkpt>
      <trkpt lat="42.819307995960116" lon="-1.587358033284545">
        <ele>460.07100000000003</ele>
        <time>2015-08-22T12:49:29Z</time>
      </trkpt>
      <trkpt lat="42.819104986265302" lon="-1.587226018309593">
        <ele>460.048</ele>
        <time>2015-08-22T12:49:37Z</time>
      </trkpt>
      <trkpt lat="42.819055030122399" lon="-1.587198022753">
        <ele>460.89800000000002</ele>
        <time>2015-08-22T12:49:39Z</time>
      </trkpt>
      <trkpt lat="42.819031979888678" lon="-1.587178995832801">
        <ele>461.21499999999997</ele>
        <time>2015-08-22T12:49:40Z</time>
      </trkpt>
      <trkpt lat="42.819004990160465" lon="-1.587162986397743">
        <ele>461.62599999999998</ele>
        <time>2015-08-22T12:49:41Z</time>
      </trkpt>
      <trkpt lat="42.818981017917395" lon="-1.587147982791066">
        <ele>462.00799999999998</ele>
        <time>2015-08-22T12:49:42Z</time>
      </trkpt>
      <trkpt lat="42.818905999884009" lon="-1.587099032476544">
        <ele>462.61000000000001</ele>
        <time>2015-08-22T12:49:45Z</time>
      </trkpt>
      <trkpt lat="42.818881021812558" lon="-1.587081011384726">
        <ele>463.06900000000002</ele>
        <time>2015-08-22T12:49:46Z</time>
      </trkpt>
      <trkpt lat="42.818855037912726" lon="-1.58706801943481">
        <ele>463.48500000000001</ele>
        <time>2015-08-22T12:49:47Z</time>
      </trkpt>
      <trkpt lat="42.818829976022243" lon="-1.587051004171372">
        <ele>463.86900000000003</ele>
        <time>2015-08-22T12:49:48Z</time>
      </trkpt>
      <trkpt lat="42.818803992122412" lon="-1.587030971422792">
        <ele>464.21199999999999</ele>
        <time>2015-08-22T12:49:49Z</time>
      </trkpt>
      <trkpt lat="42.818724028766155" lon="-1.586976991966367">
        <ele>464.21499999999997</ele>
        <time>2015-08-22T12:49:52Z</time>
      </trkpt>
      <trkpt lat="42.818475002422929" lon="-1.586798960343003">
        <ele>464.29599999999999</ele>
        <time>2015-08-22T12:50:02Z</time>
      </trkpt>
      <trkpt lat="42.818337958306074" lon="-1.586760990321636">
        <ele>464.613</ele>
        <time>2015-08-22T12:50:07Z</time>
      </trkpt>
      <trkpt lat="42.818310968577862" lon="-1.586779011413455">
        <ele>465.01600000000002</ele>
        <time>2015-08-22T12:50:08Z</time>
      </trkpt>
      <trkpt lat="42.818282973021269" lon="-1.586793009191752">
        <ele>465.67599999999999</ele>
        <time>2015-08-22T12:50:09Z</time>
      </trkpt>
      <trkpt lat="42.818253971636295" lon="-1.586801977828145">
        <ele>466.01299999999998</ele>
        <time>2015-08-22T12:50:10Z</time>
      </trkpt>
      <trkpt lat="42.818223964422941" lon="-1.586804995313287">
        <ele>466.40800000000002</ele>
        <time>2015-08-22T12:50:11Z</time>
      </trkpt>
      <trkpt lat="42.818131009116769" lon="-1.586775993928313">
        <ele>466.44200000000001</ele>
        <time>2015-08-22T12:50:14Z</time>
      </trkpt>
      <trkpt lat="42.818050961941481" lon="-1.586645990610123">
        <ele>466.48099999999999</ele>
        <time>2015-08-22T12:50:18Z</time>
      </trkpt>
      <trkpt lat="42.818065965548158" lon="-1.586471982300282">
        <ele>466.41699999999997</ele>
        <time>2015-08-22T12:50:22Z</time>
      </trkpt>
      <trkpt lat="42.8181760199368" lon="-1.586312977597117">
        <ele>466.411</ele>
        <time>2015-08-22T12:50:27Z</time>
      </trkpt>
      <trkpt lat="42.818218013271689" lon="-1.586108962073922">
        <ele>466.464</ele>
        <time>2015-08-22T12:50:32Z</time>
      </trkpt>
      <trkpt lat="42.818168979138136" lon="-1.585925985127688">
        <ele>466.42700000000002</ele>
        <time>2015-08-22T12:50:37Z</time>
      </trkpt>
      <trkpt lat="42.818010980263352" lon="-1.585722975432873">
        <ele>466.428</ele>
        <time>2015-08-22T12:50:45Z</time>
      </trkpt>
      <trkpt lat="42.817935040220618" lon="-1.585704032331705">
        <ele>466.83499999999998</ele>
        <time>2015-08-22T12:50:48Z</time>
      </trkpt>
      <trkpt lat="42.817911989986897" lon="-1.58569497987628">
        <ele>467.26600000000002</ele>
        <time>2015-08-22T12:50:49Z</time>
      </trkpt>
      <trkpt lat="42.817886006087065" lon="-1.585689028725028">
        <ele>467.62900000000002</ele>
        <time>2015-08-22T12:50:50Z</time>
      </trkpt>
      <trkpt lat="42.817859016358852" lon="-1.585680982097983">
        <ele>468.02100000000002</ele>
        <time>2015-08-22T12:50:51Z</time>
      </trkpt>
      <trkpt lat="42.81783496029675" lon="-1.585676036775112">
        <ele>468.40800000000002</ele>
        <time>2015-08-22T12:50:52Z</time>
      </trkpt>
      <trkpt lat="42.817647038027644" lon="-1.585625996813178">
        <ele>468.84699999999998</ele>
        <time>2015-08-22T12:51:00Z</time>
      </trkpt>
      <trkpt lat="42.817620970308781" lon="-1.585617028176785">
        <ele>469.24599999999998</ele>
        <time>2015-08-22T12:51:01Z</time>
      </trkpt>
      <trkpt lat="42.817595992237329" lon="-1.58560998737812">
        <ele>469.67200000000003</ele>
        <time>2015-08-22T12:51:02Z</time>
      </trkpt>
      <trkpt lat="42.817570008337498" lon="-1.585604036226869">
        <ele>470.06599999999997</ele>
        <time>2015-08-22T12:51:03Z</time>
      </trkpt>
      <trkpt lat="42.817546036094427" lon="-1.585595989599824">
        <ele>470.47899999999998</ele>
        <time>2015-08-22T12:51:04Z</time>
      </trkpt>
      <trkpt lat="42.817450985312462" lon="-1.585562964901328">
        <ele>470.86200000000002</ele>
        <time>2015-08-22T12:51:08Z</time>
      </trkpt>
      <trkpt lat="42.817430030554533" lon="-1.585553996264935">
        <ele>471.25299999999999</ele>
        <time>2015-08-22T12:51:09Z</time>
      </trkpt>
      <trkpt lat="42.817406980320811" lon="-1.585546033456922">
        <ele>471.64999999999998</ele>
        <time>2015-08-22T12:51:10Z</time>
      </trkpt>
      <trkpt lat="42.817388959228992" lon="-1.585533963516355">
        <ele>472.06099999999998</ele>
        <time>2015-08-22T12:51:11Z</time>
      </trkpt>
      <trkpt lat="42.817365992814302" lon="-1.5855229832232">
        <ele>472.42099999999999</ele>
        <time>2015-08-22T12:51:12Z</time>
      </trkpt>
      <trkpt lat="42.817279994487762" lon="-1.585491970181465">
        <ele>472.81299999999999</ele>
        <time>2015-08-22T12:51:16Z</time>
      </trkpt>
      <trkpt lat="42.817259039729834" lon="-1.585481995716691">
        <ele>473.20800000000003</ele>
        <time>2015-08-22T12:51:17Z</time>
      </trkpt>
      <trkpt lat="42.817239006981254" lon="-1.585464980453253">
        <ele>474.06700000000001</ele>
        <time>2015-08-22T12:51:18Z</time>
      </trkpt>
      <trkpt lat="42.817216962575912" lon="-1.585461962968111">
        <ele>474.42599999999999</ele>
        <time>2015-08-22T12:51:19Z</time>
      </trkpt>
      <trkpt lat="42.817139010876417" lon="-1.585400020703673">
        <ele>474.452</ele>
        <time>2015-08-22T12:51:23Z</time>
      </trkpt>
      <trkpt lat="42.817005990073085" lon="-1.585298012942076">
        <ele>475.04599999999999</ele>
        <time>2015-08-22T12:51:30Z</time>
      </trkpt>
      <trkpt lat="42.816986963152885" lon="-1.585287032648921">
        <ele>475.47899999999998</ele>
        <time>2015-08-22T12:51:31Z</time>
      </trkpt>
      <trkpt lat="42.816966008394957" lon="-1.585277980193496">
        <ele>475.892</ele>
        <time>2015-08-22T12:51:32Z</time>
      </trkpt>
      <trkpt lat="42.816945975646377" lon="-1.585268005728722">
        <ele>476.483</ele>
        <time>2015-08-22T12:51:33Z</time>
      </trkpt>
      <trkpt lat="42.816926026716828" lon="-1.585257025435567">
        <ele>476.83999999999997</ele>
        <time>2015-08-22T12:51:34Z</time>
      </trkpt>
      <trkpt lat="42.816824018955231" lon="-1.585177984088659">
        <ele>476.815</ele>
        <time>2015-08-22T12:51:39Z</time>
      </trkpt>
      <trkpt lat="42.816656967625022" lon="-1.585063990205526">
        <ele>476.86500000000001</ele>
        <time>2015-08-22T12:51:47Z</time>
      </trkpt>
      <trkpt lat="42.816472984850407" lon="-1.584961982443929">
        <ele>476.81099999999998</ele>
        <time>2015-08-22T12:51:55Z</time>
      </trkpt>
      <trkpt lat="42.816291013732553" lon="-1.584872966632247">
        <ele>476.80799999999999</ele>
        <time>2015-08-22T12:52:03Z</time>
      </trkpt>
      <trkpt lat="42.816234016790986" lon="-1.584851006045938">
        <ele>476.81200000000001</ele>
        <time>2015-08-22T12:52:05Z</time>
      </trkpt>
      <trkpt lat="42.816170984879136" lon="-1.584809012711048">
        <ele>476.81099999999998</ele>
        <time>2015-08-22T12:52:07Z</time>
      </trkpt>
      <trkpt lat="42.816132009029388" lon="-1.584789985790849">
        <ele>476.89699999999999</ele>
        <time>2015-08-22T12:52:08Z</time>
      </trkpt>
      <trkpt lat="42.816085992380977" lon="-1.584761990234256">
        <ele>476.83100000000002</ele>
        <time>2015-08-22T12:52:09Z</time>
      </trkpt>
      <trkpt lat="42.815982978790998" lon="-1.584702981635928">
        <ele>476.87400000000002</ele>
        <time>2015-08-22T12:52:11Z</time>
      </trkpt>
      <trkpt lat="42.81581399962306" lon="-1.584586976096034">
        <ele>476.887</ele>
        <time>2015-08-22T12:52:14Z</time>
      </trkpt>
      <trkpt lat="42.815757002681494" lon="-1.584550011903048">
        <ele>476.43799999999999</ele>
        <time>2015-08-22T12:52:15Z</time>
      </trkpt>
      <trkpt lat="42.815706040710211" lon="-1.584507012739778">
        <ele>476.07499999999999</ele>
        <time>2015-08-22T12:52:16Z</time>
      </trkpt>
      <trkpt lat="42.815652983263135" lon="-1.584467031061649">
        <ele>475.661</ele>
        <time>2015-08-22T12:52:17Z</time>
      </trkpt>
      <trkpt lat="42.815600009635091" lon="-1.584428977221251">
        <ele>475.221</ele>
        <time>2015-08-22T12:52:18Z</time>
      </trkpt>
      <trkpt lat="42.815547036007047" lon="-1.584394024685025">
        <ele>474.81299999999999</ele>
        <time>2015-08-22T12:52:19Z</time>
      </trkpt>
      <trkpt lat="42.815445028245449" lon="-1.584318000823259">
        <ele>474.80799999999999</ele>
        <time>2015-08-22T12:52:21Z</time>
      </trkpt>
      <trkpt lat="42.81534100882709" lon="-1.584254968911409">
        <ele>474.41699999999997</ele>
        <time>2015-08-22T12:52:23Z</time>
      </trkpt>
      <trkpt lat="42.815285017713904" lon="-1.584221022203565">
        <ele>474.01600000000002</ele>
        <time>2015-08-22T12:52:24Z</time>
      </trkpt>
      <trkpt lat="42.81523103825748" lon="-1.584189003333449">
        <ele>473.63200000000001</ele>
        <time>2015-08-22T12:52:25Z</time>
      </trkpt>
      <trkpt lat="42.815177980810404" lon="-1.584153966978192">
        <ele>473.286</ele>
        <time>2015-08-22T12:52:26Z</time>
      </trkpt>
      <trkpt lat="42.815129030495882" lon="-1.584120020270348">
        <ele>472.82900000000001</ele>
        <time>2015-08-22T12:52:27Z</time>
      </trkpt>
      <trkpt lat="42.815000033006072" lon="-1.584000997245312">
        <ele>472.83199999999999</ele>
        <time>2015-08-22T12:52:30Z</time>
      </trkpt>
      <trkpt lat="42.81482401303947" lon="-1.583850961178541">
        <ele>472.863</ele>
        <time>2015-08-22T12:52:35Z</time>
      </trkpt>
      <trkpt lat="42.814680011942983" lon="-1.583727998659015">
        <ele>472.49000000000001</ele>
        <time>2015-08-22T12:52:40Z</time>
      </trkpt>
      <trkpt lat="42.814656039699912" lon="-1.583703020587564">
        <ele>471.863</ele>
        <time>2015-08-22T12:52:41Z</time>
      </trkpt>
      <trkpt lat="42.814633995294571" lon="-1.583678964525461">
        <ele>471.44400000000002</ele>
        <time>2015-08-22T12:52:42Z</time>
      </trkpt>
      <trkpt lat="42.8146100230515" lon="-1.583652980625629">
        <ele>471.01799999999997</ele>
        <time>2015-08-22T12:52:43Z</time>
      </trkpt>
      <trkpt lat="42.814586972817779" lon="-1.583625990897417">
        <ele>470.608</ele>
        <time>2015-08-22T12:52:44Z</time>
      </trkpt>
      <trkpt lat="42.814446995034814" lon="-1.583486013114452">
        <ele>470.62700000000001</ele>
        <time>2015-08-22T12:52:49Z</time>
      </trkpt>
      <trkpt lat="42.814294025301933" lon="-1.583280991762877">
        <ele>470.62599999999998</ele>
        <time>2015-08-22T12:52:56Z</time>
      </trkpt>
      <trkpt lat="42.81417902559042" lon="-1.583132967352867">
        <ele>470.67200000000003</ele>
        <time>2015-08-22T12:53:02Z</time>
      </trkpt>
      <trkpt lat="42.81403100118041" lon="-1.58294596709311">
        <ele>470.61599999999999</ele>
        <time>2015-08-22T12:53:10Z</time>
      </trkpt>
      <trkpt lat="42.813909966498613" lon="-1.582832979038358">
        <ele>470.62900000000002</ele>
        <time>2015-08-22T12:53:16Z</time>
      </trkpt>
      <trkpt lat="42.813712991774082" lon="-1.582725020125508">
        <ele>470.67200000000003</ele>
        <time>2015-08-22T12:53:25Z</time>
      </trkpt>
      <trkpt lat="42.813667980954051" lon="-1.582699036225677">
        <ele>471.01299999999998</ele>
        <time>2015-08-22T12:53:27Z</time>
      </trkpt>
      <trkpt lat="42.813646020367742" lon="-1.58268696628511">
        <ele>471.62</ele>
        <time>2015-08-22T12:53:28Z</time>
      </trkpt>
      <trkpt lat="42.813624981790781" lon="-1.582667017355561">
        <ele>472.02800000000002</ele>
        <time>2015-08-22T12:53:29Z</time>
      </trkpt>
      <trkpt lat="42.813603021204472" lon="-1.582657964900136">
        <ele>472.48899999999998</ele>
        <time>2015-08-22T12:53:30Z</time>
      </trkpt>
      <trkpt lat="42.81357997097075" lon="-1.582647990435362">
        <ele>472.81700000000001</ele>
        <time>2015-08-22T12:53:31Z</time>
      </trkpt>
      <trkpt lat="42.813560022041202" lon="-1.582628963515163">
        <ele>472.80799999999999</ele>
        <time>2015-08-22T12:53:32Z</time>
      </trkpt>
      <trkpt lat="42.813384002074599" lon="-1.582501977682114">
        <ele>472.89299999999997</ele>
        <time>2015-08-22T12:53:40Z</time>
      </trkpt>
      <trkpt lat="42.813253998756409" lon="-1.582395024597645">
        <ele>472.892</ele>
        <time>2015-08-22T12:53:46Z</time>
      </trkpt>
      <trkpt lat="42.813232960179448" lon="-1.582378009334207">
        <ele>472.87799999999999</ele>
        <time>2015-08-22T12:53:47Z</time>
      </trkpt>
      <trkpt lat="42.813173029571772" lon="-1.58232101239264">
        <ele>473.25200000000001</ele>
        <time>2015-08-22T12:53:50Z</time>
      </trkpt>
      <trkpt lat="42.813151990994811" lon="-1.582302991300821">
        <ele>473.84500000000003</ele>
        <time>2015-08-22T12:53:51Z</time>
      </trkpt>
      <trkpt lat="42.813130030408502" lon="-1.582285976037383">
        <ele>474.27800000000002</ele>
        <time>2015-08-22T12:53:52Z</time>
      </trkpt>
      <trkpt lat="42.813105974346399" lon="-1.582270972430706">
        <ele>474.649</ele>
        <time>2015-08-22T12:53:53Z</time>
      </trkpt>
      <trkpt lat="42.81308501958847" lon="-1.582253035157919">
        <ele>475.02600000000001</ele>
        <time>2015-08-22T12:53:54Z</time>
      </trkpt>
      <trkpt lat="42.813006984069943" lon="-1.58219100907445">
        <ele>475.43799999999999</ele>
        <time>2015-08-22T12:53:58Z</time>
      </trkpt>
      <trkpt lat="42.812989968806505" lon="-1.58217097632587">
        <ele>475.87</ele>
        <time>2015-08-22T12:53:59Z</time>
      </trkpt>
      <trkpt lat="42.812969014048576" lon="-1.582155972719193">
        <ele>476.21699999999998</ele>
        <time>2015-08-22T12:54:00Z</time>
      </trkpt>
      <trkpt lat="42.812947975471616" lon="-1.582138035446405">
        <ele>476.608</ele>
        <time>2015-08-22T12:54:01Z</time>
      </trkpt>
      <trkpt lat="42.812931966036558" lon="-1.582116996869445">
        <ele>477.03399999999999</ele>
        <time>2015-08-22T12:54:02Z</time>
      </trkpt>
      <trkpt lat="42.812850996851921" lon="-1.582093024626374">
        <ele>477.02300000000002</ele>
        <time>2015-08-22T12:54:06Z</time>
      </trkpt>
      <trkpt lat="42.812714958563447" lon="-1.582050025463104">
        <ele>477.06900000000002</ele>
        <time>2015-08-22T12:54:13Z</time>
      </trkpt>
      <trkpt lat="42.812571963295341" lon="-1.582027981057763">
        <ele>477.06299999999999</ele>
        <time>2015-08-22T12:54:17Z</time>
      </trkpt>
      <trkpt lat="42.81252795830369" lon="-1.582046002149582">
        <ele>477.01600000000002</ele>
        <time>2015-08-22T12:54:18Z</time>
      </trkpt>
      <trkpt lat="42.81243902631104" lon="-1.582077015191317">
        <ele>477.03899999999999</ele>
        <time>2015-08-22T12:54:20Z</time>
      </trkpt>
      <trkpt lat="42.812394015491009" lon="-1.582102999091148">
        <ele>477.04000000000002</ele>
        <time>2015-08-22T12:54:21Z</time>
      </trkpt>
      <trkpt lat="42.812263006344438" lon="-1.582190003246069">
        <ele>477.03699999999998</ele>
        <time>2015-08-22T12:54:24Z</time>
      </trkpt>
      <trkpt lat="42.812212966382504" lon="-1.582221016287804">
        <ele>476.66699999999997</ele>
        <time>2015-08-22T12:54:25Z</time>
      </trkpt>
      <trkpt lat="42.812159992754459" lon="-1.582242976874113">
        <ele>476.28100000000001</ele>
        <time>2015-08-22T12:54:26Z</time>
      </trkpt>
      <trkpt lat="42.812102995812893" lon="-1.5822540409863">
        <ele>475.81900000000002</ele>
        <time>2015-08-22T12:54:27Z</time>
      </trkpt>
      <trkpt lat="42.812042981386185" lon="-1.58225798048079">
        <ele>475.40800000000002</ele>
        <time>2015-08-22T12:54:28Z</time>
      </trkpt>
      <trkpt lat="42.811981961131096" lon="-1.58225798048079">
        <ele>475.08699999999999</ele>
        <time>2015-08-22T12:54:29Z</time>
      </trkpt>
      <trkpt lat="42.81192597001791" lon="-1.582258986309171">
        <ele>475.06599999999997</ele>
        <time>2015-08-22T12:54:30Z</time>
      </trkpt>
      <trkpt lat="42.811776017770171" lon="-1.582258986309171">
        <ele>474.62200000000001</ele>
        <time>2015-08-22T12:54:33Z</time>
      </trkpt>
      <trkpt lat="42.811733018606901" lon="-1.582253035157919">
        <ele>474.04599999999999</ele>
        <time>2015-08-22T12:54:34Z</time>
      </trkpt>
      <trkpt lat="42.811696976423264" lon="-1.582243982702494">
        <ele>473.21899999999999</ele>
        <time>2015-08-22T12:54:35Z</time>
      </trkpt>
      <trkpt lat="42.811668980866671" lon="-1.582254962995648">
        <ele>472.69200000000001</ele>
        <time>2015-08-22T12:54:36Z</time>
      </trkpt>
      <trkpt lat="42.811635034158826" lon="-1.582311959937215">
        <ele>472.63299999999998</ele>
        <time>2015-08-22T12:54:38Z</time>
      </trkpt>
      <trkpt lat="42.811625981703401" lon="-1.582344984635711">
        <ele>472.66000000000003</ele>
        <time>2015-08-22T12:54:39Z</time>
      </trkpt>
      <trkpt lat="42.811590023338795" lon="-1.582469958811998">
        <ele>472.65600000000001</ele>
        <time>2015-08-22T12:54:42Z</time>
      </trkpt>
      <trkpt lat="42.81160200946033" lon="-1.5825579687953">
        <ele>472.65899999999999</ele>
        <time>2015-08-22T12:54:44Z</time>
      </trkpt>
      <trkpt lat="42.811736958101392" lon="-1.583055015653372">
        <ele>472.61399999999998</ele>
        <time>2015-08-22T12:54:54Z</time>
      </trkpt>
      <trkpt lat="42.811769982799888" lon="-1.583192981779575">
        <ele>472.608</ele>
        <time>2015-08-22T12:54:57Z</time>
      </trkpt>
      <trkpt lat="42.811792027205229" lon="-1.58328996039927">
        <ele>472.69600000000003</ele>
        <time>2015-08-22T12:54:59Z</time>
      </trkpt>
      <trkpt lat="42.811804013326764" lon="-1.583384005352855">
        <ele>472.63499999999999</ele>
        <time>2015-08-22T12:55:01Z</time>
      </trkpt>
      <trkpt lat="42.811806024983525" lon="-1.583423987030983">
        <ele>472.21100000000001</ele>
        <time>2015-08-22T12:55:02Z</time>
      </trkpt>
      <trkpt lat="42.811810970306396" lon="-1.583476960659027">
        <ele>471.85500000000002</ele>
        <time>2015-08-22T12:55:03Z</time>
      </trkpt>
      <trkpt lat="42.811822034418583" lon="-1.583530018106103">
        <ele>471.41800000000001</ele>
        <time>2015-08-22T12:55:04Z</time>
      </trkpt>
      <trkpt lat="42.811825973913074" lon="-1.583586009219289">
        <ele>471.03100000000001</ele>
        <time>2015-08-22T12:55:05Z</time>
      </trkpt>
      <trkpt lat="42.811805019155145" lon="-1.583618028089404">
        <ele>470.62200000000001</ele>
        <time>2015-08-22T12:55:06Z</time>
      </trkpt>
      <trkpt lat="42.811779035255313" lon="-1.58365398645401">
        <ele>470.66899999999998</ele>
        <time>2015-08-22T12:55:07Z</time>
      </trkpt>
      <trkpt lat="42.811699993908405" lon="-1.583775021135807">
        <ele>470.65699999999998</ele>
        <time>2015-08-22T12:55:10Z</time>
      </trkpt>
      <trkpt lat="42.811652971431613" lon="-1.583879962563515">
        <ele>470.60000000000002</ele>
        <time>2015-08-22T12:55:12Z</time>
      </trkpt>
      <trkpt lat="42.811620030552149" lon="-1.583923967555165">
        <ele>470.22000000000003</ele>
        <time>2015-08-22T12:55:13Z</time>
      </trkpt>
      <trkpt lat="42.811598991975188" lon="-1.583970990031958">
        <ele>469.80799999999999</ele>
        <time>2015-08-22T12:55:14Z</time>
      </trkpt>
      <trkpt lat="42.811573008075356" lon="-1.584022035822272">
        <ele>469.286</ele>
        <time>2015-08-22T12:55:15Z</time>
      </trkpt>
      <trkpt lat="42.811552975326777" lon="-1.58406101167202">
        <ele>468.875</ele>
        <time>2015-08-22T12:55:16Z</time>
      </trkpt>
      <trkpt lat="42.811519028618932" lon="-1.584094036370516">
        <ele>468.42099999999999</ele>
        <time>2015-08-22T12:55:17Z</time>
      </trkpt>
      <trkpt lat="42.811439987272024" lon="-1.584143992513418">
        <ele>468.495</ele>
        <time>2015-08-22T12:55:19Z</time>
      </trkpt>
      <trkpt lat="42.811350971460342" lon="-1.584187997505069">
        <ele>468.08800000000002</ele>
        <time>2015-08-22T12:55:21Z</time>
      </trkpt>
      <trkpt lat="42.81130101531744" lon="-1.584209036082029">
        <ele>467.61099999999999</ele>
        <time>2015-08-22T12:55:22Z</time>
      </trkpt>
      <trkpt lat="42.811246030032635" lon="-1.584234014153481">
        <ele>467.072</ele>
        <time>2015-08-22T12:55:23Z</time>
      </trkpt>
      <trkpt lat="42.811188027262688" lon="-1.584256980568171">
        <ele>466.61900000000003</ele>
        <time>2015-08-22T12:55:24Z</time>
      </trkpt>
      <trkpt lat="42.811132958158851" lon="-1.584279024973512">
        <ele>466.27800000000002</ele>
        <time>2015-08-22T12:55:25Z</time>
      </trkpt>
      <trkpt lat="42.811075961217284" lon="-1.584302997216582">
        <ele>466.233</ele>
        <time>2015-08-22T12:55:26Z</time>
      </trkpt>
      <trkpt lat="42.810675976797938" lon="-1.584478011354804">
        <ele>466.226</ele>
        <time>2015-08-22T12:55:33Z</time>
      </trkpt>
      <trkpt lat="42.810358973219991" lon="-1.584612037986517">
        <ele>466.20800000000003</ele>
        <time>2015-08-22T12:55:40Z</time>
      </trkpt>
      <trkpt lat="42.810316979885101" lon="-1.584629975259304">
        <ele>466.24799999999999</ele>
        <time>2015-08-22T12:55:41Z</time>
      </trkpt>
      <trkpt lat="42.810166021808982" lon="-1.584716979414225">
        <ele>466.29700000000003</ele>
        <time>2015-08-22T12:55:45Z</time>
      </trkpt>
      <trkpt lat="42.810143977403641" lon="-1.584767019376159">
        <ele>466.26299999999998</ele>
        <time>2015-08-22T12:55:46Z</time>
      </trkpt>
      <trkpt lat="42.810121010988951" lon="-1.584873972460628">
        <ele>466.27699999999999</ele>
        <time>2015-08-22T12:55:48Z</time>
      </trkpt>
      <trkpt lat="42.810129979625344" lon="-1.585062984377146">
        <ele>466.26999999999998</ele>
        <time>2015-08-22T12:55:51Z</time>
      </trkpt>
      <trkpt lat="42.810145989060402" lon="-1.585124004632235">
        <ele>466.26299999999998</ele>
        <time>2015-08-22T12:55:52Z</time>
      </trkpt>
      <trkpt lat="42.810220001265407" lon="-1.585366996005178">
        <ele>465.82400000000001</ele>
        <time>2015-08-22T12:55:56Z</time>
      </trkpt>
      <trkpt lat="42.810237016528845" lon="-1.585430027917028">
        <ele>465.411</ele>
        <time>2015-08-22T12:55:57Z</time>
      </trkpt>
      <trkpt lat="42.810252020135522" lon="-1.585491970181465">
        <ele>465.02300000000002</ele>
        <time>2015-08-22T12:55:58Z</time>
      </trkpt>
      <trkpt lat="42.810256965458393" lon="-1.585551984608173">
        <ele>464.68299999999999</ele>
        <time>2015-08-22T12:55:59Z</time>
      </trkpt>
      <trkpt lat="42.810244979336858" lon="-1.58560998737812">
        <ele>464.21100000000001</ele>
        <time>2015-08-22T12:56:00Z</time>
      </trkpt>
      <trkpt lat="42.810181025415659" lon="-1.585679976269603">
        <ele>464.20800000000003</ele>
        <time>2015-08-22T12:56:02Z</time>
      </trkpt>
      <trkpt lat="42.810020009055734" lon="-1.585720041766763">
        <ele>464.21300000000002</ele>
        <time>2015-08-22T12:56:06Z</time>
      </trkpt>
      <trkpt lat="42.809982039034367" lon="-1.585735967382789">
        <ele>464.29199999999997</ele>
        <time>2015-08-22T12:56:07Z</time>
      </trkpt>
      <trkpt lat="42.809833008795977" lon="-1.585806040093303">
        <ele>464.27800000000002</ele>
        <time>2015-08-22T12:56:11Z</time>
      </trkpt>
      <trkpt lat="42.809795960783958" lon="-1.585821965709329">
        <ele>464.28199999999998</ele>
        <time>2015-08-22T12:56:12Z</time>
      </trkpt>
      <trkpt lat="42.809652965515852" lon="-1.585884997621179">
        <ele>464.28500000000003</ele>
        <time>2015-08-22T12:56:16Z</time>
      </trkpt>
      <trkpt lat="42.809541989117861" lon="-1.585935959592462">
        <ele>464.298</ele>
        <time>2015-08-22T12:56:19Z</time>
      </trkpt>
      <trkpt lat="42.809413997456431" lon="-1.586012989282608">
        <ele>464.29899999999998</ele>
        <time>2015-08-22T12:56:23Z</time>
      </trkpt>
      <trkpt lat="42.809402011334896" lon="-1.586050037294626">
        <ele>464.26600000000002</ele>
        <time>2015-08-22T12:56:24Z</time>
      </trkpt>
      <trkpt lat="42.809422966092825" lon="-1.586208958178759">
        <ele>464.21499999999997</ele>
        <time>2015-08-22T12:56:28Z</time>
      </trkpt>
      <trkpt lat="42.80949697829783" lon="-1.586494026705623">
        <ele>464.26499999999999</ele>
        <time>2015-08-22T12:56:34Z</time>
      </trkpt>
      <trkpt lat="42.809525979682803" lon="-1.58659502863884">
        <ele>464.21100000000001</ele>
        <time>2015-08-22T12:56:36Z</time>
      </trkpt>
      <trkpt lat="42.809589011594653" lon="-1.586804995313287">
        <ele>464.20800000000003</ele>
        <time>2015-08-22T12:56:40Z</time>
      </trkpt>
      <trkpt lat="42.80960300937295" lon="-1.586860986426473">
        <ele>464.262</ele>
        <time>2015-08-22T12:56:41Z</time>
      </trkpt>
    </trkseg>
  </trk>
</gpx>
